<?xml version="1.0" encoding="UTF-8" standalone="no" ?>
<gpx xmlns="http://www.topografix.com/GPX/1/1" xmlns:xsi="http://www.w3.org/2001/XMLSchema-instance" xsi:schemaLocation="http://www.topografix.com/GPX/1/1 http://www.topografix.com/GPX/1/1/gpx.xsd" version="1.1" creator="VisuGPX - https://www.visugpx.com">
  <metadata>
    <name>Tournefeuille Cyclisme sur route</name>
  </metadata>
  <trk>
    <name><![CDATA[Tournefeuille Cyclisme sur route_1]]></name>
    <trkseg>
      <trkpt lat="43.58683" lon="1.31996">
        <ele>188.2</ele>
        <time>2024-07-11T06:18:53Z</time>
      </trkpt>
      <trkpt lat="43.58682" lon="1.31989">
        <ele>187.8</ele>
        <time>2024-07-11T06:18:54Z</time>
      </trkpt>
      <trkpt lat="43.58681" lon="1.31984">
        <ele>189.6</ele>
        <time>2024-07-11T06:18:55Z</time>
      </trkpt>
      <trkpt lat="43.58679" lon="1.31978">
        <ele>190</ele>
        <time>2024-07-11T06:18:56Z</time>
      </trkpt>
      <trkpt lat="43.58678" lon="1.31974">
        <ele>190.2</ele>
        <time>2024-07-11T06:18:57Z</time>
      </trkpt>
      <trkpt lat="43.58676" lon="1.31972">
        <ele>190.2</ele>
        <time>2024-07-11T06:18:58Z</time>
      </trkpt>
      <trkpt lat="43.58674" lon="1.31967">
        <ele>190.4</ele>
        <time>2024-07-11T06:18:59Z</time>
      </trkpt>
      <trkpt lat="43.58671" lon="1.31963">
        <ele>190</ele>
        <time>2024-07-11T06:19:00Z</time>
      </trkpt>
      <trkpt lat="43.58669" lon="1.31959">
        <ele>190.2</ele>
        <time>2024-07-11T06:19:01Z</time>
      </trkpt>
      <trkpt lat="43.58666" lon="1.31954">
        <ele>190.2</ele>
        <time>2024-07-11T06:19:02Z</time>
      </trkpt>
      <trkpt lat="43.58662" lon="1.31947">
        <ele>190.4</ele>
        <time>2024-07-11T06:19:03Z</time>
      </trkpt>
      <trkpt lat="43.58659" lon="1.31942">
        <ele>190</ele>
        <time>2024-07-11T06:19:04Z</time>
      </trkpt>
      <trkpt lat="43.58655" lon="1.31935">
        <ele>190.2</ele>
        <time>2024-07-11T06:19:05Z</time>
      </trkpt>
      <trkpt lat="43.58651" lon="1.31929">
        <ele>190.2</ele>
        <time>2024-07-11T06:19:06Z</time>
      </trkpt>
      <trkpt lat="43.58647" lon="1.31922">
        <ele>190.2</ele>
        <time>2024-07-11T06:19:07Z</time>
      </trkpt>
      <trkpt lat="43.58644" lon="1.31917">
        <ele>190.2</ele>
        <time>2024-07-11T06:19:08Z</time>
      </trkpt>
      <trkpt lat="43.5864" lon="1.3191">
        <ele>190.4</ele>
        <time>2024-07-11T06:19:09Z</time>
      </trkpt>
      <trkpt lat="43.58636" lon="1.31903">
        <ele>190.4</ele>
        <time>2024-07-11T06:19:10Z</time>
      </trkpt>
      <trkpt lat="43.58632" lon="1.31896">
        <ele>190.4</ele>
        <time>2024-07-11T06:19:11Z</time>
      </trkpt>
      <trkpt lat="43.58627" lon="1.3189">
        <ele>190.4</ele>
        <time>2024-07-11T06:19:12Z</time>
      </trkpt>
      <trkpt lat="43.58622" lon="1.31884">
        <ele>190.6</ele>
        <time>2024-07-11T06:19:13Z</time>
      </trkpt>
      <trkpt lat="43.58616" lon="1.31879">
        <ele>190.6</ele>
        <time>2024-07-11T06:19:14Z</time>
      </trkpt>
      <trkpt lat="43.5861" lon="1.31874">
        <ele>190.6</ele>
        <time>2024-07-11T06:19:15Z</time>
      </trkpt>
      <trkpt lat="43.58604" lon="1.31869">
        <ele>190.6</ele>
        <time>2024-07-11T06:19:16Z</time>
      </trkpt>
      <trkpt lat="43.58599" lon="1.31864">
        <ele>190.8</ele>
        <time>2024-07-11T06:19:17Z</time>
      </trkpt>
      <trkpt lat="43.58593" lon="1.31859">
        <ele>190.8</ele>
        <time>2024-07-11T06:19:18Z</time>
      </trkpt>
      <trkpt lat="43.58587" lon="1.31854">
        <ele>190.8</ele>
        <time>2024-07-11T06:19:19Z</time>
      </trkpt>
      <trkpt lat="43.58581" lon="1.3185">
        <ele>191</ele>
        <time>2024-07-11T06:19:20Z</time>
      </trkpt>
      <trkpt lat="43.58576" lon="1.31845">
        <ele>191</ele>
        <time>2024-07-11T06:19:21Z</time>
      </trkpt>
      <trkpt lat="43.5857" lon="1.3184">
        <ele>191</ele>
        <time>2024-07-11T06:19:22Z</time>
      </trkpt>
      <trkpt lat="43.58565" lon="1.31835">
        <ele>191.2</ele>
        <time>2024-07-11T06:19:23Z</time>
      </trkpt>
      <trkpt lat="43.58559" lon="1.31829">
        <ele>191.2</ele>
        <time>2024-07-11T06:19:24Z</time>
      </trkpt>
      <trkpt lat="43.58554" lon="1.31824">
        <ele>191.2</ele>
        <time>2024-07-11T06:19:25Z</time>
      </trkpt>
      <trkpt lat="43.58548" lon="1.31818">
        <ele>191.4</ele>
        <time>2024-07-11T06:19:26Z</time>
      </trkpt>
      <trkpt lat="43.58543" lon="1.31812">
        <ele>191.4</ele>
        <time>2024-07-11T06:19:27Z</time>
      </trkpt>
      <trkpt lat="43.58537" lon="1.31807">
        <ele>191.6</ele>
        <time>2024-07-11T06:19:28Z</time>
      </trkpt>
      <trkpt lat="43.58532" lon="1.318">
        <ele>191.6</ele>
        <time>2024-07-11T06:19:29Z</time>
      </trkpt>
      <trkpt lat="43.58527" lon="1.31794">
        <ele>191.6</ele>
        <time>2024-07-11T06:19:30Z</time>
      </trkpt>
      <trkpt lat="43.58521" lon="1.31788">
        <ele>191.8</ele>
        <time>2024-07-11T06:19:31Z</time>
      </trkpt>
      <trkpt lat="43.58516" lon="1.31781">
        <ele>191.8</ele>
        <time>2024-07-11T06:19:37Z</time>
      </trkpt>
      <trkpt lat="43.58508" lon="1.31771">
        <ele>191.8</ele>
        <time>2024-07-11T06:19:38Z</time>
      </trkpt>
      <trkpt lat="43.58502" lon="1.31764">
        <ele>191.8</ele>
        <time>2024-07-11T06:19:39Z</time>
      </trkpt>
      <trkpt lat="43.58496" lon="1.31758">
        <ele>192</ele>
        <time>2024-07-11T06:19:40Z</time>
      </trkpt>
      <trkpt lat="43.58491" lon="1.31752">
        <ele>192</ele>
        <time>2024-07-11T06:19:41Z</time>
      </trkpt>
      <trkpt lat="43.58485" lon="1.31746">
        <ele>192</ele>
        <time>2024-07-11T06:19:42Z</time>
      </trkpt>
      <trkpt lat="43.58478" lon="1.31738">
        <ele>192</ele>
        <time>2024-07-11T06:19:43Z</time>
      </trkpt>
      <trkpt lat="43.58474" lon="1.31733">
        <ele>192.2</ele>
        <time>2024-07-11T06:19:44Z</time>
      </trkpt>
      <trkpt lat="43.58468" lon="1.31727">
        <ele>192.2</ele>
        <time>2024-07-11T06:19:45Z</time>
      </trkpt>
      <trkpt lat="43.58463" lon="1.31721">
        <ele>192.2</ele>
        <time>2024-07-11T06:19:46Z</time>
      </trkpt>
      <trkpt lat="43.58457" lon="1.31715">
        <ele>192.2</ele>
        <time>2024-07-11T06:19:47Z</time>
      </trkpt>
      <trkpt lat="43.58452" lon="1.31709">
        <ele>192.2</ele>
        <time>2024-07-11T06:19:48Z</time>
      </trkpt>
      <trkpt lat="43.58447" lon="1.31702">
        <ele>192.2</ele>
        <time>2024-07-11T06:19:49Z</time>
      </trkpt>
      <trkpt lat="43.58441" lon="1.31695">
        <ele>192.4</ele>
        <time>2024-07-11T06:19:50Z</time>
      </trkpt>
      <trkpt lat="43.58436" lon="1.31689">
        <ele>192.4</ele>
        <time>2024-07-11T06:19:51Z</time>
      </trkpt>
      <trkpt lat="43.58431" lon="1.31683">
        <ele>192.4</ele>
        <time>2024-07-11T06:19:52Z</time>
      </trkpt>
      <trkpt lat="43.58425" lon="1.31677">
        <ele>192.4</ele>
        <time>2024-07-11T06:19:53Z</time>
      </trkpt>
      <trkpt lat="43.58419" lon="1.31669">
        <ele>192.6</ele>
        <time>2024-07-11T06:19:54Z</time>
      </trkpt>
      <trkpt lat="43.58415" lon="1.31665">
        <ele>192.6</ele>
        <time>2024-07-11T06:19:55Z</time>
      </trkpt>
      <trkpt lat="43.5841" lon="1.3166">
        <ele>192.6</ele>
        <time>2024-07-11T06:19:56Z</time>
      </trkpt>
      <trkpt lat="43.58405" lon="1.31655">
        <ele>192.2</ele>
        <time>2024-07-11T06:19:57Z</time>
      </trkpt>
      <trkpt lat="43.58402" lon="1.31652">
        <ele>192.2</ele>
        <time>2024-07-11T06:19:58Z</time>
      </trkpt>
      <trkpt lat="43.58399" lon="1.3165">
        <ele>192</ele>
        <time>2024-07-11T06:19:59Z</time>
      </trkpt>
      <trkpt lat="43.58398" lon="1.31649">
        <ele>192</ele>
        <time>2024-07-11T06:20:00Z</time>
      </trkpt>
      <trkpt lat="43.58396" lon="1.31647">
        <ele>192</ele>
        <time>2024-07-11T06:20:01Z</time>
      </trkpt>
      <trkpt lat="43.58394" lon="1.31644">
        <ele>192</ele>
        <time>2024-07-11T06:20:02Z</time>
      </trkpt>
      <trkpt lat="43.5839" lon="1.31641">
        <ele>191.8</ele>
        <time>2024-07-11T06:20:03Z</time>
      </trkpt>
      <trkpt lat="43.58386" lon="1.31637">
        <ele>191.8</ele>
        <time>2024-07-11T06:20:04Z</time>
      </trkpt>
      <trkpt lat="43.58382" lon="1.31633">
        <ele>191.6</ele>
        <time>2024-07-11T06:20:05Z</time>
      </trkpt>
      <trkpt lat="43.58376" lon="1.31628">
        <ele>191.4</ele>
        <time>2024-07-11T06:20:06Z</time>
      </trkpt>
      <trkpt lat="43.5837" lon="1.31623">
        <ele>191.4</ele>
        <time>2024-07-11T06:20:07Z</time>
      </trkpt>
      <trkpt lat="43.58362" lon="1.31617">
        <ele>191</ele>
        <time>2024-07-11T06:20:08Z</time>
      </trkpt>
      <trkpt lat="43.58354" lon="1.31608">
        <ele>191</ele>
        <time>2024-07-11T06:20:09Z</time>
      </trkpt>
      <trkpt lat="43.58344" lon="1.31597">
        <ele>190.2</ele>
        <time>2024-07-11T06:20:10Z</time>
      </trkpt>
      <trkpt lat="43.58339" lon="1.31591">
        <ele>189.8</ele>
        <time>2024-07-11T06:20:11Z</time>
      </trkpt>
      <trkpt lat="43.58332" lon="1.31583">
        <ele>189.4</ele>
        <time>2024-07-11T06:20:12Z</time>
      </trkpt>
      <trkpt lat="43.58327" lon="1.31576">
        <ele>188</ele>
        <time>2024-07-11T06:20:13Z</time>
      </trkpt>
      <trkpt lat="43.58322" lon="1.31571">
        <ele>187</ele>
        <time>2024-07-11T06:20:14Z</time>
      </trkpt>
      <trkpt lat="43.58319" lon="1.31569">
        <ele>185.8</ele>
        <time>2024-07-11T06:20:15Z</time>
      </trkpt>
      <trkpt lat="43.58316" lon="1.31568">
        <ele>184.6</ele>
        <time>2024-07-11T06:20:16Z</time>
      </trkpt>
      <trkpt lat="43.58314" lon="1.31566">
        <ele>183.8</ele>
        <time>2024-07-11T06:20:17Z</time>
      </trkpt>
      <trkpt lat="43.58311" lon="1.31563">
        <ele>182.6</ele>
        <time>2024-07-11T06:20:18Z</time>
      </trkpt>
      <trkpt lat="43.58306" lon="1.31559">
        <ele>182.2</ele>
        <time>2024-07-11T06:20:19Z</time>
      </trkpt>
      <trkpt lat="43.58301" lon="1.31554">
        <ele>181.6</ele>
        <time>2024-07-11T06:20:20Z</time>
      </trkpt>
      <trkpt lat="43.58294" lon="1.31547">
        <ele>181.2</ele>
        <time>2024-07-11T06:20:21Z</time>
      </trkpt>
      <trkpt lat="43.58289" lon="1.31542">
        <ele>180.6</ele>
        <time>2024-07-11T06:20:22Z</time>
      </trkpt>
      <trkpt lat="43.58283" lon="1.31536">
        <ele>180</ele>
        <time>2024-07-11T06:20:23Z</time>
      </trkpt>
      <trkpt lat="43.58275" lon="1.31529">
        <ele>179.6</ele>
        <time>2024-07-11T06:20:24Z</time>
      </trkpt>
      <trkpt lat="43.58268" lon="1.31523">
        <ele>179</ele>
        <time>2024-07-11T06:20:25Z</time>
      </trkpt>
      <trkpt lat="43.58262" lon="1.31518">
        <ele>178.6</ele>
        <time>2024-07-11T06:20:26Z</time>
      </trkpt>
      <trkpt lat="43.58257" lon="1.31514">
        <ele>178.2</ele>
        <time>2024-07-11T06:20:27Z</time>
      </trkpt>
      <trkpt lat="43.5825" lon="1.31508">
        <ele>177.8</ele>
        <time>2024-07-11T06:20:28Z</time>
      </trkpt>
      <trkpt lat="43.58243" lon="1.31502">
        <ele>177.4</ele>
        <time>2024-07-11T06:20:29Z</time>
      </trkpt>
      <trkpt lat="43.58235" lon="1.31496">
        <ele>177</ele>
        <time>2024-07-11T06:20:30Z</time>
      </trkpt>
      <trkpt lat="43.58227" lon="1.31491">
        <ele>176.8</ele>
        <time>2024-07-11T06:20:31Z</time>
      </trkpt>
      <trkpt lat="43.58221" lon="1.31483">
        <ele>176.4</ele>
        <time>2024-07-11T06:20:32Z</time>
      </trkpt>
      <trkpt lat="43.58216" lon="1.31476">
        <ele>176.2</ele>
        <time>2024-07-11T06:20:33Z</time>
      </trkpt>
      <trkpt lat="43.5821" lon="1.31468">
        <ele>175.8</ele>
        <time>2024-07-11T06:20:34Z</time>
      </trkpt>
      <trkpt lat="43.58202" lon="1.31457">
        <ele>175.4</ele>
        <time>2024-07-11T06:20:35Z</time>
      </trkpt>
      <trkpt lat="43.58196" lon="1.31449">
        <ele>175</ele>
        <time>2024-07-11T06:20:36Z</time>
      </trkpt>
      <trkpt lat="43.5819" lon="1.31441">
        <ele>174.6</ele>
        <time>2024-07-11T06:20:37Z</time>
      </trkpt>
      <trkpt lat="43.58184" lon="1.31434">
        <ele>174.4</ele>
        <time>2024-07-11T06:20:38Z</time>
      </trkpt>
      <trkpt lat="43.58178" lon="1.31426">
        <ele>173.4</ele>
        <time>2024-07-11T06:20:39Z</time>
      </trkpt>
      <trkpt lat="43.58172" lon="1.31417">
        <ele>173</ele>
        <time>2024-07-11T06:20:40Z</time>
      </trkpt>
      <trkpt lat="43.58167" lon="1.31409">
        <ele>172.2</ele>
        <time>2024-07-11T06:20:41Z</time>
      </trkpt>
      <trkpt lat="43.58161" lon="1.314">
        <ele>171.8</ele>
        <time>2024-07-11T06:20:42Z</time>
      </trkpt>
      <trkpt lat="43.58155" lon="1.31392">
        <ele>171.4</ele>
        <time>2024-07-11T06:20:43Z</time>
      </trkpt>
      <trkpt lat="43.58149" lon="1.31384">
        <ele>170.8</ele>
        <time>2024-07-11T06:20:44Z</time>
      </trkpt>
      <trkpt lat="43.58143" lon="1.31377">
        <ele>170.6</ele>
        <time>2024-07-11T06:20:45Z</time>
      </trkpt>
      <trkpt lat="43.58137" lon="1.31369">
        <ele>170.4</ele>
        <time>2024-07-11T06:20:46Z</time>
      </trkpt>
      <trkpt lat="43.58131" lon="1.31359">
        <ele>170.4</ele>
        <time>2024-07-11T06:20:47Z</time>
      </trkpt>
      <trkpt lat="43.58126" lon="1.31353">
        <ele>170.4</ele>
        <time>2024-07-11T06:20:48Z</time>
      </trkpt>
      <trkpt lat="43.58121" lon="1.31345">
        <ele>170.4</ele>
        <time>2024-07-11T06:20:49Z</time>
      </trkpt>
      <trkpt lat="43.58116" lon="1.31338">
        <ele>170.4</ele>
        <time>2024-07-11T06:20:50Z</time>
      </trkpt>
      <trkpt lat="43.58111" lon="1.3133">
        <ele>170.4</ele>
        <time>2024-07-11T06:20:51Z</time>
      </trkpt>
      <trkpt lat="43.58105" lon="1.31323">
        <ele>170.4</ele>
        <time>2024-07-11T06:20:52Z</time>
      </trkpt>
      <trkpt lat="43.581" lon="1.31316">
        <ele>170.6</ele>
        <time>2024-07-11T06:20:53Z</time>
      </trkpt>
      <trkpt lat="43.58095" lon="1.31308">
        <ele>170.6</ele>
        <time>2024-07-11T06:20:54Z</time>
      </trkpt>
      <trkpt lat="43.58089" lon="1.31301">
        <ele>170.6</ele>
        <time>2024-07-11T06:20:55Z</time>
      </trkpt>
      <trkpt lat="43.58083" lon="1.31293">
        <ele>170.6</ele>
        <time>2024-07-11T06:20:56Z</time>
      </trkpt>
      <trkpt lat="43.58079" lon="1.31286">
        <ele>170.6</ele>
        <time>2024-07-11T06:20:57Z</time>
      </trkpt>
      <trkpt lat="43.58074" lon="1.31278">
        <ele>170.6</ele>
        <time>2024-07-11T06:20:58Z</time>
      </trkpt>
      <trkpt lat="43.5807" lon="1.31273">
        <ele>170.6</ele>
        <time>2024-07-11T06:20:59Z</time>
      </trkpt>
      <trkpt lat="43.58066" lon="1.31267">
        <ele>170.6</ele>
        <time>2024-07-11T06:21:00Z</time>
      </trkpt>
      <trkpt lat="43.5806" lon="1.31259">
        <ele>170.6</ele>
        <time>2024-07-11T06:21:01Z</time>
      </trkpt>
      <trkpt lat="43.58055" lon="1.31253">
        <ele>170.4</ele>
        <time>2024-07-11T06:21:02Z</time>
      </trkpt>
      <trkpt lat="43.58051" lon="1.31247">
        <ele>170.4</ele>
        <time>2024-07-11T06:21:03Z</time>
      </trkpt>
      <trkpt lat="43.58047" lon="1.31241">
        <ele>170.2</ele>
        <time>2024-07-11T06:21:04Z</time>
      </trkpt>
      <trkpt lat="43.58041" lon="1.31234">
        <ele>170.2</ele>
        <time>2024-07-11T06:21:05Z</time>
      </trkpt>
      <trkpt lat="43.58035" lon="1.31226">
        <ele>170.2</ele>
        <time>2024-07-11T06:21:06Z</time>
      </trkpt>
      <trkpt lat="43.5803" lon="1.3122">
        <ele>170.2</ele>
        <time>2024-07-11T06:21:07Z</time>
      </trkpt>
      <trkpt lat="43.58024" lon="1.31213">
        <ele>170.2</ele>
        <time>2024-07-11T06:21:08Z</time>
      </trkpt>
      <trkpt lat="43.58021" lon="1.31208">
        <ele>170.2</ele>
        <time>2024-07-11T06:21:09Z</time>
      </trkpt>
      <trkpt lat="43.58016" lon="1.31201">
        <ele>170.2</ele>
        <time>2024-07-11T06:21:10Z</time>
      </trkpt>
      <trkpt lat="43.5801" lon="1.31194">
        <ele>170.2</ele>
        <time>2024-07-11T06:21:11Z</time>
      </trkpt>
      <trkpt lat="43.58004" lon="1.31186">
        <ele>170.4</ele>
        <time>2024-07-11T06:21:12Z</time>
      </trkpt>
      <trkpt lat="43.57999" lon="1.31179">
        <ele>170.4</ele>
        <time>2024-07-11T06:21:13Z</time>
      </trkpt>
      <trkpt lat="43.57994" lon="1.31174">
        <ele>170.4</ele>
        <time>2024-07-11T06:21:14Z</time>
      </trkpt>
      <trkpt lat="43.57989" lon="1.31168">
        <ele>170.4</ele>
        <time>2024-07-11T06:21:15Z</time>
      </trkpt>
      <trkpt lat="43.57983" lon="1.31162">
        <ele>170.4</ele>
        <time>2024-07-11T06:21:16Z</time>
      </trkpt>
      <trkpt lat="43.57977" lon="1.31155">
        <ele>170.4</ele>
        <time>2024-07-11T06:21:17Z</time>
      </trkpt>
      <trkpt lat="43.57971" lon="1.31149">
        <ele>170.4</ele>
        <time>2024-07-11T06:21:18Z</time>
      </trkpt>
      <trkpt lat="43.57965" lon="1.31143">
        <ele>170.4</ele>
        <time>2024-07-11T06:21:19Z</time>
      </trkpt>
      <trkpt lat="43.5796" lon="1.31136">
        <ele>170.4</ele>
        <time>2024-07-11T06:21:20Z</time>
      </trkpt>
      <trkpt lat="43.57954" lon="1.31129">
        <ele>170.4</ele>
        <time>2024-07-11T06:21:21Z</time>
      </trkpt>
      <trkpt lat="43.57948" lon="1.31122">
        <ele>170.4</ele>
        <time>2024-07-11T06:21:22Z</time>
      </trkpt>
      <trkpt lat="43.57941" lon="1.31115">
        <ele>170.4</ele>
        <time>2024-07-11T06:21:23Z</time>
      </trkpt>
      <trkpt lat="43.57935" lon="1.31109">
        <ele>170.2</ele>
        <time>2024-07-11T06:21:24Z</time>
      </trkpt>
      <trkpt lat="43.57929" lon="1.31102">
        <ele>170.2</ele>
        <time>2024-07-11T06:21:25Z</time>
      </trkpt>
      <trkpt lat="43.57922" lon="1.31096">
        <ele>170.2</ele>
        <time>2024-07-11T06:21:26Z</time>
      </trkpt>
      <trkpt lat="43.57916" lon="1.31089">
        <ele>170.2</ele>
        <time>2024-07-11T06:21:27Z</time>
      </trkpt>
      <trkpt lat="43.5791" lon="1.31083">
        <ele>170.2</ele>
        <time>2024-07-11T06:21:28Z</time>
      </trkpt>
      <trkpt lat="43.57903" lon="1.31076">
        <ele>170.2</ele>
        <time>2024-07-11T06:21:29Z</time>
      </trkpt>
      <trkpt lat="43.57897" lon="1.3107">
        <ele>170</ele>
        <time>2024-07-11T06:21:30Z</time>
      </trkpt>
      <trkpt lat="43.5789" lon="1.31063">
        <ele>170</ele>
        <time>2024-07-11T06:21:31Z</time>
      </trkpt>
      <trkpt lat="43.57884" lon="1.31057">
        <ele>170</ele>
        <time>2024-07-11T06:21:32Z</time>
      </trkpt>
      <trkpt lat="43.57878" lon="1.31051">
        <ele>170</ele>
        <time>2024-07-11T06:21:33Z</time>
      </trkpt>
      <trkpt lat="43.57871" lon="1.31045">
        <ele>170</ele>
        <time>2024-07-11T06:21:34Z</time>
      </trkpt>
      <trkpt lat="43.57865" lon="1.31039">
        <ele>170</ele>
        <time>2024-07-11T06:21:35Z</time>
      </trkpt>
      <trkpt lat="43.57858" lon="1.31032">
        <ele>170</ele>
        <time>2024-07-11T06:21:36Z</time>
      </trkpt>
      <trkpt lat="43.57852" lon="1.31025">
        <ele>170</ele>
        <time>2024-07-11T06:21:37Z</time>
      </trkpt>
      <trkpt lat="43.57844" lon="1.31017">
        <ele>170</ele>
        <time>2024-07-11T06:21:38Z</time>
      </trkpt>
      <trkpt lat="43.57838" lon="1.3101">
        <ele>170</ele>
        <time>2024-07-11T06:21:39Z</time>
      </trkpt>
      <trkpt lat="43.57832" lon="1.31004">
        <ele>170</ele>
        <time>2024-07-11T06:21:40Z</time>
      </trkpt>
      <trkpt lat="43.57825" lon="1.30997">
        <ele>170</ele>
        <time>2024-07-11T06:21:41Z</time>
      </trkpt>
      <trkpt lat="43.57819" lon="1.30991">
        <ele>170</ele>
        <time>2024-07-11T06:21:42Z</time>
      </trkpt>
      <trkpt lat="43.57812" lon="1.30984">
        <ele>170</ele>
        <time>2024-07-11T06:21:43Z</time>
      </trkpt>
      <trkpt lat="43.57806" lon="1.30977">
        <ele>170</ele>
        <time>2024-07-11T06:21:44Z</time>
      </trkpt>
      <trkpt lat="43.57801" lon="1.30972">
        <ele>170</ele>
        <time>2024-07-11T06:21:45Z</time>
      </trkpt>
      <trkpt lat="43.57795" lon="1.30965">
        <ele>170</ele>
        <time>2024-07-11T06:21:46Z</time>
      </trkpt>
      <trkpt lat="43.57788" lon="1.30958">
        <ele>170</ele>
        <time>2024-07-11T06:21:47Z</time>
      </trkpt>
      <trkpt lat="43.57782" lon="1.30952">
        <ele>170</ele>
        <time>2024-07-11T06:21:48Z</time>
      </trkpt>
      <trkpt lat="43.57775" lon="1.30945">
        <ele>170</ele>
        <time>2024-07-11T06:21:49Z</time>
      </trkpt>
      <trkpt lat="43.57769" lon="1.30938">
        <ele>170</ele>
        <time>2024-07-11T06:21:50Z</time>
      </trkpt>
      <trkpt lat="43.57763" lon="1.30931">
        <ele>170</ele>
        <time>2024-07-11T06:21:51Z</time>
      </trkpt>
      <trkpt lat="43.57756" lon="1.30924">
        <ele>170</ele>
        <time>2024-07-11T06:21:52Z</time>
      </trkpt>
      <trkpt lat="43.5775" lon="1.30918">
        <ele>170</ele>
        <time>2024-07-11T06:21:53Z</time>
      </trkpt>
      <trkpt lat="43.57744" lon="1.30911">
        <ele>170</ele>
        <time>2024-07-11T06:21:54Z</time>
      </trkpt>
      <trkpt lat="43.57737" lon="1.30904">
        <ele>170</ele>
        <time>2024-07-11T06:21:55Z</time>
      </trkpt>
      <trkpt lat="43.57731" lon="1.30898">
        <ele>170.2</ele>
        <time>2024-07-11T06:21:56Z</time>
      </trkpt>
      <trkpt lat="43.57725" lon="1.30891">
        <ele>170.2</ele>
        <time>2024-07-11T06:21:57Z</time>
      </trkpt>
      <trkpt lat="43.57718" lon="1.30884">
        <ele>170.2</ele>
        <time>2024-07-11T06:21:58Z</time>
      </trkpt>
      <trkpt lat="43.5771" lon="1.30876">
        <ele>170.2</ele>
        <time>2024-07-11T06:21:59Z</time>
      </trkpt>
      <trkpt lat="43.57705" lon="1.30871">
        <ele>170.2</ele>
        <time>2024-07-11T06:22:00Z</time>
      </trkpt>
      <trkpt lat="43.57697" lon="1.30864">
        <ele>170.2</ele>
        <time>2024-07-11T06:22:01Z</time>
      </trkpt>
      <trkpt lat="43.57692" lon="1.30859">
        <ele>170.2</ele>
        <time>2024-07-11T06:22:02Z</time>
      </trkpt>
      <trkpt lat="43.57686" lon="1.30852">
        <ele>170.2</ele>
        <time>2024-07-11T06:22:03Z</time>
      </trkpt>
      <trkpt lat="43.5768" lon="1.30845">
        <ele>170.2</ele>
        <time>2024-07-11T06:22:04Z</time>
      </trkpt>
      <trkpt lat="43.57672" lon="1.30837">
        <ele>170.2</ele>
        <time>2024-07-11T06:22:05Z</time>
      </trkpt>
      <trkpt lat="43.57666" lon="1.3083">
        <ele>170.2</ele>
        <time>2024-07-11T06:22:06Z</time>
      </trkpt>
      <trkpt lat="43.57661" lon="1.30825">
        <ele>170.2</ele>
        <time>2024-07-11T06:22:07Z</time>
      </trkpt>
      <trkpt lat="43.57655" lon="1.30818">
        <ele>170.2</ele>
        <time>2024-07-11T06:22:08Z</time>
      </trkpt>
      <trkpt lat="43.57649" lon="1.3081">
        <ele>170.2</ele>
        <time>2024-07-11T06:22:09Z</time>
      </trkpt>
      <trkpt lat="43.57642" lon="1.30802">
        <ele>170.2</ele>
        <time>2024-07-11T06:22:10Z</time>
      </trkpt>
      <trkpt lat="43.57636" lon="1.30794">
        <ele>170.4</ele>
        <time>2024-07-11T06:22:11Z</time>
      </trkpt>
      <trkpt lat="43.5763" lon="1.30787">
        <ele>170.4</ele>
        <time>2024-07-11T06:22:12Z</time>
      </trkpt>
      <trkpt lat="43.57624" lon="1.30779">
        <ele>170.2</ele>
        <time>2024-07-11T06:22:13Z</time>
      </trkpt>
      <trkpt lat="43.5762" lon="1.30773">
        <ele>170.2</ele>
        <time>2024-07-11T06:22:14Z</time>
      </trkpt>
      <trkpt lat="43.57614" lon="1.30766">
        <ele>170.2</ele>
        <time>2024-07-11T06:22:15Z</time>
      </trkpt>
      <trkpt lat="43.57607" lon="1.30757">
        <ele>170.2</ele>
        <time>2024-07-11T06:22:16Z</time>
      </trkpt>
      <trkpt lat="43.57601" lon="1.30749">
        <ele>170.2</ele>
        <time>2024-07-11T06:22:17Z</time>
      </trkpt>
      <trkpt lat="43.57596" lon="1.30743">
        <ele>170.2</ele>
        <time>2024-07-11T06:22:18Z</time>
      </trkpt>
      <trkpt lat="43.57591" lon="1.30735">
        <ele>170.2</ele>
        <time>2024-07-11T06:22:19Z</time>
      </trkpt>
      <trkpt lat="43.57585" lon="1.30728">
        <ele>170.2</ele>
        <time>2024-07-11T06:22:20Z</time>
      </trkpt>
      <trkpt lat="43.57578" lon="1.30719">
        <ele>170.2</ele>
        <time>2024-07-11T06:22:21Z</time>
      </trkpt>
      <trkpt lat="43.57572" lon="1.30711">
        <ele>170.2</ele>
        <time>2024-07-11T06:22:22Z</time>
      </trkpt>
      <trkpt lat="43.57566" lon="1.30704">
        <ele>170.2</ele>
        <time>2024-07-11T06:22:23Z</time>
      </trkpt>
      <trkpt lat="43.57562" lon="1.30698">
        <ele>170.2</ele>
        <time>2024-07-11T06:22:24Z</time>
      </trkpt>
      <trkpt lat="43.57555" lon="1.3069">
        <ele>170.2</ele>
        <time>2024-07-11T06:22:25Z</time>
      </trkpt>
      <trkpt lat="43.57548" lon="1.30681">
        <ele>170.2</ele>
        <time>2024-07-11T06:22:26Z</time>
      </trkpt>
      <trkpt lat="43.57542" lon="1.30674">
        <ele>170.2</ele>
        <time>2024-07-11T06:22:27Z</time>
      </trkpt>
      <trkpt lat="43.57536" lon="1.30667">
        <ele>170.2</ele>
        <time>2024-07-11T06:22:28Z</time>
      </trkpt>
      <trkpt lat="43.57531" lon="1.30661">
        <ele>170.2</ele>
        <time>2024-07-11T06:22:29Z</time>
      </trkpt>
      <trkpt lat="43.57524" lon="1.30653">
        <ele>170.2</ele>
        <time>2024-07-11T06:22:30Z</time>
      </trkpt>
      <trkpt lat="43.57516" lon="1.30644">
        <ele>170.2</ele>
        <time>2024-07-11T06:22:31Z</time>
      </trkpt>
      <trkpt lat="43.5751" lon="1.30637">
        <ele>170.2</ele>
        <time>2024-07-11T06:22:32Z</time>
      </trkpt>
      <trkpt lat="43.57503" lon="1.3063">
        <ele>170.2</ele>
        <time>2024-07-11T06:22:33Z</time>
      </trkpt>
      <trkpt lat="43.57498" lon="1.30624">
        <ele>170.2</ele>
        <time>2024-07-11T06:22:34Z</time>
      </trkpt>
      <trkpt lat="43.57491" lon="1.30617">
        <ele>170.2</ele>
        <time>2024-07-11T06:22:35Z</time>
      </trkpt>
      <trkpt lat="43.57483" lon="1.30609">
        <ele>170.2</ele>
        <time>2024-07-11T06:22:36Z</time>
      </trkpt>
      <trkpt lat="43.57477" lon="1.30602">
        <ele>170.2</ele>
        <time>2024-07-11T06:22:37Z</time>
      </trkpt>
      <trkpt lat="43.5747" lon="1.30595">
        <ele>170.2</ele>
        <time>2024-07-11T06:22:38Z</time>
      </trkpt>
      <trkpt lat="43.57464" lon="1.30589">
        <ele>170.2</ele>
        <time>2024-07-11T06:22:39Z</time>
      </trkpt>
      <trkpt lat="43.57456" lon="1.30581">
        <ele>170.2</ele>
        <time>2024-07-11T06:22:40Z</time>
      </trkpt>
      <trkpt lat="43.57449" lon="1.30574">
        <ele>170</ele>
        <time>2024-07-11T06:22:41Z</time>
      </trkpt>
      <trkpt lat="43.57443" lon="1.30567">
        <ele>170</ele>
        <time>2024-07-11T06:22:42Z</time>
      </trkpt>
      <trkpt lat="43.57436" lon="1.3056">
        <ele>170</ele>
        <time>2024-07-11T06:22:43Z</time>
      </trkpt>
      <trkpt lat="43.57429" lon="1.30553">
        <ele>170</ele>
        <time>2024-07-11T06:22:44Z</time>
      </trkpt>
      <trkpt lat="43.57424" lon="1.30548">
        <ele>170.2</ele>
        <time>2024-07-11T06:22:45Z</time>
      </trkpt>
      <trkpt lat="43.57416" lon="1.30539">
        <ele>170.2</ele>
        <time>2024-07-11T06:22:46Z</time>
      </trkpt>
      <trkpt lat="43.5741" lon="1.30532">
        <ele>170.2</ele>
        <time>2024-07-11T06:22:47Z</time>
      </trkpt>
      <trkpt lat="43.57403" lon="1.30525">
        <ele>170.2</ele>
        <time>2024-07-11T06:22:48Z</time>
      </trkpt>
      <trkpt lat="43.57396" lon="1.30518">
        <ele>170.2</ele>
        <time>2024-07-11T06:22:49Z</time>
      </trkpt>
      <trkpt lat="43.57391" lon="1.30512">
        <ele>170.2</ele>
        <time>2024-07-11T06:22:50Z</time>
      </trkpt>
      <trkpt lat="43.57384" lon="1.30505">
        <ele>170.4</ele>
        <time>2024-07-11T06:22:51Z</time>
      </trkpt>
      <trkpt lat="43.57376" lon="1.30496">
        <ele>170.4</ele>
        <time>2024-07-11T06:22:52Z</time>
      </trkpt>
      <trkpt lat="43.57369" lon="1.30489">
        <ele>170.4</ele>
        <time>2024-07-11T06:22:53Z</time>
      </trkpt>
      <trkpt lat="43.57362" lon="1.30482">
        <ele>170.4</ele>
        <time>2024-07-11T06:22:54Z</time>
      </trkpt>
      <trkpt lat="43.57356" lon="1.30476">
        <ele>170.4</ele>
        <time>2024-07-11T06:22:55Z</time>
      </trkpt>
      <trkpt lat="43.5735" lon="1.3047">
        <ele>170.6</ele>
        <time>2024-07-11T06:22:56Z</time>
      </trkpt>
      <trkpt lat="43.57344" lon="1.30463">
        <ele>170.6</ele>
        <time>2024-07-11T06:22:57Z</time>
      </trkpt>
      <trkpt lat="43.57336" lon="1.30454">
        <ele>170.8</ele>
        <time>2024-07-11T06:22:58Z</time>
      </trkpt>
      <trkpt lat="43.5733" lon="1.30447">
        <ele>170.8</ele>
        <time>2024-07-11T06:22:59Z</time>
      </trkpt>
      <trkpt lat="43.57324" lon="1.30441">
        <ele>171</ele>
        <time>2024-07-11T06:23:00Z</time>
      </trkpt>
      <trkpt lat="43.57319" lon="1.30435">
        <ele>171</ele>
        <time>2024-07-11T06:23:01Z</time>
      </trkpt>
      <trkpt lat="43.57312" lon="1.30427">
        <ele>171</ele>
        <time>2024-07-11T06:23:02Z</time>
      </trkpt>
      <trkpt lat="43.57307" lon="1.3042">
        <ele>171</ele>
        <time>2024-07-11T06:23:03Z</time>
      </trkpt>
      <trkpt lat="43.57302" lon="1.30414">
        <ele>171</ele>
        <time>2024-07-11T06:23:04Z</time>
      </trkpt>
      <trkpt lat="43.57297" lon="1.30408">
        <ele>171</ele>
        <time>2024-07-11T06:23:05Z</time>
      </trkpt>
      <trkpt lat="43.57291" lon="1.30403">
        <ele>171</ele>
        <time>2024-07-11T06:23:06Z</time>
      </trkpt>
      <trkpt lat="43.57285" lon="1.30397">
        <ele>170.8</ele>
        <time>2024-07-11T06:23:07Z</time>
      </trkpt>
      <trkpt lat="43.5728" lon="1.3039">
        <ele>170.8</ele>
        <time>2024-07-11T06:23:08Z</time>
      </trkpt>
      <trkpt lat="43.57275" lon="1.30384">
        <ele>170.8</ele>
        <time>2024-07-11T06:23:09Z</time>
      </trkpt>
      <trkpt lat="43.57269" lon="1.30377">
        <ele>171</ele>
        <time>2024-07-11T06:23:10Z</time>
      </trkpt>
      <trkpt lat="43.57263" lon="1.30372">
        <ele>171</ele>
        <time>2024-07-11T06:23:11Z</time>
      </trkpt>
      <trkpt lat="43.57258" lon="1.30365">
        <ele>171.2</ele>
        <time>2024-07-11T06:23:12Z</time>
      </trkpt>
      <trkpt lat="43.57252" lon="1.30359">
        <ele>171</ele>
        <time>2024-07-11T06:23:13Z</time>
      </trkpt>
      <trkpt lat="43.57246" lon="1.30353">
        <ele>171</ele>
        <time>2024-07-11T06:23:14Z</time>
      </trkpt>
      <trkpt lat="43.5724" lon="1.30346">
        <ele>171.2</ele>
        <time>2024-07-11T06:23:15Z</time>
      </trkpt>
      <trkpt lat="43.57234" lon="1.3034">
        <ele>171</ele>
        <time>2024-07-11T06:23:16Z</time>
      </trkpt>
      <trkpt lat="43.57228" lon="1.30333">
        <ele>171.2</ele>
        <time>2024-07-11T06:23:17Z</time>
      </trkpt>
      <trkpt lat="43.57223" lon="1.30327">
        <ele>171.2</ele>
        <time>2024-07-11T06:23:18Z</time>
      </trkpt>
      <trkpt lat="43.57217" lon="1.30321">
        <ele>171.2</ele>
        <time>2024-07-11T06:23:19Z</time>
      </trkpt>
      <trkpt lat="43.57212" lon="1.30315">
        <ele>171.2</ele>
        <time>2024-07-11T06:23:20Z</time>
      </trkpt>
      <trkpt lat="43.57207" lon="1.30309">
        <ele>171.2</ele>
        <time>2024-07-11T06:23:21Z</time>
      </trkpt>
      <trkpt lat="43.57202" lon="1.30303">
        <ele>171.2</ele>
        <time>2024-07-11T06:23:22Z</time>
      </trkpt>
      <trkpt lat="43.57197" lon="1.30297">
        <ele>171</ele>
        <time>2024-07-11T06:23:23Z</time>
      </trkpt>
      <trkpt lat="43.57192" lon="1.30291">
        <ele>171.2</ele>
        <time>2024-07-11T06:23:24Z</time>
      </trkpt>
      <trkpt lat="43.57186" lon="1.30285">
        <ele>171.4</ele>
        <time>2024-07-11T06:23:25Z</time>
      </trkpt>
      <trkpt lat="43.57181" lon="1.30279">
        <ele>171.2</ele>
        <time>2024-07-11T06:23:26Z</time>
      </trkpt>
      <trkpt lat="43.57176" lon="1.30274">
        <ele>171.2</ele>
        <time>2024-07-11T06:23:27Z</time>
      </trkpt>
      <trkpt lat="43.57171" lon="1.30269">
        <ele>171.2</ele>
        <time>2024-07-11T06:23:28Z</time>
      </trkpt>
      <trkpt lat="43.57165" lon="1.30261">
        <ele>171.2</ele>
        <time>2024-07-11T06:23:29Z</time>
      </trkpt>
      <trkpt lat="43.57159" lon="1.30255">
        <ele>171.2</ele>
        <time>2024-07-11T06:23:30Z</time>
      </trkpt>
      <trkpt lat="43.57154" lon="1.30248">
        <ele>171.4</ele>
        <time>2024-07-11T06:23:31Z</time>
      </trkpt>
      <trkpt lat="43.57148" lon="1.30242">
        <ele>171.4</ele>
        <time>2024-07-11T06:23:32Z</time>
      </trkpt>
      <trkpt lat="43.57143" lon="1.30236">
        <ele>171.4</ele>
        <time>2024-07-11T06:23:33Z</time>
      </trkpt>
      <trkpt lat="43.57138" lon="1.30232">
        <ele>171.4</ele>
        <time>2024-07-11T06:23:34Z</time>
      </trkpt>
      <trkpt lat="43.57132" lon="1.30224">
        <ele>171.4</ele>
        <time>2024-07-11T06:23:35Z</time>
      </trkpt>
      <trkpt lat="43.57126" lon="1.30218">
        <ele>171.4</ele>
        <time>2024-07-11T06:23:36Z</time>
      </trkpt>
      <trkpt lat="43.5712" lon="1.30211">
        <ele>171.4</ele>
        <time>2024-07-11T06:23:37Z</time>
      </trkpt>
      <trkpt lat="43.57115" lon="1.30203">
        <ele>171.6</ele>
        <time>2024-07-11T06:23:38Z</time>
      </trkpt>
      <trkpt lat="43.5711" lon="1.30195">
        <ele>171.6</ele>
        <time>2024-07-11T06:23:39Z</time>
      </trkpt>
      <trkpt lat="43.57105" lon="1.30187">
        <ele>171.6</ele>
        <time>2024-07-11T06:23:40Z</time>
      </trkpt>
      <trkpt lat="43.57101" lon="1.30178">
        <ele>171.6</ele>
        <time>2024-07-11T06:23:41Z</time>
      </trkpt>
      <trkpt lat="43.57098" lon="1.30169">
        <ele>171.6</ele>
        <time>2024-07-11T06:23:42Z</time>
      </trkpt>
      <trkpt lat="43.57094" lon="1.3016">
        <ele>171.6</ele>
        <time>2024-07-11T06:23:43Z</time>
      </trkpt>
      <trkpt lat="43.57091" lon="1.3015">
        <ele>171.6</ele>
        <time>2024-07-11T06:23:44Z</time>
      </trkpt>
      <trkpt lat="43.57087" lon="1.30141">
        <ele>171.6</ele>
        <time>2024-07-11T06:23:45Z</time>
      </trkpt>
      <trkpt lat="43.57084" lon="1.30131">
        <ele>171.6</ele>
        <time>2024-07-11T06:23:46Z</time>
      </trkpt>
      <trkpt lat="43.57081" lon="1.30121">
        <ele>171.6</ele>
        <time>2024-07-11T06:23:47Z</time>
      </trkpt>
      <trkpt lat="43.57078" lon="1.30111">
        <ele>171.6</ele>
        <time>2024-07-11T06:23:48Z</time>
      </trkpt>
      <trkpt lat="43.57075" lon="1.30101">
        <ele>171.6</ele>
        <time>2024-07-11T06:23:49Z</time>
      </trkpt>
      <trkpt lat="43.57072" lon="1.30092">
        <ele>171.6</ele>
        <time>2024-07-11T06:23:50Z</time>
      </trkpt>
      <trkpt lat="43.5707" lon="1.30082">
        <ele>171.8</ele>
        <time>2024-07-11T06:23:51Z</time>
      </trkpt>
      <trkpt lat="43.57067" lon="1.30072">
        <ele>171.8</ele>
        <time>2024-07-11T06:23:52Z</time>
      </trkpt>
      <trkpt lat="43.57064" lon="1.30062">
        <ele>171.8</ele>
        <time>2024-07-11T06:23:53Z</time>
      </trkpt>
      <trkpt lat="43.57061" lon="1.30052">
        <ele>171.8</ele>
        <time>2024-07-11T06:23:54Z</time>
      </trkpt>
      <trkpt lat="43.57058" lon="1.30042">
        <ele>171.8</ele>
        <time>2024-07-11T06:23:55Z</time>
      </trkpt>
      <trkpt lat="43.57056" lon="1.30032">
        <ele>171.8</ele>
        <time>2024-07-11T06:23:56Z</time>
      </trkpt>
      <trkpt lat="43.57053" lon="1.30022">
        <ele>172</ele>
        <time>2024-07-11T06:23:57Z</time>
      </trkpt>
      <trkpt lat="43.5705" lon="1.30012">
        <ele>172</ele>
        <time>2024-07-11T06:23:58Z</time>
      </trkpt>
      <trkpt lat="43.57047" lon="1.30002">
        <ele>172</ele>
        <time>2024-07-11T06:23:59Z</time>
      </trkpt>
      <trkpt lat="43.57044" lon="1.29992">
        <ele>172</ele>
        <time>2024-07-11T06:24:00Z</time>
      </trkpt>
      <trkpt lat="43.57041" lon="1.29983">
        <ele>172</ele>
        <time>2024-07-11T06:24:01Z</time>
      </trkpt>
      <trkpt lat="43.57038" lon="1.29973">
        <ele>172.2</ele>
        <time>2024-07-11T06:24:02Z</time>
      </trkpt>
      <trkpt lat="43.57035" lon="1.29963">
        <ele>172.2</ele>
        <time>2024-07-11T06:24:03Z</time>
      </trkpt>
      <trkpt lat="43.57033" lon="1.29953">
        <ele>172.2</ele>
        <time>2024-07-11T06:24:04Z</time>
      </trkpt>
      <trkpt lat="43.5703" lon="1.29946">
        <ele>172.2</ele>
        <time>2024-07-11T06:24:05Z</time>
      </trkpt>
      <trkpt lat="43.57027" lon="1.29934">
        <ele>172.2</ele>
        <time>2024-07-11T06:24:06Z</time>
      </trkpt>
      <trkpt lat="43.57024" lon="1.29924">
        <ele>172.2</ele>
        <time>2024-07-11T06:24:07Z</time>
      </trkpt>
      <trkpt lat="43.57022" lon="1.29915">
        <ele>172.2</ele>
        <time>2024-07-11T06:24:08Z</time>
      </trkpt>
      <trkpt lat="43.57019" lon="1.29905">
        <ele>172.2</ele>
        <time>2024-07-11T06:24:09Z</time>
      </trkpt>
      <trkpt lat="43.57016" lon="1.29895">
        <ele>172.2</ele>
        <time>2024-07-11T06:24:10Z</time>
      </trkpt>
      <trkpt lat="43.57013" lon="1.29885">
        <ele>172.4</ele>
        <time>2024-07-11T06:24:11Z</time>
      </trkpt>
      <trkpt lat="43.5701" lon="1.29875">
        <ele>172.4</ele>
        <time>2024-07-11T06:24:12Z</time>
      </trkpt>
      <trkpt lat="43.57007" lon="1.29866">
        <ele>172.4</ele>
        <time>2024-07-11T06:24:13Z</time>
      </trkpt>
      <trkpt lat="43.57004" lon="1.29856">
        <ele>172.6</ele>
        <time>2024-07-11T06:24:14Z</time>
      </trkpt>
      <trkpt lat="43.57002" lon="1.29846">
        <ele>172.6</ele>
        <time>2024-07-11T06:24:15Z</time>
      </trkpt>
      <trkpt lat="43.56999" lon="1.29836">
        <ele>172.6</ele>
        <time>2024-07-11T06:24:16Z</time>
      </trkpt>
      <trkpt lat="43.56996" lon="1.29827">
        <ele>172.6</ele>
        <time>2024-07-11T06:24:17Z</time>
      </trkpt>
      <trkpt lat="43.56993" lon="1.29817">
        <ele>172.8</ele>
        <time>2024-07-11T06:24:18Z</time>
      </trkpt>
      <trkpt lat="43.56991" lon="1.29808">
        <ele>173</ele>
        <time>2024-07-11T06:24:19Z</time>
      </trkpt>
      <trkpt lat="43.56988" lon="1.29801">
        <ele>173.2</ele>
        <time>2024-07-11T06:24:20Z</time>
      </trkpt>
      <trkpt lat="43.56985" lon="1.29789">
        <ele>173.4</ele>
        <time>2024-07-11T06:24:21Z</time>
      </trkpt>
      <trkpt lat="43.56982" lon="1.2978">
        <ele>173.4</ele>
        <time>2024-07-11T06:24:22Z</time>
      </trkpt>
      <trkpt lat="43.5698" lon="1.2977">
        <ele>173.4</ele>
        <time>2024-07-11T06:24:23Z</time>
      </trkpt>
      <trkpt lat="43.56977" lon="1.29761">
        <ele>173.4</ele>
        <time>2024-07-11T06:24:24Z</time>
      </trkpt>
      <trkpt lat="43.56974" lon="1.29751">
        <ele>173.4</ele>
        <time>2024-07-11T06:24:25Z</time>
      </trkpt>
      <trkpt lat="43.56971" lon="1.29742">
        <ele>173.4</ele>
        <time>2024-07-11T06:24:26Z</time>
      </trkpt>
      <trkpt lat="43.56968" lon="1.29732">
        <ele>173.6</ele>
        <time>2024-07-11T06:24:27Z</time>
      </trkpt>
      <trkpt lat="43.56965" lon="1.29723">
        <ele>173.6</ele>
        <time>2024-07-11T06:24:28Z</time>
      </trkpt>
      <trkpt lat="43.56962" lon="1.29713">
        <ele>173.6</ele>
        <time>2024-07-11T06:24:29Z</time>
      </trkpt>
      <trkpt lat="43.5696" lon="1.29705">
        <ele>173.6</ele>
        <time>2024-07-11T06:24:30Z</time>
      </trkpt>
      <trkpt lat="43.56956" lon="1.29694">
        <ele>173.6</ele>
        <time>2024-07-11T06:24:31Z</time>
      </trkpt>
      <trkpt lat="43.56953" lon="1.29684">
        <ele>173.6</ele>
        <time>2024-07-11T06:24:32Z</time>
      </trkpt>
      <trkpt lat="43.5695" lon="1.29675">
        <ele>173.8</ele>
        <time>2024-07-11T06:24:33Z</time>
      </trkpt>
      <trkpt lat="43.56946" lon="1.29665">
        <ele>174</ele>
        <time>2024-07-11T06:24:34Z</time>
      </trkpt>
      <trkpt lat="43.56943" lon="1.29656">
        <ele>174</ele>
        <time>2024-07-11T06:24:35Z</time>
      </trkpt>
      <trkpt lat="43.5694" lon="1.29647">
        <ele>174</ele>
        <time>2024-07-11T06:24:36Z</time>
      </trkpt>
      <trkpt lat="43.56937" lon="1.29637">
        <ele>174</ele>
        <time>2024-07-11T06:24:37Z</time>
      </trkpt>
      <trkpt lat="43.56934" lon="1.29628">
        <ele>174</ele>
        <time>2024-07-11T06:24:38Z</time>
      </trkpt>
      <trkpt lat="43.56931" lon="1.29619">
        <ele>174</ele>
        <time>2024-07-11T06:24:39Z</time>
      </trkpt>
      <trkpt lat="43.56928" lon="1.29609">
        <ele>174</ele>
        <time>2024-07-11T06:24:40Z</time>
      </trkpt>
      <trkpt lat="43.56925" lon="1.296">
        <ele>174</ele>
        <time>2024-07-11T06:24:41Z</time>
      </trkpt>
      <trkpt lat="43.56922" lon="1.29593">
        <ele>174</ele>
        <time>2024-07-11T06:24:42Z</time>
      </trkpt>
      <trkpt lat="43.56919" lon="1.29582">
        <ele>174.2</ele>
        <time>2024-07-11T06:24:43Z</time>
      </trkpt>
      <trkpt lat="43.56916" lon="1.29575">
        <ele>174.2</ele>
        <time>2024-07-11T06:24:44Z</time>
      </trkpt>
      <trkpt lat="43.56914" lon="1.29568">
        <ele>174.2</ele>
        <time>2024-07-11T06:24:45Z</time>
      </trkpt>
      <trkpt lat="43.56912" lon="1.29562">
        <ele>174.2</ele>
        <time>2024-07-11T06:24:46Z</time>
      </trkpt>
      <trkpt lat="43.5691" lon="1.29557">
        <ele>174.2</ele>
        <time>2024-07-11T06:24:47Z</time>
      </trkpt>
      <trkpt lat="43.56908" lon="1.29553">
        <ele>174.2</ele>
        <time>2024-07-11T06:24:48Z</time>
      </trkpt>
      <trkpt lat="43.56907" lon="1.2955">
        <ele>174.2</ele>
        <time>2024-07-11T06:24:49Z</time>
      </trkpt>
      <trkpt lat="43.56906" lon="1.29549">
        <ele>174.2</ele>
        <time>2024-07-11T06:24:50Z</time>
      </trkpt>
      <trkpt lat="43.56906" lon="1.29548">
        <ele>174.2</ele>
        <time>2024-07-11T06:24:51Z</time>
      </trkpt>
      <trkpt lat="43.56905" lon="1.29547">
        <ele>174.2</ele>
        <time>2024-07-11T06:24:52Z</time>
      </trkpt>
      <trkpt lat="43.56905" lon="1.29546">
        <ele>174.2</ele>
        <time>2024-07-11T06:24:53Z</time>
      </trkpt>
      <trkpt lat="43.56905" lon="1.29545">
        <ele>174.2</ele>
        <time>2024-07-11T06:24:54Z</time>
      </trkpt>
      <trkpt lat="43.56905" lon="1.29545">
        <ele>174.2</ele>
        <time>2024-07-11T06:24:55Z</time>
      </trkpt>
      <trkpt lat="43.56905" lon="1.29544">
        <ele>174.2</ele>
        <time>2024-07-11T06:24:56Z</time>
      </trkpt>
      <trkpt lat="43.56905" lon="1.29544">
        <ele>174.2</ele>
        <time>2024-07-11T06:24:57Z</time>
      </trkpt>
      <trkpt lat="43.56905" lon="1.29544">
        <ele>174.2</ele>
        <time>2024-07-11T06:24:58Z</time>
      </trkpt>
      <trkpt lat="43.56904" lon="1.29538">
        <ele>174.2</ele>
        <time>2024-07-11T06:25:07Z</time>
      </trkpt>
      <trkpt lat="43.56903" lon="1.29534">
        <ele>174.4</ele>
        <time>2024-07-11T06:25:08Z</time>
      </trkpt>
      <trkpt lat="43.56901" lon="1.29529">
        <ele>174.4</ele>
        <time>2024-07-11T06:25:09Z</time>
      </trkpt>
      <trkpt lat="43.56899" lon="1.29524">
        <ele>174.4</ele>
        <time>2024-07-11T06:25:10Z</time>
      </trkpt>
      <trkpt lat="43.56898" lon="1.29518">
        <ele>174.4</ele>
        <time>2024-07-11T06:25:11Z</time>
      </trkpt>
      <trkpt lat="43.56895" lon="1.29512">
        <ele>174.2</ele>
        <time>2024-07-11T06:25:12Z</time>
      </trkpt>
      <trkpt lat="43.56894" lon="1.29506">
        <ele>174.2</ele>
        <time>2024-07-11T06:25:13Z</time>
      </trkpt>
      <trkpt lat="43.56891" lon="1.29498">
        <ele>174.2</ele>
        <time>2024-07-11T06:25:14Z</time>
      </trkpt>
      <trkpt lat="43.56889" lon="1.2949">
        <ele>174.2</ele>
        <time>2024-07-11T06:25:15Z</time>
      </trkpt>
      <trkpt lat="43.56887" lon="1.29483">
        <ele>174.2</ele>
        <time>2024-07-11T06:25:16Z</time>
      </trkpt>
      <trkpt lat="43.56885" lon="1.29474">
        <ele>174.2</ele>
        <time>2024-07-11T06:25:17Z</time>
      </trkpt>
      <trkpt lat="43.56883" lon="1.29466">
        <ele>174.2</ele>
        <time>2024-07-11T06:25:18Z</time>
      </trkpt>
      <trkpt lat="43.56881" lon="1.29459">
        <ele>174.2</ele>
        <time>2024-07-11T06:25:19Z</time>
      </trkpt>
      <trkpt lat="43.56879" lon="1.29449">
        <ele>174.2</ele>
        <time>2024-07-11T06:25:20Z</time>
      </trkpt>
      <trkpt lat="43.56877" lon="1.29441">
        <ele>174.2</ele>
        <time>2024-07-11T06:25:21Z</time>
      </trkpt>
      <trkpt lat="43.56874" lon="1.29432">
        <ele>174.2</ele>
        <time>2024-07-11T06:25:22Z</time>
      </trkpt>
      <trkpt lat="43.56872" lon="1.29423">
        <ele>174.4</ele>
        <time>2024-07-11T06:25:23Z</time>
      </trkpt>
      <trkpt lat="43.5687" lon="1.29415">
        <ele>174.4</ele>
        <time>2024-07-11T06:25:24Z</time>
      </trkpt>
      <trkpt lat="43.56868" lon="1.29406">
        <ele>174.4</ele>
        <time>2024-07-11T06:25:25Z</time>
      </trkpt>
      <trkpt lat="43.56865" lon="1.29396">
        <ele>174.6</ele>
        <time>2024-07-11T06:25:26Z</time>
      </trkpt>
      <trkpt lat="43.56863" lon="1.29387">
        <ele>174.6</ele>
        <time>2024-07-11T06:25:27Z</time>
      </trkpt>
      <trkpt lat="43.56861" lon="1.29378">
        <ele>174.6</ele>
        <time>2024-07-11T06:25:28Z</time>
      </trkpt>
      <trkpt lat="43.56859" lon="1.29368">
        <ele>174.6</ele>
        <time>2024-07-11T06:25:29Z</time>
      </trkpt>
      <trkpt lat="43.56857" lon="1.29359">
        <ele>174.6</ele>
        <time>2024-07-11T06:25:30Z</time>
      </trkpt>
      <trkpt lat="43.56855" lon="1.29349">
        <ele>174.6</ele>
        <time>2024-07-11T06:25:31Z</time>
      </trkpt>
      <trkpt lat="43.56852" lon="1.2934">
        <ele>174.6</ele>
        <time>2024-07-11T06:25:32Z</time>
      </trkpt>
      <trkpt lat="43.5685" lon="1.2933">
        <ele>174.6</ele>
        <time>2024-07-11T06:25:33Z</time>
      </trkpt>
      <trkpt lat="43.56848" lon="1.2932">
        <ele>174.6</ele>
        <time>2024-07-11T06:25:34Z</time>
      </trkpt>
      <trkpt lat="43.56846" lon="1.2931">
        <ele>174.6</ele>
        <time>2024-07-11T06:25:35Z</time>
      </trkpt>
      <trkpt lat="43.56843" lon="1.29301">
        <ele>174.6</ele>
        <time>2024-07-11T06:25:36Z</time>
      </trkpt>
      <trkpt lat="43.56841" lon="1.2929">
        <ele>174.6</ele>
        <time>2024-07-11T06:25:37Z</time>
      </trkpt>
      <trkpt lat="43.56839" lon="1.29281">
        <ele>174.8</ele>
        <time>2024-07-11T06:25:38Z</time>
      </trkpt>
      <trkpt lat="43.56836" lon="1.29271">
        <ele>174.6</ele>
        <time>2024-07-11T06:25:39Z</time>
      </trkpt>
      <trkpt lat="43.56834" lon="1.29261">
        <ele>174.6</ele>
        <time>2024-07-11T06:25:40Z</time>
      </trkpt>
      <trkpt lat="43.56831" lon="1.29251">
        <ele>174.6</ele>
        <time>2024-07-11T06:25:41Z</time>
      </trkpt>
      <trkpt lat="43.56829" lon="1.29241">
        <ele>174.8</ele>
        <time>2024-07-11T06:25:42Z</time>
      </trkpt>
      <trkpt lat="43.56826" lon="1.29232">
        <ele>174.8</ele>
        <time>2024-07-11T06:25:43Z</time>
      </trkpt>
      <trkpt lat="43.56824" lon="1.29224">
        <ele>174.8</ele>
        <time>2024-07-11T06:25:44Z</time>
      </trkpt>
      <trkpt lat="43.56821" lon="1.29215">
        <ele>174.8</ele>
        <time>2024-07-11T06:25:45Z</time>
      </trkpt>
      <trkpt lat="43.56818" lon="1.29203">
        <ele>174.8</ele>
        <time>2024-07-11T06:25:46Z</time>
      </trkpt>
      <trkpt lat="43.56816" lon="1.29194">
        <ele>174.8</ele>
        <time>2024-07-11T06:25:47Z</time>
      </trkpt>
      <trkpt lat="43.56813" lon="1.29184">
        <ele>174.8</ele>
        <time>2024-07-11T06:25:48Z</time>
      </trkpt>
      <trkpt lat="43.56811" lon="1.29175">
        <ele>174.8</ele>
        <time>2024-07-11T06:25:49Z</time>
      </trkpt>
      <trkpt lat="43.56809" lon="1.29167">
        <ele>175.2</ele>
        <time>2024-07-11T06:25:50Z</time>
      </trkpt>
      <trkpt lat="43.56805" lon="1.29156">
        <ele>175.2</ele>
        <time>2024-07-11T06:25:51Z</time>
      </trkpt>
      <trkpt lat="43.56803" lon="1.29146">
        <ele>175.4</ele>
        <time>2024-07-11T06:25:52Z</time>
      </trkpt>
      <trkpt lat="43.568" lon="1.29137">
        <ele>175.4</ele>
        <time>2024-07-11T06:25:53Z</time>
      </trkpt>
      <trkpt lat="43.56798" lon="1.29127">
        <ele>175.6</ele>
        <time>2024-07-11T06:25:54Z</time>
      </trkpt>
      <trkpt lat="43.56795" lon="1.29118">
        <ele>175.6</ele>
        <time>2024-07-11T06:25:55Z</time>
      </trkpt>
      <trkpt lat="43.56793" lon="1.29111">
        <ele>176</ele>
        <time>2024-07-11T06:25:56Z</time>
      </trkpt>
      <trkpt lat="43.5679" lon="1.291">
        <ele>176.2</ele>
        <time>2024-07-11T06:25:57Z</time>
      </trkpt>
      <trkpt lat="43.56787" lon="1.2909">
        <ele>176.2</ele>
        <time>2024-07-11T06:25:58Z</time>
      </trkpt>
      <trkpt lat="43.56785" lon="1.29082">
        <ele>176.4</ele>
        <time>2024-07-11T06:25:59Z</time>
      </trkpt>
      <trkpt lat="43.56782" lon="1.29073">
        <ele>176.4</ele>
        <time>2024-07-11T06:26:00Z</time>
      </trkpt>
      <trkpt lat="43.56779" lon="1.29065">
        <ele>176.4</ele>
        <time>2024-07-11T06:26:01Z</time>
      </trkpt>
      <trkpt lat="43.56777" lon="1.29057">
        <ele>176.6</ele>
        <time>2024-07-11T06:26:02Z</time>
      </trkpt>
      <trkpt lat="43.56775" lon="1.2905">
        <ele>176.6</ele>
        <time>2024-07-11T06:26:03Z</time>
      </trkpt>
      <trkpt lat="43.56773" lon="1.29043">
        <ele>176.8</ele>
        <time>2024-07-11T06:26:04Z</time>
      </trkpt>
      <trkpt lat="43.56771" lon="1.29038">
        <ele>176.8</ele>
        <time>2024-07-11T06:26:05Z</time>
      </trkpt>
      <trkpt lat="43.56769" lon="1.29033">
        <ele>176.8</ele>
        <time>2024-07-11T06:26:06Z</time>
      </trkpt>
      <trkpt lat="43.56768" lon="1.29028">
        <ele>176.8</ele>
        <time>2024-07-11T06:26:07Z</time>
      </trkpt>
      <trkpt lat="43.56767" lon="1.29025">
        <ele>177</ele>
        <time>2024-07-11T06:26:08Z</time>
      </trkpt>
      <trkpt lat="43.56765" lon="1.29023">
        <ele>177</ele>
        <time>2024-07-11T06:26:09Z</time>
      </trkpt>
      <trkpt lat="43.56765" lon="1.29021">
        <ele>177</ele>
        <time>2024-07-11T06:26:10Z</time>
      </trkpt>
      <trkpt lat="43.56764" lon="1.2902">
        <ele>177.2</ele>
        <time>2024-07-11T06:26:11Z</time>
      </trkpt>
      <trkpt lat="43.56763" lon="1.29019">
        <ele>177.2</ele>
        <time>2024-07-11T06:26:12Z</time>
      </trkpt>
      <trkpt lat="43.56763" lon="1.29019">
        <ele>177.4</ele>
        <time>2024-07-11T06:26:13Z</time>
      </trkpt>
      <trkpt lat="43.56763" lon="1.29019">
        <ele>177.4</ele>
        <time>2024-07-11T06:26:14Z</time>
      </trkpt>
      <trkpt lat="43.56758" lon="1.29018">
        <ele>177.4</ele>
        <time>2024-07-11T06:26:19Z</time>
      </trkpt>
      <trkpt lat="43.56755" lon="1.29018">
        <ele>177.4</ele>
        <time>2024-07-11T06:26:20Z</time>
      </trkpt>
      <trkpt lat="43.56753" lon="1.2902">
        <ele>177.4</ele>
        <time>2024-07-11T06:26:21Z</time>
      </trkpt>
      <trkpt lat="43.56749" lon="1.29023">
        <ele>177.4</ele>
        <time>2024-07-11T06:26:22Z</time>
      </trkpt>
      <trkpt lat="43.56745" lon="1.29027">
        <ele>177.4</ele>
        <time>2024-07-11T06:26:23Z</time>
      </trkpt>
      <trkpt lat="43.56741" lon="1.29031">
        <ele>177.4</ele>
        <time>2024-07-11T06:26:24Z</time>
      </trkpt>
      <trkpt lat="43.56737" lon="1.29036">
        <ele>177.4</ele>
        <time>2024-07-11T06:26:25Z</time>
      </trkpt>
      <trkpt lat="43.56733" lon="1.29042">
        <ele>177.2</ele>
        <time>2024-07-11T06:26:26Z</time>
      </trkpt>
      <trkpt lat="43.56728" lon="1.29046">
        <ele>177.2</ele>
        <time>2024-07-11T06:26:27Z</time>
      </trkpt>
      <trkpt lat="43.56722" lon="1.29053">
        <ele>177.2</ele>
        <time>2024-07-11T06:26:28Z</time>
      </trkpt>
      <trkpt lat="43.56716" lon="1.29059">
        <ele>177</ele>
        <time>2024-07-11T06:26:29Z</time>
      </trkpt>
      <trkpt lat="43.5671" lon="1.29065">
        <ele>176.8</ele>
        <time>2024-07-11T06:26:30Z</time>
      </trkpt>
      <trkpt lat="43.56704" lon="1.29071">
        <ele>176.8</ele>
        <time>2024-07-11T06:26:31Z</time>
      </trkpt>
      <trkpt lat="43.56698" lon="1.29078">
        <ele>176.6</ele>
        <time>2024-07-11T06:26:32Z</time>
      </trkpt>
      <trkpt lat="43.56694" lon="1.29083">
        <ele>176.6</ele>
        <time>2024-07-11T06:26:33Z</time>
      </trkpt>
      <trkpt lat="43.56687" lon="1.29091">
        <ele>176.4</ele>
        <time>2024-07-11T06:26:34Z</time>
      </trkpt>
      <trkpt lat="43.56681" lon="1.29097">
        <ele>176.4</ele>
        <time>2024-07-11T06:26:35Z</time>
      </trkpt>
      <trkpt lat="43.56675" lon="1.29104">
        <ele>176.2</ele>
        <time>2024-07-11T06:26:36Z</time>
      </trkpt>
      <trkpt lat="43.56669" lon="1.29107">
        <ele>176</ele>
        <time>2024-07-11T06:26:37Z</time>
      </trkpt>
      <trkpt lat="43.56663" lon="1.29109">
        <ele>175.8</ele>
        <time>2024-07-11T06:26:38Z</time>
      </trkpt>
      <trkpt lat="43.56658" lon="1.29103">
        <ele>175.6</ele>
        <time>2024-07-11T06:26:39Z</time>
      </trkpt>
      <trkpt lat="43.56653" lon="1.29096">
        <ele>175.6</ele>
        <time>2024-07-11T06:26:40Z</time>
      </trkpt>
      <trkpt lat="43.56648" lon="1.29088">
        <ele>175.4</ele>
        <time>2024-07-11T06:26:41Z</time>
      </trkpt>
      <trkpt lat="43.56643" lon="1.2908">
        <ele>175.2</ele>
        <time>2024-07-11T06:26:42Z</time>
      </trkpt>
      <trkpt lat="43.56637" lon="1.29073">
        <ele>175.2</ele>
        <time>2024-07-11T06:26:43Z</time>
      </trkpt>
      <trkpt lat="43.56631" lon="1.29065">
        <ele>175.2</ele>
        <time>2024-07-11T06:26:44Z</time>
      </trkpt>
      <trkpt lat="43.56626" lon="1.29057">
        <ele>175.2</ele>
        <time>2024-07-11T06:26:45Z</time>
      </trkpt>
      <trkpt lat="43.5662" lon="1.29049">
        <ele>175.2</ele>
        <time>2024-07-11T06:26:46Z</time>
      </trkpt>
      <trkpt lat="43.56614" lon="1.29041">
        <ele>175</ele>
        <time>2024-07-11T06:26:47Z</time>
      </trkpt>
      <trkpt lat="43.5661" lon="1.29034">
        <ele>175</ele>
        <time>2024-07-11T06:26:48Z</time>
      </trkpt>
      <trkpt lat="43.56603" lon="1.29023">
        <ele>175</ele>
        <time>2024-07-11T06:26:49Z</time>
      </trkpt>
      <trkpt lat="43.56598" lon="1.29015">
        <ele>174.8</ele>
        <time>2024-07-11T06:26:50Z</time>
      </trkpt>
      <trkpt lat="43.56592" lon="1.29006">
        <ele>174.8</ele>
        <time>2024-07-11T06:26:51Z</time>
      </trkpt>
      <trkpt lat="43.56586" lon="1.28997">
        <ele>174.8</ele>
        <time>2024-07-11T06:26:52Z</time>
      </trkpt>
      <trkpt lat="43.5658" lon="1.28988">
        <ele>174.8</ele>
        <time>2024-07-11T06:26:53Z</time>
      </trkpt>
      <trkpt lat="43.56575" lon="1.28979">
        <ele>174.8</ele>
        <time>2024-07-11T06:26:54Z</time>
      </trkpt>
      <trkpt lat="43.56569" lon="1.28971">
        <ele>174.6</ele>
        <time>2024-07-11T06:26:55Z</time>
      </trkpt>
      <trkpt lat="43.56564" lon="1.28962">
        <ele>174.6</ele>
        <time>2024-07-11T06:26:56Z</time>
      </trkpt>
      <trkpt lat="43.56558" lon="1.28953">
        <ele>174.4</ele>
        <time>2024-07-11T06:26:57Z</time>
      </trkpt>
      <trkpt lat="43.56553" lon="1.28946">
        <ele>174.4</ele>
        <time>2024-07-11T06:26:58Z</time>
      </trkpt>
      <trkpt lat="43.56546" lon="1.28936">
        <ele>174.4</ele>
        <time>2024-07-11T06:26:59Z</time>
      </trkpt>
      <trkpt lat="43.56541" lon="1.28927">
        <ele>174.2</ele>
        <time>2024-07-11T06:27:00Z</time>
      </trkpt>
      <trkpt lat="43.56535" lon="1.28918">
        <ele>174.2</ele>
        <time>2024-07-11T06:27:01Z</time>
      </trkpt>
      <trkpt lat="43.5653" lon="1.2891">
        <ele>174.2</ele>
        <time>2024-07-11T06:27:02Z</time>
      </trkpt>
      <trkpt lat="43.56524" lon="1.28901">
        <ele>174</ele>
        <time>2024-07-11T06:27:03Z</time>
      </trkpt>
      <trkpt lat="43.5652" lon="1.28895">
        <ele>174</ele>
        <time>2024-07-11T06:27:04Z</time>
      </trkpt>
      <trkpt lat="43.56514" lon="1.28887">
        <ele>174</ele>
        <time>2024-07-11T06:27:05Z</time>
      </trkpt>
      <trkpt lat="43.5651" lon="1.2888">
        <ele>174</ele>
        <time>2024-07-11T06:27:06Z</time>
      </trkpt>
      <trkpt lat="43.56506" lon="1.28874">
        <ele>174</ele>
        <time>2024-07-11T06:27:07Z</time>
      </trkpt>
      <trkpt lat="43.56501" lon="1.28869">
        <ele>173.8</ele>
        <time>2024-07-11T06:27:08Z</time>
      </trkpt>
      <trkpt lat="43.56496" lon="1.28866">
        <ele>173.8</ele>
        <time>2024-07-11T06:27:09Z</time>
      </trkpt>
      <trkpt lat="43.5649" lon="1.28867">
        <ele>173.8</ele>
        <time>2024-07-11T06:27:10Z</time>
      </trkpt>
      <trkpt lat="43.56486" lon="1.2887">
        <ele>173.8</ele>
        <time>2024-07-11T06:27:11Z</time>
      </trkpt>
      <trkpt lat="43.56485" lon="1.28878">
        <ele>173.8</ele>
        <time>2024-07-11T06:27:12Z</time>
      </trkpt>
      <trkpt lat="43.56485" lon="1.28886">
        <ele>173.8</ele>
        <time>2024-07-11T06:27:13Z</time>
      </trkpt>
      <trkpt lat="43.56484" lon="1.28896">
        <ele>173.8</ele>
        <time>2024-07-11T06:27:14Z</time>
      </trkpt>
      <trkpt lat="43.56482" lon="1.28904">
        <ele>173.8</ele>
        <time>2024-07-11T06:27:15Z</time>
      </trkpt>
      <trkpt lat="43.56478" lon="1.28913">
        <ele>173.8</ele>
        <time>2024-07-11T06:27:16Z</time>
      </trkpt>
      <trkpt lat="43.56475" lon="1.28922">
        <ele>173.8</ele>
        <time>2024-07-11T06:27:17Z</time>
      </trkpt>
      <trkpt lat="43.56471" lon="1.2893">
        <ele>173.8</ele>
        <time>2024-07-11T06:27:18Z</time>
      </trkpt>
      <trkpt lat="43.56467" lon="1.28939">
        <ele>173.8</ele>
        <time>2024-07-11T06:27:19Z</time>
      </trkpt>
      <trkpt lat="43.56463" lon="1.28949">
        <ele>173.8</ele>
        <time>2024-07-11T06:27:20Z</time>
      </trkpt>
      <trkpt lat="43.56458" lon="1.28957">
        <ele>173.8</ele>
        <time>2024-07-11T06:27:21Z</time>
      </trkpt>
      <trkpt lat="43.56454" lon="1.28966">
        <ele>173.8</ele>
        <time>2024-07-11T06:27:22Z</time>
      </trkpt>
      <trkpt lat="43.5645" lon="1.28976">
        <ele>173.6</ele>
        <time>2024-07-11T06:27:23Z</time>
      </trkpt>
      <trkpt lat="43.56446" lon="1.28985">
        <ele>173.6</ele>
        <time>2024-07-11T06:27:24Z</time>
      </trkpt>
      <trkpt lat="43.56442" lon="1.28994">
        <ele>173.6</ele>
        <time>2024-07-11T06:27:25Z</time>
      </trkpt>
      <trkpt lat="43.56437" lon="1.29004">
        <ele>173.4</ele>
        <time>2024-07-11T06:27:26Z</time>
      </trkpt>
      <trkpt lat="43.56433" lon="1.29013">
        <ele>173.4</ele>
        <time>2024-07-11T06:27:27Z</time>
      </trkpt>
      <trkpt lat="43.56429" lon="1.29022">
        <ele>173.4</ele>
        <time>2024-07-11T06:27:28Z</time>
      </trkpt>
      <trkpt lat="43.56426" lon="1.2903">
        <ele>173.2</ele>
        <time>2024-07-11T06:27:29Z</time>
      </trkpt>
      <trkpt lat="43.5642" lon="1.29041">
        <ele>173.2</ele>
        <time>2024-07-11T06:27:30Z</time>
      </trkpt>
      <trkpt lat="43.56416" lon="1.29051">
        <ele>173.2</ele>
        <time>2024-07-11T06:27:31Z</time>
      </trkpt>
      <trkpt lat="43.56412" lon="1.2906">
        <ele>173.2</ele>
        <time>2024-07-11T06:27:32Z</time>
      </trkpt>
      <trkpt lat="43.56408" lon="1.29069">
        <ele>173</ele>
        <time>2024-07-11T06:27:33Z</time>
      </trkpt>
      <trkpt lat="43.56403" lon="1.29078">
        <ele>173</ele>
        <time>2024-07-11T06:27:34Z</time>
      </trkpt>
      <trkpt lat="43.56399" lon="1.29085">
        <ele>173</ele>
        <time>2024-07-11T06:27:35Z</time>
      </trkpt>
      <trkpt lat="43.56392" lon="1.29093">
        <ele>173</ele>
        <time>2024-07-11T06:27:36Z</time>
      </trkpt>
      <trkpt lat="43.56386" lon="1.29099">
        <ele>173</ele>
        <time>2024-07-11T06:27:37Z</time>
      </trkpt>
      <trkpt lat="43.5638" lon="1.29104">
        <ele>172.8</ele>
        <time>2024-07-11T06:27:38Z</time>
      </trkpt>
      <trkpt lat="43.56374" lon="1.29109">
        <ele>172.8</ele>
        <time>2024-07-11T06:27:39Z</time>
      </trkpt>
      <trkpt lat="43.56368" lon="1.29113">
        <ele>172.8</ele>
        <time>2024-07-11T06:27:40Z</time>
      </trkpt>
      <trkpt lat="43.56363" lon="1.29116">
        <ele>172.8</ele>
        <time>2024-07-11T06:27:41Z</time>
      </trkpt>
      <trkpt lat="43.56356" lon="1.29118">
        <ele>172.8</ele>
        <time>2024-07-11T06:27:42Z</time>
      </trkpt>
      <trkpt lat="43.5635" lon="1.29117">
        <ele>172.8</ele>
        <time>2024-07-11T06:27:43Z</time>
      </trkpt>
      <trkpt lat="43.56346" lon="1.29116">
        <ele>172.8</ele>
        <time>2024-07-11T06:27:44Z</time>
      </trkpt>
      <trkpt lat="43.56343" lon="1.29114">
        <ele>172.8</ele>
        <time>2024-07-11T06:27:45Z</time>
      </trkpt>
      <trkpt lat="43.5634" lon="1.29114">
        <ele>172.8</ele>
        <time>2024-07-11T06:27:46Z</time>
      </trkpt>
      <trkpt lat="43.56338" lon="1.29116">
        <ele>172.8</ele>
        <time>2024-07-11T06:27:47Z</time>
      </trkpt>
      <trkpt lat="43.56335" lon="1.29118">
        <ele>172.8</ele>
        <time>2024-07-11T06:27:48Z</time>
      </trkpt>
      <trkpt lat="43.56331" lon="1.29121">
        <ele>172.8</ele>
        <time>2024-07-11T06:27:49Z</time>
      </trkpt>
      <trkpt lat="43.56327" lon="1.29123">
        <ele>172.8</ele>
        <time>2024-07-11T06:27:50Z</time>
      </trkpt>
      <trkpt lat="43.56324" lon="1.29126">
        <ele>172.8</ele>
        <time>2024-07-11T06:27:51Z</time>
      </trkpt>
      <trkpt lat="43.5632" lon="1.29129">
        <ele>172.8</ele>
        <time>2024-07-11T06:27:52Z</time>
      </trkpt>
      <trkpt lat="43.56316" lon="1.29132">
        <ele>172.8</ele>
        <time>2024-07-11T06:27:53Z</time>
      </trkpt>
      <trkpt lat="43.56312" lon="1.29134">
        <ele>172.8</ele>
        <time>2024-07-11T06:27:54Z</time>
      </trkpt>
      <trkpt lat="43.56308" lon="1.29135">
        <ele>172.8</ele>
        <time>2024-07-11T06:27:55Z</time>
      </trkpt>
      <trkpt lat="43.56304" lon="1.29136">
        <ele>172.8</ele>
        <time>2024-07-11T06:27:56Z</time>
      </trkpt>
      <trkpt lat="43.56299" lon="1.29136">
        <ele>172.8</ele>
        <time>2024-07-11T06:27:57Z</time>
      </trkpt>
      <trkpt lat="43.56294" lon="1.29135">
        <ele>172.8</ele>
        <time>2024-07-11T06:27:58Z</time>
      </trkpt>
      <trkpt lat="43.56289" lon="1.29135">
        <ele>172.8</ele>
        <time>2024-07-11T06:27:59Z</time>
      </trkpt>
      <trkpt lat="43.56285" lon="1.29134">
        <ele>172.8</ele>
        <time>2024-07-11T06:28:00Z</time>
      </trkpt>
      <trkpt lat="43.5628" lon="1.29133">
        <ele>172.8</ele>
        <time>2024-07-11T06:28:01Z</time>
      </trkpt>
      <trkpt lat="43.56275" lon="1.29134">
        <ele>172.8</ele>
        <time>2024-07-11T06:28:02Z</time>
      </trkpt>
      <trkpt lat="43.5627" lon="1.29135">
        <ele>172.8</ele>
        <time>2024-07-11T06:28:03Z</time>
      </trkpt>
      <trkpt lat="43.56266" lon="1.29137">
        <ele>172.8</ele>
        <time>2024-07-11T06:28:04Z</time>
      </trkpt>
      <trkpt lat="43.56262" lon="1.29139">
        <ele>172.8</ele>
        <time>2024-07-11T06:28:05Z</time>
      </trkpt>
      <trkpt lat="43.56259" lon="1.2914">
        <ele>172.8</ele>
        <time>2024-07-11T06:28:06Z</time>
      </trkpt>
      <trkpt lat="43.56255" lon="1.29142">
        <ele>172.8</ele>
        <time>2024-07-11T06:28:07Z</time>
      </trkpt>
      <trkpt lat="43.56252" lon="1.29143">
        <ele>172.8</ele>
        <time>2024-07-11T06:28:08Z</time>
      </trkpt>
      <trkpt lat="43.5625" lon="1.29144">
        <ele>172.8</ele>
        <time>2024-07-11T06:28:09Z</time>
      </trkpt>
      <trkpt lat="43.56248" lon="1.29144">
        <ele>172.8</ele>
        <time>2024-07-11T06:28:10Z</time>
      </trkpt>
      <trkpt lat="43.56246" lon="1.29143">
        <ele>173</ele>
        <time>2024-07-11T06:28:11Z</time>
      </trkpt>
      <trkpt lat="43.56245" lon="1.29143">
        <ele>173</ele>
        <time>2024-07-11T06:28:12Z</time>
      </trkpt>
      <trkpt lat="43.56243" lon="1.29142">
        <ele>173</ele>
        <time>2024-07-11T06:28:13Z</time>
      </trkpt>
      <trkpt lat="43.56241" lon="1.29141">
        <ele>173</ele>
        <time>2024-07-11T06:28:14Z</time>
      </trkpt>
      <trkpt lat="43.56239" lon="1.29139">
        <ele>173</ele>
        <time>2024-07-11T06:28:15Z</time>
      </trkpt>
      <trkpt lat="43.56237" lon="1.29137">
        <ele>173</ele>
        <time>2024-07-11T06:28:16Z</time>
      </trkpt>
      <trkpt lat="43.56235" lon="1.29135">
        <ele>173</ele>
        <time>2024-07-11T06:28:17Z</time>
      </trkpt>
      <trkpt lat="43.56233" lon="1.29134">
        <ele>173</ele>
        <time>2024-07-11T06:28:18Z</time>
      </trkpt>
      <trkpt lat="43.5623" lon="1.29131">
        <ele>173</ele>
        <time>2024-07-11T06:28:19Z</time>
      </trkpt>
      <trkpt lat="43.56228" lon="1.2913">
        <ele>173</ele>
        <time>2024-07-11T06:28:20Z</time>
      </trkpt>
      <trkpt lat="43.56227" lon="1.2913">
        <ele>173</ele>
        <time>2024-07-11T06:28:21Z</time>
      </trkpt>
      <trkpt lat="43.56226" lon="1.29131">
        <ele>173</ele>
        <time>2024-07-11T06:28:22Z</time>
      </trkpt>
      <trkpt lat="43.56226" lon="1.29131">
        <ele>172.8</ele>
        <time>2024-07-11T06:28:23Z</time>
      </trkpt>
      <trkpt lat="43.56226" lon="1.29131">
        <ele>172.8</ele>
        <time>2024-07-11T06:28:24Z</time>
      </trkpt>
      <trkpt lat="43.56226" lon="1.29131">
        <ele>173</ele>
        <time>2024-07-11T06:28:25Z</time>
      </trkpt>
      <trkpt lat="43.56229" lon="1.29128">
        <ele>173</ele>
        <time>2024-07-11T06:30:20Z</time>
      </trkpt>
      <trkpt lat="43.5623" lon="1.29127">
        <ele>173</ele>
        <time>2024-07-11T06:30:21Z</time>
      </trkpt>
      <trkpt lat="43.56232" lon="1.29125">
        <ele>173</ele>
        <time>2024-07-11T06:30:22Z</time>
      </trkpt>
      <trkpt lat="43.56234" lon="1.29123">
        <ele>172.8</ele>
        <time>2024-07-11T06:30:23Z</time>
      </trkpt>
      <trkpt lat="43.56236" lon="1.29122">
        <ele>172.8</ele>
        <time>2024-07-11T06:30:24Z</time>
      </trkpt>
      <trkpt lat="43.56238" lon="1.2912">
        <ele>172.8</ele>
        <time>2024-07-11T06:30:25Z</time>
      </trkpt>
      <trkpt lat="43.5624" lon="1.29118">
        <ele>172.8</ele>
        <time>2024-07-11T06:30:26Z</time>
      </trkpt>
      <trkpt lat="43.56244" lon="1.29113">
        <ele>172.8</ele>
        <time>2024-07-11T06:30:27Z</time>
      </trkpt>
      <trkpt lat="43.56246" lon="1.29111">
        <ele>172.6</ele>
        <time>2024-07-11T06:30:28Z</time>
      </trkpt>
      <trkpt lat="43.56248" lon="1.29107">
        <ele>172.6</ele>
        <time>2024-07-11T06:30:29Z</time>
      </trkpt>
      <trkpt lat="43.56249" lon="1.29105">
        <ele>172.6</ele>
        <time>2024-07-11T06:30:30Z</time>
      </trkpt>
      <trkpt lat="43.56253" lon="1.29101">
        <ele>172.6</ele>
        <time>2024-07-11T06:30:31Z</time>
      </trkpt>
      <trkpt lat="43.56256" lon="1.29098">
        <ele>172.6</ele>
        <time>2024-07-11T06:30:32Z</time>
      </trkpt>
      <trkpt lat="43.56259" lon="1.29096">
        <ele>172.6</ele>
        <time>2024-07-11T06:30:33Z</time>
      </trkpt>
      <trkpt lat="43.56262" lon="1.29092">
        <ele>172.8</ele>
        <time>2024-07-11T06:30:34Z</time>
      </trkpt>
      <trkpt lat="43.56264" lon="1.2909">
        <ele>172.8</ele>
        <time>2024-07-11T06:30:35Z</time>
      </trkpt>
      <trkpt lat="43.56267" lon="1.29087">
        <ele>172.8</ele>
        <time>2024-07-11T06:30:36Z</time>
      </trkpt>
      <trkpt lat="43.5627" lon="1.29084">
        <ele>172.8</ele>
        <time>2024-07-11T06:30:37Z</time>
      </trkpt>
      <trkpt lat="43.56272" lon="1.29081">
        <ele>172.8</ele>
        <time>2024-07-11T06:30:38Z</time>
      </trkpt>
      <trkpt lat="43.56275" lon="1.29078">
        <ele>172.8</ele>
        <time>2024-07-11T06:30:39Z</time>
      </trkpt>
      <trkpt lat="43.56277" lon="1.29075">
        <ele>173</ele>
        <time>2024-07-11T06:30:40Z</time>
      </trkpt>
      <trkpt lat="43.56278" lon="1.29071">
        <ele>173</ele>
        <time>2024-07-11T06:30:41Z</time>
      </trkpt>
      <trkpt lat="43.56278" lon="1.29067">
        <ele>173</ele>
        <time>2024-07-11T06:30:42Z</time>
      </trkpt>
      <trkpt lat="43.56278" lon="1.29062">
        <ele>173</ele>
        <time>2024-07-11T06:30:43Z</time>
      </trkpt>
      <trkpt lat="43.56277" lon="1.29057">
        <ele>173</ele>
        <time>2024-07-11T06:30:44Z</time>
      </trkpt>
      <trkpt lat="43.56276" lon="1.29053">
        <ele>173</ele>
        <time>2024-07-11T06:30:45Z</time>
      </trkpt>
      <trkpt lat="43.56276" lon="1.2905">
        <ele>173</ele>
        <time>2024-07-11T06:30:46Z</time>
      </trkpt>
      <trkpt lat="43.56275" lon="1.29045">
        <ele>173</ele>
        <time>2024-07-11T06:30:47Z</time>
      </trkpt>
      <trkpt lat="43.56276" lon="1.2904">
        <ele>173</ele>
        <time>2024-07-11T06:30:48Z</time>
      </trkpt>
      <trkpt lat="43.56278" lon="1.29036">
        <ele>173.2</ele>
        <time>2024-07-11T06:30:49Z</time>
      </trkpt>
      <trkpt lat="43.56279" lon="1.29032">
        <ele>173.2</ele>
        <time>2024-07-11T06:30:50Z</time>
      </trkpt>
      <trkpt lat="43.56281" lon="1.2903">
        <ele>173.2</ele>
        <time>2024-07-11T06:30:51Z</time>
      </trkpt>
      <trkpt lat="43.56283" lon="1.29028">
        <ele>173.2</ele>
        <time>2024-07-11T06:30:52Z</time>
      </trkpt>
      <trkpt lat="43.56286" lon="1.29026">
        <ele>173.2</ele>
        <time>2024-07-11T06:30:53Z</time>
      </trkpt>
      <trkpt lat="43.56288" lon="1.29024">
        <ele>173.2</ele>
        <time>2024-07-11T06:30:54Z</time>
      </trkpt>
      <trkpt lat="43.56291" lon="1.29022">
        <ele>173.2</ele>
        <time>2024-07-11T06:30:55Z</time>
      </trkpt>
      <trkpt lat="43.56293" lon="1.29021">
        <ele>173.2</ele>
        <time>2024-07-11T06:30:56Z</time>
      </trkpt>
      <trkpt lat="43.56296" lon="1.29022">
        <ele>173.2</ele>
        <time>2024-07-11T06:30:57Z</time>
      </trkpt>
      <trkpt lat="43.56298" lon="1.29024">
        <ele>173.2</ele>
        <time>2024-07-11T06:30:58Z</time>
      </trkpt>
      <trkpt lat="43.563" lon="1.29029">
        <ele>173.2</ele>
        <time>2024-07-11T06:30:59Z</time>
      </trkpt>
      <trkpt lat="43.56302" lon="1.29034">
        <ele>173.2</ele>
        <time>2024-07-11T06:31:00Z</time>
      </trkpt>
      <trkpt lat="43.56303" lon="1.29038">
        <ele>173.2</ele>
        <time>2024-07-11T06:31:01Z</time>
      </trkpt>
      <trkpt lat="43.56305" lon="1.29042">
        <ele>173.2</ele>
        <time>2024-07-11T06:31:02Z</time>
      </trkpt>
      <trkpt lat="43.56307" lon="1.29047">
        <ele>173.2</ele>
        <time>2024-07-11T06:31:03Z</time>
      </trkpt>
      <trkpt lat="43.56309" lon="1.29054">
        <ele>173.2</ele>
        <time>2024-07-11T06:31:04Z</time>
      </trkpt>
      <trkpt lat="43.56311" lon="1.29059">
        <ele>173.2</ele>
        <time>2024-07-11T06:31:05Z</time>
      </trkpt>
      <trkpt lat="43.56312" lon="1.29065">
        <ele>173.2</ele>
        <time>2024-07-11T06:31:06Z</time>
      </trkpt>
      <trkpt lat="43.56314" lon="1.29069">
        <ele>173.2</ele>
        <time>2024-07-11T06:31:07Z</time>
      </trkpt>
      <trkpt lat="43.56315" lon="1.29075">
        <ele>173.2</ele>
        <time>2024-07-11T06:31:08Z</time>
      </trkpt>
      <trkpt lat="43.56318" lon="1.29081">
        <ele>173.2</ele>
        <time>2024-07-11T06:31:09Z</time>
      </trkpt>
      <trkpt lat="43.56319" lon="1.29085">
        <ele>173.2</ele>
        <time>2024-07-11T06:31:10Z</time>
      </trkpt>
      <trkpt lat="43.56321" lon="1.29088">
        <ele>173.2</ele>
        <time>2024-07-11T06:31:11Z</time>
      </trkpt>
      <trkpt lat="43.56323" lon="1.29091">
        <ele>173.2</ele>
        <time>2024-07-11T06:31:12Z</time>
      </trkpt>
      <trkpt lat="43.56325" lon="1.29095">
        <ele>173.2</ele>
        <time>2024-07-11T06:31:13Z</time>
      </trkpt>
      <trkpt lat="43.56328" lon="1.29097">
        <ele>173.2</ele>
        <time>2024-07-11T06:31:14Z</time>
      </trkpt>
      <trkpt lat="43.56331" lon="1.29101">
        <ele>173.2</ele>
        <time>2024-07-11T06:31:15Z</time>
      </trkpt>
      <trkpt lat="43.56333" lon="1.29104">
        <ele>173.2</ele>
        <time>2024-07-11T06:31:16Z</time>
      </trkpt>
      <trkpt lat="43.56335" lon="1.29108">
        <ele>173.2</ele>
        <time>2024-07-11T06:31:17Z</time>
      </trkpt>
      <trkpt lat="43.56336" lon="1.29112">
        <ele>173.2</ele>
        <time>2024-07-11T06:31:18Z</time>
      </trkpt>
      <trkpt lat="43.56337" lon="1.29117">
        <ele>173.2</ele>
        <time>2024-07-11T06:31:19Z</time>
      </trkpt>
      <trkpt lat="43.56337" lon="1.29123">
        <ele>173</ele>
        <time>2024-07-11T06:31:20Z</time>
      </trkpt>
      <trkpt lat="43.56337" lon="1.29129">
        <ele>173</ele>
        <time>2024-07-11T06:31:21Z</time>
      </trkpt>
      <trkpt lat="43.56337" lon="1.29135">
        <ele>173</ele>
        <time>2024-07-11T06:31:22Z</time>
      </trkpt>
      <trkpt lat="43.56337" lon="1.2914">
        <ele>173</ele>
        <time>2024-07-11T06:31:23Z</time>
      </trkpt>
      <trkpt lat="43.56339" lon="1.29145">
        <ele>173</ele>
        <time>2024-07-11T06:31:24Z</time>
      </trkpt>
      <trkpt lat="43.56343" lon="1.29148">
        <ele>173</ele>
        <time>2024-07-11T06:31:25Z</time>
      </trkpt>
      <trkpt lat="43.56347" lon="1.29151">
        <ele>173</ele>
        <time>2024-07-11T06:31:26Z</time>
      </trkpt>
      <trkpt lat="43.56352" lon="1.29151">
        <ele>173</ele>
        <time>2024-07-11T06:31:27Z</time>
      </trkpt>
      <trkpt lat="43.56356" lon="1.29149">
        <ele>173</ele>
        <time>2024-07-11T06:31:28Z</time>
      </trkpt>
      <trkpt lat="43.56358" lon="1.29147">
        <ele>173</ele>
        <time>2024-07-11T06:31:29Z</time>
      </trkpt>
      <trkpt lat="43.56361" lon="1.29143">
        <ele>173</ele>
        <time>2024-07-11T06:31:30Z</time>
      </trkpt>
      <trkpt lat="43.56364" lon="1.29138">
        <ele>173</ele>
        <time>2024-07-11T06:31:31Z</time>
      </trkpt>
      <trkpt lat="43.56367" lon="1.29133">
        <ele>173</ele>
        <time>2024-07-11T06:31:32Z</time>
      </trkpt>
      <trkpt lat="43.56371" lon="1.29129">
        <ele>173</ele>
        <time>2024-07-11T06:31:33Z</time>
      </trkpt>
      <trkpt lat="43.56373" lon="1.29125">
        <ele>173</ele>
        <time>2024-07-11T06:31:34Z</time>
      </trkpt>
      <trkpt lat="43.56377" lon="1.2912">
        <ele>173</ele>
        <time>2024-07-11T06:31:35Z</time>
      </trkpt>
      <trkpt lat="43.56382" lon="1.29115">
        <ele>173</ele>
        <time>2024-07-11T06:31:36Z</time>
      </trkpt>
      <trkpt lat="43.56386" lon="1.29112">
        <ele>173</ele>
        <time>2024-07-11T06:31:37Z</time>
      </trkpt>
      <trkpt lat="43.5639" lon="1.29108">
        <ele>173</ele>
        <time>2024-07-11T06:31:38Z</time>
      </trkpt>
      <trkpt lat="43.56394" lon="1.29103">
        <ele>173</ele>
        <time>2024-07-11T06:31:39Z</time>
      </trkpt>
      <trkpt lat="43.56398" lon="1.29098">
        <ele>173</ele>
        <time>2024-07-11T06:31:40Z</time>
      </trkpt>
      <trkpt lat="43.56403" lon="1.29092">
        <ele>173</ele>
        <time>2024-07-11T06:31:41Z</time>
      </trkpt>
      <trkpt lat="43.56406" lon="1.29086">
        <ele>173</ele>
        <time>2024-07-11T06:31:42Z</time>
      </trkpt>
      <trkpt lat="43.56408" lon="1.29081">
        <ele>173</ele>
        <time>2024-07-11T06:31:43Z</time>
      </trkpt>
      <trkpt lat="43.56411" lon="1.29075">
        <ele>173</ele>
        <time>2024-07-11T06:31:44Z</time>
      </trkpt>
      <trkpt lat="43.56415" lon="1.29069">
        <ele>173</ele>
        <time>2024-07-11T06:31:45Z</time>
      </trkpt>
      <trkpt lat="43.56418" lon="1.29063">
        <ele>173</ele>
        <time>2024-07-11T06:31:46Z</time>
      </trkpt>
      <trkpt lat="43.56421" lon="1.29057">
        <ele>173</ele>
        <time>2024-07-11T06:31:47Z</time>
      </trkpt>
      <trkpt lat="43.56423" lon="1.29052">
        <ele>173</ele>
        <time>2024-07-11T06:31:48Z</time>
      </trkpt>
      <trkpt lat="43.56426" lon="1.29047">
        <ele>173</ele>
        <time>2024-07-11T06:31:49Z</time>
      </trkpt>
      <trkpt lat="43.56429" lon="1.29041">
        <ele>173</ele>
        <time>2024-07-11T06:31:50Z</time>
      </trkpt>
      <trkpt lat="43.56432" lon="1.29033">
        <ele>173</ele>
        <time>2024-07-11T06:31:51Z</time>
      </trkpt>
      <trkpt lat="43.56435" lon="1.29027">
        <ele>173</ele>
        <time>2024-07-11T06:31:52Z</time>
      </trkpt>
      <trkpt lat="43.56438" lon="1.29021">
        <ele>173</ele>
        <time>2024-07-11T06:31:53Z</time>
      </trkpt>
      <trkpt lat="43.5644" lon="1.29015">
        <ele>173</ele>
        <time>2024-07-11T06:31:54Z</time>
      </trkpt>
      <trkpt lat="43.56443" lon="1.29008">
        <ele>173.2</ele>
        <time>2024-07-11T06:31:55Z</time>
      </trkpt>
      <trkpt lat="43.56447" lon="1.29">
        <ele>173.2</ele>
        <time>2024-07-11T06:31:56Z</time>
      </trkpt>
      <trkpt lat="43.5645" lon="1.28993">
        <ele>173.2</ele>
        <time>2024-07-11T06:31:57Z</time>
      </trkpt>
      <trkpt lat="43.56452" lon="1.28988">
        <ele>173.2</ele>
        <time>2024-07-11T06:31:58Z</time>
      </trkpt>
      <trkpt lat="43.56455" lon="1.28982">
        <ele>173.2</ele>
        <time>2024-07-11T06:31:59Z</time>
      </trkpt>
      <trkpt lat="43.56459" lon="1.28974">
        <ele>173.4</ele>
        <time>2024-07-11T06:32:00Z</time>
      </trkpt>
      <trkpt lat="43.56461" lon="1.28968">
        <ele>173.4</ele>
        <time>2024-07-11T06:32:01Z</time>
      </trkpt>
      <trkpt lat="43.56464" lon="1.28962">
        <ele>173.4</ele>
        <time>2024-07-11T06:32:02Z</time>
      </trkpt>
      <trkpt lat="43.56466" lon="1.28957">
        <ele>173.4</ele>
        <time>2024-07-11T06:32:03Z</time>
      </trkpt>
      <trkpt lat="43.56469" lon="1.28951">
        <ele>173.4</ele>
        <time>2024-07-11T06:32:04Z</time>
      </trkpt>
      <trkpt lat="43.56472" lon="1.28944">
        <ele>173.4</ele>
        <time>2024-07-11T06:32:05Z</time>
      </trkpt>
      <trkpt lat="43.56475" lon="1.28939">
        <ele>173.4</ele>
        <time>2024-07-11T06:32:06Z</time>
      </trkpt>
      <trkpt lat="43.56477" lon="1.28933">
        <ele>173.4</ele>
        <time>2024-07-11T06:32:07Z</time>
      </trkpt>
      <trkpt lat="43.56479" lon="1.28928">
        <ele>173.4</ele>
        <time>2024-07-11T06:32:08Z</time>
      </trkpt>
      <trkpt lat="43.56482" lon="1.28923">
        <ele>173.4</ele>
        <time>2024-07-11T06:32:09Z</time>
      </trkpt>
      <trkpt lat="43.56484" lon="1.28918">
        <ele>173.6</ele>
        <time>2024-07-11T06:32:10Z</time>
      </trkpt>
      <trkpt lat="43.56487" lon="1.28912">
        <ele>173.6</ele>
        <time>2024-07-11T06:32:11Z</time>
      </trkpt>
      <trkpt lat="43.56489" lon="1.28908">
        <ele>173.6</ele>
        <time>2024-07-11T06:32:12Z</time>
      </trkpt>
      <trkpt lat="43.56492" lon="1.28903">
        <ele>173.6</ele>
        <time>2024-07-11T06:32:13Z</time>
      </trkpt>
      <trkpt lat="43.56494" lon="1.28899">
        <ele>173.6</ele>
        <time>2024-07-11T06:32:14Z</time>
      </trkpt>
      <trkpt lat="43.56498" lon="1.28896">
        <ele>173.6</ele>
        <time>2024-07-11T06:32:15Z</time>
      </trkpt>
      <trkpt lat="43.56502" lon="1.28893">
        <ele>173.6</ele>
        <time>2024-07-11T06:32:16Z</time>
      </trkpt>
      <trkpt lat="43.56506" lon="1.28893">
        <ele>173.6</ele>
        <time>2024-07-11T06:32:17Z</time>
      </trkpt>
      <trkpt lat="43.5651" lon="1.28893">
        <ele>173.6</ele>
        <time>2024-07-11T06:32:18Z</time>
      </trkpt>
      <trkpt lat="43.56514" lon="1.28896">
        <ele>173.8</ele>
        <time>2024-07-11T06:32:19Z</time>
      </trkpt>
      <trkpt lat="43.56518" lon="1.289">
        <ele>173.8</ele>
        <time>2024-07-11T06:32:20Z</time>
      </trkpt>
      <trkpt lat="43.56521" lon="1.28905">
        <ele>173.8</ele>
        <time>2024-07-11T06:32:21Z</time>
      </trkpt>
      <trkpt lat="43.56524" lon="1.28909">
        <ele>173.8</ele>
        <time>2024-07-11T06:32:22Z</time>
      </trkpt>
      <trkpt lat="43.56527" lon="1.28914">
        <ele>173.8</ele>
        <time>2024-07-11T06:32:23Z</time>
      </trkpt>
      <trkpt lat="43.56531" lon="1.2892">
        <ele>173.8</ele>
        <time>2024-07-11T06:32:24Z</time>
      </trkpt>
      <trkpt lat="43.56535" lon="1.28926">
        <ele>173.8</ele>
        <time>2024-07-11T06:32:25Z</time>
      </trkpt>
      <trkpt lat="43.56537" lon="1.2893">
        <ele>173.8</ele>
        <time>2024-07-11T06:32:26Z</time>
      </trkpt>
      <trkpt lat="43.56541" lon="1.28936">
        <ele>173.8</ele>
        <time>2024-07-11T06:32:27Z</time>
      </trkpt>
      <trkpt lat="43.56545" lon="1.28942">
        <ele>173.8</ele>
        <time>2024-07-11T06:32:28Z</time>
      </trkpt>
      <trkpt lat="43.56549" lon="1.28948">
        <ele>173.8</ele>
        <time>2024-07-11T06:32:29Z</time>
      </trkpt>
      <trkpt lat="43.56553" lon="1.28954">
        <ele>173.8</ele>
        <time>2024-07-11T06:32:30Z</time>
      </trkpt>
      <trkpt lat="43.56556" lon="1.2896">
        <ele>173.8</ele>
        <time>2024-07-11T06:32:31Z</time>
      </trkpt>
      <trkpt lat="43.56559" lon="1.28964">
        <ele>173.8</ele>
        <time>2024-07-11T06:32:32Z</time>
      </trkpt>
      <trkpt lat="43.56563" lon="1.2897">
        <ele>173.8</ele>
        <time>2024-07-11T06:32:33Z</time>
      </trkpt>
      <trkpt lat="43.56568" lon="1.28977">
        <ele>173.8</ele>
        <time>2024-07-11T06:32:34Z</time>
      </trkpt>
      <trkpt lat="43.56572" lon="1.28983">
        <ele>173.8</ele>
        <time>2024-07-11T06:32:35Z</time>
      </trkpt>
      <trkpt lat="43.56576" lon="1.28989">
        <ele>174</ele>
        <time>2024-07-11T06:32:36Z</time>
      </trkpt>
      <trkpt lat="43.56579" lon="1.28994">
        <ele>174</ele>
        <time>2024-07-11T06:32:37Z</time>
      </trkpt>
      <trkpt lat="43.56583" lon="1.29">
        <ele>174</ele>
        <time>2024-07-11T06:32:38Z</time>
      </trkpt>
      <trkpt lat="43.56588" lon="1.29008">
        <ele>174</ele>
        <time>2024-07-11T06:32:39Z</time>
      </trkpt>
      <trkpt lat="43.56592" lon="1.29014">
        <ele>174</ele>
        <time>2024-07-11T06:32:40Z</time>
      </trkpt>
      <trkpt lat="43.56596" lon="1.2902">
        <ele>174.2</ele>
        <time>2024-07-11T06:32:41Z</time>
      </trkpt>
      <trkpt lat="43.56599" lon="1.29025">
        <ele>174.2</ele>
        <time>2024-07-11T06:32:42Z</time>
      </trkpt>
      <trkpt lat="43.56603" lon="1.29031">
        <ele>174.2</ele>
        <time>2024-07-11T06:32:43Z</time>
      </trkpt>
      <trkpt lat="43.56607" lon="1.29037">
        <ele>174.4</ele>
        <time>2024-07-11T06:32:44Z</time>
      </trkpt>
      <trkpt lat="43.56612" lon="1.29045">
        <ele>174.4</ele>
        <time>2024-07-11T06:32:45Z</time>
      </trkpt>
      <trkpt lat="43.56615" lon="1.2905">
        <ele>174.4</ele>
        <time>2024-07-11T06:32:46Z</time>
      </trkpt>
      <trkpt lat="43.56619" lon="1.29056">
        <ele>174.4</ele>
        <time>2024-07-11T06:32:47Z</time>
      </trkpt>
      <trkpt lat="43.56623" lon="1.29062">
        <ele>174.4</ele>
        <time>2024-07-11T06:32:48Z</time>
      </trkpt>
      <trkpt lat="43.56628" lon="1.29069">
        <ele>174.4</ele>
        <time>2024-07-11T06:32:49Z</time>
      </trkpt>
      <trkpt lat="43.56632" lon="1.29075">
        <ele>174.6</ele>
        <time>2024-07-11T06:32:50Z</time>
      </trkpt>
      <trkpt lat="43.56635" lon="1.29079">
        <ele>174.6</ele>
        <time>2024-07-11T06:32:51Z</time>
      </trkpt>
      <trkpt lat="43.5664" lon="1.29085">
        <ele>174.6</ele>
        <time>2024-07-11T06:32:52Z</time>
      </trkpt>
      <trkpt lat="43.56645" lon="1.29092">
        <ele>174.6</ele>
        <time>2024-07-11T06:32:53Z</time>
      </trkpt>
      <trkpt lat="43.56649" lon="1.29097">
        <ele>174.6</ele>
        <time>2024-07-11T06:32:54Z</time>
      </trkpt>
      <trkpt lat="43.56652" lon="1.29102">
        <ele>174.6</ele>
        <time>2024-07-11T06:32:55Z</time>
      </trkpt>
      <trkpt lat="43.56654" lon="1.29106">
        <ele>174.8</ele>
        <time>2024-07-11T06:32:56Z</time>
      </trkpt>
      <trkpt lat="43.56657" lon="1.2911">
        <ele>174.8</ele>
        <time>2024-07-11T06:32:57Z</time>
      </trkpt>
      <trkpt lat="43.56659" lon="1.29113">
        <ele>174.8</ele>
        <time>2024-07-11T06:32:58Z</time>
      </trkpt>
      <trkpt lat="43.56659" lon="1.29115">
        <ele>174.8</ele>
        <time>2024-07-11T06:32:59Z</time>
      </trkpt>
      <trkpt lat="43.5666" lon="1.29117">
        <ele>174.8</ele>
        <time>2024-07-11T06:33:00Z</time>
      </trkpt>
      <trkpt lat="43.56662" lon="1.29119">
        <ele>175</ele>
        <time>2024-07-11T06:33:01Z</time>
      </trkpt>
      <trkpt lat="43.56663" lon="1.2912">
        <ele>175</ele>
        <time>2024-07-11T06:33:02Z</time>
      </trkpt>
      <trkpt lat="43.56667" lon="1.29121">
        <ele>175</ele>
        <time>2024-07-11T06:33:03Z</time>
      </trkpt>
      <trkpt lat="43.5667" lon="1.29119">
        <ele>175</ele>
        <time>2024-07-11T06:33:04Z</time>
      </trkpt>
      <trkpt lat="43.56672" lon="1.29118">
        <ele>175</ele>
        <time>2024-07-11T06:33:05Z</time>
      </trkpt>
      <trkpt lat="43.56675" lon="1.29115">
        <ele>175</ele>
        <time>2024-07-11T06:33:06Z</time>
      </trkpt>
      <trkpt lat="43.56678" lon="1.29113">
        <ele>175</ele>
        <time>2024-07-11T06:33:07Z</time>
      </trkpt>
      <trkpt lat="43.56681" lon="1.2911">
        <ele>175</ele>
        <time>2024-07-11T06:33:08Z</time>
      </trkpt>
      <trkpt lat="43.56684" lon="1.29107">
        <ele>175</ele>
        <time>2024-07-11T06:33:09Z</time>
      </trkpt>
      <trkpt lat="43.56686" lon="1.29104">
        <ele>175</ele>
        <time>2024-07-11T06:33:10Z</time>
      </trkpt>
      <trkpt lat="43.56689" lon="1.291">
        <ele>175</ele>
        <time>2024-07-11T06:33:11Z</time>
      </trkpt>
      <trkpt lat="43.56693" lon="1.29097">
        <ele>175</ele>
        <time>2024-07-11T06:33:12Z</time>
      </trkpt>
      <trkpt lat="43.56696" lon="1.29093">
        <ele>175</ele>
        <time>2024-07-11T06:33:13Z</time>
      </trkpt>
      <trkpt lat="43.567" lon="1.29088">
        <ele>175</ele>
        <time>2024-07-11T06:33:14Z</time>
      </trkpt>
      <trkpt lat="43.56703" lon="1.29085">
        <ele>175</ele>
        <time>2024-07-11T06:33:15Z</time>
      </trkpt>
      <trkpt lat="43.56706" lon="1.29082">
        <ele>175</ele>
        <time>2024-07-11T06:33:16Z</time>
      </trkpt>
      <trkpt lat="43.5671" lon="1.29078">
        <ele>175.2</ele>
        <time>2024-07-11T06:33:17Z</time>
      </trkpt>
      <trkpt lat="43.56713" lon="1.29074">
        <ele>175.2</ele>
        <time>2024-07-11T06:33:18Z</time>
      </trkpt>
      <trkpt lat="43.56717" lon="1.29069">
        <ele>175.4</ele>
        <time>2024-07-11T06:33:19Z</time>
      </trkpt>
      <trkpt lat="43.5672" lon="1.29066">
        <ele>175.4</ele>
        <time>2024-07-11T06:33:20Z</time>
      </trkpt>
      <trkpt lat="43.56723" lon="1.29063">
        <ele>175.6</ele>
        <time>2024-07-11T06:33:21Z</time>
      </trkpt>
      <trkpt lat="43.56726" lon="1.29059">
        <ele>175.6</ele>
        <time>2024-07-11T06:33:22Z</time>
      </trkpt>
      <trkpt lat="43.56729" lon="1.29056">
        <ele>175.6</ele>
        <time>2024-07-11T06:33:23Z</time>
      </trkpt>
      <trkpt lat="43.56731" lon="1.29053">
        <ele>175.8</ele>
        <time>2024-07-11T06:33:24Z</time>
      </trkpt>
      <trkpt lat="43.56732" lon="1.29052">
        <ele>175.8</ele>
        <time>2024-07-11T06:33:25Z</time>
      </trkpt>
      <trkpt lat="43.56733" lon="1.2905">
        <ele>175.8</ele>
        <time>2024-07-11T06:33:26Z</time>
      </trkpt>
      <trkpt lat="43.56735" lon="1.29049">
        <ele>176</ele>
        <time>2024-07-11T06:33:27Z</time>
      </trkpt>
      <trkpt lat="43.56735" lon="1.29048">
        <ele>176.2</ele>
        <time>2024-07-11T06:33:28Z</time>
      </trkpt>
      <trkpt lat="43.56736" lon="1.29048">
        <ele>176.2</ele>
        <time>2024-07-11T06:33:29Z</time>
      </trkpt>
      <trkpt lat="43.56736" lon="1.29047">
        <ele>176.4</ele>
        <time>2024-07-11T06:33:30Z</time>
      </trkpt>
      <trkpt lat="43.56736" lon="1.29047">
        <ele>176.4</ele>
        <time>2024-07-11T06:33:31Z</time>
      </trkpt>
      <trkpt lat="43.56737" lon="1.29047">
        <ele>176.6</ele>
        <time>2024-07-11T06:33:32Z</time>
      </trkpt>
      <trkpt lat="43.56737" lon="1.29046">
        <ele>176.6</ele>
        <time>2024-07-11T06:33:33Z</time>
      </trkpt>
      <trkpt lat="43.56738" lon="1.29046">
        <ele>176.6</ele>
        <time>2024-07-11T06:33:34Z</time>
      </trkpt>
      <trkpt lat="43.56738" lon="1.29046">
        <ele>176.6</ele>
        <time>2024-07-11T06:33:35Z</time>
      </trkpt>
      <trkpt lat="43.56738" lon="1.29046">
        <ele>176.8</ele>
        <time>2024-07-11T06:33:36Z</time>
      </trkpt>
      <trkpt lat="43.56738" lon="1.29046">
        <ele>176.8</ele>
        <time>2024-07-11T06:33:37Z</time>
      </trkpt>
      <trkpt lat="43.56738" lon="1.29046">
        <ele>176.8</ele>
        <time>2024-07-11T06:33:38Z</time>
      </trkpt>
      <trkpt lat="43.56738" lon="1.29046">
        <ele>176.8</ele>
        <time>2024-07-11T06:33:39Z</time>
      </trkpt>
      <trkpt lat="43.56738" lon="1.29046">
        <ele>176.8</ele>
        <time>2024-07-11T06:33:40Z</time>
      </trkpt>
      <trkpt lat="43.56738" lon="1.29046">
        <ele>176.8</ele>
        <time>2024-07-11T06:33:41Z</time>
      </trkpt>
      <trkpt lat="43.56738" lon="1.29046">
        <ele>176.8</ele>
        <time>2024-07-11T06:33:42Z</time>
      </trkpt>
      <trkpt lat="43.56738" lon="1.29046">
        <ele>176.8</ele>
        <time>2024-07-11T06:33:43Z</time>
      </trkpt>
      <trkpt lat="43.5674" lon="1.29044">
        <ele>176.6</ele>
        <time>2024-07-11T06:33:59Z</time>
      </trkpt>
      <trkpt lat="43.56743" lon="1.29041">
        <ele>176.6</ele>
        <time>2024-07-11T06:34:00Z</time>
      </trkpt>
      <trkpt lat="43.56746" lon="1.29038">
        <ele>176.6</ele>
        <time>2024-07-11T06:34:01Z</time>
      </trkpt>
      <trkpt lat="43.56749" lon="1.29036">
        <ele>176.6</ele>
        <time>2024-07-11T06:34:02Z</time>
      </trkpt>
      <trkpt lat="43.56752" lon="1.29033">
        <ele>176.6</ele>
        <time>2024-07-11T06:34:03Z</time>
      </trkpt>
      <trkpt lat="43.56755" lon="1.29029">
        <ele>176.6</ele>
        <time>2024-07-11T06:34:04Z</time>
      </trkpt>
      <trkpt lat="43.56759" lon="1.29024">
        <ele>176.6</ele>
        <time>2024-07-11T06:34:05Z</time>
      </trkpt>
      <trkpt lat="43.56762" lon="1.29019">
        <ele>176.6</ele>
        <time>2024-07-11T06:34:06Z</time>
      </trkpt>
      <trkpt lat="43.56766" lon="1.29015">
        <ele>176.6</ele>
        <time>2024-07-11T06:34:07Z</time>
      </trkpt>
      <trkpt lat="43.56769" lon="1.29011">
        <ele>176.6</ele>
        <time>2024-07-11T06:34:08Z</time>
      </trkpt>
      <trkpt lat="43.56773" lon="1.29006">
        <ele>176.8</ele>
        <time>2024-07-11T06:34:09Z</time>
      </trkpt>
      <trkpt lat="43.56776" lon="1.29001">
        <ele>176.8</ele>
        <time>2024-07-11T06:34:10Z</time>
      </trkpt>
      <trkpt lat="43.56781" lon="1.28996">
        <ele>176.8</ele>
        <time>2024-07-11T06:34:11Z</time>
      </trkpt>
      <trkpt lat="43.56784" lon="1.28992">
        <ele>176.8</ele>
        <time>2024-07-11T06:34:12Z</time>
      </trkpt>
      <trkpt lat="43.56788" lon="1.28987">
        <ele>176.8</ele>
        <time>2024-07-11T06:34:13Z</time>
      </trkpt>
      <trkpt lat="43.56792" lon="1.28982">
        <ele>177</ele>
        <time>2024-07-11T06:34:14Z</time>
      </trkpt>
      <trkpt lat="43.56795" lon="1.28978">
        <ele>177</ele>
        <time>2024-07-11T06:34:15Z</time>
      </trkpt>
      <trkpt lat="43.56799" lon="1.28972">
        <ele>177.2</ele>
        <time>2024-07-11T06:34:16Z</time>
      </trkpt>
      <trkpt lat="43.56803" lon="1.28968">
        <ele>177.4</ele>
        <time>2024-07-11T06:34:17Z</time>
      </trkpt>
      <trkpt lat="43.56807" lon="1.28964">
        <ele>177.4</ele>
        <time>2024-07-11T06:34:18Z</time>
      </trkpt>
      <trkpt lat="43.56811" lon="1.28958">
        <ele>177.6</ele>
        <time>2024-07-11T06:34:19Z</time>
      </trkpt>
      <trkpt lat="43.56815" lon="1.28953">
        <ele>177.6</ele>
        <time>2024-07-11T06:34:20Z</time>
      </trkpt>
      <trkpt lat="43.56819" lon="1.28948">
        <ele>178</ele>
        <time>2024-07-11T06:34:21Z</time>
      </trkpt>
      <trkpt lat="43.56822" lon="1.28945">
        <ele>178.4</ele>
        <time>2024-07-11T06:34:22Z</time>
      </trkpt>
      <trkpt lat="43.56826" lon="1.2894">
        <ele>178.4</ele>
        <time>2024-07-11T06:34:23Z</time>
      </trkpt>
      <trkpt lat="43.56831" lon="1.28934">
        <ele>178.8</ele>
        <time>2024-07-11T06:34:24Z</time>
      </trkpt>
      <trkpt lat="43.56835" lon="1.28929">
        <ele>179</ele>
        <time>2024-07-11T06:34:25Z</time>
      </trkpt>
      <trkpt lat="43.56838" lon="1.28926">
        <ele>179.2</ele>
        <time>2024-07-11T06:34:26Z</time>
      </trkpt>
      <trkpt lat="43.56842" lon="1.28921">
        <ele>179.4</ele>
        <time>2024-07-11T06:34:27Z</time>
      </trkpt>
      <trkpt lat="43.56845" lon="1.28916">
        <ele>179.6</ele>
        <time>2024-07-11T06:34:28Z</time>
      </trkpt>
      <trkpt lat="43.5685" lon="1.2891">
        <ele>179.8</ele>
        <time>2024-07-11T06:34:29Z</time>
      </trkpt>
      <trkpt lat="43.56854" lon="1.28905">
        <ele>180</ele>
        <time>2024-07-11T06:34:30Z</time>
      </trkpt>
      <trkpt lat="43.56857" lon="1.28901">
        <ele>180.2</ele>
        <time>2024-07-11T06:34:31Z</time>
      </trkpt>
      <trkpt lat="43.5686" lon="1.28896">
        <ele>180.4</ele>
        <time>2024-07-11T06:34:32Z</time>
      </trkpt>
      <trkpt lat="43.56864" lon="1.2889">
        <ele>180.6</ele>
        <time>2024-07-11T06:34:33Z</time>
      </trkpt>
      <trkpt lat="43.56868" lon="1.28885">
        <ele>180.8</ele>
        <time>2024-07-11T06:34:34Z</time>
      </trkpt>
      <trkpt lat="43.56872" lon="1.28881">
        <ele>181</ele>
        <time>2024-07-11T06:34:35Z</time>
      </trkpt>
      <trkpt lat="43.56874" lon="1.28877">
        <ele>181.2</ele>
        <time>2024-07-11T06:34:36Z</time>
      </trkpt>
      <trkpt lat="43.56878" lon="1.28872">
        <ele>181.4</ele>
        <time>2024-07-11T06:34:37Z</time>
      </trkpt>
      <trkpt lat="43.56882" lon="1.28866">
        <ele>181.6</ele>
        <time>2024-07-11T06:34:38Z</time>
      </trkpt>
      <trkpt lat="43.56885" lon="1.28861">
        <ele>181.6</ele>
        <time>2024-07-11T06:34:39Z</time>
      </trkpt>
      <trkpt lat="43.56889" lon="1.28855">
        <ele>181.8</ele>
        <time>2024-07-11T06:34:40Z</time>
      </trkpt>
      <trkpt lat="43.56891" lon="1.28851">
        <ele>182</ele>
        <time>2024-07-11T06:34:41Z</time>
      </trkpt>
      <trkpt lat="43.56895" lon="1.28847">
        <ele>182.2</ele>
        <time>2024-07-11T06:34:42Z</time>
      </trkpt>
      <trkpt lat="43.56899" lon="1.28841">
        <ele>182.6</ele>
        <time>2024-07-11T06:34:43Z</time>
      </trkpt>
      <trkpt lat="43.56902" lon="1.28836">
        <ele>182.8</ele>
        <time>2024-07-11T06:34:44Z</time>
      </trkpt>
      <trkpt lat="43.56906" lon="1.28831">
        <ele>183</ele>
        <time>2024-07-11T06:34:45Z</time>
      </trkpt>
      <trkpt lat="43.56908" lon="1.28827">
        <ele>183</ele>
        <time>2024-07-11T06:34:46Z</time>
      </trkpt>
      <trkpt lat="43.56911" lon="1.28821">
        <ele>183.2</ele>
        <time>2024-07-11T06:34:47Z</time>
      </trkpt>
      <trkpt lat="43.56914" lon="1.28816">
        <ele>183.6</ele>
        <time>2024-07-11T06:34:48Z</time>
      </trkpt>
      <trkpt lat="43.56918" lon="1.28809">
        <ele>184</ele>
        <time>2024-07-11T06:34:49Z</time>
      </trkpt>
      <trkpt lat="43.56921" lon="1.28805">
        <ele>184.2</ele>
        <time>2024-07-11T06:34:50Z</time>
      </trkpt>
      <trkpt lat="43.56924" lon="1.288">
        <ele>184.2</ele>
        <time>2024-07-11T06:34:51Z</time>
      </trkpt>
      <trkpt lat="43.56927" lon="1.28794">
        <ele>184.4</ele>
        <time>2024-07-11T06:34:52Z</time>
      </trkpt>
      <trkpt lat="43.56931" lon="1.28788">
        <ele>184.6</ele>
        <time>2024-07-11T06:34:53Z</time>
      </trkpt>
      <trkpt lat="43.56934" lon="1.28783">
        <ele>184.8</ele>
        <time>2024-07-11T06:34:54Z</time>
      </trkpt>
      <trkpt lat="43.56937" lon="1.28779">
        <ele>185.2</ele>
        <time>2024-07-11T06:34:55Z</time>
      </trkpt>
      <trkpt lat="43.5694" lon="1.28774">
        <ele>185.4</ele>
        <time>2024-07-11T06:34:56Z</time>
      </trkpt>
      <trkpt lat="43.56944" lon="1.2877">
        <ele>185.6</ele>
        <time>2024-07-11T06:34:57Z</time>
      </trkpt>
      <trkpt lat="43.56948" lon="1.28765">
        <ele>185.8</ele>
        <time>2024-07-11T06:34:58Z</time>
      </trkpt>
      <trkpt lat="43.56952" lon="1.28761">
        <ele>186</ele>
        <time>2024-07-11T06:34:59Z</time>
      </trkpt>
      <trkpt lat="43.56955" lon="1.28758">
        <ele>186.2</ele>
        <time>2024-07-11T06:35:00Z</time>
      </trkpt>
      <trkpt lat="43.56959" lon="1.28753">
        <ele>186.8</ele>
        <time>2024-07-11T06:35:01Z</time>
      </trkpt>
      <trkpt lat="43.56963" lon="1.28748">
        <ele>186.8</ele>
        <time>2024-07-11T06:35:02Z</time>
      </trkpt>
      <trkpt lat="43.56966" lon="1.28744">
        <ele>187</ele>
        <time>2024-07-11T06:35:03Z</time>
      </trkpt>
      <trkpt lat="43.5697" lon="1.2874">
        <ele>187.6</ele>
        <time>2024-07-11T06:35:04Z</time>
      </trkpt>
      <trkpt lat="43.56974" lon="1.28738">
        <ele>187.8</ele>
        <time>2024-07-11T06:35:05Z</time>
      </trkpt>
      <trkpt lat="43.56978" lon="1.28734">
        <ele>188</ele>
        <time>2024-07-11T06:35:06Z</time>
      </trkpt>
      <trkpt lat="43.56981" lon="1.2873">
        <ele>188.2</ele>
        <time>2024-07-11T06:35:07Z</time>
      </trkpt>
      <trkpt lat="43.56986" lon="1.28725">
        <ele>188.4</ele>
        <time>2024-07-11T06:35:08Z</time>
      </trkpt>
      <trkpt lat="43.56989" lon="1.28722">
        <ele>189</ele>
        <time>2024-07-11T06:35:09Z</time>
      </trkpt>
      <trkpt lat="43.56993" lon="1.28718">
        <ele>189.2</ele>
        <time>2024-07-11T06:35:10Z</time>
      </trkpt>
      <trkpt lat="43.56997" lon="1.28714">
        <ele>189.6</ele>
        <time>2024-07-11T06:35:11Z</time>
      </trkpt>
      <trkpt lat="43.57" lon="1.2871">
        <ele>189.8</ele>
        <time>2024-07-11T06:35:12Z</time>
      </trkpt>
      <trkpt lat="43.57004" lon="1.28706">
        <ele>190.2</ele>
        <time>2024-07-11T06:35:13Z</time>
      </trkpt>
      <trkpt lat="43.57008" lon="1.28702">
        <ele>190.4</ele>
        <time>2024-07-11T06:35:14Z</time>
      </trkpt>
      <trkpt lat="43.57012" lon="1.28699">
        <ele>190.8</ele>
        <time>2024-07-11T06:35:15Z</time>
      </trkpt>
      <trkpt lat="43.57016" lon="1.28695">
        <ele>191</ele>
        <time>2024-07-11T06:35:16Z</time>
      </trkpt>
      <trkpt lat="43.5702" lon="1.2869">
        <ele>191</ele>
        <time>2024-07-11T06:35:17Z</time>
      </trkpt>
      <trkpt lat="43.57024" lon="1.28686">
        <ele>191.2</ele>
        <time>2024-07-11T06:35:18Z</time>
      </trkpt>
      <trkpt lat="43.57028" lon="1.28683">
        <ele>191.4</ele>
        <time>2024-07-11T06:35:19Z</time>
      </trkpt>
      <trkpt lat="43.57032" lon="1.28678">
        <ele>191.6</ele>
        <time>2024-07-11T06:35:20Z</time>
      </trkpt>
      <trkpt lat="43.57036" lon="1.28673">
        <ele>191.8</ele>
        <time>2024-07-11T06:35:21Z</time>
      </trkpt>
      <trkpt lat="43.5704" lon="1.28669">
        <ele>192.2</ele>
        <time>2024-07-11T06:35:22Z</time>
      </trkpt>
      <trkpt lat="43.57044" lon="1.28665">
        <ele>192.6</ele>
        <time>2024-07-11T06:35:23Z</time>
      </trkpt>
      <trkpt lat="43.57047" lon="1.28662">
        <ele>192.6</ele>
        <time>2024-07-11T06:35:24Z</time>
      </trkpt>
      <trkpt lat="43.57051" lon="1.28658">
        <ele>192.8</ele>
        <time>2024-07-11T06:35:25Z</time>
      </trkpt>
      <trkpt lat="43.57056" lon="1.28653">
        <ele>192.8</ele>
        <time>2024-07-11T06:35:26Z</time>
      </trkpt>
      <trkpt lat="43.5706" lon="1.28649">
        <ele>193.2</ele>
        <time>2024-07-11T06:35:27Z</time>
      </trkpt>
      <trkpt lat="43.57064" lon="1.28645">
        <ele>193.4</ele>
        <time>2024-07-11T06:35:28Z</time>
      </trkpt>
      <trkpt lat="43.57067" lon="1.28642">
        <ele>193.6</ele>
        <time>2024-07-11T06:35:29Z</time>
      </trkpt>
      <trkpt lat="43.57071" lon="1.28638">
        <ele>194</ele>
        <time>2024-07-11T06:35:30Z</time>
      </trkpt>
      <trkpt lat="43.57076" lon="1.28633">
        <ele>194.2</ele>
        <time>2024-07-11T06:35:31Z</time>
      </trkpt>
      <trkpt lat="43.5708" lon="1.28628">
        <ele>194.4</ele>
        <time>2024-07-11T06:35:32Z</time>
      </trkpt>
      <trkpt lat="43.57083" lon="1.28625">
        <ele>194.6</ele>
        <time>2024-07-11T06:35:33Z</time>
      </trkpt>
      <trkpt lat="43.57087" lon="1.28621">
        <ele>194.8</ele>
        <time>2024-07-11T06:35:34Z</time>
      </trkpt>
      <trkpt lat="43.57091" lon="1.28617">
        <ele>195</ele>
        <time>2024-07-11T06:35:35Z</time>
      </trkpt>
      <trkpt lat="43.57096" lon="1.28613">
        <ele>195.2</ele>
        <time>2024-07-11T06:35:36Z</time>
      </trkpt>
      <trkpt lat="43.57101" lon="1.28608">
        <ele>195.4</ele>
        <time>2024-07-11T06:35:37Z</time>
      </trkpt>
      <trkpt lat="43.57104" lon="1.28604">
        <ele>195.4</ele>
        <time>2024-07-11T06:35:38Z</time>
      </trkpt>
      <trkpt lat="43.57108" lon="1.28599">
        <ele>195.8</ele>
        <time>2024-07-11T06:35:39Z</time>
      </trkpt>
      <trkpt lat="43.57113" lon="1.28594">
        <ele>196</ele>
        <time>2024-07-11T06:35:40Z</time>
      </trkpt>
      <trkpt lat="43.57117" lon="1.2859">
        <ele>196.2</ele>
        <time>2024-07-11T06:35:41Z</time>
      </trkpt>
      <trkpt lat="43.57121" lon="1.28586">
        <ele>196.2</ele>
        <time>2024-07-11T06:35:42Z</time>
      </trkpt>
      <trkpt lat="43.57125" lon="1.28581">
        <ele>196.4</ele>
        <time>2024-07-11T06:35:43Z</time>
      </trkpt>
      <trkpt lat="43.5713" lon="1.28576">
        <ele>196.4</ele>
        <time>2024-07-11T06:35:44Z</time>
      </trkpt>
      <trkpt lat="43.57135" lon="1.28571">
        <ele>196.4</ele>
        <time>2024-07-11T06:35:45Z</time>
      </trkpt>
      <trkpt lat="43.5714" lon="1.28565">
        <ele>196.4</ele>
        <time>2024-07-11T06:35:46Z</time>
      </trkpt>
      <trkpt lat="43.57144" lon="1.2856">
        <ele>196.6</ele>
        <time>2024-07-11T06:35:47Z</time>
      </trkpt>
      <trkpt lat="43.57148" lon="1.28556">
        <ele>196.6</ele>
        <time>2024-07-11T06:35:48Z</time>
      </trkpt>
      <trkpt lat="43.57153" lon="1.28551">
        <ele>196.6</ele>
        <time>2024-07-11T06:35:49Z</time>
      </trkpt>
      <trkpt lat="43.57158" lon="1.28545">
        <ele>196.8</ele>
        <time>2024-07-11T06:35:50Z</time>
      </trkpt>
      <trkpt lat="43.57163" lon="1.2854">
        <ele>196.8</ele>
        <time>2024-07-11T06:35:51Z</time>
      </trkpt>
      <trkpt lat="43.57167" lon="1.28536">
        <ele>196.8</ele>
        <time>2024-07-11T06:35:52Z</time>
      </trkpt>
      <trkpt lat="43.57171" lon="1.28531">
        <ele>196.8</ele>
        <time>2024-07-11T06:35:53Z</time>
      </trkpt>
      <trkpt lat="43.57177" lon="1.28525">
        <ele>197</ele>
        <time>2024-07-11T06:35:54Z</time>
      </trkpt>
      <trkpt lat="43.57182" lon="1.2852">
        <ele>197</ele>
        <time>2024-07-11T06:35:55Z</time>
      </trkpt>
      <trkpt lat="43.57186" lon="1.28515">
        <ele>197</ele>
        <time>2024-07-11T06:35:56Z</time>
      </trkpt>
      <trkpt lat="43.5719" lon="1.28511">
        <ele>197.2</ele>
        <time>2024-07-11T06:35:57Z</time>
      </trkpt>
      <trkpt lat="43.57195" lon="1.28505">
        <ele>197.2</ele>
        <time>2024-07-11T06:35:58Z</time>
      </trkpt>
      <trkpt lat="43.57201" lon="1.28499">
        <ele>197.2</ele>
        <time>2024-07-11T06:35:59Z</time>
      </trkpt>
      <trkpt lat="43.57206" lon="1.28493">
        <ele>197.2</ele>
        <time>2024-07-11T06:36:00Z</time>
      </trkpt>
      <trkpt lat="43.57211" lon="1.28488">
        <ele>197.2</ele>
        <time>2024-07-11T06:36:01Z</time>
      </trkpt>
      <trkpt lat="43.57215" lon="1.28484">
        <ele>197.2</ele>
        <time>2024-07-11T06:36:02Z</time>
      </trkpt>
      <trkpt lat="43.57221" lon="1.28477">
        <ele>197.2</ele>
        <time>2024-07-11T06:36:03Z</time>
      </trkpt>
      <trkpt lat="43.57226" lon="1.28472">
        <ele>197.2</ele>
        <time>2024-07-11T06:36:04Z</time>
      </trkpt>
      <trkpt lat="43.57226" lon="1.28472">
        <ele>197.2</ele>
        <time>2024-07-11T06:36:05Z</time>
      </trkpt>
      <trkpt lat="43.57235" lon="1.28461">
        <ele>197.2</ele>
        <time>2024-07-11T06:36:06Z</time>
      </trkpt>
      <trkpt lat="43.5724" lon="1.28456">
        <ele>197.2</ele>
        <time>2024-07-11T06:36:07Z</time>
      </trkpt>
      <trkpt lat="43.57245" lon="1.2845">
        <ele>197.2</ele>
        <time>2024-07-11T06:36:08Z</time>
      </trkpt>
      <trkpt lat="43.5725" lon="1.28445">
        <ele>197.2</ele>
        <time>2024-07-11T06:36:09Z</time>
      </trkpt>
      <trkpt lat="43.57256" lon="1.2844">
        <ele>197.4</ele>
        <time>2024-07-11T06:36:10Z</time>
      </trkpt>
      <trkpt lat="43.57261" lon="1.28436">
        <ele>197.4</ele>
        <time>2024-07-11T06:36:11Z</time>
      </trkpt>
      <trkpt lat="43.57267" lon="1.28432">
        <ele>197.4</ele>
        <time>2024-07-11T06:36:12Z</time>
      </trkpt>
      <trkpt lat="43.57267" lon="1.28432">
        <ele>197.4</ele>
        <time>2024-07-11T06:36:13Z</time>
      </trkpt>
      <trkpt lat="43.57279" lon="1.28422">
        <ele>197.4</ele>
        <time>2024-07-11T06:36:14Z</time>
      </trkpt>
      <trkpt lat="43.57285" lon="1.28419">
        <ele>197.4</ele>
        <time>2024-07-11T06:36:15Z</time>
      </trkpt>
      <trkpt lat="43.57291" lon="1.28416">
        <ele>197.4</ele>
        <time>2024-07-11T06:36:16Z</time>
      </trkpt>
      <trkpt lat="43.57298" lon="1.28414">
        <ele>197.4</ele>
        <time>2024-07-11T06:36:17Z</time>
      </trkpt>
      <trkpt lat="43.57304" lon="1.28412">
        <ele>197.6</ele>
        <time>2024-07-11T06:36:18Z</time>
      </trkpt>
      <trkpt lat="43.5731" lon="1.28412">
        <ele>197.6</ele>
        <time>2024-07-11T06:36:19Z</time>
      </trkpt>
      <trkpt lat="43.57316" lon="1.28414">
        <ele>197.6</ele>
        <time>2024-07-11T06:36:20Z</time>
      </trkpt>
      <trkpt lat="43.57322" lon="1.28417">
        <ele>197.6</ele>
        <time>2024-07-11T06:36:21Z</time>
      </trkpt>
      <trkpt lat="43.57327" lon="1.28421">
        <ele>197.6</ele>
        <time>2024-07-11T06:36:22Z</time>
      </trkpt>
      <trkpt lat="43.57333" lon="1.28424">
        <ele>197.8</ele>
        <time>2024-07-11T06:36:23Z</time>
      </trkpt>
      <trkpt lat="43.57339" lon="1.28424">
        <ele>197.8</ele>
        <time>2024-07-11T06:36:24Z</time>
      </trkpt>
      <trkpt lat="43.57345" lon="1.28421">
        <ele>197.8</ele>
        <time>2024-07-11T06:36:25Z</time>
      </trkpt>
      <trkpt lat="43.57348" lon="1.28414">
        <ele>197.8</ele>
        <time>2024-07-11T06:36:26Z</time>
      </trkpt>
      <trkpt lat="43.57351" lon="1.28407">
        <ele>197.8</ele>
        <time>2024-07-11T06:36:27Z</time>
      </trkpt>
      <trkpt lat="43.57354" lon="1.28401">
        <ele>197.8</ele>
        <time>2024-07-11T06:36:28Z</time>
      </trkpt>
      <trkpt lat="43.57358" lon="1.28394">
        <ele>197.8</ele>
        <time>2024-07-11T06:36:29Z</time>
      </trkpt>
      <trkpt lat="43.57362" lon="1.28388">
        <ele>197.8</ele>
        <time>2024-07-11T06:36:30Z</time>
      </trkpt>
      <trkpt lat="43.57366" lon="1.28381">
        <ele>197.8</ele>
        <time>2024-07-11T06:36:31Z</time>
      </trkpt>
      <trkpt lat="43.5737" lon="1.28374">
        <ele>197.8</ele>
        <time>2024-07-11T06:36:32Z</time>
      </trkpt>
      <trkpt lat="43.57374" lon="1.28367">
        <ele>197.8</ele>
        <time>2024-07-11T06:36:33Z</time>
      </trkpt>
      <trkpt lat="43.57377" lon="1.28359">
        <ele>197.8</ele>
        <time>2024-07-11T06:36:34Z</time>
      </trkpt>
      <trkpt lat="43.57381" lon="1.28351">
        <ele>197.8</ele>
        <time>2024-07-11T06:36:35Z</time>
      </trkpt>
      <trkpt lat="43.57384" lon="1.28343">
        <ele>197.8</ele>
        <time>2024-07-11T06:36:36Z</time>
      </trkpt>
      <trkpt lat="43.57387" lon="1.28335">
        <ele>197.8</ele>
        <time>2024-07-11T06:36:37Z</time>
      </trkpt>
      <trkpt lat="43.57391" lon="1.28327">
        <ele>197.8</ele>
        <time>2024-07-11T06:36:38Z</time>
      </trkpt>
      <trkpt lat="43.57394" lon="1.28319">
        <ele>197.8</ele>
        <time>2024-07-11T06:36:39Z</time>
      </trkpt>
      <trkpt lat="43.57397" lon="1.28311">
        <ele>197.6</ele>
        <time>2024-07-11T06:36:40Z</time>
      </trkpt>
      <trkpt lat="43.574" lon="1.28303">
        <ele>197.6</ele>
        <time>2024-07-11T06:36:41Z</time>
      </trkpt>
      <trkpt lat="43.57404" lon="1.28295">
        <ele>197.6</ele>
        <time>2024-07-11T06:36:42Z</time>
      </trkpt>
      <trkpt lat="43.57407" lon="1.28286">
        <ele>197.6</ele>
        <time>2024-07-11T06:36:43Z</time>
      </trkpt>
      <trkpt lat="43.5741" lon="1.28278">
        <ele>197.6</ele>
        <time>2024-07-11T06:36:44Z</time>
      </trkpt>
      <trkpt lat="43.57414" lon="1.2827">
        <ele>197.6</ele>
        <time>2024-07-11T06:36:45Z</time>
      </trkpt>
      <trkpt lat="43.57417" lon="1.28262">
        <ele>197.6</ele>
        <time>2024-07-11T06:36:46Z</time>
      </trkpt>
      <trkpt lat="43.5742" lon="1.28253">
        <ele>197.6</ele>
        <time>2024-07-11T06:36:47Z</time>
      </trkpt>
      <trkpt lat="43.57423" lon="1.28245">
        <ele>197.6</ele>
        <time>2024-07-11T06:36:48Z</time>
      </trkpt>
      <trkpt lat="43.57426" lon="1.28236">
        <ele>197.6</ele>
        <time>2024-07-11T06:36:49Z</time>
      </trkpt>
      <trkpt lat="43.57429" lon="1.28228">
        <ele>197.6</ele>
        <time>2024-07-11T06:36:50Z</time>
      </trkpt>
      <trkpt lat="43.57432" lon="1.28219">
        <ele>197.6</ele>
        <time>2024-07-11T06:36:51Z</time>
      </trkpt>
      <trkpt lat="43.57435" lon="1.28211">
        <ele>197.6</ele>
        <time>2024-07-11T06:36:52Z</time>
      </trkpt>
      <trkpt lat="43.57438" lon="1.28202">
        <ele>197.6</ele>
        <time>2024-07-11T06:36:53Z</time>
      </trkpt>
      <trkpt lat="43.57441" lon="1.28194">
        <ele>197.6</ele>
        <time>2024-07-11T06:36:54Z</time>
      </trkpt>
      <trkpt lat="43.57444" lon="1.28185">
        <ele>197.8</ele>
        <time>2024-07-11T06:36:55Z</time>
      </trkpt>
      <trkpt lat="43.57447" lon="1.28177">
        <ele>197.8</ele>
        <time>2024-07-11T06:36:56Z</time>
      </trkpt>
      <trkpt lat="43.5745" lon="1.28169">
        <ele>197.8</ele>
        <time>2024-07-11T06:36:57Z</time>
      </trkpt>
      <trkpt lat="43.57453" lon="1.2816">
        <ele>197.8</ele>
        <time>2024-07-11T06:36:58Z</time>
      </trkpt>
      <trkpt lat="43.57456" lon="1.2815">
        <ele>197.8</ele>
        <time>2024-07-11T06:36:59Z</time>
      </trkpt>
      <trkpt lat="43.57459" lon="1.28144">
        <ele>197.8</ele>
        <time>2024-07-11T06:37:00Z</time>
      </trkpt>
      <trkpt lat="43.57462" lon="1.28135">
        <ele>198</ele>
        <time>2024-07-11T06:37:01Z</time>
      </trkpt>
      <trkpt lat="43.57464" lon="1.28127">
        <ele>198</ele>
        <time>2024-07-11T06:37:02Z</time>
      </trkpt>
      <trkpt lat="43.57467" lon="1.28118">
        <ele>198</ele>
        <time>2024-07-11T06:37:03Z</time>
      </trkpt>
      <trkpt lat="43.57471" lon="1.28108">
        <ele>198</ele>
        <time>2024-07-11T06:37:04Z</time>
      </trkpt>
      <trkpt lat="43.57473" lon="1.28102">
        <ele>198</ele>
        <time>2024-07-11T06:37:05Z</time>
      </trkpt>
      <trkpt lat="43.57476" lon="1.28094">
        <ele>198</ele>
        <time>2024-07-11T06:37:06Z</time>
      </trkpt>
      <trkpt lat="43.57479" lon="1.28086">
        <ele>198</ele>
        <time>2024-07-11T06:37:07Z</time>
      </trkpt>
      <trkpt lat="43.57481" lon="1.28078">
        <ele>198</ele>
        <time>2024-07-11T06:37:08Z</time>
      </trkpt>
      <trkpt lat="43.57484" lon="1.28069">
        <ele>198.2</ele>
        <time>2024-07-11T06:37:09Z</time>
      </trkpt>
      <trkpt lat="43.57487" lon="1.28061">
        <ele>198.2</ele>
        <time>2024-07-11T06:37:10Z</time>
      </trkpt>
      <trkpt lat="43.57489" lon="1.28052">
        <ele>198.2</ele>
        <time>2024-07-11T06:37:11Z</time>
      </trkpt>
      <trkpt lat="43.57492" lon="1.28043">
        <ele>198.2</ele>
        <time>2024-07-11T06:37:12Z</time>
      </trkpt>
      <trkpt lat="43.57495" lon="1.28035">
        <ele>198.2</ele>
        <time>2024-07-11T06:37:13Z</time>
      </trkpt>
      <trkpt lat="43.57497" lon="1.28026">
        <ele>198.4</ele>
        <time>2024-07-11T06:37:14Z</time>
      </trkpt>
      <trkpt lat="43.575" lon="1.28018">
        <ele>198.4</ele>
        <time>2024-07-11T06:37:15Z</time>
      </trkpt>
      <trkpt lat="43.57502" lon="1.28009">
        <ele>198.4</ele>
        <time>2024-07-11T06:37:16Z</time>
      </trkpt>
      <trkpt lat="43.57505" lon="1.28">
        <ele>198.4</ele>
        <time>2024-07-11T06:37:17Z</time>
      </trkpt>
      <trkpt lat="43.57508" lon="1.27991">
        <ele>198.4</ele>
        <time>2024-07-11T06:37:18Z</time>
      </trkpt>
      <trkpt lat="43.5751" lon="1.27983">
        <ele>198.4</ele>
        <time>2024-07-11T06:37:19Z</time>
      </trkpt>
      <trkpt lat="43.57512" lon="1.27974">
        <ele>198.4</ele>
        <time>2024-07-11T06:37:20Z</time>
      </trkpt>
      <trkpt lat="43.57515" lon="1.27966">
        <ele>198.6</ele>
        <time>2024-07-11T06:37:21Z</time>
      </trkpt>
      <trkpt lat="43.57518" lon="1.27957">
        <ele>198.6</ele>
        <time>2024-07-11T06:37:22Z</time>
      </trkpt>
      <trkpt lat="43.57521" lon="1.27948">
        <ele>198.6</ele>
        <time>2024-07-11T06:37:23Z</time>
      </trkpt>
      <trkpt lat="43.57524" lon="1.2794">
        <ele>198.6</ele>
        <time>2024-07-11T06:37:24Z</time>
      </trkpt>
      <trkpt lat="43.57527" lon="1.27931">
        <ele>198.6</ele>
        <time>2024-07-11T06:37:25Z</time>
      </trkpt>
      <trkpt lat="43.5753" lon="1.27923">
        <ele>198.6</ele>
        <time>2024-07-11T06:37:26Z</time>
      </trkpt>
      <trkpt lat="43.57533" lon="1.27914">
        <ele>198.6</ele>
        <time>2024-07-11T06:37:27Z</time>
      </trkpt>
      <trkpt lat="43.57535" lon="1.27905">
        <ele>198.6</ele>
        <time>2024-07-11T06:37:28Z</time>
      </trkpt>
      <trkpt lat="43.57538" lon="1.27896">
        <ele>198.6</ele>
        <time>2024-07-11T06:37:29Z</time>
      </trkpt>
      <trkpt lat="43.57541" lon="1.27888">
        <ele>198.6</ele>
        <time>2024-07-11T06:37:30Z</time>
      </trkpt>
      <trkpt lat="43.57544" lon="1.27879">
        <ele>198.6</ele>
        <time>2024-07-11T06:37:31Z</time>
      </trkpt>
      <trkpt lat="43.57546" lon="1.2787">
        <ele>198.8</ele>
        <time>2024-07-11T06:37:32Z</time>
      </trkpt>
      <trkpt lat="43.57549" lon="1.27861">
        <ele>198.8</ele>
        <time>2024-07-11T06:37:33Z</time>
      </trkpt>
      <trkpt lat="43.57551" lon="1.27852">
        <ele>198.8</ele>
        <time>2024-07-11T06:37:34Z</time>
      </trkpt>
      <trkpt lat="43.57554" lon="1.27844">
        <ele>198.8</ele>
        <time>2024-07-11T06:37:35Z</time>
      </trkpt>
      <trkpt lat="43.57556" lon="1.27835">
        <ele>198.8</ele>
        <time>2024-07-11T06:37:36Z</time>
      </trkpt>
      <trkpt lat="43.57559" lon="1.27826">
        <ele>198.8</ele>
        <time>2024-07-11T06:37:37Z</time>
      </trkpt>
      <trkpt lat="43.57562" lon="1.27817">
        <ele>198.8</ele>
        <time>2024-07-11T06:37:38Z</time>
      </trkpt>
      <trkpt lat="43.57565" lon="1.27808">
        <ele>198.8</ele>
        <time>2024-07-11T06:37:39Z</time>
      </trkpt>
      <trkpt lat="43.57568" lon="1.27799">
        <ele>198.8</ele>
        <time>2024-07-11T06:37:40Z</time>
      </trkpt>
      <trkpt lat="43.57571" lon="1.2779">
        <ele>198.8</ele>
        <time>2024-07-11T06:37:41Z</time>
      </trkpt>
      <trkpt lat="43.57573" lon="1.27781">
        <ele>198.6</ele>
        <time>2024-07-11T06:37:42Z</time>
      </trkpt>
      <trkpt lat="43.57575" lon="1.27771">
        <ele>198.4</ele>
        <time>2024-07-11T06:37:43Z</time>
      </trkpt>
      <trkpt lat="43.57577" lon="1.27762">
        <ele>198.4</ele>
        <time>2024-07-11T06:37:44Z</time>
      </trkpt>
      <trkpt lat="43.57579" lon="1.27753">
        <ele>198.4</ele>
        <time>2024-07-11T06:37:45Z</time>
      </trkpt>
      <trkpt lat="43.57581" lon="1.27743">
        <ele>198.4</ele>
        <time>2024-07-11T06:37:46Z</time>
      </trkpt>
      <trkpt lat="43.57584" lon="1.27734">
        <ele>198.4</ele>
        <time>2024-07-11T06:37:47Z</time>
      </trkpt>
      <trkpt lat="43.57586" lon="1.27725">
        <ele>198.4</ele>
        <time>2024-07-11T06:37:48Z</time>
      </trkpt>
      <trkpt lat="43.57588" lon="1.27715">
        <ele>198.2</ele>
        <time>2024-07-11T06:37:49Z</time>
      </trkpt>
      <trkpt lat="43.5759" lon="1.27706">
        <ele>198.2</ele>
        <time>2024-07-11T06:37:50Z</time>
      </trkpt>
      <trkpt lat="43.57593" lon="1.27697">
        <ele>198.2</ele>
        <time>2024-07-11T06:37:51Z</time>
      </trkpt>
      <trkpt lat="43.57596" lon="1.27688">
        <ele>198.2</ele>
        <time>2024-07-11T06:37:52Z</time>
      </trkpt>
      <trkpt lat="43.57599" lon="1.2768">
        <ele>198.2</ele>
        <time>2024-07-11T06:37:53Z</time>
      </trkpt>
      <trkpt lat="43.57601" lon="1.27671">
        <ele>198.2</ele>
        <time>2024-07-11T06:37:54Z</time>
      </trkpt>
      <trkpt lat="43.57605" lon="1.27663">
        <ele>198.2</ele>
        <time>2024-07-11T06:37:55Z</time>
      </trkpt>
      <trkpt lat="43.57608" lon="1.27654">
        <ele>198.4</ele>
        <time>2024-07-11T06:37:56Z</time>
      </trkpt>
      <trkpt lat="43.57611" lon="1.27643">
        <ele>198.2</ele>
        <time>2024-07-11T06:37:57Z</time>
      </trkpt>
      <trkpt lat="43.57614" lon="1.27636">
        <ele>198.4</ele>
        <time>2024-07-11T06:37:58Z</time>
      </trkpt>
      <trkpt lat="43.57617" lon="1.27627">
        <ele>198.4</ele>
        <time>2024-07-11T06:37:59Z</time>
      </trkpt>
      <trkpt lat="43.57619" lon="1.27619">
        <ele>198.4</ele>
        <time>2024-07-11T06:38:00Z</time>
      </trkpt>
      <trkpt lat="43.57622" lon="1.2761">
        <ele>198.4</ele>
        <time>2024-07-11T06:38:01Z</time>
      </trkpt>
      <trkpt lat="43.57625" lon="1.27601">
        <ele>198.4</ele>
        <time>2024-07-11T06:38:02Z</time>
      </trkpt>
      <trkpt lat="43.57628" lon="1.27593">
        <ele>198.4</ele>
        <time>2024-07-11T06:38:03Z</time>
      </trkpt>
      <trkpt lat="43.57631" lon="1.27584">
        <ele>198.4</ele>
        <time>2024-07-11T06:38:04Z</time>
      </trkpt>
      <trkpt lat="43.57633" lon="1.27576">
        <ele>198.4</ele>
        <time>2024-07-11T06:38:05Z</time>
      </trkpt>
      <trkpt lat="43.57636" lon="1.27568">
        <ele>198.4</ele>
        <time>2024-07-11T06:38:06Z</time>
      </trkpt>
      <trkpt lat="43.57639" lon="1.2756">
        <ele>198.4</ele>
        <time>2024-07-11T06:38:07Z</time>
      </trkpt>
      <trkpt lat="43.57642" lon="1.27552">
        <ele>198.4</ele>
        <time>2024-07-11T06:38:08Z</time>
      </trkpt>
      <trkpt lat="43.57645" lon="1.27544">
        <ele>198.4</ele>
        <time>2024-07-11T06:38:09Z</time>
      </trkpt>
      <trkpt lat="43.57648" lon="1.27536">
        <ele>198.4</ele>
        <time>2024-07-11T06:38:10Z</time>
      </trkpt>
      <trkpt lat="43.57651" lon="1.27527">
        <ele>198.4</ele>
        <time>2024-07-11T06:38:11Z</time>
      </trkpt>
      <trkpt lat="43.57654" lon="1.27519">
        <ele>198.4</ele>
        <time>2024-07-11T06:38:12Z</time>
      </trkpt>
      <trkpt lat="43.57657" lon="1.2751">
        <ele>198.6</ele>
        <time>2024-07-11T06:38:13Z</time>
      </trkpt>
      <trkpt lat="43.5766" lon="1.27502">
        <ele>198.6</ele>
        <time>2024-07-11T06:38:14Z</time>
      </trkpt>
      <trkpt lat="43.57663" lon="1.27493">
        <ele>198.4</ele>
        <time>2024-07-11T06:38:15Z</time>
      </trkpt>
      <trkpt lat="43.57666" lon="1.27484">
        <ele>198.4</ele>
        <time>2024-07-11T06:38:16Z</time>
      </trkpt>
      <trkpt lat="43.57668" lon="1.27477">
        <ele>198.4</ele>
        <time>2024-07-11T06:38:17Z</time>
      </trkpt>
      <trkpt lat="43.57671" lon="1.27468">
        <ele>198.4</ele>
        <time>2024-07-11T06:38:18Z</time>
      </trkpt>
      <trkpt lat="43.57674" lon="1.2746">
        <ele>198.4</ele>
        <time>2024-07-11T06:38:19Z</time>
      </trkpt>
      <trkpt lat="43.57677" lon="1.27451">
        <ele>198.4</ele>
        <time>2024-07-11T06:38:20Z</time>
      </trkpt>
      <trkpt lat="43.5768" lon="1.27443">
        <ele>198.4</ele>
        <time>2024-07-11T06:38:21Z</time>
      </trkpt>
      <trkpt lat="43.57683" lon="1.27434">
        <ele>198.4</ele>
        <time>2024-07-11T06:38:22Z</time>
      </trkpt>
      <trkpt lat="43.57686" lon="1.27426">
        <ele>198.4</ele>
        <time>2024-07-11T06:38:23Z</time>
      </trkpt>
      <trkpt lat="43.57689" lon="1.27418">
        <ele>198.4</ele>
        <time>2024-07-11T06:38:24Z</time>
      </trkpt>
      <trkpt lat="43.57692" lon="1.2741">
        <ele>198.4</ele>
        <time>2024-07-11T06:38:25Z</time>
      </trkpt>
      <trkpt lat="43.57695" lon="1.27401">
        <ele>198.4</ele>
        <time>2024-07-11T06:38:26Z</time>
      </trkpt>
      <trkpt lat="43.57698" lon="1.27392">
        <ele>198.6</ele>
        <time>2024-07-11T06:38:27Z</time>
      </trkpt>
      <trkpt lat="43.57701" lon="1.27384">
        <ele>198.6</ele>
        <time>2024-07-11T06:38:28Z</time>
      </trkpt>
      <trkpt lat="43.57705" lon="1.27373">
        <ele>198.6</ele>
        <time>2024-07-11T06:38:29Z</time>
      </trkpt>
      <trkpt lat="43.57708" lon="1.27365">
        <ele>198.6</ele>
        <time>2024-07-11T06:38:30Z</time>
      </trkpt>
      <trkpt lat="43.57711" lon="1.27356">
        <ele>198.8</ele>
        <time>2024-07-11T06:38:31Z</time>
      </trkpt>
      <trkpt lat="43.57713" lon="1.27349">
        <ele>198.8</ele>
        <time>2024-07-11T06:38:32Z</time>
      </trkpt>
      <trkpt lat="43.57715" lon="1.2734">
        <ele>198.8</ele>
        <time>2024-07-11T06:38:33Z</time>
      </trkpt>
      <trkpt lat="43.57718" lon="1.27332">
        <ele>198.8</ele>
        <time>2024-07-11T06:38:34Z</time>
      </trkpt>
      <trkpt lat="43.57721" lon="1.27322">
        <ele>198.8</ele>
        <time>2024-07-11T06:38:35Z</time>
      </trkpt>
      <trkpt lat="43.57723" lon="1.27314">
        <ele>198.8</ele>
        <time>2024-07-11T06:38:36Z</time>
      </trkpt>
      <trkpt lat="43.57725" lon="1.27308">
        <ele>198.8</ele>
        <time>2024-07-11T06:38:37Z</time>
      </trkpt>
      <trkpt lat="43.57727" lon="1.273">
        <ele>198.8</ele>
        <time>2024-07-11T06:38:38Z</time>
      </trkpt>
      <trkpt lat="43.5773" lon="1.27293">
        <ele>198.8</ele>
        <time>2024-07-11T06:38:39Z</time>
      </trkpt>
      <trkpt lat="43.57734" lon="1.27285">
        <ele>198.8</ele>
        <time>2024-07-11T06:38:40Z</time>
      </trkpt>
      <trkpt lat="43.57737" lon="1.27281">
        <ele>198.8</ele>
        <time>2024-07-11T06:38:41Z</time>
      </trkpt>
      <trkpt lat="43.57742" lon="1.27277">
        <ele>198.8</ele>
        <time>2024-07-11T06:38:42Z</time>
      </trkpt>
      <trkpt lat="43.57748" lon="1.27271">
        <ele>199</ele>
        <time>2024-07-11T06:38:43Z</time>
      </trkpt>
      <trkpt lat="43.57751" lon="1.27267">
        <ele>199</ele>
        <time>2024-07-11T06:38:44Z</time>
      </trkpt>
      <trkpt lat="43.57755" lon="1.2726">
        <ele>198.8</ele>
        <time>2024-07-11T06:38:45Z</time>
      </trkpt>
      <trkpt lat="43.57756" lon="1.27255">
        <ele>198.8</ele>
        <time>2024-07-11T06:38:46Z</time>
      </trkpt>
      <trkpt lat="43.57756" lon="1.27248">
        <ele>198.8</ele>
        <time>2024-07-11T06:38:47Z</time>
      </trkpt>
      <trkpt lat="43.57753" lon="1.27241">
        <ele>198.8</ele>
        <time>2024-07-11T06:38:48Z</time>
      </trkpt>
      <trkpt lat="43.57749" lon="1.27234">
        <ele>198.8</ele>
        <time>2024-07-11T06:38:49Z</time>
      </trkpt>
      <trkpt lat="43.57747" lon="1.27229">
        <ele>198.6</ele>
        <time>2024-07-11T06:38:50Z</time>
      </trkpt>
      <trkpt lat="43.57745" lon="1.27222">
        <ele>198.6</ele>
        <time>2024-07-11T06:38:51Z</time>
      </trkpt>
      <trkpt lat="43.57743" lon="1.27213">
        <ele>198.4</ele>
        <time>2024-07-11T06:38:52Z</time>
      </trkpt>
      <trkpt lat="43.5774" lon="1.27202">
        <ele>198.4</ele>
        <time>2024-07-11T06:38:53Z</time>
      </trkpt>
      <trkpt lat="43.57736" lon="1.27192">
        <ele>198.2</ele>
        <time>2024-07-11T06:38:54Z</time>
      </trkpt>
      <trkpt lat="43.57731" lon="1.27183">
        <ele>198.2</ele>
        <time>2024-07-11T06:38:55Z</time>
      </trkpt>
      <trkpt lat="43.57727" lon="1.27176">
        <ele>198.2</ele>
        <time>2024-07-11T06:38:56Z</time>
      </trkpt>
      <trkpt lat="43.57721" lon="1.27168">
        <ele>197.6</ele>
        <time>2024-07-11T06:38:57Z</time>
      </trkpt>
      <trkpt lat="43.57713" lon="1.2716">
        <ele>197.4</ele>
        <time>2024-07-11T06:38:58Z</time>
      </trkpt>
      <trkpt lat="43.57703" lon="1.2715">
        <ele>196.8</ele>
        <time>2024-07-11T06:38:59Z</time>
      </trkpt>
      <trkpt lat="43.57696" lon="1.27143">
        <ele>195.8</ele>
        <time>2024-07-11T06:39:00Z</time>
      </trkpt>
      <trkpt lat="43.57686" lon="1.27134">
        <ele>195.4</ele>
        <time>2024-07-11T06:39:01Z</time>
      </trkpt>
      <trkpt lat="43.57677" lon="1.27126">
        <ele>194.6</ele>
        <time>2024-07-11T06:39:02Z</time>
      </trkpt>
      <trkpt lat="43.57667" lon="1.27117">
        <ele>194.2</ele>
        <time>2024-07-11T06:39:03Z</time>
      </trkpt>
      <trkpt lat="43.57655" lon="1.27107">
        <ele>193.2</ele>
        <time>2024-07-11T06:39:04Z</time>
      </trkpt>
      <trkpt lat="43.57647" lon="1.271">
        <ele>192.2</ele>
        <time>2024-07-11T06:39:05Z</time>
      </trkpt>
      <trkpt lat="43.57638" lon="1.27092">
        <ele>191</ele>
        <time>2024-07-11T06:39:06Z</time>
      </trkpt>
      <trkpt lat="43.57627" lon="1.27081">
        <ele>189.8</ele>
        <time>2024-07-11T06:39:07Z</time>
      </trkpt>
      <trkpt lat="43.57621" lon="1.27069">
        <ele>189.2</ele>
        <time>2024-07-11T06:39:08Z</time>
      </trkpt>
      <trkpt lat="43.57617" lon="1.27054">
        <ele>188.4</ele>
        <time>2024-07-11T06:39:09Z</time>
      </trkpt>
      <trkpt lat="43.57615" lon="1.27042">
        <ele>187.8</ele>
        <time>2024-07-11T06:39:10Z</time>
      </trkpt>
      <trkpt lat="43.57616" lon="1.27026">
        <ele>186.4</ele>
        <time>2024-07-11T06:39:11Z</time>
      </trkpt>
      <trkpt lat="43.5762" lon="1.2701">
        <ele>185.8</ele>
        <time>2024-07-11T06:39:12Z</time>
      </trkpt>
      <trkpt lat="43.57626" lon="1.26993">
        <ele>184.6</ele>
        <time>2024-07-11T06:39:13Z</time>
      </trkpt>
      <trkpt lat="43.57631" lon="1.26983">
        <ele>183.4</ele>
        <time>2024-07-11T06:39:14Z</time>
      </trkpt>
      <trkpt lat="43.57637" lon="1.2697">
        <ele>183</ele>
        <time>2024-07-11T06:39:15Z</time>
      </trkpt>
      <trkpt lat="43.57643" lon="1.26958">
        <ele>182</ele>
        <time>2024-07-11T06:39:16Z</time>
      </trkpt>
      <trkpt lat="43.5765" lon="1.26943">
        <ele>181.4</ele>
        <time>2024-07-11T06:39:17Z</time>
      </trkpt>
      <trkpt lat="43.57656" lon="1.26931">
        <ele>180.8</ele>
        <time>2024-07-11T06:39:18Z</time>
      </trkpt>
      <trkpt lat="43.5766" lon="1.26922">
        <ele>180.2</ele>
        <time>2024-07-11T06:39:19Z</time>
      </trkpt>
      <trkpt lat="43.57664" lon="1.26912">
        <ele>179.8</ele>
        <time>2024-07-11T06:39:20Z</time>
      </trkpt>
      <trkpt lat="43.57668" lon="1.26901">
        <ele>179.4</ele>
        <time>2024-07-11T06:39:21Z</time>
      </trkpt>
      <trkpt lat="43.57672" lon="1.26889">
        <ele>179.2</ele>
        <time>2024-07-11T06:39:22Z</time>
      </trkpt>
      <trkpt lat="43.57674" lon="1.26879">
        <ele>178.8</ele>
        <time>2024-07-11T06:39:23Z</time>
      </trkpt>
      <trkpt lat="43.57675" lon="1.26868">
        <ele>178.6</ele>
        <time>2024-07-11T06:39:24Z</time>
      </trkpt>
      <trkpt lat="43.57672" lon="1.26858">
        <ele>178.2</ele>
        <time>2024-07-11T06:39:25Z</time>
      </trkpt>
      <trkpt lat="43.57669" lon="1.26848">
        <ele>178</ele>
        <time>2024-07-11T06:39:26Z</time>
      </trkpt>
      <trkpt lat="43.57667" lon="1.26837">
        <ele>178</ele>
        <time>2024-07-11T06:39:27Z</time>
      </trkpt>
      <trkpt lat="43.57668" lon="1.26827">
        <ele>177.8</ele>
        <time>2024-07-11T06:39:28Z</time>
      </trkpt>
      <trkpt lat="43.5767" lon="1.2682">
        <ele>177.8</ele>
        <time>2024-07-11T06:39:29Z</time>
      </trkpt>
      <trkpt lat="43.57673" lon="1.26811">
        <ele>177.8</ele>
        <time>2024-07-11T06:39:30Z</time>
      </trkpt>
      <trkpt lat="43.57675" lon="1.26802">
        <ele>177.6</ele>
        <time>2024-07-11T06:39:31Z</time>
      </trkpt>
      <trkpt lat="43.57676" lon="1.26792">
        <ele>177.6</ele>
        <time>2024-07-11T06:39:32Z</time>
      </trkpt>
      <trkpt lat="43.57676" lon="1.26781">
        <ele>177.6</ele>
        <time>2024-07-11T06:39:33Z</time>
      </trkpt>
      <trkpt lat="43.57676" lon="1.26773">
        <ele>177.6</ele>
        <time>2024-07-11T06:39:34Z</time>
      </trkpt>
      <trkpt lat="43.57675" lon="1.26763">
        <ele>177.6</ele>
        <time>2024-07-11T06:39:35Z</time>
      </trkpt>
      <trkpt lat="43.57675" lon="1.26754">
        <ele>177.6</ele>
        <time>2024-07-11T06:39:36Z</time>
      </trkpt>
      <trkpt lat="43.57674" lon="1.26742">
        <ele>177.6</ele>
        <time>2024-07-11T06:39:37Z</time>
      </trkpt>
      <trkpt lat="43.57673" lon="1.26733">
        <ele>177.6</ele>
        <time>2024-07-11T06:39:38Z</time>
      </trkpt>
      <trkpt lat="43.57673" lon="1.26725">
        <ele>177.6</ele>
        <time>2024-07-11T06:39:39Z</time>
      </trkpt>
      <trkpt lat="43.57672" lon="1.26716">
        <ele>177.8</ele>
        <time>2024-07-11T06:39:40Z</time>
      </trkpt>
      <trkpt lat="43.57671" lon="1.26704">
        <ele>177.8</ele>
        <time>2024-07-11T06:39:41Z</time>
      </trkpt>
      <trkpt lat="43.5767" lon="1.26695">
        <ele>178</ele>
        <time>2024-07-11T06:39:42Z</time>
      </trkpt>
      <trkpt lat="43.5767" lon="1.26686">
        <ele>178.2</ele>
        <time>2024-07-11T06:39:43Z</time>
      </trkpt>
      <trkpt lat="43.57669" lon="1.26678">
        <ele>178.2</ele>
        <time>2024-07-11T06:39:44Z</time>
      </trkpt>
      <trkpt lat="43.57668" lon="1.26669">
        <ele>178.2</ele>
        <time>2024-07-11T06:39:45Z</time>
      </trkpt>
      <trkpt lat="43.57668" lon="1.2666">
        <ele>178.4</ele>
        <time>2024-07-11T06:39:46Z</time>
      </trkpt>
      <trkpt lat="43.57667" lon="1.26649">
        <ele>178.4</ele>
        <time>2024-07-11T06:39:47Z</time>
      </trkpt>
      <trkpt lat="43.57666" lon="1.26639">
        <ele>178.6</ele>
        <time>2024-07-11T06:39:48Z</time>
      </trkpt>
      <trkpt lat="43.57666" lon="1.26632">
        <ele>178.6</ele>
        <time>2024-07-11T06:39:49Z</time>
      </trkpt>
      <trkpt lat="43.57666" lon="1.26623">
        <ele>178.8</ele>
        <time>2024-07-11T06:39:50Z</time>
      </trkpt>
      <trkpt lat="43.57666" lon="1.26612">
        <ele>179</ele>
        <time>2024-07-11T06:39:51Z</time>
      </trkpt>
      <trkpt lat="43.57665" lon="1.26604">
        <ele>179</ele>
        <time>2024-07-11T06:39:52Z</time>
      </trkpt>
      <trkpt lat="43.57665" lon="1.26595">
        <ele>179.4</ele>
        <time>2024-07-11T06:39:53Z</time>
      </trkpt>
      <trkpt lat="43.57665" lon="1.26588">
        <ele>179.8</ele>
        <time>2024-07-11T06:39:54Z</time>
      </trkpt>
      <trkpt lat="43.57665" lon="1.2658">
        <ele>179.8</ele>
        <time>2024-07-11T06:39:55Z</time>
      </trkpt>
      <trkpt lat="43.57664" lon="1.26571">
        <ele>180</ele>
        <time>2024-07-11T06:39:56Z</time>
      </trkpt>
      <trkpt lat="43.57664" lon="1.26563">
        <ele>180.2</ele>
        <time>2024-07-11T06:39:57Z</time>
      </trkpt>
      <trkpt lat="43.57664" lon="1.26555">
        <ele>180.2</ele>
        <time>2024-07-11T06:39:58Z</time>
      </trkpt>
      <trkpt lat="43.57664" lon="1.26547">
        <ele>180.4</ele>
        <time>2024-07-11T06:39:59Z</time>
      </trkpt>
      <trkpt lat="43.57664" lon="1.26539">
        <ele>180.6</ele>
        <time>2024-07-11T06:40:00Z</time>
      </trkpt>
      <trkpt lat="43.57664" lon="1.26528">
        <ele>180.6</ele>
        <time>2024-07-11T06:40:01Z</time>
      </trkpt>
      <trkpt lat="43.57664" lon="1.2652">
        <ele>180.6</ele>
        <time>2024-07-11T06:40:02Z</time>
      </trkpt>
      <trkpt lat="43.57663" lon="1.26513">
        <ele>180.8</ele>
        <time>2024-07-11T06:40:03Z</time>
      </trkpt>
      <trkpt lat="43.57663" lon="1.26504">
        <ele>181</ele>
        <time>2024-07-11T06:40:04Z</time>
      </trkpt>
      <trkpt lat="43.57663" lon="1.26494">
        <ele>181.2</ele>
        <time>2024-07-11T06:40:05Z</time>
      </trkpt>
      <trkpt lat="43.57663" lon="1.26487">
        <ele>181.4</ele>
        <time>2024-07-11T06:40:06Z</time>
      </trkpt>
      <trkpt lat="43.57663" lon="1.26479">
        <ele>181.4</ele>
        <time>2024-07-11T06:40:07Z</time>
      </trkpt>
      <trkpt lat="43.57662" lon="1.26471">
        <ele>181.6</ele>
        <time>2024-07-11T06:40:08Z</time>
      </trkpt>
      <trkpt lat="43.57662" lon="1.26462">
        <ele>181.6</ele>
        <time>2024-07-11T06:40:09Z</time>
      </trkpt>
      <trkpt lat="43.57662" lon="1.26454">
        <ele>181.8</ele>
        <time>2024-07-11T06:40:10Z</time>
      </trkpt>
      <trkpt lat="43.57662" lon="1.26445">
        <ele>182</ele>
        <time>2024-07-11T06:40:11Z</time>
      </trkpt>
      <trkpt lat="43.57662" lon="1.26437">
        <ele>182</ele>
        <time>2024-07-11T06:40:12Z</time>
      </trkpt>
      <trkpt lat="43.57661" lon="1.26429">
        <ele>182.2</ele>
        <time>2024-07-11T06:40:13Z</time>
      </trkpt>
      <trkpt lat="43.57661" lon="1.26421">
        <ele>182.4</ele>
        <time>2024-07-11T06:40:14Z</time>
      </trkpt>
      <trkpt lat="43.57661" lon="1.26413">
        <ele>182.8</ele>
        <time>2024-07-11T06:40:15Z</time>
      </trkpt>
      <trkpt lat="43.57661" lon="1.26405">
        <ele>182.8</ele>
        <time>2024-07-11T06:40:16Z</time>
      </trkpt>
      <trkpt lat="43.57661" lon="1.26397">
        <ele>183.2</ele>
        <time>2024-07-11T06:40:17Z</time>
      </trkpt>
      <trkpt lat="43.57661" lon="1.26389">
        <ele>183.2</ele>
        <time>2024-07-11T06:40:18Z</time>
      </trkpt>
      <trkpt lat="43.5766" lon="1.26381">
        <ele>183.6</ele>
        <time>2024-07-11T06:40:19Z</time>
      </trkpt>
      <trkpt lat="43.5766" lon="1.26373">
        <ele>183.6</ele>
        <time>2024-07-11T06:40:20Z</time>
      </trkpt>
      <trkpt lat="43.5766" lon="1.26365">
        <ele>183.8</ele>
        <time>2024-07-11T06:40:21Z</time>
      </trkpt>
      <trkpt lat="43.5766" lon="1.26357">
        <ele>183.8</ele>
        <time>2024-07-11T06:40:22Z</time>
      </trkpt>
      <trkpt lat="43.5766" lon="1.26349">
        <ele>183.8</ele>
        <time>2024-07-11T06:40:23Z</time>
      </trkpt>
      <trkpt lat="43.57659" lon="1.2634">
        <ele>184</ele>
        <time>2024-07-11T06:40:24Z</time>
      </trkpt>
      <trkpt lat="43.57659" lon="1.26331">
        <ele>184.2</ele>
        <time>2024-07-11T06:40:25Z</time>
      </trkpt>
      <trkpt lat="43.57659" lon="1.26321">
        <ele>184.6</ele>
        <time>2024-07-11T06:40:26Z</time>
      </trkpt>
      <trkpt lat="43.57658" lon="1.26314">
        <ele>184.6</ele>
        <time>2024-07-11T06:40:27Z</time>
      </trkpt>
      <trkpt lat="43.57658" lon="1.26305">
        <ele>184.8</ele>
        <time>2024-07-11T06:40:28Z</time>
      </trkpt>
      <trkpt lat="43.57658" lon="1.26296">
        <ele>184.8</ele>
        <time>2024-07-11T06:40:29Z</time>
      </trkpt>
      <trkpt lat="43.57657" lon="1.26287">
        <ele>184.8</ele>
        <time>2024-07-11T06:40:30Z</time>
      </trkpt>
      <trkpt lat="43.57657" lon="1.26279">
        <ele>185</ele>
        <time>2024-07-11T06:40:31Z</time>
      </trkpt>
      <trkpt lat="43.57657" lon="1.2627">
        <ele>185</ele>
        <time>2024-07-11T06:40:32Z</time>
      </trkpt>
      <trkpt lat="43.57657" lon="1.26261">
        <ele>185</ele>
        <time>2024-07-11T06:40:33Z</time>
      </trkpt>
      <trkpt lat="43.57657" lon="1.26252">
        <ele>185</ele>
        <time>2024-07-11T06:40:34Z</time>
      </trkpt>
      <trkpt lat="43.57657" lon="1.26243">
        <ele>185</ele>
        <time>2024-07-11T06:40:35Z</time>
      </trkpt>
      <trkpt lat="43.57656" lon="1.26234">
        <ele>185</ele>
        <time>2024-07-11T06:40:36Z</time>
      </trkpt>
      <trkpt lat="43.57656" lon="1.26226">
        <ele>185</ele>
        <time>2024-07-11T06:40:37Z</time>
      </trkpt>
      <trkpt lat="43.57656" lon="1.26217">
        <ele>185.2</ele>
        <time>2024-07-11T06:40:38Z</time>
      </trkpt>
      <trkpt lat="43.57656" lon="1.26208">
        <ele>185.2</ele>
        <time>2024-07-11T06:40:39Z</time>
      </trkpt>
      <trkpt lat="43.57656" lon="1.26199">
        <ele>185.2</ele>
        <time>2024-07-11T06:40:40Z</time>
      </trkpt>
      <trkpt lat="43.57656" lon="1.2619">
        <ele>185.4</ele>
        <time>2024-07-11T06:40:41Z</time>
      </trkpt>
      <trkpt lat="43.57656" lon="1.2618">
        <ele>185.4</ele>
        <time>2024-07-11T06:40:42Z</time>
      </trkpt>
      <trkpt lat="43.57656" lon="1.26171">
        <ele>185.6</ele>
        <time>2024-07-11T06:40:43Z</time>
      </trkpt>
      <trkpt lat="43.57655" lon="1.2616">
        <ele>185.6</ele>
        <time>2024-07-11T06:40:44Z</time>
      </trkpt>
      <trkpt lat="43.57655" lon="1.26153">
        <ele>185.6</ele>
        <time>2024-07-11T06:40:45Z</time>
      </trkpt>
      <trkpt lat="43.57655" lon="1.26144">
        <ele>185.6</ele>
        <time>2024-07-11T06:40:46Z</time>
      </trkpt>
      <trkpt lat="43.57655" lon="1.26134">
        <ele>185.8</ele>
        <time>2024-07-11T06:40:47Z</time>
      </trkpt>
      <trkpt lat="43.57655" lon="1.26125">
        <ele>185.8</ele>
        <time>2024-07-11T06:40:48Z</time>
      </trkpt>
      <trkpt lat="43.57655" lon="1.26116">
        <ele>185.8</ele>
        <time>2024-07-11T06:40:49Z</time>
      </trkpt>
      <trkpt lat="43.57654" lon="1.26106">
        <ele>185.8</ele>
        <time>2024-07-11T06:40:50Z</time>
      </trkpt>
      <trkpt lat="43.57654" lon="1.26097">
        <ele>185.8</ele>
        <time>2024-07-11T06:40:51Z</time>
      </trkpt>
      <trkpt lat="43.57653" lon="1.26088">
        <ele>185.8</ele>
        <time>2024-07-11T06:40:52Z</time>
      </trkpt>
      <trkpt lat="43.57653" lon="1.26079">
        <ele>185.8</ele>
        <time>2024-07-11T06:40:53Z</time>
      </trkpt>
      <trkpt lat="43.57654" lon="1.26068">
        <ele>186</ele>
        <time>2024-07-11T06:40:54Z</time>
      </trkpt>
      <trkpt lat="43.57654" lon="1.26061">
        <ele>186</ele>
        <time>2024-07-11T06:40:55Z</time>
      </trkpt>
      <trkpt lat="43.57654" lon="1.26052">
        <ele>186</ele>
        <time>2024-07-11T06:40:56Z</time>
      </trkpt>
      <trkpt lat="43.57654" lon="1.26043">
        <ele>186.2</ele>
        <time>2024-07-11T06:40:57Z</time>
      </trkpt>
      <trkpt lat="43.57654" lon="1.26033">
        <ele>186.2</ele>
        <time>2024-07-11T06:40:58Z</time>
      </trkpt>
      <trkpt lat="43.57654" lon="1.26024">
        <ele>186.4</ele>
        <time>2024-07-11T06:40:59Z</time>
      </trkpt>
      <trkpt lat="43.57654" lon="1.26014">
        <ele>186.4</ele>
        <time>2024-07-11T06:41:00Z</time>
      </trkpt>
      <trkpt lat="43.57653" lon="1.26006">
        <ele>186.8</ele>
        <time>2024-07-11T06:41:01Z</time>
      </trkpt>
      <trkpt lat="43.57653" lon="1.25997">
        <ele>187</ele>
        <time>2024-07-11T06:41:02Z</time>
      </trkpt>
      <trkpt lat="43.57653" lon="1.25987">
        <ele>187.2</ele>
        <time>2024-07-11T06:41:03Z</time>
      </trkpt>
      <trkpt lat="43.57653" lon="1.2598">
        <ele>187.4</ele>
        <time>2024-07-11T06:41:04Z</time>
      </trkpt>
      <trkpt lat="43.57653" lon="1.25971">
        <ele>187.4</ele>
        <time>2024-07-11T06:41:05Z</time>
      </trkpt>
      <trkpt lat="43.57653" lon="1.25962">
        <ele>187.4</ele>
        <time>2024-07-11T06:41:06Z</time>
      </trkpt>
      <trkpt lat="43.57653" lon="1.25953">
        <ele>187.4</ele>
        <time>2024-07-11T06:41:07Z</time>
      </trkpt>
      <trkpt lat="43.57652" lon="1.25942">
        <ele>187.6</ele>
        <time>2024-07-11T06:41:08Z</time>
      </trkpt>
      <trkpt lat="43.57652" lon="1.25934">
        <ele>187.6</ele>
        <time>2024-07-11T06:41:09Z</time>
      </trkpt>
      <trkpt lat="43.57652" lon="1.25927">
        <ele>187.6</ele>
        <time>2024-07-11T06:41:10Z</time>
      </trkpt>
      <trkpt lat="43.57652" lon="1.25918">
        <ele>187.6</ele>
        <time>2024-07-11T06:41:11Z</time>
      </trkpt>
      <trkpt lat="43.57652" lon="1.2591">
        <ele>187.8</ele>
        <time>2024-07-11T06:41:12Z</time>
      </trkpt>
      <trkpt lat="43.57652" lon="1.25901">
        <ele>188</ele>
        <time>2024-07-11T06:41:13Z</time>
      </trkpt>
      <trkpt lat="43.57652" lon="1.25893">
        <ele>188.2</ele>
        <time>2024-07-11T06:41:14Z</time>
      </trkpt>
      <trkpt lat="43.57651" lon="1.25886">
        <ele>188.2</ele>
        <time>2024-07-11T06:41:15Z</time>
      </trkpt>
      <trkpt lat="43.5765" lon="1.2588">
        <ele>188.4</ele>
        <time>2024-07-11T06:41:16Z</time>
      </trkpt>
      <trkpt lat="43.57649" lon="1.25872">
        <ele>188.4</ele>
        <time>2024-07-11T06:41:17Z</time>
      </trkpt>
      <trkpt lat="43.57648" lon="1.25865">
        <ele>189</ele>
        <time>2024-07-11T06:41:18Z</time>
      </trkpt>
      <trkpt lat="43.57646" lon="1.25856">
        <ele>189.2</ele>
        <time>2024-07-11T06:41:19Z</time>
      </trkpt>
      <trkpt lat="43.57645" lon="1.25851">
        <ele>189.6</ele>
        <time>2024-07-11T06:41:20Z</time>
      </trkpt>
      <trkpt lat="43.57642" lon="1.25845">
        <ele>190</ele>
        <time>2024-07-11T06:41:21Z</time>
      </trkpt>
      <trkpt lat="43.57641" lon="1.25838">
        <ele>190</ele>
        <time>2024-07-11T06:41:22Z</time>
      </trkpt>
      <trkpt lat="43.57639" lon="1.25832">
        <ele>190.2</ele>
        <time>2024-07-11T06:41:23Z</time>
      </trkpt>
      <trkpt lat="43.57638" lon="1.25826">
        <ele>190.4</ele>
        <time>2024-07-11T06:41:24Z</time>
      </trkpt>
      <trkpt lat="43.57637" lon="1.25819">
        <ele>190.8</ele>
        <time>2024-07-11T06:41:25Z</time>
      </trkpt>
      <trkpt lat="43.57635" lon="1.25812">
        <ele>191</ele>
        <time>2024-07-11T06:41:26Z</time>
      </trkpt>
      <trkpt lat="43.57634" lon="1.25805">
        <ele>191.6</ele>
        <time>2024-07-11T06:41:27Z</time>
      </trkpt>
      <trkpt lat="43.57633" lon="1.25798">
        <ele>192.2</ele>
        <time>2024-07-11T06:41:28Z</time>
      </trkpt>
      <trkpt lat="43.57631" lon="1.2579">
        <ele>192.4</ele>
        <time>2024-07-11T06:41:29Z</time>
      </trkpt>
      <trkpt lat="43.5763" lon="1.25785">
        <ele>193</ele>
        <time>2024-07-11T06:41:30Z</time>
      </trkpt>
      <trkpt lat="43.57629" lon="1.25778">
        <ele>193.2</ele>
        <time>2024-07-11T06:41:31Z</time>
      </trkpt>
      <trkpt lat="43.57628" lon="1.25771">
        <ele>193.8</ele>
        <time>2024-07-11T06:41:32Z</time>
      </trkpt>
      <trkpt lat="43.57626" lon="1.25764">
        <ele>194.4</ele>
        <time>2024-07-11T06:41:33Z</time>
      </trkpt>
      <trkpt lat="43.57625" lon="1.25757">
        <ele>194.6</ele>
        <time>2024-07-11T06:41:34Z</time>
      </trkpt>
      <trkpt lat="43.57624" lon="1.2575">
        <ele>195</ele>
        <time>2024-07-11T06:41:35Z</time>
      </trkpt>
      <trkpt lat="43.57623" lon="1.25743">
        <ele>195.2</ele>
        <time>2024-07-11T06:41:36Z</time>
      </trkpt>
      <trkpt lat="43.57622" lon="1.25736">
        <ele>195.6</ele>
        <time>2024-07-11T06:41:37Z</time>
      </trkpt>
      <trkpt lat="43.5762" lon="1.25729">
        <ele>195.8</ele>
        <time>2024-07-11T06:41:38Z</time>
      </trkpt>
      <trkpt lat="43.57619" lon="1.2572">
        <ele>196</ele>
        <time>2024-07-11T06:41:39Z</time>
      </trkpt>
      <trkpt lat="43.57617" lon="1.25713">
        <ele>196.2</ele>
        <time>2024-07-11T06:41:40Z</time>
      </trkpt>
      <trkpt lat="43.57617" lon="1.25705">
        <ele>196.4</ele>
        <time>2024-07-11T06:41:41Z</time>
      </trkpt>
      <trkpt lat="43.57617" lon="1.25698">
        <ele>196.4</ele>
        <time>2024-07-11T06:41:42Z</time>
      </trkpt>
      <trkpt lat="43.57618" lon="1.25691">
        <ele>196.6</ele>
        <time>2024-07-11T06:41:43Z</time>
      </trkpt>
      <trkpt lat="43.57617" lon="1.25683">
        <ele>196.8</ele>
        <time>2024-07-11T06:41:44Z</time>
      </trkpt>
      <trkpt lat="43.57617" lon="1.25675">
        <ele>197</ele>
        <time>2024-07-11T06:41:45Z</time>
      </trkpt>
      <trkpt lat="43.57618" lon="1.25667">
        <ele>197</ele>
        <time>2024-07-11T06:41:46Z</time>
      </trkpt>
      <trkpt lat="43.57618" lon="1.25658">
        <ele>197.2</ele>
        <time>2024-07-11T06:41:47Z</time>
      </trkpt>
      <trkpt lat="43.57619" lon="1.2565">
        <ele>197.2</ele>
        <time>2024-07-11T06:41:48Z</time>
      </trkpt>
      <trkpt lat="43.57618" lon="1.25642">
        <ele>197.4</ele>
        <time>2024-07-11T06:41:49Z</time>
      </trkpt>
      <trkpt lat="43.57618" lon="1.25634">
        <ele>197.4</ele>
        <time>2024-07-11T06:41:50Z</time>
      </trkpt>
      <trkpt lat="43.57617" lon="1.25626">
        <ele>197.4</ele>
        <time>2024-07-11T06:41:51Z</time>
      </trkpt>
      <trkpt lat="43.57617" lon="1.25617">
        <ele>197.4</ele>
        <time>2024-07-11T06:41:52Z</time>
      </trkpt>
      <trkpt lat="43.57616" lon="1.25608">
        <ele>197.4</ele>
        <time>2024-07-11T06:41:53Z</time>
      </trkpt>
      <trkpt lat="43.57616" lon="1.256">
        <ele>197.6</ele>
        <time>2024-07-11T06:41:54Z</time>
      </trkpt>
      <trkpt lat="43.57615" lon="1.25591">
        <ele>197.6</ele>
        <time>2024-07-11T06:41:55Z</time>
      </trkpt>
      <trkpt lat="43.57614" lon="1.25582">
        <ele>197.6</ele>
        <time>2024-07-11T06:41:56Z</time>
      </trkpt>
      <trkpt lat="43.57613" lon="1.25573">
        <ele>197.8</ele>
        <time>2024-07-11T06:41:57Z</time>
      </trkpt>
      <trkpt lat="43.57613" lon="1.25564">
        <ele>197.8</ele>
        <time>2024-07-11T06:41:58Z</time>
      </trkpt>
      <trkpt lat="43.57612" lon="1.25555">
        <ele>197.8</ele>
        <time>2024-07-11T06:41:59Z</time>
      </trkpt>
      <trkpt lat="43.57611" lon="1.25546">
        <ele>197.8</ele>
        <time>2024-07-11T06:42:00Z</time>
      </trkpt>
      <trkpt lat="43.57609" lon="1.25536">
        <ele>197.8</ele>
        <time>2024-07-11T06:42:01Z</time>
      </trkpt>
      <trkpt lat="43.57608" lon="1.25527">
        <ele>197.8</ele>
        <time>2024-07-11T06:42:02Z</time>
      </trkpt>
      <trkpt lat="43.57606" lon="1.25517">
        <ele>198</ele>
        <time>2024-07-11T06:42:03Z</time>
      </trkpt>
      <trkpt lat="43.57604" lon="1.25507">
        <ele>198</ele>
        <time>2024-07-11T06:42:04Z</time>
      </trkpt>
      <trkpt lat="43.57603" lon="1.25498">
        <ele>198</ele>
        <time>2024-07-11T06:42:05Z</time>
      </trkpt>
      <trkpt lat="43.57602" lon="1.25488">
        <ele>198</ele>
        <time>2024-07-11T06:42:06Z</time>
      </trkpt>
      <trkpt lat="43.57601" lon="1.25478">
        <ele>198</ele>
        <time>2024-07-11T06:42:07Z</time>
      </trkpt>
      <trkpt lat="43.576" lon="1.25468">
        <ele>197.8</ele>
        <time>2024-07-11T06:42:08Z</time>
      </trkpt>
      <trkpt lat="43.57599" lon="1.25458">
        <ele>197.8</ele>
        <time>2024-07-11T06:42:09Z</time>
      </trkpt>
      <trkpt lat="43.57598" lon="1.25448">
        <ele>197.8</ele>
        <time>2024-07-11T06:42:10Z</time>
      </trkpt>
      <trkpt lat="43.57597" lon="1.25438">
        <ele>197.8</ele>
        <time>2024-07-11T06:42:11Z</time>
      </trkpt>
      <trkpt lat="43.57595" lon="1.25428">
        <ele>197.8</ele>
        <time>2024-07-11T06:42:12Z</time>
      </trkpt>
      <trkpt lat="43.57593" lon="1.25418">
        <ele>197.8</ele>
        <time>2024-07-11T06:42:13Z</time>
      </trkpt>
      <trkpt lat="43.57592" lon="1.25408">
        <ele>197.6</ele>
        <time>2024-07-11T06:42:14Z</time>
      </trkpt>
      <trkpt lat="43.57591" lon="1.25397">
        <ele>197.6</ele>
        <time>2024-07-11T06:42:15Z</time>
      </trkpt>
      <trkpt lat="43.5759" lon="1.25387">
        <ele>197.6</ele>
        <time>2024-07-11T06:42:16Z</time>
      </trkpt>
      <trkpt lat="43.57588" lon="1.25377">
        <ele>197.6</ele>
        <time>2024-07-11T06:42:17Z</time>
      </trkpt>
      <trkpt lat="43.57587" lon="1.25367">
        <ele>197.6</ele>
        <time>2024-07-11T06:42:18Z</time>
      </trkpt>
      <trkpt lat="43.57586" lon="1.25356">
        <ele>197.6</ele>
        <time>2024-07-11T06:42:19Z</time>
      </trkpt>
      <trkpt lat="43.57585" lon="1.25346">
        <ele>197.6</ele>
        <time>2024-07-11T06:42:20Z</time>
      </trkpt>
      <trkpt lat="43.57584" lon="1.25336">
        <ele>197.6</ele>
        <time>2024-07-11T06:42:21Z</time>
      </trkpt>
      <trkpt lat="43.57583" lon="1.25325">
        <ele>197.6</ele>
        <time>2024-07-11T06:42:22Z</time>
      </trkpt>
      <trkpt lat="43.57582" lon="1.25315">
        <ele>197.6</ele>
        <time>2024-07-11T06:42:23Z</time>
      </trkpt>
      <trkpt lat="43.5758" lon="1.25305">
        <ele>197.4</ele>
        <time>2024-07-11T06:42:24Z</time>
      </trkpt>
      <trkpt lat="43.57579" lon="1.25295">
        <ele>197.4</ele>
        <time>2024-07-11T06:42:25Z</time>
      </trkpt>
      <trkpt lat="43.57577" lon="1.25286">
        <ele>197.4</ele>
        <time>2024-07-11T06:42:26Z</time>
      </trkpt>
      <trkpt lat="43.57575" lon="1.25276">
        <ele>197.4</ele>
        <time>2024-07-11T06:42:27Z</time>
      </trkpt>
      <trkpt lat="43.57574" lon="1.25267">
        <ele>197.4</ele>
        <time>2024-07-11T06:42:28Z</time>
      </trkpt>
      <trkpt lat="43.57572" lon="1.25257">
        <ele>197.4</ele>
        <time>2024-07-11T06:42:29Z</time>
      </trkpt>
      <trkpt lat="43.57571" lon="1.25248">
        <ele>197.4</ele>
        <time>2024-07-11T06:42:30Z</time>
      </trkpt>
      <trkpt lat="43.57569" lon="1.25238">
        <ele>197.6</ele>
        <time>2024-07-11T06:42:31Z</time>
      </trkpt>
      <trkpt lat="43.57568" lon="1.25228">
        <ele>197.6</ele>
        <time>2024-07-11T06:42:32Z</time>
      </trkpt>
      <trkpt lat="43.57566" lon="1.25219">
        <ele>197.8</ele>
        <time>2024-07-11T06:42:33Z</time>
      </trkpt>
      <trkpt lat="43.57565" lon="1.25209">
        <ele>197.8</ele>
        <time>2024-07-11T06:42:34Z</time>
      </trkpt>
      <trkpt lat="43.57563" lon="1.252">
        <ele>198</ele>
        <time>2024-07-11T06:42:35Z</time>
      </trkpt>
      <trkpt lat="43.57561" lon="1.2519">
        <ele>198</ele>
        <time>2024-07-11T06:42:36Z</time>
      </trkpt>
      <trkpt lat="43.57559" lon="1.25181">
        <ele>198</ele>
        <time>2024-07-11T06:42:37Z</time>
      </trkpt>
      <trkpt lat="43.57558" lon="1.25171">
        <ele>198.2</ele>
        <time>2024-07-11T06:42:38Z</time>
      </trkpt>
      <trkpt lat="43.57556" lon="1.25162">
        <ele>198.2</ele>
        <time>2024-07-11T06:42:39Z</time>
      </trkpt>
      <trkpt lat="43.57555" lon="1.25152">
        <ele>198.2</ele>
        <time>2024-07-11T06:42:40Z</time>
      </trkpt>
      <trkpt lat="43.57555" lon="1.25142">
        <ele>198.2</ele>
        <time>2024-07-11T06:42:41Z</time>
      </trkpt>
      <trkpt lat="43.57554" lon="1.25133">
        <ele>198.4</ele>
        <time>2024-07-11T06:42:42Z</time>
      </trkpt>
      <trkpt lat="43.57552" lon="1.25123">
        <ele>198.4</ele>
        <time>2024-07-11T06:42:43Z</time>
      </trkpt>
      <trkpt lat="43.5755" lon="1.25114">
        <ele>198.4</ele>
        <time>2024-07-11T06:42:44Z</time>
      </trkpt>
      <trkpt lat="43.57549" lon="1.25105">
        <ele>198.4</ele>
        <time>2024-07-11T06:42:45Z</time>
      </trkpt>
      <trkpt lat="43.57547" lon="1.25095">
        <ele>198.4</ele>
        <time>2024-07-11T06:42:46Z</time>
      </trkpt>
      <trkpt lat="43.57544" lon="1.25085">
        <ele>198.6</ele>
        <time>2024-07-11T06:42:47Z</time>
      </trkpt>
      <trkpt lat="43.57542" lon="1.25076">
        <ele>198.6</ele>
        <time>2024-07-11T06:42:48Z</time>
      </trkpt>
      <trkpt lat="43.57539" lon="1.25066">
        <ele>198.6</ele>
        <time>2024-07-11T06:42:49Z</time>
      </trkpt>
      <trkpt lat="43.57536" lon="1.25057">
        <ele>198.6</ele>
        <time>2024-07-11T06:42:50Z</time>
      </trkpt>
      <trkpt lat="43.57533" lon="1.25047">
        <ele>198.6</ele>
        <time>2024-07-11T06:42:51Z</time>
      </trkpt>
      <trkpt lat="43.5753" lon="1.25038">
        <ele>198.6</ele>
        <time>2024-07-11T06:42:52Z</time>
      </trkpt>
      <trkpt lat="43.57527" lon="1.25029">
        <ele>198.6</ele>
        <time>2024-07-11T06:42:53Z</time>
      </trkpt>
      <trkpt lat="43.57523" lon="1.25021">
        <ele>198.8</ele>
        <time>2024-07-11T06:42:54Z</time>
      </trkpt>
      <trkpt lat="43.5752" lon="1.25012">
        <ele>198.8</ele>
        <time>2024-07-11T06:42:55Z</time>
      </trkpt>
      <trkpt lat="43.57517" lon="1.25003">
        <ele>198.8</ele>
        <time>2024-07-11T06:42:56Z</time>
      </trkpt>
      <trkpt lat="43.57513" lon="1.24994">
        <ele>198.8</ele>
        <time>2024-07-11T06:42:57Z</time>
      </trkpt>
      <trkpt lat="43.5751" lon="1.24985">
        <ele>198.8</ele>
        <time>2024-07-11T06:42:58Z</time>
      </trkpt>
      <trkpt lat="43.57507" lon="1.24976">
        <ele>198.8</ele>
        <time>2024-07-11T06:42:59Z</time>
      </trkpt>
      <trkpt lat="43.57505" lon="1.24967">
        <ele>198.6</ele>
        <time>2024-07-11T06:43:00Z</time>
      </trkpt>
      <trkpt lat="43.57502" lon="1.24958">
        <ele>198.6</ele>
        <time>2024-07-11T06:43:01Z</time>
      </trkpt>
      <trkpt lat="43.575" lon="1.2495">
        <ele>198.6</ele>
        <time>2024-07-11T06:43:02Z</time>
      </trkpt>
      <trkpt lat="43.57498" lon="1.24941">
        <ele>198.6</ele>
        <time>2024-07-11T06:43:03Z</time>
      </trkpt>
      <trkpt lat="43.57495" lon="1.24931">
        <ele>198.8</ele>
        <time>2024-07-11T06:43:04Z</time>
      </trkpt>
      <trkpt lat="43.57492" lon="1.24922">
        <ele>198.8</ele>
        <time>2024-07-11T06:43:05Z</time>
      </trkpt>
      <trkpt lat="43.57489" lon="1.24913">
        <ele>198.8</ele>
        <time>2024-07-11T06:43:06Z</time>
      </trkpt>
      <trkpt lat="43.57486" lon="1.24903">
        <ele>198.8</ele>
        <time>2024-07-11T06:43:07Z</time>
      </trkpt>
      <trkpt lat="43.57483" lon="1.24893">
        <ele>199</ele>
        <time>2024-07-11T06:43:08Z</time>
      </trkpt>
      <trkpt lat="43.57481" lon="1.24883">
        <ele>199</ele>
        <time>2024-07-11T06:43:09Z</time>
      </trkpt>
      <trkpt lat="43.57479" lon="1.24873">
        <ele>199.2</ele>
        <time>2024-07-11T06:43:10Z</time>
      </trkpt>
      <trkpt lat="43.57477" lon="1.24863">
        <ele>199.2</ele>
        <time>2024-07-11T06:43:11Z</time>
      </trkpt>
      <trkpt lat="43.57475" lon="1.24854">
        <ele>199.2</ele>
        <time>2024-07-11T06:43:12Z</time>
      </trkpt>
      <trkpt lat="43.57474" lon="1.24844">
        <ele>199.2</ele>
        <time>2024-07-11T06:43:13Z</time>
      </trkpt>
      <trkpt lat="43.57472" lon="1.24835">
        <ele>199.2</ele>
        <time>2024-07-11T06:43:14Z</time>
      </trkpt>
      <trkpt lat="43.57471" lon="1.24824">
        <ele>199.2</ele>
        <time>2024-07-11T06:43:15Z</time>
      </trkpt>
      <trkpt lat="43.5747" lon="1.24814">
        <ele>199.2</ele>
        <time>2024-07-11T06:43:16Z</time>
      </trkpt>
      <trkpt lat="43.57468" lon="1.24804">
        <ele>199</ele>
        <time>2024-07-11T06:43:17Z</time>
      </trkpt>
      <trkpt lat="43.57467" lon="1.24794">
        <ele>199</ele>
        <time>2024-07-11T06:43:18Z</time>
      </trkpt>
      <trkpt lat="43.57467" lon="1.24784">
        <ele>199</ele>
        <time>2024-07-11T06:43:19Z</time>
      </trkpt>
      <trkpt lat="43.57467" lon="1.24774">
        <ele>199</ele>
        <time>2024-07-11T06:43:20Z</time>
      </trkpt>
      <trkpt lat="43.57469" lon="1.24764">
        <ele>198.8</ele>
        <time>2024-07-11T06:43:21Z</time>
      </trkpt>
      <trkpt lat="43.5747" lon="1.24754">
        <ele>198.8</ele>
        <time>2024-07-11T06:43:22Z</time>
      </trkpt>
      <trkpt lat="43.57472" lon="1.24745">
        <ele>198.8</ele>
        <time>2024-07-11T06:43:23Z</time>
      </trkpt>
      <trkpt lat="43.57474" lon="1.24735">
        <ele>198.8</ele>
        <time>2024-07-11T06:43:24Z</time>
      </trkpt>
      <trkpt lat="43.57476" lon="1.24725">
        <ele>198.8</ele>
        <time>2024-07-11T06:43:25Z</time>
      </trkpt>
      <trkpt lat="43.57477" lon="1.24715">
        <ele>198.8</ele>
        <time>2024-07-11T06:43:26Z</time>
      </trkpt>
      <trkpt lat="43.57478" lon="1.24705">
        <ele>198.8</ele>
        <time>2024-07-11T06:43:27Z</time>
      </trkpt>
      <trkpt lat="43.57478" lon="1.24694">
        <ele>198.8</ele>
        <time>2024-07-11T06:43:28Z</time>
      </trkpt>
      <trkpt lat="43.57479" lon="1.24683">
        <ele>198.8</ele>
        <time>2024-07-11T06:43:29Z</time>
      </trkpt>
      <trkpt lat="43.5748" lon="1.24672">
        <ele>198.8</ele>
        <time>2024-07-11T06:43:30Z</time>
      </trkpt>
      <trkpt lat="43.5748" lon="1.24661">
        <ele>198.8</ele>
        <time>2024-07-11T06:43:31Z</time>
      </trkpt>
      <trkpt lat="43.57481" lon="1.24651">
        <ele>198.8</ele>
        <time>2024-07-11T06:43:32Z</time>
      </trkpt>
      <trkpt lat="43.57481" lon="1.2464">
        <ele>198.8</ele>
        <time>2024-07-11T06:43:33Z</time>
      </trkpt>
      <trkpt lat="43.57481" lon="1.2463">
        <ele>198.8</ele>
        <time>2024-07-11T06:43:34Z</time>
      </trkpt>
      <trkpt lat="43.57481" lon="1.2462">
        <ele>198.8</ele>
        <time>2024-07-11T06:43:35Z</time>
      </trkpt>
      <trkpt lat="43.57482" lon="1.2461">
        <ele>199</ele>
        <time>2024-07-11T06:43:36Z</time>
      </trkpt>
      <trkpt lat="43.57482" lon="1.24599">
        <ele>199</ele>
        <time>2024-07-11T06:43:37Z</time>
      </trkpt>
      <trkpt lat="43.57482" lon="1.24589">
        <ele>199.2</ele>
        <time>2024-07-11T06:43:38Z</time>
      </trkpt>
      <trkpt lat="43.57481" lon="1.24579">
        <ele>199.2</ele>
        <time>2024-07-11T06:43:39Z</time>
      </trkpt>
      <trkpt lat="43.57481" lon="1.24569">
        <ele>199.2</ele>
        <time>2024-07-11T06:43:40Z</time>
      </trkpt>
      <trkpt lat="43.57481" lon="1.24558">
        <ele>199.2</ele>
        <time>2024-07-11T06:43:41Z</time>
      </trkpt>
      <trkpt lat="43.57481" lon="1.24548">
        <ele>199.2</ele>
        <time>2024-07-11T06:43:42Z</time>
      </trkpt>
      <trkpt lat="43.57481" lon="1.24539">
        <ele>199.4</ele>
        <time>2024-07-11T06:43:43Z</time>
      </trkpt>
      <trkpt lat="43.57481" lon="1.24529">
        <ele>199.6</ele>
        <time>2024-07-11T06:43:44Z</time>
      </trkpt>
      <trkpt lat="43.5748" lon="1.24519">
        <ele>199.6</ele>
        <time>2024-07-11T06:43:45Z</time>
      </trkpt>
      <trkpt lat="43.5748" lon="1.2451">
        <ele>199.8</ele>
        <time>2024-07-11T06:43:46Z</time>
      </trkpt>
      <trkpt lat="43.57479" lon="1.245">
        <ele>200</ele>
        <time>2024-07-11T06:43:47Z</time>
      </trkpt>
      <trkpt lat="43.57479" lon="1.2449">
        <ele>200</ele>
        <time>2024-07-11T06:43:48Z</time>
      </trkpt>
      <trkpt lat="43.5748" lon="1.2448">
        <ele>200.2</ele>
        <time>2024-07-11T06:43:49Z</time>
      </trkpt>
      <trkpt lat="43.57481" lon="1.24471">
        <ele>200.2</ele>
        <time>2024-07-11T06:43:50Z</time>
      </trkpt>
      <trkpt lat="43.57482" lon="1.24462">
        <ele>200.4</ele>
        <time>2024-07-11T06:43:51Z</time>
      </trkpt>
      <trkpt lat="43.57483" lon="1.24452">
        <ele>200.4</ele>
        <time>2024-07-11T06:43:52Z</time>
      </trkpt>
      <trkpt lat="43.57481" lon="1.24443">
        <ele>200.4</ele>
        <time>2024-07-11T06:43:53Z</time>
      </trkpt>
      <trkpt lat="43.57479" lon="1.24434">
        <ele>200.4</ele>
        <time>2024-07-11T06:43:54Z</time>
      </trkpt>
      <trkpt lat="43.57477" lon="1.24425">
        <ele>200.4</ele>
        <time>2024-07-11T06:43:55Z</time>
      </trkpt>
      <trkpt lat="43.57475" lon="1.24416">
        <ele>200.6</ele>
        <time>2024-07-11T06:43:56Z</time>
      </trkpt>
      <trkpt lat="43.57474" lon="1.24406">
        <ele>200.6</ele>
        <time>2024-07-11T06:43:57Z</time>
      </trkpt>
      <trkpt lat="43.57472" lon="1.24396">
        <ele>200.6</ele>
        <time>2024-07-11T06:43:58Z</time>
      </trkpt>
      <trkpt lat="43.57471" lon="1.24386">
        <ele>200.6</ele>
        <time>2024-07-11T06:43:59Z</time>
      </trkpt>
      <trkpt lat="43.5747" lon="1.24376">
        <ele>200.6</ele>
        <time>2024-07-11T06:44:00Z</time>
      </trkpt>
      <trkpt lat="43.57469" lon="1.24366">
        <ele>200.6</ele>
        <time>2024-07-11T06:44:01Z</time>
      </trkpt>
      <trkpt lat="43.57467" lon="1.24356">
        <ele>200.6</ele>
        <time>2024-07-11T06:44:02Z</time>
      </trkpt>
      <trkpt lat="43.57466" lon="1.24345">
        <ele>200.6</ele>
        <time>2024-07-11T06:44:03Z</time>
      </trkpt>
      <trkpt lat="43.57465" lon="1.24335">
        <ele>200.6</ele>
        <time>2024-07-11T06:44:04Z</time>
      </trkpt>
      <trkpt lat="43.57464" lon="1.24325">
        <ele>200.6</ele>
        <time>2024-07-11T06:44:05Z</time>
      </trkpt>
      <trkpt lat="43.57463" lon="1.24315">
        <ele>200.6</ele>
        <time>2024-07-11T06:44:06Z</time>
      </trkpt>
      <trkpt lat="43.57462" lon="1.24304">
        <ele>200.8</ele>
        <time>2024-07-11T06:44:07Z</time>
      </trkpt>
      <trkpt lat="43.57461" lon="1.24294">
        <ele>200.8</ele>
        <time>2024-07-11T06:44:08Z</time>
      </trkpt>
      <trkpt lat="43.57461" lon="1.24284">
        <ele>200.8</ele>
        <time>2024-07-11T06:44:09Z</time>
      </trkpt>
      <trkpt lat="43.57461" lon="1.24273">
        <ele>200.8</ele>
        <time>2024-07-11T06:44:10Z</time>
      </trkpt>
      <trkpt lat="43.57462" lon="1.24263">
        <ele>200.8</ele>
        <time>2024-07-11T06:44:11Z</time>
      </trkpt>
      <trkpt lat="43.57464" lon="1.24252">
        <ele>200.8</ele>
        <time>2024-07-11T06:44:12Z</time>
      </trkpt>
      <trkpt lat="43.57466" lon="1.24242">
        <ele>200.8</ele>
        <time>2024-07-11T06:44:13Z</time>
      </trkpt>
      <trkpt lat="43.57468" lon="1.24232">
        <ele>200.8</ele>
        <time>2024-07-11T06:44:14Z</time>
      </trkpt>
      <trkpt lat="43.57471" lon="1.24222">
        <ele>200.8</ele>
        <time>2024-07-11T06:44:15Z</time>
      </trkpt>
      <trkpt lat="43.57473" lon="1.24213">
        <ele>200.8</ele>
        <time>2024-07-11T06:44:16Z</time>
      </trkpt>
      <trkpt lat="43.57476" lon="1.24203">
        <ele>200.8</ele>
        <time>2024-07-11T06:44:17Z</time>
      </trkpt>
      <trkpt lat="43.57478" lon="1.24193">
        <ele>200.8</ele>
        <time>2024-07-11T06:44:18Z</time>
      </trkpt>
      <trkpt lat="43.5748" lon="1.24183">
        <ele>200.8</ele>
        <time>2024-07-11T06:44:19Z</time>
      </trkpt>
      <trkpt lat="43.57483" lon="1.24173">
        <ele>200.8</ele>
        <time>2024-07-11T06:44:20Z</time>
      </trkpt>
      <trkpt lat="43.57485" lon="1.24163">
        <ele>200.8</ele>
        <time>2024-07-11T06:44:21Z</time>
      </trkpt>
      <trkpt lat="43.57487" lon="1.24153">
        <ele>200.8</ele>
        <time>2024-07-11T06:44:22Z</time>
      </trkpt>
      <trkpt lat="43.5749" lon="1.24143">
        <ele>200.8</ele>
        <time>2024-07-11T06:44:23Z</time>
      </trkpt>
      <trkpt lat="43.57492" lon="1.24134">
        <ele>200.8</ele>
        <time>2024-07-11T06:44:24Z</time>
      </trkpt>
      <trkpt lat="43.57494" lon="1.24124">
        <ele>200.8</ele>
        <time>2024-07-11T06:44:25Z</time>
      </trkpt>
      <trkpt lat="43.57497" lon="1.24114">
        <ele>200.8</ele>
        <time>2024-07-11T06:44:26Z</time>
      </trkpt>
      <trkpt lat="43.57498" lon="1.24106">
        <ele>200.8</ele>
        <time>2024-07-11T06:44:27Z</time>
      </trkpt>
      <trkpt lat="43.57501" lon="1.24097">
        <ele>200.8</ele>
        <time>2024-07-11T06:44:28Z</time>
      </trkpt>
      <trkpt lat="43.57503" lon="1.24087">
        <ele>200.8</ele>
        <time>2024-07-11T06:44:29Z</time>
      </trkpt>
      <trkpt lat="43.57506" lon="1.24077">
        <ele>200.8</ele>
        <time>2024-07-11T06:44:30Z</time>
      </trkpt>
      <trkpt lat="43.57508" lon="1.24068">
        <ele>200.8</ele>
        <time>2024-07-11T06:44:31Z</time>
      </trkpt>
      <trkpt lat="43.5751" lon="1.24058">
        <ele>201</ele>
        <time>2024-07-11T06:44:32Z</time>
      </trkpt>
      <trkpt lat="43.57513" lon="1.24048">
        <ele>201</ele>
        <time>2024-07-11T06:44:33Z</time>
      </trkpt>
      <trkpt lat="43.57515" lon="1.24038">
        <ele>201</ele>
        <time>2024-07-11T06:44:34Z</time>
      </trkpt>
      <trkpt lat="43.57517" lon="1.24028">
        <ele>201.2</ele>
        <time>2024-07-11T06:44:35Z</time>
      </trkpt>
      <trkpt lat="43.5752" lon="1.24019">
        <ele>201.2</ele>
        <time>2024-07-11T06:44:36Z</time>
      </trkpt>
      <trkpt lat="43.57522" lon="1.24009">
        <ele>201.2</ele>
        <time>2024-07-11T06:44:37Z</time>
      </trkpt>
      <trkpt lat="43.57524" lon="1.23999">
        <ele>201.2</ele>
        <time>2024-07-11T06:44:38Z</time>
      </trkpt>
      <trkpt lat="43.57526" lon="1.23989">
        <ele>201.2</ele>
        <time>2024-07-11T06:44:39Z</time>
      </trkpt>
      <trkpt lat="43.57529" lon="1.23979">
        <ele>201.2</ele>
        <time>2024-07-11T06:44:40Z</time>
      </trkpt>
      <trkpt lat="43.57531" lon="1.23969">
        <ele>201.2</ele>
        <time>2024-07-11T06:44:41Z</time>
      </trkpt>
      <trkpt lat="43.57534" lon="1.2396">
        <ele>201.4</ele>
        <time>2024-07-11T06:44:42Z</time>
      </trkpt>
      <trkpt lat="43.57536" lon="1.2395">
        <ele>201.4</ele>
        <time>2024-07-11T06:44:43Z</time>
      </trkpt>
      <trkpt lat="43.57538" lon="1.2394">
        <ele>201.6</ele>
        <time>2024-07-11T06:44:44Z</time>
      </trkpt>
      <trkpt lat="43.5754" lon="1.23931">
        <ele>201.6</ele>
        <time>2024-07-11T06:44:45Z</time>
      </trkpt>
      <trkpt lat="43.57543" lon="1.23921">
        <ele>201.6</ele>
        <time>2024-07-11T06:44:46Z</time>
      </trkpt>
      <trkpt lat="43.57545" lon="1.23912">
        <ele>201.8</ele>
        <time>2024-07-11T06:44:47Z</time>
      </trkpt>
      <trkpt lat="43.57547" lon="1.23902">
        <ele>201.8</ele>
        <time>2024-07-11T06:44:48Z</time>
      </trkpt>
      <trkpt lat="43.57549" lon="1.23893">
        <ele>202</ele>
        <time>2024-07-11T06:44:49Z</time>
      </trkpt>
      <trkpt lat="43.57552" lon="1.23883">
        <ele>202</ele>
        <time>2024-07-11T06:44:50Z</time>
      </trkpt>
      <trkpt lat="43.57554" lon="1.23874">
        <ele>202</ele>
        <time>2024-07-11T06:44:51Z</time>
      </trkpt>
      <trkpt lat="43.57556" lon="1.23864">
        <ele>202.2</ele>
        <time>2024-07-11T06:44:52Z</time>
      </trkpt>
      <trkpt lat="43.57558" lon="1.23855">
        <ele>202.4</ele>
        <time>2024-07-11T06:44:53Z</time>
      </trkpt>
      <trkpt lat="43.57561" lon="1.23846">
        <ele>202.4</ele>
        <time>2024-07-11T06:44:54Z</time>
      </trkpt>
      <trkpt lat="43.57563" lon="1.23837">
        <ele>202.4</ele>
        <time>2024-07-11T06:44:55Z</time>
      </trkpt>
      <trkpt lat="43.57565" lon="1.23828">
        <ele>202.6</ele>
        <time>2024-07-11T06:44:56Z</time>
      </trkpt>
      <trkpt lat="43.57567" lon="1.23818">
        <ele>202.8</ele>
        <time>2024-07-11T06:44:57Z</time>
      </trkpt>
      <trkpt lat="43.57569" lon="1.23809">
        <ele>203</ele>
        <time>2024-07-11T06:44:58Z</time>
      </trkpt>
      <trkpt lat="43.57571" lon="1.238">
        <ele>203.2</ele>
        <time>2024-07-11T06:44:59Z</time>
      </trkpt>
      <trkpt lat="43.57574" lon="1.23791">
        <ele>203.4</ele>
        <time>2024-07-11T06:45:00Z</time>
      </trkpt>
      <trkpt lat="43.57576" lon="1.23782">
        <ele>203.4</ele>
        <time>2024-07-11T06:45:01Z</time>
      </trkpt>
      <trkpt lat="43.57578" lon="1.23773">
        <ele>203.6</ele>
        <time>2024-07-11T06:45:02Z</time>
      </trkpt>
      <trkpt lat="43.5758" lon="1.23764">
        <ele>203.8</ele>
        <time>2024-07-11T06:45:03Z</time>
      </trkpt>
      <trkpt lat="43.57582" lon="1.23755">
        <ele>203.8</ele>
        <time>2024-07-11T06:45:04Z</time>
      </trkpt>
      <trkpt lat="43.57584" lon="1.23746">
        <ele>204.2</ele>
        <time>2024-07-11T06:45:05Z</time>
      </trkpt>
      <trkpt lat="43.57586" lon="1.23737">
        <ele>204.4</ele>
        <time>2024-07-11T06:45:06Z</time>
      </trkpt>
      <trkpt lat="43.57588" lon="1.23728">
        <ele>204.6</ele>
        <time>2024-07-11T06:45:07Z</time>
      </trkpt>
      <trkpt lat="43.5759" lon="1.23718">
        <ele>204.8</ele>
        <time>2024-07-11T06:45:08Z</time>
      </trkpt>
      <trkpt lat="43.57591" lon="1.23709">
        <ele>205.2</ele>
        <time>2024-07-11T06:45:09Z</time>
      </trkpt>
      <trkpt lat="43.57591" lon="1.23699">
        <ele>205.2</ele>
        <time>2024-07-11T06:45:10Z</time>
      </trkpt>
      <trkpt lat="43.57591" lon="1.23689">
        <ele>205.4</ele>
        <time>2024-07-11T06:45:11Z</time>
      </trkpt>
      <trkpt lat="43.5759" lon="1.23679">
        <ele>205.4</ele>
        <time>2024-07-11T06:45:12Z</time>
      </trkpt>
      <trkpt lat="43.57588" lon="1.2367">
        <ele>205.6</ele>
        <time>2024-07-11T06:45:13Z</time>
      </trkpt>
      <trkpt lat="43.57588" lon="1.2367">
        <ele>205.6</ele>
        <time>2024-07-11T06:45:14Z</time>
      </trkpt>
      <trkpt lat="43.57586" lon="1.23651">
        <ele>205.6</ele>
        <time>2024-07-11T06:45:15Z</time>
      </trkpt>
      <trkpt lat="43.57584" lon="1.23641">
        <ele>205.8</ele>
        <time>2024-07-11T06:45:16Z</time>
      </trkpt>
      <trkpt lat="43.57583" lon="1.23631">
        <ele>205.8</ele>
        <time>2024-07-11T06:45:17Z</time>
      </trkpt>
      <trkpt lat="43.57582" lon="1.23621">
        <ele>205.8</ele>
        <time>2024-07-11T06:45:18Z</time>
      </trkpt>
      <trkpt lat="43.57581" lon="1.23611">
        <ele>205.8</ele>
        <time>2024-07-11T06:45:19Z</time>
      </trkpt>
      <trkpt lat="43.5758" lon="1.23601">
        <ele>205.8</ele>
        <time>2024-07-11T06:45:20Z</time>
      </trkpt>
      <trkpt lat="43.57579" lon="1.23591">
        <ele>205.8</ele>
        <time>2024-07-11T06:45:21Z</time>
      </trkpt>
      <trkpt lat="43.57578" lon="1.23581">
        <ele>205.8</ele>
        <time>2024-07-11T06:45:22Z</time>
      </trkpt>
      <trkpt lat="43.57576" lon="1.23571">
        <ele>206</ele>
        <time>2024-07-11T06:45:23Z</time>
      </trkpt>
      <trkpt lat="43.57575" lon="1.23561">
        <ele>206</ele>
        <time>2024-07-11T06:45:24Z</time>
      </trkpt>
      <trkpt lat="43.57574" lon="1.23552">
        <ele>206.2</ele>
        <time>2024-07-11T06:45:25Z</time>
      </trkpt>
      <trkpt lat="43.57573" lon="1.23542">
        <ele>206.2</ele>
        <time>2024-07-11T06:45:26Z</time>
      </trkpt>
      <trkpt lat="43.57572" lon="1.23532">
        <ele>206.4</ele>
        <time>2024-07-11T06:45:27Z</time>
      </trkpt>
      <trkpt lat="43.5757" lon="1.23522">
        <ele>206.4</ele>
        <time>2024-07-11T06:45:28Z</time>
      </trkpt>
      <trkpt lat="43.57569" lon="1.23512">
        <ele>206.4</ele>
        <time>2024-07-11T06:45:29Z</time>
      </trkpt>
      <trkpt lat="43.57568" lon="1.23502">
        <ele>206.6</ele>
        <time>2024-07-11T06:45:30Z</time>
      </trkpt>
      <trkpt lat="43.57567" lon="1.23492">
        <ele>206.6</ele>
        <time>2024-07-11T06:45:31Z</time>
      </trkpt>
      <trkpt lat="43.57565" lon="1.23482">
        <ele>206.6</ele>
        <time>2024-07-11T06:45:32Z</time>
      </trkpt>
      <trkpt lat="43.57564" lon="1.23471">
        <ele>206.6</ele>
        <time>2024-07-11T06:45:33Z</time>
      </trkpt>
      <trkpt lat="43.57563" lon="1.23461">
        <ele>206.6</ele>
        <time>2024-07-11T06:45:34Z</time>
      </trkpt>
      <trkpt lat="43.57561" lon="1.23451">
        <ele>206.6</ele>
        <time>2024-07-11T06:45:35Z</time>
      </trkpt>
      <trkpt lat="43.5756" lon="1.23441">
        <ele>206.6</ele>
        <time>2024-07-11T06:45:36Z</time>
      </trkpt>
      <trkpt lat="43.57559" lon="1.23431">
        <ele>206.8</ele>
        <time>2024-07-11T06:45:37Z</time>
      </trkpt>
      <trkpt lat="43.57557" lon="1.23421">
        <ele>206.8</ele>
        <time>2024-07-11T06:45:38Z</time>
      </trkpt>
      <trkpt lat="43.57556" lon="1.23411">
        <ele>206.8</ele>
        <time>2024-07-11T06:45:39Z</time>
      </trkpt>
      <trkpt lat="43.57555" lon="1.23401">
        <ele>206.8</ele>
        <time>2024-07-11T06:45:40Z</time>
      </trkpt>
      <trkpt lat="43.57553" lon="1.23391">
        <ele>206.8</ele>
        <time>2024-07-11T06:45:41Z</time>
      </trkpt>
      <trkpt lat="43.57552" lon="1.2338">
        <ele>206.8</ele>
        <time>2024-07-11T06:45:42Z</time>
      </trkpt>
      <trkpt lat="43.57551" lon="1.23371">
        <ele>206.8</ele>
        <time>2024-07-11T06:45:43Z</time>
      </trkpt>
      <trkpt lat="43.5755" lon="1.2336">
        <ele>206.8</ele>
        <time>2024-07-11T06:45:44Z</time>
      </trkpt>
      <trkpt lat="43.57548" lon="1.2335">
        <ele>206.8</ele>
        <time>2024-07-11T06:45:45Z</time>
      </trkpt>
      <trkpt lat="43.57547" lon="1.2334">
        <ele>206.8</ele>
        <time>2024-07-11T06:45:46Z</time>
      </trkpt>
      <trkpt lat="43.57546" lon="1.2333">
        <ele>206.6</ele>
        <time>2024-07-11T06:45:47Z</time>
      </trkpt>
      <trkpt lat="43.57544" lon="1.2332">
        <ele>206.6</ele>
        <time>2024-07-11T06:45:48Z</time>
      </trkpt>
      <trkpt lat="43.57543" lon="1.23309">
        <ele>206.6</ele>
        <time>2024-07-11T06:45:49Z</time>
      </trkpt>
      <trkpt lat="43.57542" lon="1.23299">
        <ele>206.6</ele>
        <time>2024-07-11T06:45:50Z</time>
      </trkpt>
      <trkpt lat="43.57541" lon="1.23288">
        <ele>206.6</ele>
        <time>2024-07-11T06:45:51Z</time>
      </trkpt>
      <trkpt lat="43.5754" lon="1.23277">
        <ele>206.4</ele>
        <time>2024-07-11T06:45:52Z</time>
      </trkpt>
      <trkpt lat="43.5754" lon="1.23265">
        <ele>206.4</ele>
        <time>2024-07-11T06:45:53Z</time>
      </trkpt>
      <trkpt lat="43.57541" lon="1.23254">
        <ele>206.4</ele>
        <time>2024-07-11T06:45:54Z</time>
      </trkpt>
      <trkpt lat="43.57542" lon="1.23244">
        <ele>206.4</ele>
        <time>2024-07-11T06:45:55Z</time>
      </trkpt>
      <trkpt lat="43.57543" lon="1.23233">
        <ele>206.4</ele>
        <time>2024-07-11T06:45:56Z</time>
      </trkpt>
      <trkpt lat="43.57545" lon="1.23223">
        <ele>206.4</ele>
        <time>2024-07-11T06:45:57Z</time>
      </trkpt>
      <trkpt lat="43.57547" lon="1.23212">
        <ele>206.2</ele>
        <time>2024-07-11T06:45:58Z</time>
      </trkpt>
      <trkpt lat="43.57549" lon="1.23201">
        <ele>206.2</ele>
        <time>2024-07-11T06:45:59Z</time>
      </trkpt>
      <trkpt lat="43.5755" lon="1.2319">
        <ele>206</ele>
        <time>2024-07-11T06:46:00Z</time>
      </trkpt>
      <trkpt lat="43.57552" lon="1.2318">
        <ele>206</ele>
        <time>2024-07-11T06:46:01Z</time>
      </trkpt>
      <trkpt lat="43.57554" lon="1.23169">
        <ele>206</ele>
        <time>2024-07-11T06:46:02Z</time>
      </trkpt>
      <trkpt lat="43.57556" lon="1.23159">
        <ele>206</ele>
        <time>2024-07-11T06:46:03Z</time>
      </trkpt>
      <trkpt lat="43.57558" lon="1.23148">
        <ele>205.8</ele>
        <time>2024-07-11T06:46:04Z</time>
      </trkpt>
      <trkpt lat="43.5756" lon="1.23138">
        <ele>205.6</ele>
        <time>2024-07-11T06:46:05Z</time>
      </trkpt>
      <trkpt lat="43.57562" lon="1.23127">
        <ele>205.6</ele>
        <time>2024-07-11T06:46:06Z</time>
      </trkpt>
      <trkpt lat="43.57564" lon="1.23117">
        <ele>205.6</ele>
        <time>2024-07-11T06:46:07Z</time>
      </trkpt>
      <trkpt lat="43.57566" lon="1.23106">
        <ele>205.6</ele>
        <time>2024-07-11T06:46:08Z</time>
      </trkpt>
      <trkpt lat="43.57569" lon="1.23094">
        <ele>205.6</ele>
        <time>2024-07-11T06:46:09Z</time>
      </trkpt>
      <trkpt lat="43.57572" lon="1.23084">
        <ele>205.6</ele>
        <time>2024-07-11T06:46:10Z</time>
      </trkpt>
      <trkpt lat="43.57575" lon="1.23074">
        <ele>205.6</ele>
        <time>2024-07-11T06:46:11Z</time>
      </trkpt>
      <trkpt lat="43.57579" lon="1.23065">
        <ele>205.6</ele>
        <time>2024-07-11T06:46:12Z</time>
      </trkpt>
      <trkpt lat="43.57583" lon="1.23055">
        <ele>205.6</ele>
        <time>2024-07-11T06:46:13Z</time>
      </trkpt>
      <trkpt lat="43.57587" lon="1.23046">
        <ele>205.6</ele>
        <time>2024-07-11T06:46:14Z</time>
      </trkpt>
      <trkpt lat="43.57591" lon="1.23037">
        <ele>205.6</ele>
        <time>2024-07-11T06:46:15Z</time>
      </trkpt>
      <trkpt lat="43.57595" lon="1.23028">
        <ele>205.8</ele>
        <time>2024-07-11T06:46:16Z</time>
      </trkpt>
      <trkpt lat="43.57599" lon="1.23021">
        <ele>205.8</ele>
        <time>2024-07-11T06:46:17Z</time>
      </trkpt>
      <trkpt lat="43.57604" lon="1.23012">
        <ele>205.8</ele>
        <time>2024-07-11T06:46:18Z</time>
      </trkpt>
      <trkpt lat="43.57609" lon="1.23002">
        <ele>206</ele>
        <time>2024-07-11T06:46:19Z</time>
      </trkpt>
      <trkpt lat="43.57614" lon="1.22993">
        <ele>206</ele>
        <time>2024-07-11T06:46:20Z</time>
      </trkpt>
      <trkpt lat="43.57618" lon="1.22986">
        <ele>206</ele>
        <time>2024-07-11T06:46:21Z</time>
      </trkpt>
      <trkpt lat="43.57623" lon="1.22978">
        <ele>206</ele>
        <time>2024-07-11T06:46:22Z</time>
      </trkpt>
      <trkpt lat="43.57628" lon="1.2297">
        <ele>206</ele>
        <time>2024-07-11T06:46:23Z</time>
      </trkpt>
      <trkpt lat="43.57634" lon="1.2296">
        <ele>205.8</ele>
        <time>2024-07-11T06:46:24Z</time>
      </trkpt>
      <trkpt lat="43.57639" lon="1.22952">
        <ele>205.8</ele>
        <time>2024-07-11T06:46:25Z</time>
      </trkpt>
      <trkpt lat="43.57644" lon="1.22947">
        <ele>205.8</ele>
        <time>2024-07-11T06:46:26Z</time>
      </trkpt>
      <trkpt lat="43.57649" lon="1.22939">
        <ele>205.8</ele>
        <time>2024-07-11T06:46:27Z</time>
      </trkpt>
      <trkpt lat="43.57656" lon="1.2293">
        <ele>205.8</ele>
        <time>2024-07-11T06:46:28Z</time>
      </trkpt>
      <trkpt lat="43.57662" lon="1.22923">
        <ele>205.8</ele>
        <time>2024-07-11T06:46:29Z</time>
      </trkpt>
      <trkpt lat="43.57667" lon="1.22916">
        <ele>206</ele>
        <time>2024-07-11T06:46:30Z</time>
      </trkpt>
      <trkpt lat="43.57672" lon="1.2291">
        <ele>205.8</ele>
        <time>2024-07-11T06:46:31Z</time>
      </trkpt>
      <trkpt lat="43.57677" lon="1.22903">
        <ele>205.8</ele>
        <time>2024-07-11T06:46:32Z</time>
      </trkpt>
      <trkpt lat="43.57684" lon="1.22894">
        <ele>205.8</ele>
        <time>2024-07-11T06:46:33Z</time>
      </trkpt>
      <trkpt lat="43.57689" lon="1.22886">
        <ele>205.8</ele>
        <time>2024-07-11T06:46:34Z</time>
      </trkpt>
      <trkpt lat="43.57695" lon="1.22879">
        <ele>205.8</ele>
        <time>2024-07-11T06:46:35Z</time>
      </trkpt>
      <trkpt lat="43.57699" lon="1.22873">
        <ele>205.8</ele>
        <time>2024-07-11T06:46:36Z</time>
      </trkpt>
      <trkpt lat="43.57706" lon="1.22865">
        <ele>205.8</ele>
        <time>2024-07-11T06:46:37Z</time>
      </trkpt>
      <trkpt lat="43.57711" lon="1.22857">
        <ele>205.8</ele>
        <time>2024-07-11T06:46:38Z</time>
      </trkpt>
      <trkpt lat="43.57716" lon="1.2285">
        <ele>205.8</ele>
        <time>2024-07-11T06:46:39Z</time>
      </trkpt>
      <trkpt lat="43.57721" lon="1.22842">
        <ele>205.8</ele>
        <time>2024-07-11T06:46:40Z</time>
      </trkpt>
      <trkpt lat="43.57725" lon="1.22833">
        <ele>205.8</ele>
        <time>2024-07-11T06:46:41Z</time>
      </trkpt>
      <trkpt lat="43.57729" lon="1.22824">
        <ele>205.8</ele>
        <time>2024-07-11T06:46:42Z</time>
      </trkpt>
      <trkpt lat="43.57733" lon="1.22815">
        <ele>205.8</ele>
        <time>2024-07-11T06:46:43Z</time>
      </trkpt>
      <trkpt lat="43.57736" lon="1.22806">
        <ele>205.8</ele>
        <time>2024-07-11T06:46:44Z</time>
      </trkpt>
      <trkpt lat="43.5774" lon="1.22797">
        <ele>205.8</ele>
        <time>2024-07-11T06:46:45Z</time>
      </trkpt>
      <trkpt lat="43.57743" lon="1.22787">
        <ele>205.8</ele>
        <time>2024-07-11T06:46:46Z</time>
      </trkpt>
      <trkpt lat="43.57746" lon="1.2278">
        <ele>205.8</ele>
        <time>2024-07-11T06:46:47Z</time>
      </trkpt>
      <trkpt lat="43.5775" lon="1.22769">
        <ele>205.8</ele>
        <time>2024-07-11T06:46:48Z</time>
      </trkpt>
      <trkpt lat="43.57753" lon="1.22759">
        <ele>206</ele>
        <time>2024-07-11T06:46:49Z</time>
      </trkpt>
      <trkpt lat="43.57757" lon="1.2275">
        <ele>206</ele>
        <time>2024-07-11T06:46:50Z</time>
      </trkpt>
      <trkpt lat="43.57759" lon="1.22743">
        <ele>206.2</ele>
        <time>2024-07-11T06:46:51Z</time>
      </trkpt>
      <trkpt lat="43.57763" lon="1.22732">
        <ele>206.2</ele>
        <time>2024-07-11T06:46:52Z</time>
      </trkpt>
      <trkpt lat="43.57767" lon="1.22723">
        <ele>206.2</ele>
        <time>2024-07-11T06:46:53Z</time>
      </trkpt>
      <trkpt lat="43.5777" lon="1.22714">
        <ele>206.2</ele>
        <time>2024-07-11T06:46:54Z</time>
      </trkpt>
      <trkpt lat="43.57774" lon="1.22705">
        <ele>206.2</ele>
        <time>2024-07-11T06:46:55Z</time>
      </trkpt>
      <trkpt lat="43.57777" lon="1.22695">
        <ele>206.4</ele>
        <time>2024-07-11T06:46:56Z</time>
      </trkpt>
      <trkpt lat="43.57779" lon="1.22686">
        <ele>206.6</ele>
        <time>2024-07-11T06:46:57Z</time>
      </trkpt>
      <trkpt lat="43.57782" lon="1.22676">
        <ele>206.6</ele>
        <time>2024-07-11T06:46:58Z</time>
      </trkpt>
      <trkpt lat="43.57784" lon="1.22666">
        <ele>206.6</ele>
        <time>2024-07-11T06:46:59Z</time>
      </trkpt>
      <trkpt lat="43.57786" lon="1.22656">
        <ele>206.6</ele>
        <time>2024-07-11T06:47:00Z</time>
      </trkpt>
      <trkpt lat="43.57787" lon="1.22646">
        <ele>206.6</ele>
        <time>2024-07-11T06:47:01Z</time>
      </trkpt>
      <trkpt lat="43.57789" lon="1.22636">
        <ele>206.6</ele>
        <time>2024-07-11T06:47:02Z</time>
      </trkpt>
      <trkpt lat="43.57791" lon="1.22626">
        <ele>206.6</ele>
        <time>2024-07-11T06:47:03Z</time>
      </trkpt>
      <trkpt lat="43.57793" lon="1.22616">
        <ele>206.4</ele>
        <time>2024-07-11T06:47:04Z</time>
      </trkpt>
      <trkpt lat="43.57794" lon="1.22607">
        <ele>206.4</ele>
        <time>2024-07-11T06:47:05Z</time>
      </trkpt>
      <trkpt lat="43.57796" lon="1.22595">
        <ele>206.4</ele>
        <time>2024-07-11T06:47:06Z</time>
      </trkpt>
      <trkpt lat="43.57797" lon="1.22585">
        <ele>206.4</ele>
        <time>2024-07-11T06:47:07Z</time>
      </trkpt>
      <trkpt lat="43.57799" lon="1.22574">
        <ele>206.4</ele>
        <time>2024-07-11T06:47:08Z</time>
      </trkpt>
      <trkpt lat="43.57801" lon="1.22566">
        <ele>206.4</ele>
        <time>2024-07-11T06:47:09Z</time>
      </trkpt>
      <trkpt lat="43.57802" lon="1.22556">
        <ele>206.4</ele>
        <time>2024-07-11T06:47:10Z</time>
      </trkpt>
      <trkpt lat="43.57804" lon="1.22543">
        <ele>206.4</ele>
        <time>2024-07-11T06:47:11Z</time>
      </trkpt>
      <trkpt lat="43.57806" lon="1.22532">
        <ele>206.4</ele>
        <time>2024-07-11T06:47:12Z</time>
      </trkpt>
      <trkpt lat="43.57808" lon="1.22522">
        <ele>206.4</ele>
        <time>2024-07-11T06:47:13Z</time>
      </trkpt>
      <trkpt lat="43.5781" lon="1.22511">
        <ele>206.4</ele>
        <time>2024-07-11T06:47:14Z</time>
      </trkpt>
      <trkpt lat="43.57811" lon="1.22503">
        <ele>206.4</ele>
        <time>2024-07-11T06:47:15Z</time>
      </trkpt>
      <trkpt lat="43.57813" lon="1.2249">
        <ele>206.4</ele>
        <time>2024-07-11T06:47:16Z</time>
      </trkpt>
      <trkpt lat="43.57816" lon="1.2248">
        <ele>206.2</ele>
        <time>2024-07-11T06:47:17Z</time>
      </trkpt>
      <trkpt lat="43.57818" lon="1.2247">
        <ele>206</ele>
        <time>2024-07-11T06:47:18Z</time>
      </trkpt>
      <trkpt lat="43.5782" lon="1.22459">
        <ele>206</ele>
        <time>2024-07-11T06:47:19Z</time>
      </trkpt>
      <trkpt lat="43.57822" lon="1.22451">
        <ele>205.8</ele>
        <time>2024-07-11T06:47:20Z</time>
      </trkpt>
      <trkpt lat="43.57826" lon="1.22438">
        <ele>205.8</ele>
        <time>2024-07-11T06:47:21Z</time>
      </trkpt>
      <trkpt lat="43.57828" lon="1.22428">
        <ele>205.6</ele>
        <time>2024-07-11T06:47:22Z</time>
      </trkpt>
      <trkpt lat="43.57831" lon="1.22418">
        <ele>205.6</ele>
        <time>2024-07-11T06:47:23Z</time>
      </trkpt>
      <trkpt lat="43.57833" lon="1.22407">
        <ele>205.6</ele>
        <time>2024-07-11T06:47:24Z</time>
      </trkpt>
      <trkpt lat="43.57836" lon="1.22397">
        <ele>205.6</ele>
        <time>2024-07-11T06:47:25Z</time>
      </trkpt>
      <trkpt lat="43.57839" lon="1.22387">
        <ele>205.6</ele>
        <time>2024-07-11T06:47:26Z</time>
      </trkpt>
      <trkpt lat="43.57841" lon="1.22376">
        <ele>205.4</ele>
        <time>2024-07-11T06:47:27Z</time>
      </trkpt>
      <trkpt lat="43.57844" lon="1.22366">
        <ele>205.4</ele>
        <time>2024-07-11T06:47:28Z</time>
      </trkpt>
      <trkpt lat="43.57846" lon="1.22357">
        <ele>205.4</ele>
        <time>2024-07-11T06:47:29Z</time>
      </trkpt>
      <trkpt lat="43.57849" lon="1.22345">
        <ele>205.4</ele>
        <time>2024-07-11T06:47:30Z</time>
      </trkpt>
      <trkpt lat="43.57852" lon="1.22335">
        <ele>205.4</ele>
        <time>2024-07-11T06:47:31Z</time>
      </trkpt>
      <trkpt lat="43.57854" lon="1.22324">
        <ele>205.4</ele>
        <time>2024-07-11T06:47:32Z</time>
      </trkpt>
      <trkpt lat="43.57857" lon="1.22314">
        <ele>205.4</ele>
        <time>2024-07-11T06:47:33Z</time>
      </trkpt>
      <trkpt lat="43.5786" lon="1.22304">
        <ele>205.4</ele>
        <time>2024-07-11T06:47:34Z</time>
      </trkpt>
      <trkpt lat="43.57863" lon="1.22293">
        <ele>205.4</ele>
        <time>2024-07-11T06:47:35Z</time>
      </trkpt>
      <trkpt lat="43.57866" lon="1.22283">
        <ele>205.4</ele>
        <time>2024-07-11T06:47:36Z</time>
      </trkpt>
      <trkpt lat="43.57869" lon="1.22273">
        <ele>205.4</ele>
        <time>2024-07-11T06:47:37Z</time>
      </trkpt>
      <trkpt lat="43.57872" lon="1.22263">
        <ele>205.4</ele>
        <time>2024-07-11T06:47:38Z</time>
      </trkpt>
      <trkpt lat="43.57875" lon="1.22253">
        <ele>205.4</ele>
        <time>2024-07-11T06:47:39Z</time>
      </trkpt>
      <trkpt lat="43.57879" lon="1.22243">
        <ele>205.4</ele>
        <time>2024-07-11T06:47:40Z</time>
      </trkpt>
      <trkpt lat="43.57882" lon="1.22233">
        <ele>205.4</ele>
        <time>2024-07-11T06:47:41Z</time>
      </trkpt>
      <trkpt lat="43.57885" lon="1.22225">
        <ele>205.4</ele>
        <time>2024-07-11T06:47:42Z</time>
      </trkpt>
      <trkpt lat="43.57889" lon="1.22213">
        <ele>205.4</ele>
        <time>2024-07-11T06:47:43Z</time>
      </trkpt>
      <trkpt lat="43.57893" lon="1.22203">
        <ele>205.4</ele>
        <time>2024-07-11T06:47:44Z</time>
      </trkpt>
      <trkpt lat="43.57897" lon="1.22193">
        <ele>205.2</ele>
        <time>2024-07-11T06:47:45Z</time>
      </trkpt>
      <trkpt lat="43.579" lon="1.22183">
        <ele>205.2</ele>
        <time>2024-07-11T06:47:46Z</time>
      </trkpt>
      <trkpt lat="43.57904" lon="1.22173">
        <ele>205.2</ele>
        <time>2024-07-11T06:47:47Z</time>
      </trkpt>
      <trkpt lat="43.57907" lon="1.22165">
        <ele>205.2</ele>
        <time>2024-07-11T06:47:48Z</time>
      </trkpt>
      <trkpt lat="43.57911" lon="1.22154">
        <ele>205.2</ele>
        <time>2024-07-11T06:47:49Z</time>
      </trkpt>
      <trkpt lat="43.57915" lon="1.22144">
        <ele>205</ele>
        <time>2024-07-11T06:47:50Z</time>
      </trkpt>
      <trkpt lat="43.57919" lon="1.22134">
        <ele>205</ele>
        <time>2024-07-11T06:47:51Z</time>
      </trkpt>
      <trkpt lat="43.57922" lon="1.22126">
        <ele>205</ele>
        <time>2024-07-11T06:47:52Z</time>
      </trkpt>
      <trkpt lat="43.57927" lon="1.22114">
        <ele>204.8</ele>
        <time>2024-07-11T06:47:53Z</time>
      </trkpt>
      <trkpt lat="43.57931" lon="1.22104">
        <ele>204.8</ele>
        <time>2024-07-11T06:47:54Z</time>
      </trkpt>
      <trkpt lat="43.57935" lon="1.22095">
        <ele>204.6</ele>
        <time>2024-07-11T06:47:55Z</time>
      </trkpt>
      <trkpt lat="43.57939" lon="1.22085">
        <ele>204.6</ele>
        <time>2024-07-11T06:47:56Z</time>
      </trkpt>
      <trkpt lat="43.57944" lon="1.22076">
        <ele>204.2</ele>
        <time>2024-07-11T06:47:57Z</time>
      </trkpt>
      <trkpt lat="43.57949" lon="1.22067">
        <ele>204.2</ele>
        <time>2024-07-11T06:47:58Z</time>
      </trkpt>
      <trkpt lat="43.57954" lon="1.22058">
        <ele>204.2</ele>
        <time>2024-07-11T06:47:59Z</time>
      </trkpt>
      <trkpt lat="43.57959" lon="1.22049">
        <ele>204</ele>
        <time>2024-07-11T06:48:00Z</time>
      </trkpt>
      <trkpt lat="43.57964" lon="1.2204">
        <ele>204</ele>
        <time>2024-07-11T06:48:01Z</time>
      </trkpt>
      <trkpt lat="43.57967" lon="1.22032">
        <ele>204</ele>
        <time>2024-07-11T06:48:02Z</time>
      </trkpt>
      <trkpt lat="43.57972" lon="1.2202">
        <ele>203.8</ele>
        <time>2024-07-11T06:48:03Z</time>
      </trkpt>
      <trkpt lat="43.57976" lon="1.2201">
        <ele>203.8</ele>
        <time>2024-07-11T06:48:04Z</time>
      </trkpt>
      <trkpt lat="43.57979" lon="1.22">
        <ele>203.8</ele>
        <time>2024-07-11T06:48:05Z</time>
      </trkpt>
      <trkpt lat="43.57981" lon="1.21992">
        <ele>203.8</ele>
        <time>2024-07-11T06:48:06Z</time>
      </trkpt>
      <trkpt lat="43.57985" lon="1.21979">
        <ele>203.8</ele>
        <time>2024-07-11T06:48:07Z</time>
      </trkpt>
      <trkpt lat="43.57988" lon="1.21969">
        <ele>203.8</ele>
        <time>2024-07-11T06:48:08Z</time>
      </trkpt>
      <trkpt lat="43.57991" lon="1.21959">
        <ele>203.8</ele>
        <time>2024-07-11T06:48:09Z</time>
      </trkpt>
      <trkpt lat="43.57995" lon="1.21949">
        <ele>203.8</ele>
        <time>2024-07-11T06:48:10Z</time>
      </trkpt>
      <trkpt lat="43.57998" lon="1.21939">
        <ele>203.8</ele>
        <time>2024-07-11T06:48:11Z</time>
      </trkpt>
      <trkpt lat="43.58001" lon="1.21929">
        <ele>203.8</ele>
        <time>2024-07-11T06:48:12Z</time>
      </trkpt>
      <trkpt lat="43.58004" lon="1.2192">
        <ele>203.8</ele>
        <time>2024-07-11T06:48:13Z</time>
      </trkpt>
      <trkpt lat="43.58007" lon="1.2191">
        <ele>203.8</ele>
        <time>2024-07-11T06:48:14Z</time>
      </trkpt>
      <trkpt lat="43.58011" lon="1.219">
        <ele>203.8</ele>
        <time>2024-07-11T06:48:15Z</time>
      </trkpt>
      <trkpt lat="43.58014" lon="1.21891">
        <ele>203.8</ele>
        <time>2024-07-11T06:48:16Z</time>
      </trkpt>
      <trkpt lat="43.58017" lon="1.21881">
        <ele>203.8</ele>
        <time>2024-07-11T06:48:17Z</time>
      </trkpt>
      <trkpt lat="43.58021" lon="1.21872">
        <ele>204</ele>
        <time>2024-07-11T06:48:18Z</time>
      </trkpt>
      <trkpt lat="43.58025" lon="1.21863">
        <ele>204</ele>
        <time>2024-07-11T06:48:19Z</time>
      </trkpt>
      <trkpt lat="43.58028" lon="1.21856">
        <ele>204</ele>
        <time>2024-07-11T06:48:20Z</time>
      </trkpt>
      <trkpt lat="43.58033" lon="1.21848">
        <ele>204</ele>
        <time>2024-07-11T06:48:21Z</time>
      </trkpt>
      <trkpt lat="43.58038" lon="1.2184">
        <ele>204</ele>
        <time>2024-07-11T06:48:22Z</time>
      </trkpt>
      <trkpt lat="43.58044" lon="1.21832">
        <ele>204</ele>
        <time>2024-07-11T06:48:23Z</time>
      </trkpt>
      <trkpt lat="43.58049" lon="1.21826">
        <ele>204</ele>
        <time>2024-07-11T06:48:24Z</time>
      </trkpt>
      <trkpt lat="43.58053" lon="1.21821">
        <ele>204.2</ele>
        <time>2024-07-11T06:48:25Z</time>
      </trkpt>
      <trkpt lat="43.58059" lon="1.21815">
        <ele>204.2</ele>
        <time>2024-07-11T06:48:26Z</time>
      </trkpt>
      <trkpt lat="43.58065" lon="1.21812">
        <ele>204.2</ele>
        <time>2024-07-11T06:48:27Z</time>
      </trkpt>
      <trkpt lat="43.58071" lon="1.21809">
        <ele>204.2</ele>
        <time>2024-07-11T06:48:28Z</time>
      </trkpt>
      <trkpt lat="43.58077" lon="1.21805">
        <ele>204.2</ele>
        <time>2024-07-11T06:48:29Z</time>
      </trkpt>
      <trkpt lat="43.58081" lon="1.21801">
        <ele>204.2</ele>
        <time>2024-07-11T06:48:30Z</time>
      </trkpt>
      <trkpt lat="43.58087" lon="1.21793">
        <ele>204.4</ele>
        <time>2024-07-11T06:48:31Z</time>
      </trkpt>
      <trkpt lat="43.5809" lon="1.21784">
        <ele>204.4</ele>
        <time>2024-07-11T06:48:32Z</time>
      </trkpt>
      <trkpt lat="43.5809" lon="1.21777">
        <ele>204.4</ele>
        <time>2024-07-11T06:48:33Z</time>
      </trkpt>
      <trkpt lat="43.5809" lon="1.21767">
        <ele>204.4</ele>
        <time>2024-07-11T06:48:34Z</time>
      </trkpt>
      <trkpt lat="43.58086" lon="1.21756">
        <ele>204.6</ele>
        <time>2024-07-11T06:48:35Z</time>
      </trkpt>
      <trkpt lat="43.58082" lon="1.21749">
        <ele>204.6</ele>
        <time>2024-07-11T06:48:36Z</time>
      </trkpt>
      <trkpt lat="43.58077" lon="1.21742">
        <ele>204.6</ele>
        <time>2024-07-11T06:48:37Z</time>
      </trkpt>
      <trkpt lat="43.58073" lon="1.21734">
        <ele>204.6</ele>
        <time>2024-07-11T06:48:38Z</time>
      </trkpt>
      <trkpt lat="43.5807" lon="1.21727">
        <ele>204.6</ele>
        <time>2024-07-11T06:48:39Z</time>
      </trkpt>
      <trkpt lat="43.58067" lon="1.21715">
        <ele>204.6</ele>
        <time>2024-07-11T06:48:40Z</time>
      </trkpt>
      <trkpt lat="43.58066" lon="1.21704">
        <ele>204.6</ele>
        <time>2024-07-11T06:48:41Z</time>
      </trkpt>
      <trkpt lat="43.58067" lon="1.21694">
        <ele>204.6</ele>
        <time>2024-07-11T06:48:42Z</time>
      </trkpt>
      <trkpt lat="43.58068" lon="1.21683">
        <ele>204.6</ele>
        <time>2024-07-11T06:48:43Z</time>
      </trkpt>
      <trkpt lat="43.5807" lon="1.21675">
        <ele>204.6</ele>
        <time>2024-07-11T06:48:44Z</time>
      </trkpt>
      <trkpt lat="43.58073" lon="1.21663">
        <ele>204.4</ele>
        <time>2024-07-11T06:48:45Z</time>
      </trkpt>
      <trkpt lat="43.58076" lon="1.21653">
        <ele>204.4</ele>
        <time>2024-07-11T06:48:46Z</time>
      </trkpt>
      <trkpt lat="43.58079" lon="1.21643">
        <ele>204.4</ele>
        <time>2024-07-11T06:48:47Z</time>
      </trkpt>
      <trkpt lat="43.58081" lon="1.21633">
        <ele>204.4</ele>
        <time>2024-07-11T06:48:48Z</time>
      </trkpt>
      <trkpt lat="43.58083" lon="1.21623">
        <ele>204.4</ele>
        <time>2024-07-11T06:48:49Z</time>
      </trkpt>
      <trkpt lat="43.58085" lon="1.21613">
        <ele>204.4</ele>
        <time>2024-07-11T06:48:50Z</time>
      </trkpt>
      <trkpt lat="43.58086" lon="1.21602">
        <ele>204.4</ele>
        <time>2024-07-11T06:48:51Z</time>
      </trkpt>
      <trkpt lat="43.58087" lon="1.21593">
        <ele>204.2</ele>
        <time>2024-07-11T06:48:52Z</time>
      </trkpt>
      <trkpt lat="43.58087" lon="1.21583">
        <ele>204</ele>
        <time>2024-07-11T06:48:53Z</time>
      </trkpt>
      <trkpt lat="43.58086" lon="1.2157">
        <ele>204</ele>
        <time>2024-07-11T06:48:54Z</time>
      </trkpt>
      <trkpt lat="43.58086" lon="1.21559">
        <ele>203.8</ele>
        <time>2024-07-11T06:48:55Z</time>
      </trkpt>
      <trkpt lat="43.58087" lon="1.21548">
        <ele>203.8</ele>
        <time>2024-07-11T06:48:56Z</time>
      </trkpt>
      <trkpt lat="43.58089" lon="1.21538">
        <ele>203.8</ele>
        <time>2024-07-11T06:48:57Z</time>
      </trkpt>
      <trkpt lat="43.58091" lon="1.2153">
        <ele>203.8</ele>
        <time>2024-07-11T06:48:58Z</time>
      </trkpt>
      <trkpt lat="43.58094" lon="1.21518">
        <ele>203.6</ele>
        <time>2024-07-11T06:48:59Z</time>
      </trkpt>
      <trkpt lat="43.58098" lon="1.21509">
        <ele>203.6</ele>
        <time>2024-07-11T06:49:00Z</time>
      </trkpt>
      <trkpt lat="43.58101" lon="1.21499">
        <ele>203.6</ele>
        <time>2024-07-11T06:49:01Z</time>
      </trkpt>
      <trkpt lat="43.58105" lon="1.2149">
        <ele>203.6</ele>
        <time>2024-07-11T06:49:02Z</time>
      </trkpt>
      <trkpt lat="43.58109" lon="1.2148">
        <ele>203.6</ele>
        <time>2024-07-11T06:49:03Z</time>
      </trkpt>
      <trkpt lat="43.58111" lon="1.21471">
        <ele>203.6</ele>
        <time>2024-07-11T06:49:04Z</time>
      </trkpt>
      <trkpt lat="43.58114" lon="1.2146">
        <ele>203.8</ele>
        <time>2024-07-11T06:49:05Z</time>
      </trkpt>
      <trkpt lat="43.58115" lon="1.2145">
        <ele>203.8</ele>
        <time>2024-07-11T06:49:06Z</time>
      </trkpt>
      <trkpt lat="43.58116" lon="1.21442">
        <ele>203.8</ele>
        <time>2024-07-11T06:49:07Z</time>
      </trkpt>
      <trkpt lat="43.58117" lon="1.21429">
        <ele>203.8</ele>
        <time>2024-07-11T06:49:08Z</time>
      </trkpt>
      <trkpt lat="43.58118" lon="1.21418">
        <ele>203.8</ele>
        <time>2024-07-11T06:49:09Z</time>
      </trkpt>
      <trkpt lat="43.58118" lon="1.21409">
        <ele>203.8</ele>
        <time>2024-07-11T06:49:10Z</time>
      </trkpt>
      <trkpt lat="43.58118" lon="1.21401">
        <ele>204</ele>
        <time>2024-07-11T06:49:11Z</time>
      </trkpt>
      <trkpt lat="43.58119" lon="1.21392">
        <ele>204</ele>
        <time>2024-07-11T06:49:12Z</time>
      </trkpt>
      <trkpt lat="43.58118" lon="1.21381">
        <ele>204</ele>
        <time>2024-07-11T06:49:13Z</time>
      </trkpt>
      <trkpt lat="43.58117" lon="1.21371">
        <ele>204</ele>
        <time>2024-07-11T06:49:14Z</time>
      </trkpt>
      <trkpt lat="43.58115" lon="1.21362">
        <ele>204</ele>
        <time>2024-07-11T06:49:15Z</time>
      </trkpt>
      <trkpt lat="43.58113" lon="1.21353">
        <ele>204</ele>
        <time>2024-07-11T06:49:16Z</time>
      </trkpt>
      <trkpt lat="43.5811" lon="1.21343">
        <ele>204</ele>
        <time>2024-07-11T06:49:17Z</time>
      </trkpt>
      <trkpt lat="43.58106" lon="1.21332">
        <ele>204</ele>
        <time>2024-07-11T06:49:18Z</time>
      </trkpt>
      <trkpt lat="43.58102" lon="1.21322">
        <ele>204</ele>
        <time>2024-07-11T06:49:19Z</time>
      </trkpt>
      <trkpt lat="43.58099" lon="1.21312">
        <ele>204</ele>
        <time>2024-07-11T06:49:20Z</time>
      </trkpt>
      <trkpt lat="43.58096" lon="1.21304">
        <ele>204</ele>
        <time>2024-07-11T06:49:21Z</time>
      </trkpt>
      <trkpt lat="43.58092" lon="1.21295">
        <ele>204</ele>
        <time>2024-07-11T06:49:22Z</time>
      </trkpt>
      <trkpt lat="43.58088" lon="1.21284">
        <ele>204</ele>
        <time>2024-07-11T06:49:23Z</time>
      </trkpt>
      <trkpt lat="43.58084" lon="1.21274">
        <ele>204</ele>
        <time>2024-07-11T06:49:24Z</time>
      </trkpt>
      <trkpt lat="43.5808" lon="1.21264">
        <ele>204.2</ele>
        <time>2024-07-11T06:49:25Z</time>
      </trkpt>
      <trkpt lat="43.58077" lon="1.21256">
        <ele>204.2</ele>
        <time>2024-07-11T06:49:26Z</time>
      </trkpt>
      <trkpt lat="43.58073" lon="1.21245">
        <ele>204.4</ele>
        <time>2024-07-11T06:49:27Z</time>
      </trkpt>
      <trkpt lat="43.5807" lon="1.21235">
        <ele>204.4</ele>
        <time>2024-07-11T06:49:28Z</time>
      </trkpt>
      <trkpt lat="43.58067" lon="1.21224">
        <ele>204.4</ele>
        <time>2024-07-11T06:49:29Z</time>
      </trkpt>
      <trkpt lat="43.58064" lon="1.21214">
        <ele>204.6</ele>
        <time>2024-07-11T06:49:30Z</time>
      </trkpt>
      <trkpt lat="43.58062" lon="1.21203">
        <ele>204.6</ele>
        <time>2024-07-11T06:49:31Z</time>
      </trkpt>
      <trkpt lat="43.58061" lon="1.21195">
        <ele>204.6</ele>
        <time>2024-07-11T06:49:32Z</time>
      </trkpt>
      <trkpt lat="43.58059" lon="1.21182">
        <ele>204.6</ele>
        <time>2024-07-11T06:49:33Z</time>
      </trkpt>
      <trkpt lat="43.58058" lon="1.21171">
        <ele>204.8</ele>
        <time>2024-07-11T06:49:34Z</time>
      </trkpt>
      <trkpt lat="43.58058" lon="1.21162">
        <ele>204.8</ele>
        <time>2024-07-11T06:49:35Z</time>
      </trkpt>
      <trkpt lat="43.58058" lon="1.21151">
        <ele>204.8</ele>
        <time>2024-07-11T06:49:36Z</time>
      </trkpt>
      <trkpt lat="43.58059" lon="1.21138">
        <ele>204.8</ele>
        <time>2024-07-11T06:49:37Z</time>
      </trkpt>
      <trkpt lat="43.5806" lon="1.21128">
        <ele>205</ele>
        <time>2024-07-11T06:49:38Z</time>
      </trkpt>
      <trkpt lat="43.58061" lon="1.21117">
        <ele>205</ele>
        <time>2024-07-11T06:49:39Z</time>
      </trkpt>
      <trkpt lat="43.58062" lon="1.21106">
        <ele>205</ele>
        <time>2024-07-11T06:49:40Z</time>
      </trkpt>
      <trkpt lat="43.58063" lon="1.21096">
        <ele>205</ele>
        <time>2024-07-11T06:49:41Z</time>
      </trkpt>
      <trkpt lat="43.58064" lon="1.21085">
        <ele>205</ele>
        <time>2024-07-11T06:49:42Z</time>
      </trkpt>
      <trkpt lat="43.58065" lon="1.21074">
        <ele>205</ele>
        <time>2024-07-11T06:49:43Z</time>
      </trkpt>
      <trkpt lat="43.58066" lon="1.21064">
        <ele>205</ele>
        <time>2024-07-11T06:49:44Z</time>
      </trkpt>
      <trkpt lat="43.58067" lon="1.21053">
        <ele>205</ele>
        <time>2024-07-11T06:49:45Z</time>
      </trkpt>
      <trkpt lat="43.58068" lon="1.21042">
        <ele>205</ele>
        <time>2024-07-11T06:49:46Z</time>
      </trkpt>
      <trkpt lat="43.5807" lon="1.21032">
        <ele>205</ele>
        <time>2024-07-11T06:49:47Z</time>
      </trkpt>
      <trkpt lat="43.58071" lon="1.21021">
        <ele>205.2</ele>
        <time>2024-07-11T06:49:48Z</time>
      </trkpt>
      <trkpt lat="43.58072" lon="1.2101">
        <ele>205.2</ele>
        <time>2024-07-11T06:49:49Z</time>
      </trkpt>
      <trkpt lat="43.58073" lon="1.20999">
        <ele>205.2</ele>
        <time>2024-07-11T06:49:50Z</time>
      </trkpt>
      <trkpt lat="43.58074" lon="1.20989">
        <ele>205.2</ele>
        <time>2024-07-11T06:49:51Z</time>
      </trkpt>
      <trkpt lat="43.58074" lon="1.20978">
        <ele>205.4</ele>
        <time>2024-07-11T06:49:52Z</time>
      </trkpt>
      <trkpt lat="43.58075" lon="1.20967">
        <ele>205.4</ele>
        <time>2024-07-11T06:49:53Z</time>
      </trkpt>
      <trkpt lat="43.58074" lon="1.20956">
        <ele>205.4</ele>
        <time>2024-07-11T06:49:54Z</time>
      </trkpt>
      <trkpt lat="43.58074" lon="1.20947">
        <ele>205.6</ele>
        <time>2024-07-11T06:49:55Z</time>
      </trkpt>
      <trkpt lat="43.58074" lon="1.20934">
        <ele>205.6</ele>
        <time>2024-07-11T06:49:56Z</time>
      </trkpt>
      <trkpt lat="43.58073" lon="1.20923">
        <ele>205.6</ele>
        <time>2024-07-11T06:49:57Z</time>
      </trkpt>
      <trkpt lat="43.58071" lon="1.20913">
        <ele>205.6</ele>
        <time>2024-07-11T06:49:58Z</time>
      </trkpt>
      <trkpt lat="43.5807" lon="1.20904">
        <ele>205.6</ele>
        <time>2024-07-11T06:49:59Z</time>
      </trkpt>
      <trkpt lat="43.58068" lon="1.20893">
        <ele>205.6</ele>
        <time>2024-07-11T06:50:00Z</time>
      </trkpt>
      <trkpt lat="43.58066" lon="1.2088">
        <ele>205.6</ele>
        <time>2024-07-11T06:50:01Z</time>
      </trkpt>
      <trkpt lat="43.58064" lon="1.2087">
        <ele>205.6</ele>
        <time>2024-07-11T06:50:02Z</time>
      </trkpt>
      <trkpt lat="43.58062" lon="1.20859">
        <ele>205.8</ele>
        <time>2024-07-11T06:50:03Z</time>
      </trkpt>
      <trkpt lat="43.5806" lon="1.20848">
        <ele>205.8</ele>
        <time>2024-07-11T06:50:04Z</time>
      </trkpt>
      <trkpt lat="43.58059" lon="1.2084">
        <ele>205.8</ele>
        <time>2024-07-11T06:50:05Z</time>
      </trkpt>
      <trkpt lat="43.58057" lon="1.20827">
        <ele>205.8</ele>
        <time>2024-07-11T06:50:06Z</time>
      </trkpt>
      <trkpt lat="43.58055" lon="1.20817">
        <ele>206</ele>
        <time>2024-07-11T06:50:07Z</time>
      </trkpt>
      <trkpt lat="43.58053" lon="1.20806">
        <ele>206</ele>
        <time>2024-07-11T06:50:08Z</time>
      </trkpt>
      <trkpt lat="43.58051" lon="1.20796">
        <ele>206</ele>
        <time>2024-07-11T06:50:09Z</time>
      </trkpt>
      <trkpt lat="43.5805" lon="1.20785">
        <ele>206.2</ele>
        <time>2024-07-11T06:50:10Z</time>
      </trkpt>
      <trkpt lat="43.58048" lon="1.20774">
        <ele>206.2</ele>
        <time>2024-07-11T06:50:11Z</time>
      </trkpt>
      <trkpt lat="43.58047" lon="1.20763">
        <ele>206.2</ele>
        <time>2024-07-11T06:50:12Z</time>
      </trkpt>
      <trkpt lat="43.58046" lon="1.20753">
        <ele>206.2</ele>
        <time>2024-07-11T06:50:13Z</time>
      </trkpt>
      <trkpt lat="43.58046" lon="1.20742">
        <ele>206.2</ele>
        <time>2024-07-11T06:50:14Z</time>
      </trkpt>
      <trkpt lat="43.58046" lon="1.20731">
        <ele>206.2</ele>
        <time>2024-07-11T06:50:15Z</time>
      </trkpt>
      <trkpt lat="43.58046" lon="1.20719">
        <ele>206.2</ele>
        <time>2024-07-11T06:50:16Z</time>
      </trkpt>
      <trkpt lat="43.58046" lon="1.20709">
        <ele>206.2</ele>
        <time>2024-07-11T06:50:17Z</time>
      </trkpt>
      <trkpt lat="43.58046" lon="1.207">
        <ele>206.2</ele>
        <time>2024-07-11T06:50:18Z</time>
      </trkpt>
      <trkpt lat="43.58046" lon="1.2069">
        <ele>206.2</ele>
        <time>2024-07-11T06:50:19Z</time>
      </trkpt>
      <trkpt lat="43.58046" lon="1.20677">
        <ele>206.2</ele>
        <time>2024-07-11T06:50:20Z</time>
      </trkpt>
      <trkpt lat="43.58047" lon="1.20666">
        <ele>206.2</ele>
        <time>2024-07-11T06:50:21Z</time>
      </trkpt>
      <trkpt lat="43.58047" lon="1.20655">
        <ele>206.2</ele>
        <time>2024-07-11T06:50:22Z</time>
      </trkpt>
      <trkpt lat="43.58047" lon="1.20644">
        <ele>206.4</ele>
        <time>2024-07-11T06:50:23Z</time>
      </trkpt>
      <trkpt lat="43.58048" lon="1.20634">
        <ele>206.4</ele>
        <time>2024-07-11T06:50:24Z</time>
      </trkpt>
      <trkpt lat="43.58048" lon="1.20623">
        <ele>206.4</ele>
        <time>2024-07-11T06:50:25Z</time>
      </trkpt>
      <trkpt lat="43.58049" lon="1.20613">
        <ele>206.4</ele>
        <time>2024-07-11T06:50:26Z</time>
      </trkpt>
      <trkpt lat="43.5805" lon="1.20604">
        <ele>206.4</ele>
        <time>2024-07-11T06:50:27Z</time>
      </trkpt>
      <trkpt lat="43.58051" lon="1.20594">
        <ele>206.4</ele>
        <time>2024-07-11T06:50:28Z</time>
      </trkpt>
      <trkpt lat="43.58052" lon="1.20585">
        <ele>206.6</ele>
        <time>2024-07-11T06:50:29Z</time>
      </trkpt>
      <trkpt lat="43.58053" lon="1.20576">
        <ele>206.8</ele>
        <time>2024-07-11T06:50:30Z</time>
      </trkpt>
      <trkpt lat="43.58055" lon="1.20567">
        <ele>206.8</ele>
        <time>2024-07-11T06:50:31Z</time>
      </trkpt>
      <trkpt lat="43.58056" lon="1.20558">
        <ele>207.4</ele>
        <time>2024-07-11T06:50:32Z</time>
      </trkpt>
      <trkpt lat="43.58058" lon="1.20552">
        <ele>207.8</ele>
        <time>2024-07-11T06:50:33Z</time>
      </trkpt>
      <trkpt lat="43.5806" lon="1.20542">
        <ele>208.2</ele>
        <time>2024-07-11T06:50:34Z</time>
      </trkpt>
      <trkpt lat="43.58062" lon="1.20533">
        <ele>208.4</ele>
        <time>2024-07-11T06:50:35Z</time>
      </trkpt>
      <trkpt lat="43.58065" lon="1.20525">
        <ele>208.6</ele>
        <time>2024-07-11T06:50:36Z</time>
      </trkpt>
      <trkpt lat="43.58068" lon="1.20517">
        <ele>209.2</ele>
        <time>2024-07-11T06:50:37Z</time>
      </trkpt>
      <trkpt lat="43.58071" lon="1.20509">
        <ele>209.8</ele>
        <time>2024-07-11T06:50:38Z</time>
      </trkpt>
      <trkpt lat="43.58075" lon="1.20502">
        <ele>210</ele>
        <time>2024-07-11T06:50:39Z</time>
      </trkpt>
      <trkpt lat="43.58079" lon="1.20495">
        <ele>210.2</ele>
        <time>2024-07-11T06:50:40Z</time>
      </trkpt>
      <trkpt lat="43.58084" lon="1.20488">
        <ele>210.4</ele>
        <time>2024-07-11T06:50:41Z</time>
      </trkpt>
      <trkpt lat="43.58088" lon="1.20481">
        <ele>210.6</ele>
        <time>2024-07-11T06:50:42Z</time>
      </trkpt>
      <trkpt lat="43.58092" lon="1.20474">
        <ele>210.8</ele>
        <time>2024-07-11T06:50:43Z</time>
      </trkpt>
      <trkpt lat="43.58096" lon="1.20467">
        <ele>211.2</ele>
        <time>2024-07-11T06:50:44Z</time>
      </trkpt>
      <trkpt lat="43.581" lon="1.2046">
        <ele>211.4</ele>
        <time>2024-07-11T06:50:45Z</time>
      </trkpt>
      <trkpt lat="43.58104" lon="1.20453">
        <ele>211.4</ele>
        <time>2024-07-11T06:50:46Z</time>
      </trkpt>
      <trkpt lat="43.58108" lon="1.20447">
        <ele>211.6</ele>
        <time>2024-07-11T06:50:47Z</time>
      </trkpt>
      <trkpt lat="43.58112" lon="1.2044">
        <ele>211.8</ele>
        <time>2024-07-11T06:50:48Z</time>
      </trkpt>
      <trkpt lat="43.58116" lon="1.20433">
        <ele>212</ele>
        <time>2024-07-11T06:50:49Z</time>
      </trkpt>
      <trkpt lat="43.58121" lon="1.20426">
        <ele>212</ele>
        <time>2024-07-11T06:50:50Z</time>
      </trkpt>
      <trkpt lat="43.58125" lon="1.20419">
        <ele>212.2</ele>
        <time>2024-07-11T06:50:51Z</time>
      </trkpt>
      <trkpt lat="43.58129" lon="1.20412">
        <ele>212.4</ele>
        <time>2024-07-11T06:50:52Z</time>
      </trkpt>
      <trkpt lat="43.58134" lon="1.20405">
        <ele>212.4</ele>
        <time>2024-07-11T06:50:53Z</time>
      </trkpt>
      <trkpt lat="43.58138" lon="1.20398">
        <ele>212.8</ele>
        <time>2024-07-11T06:50:54Z</time>
      </trkpt>
      <trkpt lat="43.58143" lon="1.2039">
        <ele>213</ele>
        <time>2024-07-11T06:50:55Z</time>
      </trkpt>
      <trkpt lat="43.58147" lon="1.20383">
        <ele>213.2</ele>
        <time>2024-07-11T06:50:56Z</time>
      </trkpt>
      <trkpt lat="43.58152" lon="1.20375">
        <ele>213.2</ele>
        <time>2024-07-11T06:50:57Z</time>
      </trkpt>
      <trkpt lat="43.58156" lon="1.20368">
        <ele>213.4</ele>
        <time>2024-07-11T06:50:58Z</time>
      </trkpt>
      <trkpt lat="43.58161" lon="1.2036">
        <ele>213.4</ele>
        <time>2024-07-11T06:50:59Z</time>
      </trkpt>
      <trkpt lat="43.58165" lon="1.20353">
        <ele>213.4</ele>
        <time>2024-07-11T06:51:00Z</time>
      </trkpt>
      <trkpt lat="43.5817" lon="1.20345">
        <ele>213.6</ele>
        <time>2024-07-11T06:51:01Z</time>
      </trkpt>
      <trkpt lat="43.58175" lon="1.20338">
        <ele>213.6</ele>
        <time>2024-07-11T06:51:02Z</time>
      </trkpt>
      <trkpt lat="43.58179" lon="1.2033">
        <ele>213.6</ele>
        <time>2024-07-11T06:51:03Z</time>
      </trkpt>
      <trkpt lat="43.58184" lon="1.20322">
        <ele>213.6</ele>
        <time>2024-07-11T06:51:04Z</time>
      </trkpt>
      <trkpt lat="43.58189" lon="1.20314">
        <ele>213.6</ele>
        <time>2024-07-11T06:51:05Z</time>
      </trkpt>
      <trkpt lat="43.58194" lon="1.20306">
        <ele>213.6</ele>
        <time>2024-07-11T06:51:06Z</time>
      </trkpt>
      <trkpt lat="43.58199" lon="1.20298">
        <ele>213.6</ele>
        <time>2024-07-11T06:51:07Z</time>
      </trkpt>
      <trkpt lat="43.58204" lon="1.2029">
        <ele>213.6</ele>
        <time>2024-07-11T06:51:08Z</time>
      </trkpt>
      <trkpt lat="43.58209" lon="1.20282">
        <ele>213.6</ele>
        <time>2024-07-11T06:51:09Z</time>
      </trkpt>
      <trkpt lat="43.58213" lon="1.20275">
        <ele>213.6</ele>
        <time>2024-07-11T06:51:10Z</time>
      </trkpt>
      <trkpt lat="43.58219" lon="1.20265">
        <ele>213.4</ele>
        <time>2024-07-11T06:51:11Z</time>
      </trkpt>
      <trkpt lat="43.58224" lon="1.20256">
        <ele>213.4</ele>
        <time>2024-07-11T06:51:12Z</time>
      </trkpt>
      <trkpt lat="43.58229" lon="1.20248">
        <ele>213.2</ele>
        <time>2024-07-11T06:51:13Z</time>
      </trkpt>
      <trkpt lat="43.58235" lon="1.20239">
        <ele>213</ele>
        <time>2024-07-11T06:51:14Z</time>
      </trkpt>
      <trkpt lat="43.5824" lon="1.2023">
        <ele>213</ele>
        <time>2024-07-11T06:51:15Z</time>
      </trkpt>
      <trkpt lat="43.58246" lon="1.20221">
        <ele>212.8</ele>
        <time>2024-07-11T06:51:16Z</time>
      </trkpt>
      <trkpt lat="43.58251" lon="1.20212">
        <ele>212.4</ele>
        <time>2024-07-11T06:51:17Z</time>
      </trkpt>
      <trkpt lat="43.58256" lon="1.20203">
        <ele>212.2</ele>
        <time>2024-07-11T06:51:18Z</time>
      </trkpt>
      <trkpt lat="43.58262" lon="1.20194">
        <ele>212</ele>
        <time>2024-07-11T06:51:19Z</time>
      </trkpt>
      <trkpt lat="43.58267" lon="1.20184">
        <ele>211.8</ele>
        <time>2024-07-11T06:51:20Z</time>
      </trkpt>
      <trkpt lat="43.58273" lon="1.20175">
        <ele>211.8</ele>
        <time>2024-07-11T06:51:21Z</time>
      </trkpt>
      <trkpt lat="43.58279" lon="1.20165">
        <ele>211.4</ele>
        <time>2024-07-11T06:51:22Z</time>
      </trkpt>
      <trkpt lat="43.58284" lon="1.20156">
        <ele>211.2</ele>
        <time>2024-07-11T06:51:23Z</time>
      </trkpt>
      <trkpt lat="43.58289" lon="1.20148">
        <ele>211</ele>
        <time>2024-07-11T06:51:24Z</time>
      </trkpt>
      <trkpt lat="43.58296" lon="1.20137">
        <ele>210.8</ele>
        <time>2024-07-11T06:51:25Z</time>
      </trkpt>
      <trkpt lat="43.58302" lon="1.20127">
        <ele>210.4</ele>
        <time>2024-07-11T06:51:26Z</time>
      </trkpt>
      <trkpt lat="43.58307" lon="1.20118">
        <ele>210</ele>
        <time>2024-07-11T06:51:27Z</time>
      </trkpt>
      <trkpt lat="43.58312" lon="1.20109">
        <ele>209.8</ele>
        <time>2024-07-11T06:51:28Z</time>
      </trkpt>
      <trkpt lat="43.58318" lon="1.201">
        <ele>209.4</ele>
        <time>2024-07-11T06:51:29Z</time>
      </trkpt>
      <trkpt lat="43.58323" lon="1.20091">
        <ele>209.2</ele>
        <time>2024-07-11T06:51:30Z</time>
      </trkpt>
      <trkpt lat="43.58328" lon="1.20082">
        <ele>209.2</ele>
        <time>2024-07-11T06:51:31Z</time>
      </trkpt>
      <trkpt lat="43.58333" lon="1.20073">
        <ele>209</ele>
        <time>2024-07-11T06:51:32Z</time>
      </trkpt>
      <trkpt lat="43.58339" lon="1.20064">
        <ele>209</ele>
        <time>2024-07-11T06:51:33Z</time>
      </trkpt>
      <trkpt lat="43.58344" lon="1.20055">
        <ele>209</ele>
        <time>2024-07-11T06:51:34Z</time>
      </trkpt>
      <trkpt lat="43.58349" lon="1.20047">
        <ele>209</ele>
        <time>2024-07-11T06:51:35Z</time>
      </trkpt>
      <trkpt lat="43.58354" lon="1.20039">
        <ele>209</ele>
        <time>2024-07-11T06:51:36Z</time>
      </trkpt>
      <trkpt lat="43.58359" lon="1.2003">
        <ele>209</ele>
        <time>2024-07-11T06:51:37Z</time>
      </trkpt>
      <trkpt lat="43.58364" lon="1.20022">
        <ele>209</ele>
        <time>2024-07-11T06:51:38Z</time>
      </trkpt>
      <trkpt lat="43.58369" lon="1.20014">
        <ele>209.2</ele>
        <time>2024-07-11T06:51:39Z</time>
      </trkpt>
      <trkpt lat="43.58374" lon="1.20006">
        <ele>209.2</ele>
        <time>2024-07-11T06:51:40Z</time>
      </trkpt>
      <trkpt lat="43.58379" lon="1.19998">
        <ele>209.2</ele>
        <time>2024-07-11T06:51:41Z</time>
      </trkpt>
      <trkpt lat="43.58384" lon="1.19989">
        <ele>209.2</ele>
        <time>2024-07-11T06:51:42Z</time>
      </trkpt>
      <trkpt lat="43.58388" lon="1.19981">
        <ele>209.2</ele>
        <time>2024-07-11T06:51:43Z</time>
      </trkpt>
      <trkpt lat="43.58393" lon="1.19973">
        <ele>209.4</ele>
        <time>2024-07-11T06:51:44Z</time>
      </trkpt>
      <trkpt lat="43.58398" lon="1.19964">
        <ele>209.4</ele>
        <time>2024-07-11T06:51:45Z</time>
      </trkpt>
      <trkpt lat="43.58403" lon="1.19956">
        <ele>209.4</ele>
        <time>2024-07-11T06:51:46Z</time>
      </trkpt>
      <trkpt lat="43.58408" lon="1.19948">
        <ele>209.4</ele>
        <time>2024-07-11T06:51:47Z</time>
      </trkpt>
      <trkpt lat="43.58413" lon="1.1994">
        <ele>209.4</ele>
        <time>2024-07-11T06:51:48Z</time>
      </trkpt>
      <trkpt lat="43.58418" lon="1.19932">
        <ele>209.4</ele>
        <time>2024-07-11T06:51:49Z</time>
      </trkpt>
      <trkpt lat="43.58422" lon="1.19923">
        <ele>209.4</ele>
        <time>2024-07-11T06:51:50Z</time>
      </trkpt>
      <trkpt lat="43.58427" lon="1.19914">
        <ele>209.4</ele>
        <time>2024-07-11T06:51:51Z</time>
      </trkpt>
      <trkpt lat="43.58432" lon="1.19905">
        <ele>209.4</ele>
        <time>2024-07-11T06:51:52Z</time>
      </trkpt>
      <trkpt lat="43.58436" lon="1.19896">
        <ele>209.4</ele>
        <time>2024-07-11T06:51:53Z</time>
      </trkpt>
      <trkpt lat="43.5844" lon="1.19887">
        <ele>209.4</ele>
        <time>2024-07-11T06:51:54Z</time>
      </trkpt>
      <trkpt lat="43.58443" lon="1.19877">
        <ele>209.4</ele>
        <time>2024-07-11T06:51:55Z</time>
      </trkpt>
      <trkpt lat="43.58446" lon="1.19868">
        <ele>209.4</ele>
        <time>2024-07-11T06:51:56Z</time>
      </trkpt>
      <trkpt lat="43.58449" lon="1.19858">
        <ele>209.4</ele>
        <time>2024-07-11T06:51:57Z</time>
      </trkpt>
      <trkpt lat="43.58452" lon="1.19848">
        <ele>209.4</ele>
        <time>2024-07-11T06:51:58Z</time>
      </trkpt>
      <trkpt lat="43.58455" lon="1.19838">
        <ele>209.4</ele>
        <time>2024-07-11T06:51:59Z</time>
      </trkpt>
      <trkpt lat="43.58457" lon="1.19828">
        <ele>209.4</ele>
        <time>2024-07-11T06:52:00Z</time>
      </trkpt>
      <trkpt lat="43.5846" lon="1.19817">
        <ele>209.4</ele>
        <time>2024-07-11T06:52:01Z</time>
      </trkpt>
      <trkpt lat="43.58463" lon="1.19807">
        <ele>209.4</ele>
        <time>2024-07-11T06:52:02Z</time>
      </trkpt>
      <trkpt lat="43.58466" lon="1.19797">
        <ele>209.4</ele>
        <time>2024-07-11T06:52:03Z</time>
      </trkpt>
      <trkpt lat="43.58469" lon="1.19787">
        <ele>209.4</ele>
        <time>2024-07-11T06:52:04Z</time>
      </trkpt>
      <trkpt lat="43.58472" lon="1.19778">
        <ele>209.4</ele>
        <time>2024-07-11T06:52:05Z</time>
      </trkpt>
      <trkpt lat="43.58475" lon="1.19768">
        <ele>209.6</ele>
        <time>2024-07-11T06:52:06Z</time>
      </trkpt>
      <trkpt lat="43.58478" lon="1.19758">
        <ele>209.6</ele>
        <time>2024-07-11T06:52:07Z</time>
      </trkpt>
      <trkpt lat="43.5848" lon="1.19748">
        <ele>209.6</ele>
        <time>2024-07-11T06:52:08Z</time>
      </trkpt>
      <trkpt lat="43.58483" lon="1.19739">
        <ele>209.8</ele>
        <time>2024-07-11T06:52:09Z</time>
      </trkpt>
      <trkpt lat="43.58485" lon="1.19731">
        <ele>209.8</ele>
        <time>2024-07-11T06:52:10Z</time>
      </trkpt>
      <trkpt lat="43.58487" lon="1.19721">
        <ele>209.8</ele>
        <time>2024-07-11T06:52:11Z</time>
      </trkpt>
      <trkpt lat="43.5849" lon="1.19709">
        <ele>209.8</ele>
        <time>2024-07-11T06:52:12Z</time>
      </trkpt>
      <trkpt lat="43.58492" lon="1.19699">
        <ele>209.8</ele>
        <time>2024-07-11T06:52:13Z</time>
      </trkpt>
      <trkpt lat="43.58495" lon="1.19689">
        <ele>209.8</ele>
        <time>2024-07-11T06:52:14Z</time>
      </trkpt>
      <trkpt lat="43.58497" lon="1.19679">
        <ele>209.8</ele>
        <time>2024-07-11T06:52:15Z</time>
      </trkpt>
      <trkpt lat="43.58499" lon="1.19668">
        <ele>209.8</ele>
        <time>2024-07-11T06:52:16Z</time>
      </trkpt>
      <trkpt lat="43.58502" lon="1.19657">
        <ele>209.8</ele>
        <time>2024-07-11T06:52:17Z</time>
      </trkpt>
      <trkpt lat="43.58504" lon="1.19647">
        <ele>210</ele>
        <time>2024-07-11T06:52:18Z</time>
      </trkpt>
      <trkpt lat="43.58506" lon="1.19636">
        <ele>210</ele>
        <time>2024-07-11T06:52:19Z</time>
      </trkpt>
      <trkpt lat="43.58508" lon="1.19625">
        <ele>210</ele>
        <time>2024-07-11T06:52:20Z</time>
      </trkpt>
      <trkpt lat="43.5851" lon="1.19615">
        <ele>210.2</ele>
        <time>2024-07-11T06:52:21Z</time>
      </trkpt>
      <trkpt lat="43.58512" lon="1.19604">
        <ele>210.2</ele>
        <time>2024-07-11T06:52:22Z</time>
      </trkpt>
      <trkpt lat="43.58514" lon="1.19593">
        <ele>210.2</ele>
        <time>2024-07-11T06:52:23Z</time>
      </trkpt>
      <trkpt lat="43.58516" lon="1.19582">
        <ele>210.2</ele>
        <time>2024-07-11T06:52:24Z</time>
      </trkpt>
      <trkpt lat="43.58519" lon="1.19572">
        <ele>210.2</ele>
        <time>2024-07-11T06:52:25Z</time>
      </trkpt>
      <trkpt lat="43.58521" lon="1.19562">
        <ele>210.4</ele>
        <time>2024-07-11T06:52:26Z</time>
      </trkpt>
      <trkpt lat="43.58523" lon="1.19551">
        <ele>210.4</ele>
        <time>2024-07-11T06:52:27Z</time>
      </trkpt>
      <trkpt lat="43.58525" lon="1.1954">
        <ele>210.4</ele>
        <time>2024-07-11T06:52:28Z</time>
      </trkpt>
      <trkpt lat="43.58527" lon="1.1953">
        <ele>210.4</ele>
        <time>2024-07-11T06:52:29Z</time>
      </trkpt>
      <trkpt lat="43.58529" lon="1.19519">
        <ele>210.6</ele>
        <time>2024-07-11T06:52:30Z</time>
      </trkpt>
      <trkpt lat="43.58531" lon="1.19509">
        <ele>210.6</ele>
        <time>2024-07-11T06:52:31Z</time>
      </trkpt>
      <trkpt lat="43.58534" lon="1.19498">
        <ele>210.4</ele>
        <time>2024-07-11T06:52:32Z</time>
      </trkpt>
      <trkpt lat="43.58536" lon="1.19487">
        <ele>210.2</ele>
        <time>2024-07-11T06:52:33Z</time>
      </trkpt>
      <trkpt lat="43.58537" lon="1.19477">
        <ele>210.2</ele>
        <time>2024-07-11T06:52:34Z</time>
      </trkpt>
      <trkpt lat="43.58539" lon="1.19466">
        <ele>210.2</ele>
        <time>2024-07-11T06:52:35Z</time>
      </trkpt>
      <trkpt lat="43.5854" lon="1.19455">
        <ele>210.2</ele>
        <time>2024-07-11T06:52:36Z</time>
      </trkpt>
      <trkpt lat="43.58541" lon="1.19444">
        <ele>210.4</ele>
        <time>2024-07-11T06:52:37Z</time>
      </trkpt>
      <trkpt lat="43.58542" lon="1.19433">
        <ele>210.4</ele>
        <time>2024-07-11T06:52:38Z</time>
      </trkpt>
      <trkpt lat="43.58542" lon="1.19424">
        <ele>210.4</ele>
        <time>2024-07-11T06:52:39Z</time>
      </trkpt>
      <trkpt lat="43.58542" lon="1.19411">
        <ele>210.2</ele>
        <time>2024-07-11T06:52:40Z</time>
      </trkpt>
      <trkpt lat="43.58542" lon="1.194">
        <ele>210.4</ele>
        <time>2024-07-11T06:52:41Z</time>
      </trkpt>
      <trkpt lat="43.58542" lon="1.1939">
        <ele>210.4</ele>
        <time>2024-07-11T06:52:42Z</time>
      </trkpt>
      <trkpt lat="43.58542" lon="1.19379">
        <ele>210.6</ele>
        <time>2024-07-11T06:52:43Z</time>
      </trkpt>
      <trkpt lat="43.58542" lon="1.19369">
        <ele>210.6</ele>
        <time>2024-07-11T06:52:44Z</time>
      </trkpt>
      <trkpt lat="43.58542" lon="1.19358">
        <ele>210.6</ele>
        <time>2024-07-11T06:52:45Z</time>
      </trkpt>
      <trkpt lat="43.58542" lon="1.19347">
        <ele>210.8</ele>
        <time>2024-07-11T06:52:46Z</time>
      </trkpt>
      <trkpt lat="43.58542" lon="1.19336">
        <ele>210.8</ele>
        <time>2024-07-11T06:52:47Z</time>
      </trkpt>
      <trkpt lat="43.58542" lon="1.19326">
        <ele>210.8</ele>
        <time>2024-07-11T06:52:48Z</time>
      </trkpt>
      <trkpt lat="43.58542" lon="1.19315">
        <ele>211</ele>
        <time>2024-07-11T06:52:49Z</time>
      </trkpt>
      <trkpt lat="43.58541" lon="1.19305">
        <ele>211</ele>
        <time>2024-07-11T06:52:50Z</time>
      </trkpt>
      <trkpt lat="43.58541" lon="1.19294">
        <ele>211.2</ele>
        <time>2024-07-11T06:52:51Z</time>
      </trkpt>
      <trkpt lat="43.58541" lon="1.19284">
        <ele>211.2</ele>
        <time>2024-07-11T06:52:52Z</time>
      </trkpt>
      <trkpt lat="43.5854" lon="1.19274">
        <ele>211.2</ele>
        <time>2024-07-11T06:52:53Z</time>
      </trkpt>
      <trkpt lat="43.5854" lon="1.19265">
        <ele>211.4</ele>
        <time>2024-07-11T06:52:54Z</time>
      </trkpt>
      <trkpt lat="43.58539" lon="1.19257">
        <ele>211.4</ele>
        <time>2024-07-11T06:52:55Z</time>
      </trkpt>
      <trkpt lat="43.58537" lon="1.1925">
        <ele>211.4</ele>
        <time>2024-07-11T06:52:56Z</time>
      </trkpt>
      <trkpt lat="43.58534" lon="1.19245">
        <ele>211.4</ele>
        <time>2024-07-11T06:52:57Z</time>
      </trkpt>
      <trkpt lat="43.58529" lon="1.19241">
        <ele>211.4</ele>
        <time>2024-07-11T06:52:58Z</time>
      </trkpt>
      <trkpt lat="43.58523" lon="1.19239">
        <ele>211.4</ele>
        <time>2024-07-11T06:52:59Z</time>
      </trkpt>
      <trkpt lat="43.58516" lon="1.19239">
        <ele>211.4</ele>
        <time>2024-07-11T06:53:00Z</time>
      </trkpt>
      <trkpt lat="43.58509" lon="1.19238">
        <ele>211.2</ele>
        <time>2024-07-11T06:53:01Z</time>
      </trkpt>
      <trkpt lat="43.58502" lon="1.19238">
        <ele>211.2</ele>
        <time>2024-07-11T06:53:02Z</time>
      </trkpt>
      <trkpt lat="43.58495" lon="1.19237">
        <ele>211.2</ele>
        <time>2024-07-11T06:53:03Z</time>
      </trkpt>
      <trkpt lat="43.58488" lon="1.19237">
        <ele>211.2</ele>
        <time>2024-07-11T06:53:04Z</time>
      </trkpt>
      <trkpt lat="43.5848" lon="1.19236">
        <ele>211.4</ele>
        <time>2024-07-11T06:53:05Z</time>
      </trkpt>
      <trkpt lat="43.58473" lon="1.19234">
        <ele>211.4</ele>
        <time>2024-07-11T06:53:06Z</time>
      </trkpt>
      <trkpt lat="43.58466" lon="1.1923">
        <ele>211.4</ele>
        <time>2024-07-11T06:53:07Z</time>
      </trkpt>
      <trkpt lat="43.5846" lon="1.19224">
        <ele>211.2</ele>
        <time>2024-07-11T06:53:08Z</time>
      </trkpt>
      <trkpt lat="43.58456" lon="1.19217">
        <ele>211.2</ele>
        <time>2024-07-11T06:53:09Z</time>
      </trkpt>
      <trkpt lat="43.58453" lon="1.19208">
        <ele>211.2</ele>
        <time>2024-07-11T06:53:10Z</time>
      </trkpt>
      <trkpt lat="43.58452" lon="1.19198">
        <ele>211.2</ele>
        <time>2024-07-11T06:53:11Z</time>
      </trkpt>
      <trkpt lat="43.58451" lon="1.19187">
        <ele>211.2</ele>
        <time>2024-07-11T06:53:12Z</time>
      </trkpt>
      <trkpt lat="43.5845" lon="1.19179">
        <ele>211.2</ele>
        <time>2024-07-11T06:53:13Z</time>
      </trkpt>
      <trkpt lat="43.58449" lon="1.19168">
        <ele>211.2</ele>
        <time>2024-07-11T06:53:14Z</time>
      </trkpt>
      <trkpt lat="43.5845" lon="1.19158">
        <ele>211.4</ele>
        <time>2024-07-11T06:53:15Z</time>
      </trkpt>
      <trkpt lat="43.58451" lon="1.19148">
        <ele>211.4</ele>
        <time>2024-07-11T06:53:16Z</time>
      </trkpt>
      <trkpt lat="43.58454" lon="1.19139">
        <ele>211.4</ele>
        <time>2024-07-11T06:53:17Z</time>
      </trkpt>
      <trkpt lat="43.58458" lon="1.1913">
        <ele>211.6</ele>
        <time>2024-07-11T06:53:18Z</time>
      </trkpt>
      <trkpt lat="43.58462" lon="1.19122">
        <ele>211.6</ele>
        <time>2024-07-11T06:53:19Z</time>
      </trkpt>
      <trkpt lat="43.58466" lon="1.19113">
        <ele>211.8</ele>
        <time>2024-07-11T06:53:20Z</time>
      </trkpt>
      <trkpt lat="43.58471" lon="1.19105">
        <ele>211.8</ele>
        <time>2024-07-11T06:53:21Z</time>
      </trkpt>
      <trkpt lat="43.58475" lon="1.19096">
        <ele>211.8</ele>
        <time>2024-07-11T06:53:22Z</time>
      </trkpt>
      <trkpt lat="43.58479" lon="1.19088">
        <ele>212</ele>
        <time>2024-07-11T06:53:23Z</time>
      </trkpt>
      <trkpt lat="43.58484" lon="1.1908">
        <ele>212</ele>
        <time>2024-07-11T06:53:24Z</time>
      </trkpt>
      <trkpt lat="43.58488" lon="1.19072">
        <ele>212</ele>
        <time>2024-07-11T06:53:25Z</time>
      </trkpt>
      <trkpt lat="43.58493" lon="1.19064">
        <ele>212</ele>
        <time>2024-07-11T06:53:26Z</time>
      </trkpt>
      <trkpt lat="43.58498" lon="1.19056">
        <ele>212.2</ele>
        <time>2024-07-11T06:53:27Z</time>
      </trkpt>
      <trkpt lat="43.58503" lon="1.19048">
        <ele>212.4</ele>
        <time>2024-07-11T06:53:28Z</time>
      </trkpt>
      <trkpt lat="43.58507" lon="1.19039">
        <ele>212.4</ele>
        <time>2024-07-11T06:53:29Z</time>
      </trkpt>
      <trkpt lat="43.5851" lon="1.19033">
        <ele>212.4</ele>
        <time>2024-07-11T06:53:30Z</time>
      </trkpt>
      <trkpt lat="43.58514" lon="1.19025">
        <ele>212.6</ele>
        <time>2024-07-11T06:53:31Z</time>
      </trkpt>
      <trkpt lat="43.58519" lon="1.19015">
        <ele>212.6</ele>
        <time>2024-07-11T06:53:32Z</time>
      </trkpt>
      <trkpt lat="43.58523" lon="1.19007">
        <ele>212.6</ele>
        <time>2024-07-11T06:53:33Z</time>
      </trkpt>
      <trkpt lat="43.58528" lon="1.18999">
        <ele>212.6</ele>
        <time>2024-07-11T06:53:34Z</time>
      </trkpt>
      <trkpt lat="43.58532" lon="1.18991">
        <ele>212.6</ele>
        <time>2024-07-11T06:53:35Z</time>
      </trkpt>
      <trkpt lat="43.58536" lon="1.18983">
        <ele>212.6</ele>
        <time>2024-07-11T06:53:36Z</time>
      </trkpt>
      <trkpt lat="43.5854" lon="1.18975">
        <ele>212.6</ele>
        <time>2024-07-11T06:53:37Z</time>
      </trkpt>
      <trkpt lat="43.58545" lon="1.18967">
        <ele>212.6</ele>
        <time>2024-07-11T06:53:38Z</time>
      </trkpt>
      <trkpt lat="43.58549" lon="1.18959">
        <ele>212.6</ele>
        <time>2024-07-11T06:53:39Z</time>
      </trkpt>
      <trkpt lat="43.58553" lon="1.18951">
        <ele>212.6</ele>
        <time>2024-07-11T06:53:40Z</time>
      </trkpt>
      <trkpt lat="43.58557" lon="1.18943">
        <ele>212.6</ele>
        <time>2024-07-11T06:53:41Z</time>
      </trkpt>
      <trkpt lat="43.58561" lon="1.18935">
        <ele>212.6</ele>
        <time>2024-07-11T06:53:42Z</time>
      </trkpt>
      <trkpt lat="43.58566" lon="1.18927">
        <ele>212.8</ele>
        <time>2024-07-11T06:53:43Z</time>
      </trkpt>
      <trkpt lat="43.58569" lon="1.1892">
        <ele>212.8</ele>
        <time>2024-07-11T06:53:44Z</time>
      </trkpt>
      <trkpt lat="43.58574" lon="1.18911">
        <ele>212.8</ele>
        <time>2024-07-11T06:53:45Z</time>
      </trkpt>
      <trkpt lat="43.58578" lon="1.18903">
        <ele>213.2</ele>
        <time>2024-07-11T06:53:46Z</time>
      </trkpt>
      <trkpt lat="43.58583" lon="1.18894">
        <ele>213.2</ele>
        <time>2024-07-11T06:53:47Z</time>
      </trkpt>
      <trkpt lat="43.58586" lon="1.18888">
        <ele>213.4</ele>
        <time>2024-07-11T06:53:48Z</time>
      </trkpt>
      <trkpt lat="43.58591" lon="1.18878">
        <ele>213.4</ele>
        <time>2024-07-11T06:53:49Z</time>
      </trkpt>
      <trkpt lat="43.58595" lon="1.18871">
        <ele>213.4</ele>
        <time>2024-07-11T06:53:50Z</time>
      </trkpt>
      <trkpt lat="43.58599" lon="1.18863">
        <ele>213.4</ele>
        <time>2024-07-11T06:53:51Z</time>
      </trkpt>
      <trkpt lat="43.58603" lon="1.18855">
        <ele>213.4</ele>
        <time>2024-07-11T06:53:52Z</time>
      </trkpt>
      <trkpt lat="43.58607" lon="1.18847">
        <ele>213.4</ele>
        <time>2024-07-11T06:53:53Z</time>
      </trkpt>
      <trkpt lat="43.58611" lon="1.18839">
        <ele>213.6</ele>
        <time>2024-07-11T06:53:54Z</time>
      </trkpt>
      <trkpt lat="43.58615" lon="1.18831">
        <ele>213.6</ele>
        <time>2024-07-11T06:53:55Z</time>
      </trkpt>
      <trkpt lat="43.5862" lon="1.18823">
        <ele>213.6</ele>
        <time>2024-07-11T06:53:56Z</time>
      </trkpt>
      <trkpt lat="43.58624" lon="1.18815">
        <ele>213.6</ele>
        <time>2024-07-11T06:53:57Z</time>
      </trkpt>
      <trkpt lat="43.58628" lon="1.18807">
        <ele>213.6</ele>
        <time>2024-07-11T06:53:58Z</time>
      </trkpt>
      <trkpt lat="43.58632" lon="1.18799">
        <ele>213.6</ele>
        <time>2024-07-11T06:53:59Z</time>
      </trkpt>
      <trkpt lat="43.58636" lon="1.18792">
        <ele>213.6</ele>
        <time>2024-07-11T06:54:00Z</time>
      </trkpt>
      <trkpt lat="43.5864" lon="1.18783">
        <ele>213.6</ele>
        <time>2024-07-11T06:54:01Z</time>
      </trkpt>
      <trkpt lat="43.58644" lon="1.18776">
        <ele>213.6</ele>
        <time>2024-07-11T06:54:02Z</time>
      </trkpt>
      <trkpt lat="43.58647" lon="1.18769">
        <ele>213.6</ele>
        <time>2024-07-11T06:54:03Z</time>
      </trkpt>
      <trkpt lat="43.58652" lon="1.1876">
        <ele>213.8</ele>
        <time>2024-07-11T06:54:04Z</time>
      </trkpt>
      <trkpt lat="43.58656" lon="1.18752">
        <ele>213.8</ele>
        <time>2024-07-11T06:54:05Z</time>
      </trkpt>
      <trkpt lat="43.5866" lon="1.18745">
        <ele>213.8</ele>
        <time>2024-07-11T06:54:06Z</time>
      </trkpt>
      <trkpt lat="43.58664" lon="1.18737">
        <ele>214</ele>
        <time>2024-07-11T06:54:07Z</time>
      </trkpt>
      <trkpt lat="43.58667" lon="1.18731">
        <ele>214.2</ele>
        <time>2024-07-11T06:54:08Z</time>
      </trkpt>
      <trkpt lat="43.58672" lon="1.18721">
        <ele>214.4</ele>
        <time>2024-07-11T06:54:09Z</time>
      </trkpt>
      <trkpt lat="43.58676" lon="1.18714">
        <ele>214.6</ele>
        <time>2024-07-11T06:54:10Z</time>
      </trkpt>
      <trkpt lat="43.5868" lon="1.18706">
        <ele>214.6</ele>
        <time>2024-07-11T06:54:11Z</time>
      </trkpt>
      <trkpt lat="43.58683" lon="1.18699">
        <ele>214.8</ele>
        <time>2024-07-11T06:54:12Z</time>
      </trkpt>
      <trkpt lat="43.58687" lon="1.18692">
        <ele>214.8</ele>
        <time>2024-07-11T06:54:13Z</time>
      </trkpt>
      <trkpt lat="43.58692" lon="1.18682">
        <ele>215</ele>
        <time>2024-07-11T06:54:14Z</time>
      </trkpt>
      <trkpt lat="43.58696" lon="1.18674">
        <ele>215.2</ele>
        <time>2024-07-11T06:54:15Z</time>
      </trkpt>
      <trkpt lat="43.587" lon="1.18666">
        <ele>215.2</ele>
        <time>2024-07-11T06:54:16Z</time>
      </trkpt>
      <trkpt lat="43.58703" lon="1.1866">
        <ele>215.2</ele>
        <time>2024-07-11T06:54:17Z</time>
      </trkpt>
      <trkpt lat="43.58708" lon="1.18652">
        <ele>215.4</ele>
        <time>2024-07-11T06:54:18Z</time>
      </trkpt>
      <trkpt lat="43.58712" lon="1.18643">
        <ele>215.4</ele>
        <time>2024-07-11T06:54:19Z</time>
      </trkpt>
      <trkpt lat="43.58716" lon="1.18635">
        <ele>215.6</ele>
        <time>2024-07-11T06:54:20Z</time>
      </trkpt>
      <trkpt lat="43.5872" lon="1.18628">
        <ele>215.8</ele>
        <time>2024-07-11T06:54:21Z</time>
      </trkpt>
      <trkpt lat="43.58724" lon="1.1862">
        <ele>215.8</ele>
        <time>2024-07-11T06:54:22Z</time>
      </trkpt>
      <trkpt lat="43.58728" lon="1.18613">
        <ele>216.2</ele>
        <time>2024-07-11T06:54:23Z</time>
      </trkpt>
      <trkpt lat="43.58732" lon="1.18605">
        <ele>216.2</ele>
        <time>2024-07-11T06:54:24Z</time>
      </trkpt>
      <trkpt lat="43.58736" lon="1.18598">
        <ele>216.4</ele>
        <time>2024-07-11T06:54:25Z</time>
      </trkpt>
      <trkpt lat="43.5874" lon="1.18589">
        <ele>216.4</ele>
        <time>2024-07-11T06:54:26Z</time>
      </trkpt>
      <trkpt lat="43.58743" lon="1.18581">
        <ele>216.4</ele>
        <time>2024-07-11T06:54:27Z</time>
      </trkpt>
      <trkpt lat="43.58746" lon="1.18573">
        <ele>216.6</ele>
        <time>2024-07-11T06:54:28Z</time>
      </trkpt>
      <trkpt lat="43.5875" lon="1.18565">
        <ele>216.6</ele>
        <time>2024-07-11T06:54:29Z</time>
      </trkpt>
      <trkpt lat="43.58752" lon="1.18556">
        <ele>216.8</ele>
        <time>2024-07-11T06:54:30Z</time>
      </trkpt>
      <trkpt lat="43.58755" lon="1.18548">
        <ele>217</ele>
        <time>2024-07-11T06:54:31Z</time>
      </trkpt>
      <trkpt lat="43.58757" lon="1.1854">
        <ele>217</ele>
        <time>2024-07-11T06:54:32Z</time>
      </trkpt>
      <trkpt lat="43.58759" lon="1.1853">
        <ele>217.2</ele>
        <time>2024-07-11T06:54:33Z</time>
      </trkpt>
      <trkpt lat="43.58761" lon="1.18521">
        <ele>217.2</ele>
        <time>2024-07-11T06:54:34Z</time>
      </trkpt>
      <trkpt lat="43.58763" lon="1.18512">
        <ele>217.4</ele>
        <time>2024-07-11T06:54:35Z</time>
      </trkpt>
      <trkpt lat="43.58765" lon="1.18503">
        <ele>217.6</ele>
        <time>2024-07-11T06:54:36Z</time>
      </trkpt>
      <trkpt lat="43.58767" lon="1.18494">
        <ele>217.8</ele>
        <time>2024-07-11T06:54:37Z</time>
      </trkpt>
      <trkpt lat="43.5877" lon="1.18485">
        <ele>218</ele>
        <time>2024-07-11T06:54:38Z</time>
      </trkpt>
      <trkpt lat="43.58772" lon="1.18476">
        <ele>218</ele>
        <time>2024-07-11T06:54:39Z</time>
      </trkpt>
      <trkpt lat="43.58774" lon="1.18467">
        <ele>218.2</ele>
        <time>2024-07-11T06:54:40Z</time>
      </trkpt>
      <trkpt lat="43.58776" lon="1.1846">
        <ele>218.2</ele>
        <time>2024-07-11T06:54:41Z</time>
      </trkpt>
      <trkpt lat="43.58779" lon="1.18449">
        <ele>218.4</ele>
        <time>2024-07-11T06:54:42Z</time>
      </trkpt>
      <trkpt lat="43.58781" lon="1.1844">
        <ele>218.4</ele>
        <time>2024-07-11T06:54:43Z</time>
      </trkpt>
      <trkpt lat="43.58783" lon="1.18431">
        <ele>218.6</ele>
        <time>2024-07-11T06:54:44Z</time>
      </trkpt>
      <trkpt lat="43.58786" lon="1.18423">
        <ele>218.8</ele>
        <time>2024-07-11T06:54:45Z</time>
      </trkpt>
      <trkpt lat="43.58788" lon="1.18414">
        <ele>218.8</ele>
        <time>2024-07-11T06:54:46Z</time>
      </trkpt>
      <trkpt lat="43.5879" lon="1.18405">
        <ele>219.2</ele>
        <time>2024-07-11T06:54:47Z</time>
      </trkpt>
      <trkpt lat="43.58793" lon="1.18396">
        <ele>219.2</ele>
        <time>2024-07-11T06:54:48Z</time>
      </trkpt>
      <trkpt lat="43.58795" lon="1.18388">
        <ele>219.6</ele>
        <time>2024-07-11T06:54:49Z</time>
      </trkpt>
      <trkpt lat="43.58797" lon="1.18379">
        <ele>219.8</ele>
        <time>2024-07-11T06:54:50Z</time>
      </trkpt>
      <trkpt lat="43.588" lon="1.1837">
        <ele>220.4</ele>
        <time>2024-07-11T06:54:51Z</time>
      </trkpt>
      <trkpt lat="43.58803" lon="1.18361">
        <ele>220.6</ele>
        <time>2024-07-11T06:54:52Z</time>
      </trkpt>
      <trkpt lat="43.58806" lon="1.18352">
        <ele>220.8</ele>
        <time>2024-07-11T06:54:53Z</time>
      </trkpt>
      <trkpt lat="43.58808" lon="1.18345">
        <ele>221</ele>
        <time>2024-07-11T06:54:54Z</time>
      </trkpt>
      <trkpt lat="43.58811" lon="1.18337">
        <ele>221.2</ele>
        <time>2024-07-11T06:54:55Z</time>
      </trkpt>
      <trkpt lat="43.58814" lon="1.18328">
        <ele>221.4</ele>
        <time>2024-07-11T06:54:56Z</time>
      </trkpt>
      <trkpt lat="43.58818" lon="1.18317">
        <ele>221.6</ele>
        <time>2024-07-11T06:54:57Z</time>
      </trkpt>
      <trkpt lat="43.58822" lon="1.18308">
        <ele>221.6</ele>
        <time>2024-07-11T06:54:58Z</time>
      </trkpt>
      <trkpt lat="43.58825" lon="1.18299">
        <ele>221.8</ele>
        <time>2024-07-11T06:54:59Z</time>
      </trkpt>
      <trkpt lat="43.58828" lon="1.18291">
        <ele>222</ele>
        <time>2024-07-11T06:55:00Z</time>
      </trkpt>
      <trkpt lat="43.58831" lon="1.1828">
        <ele>222</ele>
        <time>2024-07-11T06:55:01Z</time>
      </trkpt>
      <trkpt lat="43.58835" lon="1.1827">
        <ele>222</ele>
        <time>2024-07-11T06:55:02Z</time>
      </trkpt>
      <trkpt lat="43.58838" lon="1.18261">
        <ele>222</ele>
        <time>2024-07-11T06:55:03Z</time>
      </trkpt>
      <trkpt lat="43.58842" lon="1.18251">
        <ele>222</ele>
        <time>2024-07-11T06:55:04Z</time>
      </trkpt>
      <trkpt lat="43.58844" lon="1.18244">
        <ele>222</ele>
        <time>2024-07-11T06:55:05Z</time>
      </trkpt>
      <trkpt lat="43.58848" lon="1.18232">
        <ele>222</ele>
        <time>2024-07-11T06:55:06Z</time>
      </trkpt>
      <trkpt lat="43.58852" lon="1.18222">
        <ele>222</ele>
        <time>2024-07-11T06:55:07Z</time>
      </trkpt>
      <trkpt lat="43.58855" lon="1.18213">
        <ele>222</ele>
        <time>2024-07-11T06:55:08Z</time>
      </trkpt>
      <trkpt lat="43.58858" lon="1.18203">
        <ele>222</ele>
        <time>2024-07-11T06:55:09Z</time>
      </trkpt>
      <trkpt lat="43.58862" lon="1.18194">
        <ele>222</ele>
        <time>2024-07-11T06:55:10Z</time>
      </trkpt>
      <trkpt lat="43.58865" lon="1.18184">
        <ele>222.2</ele>
        <time>2024-07-11T06:55:11Z</time>
      </trkpt>
      <trkpt lat="43.58869" lon="1.18174">
        <ele>222.2</ele>
        <time>2024-07-11T06:55:12Z</time>
      </trkpt>
      <trkpt lat="43.58872" lon="1.18165">
        <ele>222.2</ele>
        <time>2024-07-11T06:55:13Z</time>
      </trkpt>
      <trkpt lat="43.58874" lon="1.18157">
        <ele>222.2</ele>
        <time>2024-07-11T06:55:14Z</time>
      </trkpt>
      <trkpt lat="43.58878" lon="1.18146">
        <ele>222.2</ele>
        <time>2024-07-11T06:55:15Z</time>
      </trkpt>
      <trkpt lat="43.58882" lon="1.18136">
        <ele>222.4</ele>
        <time>2024-07-11T06:55:16Z</time>
      </trkpt>
      <trkpt lat="43.58885" lon="1.18126">
        <ele>222.4</ele>
        <time>2024-07-11T06:55:17Z</time>
      </trkpt>
      <trkpt lat="43.58889" lon="1.18117">
        <ele>222.6</ele>
        <time>2024-07-11T06:55:18Z</time>
      </trkpt>
      <trkpt lat="43.58892" lon="1.1811">
        <ele>222.6</ele>
        <time>2024-07-11T06:55:19Z</time>
      </trkpt>
      <trkpt lat="43.58897" lon="1.18099">
        <ele>222.6</ele>
        <time>2024-07-11T06:55:20Z</time>
      </trkpt>
      <trkpt lat="43.58902" lon="1.1809">
        <ele>222.6</ele>
        <time>2024-07-11T06:55:21Z</time>
      </trkpt>
      <trkpt lat="43.58906" lon="1.18082">
        <ele>222.6</ele>
        <time>2024-07-11T06:55:22Z</time>
      </trkpt>
      <trkpt lat="43.58911" lon="1.18074">
        <ele>222.6</ele>
        <time>2024-07-11T06:55:23Z</time>
      </trkpt>
      <trkpt lat="43.58916" lon="1.18066">
        <ele>222.6</ele>
        <time>2024-07-11T06:55:24Z</time>
      </trkpt>
      <trkpt lat="43.58921" lon="1.18058">
        <ele>222.6</ele>
        <time>2024-07-11T06:55:25Z</time>
      </trkpt>
      <trkpt lat="43.58927" lon="1.1805">
        <ele>222.6</ele>
        <time>2024-07-11T06:55:26Z</time>
      </trkpt>
      <trkpt lat="43.58932" lon="1.18042">
        <ele>222.6</ele>
        <time>2024-07-11T06:55:27Z</time>
      </trkpt>
      <trkpt lat="43.58937" lon="1.18034">
        <ele>222.6</ele>
        <time>2024-07-11T06:55:28Z</time>
      </trkpt>
      <trkpt lat="43.58943" lon="1.18026">
        <ele>222.4</ele>
        <time>2024-07-11T06:55:29Z</time>
      </trkpt>
      <trkpt lat="43.58949" lon="1.18018">
        <ele>222.2</ele>
        <time>2024-07-11T06:55:30Z</time>
      </trkpt>
      <trkpt lat="43.58954" lon="1.18009">
        <ele>222</ele>
        <time>2024-07-11T06:55:31Z</time>
      </trkpt>
      <trkpt lat="43.5896" lon="1.18">
        <ele>222</ele>
        <time>2024-07-11T06:55:32Z</time>
      </trkpt>
      <trkpt lat="43.58965" lon="1.17992">
        <ele>222</ele>
        <time>2024-07-11T06:55:33Z</time>
      </trkpt>
      <trkpt lat="43.5897" lon="1.17984">
        <ele>222</ele>
        <time>2024-07-11T06:55:34Z</time>
      </trkpt>
      <trkpt lat="43.58976" lon="1.17976">
        <ele>222</ele>
        <time>2024-07-11T06:55:35Z</time>
      </trkpt>
      <trkpt lat="43.58981" lon="1.17968">
        <ele>221.8</ele>
        <time>2024-07-11T06:55:36Z</time>
      </trkpt>
      <trkpt lat="43.58985" lon="1.17961">
        <ele>221.8</ele>
        <time>2024-07-11T06:55:37Z</time>
      </trkpt>
      <trkpt lat="43.5899" lon="1.17953">
        <ele>221.8</ele>
        <time>2024-07-11T06:55:38Z</time>
      </trkpt>
      <trkpt lat="43.58996" lon="1.17944">
        <ele>221.8</ele>
        <time>2024-07-11T06:55:39Z</time>
      </trkpt>
      <trkpt lat="43.59001" lon="1.17936">
        <ele>221.8</ele>
        <time>2024-07-11T06:55:40Z</time>
      </trkpt>
      <trkpt lat="43.59006" lon="1.17929">
        <ele>221.8</ele>
        <time>2024-07-11T06:55:41Z</time>
      </trkpt>
      <trkpt lat="43.59011" lon="1.17921">
        <ele>222</ele>
        <time>2024-07-11T06:55:42Z</time>
      </trkpt>
      <trkpt lat="43.59016" lon="1.17914">
        <ele>222</ele>
        <time>2024-07-11T06:55:43Z</time>
      </trkpt>
      <trkpt lat="43.59021" lon="1.17907">
        <ele>222.2</ele>
        <time>2024-07-11T06:55:44Z</time>
      </trkpt>
      <trkpt lat="43.59026" lon="1.17899">
        <ele>222.2</ele>
        <time>2024-07-11T06:55:45Z</time>
      </trkpt>
      <trkpt lat="43.59031" lon="1.17892">
        <ele>222.4</ele>
        <time>2024-07-11T06:55:46Z</time>
      </trkpt>
      <trkpt lat="43.59035" lon="1.17886">
        <ele>222.4</ele>
        <time>2024-07-11T06:55:47Z</time>
      </trkpt>
      <trkpt lat="43.5904" lon="1.17878">
        <ele>222.4</ele>
        <time>2024-07-11T06:55:48Z</time>
      </trkpt>
      <trkpt lat="43.59045" lon="1.17871">
        <ele>222.6</ele>
        <time>2024-07-11T06:55:49Z</time>
      </trkpt>
      <trkpt lat="43.5905" lon="1.17864">
        <ele>222.8</ele>
        <time>2024-07-11T06:55:50Z</time>
      </trkpt>
      <trkpt lat="43.59054" lon="1.17857">
        <ele>223</ele>
        <time>2024-07-11T06:55:51Z</time>
      </trkpt>
      <trkpt lat="43.59059" lon="1.17849">
        <ele>223.2</ele>
        <time>2024-07-11T06:55:52Z</time>
      </trkpt>
      <trkpt lat="43.59063" lon="1.17842">
        <ele>223.6</ele>
        <time>2024-07-11T06:55:53Z</time>
      </trkpt>
      <trkpt lat="43.59068" lon="1.17834">
        <ele>223.6</ele>
        <time>2024-07-11T06:55:54Z</time>
      </trkpt>
      <trkpt lat="43.59072" lon="1.17827">
        <ele>224.2</ele>
        <time>2024-07-11T06:55:55Z</time>
      </trkpt>
      <trkpt lat="43.59076" lon="1.17819">
        <ele>224.2</ele>
        <time>2024-07-11T06:55:56Z</time>
      </trkpt>
      <trkpt lat="43.59079" lon="1.17813">
        <ele>224.4</ele>
        <time>2024-07-11T06:55:57Z</time>
      </trkpt>
      <trkpt lat="43.59084" lon="1.17804">
        <ele>224.6</ele>
        <time>2024-07-11T06:55:58Z</time>
      </trkpt>
      <trkpt lat="43.59089" lon="1.17797">
        <ele>224.6</ele>
        <time>2024-07-11T06:55:59Z</time>
      </trkpt>
      <trkpt lat="43.59093" lon="1.17789">
        <ele>224.8</ele>
        <time>2024-07-11T06:56:00Z</time>
      </trkpt>
      <trkpt lat="43.59097" lon="1.17781">
        <ele>224.8</ele>
        <time>2024-07-11T06:56:01Z</time>
      </trkpt>
      <trkpt lat="43.59101" lon="1.17773">
        <ele>225</ele>
        <time>2024-07-11T06:56:02Z</time>
      </trkpt>
      <trkpt lat="43.59105" lon="1.17765">
        <ele>225</ele>
        <time>2024-07-11T06:56:03Z</time>
      </trkpt>
      <trkpt lat="43.59109" lon="1.17757">
        <ele>225.2</ele>
        <time>2024-07-11T06:56:04Z</time>
      </trkpt>
      <trkpt lat="43.59113" lon="1.17749">
        <ele>225.4</ele>
        <time>2024-07-11T06:56:05Z</time>
      </trkpt>
      <trkpt lat="43.59116" lon="1.17741">
        <ele>225.4</ele>
        <time>2024-07-11T06:56:06Z</time>
      </trkpt>
      <trkpt lat="43.59119" lon="1.17733">
        <ele>225.6</ele>
        <time>2024-07-11T06:56:07Z</time>
      </trkpt>
      <trkpt lat="43.59123" lon="1.17726">
        <ele>225.8</ele>
        <time>2024-07-11T06:56:08Z</time>
      </trkpt>
      <trkpt lat="43.59127" lon="1.17719">
        <ele>226</ele>
        <time>2024-07-11T06:56:09Z</time>
      </trkpt>
      <trkpt lat="43.59131" lon="1.17715">
        <ele>226</ele>
        <time>2024-07-11T06:56:10Z</time>
      </trkpt>
      <trkpt lat="43.59137" lon="1.17708">
        <ele>226</ele>
        <time>2024-07-11T06:56:11Z</time>
      </trkpt>
      <trkpt lat="43.59142" lon="1.17702">
        <ele>226.2</ele>
        <time>2024-07-11T06:56:12Z</time>
      </trkpt>
      <trkpt lat="43.59146" lon="1.17696">
        <ele>226.2</ele>
        <time>2024-07-11T06:56:13Z</time>
      </trkpt>
      <trkpt lat="43.59149" lon="1.17689">
        <ele>226.2</ele>
        <time>2024-07-11T06:56:14Z</time>
      </trkpt>
      <trkpt lat="43.59154" lon="1.17682">
        <ele>226.2</ele>
        <time>2024-07-11T06:56:15Z</time>
      </trkpt>
      <trkpt lat="43.59159" lon="1.17678">
        <ele>226.2</ele>
        <time>2024-07-11T06:56:16Z</time>
      </trkpt>
      <trkpt lat="43.59166" lon="1.17679">
        <ele>226.2</ele>
        <time>2024-07-11T06:56:17Z</time>
      </trkpt>
      <trkpt lat="43.59172" lon="1.17683">
        <ele>226.2</ele>
        <time>2024-07-11T06:56:18Z</time>
      </trkpt>
      <trkpt lat="43.59175" lon="1.17689">
        <ele>226.2</ele>
        <time>2024-07-11T06:56:19Z</time>
      </trkpt>
      <trkpt lat="43.59179" lon="1.17698">
        <ele>226.2</ele>
        <time>2024-07-11T06:56:20Z</time>
      </trkpt>
      <trkpt lat="43.59184" lon="1.1771">
        <ele>226.2</ele>
        <time>2024-07-11T06:56:21Z</time>
      </trkpt>
      <trkpt lat="43.59188" lon="1.1772">
        <ele>226.2</ele>
        <time>2024-07-11T06:56:22Z</time>
      </trkpt>
      <trkpt lat="43.59192" lon="1.1773">
        <ele>226.2</ele>
        <time>2024-07-11T06:56:23Z</time>
      </trkpt>
      <trkpt lat="43.59197" lon="1.17739">
        <ele>226.2</ele>
        <time>2024-07-11T06:56:24Z</time>
      </trkpt>
      <trkpt lat="43.59202" lon="1.17749">
        <ele>226</ele>
        <time>2024-07-11T06:56:25Z</time>
      </trkpt>
      <trkpt lat="43.59207" lon="1.17758">
        <ele>225.6</ele>
        <time>2024-07-11T06:56:26Z</time>
      </trkpt>
      <trkpt lat="43.59212" lon="1.17766">
        <ele>225.4</ele>
        <time>2024-07-11T06:56:27Z</time>
      </trkpt>
      <trkpt lat="43.59217" lon="1.17774">
        <ele>225.2</ele>
        <time>2024-07-11T06:56:28Z</time>
      </trkpt>
      <trkpt lat="43.59221" lon="1.17779">
        <ele>225.2</ele>
        <time>2024-07-11T06:56:29Z</time>
      </trkpt>
      <trkpt lat="43.59227" lon="1.17787">
        <ele>225</ele>
        <time>2024-07-11T06:56:30Z</time>
      </trkpt>
      <trkpt lat="43.59233" lon="1.17794">
        <ele>225</ele>
        <time>2024-07-11T06:56:31Z</time>
      </trkpt>
      <trkpt lat="43.59238" lon="1.17801">
        <ele>224.8</ele>
        <time>2024-07-11T06:56:32Z</time>
      </trkpt>
      <trkpt lat="43.59244" lon="1.17809">
        <ele>224.6</ele>
        <time>2024-07-11T06:56:33Z</time>
      </trkpt>
      <trkpt lat="43.59249" lon="1.17815">
        <ele>224.6</ele>
        <time>2024-07-11T06:56:34Z</time>
      </trkpt>
      <trkpt lat="43.59255" lon="1.17823">
        <ele>224.4</ele>
        <time>2024-07-11T06:56:35Z</time>
      </trkpt>
      <trkpt lat="43.5926" lon="1.17831">
        <ele>224.4</ele>
        <time>2024-07-11T06:56:36Z</time>
      </trkpt>
      <trkpt lat="43.59265" lon="1.17838">
        <ele>224.4</ele>
        <time>2024-07-11T06:56:37Z</time>
      </trkpt>
      <trkpt lat="43.5927" lon="1.17845">
        <ele>224.4</ele>
        <time>2024-07-11T06:56:38Z</time>
      </trkpt>
      <trkpt lat="43.59275" lon="1.17852">
        <ele>224.4</ele>
        <time>2024-07-11T06:56:39Z</time>
      </trkpt>
      <trkpt lat="43.59279" lon="1.17857">
        <ele>224.4</ele>
        <time>2024-07-11T06:56:40Z</time>
      </trkpt>
      <trkpt lat="43.59284" lon="1.17862">
        <ele>224.4</ele>
        <time>2024-07-11T06:56:41Z</time>
      </trkpt>
      <trkpt lat="43.5929" lon="1.17864">
        <ele>224.4</ele>
        <time>2024-07-11T06:56:42Z</time>
      </trkpt>
      <trkpt lat="43.59297" lon="1.17863">
        <ele>224.6</ele>
        <time>2024-07-11T06:56:43Z</time>
      </trkpt>
      <trkpt lat="43.59302" lon="1.17859">
        <ele>224.6</ele>
        <time>2024-07-11T06:56:44Z</time>
      </trkpt>
      <trkpt lat="43.59305" lon="1.17853">
        <ele>225</ele>
        <time>2024-07-11T06:56:45Z</time>
      </trkpt>
      <trkpt lat="43.59307" lon="1.17846">
        <ele>225.2</ele>
        <time>2024-07-11T06:56:46Z</time>
      </trkpt>
      <trkpt lat="43.59308" lon="1.17838">
        <ele>225.4</ele>
        <time>2024-07-11T06:56:47Z</time>
      </trkpt>
      <trkpt lat="43.59309" lon="1.17831">
        <ele>225.6</ele>
        <time>2024-07-11T06:56:48Z</time>
      </trkpt>
      <trkpt lat="43.5931" lon="1.1782">
        <ele>225.8</ele>
        <time>2024-07-11T06:56:49Z</time>
      </trkpt>
      <trkpt lat="43.59311" lon="1.17811">
        <ele>225.8</ele>
        <time>2024-07-11T06:56:50Z</time>
      </trkpt>
      <trkpt lat="43.59313" lon="1.17802">
        <ele>226</ele>
        <time>2024-07-11T06:56:51Z</time>
      </trkpt>
      <trkpt lat="43.59314" lon="1.17793">
        <ele>226</ele>
        <time>2024-07-11T06:56:52Z</time>
      </trkpt>
      <trkpt lat="43.59315" lon="1.17784">
        <ele>226.2</ele>
        <time>2024-07-11T06:56:53Z</time>
      </trkpt>
      <trkpt lat="43.59316" lon="1.17774">
        <ele>226.2</ele>
        <time>2024-07-11T06:56:54Z</time>
      </trkpt>
      <trkpt lat="43.59317" lon="1.17765">
        <ele>226.2</ele>
        <time>2024-07-11T06:56:55Z</time>
      </trkpt>
      <trkpt lat="43.59318" lon="1.17758">
        <ele>226.4</ele>
        <time>2024-07-11T06:56:56Z</time>
      </trkpt>
      <trkpt lat="43.5932" lon="1.17748">
        <ele>226.4</ele>
        <time>2024-07-11T06:56:57Z</time>
      </trkpt>
      <trkpt lat="43.59321" lon="1.17736">
        <ele>226.6</ele>
        <time>2024-07-11T06:56:58Z</time>
      </trkpt>
      <trkpt lat="43.59323" lon="1.17727">
        <ele>226.8</ele>
        <time>2024-07-11T06:56:59Z</time>
      </trkpt>
      <trkpt lat="43.59324" lon="1.17717">
        <ele>226.8</ele>
        <time>2024-07-11T06:57:00Z</time>
      </trkpt>
      <trkpt lat="43.59325" lon="1.17709">
        <ele>227</ele>
        <time>2024-07-11T06:57:01Z</time>
      </trkpt>
      <trkpt lat="43.59327" lon="1.177">
        <ele>227</ele>
        <time>2024-07-11T06:57:02Z</time>
      </trkpt>
      <trkpt lat="43.59329" lon="1.17688">
        <ele>227.2</ele>
        <time>2024-07-11T06:57:03Z</time>
      </trkpt>
      <trkpt lat="43.5933" lon="1.17678">
        <ele>227.2</ele>
        <time>2024-07-11T06:57:04Z</time>
      </trkpt>
      <trkpt lat="43.59331" lon="1.17669">
        <ele>227.2</ele>
        <time>2024-07-11T06:57:05Z</time>
      </trkpt>
      <trkpt lat="43.59332" lon="1.17661">
        <ele>227.2</ele>
        <time>2024-07-11T06:57:06Z</time>
      </trkpt>
      <trkpt lat="43.59334" lon="1.17652">
        <ele>227.2</ele>
        <time>2024-07-11T06:57:07Z</time>
      </trkpt>
      <trkpt lat="43.59335" lon="1.1764">
        <ele>227.4</ele>
        <time>2024-07-11T06:57:08Z</time>
      </trkpt>
      <trkpt lat="43.59337" lon="1.17631">
        <ele>227.4</ele>
        <time>2024-07-11T06:57:09Z</time>
      </trkpt>
      <trkpt lat="43.59338" lon="1.17621">
        <ele>227.4</ele>
        <time>2024-07-11T06:57:10Z</time>
      </trkpt>
      <trkpt lat="43.59339" lon="1.17614">
        <ele>227.6</ele>
        <time>2024-07-11T06:57:11Z</time>
      </trkpt>
      <trkpt lat="43.59341" lon="1.17605">
        <ele>227.6</ele>
        <time>2024-07-11T06:57:12Z</time>
      </trkpt>
      <trkpt lat="43.59343" lon="1.17594">
        <ele>227.6</ele>
        <time>2024-07-11T06:57:13Z</time>
      </trkpt>
      <trkpt lat="43.59344" lon="1.17585">
        <ele>227.8</ele>
        <time>2024-07-11T06:57:14Z</time>
      </trkpt>
      <trkpt lat="43.59346" lon="1.17576">
        <ele>228</ele>
        <time>2024-07-11T06:57:15Z</time>
      </trkpt>
      <trkpt lat="43.59348" lon="1.17567">
        <ele>228</ele>
        <time>2024-07-11T06:57:16Z</time>
      </trkpt>
      <trkpt lat="43.59349" lon="1.17558">
        <ele>228.2</ele>
        <time>2024-07-11T06:57:17Z</time>
      </trkpt>
      <trkpt lat="43.59351" lon="1.17549">
        <ele>228.2</ele>
        <time>2024-07-11T06:57:18Z</time>
      </trkpt>
      <trkpt lat="43.59353" lon="1.1754">
        <ele>228.2</ele>
        <time>2024-07-11T06:57:19Z</time>
      </trkpt>
      <trkpt lat="43.59355" lon="1.17531">
        <ele>228.4</ele>
        <time>2024-07-11T06:57:20Z</time>
      </trkpt>
      <trkpt lat="43.59357" lon="1.17524">
        <ele>228.6</ele>
        <time>2024-07-11T06:57:21Z</time>
      </trkpt>
      <trkpt lat="43.5936" lon="1.17513">
        <ele>228.6</ele>
        <time>2024-07-11T06:57:22Z</time>
      </trkpt>
      <trkpt lat="43.59362" lon="1.17504">
        <ele>228.6</ele>
        <time>2024-07-11T06:57:23Z</time>
      </trkpt>
      <trkpt lat="43.59365" lon="1.17495">
        <ele>228.8</ele>
        <time>2024-07-11T06:57:24Z</time>
      </trkpt>
      <trkpt lat="43.59367" lon="1.17486">
        <ele>228.8</ele>
        <time>2024-07-11T06:57:25Z</time>
      </trkpt>
      <trkpt lat="43.59368" lon="1.17479">
        <ele>229</ele>
        <time>2024-07-11T06:57:26Z</time>
      </trkpt>
      <trkpt lat="43.59371" lon="1.17468">
        <ele>229</ele>
        <time>2024-07-11T06:57:27Z</time>
      </trkpt>
      <trkpt lat="43.59372" lon="1.17459">
        <ele>229.2</ele>
        <time>2024-07-11T06:57:28Z</time>
      </trkpt>
      <trkpt lat="43.59373" lon="1.1745">
        <ele>229.4</ele>
        <time>2024-07-11T06:57:29Z</time>
      </trkpt>
      <trkpt lat="43.59373" lon="1.1744">
        <ele>229.4</ele>
        <time>2024-07-11T06:57:30Z</time>
      </trkpt>
      <trkpt lat="43.59372" lon="1.1743">
        <ele>229.6</ele>
        <time>2024-07-11T06:57:31Z</time>
      </trkpt>
      <trkpt lat="43.59371" lon="1.1742">
        <ele>229.6</ele>
        <time>2024-07-11T06:57:32Z</time>
      </trkpt>
      <trkpt lat="43.59371" lon="1.17411">
        <ele>229.6</ele>
        <time>2024-07-11T06:57:33Z</time>
      </trkpt>
      <trkpt lat="43.59369" lon="1.17401">
        <ele>229.6</ele>
        <time>2024-07-11T06:57:34Z</time>
      </trkpt>
      <trkpt lat="43.59368" lon="1.17391">
        <ele>229.6</ele>
        <time>2024-07-11T06:57:35Z</time>
      </trkpt>
      <trkpt lat="43.59366" lon="1.17381">
        <ele>229.8</ele>
        <time>2024-07-11T06:57:36Z</time>
      </trkpt>
      <trkpt lat="43.59364" lon="1.17372">
        <ele>229.8</ele>
        <time>2024-07-11T06:57:37Z</time>
      </trkpt>
      <trkpt lat="43.59362" lon="1.17363">
        <ele>229.8</ele>
        <time>2024-07-11T06:57:38Z</time>
      </trkpt>
      <trkpt lat="43.59361" lon="1.17356">
        <ele>229.8</ele>
        <time>2024-07-11T06:57:39Z</time>
      </trkpt>
      <trkpt lat="43.59359" lon="1.17346">
        <ele>229.8</ele>
        <time>2024-07-11T06:57:40Z</time>
      </trkpt>
      <trkpt lat="43.59357" lon="1.17336">
        <ele>230</ele>
        <time>2024-07-11T06:57:41Z</time>
      </trkpt>
      <trkpt lat="43.59356" lon="1.17327">
        <ele>230</ele>
        <time>2024-07-11T06:57:42Z</time>
      </trkpt>
      <trkpt lat="43.59356" lon="1.17318">
        <ele>230</ele>
        <time>2024-07-11T06:57:43Z</time>
      </trkpt>
      <trkpt lat="43.59356" lon="1.17311">
        <ele>230.2</ele>
        <time>2024-07-11T06:57:44Z</time>
      </trkpt>
      <trkpt lat="43.59356" lon="1.17301">
        <ele>230.2</ele>
        <time>2024-07-11T06:57:45Z</time>
      </trkpt>
      <trkpt lat="43.59356" lon="1.1729">
        <ele>230.2</ele>
        <time>2024-07-11T06:57:46Z</time>
      </trkpt>
      <trkpt lat="43.59357" lon="1.17281">
        <ele>230.4</ele>
        <time>2024-07-11T06:57:47Z</time>
      </trkpt>
      <trkpt lat="43.59358" lon="1.17273">
        <ele>230.6</ele>
        <time>2024-07-11T06:57:48Z</time>
      </trkpt>
      <trkpt lat="43.5936" lon="1.17264">
        <ele>230.6</ele>
        <time>2024-07-11T06:57:49Z</time>
      </trkpt>
      <trkpt lat="43.59361" lon="1.17256">
        <ele>230.8</ele>
        <time>2024-07-11T06:57:50Z</time>
      </trkpt>
      <trkpt lat="43.59363" lon="1.17245">
        <ele>231.2</ele>
        <time>2024-07-11T06:57:51Z</time>
      </trkpt>
      <trkpt lat="43.59364" lon="1.17235">
        <ele>231.4</ele>
        <time>2024-07-11T06:57:52Z</time>
      </trkpt>
      <trkpt lat="43.59366" lon="1.17226">
        <ele>231.6</ele>
        <time>2024-07-11T06:57:53Z</time>
      </trkpt>
      <trkpt lat="43.59367" lon="1.17218">
        <ele>231.6</ele>
        <time>2024-07-11T06:57:54Z</time>
      </trkpt>
      <trkpt lat="43.59368" lon="1.17207">
        <ele>231.6</ele>
        <time>2024-07-11T06:57:55Z</time>
      </trkpt>
      <trkpt lat="43.5937" lon="1.17198">
        <ele>231.6</ele>
        <time>2024-07-11T06:57:56Z</time>
      </trkpt>
      <trkpt lat="43.59371" lon="1.17189">
        <ele>231.6</ele>
        <time>2024-07-11T06:57:57Z</time>
      </trkpt>
      <trkpt lat="43.59373" lon="1.17179">
        <ele>231.6</ele>
        <time>2024-07-11T06:57:58Z</time>
      </trkpt>
      <trkpt lat="43.59374" lon="1.1717">
        <ele>231.8</ele>
        <time>2024-07-11T06:57:59Z</time>
      </trkpt>
      <trkpt lat="43.59375" lon="1.17161">
        <ele>232</ele>
        <time>2024-07-11T06:58:00Z</time>
      </trkpt>
      <trkpt lat="43.59376" lon="1.17152">
        <ele>232</ele>
        <time>2024-07-11T06:58:01Z</time>
      </trkpt>
      <trkpt lat="43.59377" lon="1.17143">
        <ele>232</ele>
        <time>2024-07-11T06:58:02Z</time>
      </trkpt>
      <trkpt lat="43.59377" lon="1.17135">
        <ele>232.2</ele>
        <time>2024-07-11T06:58:03Z</time>
      </trkpt>
      <trkpt lat="43.59379" lon="1.17126">
        <ele>232.6</ele>
        <time>2024-07-11T06:58:04Z</time>
      </trkpt>
      <trkpt lat="43.5938" lon="1.17116">
        <ele>232.6</ele>
        <time>2024-07-11T06:58:05Z</time>
      </trkpt>
      <trkpt lat="43.59381" lon="1.17106">
        <ele>233</ele>
        <time>2024-07-11T06:58:06Z</time>
      </trkpt>
      <trkpt lat="43.59382" lon="1.17098">
        <ele>233.2</ele>
        <time>2024-07-11T06:58:07Z</time>
      </trkpt>
      <trkpt lat="43.59383" lon="1.17089">
        <ele>233.2</ele>
        <time>2024-07-11T06:58:08Z</time>
      </trkpt>
      <trkpt lat="43.59384" lon="1.1708">
        <ele>233.4</ele>
        <time>2024-07-11T06:58:09Z</time>
      </trkpt>
      <trkpt lat="43.59385" lon="1.17072">
        <ele>233.4</ele>
        <time>2024-07-11T06:58:10Z</time>
      </trkpt>
      <trkpt lat="43.59386" lon="1.17063">
        <ele>233.6</ele>
        <time>2024-07-11T06:58:11Z</time>
      </trkpt>
      <trkpt lat="43.59386" lon="1.17055">
        <ele>233.8</ele>
        <time>2024-07-11T06:58:12Z</time>
      </trkpt>
      <trkpt lat="43.59386" lon="1.17047">
        <ele>234</ele>
        <time>2024-07-11T06:58:13Z</time>
      </trkpt>
      <trkpt lat="43.59386" lon="1.17039">
        <ele>234.4</ele>
        <time>2024-07-11T06:58:14Z</time>
      </trkpt>
      <trkpt lat="43.59385" lon="1.17031">
        <ele>234.4</ele>
        <time>2024-07-11T06:58:15Z</time>
      </trkpt>
      <trkpt lat="43.59385" lon="1.17023">
        <ele>234.6</ele>
        <time>2024-07-11T06:58:16Z</time>
      </trkpt>
      <trkpt lat="43.59384" lon="1.17017">
        <ele>234.8</ele>
        <time>2024-07-11T06:58:17Z</time>
      </trkpt>
      <trkpt lat="43.59382" lon="1.17008">
        <ele>235.2</ele>
        <time>2024-07-11T06:58:18Z</time>
      </trkpt>
      <trkpt lat="43.59381" lon="1.17">
        <ele>235.8</ele>
        <time>2024-07-11T06:58:19Z</time>
      </trkpt>
      <trkpt lat="43.59379" lon="1.16993">
        <ele>236</ele>
        <time>2024-07-11T06:58:20Z</time>
      </trkpt>
      <trkpt lat="43.59378" lon="1.16986">
        <ele>236.6</ele>
        <time>2024-07-11T06:58:21Z</time>
      </trkpt>
      <trkpt lat="43.59377" lon="1.1698">
        <ele>236.8</ele>
        <time>2024-07-11T06:58:22Z</time>
      </trkpt>
      <trkpt lat="43.59376" lon="1.16975">
        <ele>237</ele>
        <time>2024-07-11T06:58:23Z</time>
      </trkpt>
      <trkpt lat="43.59376" lon="1.16969">
        <ele>237.4</ele>
        <time>2024-07-11T06:58:24Z</time>
      </trkpt>
      <trkpt lat="43.59375" lon="1.16964">
        <ele>238</ele>
        <time>2024-07-11T06:58:25Z</time>
      </trkpt>
      <trkpt lat="43.59374" lon="1.16959">
        <ele>238.4</ele>
        <time>2024-07-11T06:58:26Z</time>
      </trkpt>
      <trkpt lat="43.59374" lon="1.16953">
        <ele>238.6</ele>
        <time>2024-07-11T06:58:27Z</time>
      </trkpt>
      <trkpt lat="43.59373" lon="1.16946">
        <ele>239</ele>
        <time>2024-07-11T06:58:28Z</time>
      </trkpt>
      <trkpt lat="43.59373" lon="1.1694">
        <ele>239.2</ele>
        <time>2024-07-11T06:58:29Z</time>
      </trkpt>
      <trkpt lat="43.59372" lon="1.16935">
        <ele>239.6</ele>
        <time>2024-07-11T06:58:30Z</time>
      </trkpt>
      <trkpt lat="43.59371" lon="1.16929">
        <ele>239.8</ele>
        <time>2024-07-11T06:58:31Z</time>
      </trkpt>
      <trkpt lat="43.59369" lon="1.16922">
        <ele>240</ele>
        <time>2024-07-11T06:58:32Z</time>
      </trkpt>
      <trkpt lat="43.59368" lon="1.16916">
        <ele>240.6</ele>
        <time>2024-07-11T06:58:33Z</time>
      </trkpt>
      <trkpt lat="43.59366" lon="1.16909">
        <ele>241</ele>
        <time>2024-07-11T06:58:34Z</time>
      </trkpt>
      <trkpt lat="43.59365" lon="1.16902">
        <ele>241.6</ele>
        <time>2024-07-11T06:58:35Z</time>
      </trkpt>
      <trkpt lat="43.59364" lon="1.16898">
        <ele>241.8</ele>
        <time>2024-07-11T06:58:36Z</time>
      </trkpt>
      <trkpt lat="43.59362" lon="1.1689">
        <ele>242.6</ele>
        <time>2024-07-11T06:58:37Z</time>
      </trkpt>
      <trkpt lat="43.59361" lon="1.16883">
        <ele>242.8</ele>
        <time>2024-07-11T06:58:38Z</time>
      </trkpt>
      <trkpt lat="43.59359" lon="1.16876">
        <ele>243.2</ele>
        <time>2024-07-11T06:58:39Z</time>
      </trkpt>
      <trkpt lat="43.59358" lon="1.16868">
        <ele>243.8</ele>
        <time>2024-07-11T06:58:40Z</time>
      </trkpt>
      <trkpt lat="43.59357" lon="1.16862">
        <ele>244.2</ele>
        <time>2024-07-11T06:58:41Z</time>
      </trkpt>
      <trkpt lat="43.59356" lon="1.16856">
        <ele>244.6</ele>
        <time>2024-07-11T06:58:42Z</time>
      </trkpt>
      <trkpt lat="43.59354" lon="1.16851">
        <ele>244.6</ele>
        <time>2024-07-11T06:58:43Z</time>
      </trkpt>
      <trkpt lat="43.59353" lon="1.16845">
        <ele>245.2</ele>
        <time>2024-07-11T06:58:44Z</time>
      </trkpt>
      <trkpt lat="43.59351" lon="1.16839">
        <ele>245.6</ele>
        <time>2024-07-11T06:58:45Z</time>
      </trkpt>
      <trkpt lat="43.5935" lon="1.16834">
        <ele>246</ele>
        <time>2024-07-11T06:58:46Z</time>
      </trkpt>
      <trkpt lat="43.59348" lon="1.16828">
        <ele>246.8</ele>
        <time>2024-07-11T06:58:47Z</time>
      </trkpt>
      <trkpt lat="43.59346" lon="1.16822">
        <ele>247</ele>
        <time>2024-07-11T06:58:48Z</time>
      </trkpt>
      <trkpt lat="43.59345" lon="1.16817">
        <ele>247.6</ele>
        <time>2024-07-11T06:58:49Z</time>
      </trkpt>
      <trkpt lat="43.59343" lon="1.1681">
        <ele>247.8</ele>
        <time>2024-07-11T06:58:50Z</time>
      </trkpt>
      <trkpt lat="43.59342" lon="1.16805">
        <ele>248.4</ele>
        <time>2024-07-11T06:58:51Z</time>
      </trkpt>
      <trkpt lat="43.59341" lon="1.16799">
        <ele>248.6</ele>
        <time>2024-07-11T06:58:52Z</time>
      </trkpt>
      <trkpt lat="43.59339" lon="1.16794">
        <ele>249</ele>
        <time>2024-07-11T06:58:53Z</time>
      </trkpt>
      <trkpt lat="43.59337" lon="1.16788">
        <ele>249.4</ele>
        <time>2024-07-11T06:58:54Z</time>
      </trkpt>
      <trkpt lat="43.59335" lon="1.16782">
        <ele>249.8</ele>
        <time>2024-07-11T06:58:55Z</time>
      </trkpt>
      <trkpt lat="43.59334" lon="1.16776">
        <ele>250.2</ele>
        <time>2024-07-11T06:58:56Z</time>
      </trkpt>
      <trkpt lat="43.59332" lon="1.16771">
        <ele>250.4</ele>
        <time>2024-07-11T06:58:57Z</time>
      </trkpt>
      <trkpt lat="43.5933" lon="1.16766">
        <ele>250.6</ele>
        <time>2024-07-11T06:58:58Z</time>
      </trkpt>
      <trkpt lat="43.59329" lon="1.1676">
        <ele>250.8</ele>
        <time>2024-07-11T06:58:59Z</time>
      </trkpt>
      <trkpt lat="43.59327" lon="1.16755">
        <ele>251.2</ele>
        <time>2024-07-11T06:59:00Z</time>
      </trkpt>
      <trkpt lat="43.59326" lon="1.16749">
        <ele>251.6</ele>
        <time>2024-07-11T06:59:01Z</time>
      </trkpt>
      <trkpt lat="43.59325" lon="1.16744">
        <ele>251.8</ele>
        <time>2024-07-11T06:59:02Z</time>
      </trkpt>
      <trkpt lat="43.59323" lon="1.1674">
        <ele>252.2</ele>
        <time>2024-07-11T06:59:03Z</time>
      </trkpt>
      <trkpt lat="43.59322" lon="1.16735">
        <ele>252.4</ele>
        <time>2024-07-11T06:59:04Z</time>
      </trkpt>
      <trkpt lat="43.5932" lon="1.16728">
        <ele>252.6</ele>
        <time>2024-07-11T06:59:05Z</time>
      </trkpt>
      <trkpt lat="43.59319" lon="1.16723">
        <ele>253.2</ele>
        <time>2024-07-11T06:59:06Z</time>
      </trkpt>
      <trkpt lat="43.59318" lon="1.16718">
        <ele>253.2</ele>
        <time>2024-07-11T06:59:07Z</time>
      </trkpt>
      <trkpt lat="43.59317" lon="1.16714">
        <ele>253.6</ele>
        <time>2024-07-11T06:59:08Z</time>
      </trkpt>
      <trkpt lat="43.59315" lon="1.16709">
        <ele>254</ele>
        <time>2024-07-11T06:59:09Z</time>
      </trkpt>
      <trkpt lat="43.59313" lon="1.16703">
        <ele>254.2</ele>
        <time>2024-07-11T06:59:10Z</time>
      </trkpt>
      <trkpt lat="43.59311" lon="1.16698">
        <ele>254.6</ele>
        <time>2024-07-11T06:59:11Z</time>
      </trkpt>
      <trkpt lat="43.5931" lon="1.16693">
        <ele>255</ele>
        <time>2024-07-11T06:59:12Z</time>
      </trkpt>
      <trkpt lat="43.59308" lon="1.16689">
        <ele>255.2</ele>
        <time>2024-07-11T06:59:13Z</time>
      </trkpt>
      <trkpt lat="43.59307" lon="1.16684">
        <ele>255.6</ele>
        <time>2024-07-11T06:59:14Z</time>
      </trkpt>
      <trkpt lat="43.59305" lon="1.16679">
        <ele>255.8</ele>
        <time>2024-07-11T06:59:15Z</time>
      </trkpt>
      <trkpt lat="43.59304" lon="1.16675">
        <ele>255.8</ele>
        <time>2024-07-11T06:59:16Z</time>
      </trkpt>
      <trkpt lat="43.59303" lon="1.16671">
        <ele>256.4</ele>
        <time>2024-07-11T06:59:17Z</time>
      </trkpt>
      <trkpt lat="43.59302" lon="1.16667">
        <ele>256.8</ele>
        <time>2024-07-11T06:59:18Z</time>
      </trkpt>
      <trkpt lat="43.593" lon="1.16662">
        <ele>257.4</ele>
        <time>2024-07-11T06:59:19Z</time>
      </trkpt>
      <trkpt lat="43.59298" lon="1.16657">
        <ele>257.8</ele>
        <time>2024-07-11T06:59:20Z</time>
      </trkpt>
      <trkpt lat="43.59297" lon="1.16651">
        <ele>258</ele>
        <time>2024-07-11T06:59:21Z</time>
      </trkpt>
      <trkpt lat="43.59295" lon="1.16646">
        <ele>258.4</ele>
        <time>2024-07-11T06:59:22Z</time>
      </trkpt>
      <trkpt lat="43.59294" lon="1.16642">
        <ele>258.4</ele>
        <time>2024-07-11T06:59:23Z</time>
      </trkpt>
      <trkpt lat="43.59293" lon="1.16636">
        <ele>258.8</ele>
        <time>2024-07-11T06:59:24Z</time>
      </trkpt>
      <trkpt lat="43.59292" lon="1.16632">
        <ele>259</ele>
        <time>2024-07-11T06:59:25Z</time>
      </trkpt>
      <trkpt lat="43.59291" lon="1.16627">
        <ele>259.2</ele>
        <time>2024-07-11T06:59:26Z</time>
      </trkpt>
      <trkpt lat="43.5929" lon="1.16624">
        <ele>259.8</ele>
        <time>2024-07-11T06:59:27Z</time>
      </trkpt>
      <trkpt lat="43.59289" lon="1.16618">
        <ele>260</ele>
        <time>2024-07-11T06:59:28Z</time>
      </trkpt>
      <trkpt lat="43.59288" lon="1.16614">
        <ele>260.4</ele>
        <time>2024-07-11T06:59:29Z</time>
      </trkpt>
      <trkpt lat="43.59287" lon="1.1661">
        <ele>260.6</ele>
        <time>2024-07-11T06:59:30Z</time>
      </trkpt>
      <trkpt lat="43.59286" lon="1.16606">
        <ele>261</ele>
        <time>2024-07-11T06:59:31Z</time>
      </trkpt>
      <trkpt lat="43.59285" lon="1.16601">
        <ele>261</ele>
        <time>2024-07-11T06:59:32Z</time>
      </trkpt>
      <trkpt lat="43.59284" lon="1.16597">
        <ele>261.6</ele>
        <time>2024-07-11T06:59:33Z</time>
      </trkpt>
      <trkpt lat="43.59283" lon="1.16593">
        <ele>262</ele>
        <time>2024-07-11T06:59:34Z</time>
      </trkpt>
      <trkpt lat="43.59282" lon="1.16588">
        <ele>262.2</ele>
        <time>2024-07-11T06:59:35Z</time>
      </trkpt>
      <trkpt lat="43.59281" lon="1.16584">
        <ele>262.6</ele>
        <time>2024-07-11T06:59:36Z</time>
      </trkpt>
      <trkpt lat="43.5928" lon="1.16579">
        <ele>262.8</ele>
        <time>2024-07-11T06:59:37Z</time>
      </trkpt>
      <trkpt lat="43.5928" lon="1.16574">
        <ele>263.2</ele>
        <time>2024-07-11T06:59:38Z</time>
      </trkpt>
      <trkpt lat="43.5928" lon="1.16569">
        <ele>263.4</ele>
        <time>2024-07-11T06:59:39Z</time>
      </trkpt>
      <trkpt lat="43.59279" lon="1.16564">
        <ele>264.2</ele>
        <time>2024-07-11T06:59:40Z</time>
      </trkpt>
      <trkpt lat="43.59279" lon="1.16559">
        <ele>264.6</ele>
        <time>2024-07-11T06:59:41Z</time>
      </trkpt>
      <trkpt lat="43.59279" lon="1.16554">
        <ele>264.8</ele>
        <time>2024-07-11T06:59:42Z</time>
      </trkpt>
      <trkpt lat="43.59279" lon="1.16548">
        <ele>265</ele>
        <time>2024-07-11T06:59:43Z</time>
      </trkpt>
      <trkpt lat="43.59279" lon="1.16543">
        <ele>265.2</ele>
        <time>2024-07-11T06:59:44Z</time>
      </trkpt>
      <trkpt lat="43.59279" lon="1.16538">
        <ele>265.4</ele>
        <time>2024-07-11T06:59:45Z</time>
      </trkpt>
      <trkpt lat="43.59279" lon="1.16533">
        <ele>265.6</ele>
        <time>2024-07-11T06:59:46Z</time>
      </trkpt>
      <trkpt lat="43.59279" lon="1.16527">
        <ele>265.8</ele>
        <time>2024-07-11T06:59:47Z</time>
      </trkpt>
      <trkpt lat="43.59278" lon="1.16522">
        <ele>266.2</ele>
        <time>2024-07-11T06:59:48Z</time>
      </trkpt>
      <trkpt lat="43.59278" lon="1.16516">
        <ele>266.6</ele>
        <time>2024-07-11T06:59:49Z</time>
      </trkpt>
      <trkpt lat="43.59278" lon="1.16512">
        <ele>267</ele>
        <time>2024-07-11T06:59:50Z</time>
      </trkpt>
      <trkpt lat="43.59278" lon="1.16507">
        <ele>267.2</ele>
        <time>2024-07-11T06:59:51Z</time>
      </trkpt>
      <trkpt lat="43.59279" lon="1.16501">
        <ele>267.8</ele>
        <time>2024-07-11T06:59:52Z</time>
      </trkpt>
      <trkpt lat="43.59279" lon="1.16495">
        <ele>268</ele>
        <time>2024-07-11T06:59:53Z</time>
      </trkpt>
      <trkpt lat="43.59279" lon="1.1649">
        <ele>268.4</ele>
        <time>2024-07-11T06:59:54Z</time>
      </trkpt>
      <trkpt lat="43.59279" lon="1.16485">
        <ele>268.6</ele>
        <time>2024-07-11T06:59:55Z</time>
      </trkpt>
      <trkpt lat="43.59279" lon="1.16479">
        <ele>268.8</ele>
        <time>2024-07-11T06:59:56Z</time>
      </trkpt>
      <trkpt lat="43.59279" lon="1.16474">
        <ele>269.4</ele>
        <time>2024-07-11T06:59:57Z</time>
      </trkpt>
      <trkpt lat="43.59279" lon="1.16469">
        <ele>269.6</ele>
        <time>2024-07-11T06:59:58Z</time>
      </trkpt>
      <trkpt lat="43.59279" lon="1.16463">
        <ele>269.8</ele>
        <time>2024-07-11T06:59:59Z</time>
      </trkpt>
      <trkpt lat="43.59279" lon="1.16458">
        <ele>270.2</ele>
        <time>2024-07-11T07:00:00Z</time>
      </trkpt>
      <trkpt lat="43.59279" lon="1.16452">
        <ele>270.4</ele>
        <time>2024-07-11T07:00:01Z</time>
      </trkpt>
      <trkpt lat="43.59279" lon="1.16446">
        <ele>270.6</ele>
        <time>2024-07-11T07:00:02Z</time>
      </trkpt>
      <trkpt lat="43.59279" lon="1.16441">
        <ele>270.8</ele>
        <time>2024-07-11T07:00:03Z</time>
      </trkpt>
      <trkpt lat="43.59279" lon="1.16435">
        <ele>271.2</ele>
        <time>2024-07-11T07:00:04Z</time>
      </trkpt>
      <trkpt lat="43.59278" lon="1.16429">
        <ele>271.2</ele>
        <time>2024-07-11T07:00:05Z</time>
      </trkpt>
      <trkpt lat="43.59279" lon="1.16424">
        <ele>271.6</ele>
        <time>2024-07-11T07:00:06Z</time>
      </trkpt>
      <trkpt lat="43.59279" lon="1.16418">
        <ele>271.6</ele>
        <time>2024-07-11T07:00:07Z</time>
      </trkpt>
      <trkpt lat="43.59279" lon="1.16412">
        <ele>271.8</ele>
        <time>2024-07-11T07:00:08Z</time>
      </trkpt>
      <trkpt lat="43.59279" lon="1.16408">
        <ele>272</ele>
        <time>2024-07-11T07:00:09Z</time>
      </trkpt>
      <trkpt lat="43.59279" lon="1.16401">
        <ele>272.2</ele>
        <time>2024-07-11T07:00:10Z</time>
      </trkpt>
      <trkpt lat="43.59279" lon="1.16395">
        <ele>272.4</ele>
        <time>2024-07-11T07:00:11Z</time>
      </trkpt>
      <trkpt lat="43.59279" lon="1.16389">
        <ele>272.4</ele>
        <time>2024-07-11T07:00:12Z</time>
      </trkpt>
      <trkpt lat="43.59279" lon="1.16383">
        <ele>272.4</ele>
        <time>2024-07-11T07:00:13Z</time>
      </trkpt>
      <trkpt lat="43.59279" lon="1.16378">
        <ele>272.8</ele>
        <time>2024-07-11T07:00:14Z</time>
      </trkpt>
      <trkpt lat="43.59279" lon="1.16372">
        <ele>273</ele>
        <time>2024-07-11T07:00:15Z</time>
      </trkpt>
      <trkpt lat="43.59278" lon="1.16366">
        <ele>273.4</ele>
        <time>2024-07-11T07:00:16Z</time>
      </trkpt>
      <trkpt lat="43.59278" lon="1.1636">
        <ele>273.6</ele>
        <time>2024-07-11T07:00:17Z</time>
      </trkpt>
      <trkpt lat="43.59278" lon="1.16356">
        <ele>274</ele>
        <time>2024-07-11T07:00:18Z</time>
      </trkpt>
      <trkpt lat="43.59278" lon="1.16349">
        <ele>274.2</ele>
        <time>2024-07-11T07:00:19Z</time>
      </trkpt>
      <trkpt lat="43.59277" lon="1.16343">
        <ele>274.4</ele>
        <time>2024-07-11T07:00:20Z</time>
      </trkpt>
      <trkpt lat="43.59277" lon="1.16337">
        <ele>274.6</ele>
        <time>2024-07-11T07:00:21Z</time>
      </trkpt>
      <trkpt lat="43.59276" lon="1.16332">
        <ele>274.8</ele>
        <time>2024-07-11T07:00:22Z</time>
      </trkpt>
      <trkpt lat="43.59275" lon="1.16326">
        <ele>275.2</ele>
        <time>2024-07-11T07:00:23Z</time>
      </trkpt>
      <trkpt lat="43.59274" lon="1.16321">
        <ele>275.2</ele>
        <time>2024-07-11T07:00:24Z</time>
      </trkpt>
      <trkpt lat="43.59273" lon="1.16314">
        <ele>275.6</ele>
        <time>2024-07-11T07:00:25Z</time>
      </trkpt>
      <trkpt lat="43.59272" lon="1.16307">
        <ele>275.8</ele>
        <time>2024-07-11T07:00:26Z</time>
      </trkpt>
      <trkpt lat="43.59271" lon="1.16301">
        <ele>276</ele>
        <time>2024-07-11T07:00:27Z</time>
      </trkpt>
      <trkpt lat="43.5927" lon="1.16295">
        <ele>276.2</ele>
        <time>2024-07-11T07:00:28Z</time>
      </trkpt>
      <trkpt lat="43.59269" lon="1.16286">
        <ele>276.2</ele>
        <time>2024-07-11T07:00:29Z</time>
      </trkpt>
      <trkpt lat="43.59267" lon="1.16279">
        <ele>276.4</ele>
        <time>2024-07-11T07:00:30Z</time>
      </trkpt>
      <trkpt lat="43.59266" lon="1.16272">
        <ele>276.6</ele>
        <time>2024-07-11T07:00:31Z</time>
      </trkpt>
      <trkpt lat="43.59264" lon="1.16266">
        <ele>276.6</ele>
        <time>2024-07-11T07:00:32Z</time>
      </trkpt>
      <trkpt lat="43.59263" lon="1.16259">
        <ele>276.8</ele>
        <time>2024-07-11T07:00:33Z</time>
      </trkpt>
      <trkpt lat="43.59261" lon="1.1625">
        <ele>277</ele>
        <time>2024-07-11T07:00:34Z</time>
      </trkpt>
      <trkpt lat="43.59259" lon="1.16242">
        <ele>277.2</ele>
        <time>2024-07-11T07:00:35Z</time>
      </trkpt>
      <trkpt lat="43.59258" lon="1.16235">
        <ele>277.4</ele>
        <time>2024-07-11T07:00:36Z</time>
      </trkpt>
      <trkpt lat="43.59256" lon="1.16228">
        <ele>277.4</ele>
        <time>2024-07-11T07:00:37Z</time>
      </trkpt>
      <trkpt lat="43.59255" lon="1.1622">
        <ele>277.4</ele>
        <time>2024-07-11T07:00:38Z</time>
      </trkpt>
      <trkpt lat="43.59252" lon="1.16211">
        <ele>277.6</ele>
        <time>2024-07-11T07:00:39Z</time>
      </trkpt>
      <trkpt lat="43.59251" lon="1.16203">
        <ele>277.6</ele>
        <time>2024-07-11T07:00:40Z</time>
      </trkpt>
      <trkpt lat="43.59249" lon="1.16195">
        <ele>277.8</ele>
        <time>2024-07-11T07:00:41Z</time>
      </trkpt>
      <trkpt lat="43.59247" lon="1.16189">
        <ele>277.8</ele>
        <time>2024-07-11T07:00:42Z</time>
      </trkpt>
      <trkpt lat="43.59246" lon="1.16181">
        <ele>277.8</ele>
        <time>2024-07-11T07:00:43Z</time>
      </trkpt>
      <trkpt lat="43.59244" lon="1.16171">
        <ele>277.8</ele>
        <time>2024-07-11T07:00:44Z</time>
      </trkpt>
      <trkpt lat="43.59242" lon="1.16163">
        <ele>278</ele>
        <time>2024-07-11T07:00:45Z</time>
      </trkpt>
      <trkpt lat="43.59241" lon="1.16154">
        <ele>278</ele>
        <time>2024-07-11T07:00:46Z</time>
      </trkpt>
      <trkpt lat="43.59239" lon="1.16146">
        <ele>278.2</ele>
        <time>2024-07-11T07:00:47Z</time>
      </trkpt>
      <trkpt lat="43.59238" lon="1.16138">
        <ele>278.2</ele>
        <time>2024-07-11T07:00:48Z</time>
      </trkpt>
      <trkpt lat="43.59237" lon="1.16129">
        <ele>278.4</ele>
        <time>2024-07-11T07:00:49Z</time>
      </trkpt>
      <trkpt lat="43.59237" lon="1.16121">
        <ele>278.4</ele>
        <time>2024-07-11T07:00:50Z</time>
      </trkpt>
      <trkpt lat="43.59236" lon="1.16112">
        <ele>278.6</ele>
        <time>2024-07-11T07:00:51Z</time>
      </trkpt>
      <trkpt lat="43.59236" lon="1.16103">
        <ele>278.8</ele>
        <time>2024-07-11T07:00:52Z</time>
      </trkpt>
      <trkpt lat="43.59235" lon="1.16095">
        <ele>279.2</ele>
        <time>2024-07-11T07:00:53Z</time>
      </trkpt>
      <trkpt lat="43.59235" lon="1.16086">
        <ele>279.4</ele>
        <time>2024-07-11T07:00:54Z</time>
      </trkpt>
      <trkpt lat="43.59235" lon="1.16078">
        <ele>279.4</ele>
        <time>2024-07-11T07:00:55Z</time>
      </trkpt>
      <trkpt lat="43.59234" lon="1.1607">
        <ele>279.6</ele>
        <time>2024-07-11T07:00:56Z</time>
      </trkpt>
      <trkpt lat="43.59234" lon="1.16061">
        <ele>279.6</ele>
        <time>2024-07-11T07:00:57Z</time>
      </trkpt>
      <trkpt lat="43.59235" lon="1.16053">
        <ele>279.8</ele>
        <time>2024-07-11T07:00:58Z</time>
      </trkpt>
      <trkpt lat="43.59235" lon="1.16044">
        <ele>279.8</ele>
        <time>2024-07-11T07:00:59Z</time>
      </trkpt>
      <trkpt lat="43.59235" lon="1.16036">
        <ele>279.8</ele>
        <time>2024-07-11T07:01:00Z</time>
      </trkpt>
      <trkpt lat="43.59236" lon="1.1603">
        <ele>280</ele>
        <time>2024-07-11T07:01:01Z</time>
      </trkpt>
      <trkpt lat="43.59236" lon="1.16022">
        <ele>280.2</ele>
        <time>2024-07-11T07:01:02Z</time>
      </trkpt>
      <trkpt lat="43.59236" lon="1.16013">
        <ele>280.4</ele>
        <time>2024-07-11T07:01:03Z</time>
      </trkpt>
      <trkpt lat="43.59237" lon="1.16005">
        <ele>280.4</ele>
        <time>2024-07-11T07:01:04Z</time>
      </trkpt>
      <trkpt lat="43.59237" lon="1.15997">
        <ele>280.6</ele>
        <time>2024-07-11T07:01:05Z</time>
      </trkpt>
      <trkpt lat="43.59238" lon="1.1599">
        <ele>280.6</ele>
        <time>2024-07-11T07:01:06Z</time>
      </trkpt>
      <trkpt lat="43.59238" lon="1.15983">
        <ele>281</ele>
        <time>2024-07-11T07:01:07Z</time>
      </trkpt>
      <trkpt lat="43.59239" lon="1.15974">
        <ele>281.4</ele>
        <time>2024-07-11T07:01:08Z</time>
      </trkpt>
      <trkpt lat="43.59239" lon="1.15966">
        <ele>281.6</ele>
        <time>2024-07-11T07:01:09Z</time>
      </trkpt>
      <trkpt lat="43.5924" lon="1.15959">
        <ele>282</ele>
        <time>2024-07-11T07:01:10Z</time>
      </trkpt>
      <trkpt lat="43.59241" lon="1.15952">
        <ele>282.2</ele>
        <time>2024-07-11T07:01:11Z</time>
      </trkpt>
      <trkpt lat="43.59243" lon="1.15944">
        <ele>282.6</ele>
        <time>2024-07-11T07:01:12Z</time>
      </trkpt>
      <trkpt lat="43.59244" lon="1.15937">
        <ele>282.8</ele>
        <time>2024-07-11T07:01:13Z</time>
      </trkpt>
      <trkpt lat="43.59246" lon="1.1593">
        <ele>283</ele>
        <time>2024-07-11T07:01:14Z</time>
      </trkpt>
      <trkpt lat="43.59247" lon="1.15924">
        <ele>283.6</ele>
        <time>2024-07-11T07:01:15Z</time>
      </trkpt>
      <trkpt lat="43.59248" lon="1.15917">
        <ele>283.8</ele>
        <time>2024-07-11T07:01:16Z</time>
      </trkpt>
      <trkpt lat="43.5925" lon="1.15909">
        <ele>284.2</ele>
        <time>2024-07-11T07:01:17Z</time>
      </trkpt>
      <trkpt lat="43.59251" lon="1.15902">
        <ele>284.4</ele>
        <time>2024-07-11T07:01:18Z</time>
      </trkpt>
      <trkpt lat="43.59252" lon="1.15896">
        <ele>284.8</ele>
        <time>2024-07-11T07:01:19Z</time>
      </trkpt>
      <trkpt lat="43.59253" lon="1.15892">
        <ele>285</ele>
        <time>2024-07-11T07:01:20Z</time>
      </trkpt>
      <trkpt lat="43.59255" lon="1.15885">
        <ele>285.2</ele>
        <time>2024-07-11T07:01:21Z</time>
      </trkpt>
      <trkpt lat="43.59258" lon="1.15878">
        <ele>285.4</ele>
        <time>2024-07-11T07:01:22Z</time>
      </trkpt>
      <trkpt lat="43.5926" lon="1.15872">
        <ele>285.4</ele>
        <time>2024-07-11T07:01:23Z</time>
      </trkpt>
      <trkpt lat="43.59261" lon="1.15865">
        <ele>285.8</ele>
        <time>2024-07-11T07:01:24Z</time>
      </trkpt>
      <trkpt lat="43.59263" lon="1.15859">
        <ele>286</ele>
        <time>2024-07-11T07:01:25Z</time>
      </trkpt>
      <trkpt lat="43.59265" lon="1.15852">
        <ele>286.4</ele>
        <time>2024-07-11T07:01:26Z</time>
      </trkpt>
      <trkpt lat="43.59267" lon="1.15846">
        <ele>286.6</ele>
        <time>2024-07-11T07:01:27Z</time>
      </trkpt>
      <trkpt lat="43.59268" lon="1.1584">
        <ele>286.6</ele>
        <time>2024-07-11T07:01:28Z</time>
      </trkpt>
      <trkpt lat="43.5927" lon="1.15834">
        <ele>286.8</ele>
        <time>2024-07-11T07:01:29Z</time>
      </trkpt>
      <trkpt lat="43.59272" lon="1.15828">
        <ele>287</ele>
        <time>2024-07-11T07:01:30Z</time>
      </trkpt>
      <trkpt lat="43.59273" lon="1.15822">
        <ele>287.2</ele>
        <time>2024-07-11T07:01:31Z</time>
      </trkpt>
      <trkpt lat="43.59275" lon="1.15816">
        <ele>287.4</ele>
        <time>2024-07-11T07:01:32Z</time>
      </trkpt>
      <trkpt lat="43.59278" lon="1.1581">
        <ele>287.6</ele>
        <time>2024-07-11T07:01:33Z</time>
      </trkpt>
      <trkpt lat="43.5928" lon="1.15804">
        <ele>288</ele>
        <time>2024-07-11T07:01:34Z</time>
      </trkpt>
      <trkpt lat="43.59282" lon="1.15798">
        <ele>288.2</ele>
        <time>2024-07-11T07:01:35Z</time>
      </trkpt>
      <trkpt lat="43.59284" lon="1.15793">
        <ele>288.4</ele>
        <time>2024-07-11T07:01:36Z</time>
      </trkpt>
      <trkpt lat="43.59287" lon="1.15785">
        <ele>288.4</ele>
        <time>2024-07-11T07:01:37Z</time>
      </trkpt>
      <trkpt lat="43.59289" lon="1.15779">
        <ele>288.8</ele>
        <time>2024-07-11T07:01:38Z</time>
      </trkpt>
      <trkpt lat="43.59292" lon="1.15773">
        <ele>288.8</ele>
        <time>2024-07-11T07:01:39Z</time>
      </trkpt>
      <trkpt lat="43.59294" lon="1.15768">
        <ele>289.2</ele>
        <time>2024-07-11T07:01:40Z</time>
      </trkpt>
      <trkpt lat="43.59297" lon="1.15761">
        <ele>289.4</ele>
        <time>2024-07-11T07:01:41Z</time>
      </trkpt>
      <trkpt lat="43.593" lon="1.15755">
        <ele>289.8</ele>
        <time>2024-07-11T07:01:42Z</time>
      </trkpt>
      <trkpt lat="43.59303" lon="1.15749">
        <ele>290.2</ele>
        <time>2024-07-11T07:01:43Z</time>
      </trkpt>
      <trkpt lat="43.59305" lon="1.15743">
        <ele>290.4</ele>
        <time>2024-07-11T07:01:44Z</time>
      </trkpt>
      <trkpt lat="43.59308" lon="1.15737">
        <ele>290.8</ele>
        <time>2024-07-11T07:01:45Z</time>
      </trkpt>
      <trkpt lat="43.59311" lon="1.15731">
        <ele>291.2</ele>
        <time>2024-07-11T07:01:46Z</time>
      </trkpt>
      <trkpt lat="43.59314" lon="1.15724">
        <ele>291.6</ele>
        <time>2024-07-11T07:01:47Z</time>
      </trkpt>
      <trkpt lat="43.59317" lon="1.15718">
        <ele>292</ele>
        <time>2024-07-11T07:01:48Z</time>
      </trkpt>
      <trkpt lat="43.5932" lon="1.15712">
        <ele>292.2</ele>
        <time>2024-07-11T07:01:49Z</time>
      </trkpt>
      <trkpt lat="43.59323" lon="1.15706">
        <ele>292.6</ele>
        <time>2024-07-11T07:01:50Z</time>
      </trkpt>
      <trkpt lat="43.59325" lon="1.157">
        <ele>292.6</ele>
        <time>2024-07-11T07:01:51Z</time>
      </trkpt>
      <trkpt lat="43.59328" lon="1.15694">
        <ele>292.8</ele>
        <time>2024-07-11T07:01:52Z</time>
      </trkpt>
      <trkpt lat="43.59331" lon="1.15688">
        <ele>293</ele>
        <time>2024-07-11T07:01:53Z</time>
      </trkpt>
      <trkpt lat="43.59334" lon="1.15682">
        <ele>293.4</ele>
        <time>2024-07-11T07:01:54Z</time>
      </trkpt>
      <trkpt lat="43.59338" lon="1.15675">
        <ele>293.8</ele>
        <time>2024-07-11T07:01:55Z</time>
      </trkpt>
      <trkpt lat="43.59341" lon="1.15669">
        <ele>293.8</ele>
        <time>2024-07-11T07:01:56Z</time>
      </trkpt>
      <trkpt lat="43.59344" lon="1.15662">
        <ele>294</ele>
        <time>2024-07-11T07:01:57Z</time>
      </trkpt>
      <trkpt lat="43.59346" lon="1.15657">
        <ele>294.2</ele>
        <time>2024-07-11T07:01:58Z</time>
      </trkpt>
      <trkpt lat="43.59349" lon="1.1565">
        <ele>294.4</ele>
        <time>2024-07-11T07:01:59Z</time>
      </trkpt>
      <trkpt lat="43.59353" lon="1.15643">
        <ele>294.6</ele>
        <time>2024-07-11T07:02:00Z</time>
      </trkpt>
      <trkpt lat="43.59356" lon="1.15637">
        <ele>294.8</ele>
        <time>2024-07-11T07:02:01Z</time>
      </trkpt>
      <trkpt lat="43.5936" lon="1.1563">
        <ele>294.8</ele>
        <time>2024-07-11T07:02:02Z</time>
      </trkpt>
      <trkpt lat="43.59362" lon="1.15625">
        <ele>295</ele>
        <time>2024-07-11T07:02:03Z</time>
      </trkpt>
      <trkpt lat="43.59365" lon="1.15619">
        <ele>295.2</ele>
        <time>2024-07-11T07:02:04Z</time>
      </trkpt>
      <trkpt lat="43.59369" lon="1.15611">
        <ele>295.2</ele>
        <time>2024-07-11T07:02:05Z</time>
      </trkpt>
      <trkpt lat="43.59372" lon="1.15605">
        <ele>295.4</ele>
        <time>2024-07-11T07:02:06Z</time>
      </trkpt>
      <trkpt lat="43.59375" lon="1.15598">
        <ele>295.4</ele>
        <time>2024-07-11T07:02:07Z</time>
      </trkpt>
      <trkpt lat="43.59377" lon="1.15592">
        <ele>295.8</ele>
        <time>2024-07-11T07:02:08Z</time>
      </trkpt>
      <trkpt lat="43.59381" lon="1.15584">
        <ele>296.2</ele>
        <time>2024-07-11T07:02:09Z</time>
      </trkpt>
      <trkpt lat="43.59384" lon="1.15577">
        <ele>296.2</ele>
        <time>2024-07-11T07:02:10Z</time>
      </trkpt>
      <trkpt lat="43.59386" lon="1.1557">
        <ele>296.4</ele>
        <time>2024-07-11T07:02:11Z</time>
      </trkpt>
      <trkpt lat="43.59389" lon="1.15563">
        <ele>296.4</ele>
        <time>2024-07-11T07:02:12Z</time>
      </trkpt>
      <trkpt lat="43.59392" lon="1.15556">
        <ele>296.6</ele>
        <time>2024-07-11T07:02:13Z</time>
      </trkpt>
      <trkpt lat="43.59394" lon="1.15548">
        <ele>296.8</ele>
        <time>2024-07-11T07:02:14Z</time>
      </trkpt>
      <trkpt lat="43.59396" lon="1.15541">
        <ele>296.8</ele>
        <time>2024-07-11T07:02:15Z</time>
      </trkpt>
      <trkpt lat="43.59399" lon="1.15533">
        <ele>297</ele>
        <time>2024-07-11T07:02:16Z</time>
      </trkpt>
      <trkpt lat="43.59401" lon="1.15526">
        <ele>297</ele>
        <time>2024-07-11T07:02:17Z</time>
      </trkpt>
      <trkpt lat="43.59402" lon="1.15519">
        <ele>297.2</ele>
        <time>2024-07-11T07:02:18Z</time>
      </trkpt>
      <trkpt lat="43.59404" lon="1.1551">
        <ele>297.4</ele>
        <time>2024-07-11T07:02:19Z</time>
      </trkpt>
      <trkpt lat="43.59406" lon="1.15502">
        <ele>297.6</ele>
        <time>2024-07-11T07:02:20Z</time>
      </trkpt>
      <trkpt lat="43.59408" lon="1.15495">
        <ele>297.6</ele>
        <time>2024-07-11T07:02:21Z</time>
      </trkpt>
      <trkpt lat="43.59409" lon="1.15488">
        <ele>298</ele>
        <time>2024-07-11T07:02:22Z</time>
      </trkpt>
      <trkpt lat="43.5941" lon="1.15479">
        <ele>298.2</ele>
        <time>2024-07-11T07:02:23Z</time>
      </trkpt>
      <trkpt lat="43.59411" lon="1.15473">
        <ele>298.4</ele>
        <time>2024-07-11T07:02:24Z</time>
      </trkpt>
      <trkpt lat="43.59412" lon="1.15463">
        <ele>298.6</ele>
        <time>2024-07-11T07:02:25Z</time>
      </trkpt>
      <trkpt lat="43.59413" lon="1.15455">
        <ele>298.6</ele>
        <time>2024-07-11T07:02:26Z</time>
      </trkpt>
      <trkpt lat="43.59414" lon="1.15446">
        <ele>298.8</ele>
        <time>2024-07-11T07:02:27Z</time>
      </trkpt>
      <trkpt lat="43.59414" lon="1.15439">
        <ele>298.8</ele>
        <time>2024-07-11T07:02:28Z</time>
      </trkpt>
      <trkpt lat="43.59415" lon="1.15429">
        <ele>299</ele>
        <time>2024-07-11T07:02:29Z</time>
      </trkpt>
      <trkpt lat="43.59416" lon="1.15421">
        <ele>299.2</ele>
        <time>2024-07-11T07:02:30Z</time>
      </trkpt>
      <trkpt lat="43.59417" lon="1.15412">
        <ele>299.2</ele>
        <time>2024-07-11T07:02:31Z</time>
      </trkpt>
      <trkpt lat="43.59418" lon="1.15403">
        <ele>299.2</ele>
        <time>2024-07-11T07:02:32Z</time>
      </trkpt>
      <trkpt lat="43.59418" lon="1.15396">
        <ele>299.2</ele>
        <time>2024-07-11T07:02:33Z</time>
      </trkpt>
      <trkpt lat="43.59419" lon="1.15385">
        <ele>299.4</ele>
        <time>2024-07-11T07:02:34Z</time>
      </trkpt>
      <trkpt lat="43.5942" lon="1.15377">
        <ele>299.4</ele>
        <time>2024-07-11T07:02:35Z</time>
      </trkpt>
      <trkpt lat="43.59421" lon="1.15368">
        <ele>299.4</ele>
        <time>2024-07-11T07:02:36Z</time>
      </trkpt>
      <trkpt lat="43.59421" lon="1.15361">
        <ele>299.6</ele>
        <time>2024-07-11T07:02:37Z</time>
      </trkpt>
      <trkpt lat="43.59422" lon="1.1535">
        <ele>299.6</ele>
        <time>2024-07-11T07:02:38Z</time>
      </trkpt>
      <trkpt lat="43.59423" lon="1.15342">
        <ele>299.8</ele>
        <time>2024-07-11T07:02:39Z</time>
      </trkpt>
      <trkpt lat="43.59424" lon="1.15333">
        <ele>299.8</ele>
        <time>2024-07-11T07:02:40Z</time>
      </trkpt>
      <trkpt lat="43.59425" lon="1.15327">
        <ele>299.8</ele>
        <time>2024-07-11T07:02:41Z</time>
      </trkpt>
      <trkpt lat="43.59425" lon="1.15318">
        <ele>300</ele>
        <time>2024-07-11T07:02:42Z</time>
      </trkpt>
      <trkpt lat="43.59425" lon="1.15308">
        <ele>300</ele>
        <time>2024-07-11T07:02:43Z</time>
      </trkpt>
      <trkpt lat="43.59425" lon="1.15299">
        <ele>300.2</ele>
        <time>2024-07-11T07:02:44Z</time>
      </trkpt>
      <trkpt lat="43.59424" lon="1.1529">
        <ele>300.2</ele>
        <time>2024-07-11T07:02:45Z</time>
      </trkpt>
      <trkpt lat="43.59424" lon="1.15283">
        <ele>300.4</ele>
        <time>2024-07-11T07:02:46Z</time>
      </trkpt>
      <trkpt lat="43.59424" lon="1.15275">
        <ele>300.4</ele>
        <time>2024-07-11T07:02:47Z</time>
      </trkpt>
      <trkpt lat="43.59423" lon="1.15266">
        <ele>300.6</ele>
        <time>2024-07-11T07:02:48Z</time>
      </trkpt>
      <trkpt lat="43.59422" lon="1.15255">
        <ele>300.8</ele>
        <time>2024-07-11T07:02:49Z</time>
      </trkpt>
      <trkpt lat="43.59422" lon="1.15247">
        <ele>300.8</ele>
        <time>2024-07-11T07:02:50Z</time>
      </trkpt>
      <trkpt lat="43.59422" lon="1.15238">
        <ele>300.8</ele>
        <time>2024-07-11T07:02:51Z</time>
      </trkpt>
      <trkpt lat="43.59421" lon="1.15229">
        <ele>301</ele>
        <time>2024-07-11T07:02:52Z</time>
      </trkpt>
      <trkpt lat="43.59421" lon="1.1522">
        <ele>301</ele>
        <time>2024-07-11T07:02:53Z</time>
      </trkpt>
      <trkpt lat="43.5942" lon="1.15212">
        <ele>301.2</ele>
        <time>2024-07-11T07:02:54Z</time>
      </trkpt>
      <trkpt lat="43.5942" lon="1.15205">
        <ele>301.4</ele>
        <time>2024-07-11T07:02:55Z</time>
      </trkpt>
      <trkpt lat="43.5942" lon="1.15197">
        <ele>301.4</ele>
        <time>2024-07-11T07:02:56Z</time>
      </trkpt>
      <trkpt lat="43.5942" lon="1.1519">
        <ele>301.4</ele>
        <time>2024-07-11T07:02:57Z</time>
      </trkpt>
      <trkpt lat="43.5942" lon="1.15182">
        <ele>301.6</ele>
        <time>2024-07-11T07:02:58Z</time>
      </trkpt>
      <trkpt lat="43.5942" lon="1.15175">
        <ele>301.6</ele>
        <time>2024-07-11T07:02:59Z</time>
      </trkpt>
      <trkpt lat="43.5942" lon="1.15167">
        <ele>301.6</ele>
        <time>2024-07-11T07:03:00Z</time>
      </trkpt>
      <trkpt lat="43.5942" lon="1.1516">
        <ele>301.6</ele>
        <time>2024-07-11T07:03:01Z</time>
      </trkpt>
      <trkpt lat="43.59421" lon="1.15154">
        <ele>301.8</ele>
        <time>2024-07-11T07:03:02Z</time>
      </trkpt>
      <trkpt lat="43.59421" lon="1.15144">
        <ele>301.8</ele>
        <time>2024-07-11T07:03:03Z</time>
      </trkpt>
      <trkpt lat="43.59422" lon="1.15137">
        <ele>301.8</ele>
        <time>2024-07-11T07:03:04Z</time>
      </trkpt>
      <trkpt lat="43.59422" lon="1.15128">
        <ele>302</ele>
        <time>2024-07-11T07:03:05Z</time>
      </trkpt>
      <trkpt lat="43.59422" lon="1.1512">
        <ele>302.2</ele>
        <time>2024-07-11T07:03:06Z</time>
      </trkpt>
      <trkpt lat="43.59423" lon="1.15112">
        <ele>302.4</ele>
        <time>2024-07-11T07:03:07Z</time>
      </trkpt>
      <trkpt lat="43.59423" lon="1.15103">
        <ele>302.6</ele>
        <time>2024-07-11T07:03:08Z</time>
      </trkpt>
      <trkpt lat="43.59424" lon="1.15095">
        <ele>302.8</ele>
        <time>2024-07-11T07:03:09Z</time>
      </trkpt>
      <trkpt lat="43.59424" lon="1.15088">
        <ele>303</ele>
        <time>2024-07-11T07:03:10Z</time>
      </trkpt>
      <trkpt lat="43.59424" lon="1.1508">
        <ele>303.2</ele>
        <time>2024-07-11T07:03:11Z</time>
      </trkpt>
      <trkpt lat="43.59424" lon="1.15071">
        <ele>303.4</ele>
        <time>2024-07-11T07:03:12Z</time>
      </trkpt>
      <trkpt lat="43.59425" lon="1.15065">
        <ele>303.4</ele>
        <time>2024-07-11T07:03:13Z</time>
      </trkpt>
      <trkpt lat="43.59425" lon="1.1506">
        <ele>303.6</ele>
        <time>2024-07-11T07:03:14Z</time>
      </trkpt>
      <trkpt lat="43.59425" lon="1.15056">
        <ele>303.6</ele>
        <time>2024-07-11T07:03:15Z</time>
      </trkpt>
      <trkpt lat="43.59427" lon="1.15052">
        <ele>303.6</ele>
        <time>2024-07-11T07:03:16Z</time>
      </trkpt>
      <trkpt lat="43.59429" lon="1.1505">
        <ele>303.8</ele>
        <time>2024-07-11T07:03:17Z</time>
      </trkpt>
      <trkpt lat="43.59432" lon="1.15049">
        <ele>303.8</ele>
        <time>2024-07-11T07:03:18Z</time>
      </trkpt>
      <trkpt lat="43.59434" lon="1.15049">
        <ele>303.8</ele>
        <time>2024-07-11T07:03:19Z</time>
      </trkpt>
      <trkpt lat="43.59436" lon="1.15049">
        <ele>303.8</ele>
        <time>2024-07-11T07:03:20Z</time>
      </trkpt>
      <trkpt lat="43.59438" lon="1.1505">
        <ele>303.8</ele>
        <time>2024-07-11T07:03:21Z</time>
      </trkpt>
      <trkpt lat="43.59441" lon="1.1505">
        <ele>303.8</ele>
        <time>2024-07-11T07:03:22Z</time>
      </trkpt>
      <trkpt lat="43.59444" lon="1.1505">
        <ele>303.8</ele>
        <time>2024-07-11T07:03:23Z</time>
      </trkpt>
      <trkpt lat="43.59446" lon="1.1505">
        <ele>303.8</ele>
        <time>2024-07-11T07:03:24Z</time>
      </trkpt>
      <trkpt lat="43.59448" lon="1.15051">
        <ele>303.8</ele>
        <time>2024-07-11T07:03:25Z</time>
      </trkpt>
      <trkpt lat="43.59451" lon="1.15052">
        <ele>303.8</ele>
        <time>2024-07-11T07:03:26Z</time>
      </trkpt>
      <trkpt lat="43.59453" lon="1.15053">
        <ele>303.8</ele>
        <time>2024-07-11T07:03:27Z</time>
      </trkpt>
      <trkpt lat="43.59455" lon="1.15054">
        <ele>303.8</ele>
        <time>2024-07-11T07:03:28Z</time>
      </trkpt>
      <trkpt lat="43.59457" lon="1.15054">
        <ele>303.6</ele>
        <time>2024-07-11T07:03:29Z</time>
      </trkpt>
      <trkpt lat="43.59459" lon="1.15054">
        <ele>303.6</ele>
        <time>2024-07-11T07:03:30Z</time>
      </trkpt>
      <trkpt lat="43.59459" lon="1.15054">
        <ele>303.6</ele>
        <time>2024-07-11T07:03:31Z</time>
      </trkpt>
      <trkpt lat="43.59459" lon="1.15054">
        <ele>303.6</ele>
        <time>2024-07-11T07:03:32Z</time>
      </trkpt>
      <trkpt lat="43.59459" lon="1.15054">
        <ele>303.4</ele>
        <time>2024-07-11T07:03:33Z</time>
      </trkpt>
      <trkpt lat="43.59463" lon="1.15057">
        <ele>303.6</ele>
        <time>2024-07-11T07:05:05Z</time>
      </trkpt>
      <trkpt lat="43.59466" lon="1.15057">
        <ele>303.6</ele>
        <time>2024-07-11T07:05:06Z</time>
      </trkpt>
      <trkpt lat="43.59469" lon="1.15058">
        <ele>303.6</ele>
        <time>2024-07-11T07:05:07Z</time>
      </trkpt>
      <trkpt lat="43.59472" lon="1.1506">
        <ele>303.6</ele>
        <time>2024-07-11T07:05:08Z</time>
      </trkpt>
      <trkpt lat="43.59475" lon="1.15061">
        <ele>303.6</ele>
        <time>2024-07-11T07:05:09Z</time>
      </trkpt>
      <trkpt lat="43.5948" lon="1.15063">
        <ele>303.6</ele>
        <time>2024-07-11T07:05:10Z</time>
      </trkpt>
      <trkpt lat="43.59485" lon="1.15065">
        <ele>303.6</ele>
        <time>2024-07-11T07:05:11Z</time>
      </trkpt>
      <trkpt lat="43.59491" lon="1.15068">
        <ele>303.4</ele>
        <time>2024-07-11T07:05:12Z</time>
      </trkpt>
      <trkpt lat="43.59497" lon="1.1507">
        <ele>303.4</ele>
        <time>2024-07-11T07:05:13Z</time>
      </trkpt>
      <trkpt lat="43.59503" lon="1.15073">
        <ele>303.2</ele>
        <time>2024-07-11T07:05:14Z</time>
      </trkpt>
      <trkpt lat="43.5951" lon="1.15076">
        <ele>303</ele>
        <time>2024-07-11T07:05:15Z</time>
      </trkpt>
      <trkpt lat="43.59517" lon="1.15079">
        <ele>303</ele>
        <time>2024-07-11T07:05:16Z</time>
      </trkpt>
      <trkpt lat="43.59525" lon="1.15082">
        <ele>303</ele>
        <time>2024-07-11T07:05:17Z</time>
      </trkpt>
      <trkpt lat="43.59532" lon="1.15085">
        <ele>302.8</ele>
        <time>2024-07-11T07:05:18Z</time>
      </trkpt>
      <trkpt lat="43.59539" lon="1.15087">
        <ele>302.4</ele>
        <time>2024-07-11T07:05:19Z</time>
      </trkpt>
      <trkpt lat="43.59547" lon="1.1509">
        <ele>302.2</ele>
        <time>2024-07-11T07:05:20Z</time>
      </trkpt>
      <trkpt lat="43.59555" lon="1.15093">
        <ele>301.6</ele>
        <time>2024-07-11T07:05:21Z</time>
      </trkpt>
      <trkpt lat="43.59563" lon="1.15095">
        <ele>301.2</ele>
        <time>2024-07-11T07:05:22Z</time>
      </trkpt>
      <trkpt lat="43.5957" lon="1.15096">
        <ele>301.2</ele>
        <time>2024-07-11T07:05:23Z</time>
      </trkpt>
      <trkpt lat="43.59578" lon="1.15097">
        <ele>300.6</ele>
        <time>2024-07-11T07:05:24Z</time>
      </trkpt>
      <trkpt lat="43.59586" lon="1.15098">
        <ele>300.4</ele>
        <time>2024-07-11T07:05:25Z</time>
      </trkpt>
      <trkpt lat="43.59594" lon="1.15097">
        <ele>299.8</ele>
        <time>2024-07-11T07:05:26Z</time>
      </trkpt>
      <trkpt lat="43.59602" lon="1.15095">
        <ele>299.6</ele>
        <time>2024-07-11T07:05:27Z</time>
      </trkpt>
      <trkpt lat="43.59608" lon="1.15093">
        <ele>299.4</ele>
        <time>2024-07-11T07:05:28Z</time>
      </trkpt>
      <trkpt lat="43.59617" lon="1.1509">
        <ele>299.2</ele>
        <time>2024-07-11T07:05:29Z</time>
      </trkpt>
      <trkpt lat="43.59625" lon="1.15087">
        <ele>299.2</ele>
        <time>2024-07-11T07:05:30Z</time>
      </trkpt>
      <trkpt lat="43.59631" lon="1.15083">
        <ele>299.2</ele>
        <time>2024-07-11T07:05:31Z</time>
      </trkpt>
      <trkpt lat="43.59638" lon="1.15081">
        <ele>299.2</ele>
        <time>2024-07-11T07:05:32Z</time>
      </trkpt>
      <trkpt lat="43.59643" lon="1.15078">
        <ele>299.2</ele>
        <time>2024-07-11T07:05:33Z</time>
      </trkpt>
      <trkpt lat="43.59651" lon="1.15075">
        <ele>299.2</ele>
        <time>2024-07-11T07:05:34Z</time>
      </trkpt>
      <trkpt lat="43.59657" lon="1.15072">
        <ele>299.2</ele>
        <time>2024-07-11T07:05:35Z</time>
      </trkpt>
      <trkpt lat="43.59663" lon="1.1507">
        <ele>299.4</ele>
        <time>2024-07-11T07:05:36Z</time>
      </trkpt>
      <trkpt lat="43.59668" lon="1.15069">
        <ele>299.6</ele>
        <time>2024-07-11T07:05:37Z</time>
      </trkpt>
      <trkpt lat="43.59676" lon="1.15068">
        <ele>300</ele>
        <time>2024-07-11T07:05:38Z</time>
      </trkpt>
      <trkpt lat="43.59682" lon="1.15067">
        <ele>300</ele>
        <time>2024-07-11T07:05:39Z</time>
      </trkpt>
      <trkpt lat="43.59688" lon="1.15066">
        <ele>300.2</ele>
        <time>2024-07-11T07:05:40Z</time>
      </trkpt>
      <trkpt lat="43.59693" lon="1.15065">
        <ele>300.8</ele>
        <time>2024-07-11T07:05:41Z</time>
      </trkpt>
      <trkpt lat="43.59701" lon="1.15065">
        <ele>301</ele>
        <time>2024-07-11T07:05:42Z</time>
      </trkpt>
      <trkpt lat="43.59707" lon="1.15066">
        <ele>301.6</ele>
        <time>2024-07-11T07:05:43Z</time>
      </trkpt>
      <trkpt lat="43.59714" lon="1.15067">
        <ele>301.8</ele>
        <time>2024-07-11T07:05:44Z</time>
      </trkpt>
      <trkpt lat="43.5972" lon="1.15069">
        <ele>302.2</ele>
        <time>2024-07-11T07:05:45Z</time>
      </trkpt>
      <trkpt lat="43.59727" lon="1.1507">
        <ele>302.2</ele>
        <time>2024-07-11T07:05:46Z</time>
      </trkpt>
      <trkpt lat="43.59734" lon="1.15073">
        <ele>302.4</ele>
        <time>2024-07-11T07:05:47Z</time>
      </trkpt>
      <trkpt lat="43.59741" lon="1.15075">
        <ele>302.4</ele>
        <time>2024-07-11T07:05:48Z</time>
      </trkpt>
      <trkpt lat="43.59747" lon="1.15078">
        <ele>302.4</ele>
        <time>2024-07-11T07:05:49Z</time>
      </trkpt>
      <trkpt lat="43.59754" lon="1.15082">
        <ele>302.6</ele>
        <time>2024-07-11T07:05:50Z</time>
      </trkpt>
      <trkpt lat="43.5976" lon="1.15085">
        <ele>302.6</ele>
        <time>2024-07-11T07:05:51Z</time>
      </trkpt>
      <trkpt lat="43.59768" lon="1.15088">
        <ele>302.4</ele>
        <time>2024-07-11T07:05:52Z</time>
      </trkpt>
      <trkpt lat="43.59775" lon="1.15092">
        <ele>302.4</ele>
        <time>2024-07-11T07:05:53Z</time>
      </trkpt>
      <trkpt lat="43.59782" lon="1.15095">
        <ele>302.4</ele>
        <time>2024-07-11T07:05:54Z</time>
      </trkpt>
      <trkpt lat="43.5979" lon="1.15098">
        <ele>302.4</ele>
        <time>2024-07-11T07:05:55Z</time>
      </trkpt>
      <trkpt lat="43.59797" lon="1.15102">
        <ele>302.2</ele>
        <time>2024-07-11T07:05:56Z</time>
      </trkpt>
      <trkpt lat="43.59804" lon="1.15105">
        <ele>302</ele>
        <time>2024-07-11T07:05:57Z</time>
      </trkpt>
      <trkpt lat="43.59812" lon="1.15108">
        <ele>301.8</ele>
        <time>2024-07-11T07:05:58Z</time>
      </trkpt>
      <trkpt lat="43.5982" lon="1.15111">
        <ele>301.6</ele>
        <time>2024-07-11T07:05:59Z</time>
      </trkpt>
      <trkpt lat="43.59826" lon="1.15113">
        <ele>301.4</ele>
        <time>2024-07-11T07:06:00Z</time>
      </trkpt>
      <trkpt lat="43.59836" lon="1.15116">
        <ele>301</ele>
        <time>2024-07-11T07:06:01Z</time>
      </trkpt>
      <trkpt lat="43.59844" lon="1.15118">
        <ele>300.8</ele>
        <time>2024-07-11T07:06:02Z</time>
      </trkpt>
      <trkpt lat="43.59852" lon="1.1512">
        <ele>300.6</ele>
        <time>2024-07-11T07:06:03Z</time>
      </trkpt>
      <trkpt lat="43.59861" lon="1.15121">
        <ele>300.4</ele>
        <time>2024-07-11T07:06:04Z</time>
      </trkpt>
      <trkpt lat="43.5987" lon="1.15122">
        <ele>300.2</ele>
        <time>2024-07-11T07:06:05Z</time>
      </trkpt>
      <trkpt lat="43.59877" lon="1.15122">
        <ele>300</ele>
        <time>2024-07-11T07:06:06Z</time>
      </trkpt>
      <trkpt lat="43.59887" lon="1.15122">
        <ele>299.8</ele>
        <time>2024-07-11T07:06:07Z</time>
      </trkpt>
      <trkpt lat="43.59896" lon="1.1512">
        <ele>299.2</ele>
        <time>2024-07-11T07:06:08Z</time>
      </trkpt>
      <trkpt lat="43.59905" lon="1.15118">
        <ele>298.8</ele>
        <time>2024-07-11T07:06:09Z</time>
      </trkpt>
      <trkpt lat="43.59914" lon="1.15116">
        <ele>298.6</ele>
        <time>2024-07-11T07:06:10Z</time>
      </trkpt>
      <trkpt lat="43.59923" lon="1.15114">
        <ele>298.4</ele>
        <time>2024-07-11T07:06:11Z</time>
      </trkpt>
      <trkpt lat="43.59932" lon="1.15111">
        <ele>298.2</ele>
        <time>2024-07-11T07:06:12Z</time>
      </trkpt>
      <trkpt lat="43.5994" lon="1.15108">
        <ele>298.2</ele>
        <time>2024-07-11T07:06:13Z</time>
      </trkpt>
      <trkpt lat="43.59947" lon="1.15106">
        <ele>297.8</ele>
        <time>2024-07-11T07:06:14Z</time>
      </trkpt>
      <trkpt lat="43.59957" lon="1.15103">
        <ele>297.6</ele>
        <time>2024-07-11T07:06:15Z</time>
      </trkpt>
      <trkpt lat="43.59965" lon="1.15101">
        <ele>297</ele>
        <time>2024-07-11T07:06:16Z</time>
      </trkpt>
      <trkpt lat="43.59974" lon="1.15099">
        <ele>296.6</ele>
        <time>2024-07-11T07:06:17Z</time>
      </trkpt>
      <trkpt lat="43.59983" lon="1.15098">
        <ele>296.2</ele>
        <time>2024-07-11T07:06:18Z</time>
      </trkpt>
      <trkpt lat="43.59991" lon="1.15098">
        <ele>295.6</ele>
        <time>2024-07-11T07:06:19Z</time>
      </trkpt>
      <trkpt lat="43.59998" lon="1.15098">
        <ele>295.2</ele>
        <time>2024-07-11T07:06:20Z</time>
      </trkpt>
      <trkpt lat="43.60008" lon="1.15098">
        <ele>294.6</ele>
        <time>2024-07-11T07:06:21Z</time>
      </trkpt>
      <trkpt lat="43.60016" lon="1.15098">
        <ele>294.6</ele>
        <time>2024-07-11T07:06:22Z</time>
      </trkpt>
      <trkpt lat="43.60024" lon="1.15099">
        <ele>294.4</ele>
        <time>2024-07-11T07:06:23Z</time>
      </trkpt>
      <trkpt lat="43.60032" lon="1.15101">
        <ele>294.4</ele>
        <time>2024-07-11T07:06:24Z</time>
      </trkpt>
      <trkpt lat="43.6004" lon="1.15103">
        <ele>294.2</ele>
        <time>2024-07-11T07:06:25Z</time>
      </trkpt>
      <trkpt lat="43.60048" lon="1.15106">
        <ele>294.2</ele>
        <time>2024-07-11T07:06:26Z</time>
      </trkpt>
      <trkpt lat="43.60055" lon="1.15109">
        <ele>294</ele>
        <time>2024-07-11T07:06:27Z</time>
      </trkpt>
      <trkpt lat="43.60061" lon="1.15112">
        <ele>294</ele>
        <time>2024-07-11T07:06:28Z</time>
      </trkpt>
      <trkpt lat="43.60068" lon="1.15117">
        <ele>293.8</ele>
        <time>2024-07-11T07:06:29Z</time>
      </trkpt>
      <trkpt lat="43.60075" lon="1.15123">
        <ele>293.8</ele>
        <time>2024-07-11T07:06:30Z</time>
      </trkpt>
      <trkpt lat="43.60081" lon="1.15129">
        <ele>293.8</ele>
        <time>2024-07-11T07:06:31Z</time>
      </trkpt>
      <trkpt lat="43.60087" lon="1.15135">
        <ele>293.8</ele>
        <time>2024-07-11T07:06:32Z</time>
      </trkpt>
      <trkpt lat="43.60093" lon="1.15142">
        <ele>293.8</ele>
        <time>2024-07-11T07:06:33Z</time>
      </trkpt>
      <trkpt lat="43.60097" lon="1.15147">
        <ele>293.8</ele>
        <time>2024-07-11T07:06:34Z</time>
      </trkpt>
      <trkpt lat="43.60103" lon="1.15155">
        <ele>293.8</ele>
        <time>2024-07-11T07:06:35Z</time>
      </trkpt>
      <trkpt lat="43.60108" lon="1.15162">
        <ele>294</ele>
        <time>2024-07-11T07:06:36Z</time>
      </trkpt>
      <trkpt lat="43.60112" lon="1.1517">
        <ele>294</ele>
        <time>2024-07-11T07:06:37Z</time>
      </trkpt>
      <trkpt lat="43.60116" lon="1.15178">
        <ele>294</ele>
        <time>2024-07-11T07:06:38Z</time>
      </trkpt>
      <trkpt lat="43.6012" lon="1.15186">
        <ele>294.2</ele>
        <time>2024-07-11T07:06:39Z</time>
      </trkpt>
      <trkpt lat="43.60123" lon="1.15194">
        <ele>294.6</ele>
        <time>2024-07-11T07:06:40Z</time>
      </trkpt>
      <trkpt lat="43.60126" lon="1.15203">
        <ele>294.6</ele>
        <time>2024-07-11T07:06:41Z</time>
      </trkpt>
      <trkpt lat="43.60126" lon="1.15203">
        <ele>294.8</ele>
        <time>2024-07-11T07:06:42Z</time>
      </trkpt>
      <trkpt lat="43.60131" lon="1.15219">
        <ele>295</ele>
        <time>2024-07-11T07:06:43Z</time>
      </trkpt>
      <trkpt lat="43.60135" lon="1.15231">
        <ele>295.2</ele>
        <time>2024-07-11T07:06:44Z</time>
      </trkpt>
      <trkpt lat="43.60138" lon="1.1524">
        <ele>295.4</ele>
        <time>2024-07-11T07:06:45Z</time>
      </trkpt>
      <trkpt lat="43.60142" lon="1.15251">
        <ele>295.4</ele>
        <time>2024-07-11T07:06:46Z</time>
      </trkpt>
      <trkpt lat="43.60145" lon="1.15261">
        <ele>295.4</ele>
        <time>2024-07-11T07:06:47Z</time>
      </trkpt>
      <trkpt lat="43.60148" lon="1.15271">
        <ele>295.4</ele>
        <time>2024-07-11T07:06:48Z</time>
      </trkpt>
      <trkpt lat="43.60152" lon="1.15282">
        <ele>295.4</ele>
        <time>2024-07-11T07:06:49Z</time>
      </trkpt>
      <trkpt lat="43.60155" lon="1.15293">
        <ele>295.4</ele>
        <time>2024-07-11T07:06:50Z</time>
      </trkpt>
      <trkpt lat="43.60158" lon="1.15303">
        <ele>295.2</ele>
        <time>2024-07-11T07:06:51Z</time>
      </trkpt>
      <trkpt lat="43.60162" lon="1.15314">
        <ele>295.2</ele>
        <time>2024-07-11T07:06:52Z</time>
      </trkpt>
      <trkpt lat="43.60166" lon="1.15324">
        <ele>295</ele>
        <time>2024-07-11T07:06:53Z</time>
      </trkpt>
      <trkpt lat="43.60169" lon="1.15334">
        <ele>295</ele>
        <time>2024-07-11T07:06:54Z</time>
      </trkpt>
      <trkpt lat="43.60173" lon="1.15344">
        <ele>295</ele>
        <time>2024-07-11T07:06:55Z</time>
      </trkpt>
      <trkpt lat="43.60176" lon="1.15354">
        <ele>294.8</ele>
        <time>2024-07-11T07:06:56Z</time>
      </trkpt>
      <trkpt lat="43.60181" lon="1.15363">
        <ele>294.8</ele>
        <time>2024-07-11T07:06:57Z</time>
      </trkpt>
      <trkpt lat="43.60185" lon="1.15371">
        <ele>294.8</ele>
        <time>2024-07-11T07:06:58Z</time>
      </trkpt>
      <trkpt lat="43.6019" lon="1.1538">
        <ele>294.8</ele>
        <time>2024-07-11T07:06:59Z</time>
      </trkpt>
      <trkpt lat="43.60196" lon="1.15387">
        <ele>294.8</ele>
        <time>2024-07-11T07:07:00Z</time>
      </trkpt>
      <trkpt lat="43.60202" lon="1.15394">
        <ele>295</ele>
        <time>2024-07-11T07:07:01Z</time>
      </trkpt>
      <trkpt lat="43.60208" lon="1.15401">
        <ele>295</ele>
        <time>2024-07-11T07:07:02Z</time>
      </trkpt>
      <trkpt lat="43.60215" lon="1.15406">
        <ele>295.2</ele>
        <time>2024-07-11T07:07:03Z</time>
      </trkpt>
      <trkpt lat="43.60222" lon="1.15411">
        <ele>295.2</ele>
        <time>2024-07-11T07:07:04Z</time>
      </trkpt>
      <trkpt lat="43.60229" lon="1.15417">
        <ele>295.2</ele>
        <time>2024-07-11T07:07:05Z</time>
      </trkpt>
      <trkpt lat="43.60236" lon="1.15422">
        <ele>295.2</ele>
        <time>2024-07-11T07:07:06Z</time>
      </trkpt>
      <trkpt lat="43.60243" lon="1.15426">
        <ele>295.4</ele>
        <time>2024-07-11T07:07:07Z</time>
      </trkpt>
      <trkpt lat="43.6025" lon="1.15431">
        <ele>295.4</ele>
        <time>2024-07-11T07:07:08Z</time>
      </trkpt>
      <trkpt lat="43.60256" lon="1.15435">
        <ele>295.4</ele>
        <time>2024-07-11T07:07:09Z</time>
      </trkpt>
      <trkpt lat="43.60263" lon="1.15439">
        <ele>295.4</ele>
        <time>2024-07-11T07:07:10Z</time>
      </trkpt>
      <trkpt lat="43.60269" lon="1.15443">
        <ele>295.4</ele>
        <time>2024-07-11T07:07:11Z</time>
      </trkpt>
      <trkpt lat="43.60276" lon="1.15447">
        <ele>295.4</ele>
        <time>2024-07-11T07:07:12Z</time>
      </trkpt>
      <trkpt lat="43.60282" lon="1.15451">
        <ele>295.6</ele>
        <time>2024-07-11T07:07:13Z</time>
      </trkpt>
      <trkpt lat="43.60287" lon="1.15455">
        <ele>295.6</ele>
        <time>2024-07-11T07:07:14Z</time>
      </trkpt>
      <trkpt lat="43.60293" lon="1.15458">
        <ele>295.8</ele>
        <time>2024-07-11T07:07:15Z</time>
      </trkpt>
      <trkpt lat="43.60298" lon="1.15461">
        <ele>295.8</ele>
        <time>2024-07-11T07:07:16Z</time>
      </trkpt>
      <trkpt lat="43.60303" lon="1.15465">
        <ele>296</ele>
        <time>2024-07-11T07:07:17Z</time>
      </trkpt>
      <trkpt lat="43.60307" lon="1.15469">
        <ele>296.2</ele>
        <time>2024-07-11T07:07:18Z</time>
      </trkpt>
      <trkpt lat="43.60312" lon="1.15472">
        <ele>296.2</ele>
        <time>2024-07-11T07:07:19Z</time>
      </trkpt>
      <trkpt lat="43.60316" lon="1.15476">
        <ele>296.4</ele>
        <time>2024-07-11T07:07:20Z</time>
      </trkpt>
      <trkpt lat="43.60321" lon="1.1548">
        <ele>296.4</ele>
        <time>2024-07-11T07:07:21Z</time>
      </trkpt>
      <trkpt lat="43.60326" lon="1.1548">
        <ele>296</ele>
        <time>2024-07-11T07:07:22Z</time>
      </trkpt>
      <trkpt lat="43.6033" lon="1.15479">
        <ele>296</ele>
        <time>2024-07-11T07:07:23Z</time>
      </trkpt>
      <trkpt lat="43.60333" lon="1.15476">
        <ele>296</ele>
        <time>2024-07-11T07:07:24Z</time>
      </trkpt>
      <trkpt lat="43.60335" lon="1.15472">
        <ele>296</ele>
        <time>2024-07-11T07:07:25Z</time>
      </trkpt>
      <trkpt lat="43.60336" lon="1.15467">
        <ele>296</ele>
        <time>2024-07-11T07:07:26Z</time>
      </trkpt>
      <trkpt lat="43.60337" lon="1.15461">
        <ele>296</ele>
        <time>2024-07-11T07:07:27Z</time>
      </trkpt>
      <trkpt lat="43.60338" lon="1.15455">
        <ele>296</ele>
        <time>2024-07-11T07:07:28Z</time>
      </trkpt>
      <trkpt lat="43.60339" lon="1.15448">
        <ele>295.6</ele>
        <time>2024-07-11T07:07:29Z</time>
      </trkpt>
      <trkpt lat="43.60341" lon="1.1544">
        <ele>295.6</ele>
        <time>2024-07-11T07:07:30Z</time>
      </trkpt>
      <trkpt lat="43.60343" lon="1.15431">
        <ele>295.4</ele>
        <time>2024-07-11T07:07:31Z</time>
      </trkpt>
      <trkpt lat="43.60346" lon="1.15421">
        <ele>295.4</ele>
        <time>2024-07-11T07:07:32Z</time>
      </trkpt>
      <trkpt lat="43.60348" lon="1.15411">
        <ele>295.4</ele>
        <time>2024-07-11T07:07:33Z</time>
      </trkpt>
      <trkpt lat="43.60352" lon="1.15401">
        <ele>295</ele>
        <time>2024-07-11T07:07:34Z</time>
      </trkpt>
      <trkpt lat="43.60357" lon="1.1539">
        <ele>294.8</ele>
        <time>2024-07-11T07:07:35Z</time>
      </trkpt>
      <trkpt lat="43.60363" lon="1.1538">
        <ele>294.6</ele>
        <time>2024-07-11T07:07:36Z</time>
      </trkpt>
      <trkpt lat="43.60369" lon="1.15371">
        <ele>294.4</ele>
        <time>2024-07-11T07:07:37Z</time>
      </trkpt>
      <trkpt lat="43.60376" lon="1.15361">
        <ele>293.8</ele>
        <time>2024-07-11T07:07:38Z</time>
      </trkpt>
      <trkpt lat="43.60383" lon="1.15352">
        <ele>293.6</ele>
        <time>2024-07-11T07:07:39Z</time>
      </trkpt>
      <trkpt lat="43.60391" lon="1.15342">
        <ele>293.4</ele>
        <time>2024-07-11T07:07:40Z</time>
      </trkpt>
      <trkpt lat="43.60398" lon="1.15332">
        <ele>293</ele>
        <time>2024-07-11T07:07:41Z</time>
      </trkpt>
      <trkpt lat="43.60406" lon="1.15322">
        <ele>292.8</ele>
        <time>2024-07-11T07:07:42Z</time>
      </trkpt>
      <trkpt lat="43.60413" lon="1.1531">
        <ele>292.2</ele>
        <time>2024-07-11T07:07:43Z</time>
      </trkpt>
      <trkpt lat="43.6042" lon="1.15299">
        <ele>291.4</ele>
        <time>2024-07-11T07:07:44Z</time>
      </trkpt>
      <trkpt lat="43.60427" lon="1.15287">
        <ele>290.2</ele>
        <time>2024-07-11T07:07:45Z</time>
      </trkpt>
      <trkpt lat="43.60434" lon="1.15276">
        <ele>289.4</ele>
        <time>2024-07-11T07:07:46Z</time>
      </trkpt>
      <trkpt lat="43.60441" lon="1.15264">
        <ele>289.2</ele>
        <time>2024-07-11T07:07:47Z</time>
      </trkpt>
      <trkpt lat="43.60448" lon="1.15253">
        <ele>288.8</ele>
        <time>2024-07-11T07:07:48Z</time>
      </trkpt>
      <trkpt lat="43.60455" lon="1.15241">
        <ele>288.4</ele>
        <time>2024-07-11T07:07:49Z</time>
      </trkpt>
      <trkpt lat="43.60462" lon="1.15229">
        <ele>287.8</ele>
        <time>2024-07-11T07:07:50Z</time>
      </trkpt>
      <trkpt lat="43.6047" lon="1.15217">
        <ele>287.6</ele>
        <time>2024-07-11T07:07:51Z</time>
      </trkpt>
      <trkpt lat="43.60478" lon="1.15205">
        <ele>287.2</ele>
        <time>2024-07-11T07:07:52Z</time>
      </trkpt>
      <trkpt lat="43.60484" lon="1.15195">
        <ele>286.4</ele>
        <time>2024-07-11T07:07:53Z</time>
      </trkpt>
      <trkpt lat="43.60493" lon="1.15179">
        <ele>285.6</ele>
        <time>2024-07-11T07:07:54Z</time>
      </trkpt>
      <trkpt lat="43.60501" lon="1.15165">
        <ele>284.8</ele>
        <time>2024-07-11T07:07:55Z</time>
      </trkpt>
      <trkpt lat="43.6051" lon="1.15151">
        <ele>284.4</ele>
        <time>2024-07-11T07:07:56Z</time>
      </trkpt>
      <trkpt lat="43.60518" lon="1.15137">
        <ele>283.4</ele>
        <time>2024-07-11T07:07:57Z</time>
      </trkpt>
      <trkpt lat="43.60526" lon="1.15122">
        <ele>282.8</ele>
        <time>2024-07-11T07:07:58Z</time>
      </trkpt>
      <trkpt lat="43.60534" lon="1.15105">
        <ele>281.2</ele>
        <time>2024-07-11T07:07:59Z</time>
      </trkpt>
      <trkpt lat="43.60542" lon="1.15088">
        <ele>279.8</ele>
        <time>2024-07-11T07:08:00Z</time>
      </trkpt>
      <trkpt lat="43.6055" lon="1.15071">
        <ele>279.2</ele>
        <time>2024-07-11T07:08:01Z</time>
      </trkpt>
      <trkpt lat="43.60558" lon="1.15052">
        <ele>277.6</ele>
        <time>2024-07-11T07:08:02Z</time>
      </trkpt>
      <trkpt lat="43.60565" lon="1.15034">
        <ele>276.6</ele>
        <time>2024-07-11T07:08:03Z</time>
      </trkpt>
      <trkpt lat="43.60573" lon="1.15015">
        <ele>275.4</ele>
        <time>2024-07-11T07:08:04Z</time>
      </trkpt>
      <trkpt lat="43.6058" lon="1.14997">
        <ele>275</ele>
        <time>2024-07-11T07:08:05Z</time>
      </trkpt>
      <trkpt lat="43.60588" lon="1.14978">
        <ele>274</ele>
        <time>2024-07-11T07:08:06Z</time>
      </trkpt>
      <trkpt lat="43.60597" lon="1.1496">
        <ele>271</ele>
        <time>2024-07-11T07:08:07Z</time>
      </trkpt>
      <trkpt lat="43.60606" lon="1.14942">
        <ele>269.2</ele>
        <time>2024-07-11T07:08:08Z</time>
      </trkpt>
      <trkpt lat="43.60615" lon="1.14924">
        <ele>267.2</ele>
        <time>2024-07-11T07:08:09Z</time>
      </trkpt>
      <trkpt lat="43.60624" lon="1.14905">
        <ele>266.8</ele>
        <time>2024-07-11T07:08:10Z</time>
      </trkpt>
      <trkpt lat="43.60633" lon="1.14887">
        <ele>265</ele>
        <time>2024-07-11T07:08:11Z</time>
      </trkpt>
      <trkpt lat="43.60642" lon="1.14868">
        <ele>264.4</ele>
        <time>2024-07-11T07:08:12Z</time>
      </trkpt>
      <trkpt lat="43.60651" lon="1.14848">
        <ele>262.4</ele>
        <time>2024-07-11T07:08:13Z</time>
      </trkpt>
      <trkpt lat="43.6066" lon="1.14828">
        <ele>260.6</ele>
        <time>2024-07-11T07:08:14Z</time>
      </trkpt>
      <trkpt lat="43.60669" lon="1.14807">
        <ele>259.4</ele>
        <time>2024-07-11T07:08:15Z</time>
      </trkpt>
      <trkpt lat="43.60679" lon="1.14788">
        <ele>257.2</ele>
        <time>2024-07-11T07:08:16Z</time>
      </trkpt>
      <trkpt lat="43.6069" lon="1.14769">
        <ele>256.4</ele>
        <time>2024-07-11T07:08:17Z</time>
      </trkpt>
      <trkpt lat="43.60701" lon="1.14752">
        <ele>254.2</ele>
        <time>2024-07-11T07:08:18Z</time>
      </trkpt>
      <trkpt lat="43.60715" lon="1.14738">
        <ele>253.4</ele>
        <time>2024-07-11T07:08:19Z</time>
      </trkpt>
      <trkpt lat="43.6073" lon="1.14726">
        <ele>251</ele>
        <time>2024-07-11T07:08:20Z</time>
      </trkpt>
      <trkpt lat="43.60745" lon="1.14716">
        <ele>248.8</ele>
        <time>2024-07-11T07:08:21Z</time>
      </trkpt>
      <trkpt lat="43.60762" lon="1.14707">
        <ele>247.4</ele>
        <time>2024-07-11T07:08:22Z</time>
      </trkpt>
      <trkpt lat="43.60778" lon="1.14699">
        <ele>244.6</ele>
        <time>2024-07-11T07:08:23Z</time>
      </trkpt>
      <trkpt lat="43.60794" lon="1.14691">
        <ele>243</ele>
        <time>2024-07-11T07:08:24Z</time>
      </trkpt>
      <trkpt lat="43.6081" lon="1.14683">
        <ele>241.4</ele>
        <time>2024-07-11T07:08:25Z</time>
      </trkpt>
      <trkpt lat="43.60826" lon="1.14675">
        <ele>238.8</ele>
        <time>2024-07-11T07:08:26Z</time>
      </trkpt>
      <trkpt lat="43.60841" lon="1.14667">
        <ele>238</ele>
        <time>2024-07-11T07:08:27Z</time>
      </trkpt>
      <trkpt lat="43.60855" lon="1.14659">
        <ele>235.4</ele>
        <time>2024-07-11T07:08:28Z</time>
      </trkpt>
      <trkpt lat="43.60869" lon="1.14649">
        <ele>234</ele>
        <time>2024-07-11T07:08:29Z</time>
      </trkpt>
      <trkpt lat="43.60879" lon="1.1464">
        <ele>232.4</ele>
        <time>2024-07-11T07:08:30Z</time>
      </trkpt>
      <trkpt lat="43.60894" lon="1.14627">
        <ele>231.8</ele>
        <time>2024-07-11T07:08:31Z</time>
      </trkpt>
      <trkpt lat="43.60905" lon="1.14615">
        <ele>230.6</ele>
        <time>2024-07-11T07:08:32Z</time>
      </trkpt>
      <trkpt lat="43.60917" lon="1.14604">
        <ele>229.8</ele>
        <time>2024-07-11T07:08:33Z</time>
      </trkpt>
      <trkpt lat="43.60929" lon="1.14594">
        <ele>229.6</ele>
        <time>2024-07-11T07:08:34Z</time>
      </trkpt>
      <trkpt lat="43.60938" lon="1.14587">
        <ele>229</ele>
        <time>2024-07-11T07:08:35Z</time>
      </trkpt>
      <trkpt lat="43.60952" lon="1.14575">
        <ele>228.8</ele>
        <time>2024-07-11T07:08:36Z</time>
      </trkpt>
      <trkpt lat="43.60964" lon="1.14566">
        <ele>228.2</ele>
        <time>2024-07-11T07:08:37Z</time>
      </trkpt>
      <trkpt lat="43.60976" lon="1.14557">
        <ele>227.8</ele>
        <time>2024-07-11T07:08:38Z</time>
      </trkpt>
      <trkpt lat="43.60986" lon="1.14549">
        <ele>227</ele>
        <time>2024-07-11T07:08:39Z</time>
      </trkpt>
      <trkpt lat="43.61" lon="1.14538">
        <ele>226.6</ele>
        <time>2024-07-11T07:08:40Z</time>
      </trkpt>
      <trkpt lat="43.61013" lon="1.14529">
        <ele>226.2</ele>
        <time>2024-07-11T07:08:41Z</time>
      </trkpt>
      <trkpt lat="43.61026" lon="1.14519">
        <ele>225.6</ele>
        <time>2024-07-11T07:08:42Z</time>
      </trkpt>
      <trkpt lat="43.61039" lon="1.14509">
        <ele>225</ele>
        <time>2024-07-11T07:08:43Z</time>
      </trkpt>
      <trkpt lat="43.61052" lon="1.14498">
        <ele>223.8</ele>
        <time>2024-07-11T07:08:44Z</time>
      </trkpt>
      <trkpt lat="43.61065" lon="1.14488">
        <ele>223</ele>
        <time>2024-07-11T07:08:45Z</time>
      </trkpt>
      <trkpt lat="43.61078" lon="1.14476">
        <ele>222</ele>
        <time>2024-07-11T07:08:46Z</time>
      </trkpt>
      <trkpt lat="43.61091" lon="1.14464">
        <ele>220.8</ele>
        <time>2024-07-11T07:08:47Z</time>
      </trkpt>
      <trkpt lat="43.61103" lon="1.1445">
        <ele>220.4</ele>
        <time>2024-07-11T07:08:48Z</time>
      </trkpt>
      <trkpt lat="43.61114" lon="1.14435">
        <ele>218.6</ele>
        <time>2024-07-11T07:08:49Z</time>
      </trkpt>
      <trkpt lat="43.61124" lon="1.14419">
        <ele>217.8</ele>
        <time>2024-07-11T07:08:50Z</time>
      </trkpt>
      <trkpt lat="43.61135" lon="1.14402">
        <ele>216.4</ele>
        <time>2024-07-11T07:08:51Z</time>
      </trkpt>
      <trkpt lat="43.61146" lon="1.14385">
        <ele>215</ele>
        <time>2024-07-11T07:08:52Z</time>
      </trkpt>
      <trkpt lat="43.61155" lon="1.14367">
        <ele>212.6</ele>
        <time>2024-07-11T07:08:53Z</time>
      </trkpt>
      <trkpt lat="43.61165" lon="1.14349">
        <ele>210</ele>
        <time>2024-07-11T07:08:54Z</time>
      </trkpt>
      <trkpt lat="43.61173" lon="1.14331">
        <ele>208.6</ele>
        <time>2024-07-11T07:08:55Z</time>
      </trkpt>
      <trkpt lat="43.61181" lon="1.14312">
        <ele>207.2</ele>
        <time>2024-07-11T07:08:56Z</time>
      </trkpt>
      <trkpt lat="43.61187" lon="1.14292">
        <ele>206</ele>
        <time>2024-07-11T07:08:57Z</time>
      </trkpt>
      <trkpt lat="43.61191" lon="1.14276">
        <ele>203.8</ele>
        <time>2024-07-11T07:08:58Z</time>
      </trkpt>
      <trkpt lat="43.61193" lon="1.1425">
        <ele>202.2</ele>
        <time>2024-07-11T07:08:59Z</time>
      </trkpt>
      <trkpt lat="43.61194" lon="1.14229">
        <ele>200.8</ele>
        <time>2024-07-11T07:09:00Z</time>
      </trkpt>
      <trkpt lat="43.61194" lon="1.14208">
        <ele>199</ele>
        <time>2024-07-11T07:09:01Z</time>
      </trkpt>
      <trkpt lat="43.61194" lon="1.14188">
        <ele>198</ele>
        <time>2024-07-11T07:09:02Z</time>
      </trkpt>
      <trkpt lat="43.61193" lon="1.14173">
        <ele>196.2</ele>
        <time>2024-07-11T07:09:03Z</time>
      </trkpt>
      <trkpt lat="43.61193" lon="1.14152">
        <ele>195.4</ele>
        <time>2024-07-11T07:09:04Z</time>
      </trkpt>
      <trkpt lat="43.61195" lon="1.14135">
        <ele>194.6</ele>
        <time>2024-07-11T07:09:05Z</time>
      </trkpt>
      <trkpt lat="43.61199" lon="1.14119">
        <ele>194.4</ele>
        <time>2024-07-11T07:09:06Z</time>
      </trkpt>
      <trkpt lat="43.61206" lon="1.14105">
        <ele>193.8</ele>
        <time>2024-07-11T07:09:07Z</time>
      </trkpt>
      <trkpt lat="43.61214" lon="1.14093">
        <ele>193.2</ele>
        <time>2024-07-11T07:09:08Z</time>
      </trkpt>
      <trkpt lat="43.61222" lon="1.14082">
        <ele>192.6</ele>
        <time>2024-07-11T07:09:09Z</time>
      </trkpt>
      <trkpt lat="43.61229" lon="1.14071">
        <ele>191.8</ele>
        <time>2024-07-11T07:09:10Z</time>
      </trkpt>
      <trkpt lat="43.61236" lon="1.14059">
        <ele>191.2</ele>
        <time>2024-07-11T07:09:11Z</time>
      </trkpt>
      <trkpt lat="43.61239" lon="1.14046">
        <ele>190.2</ele>
        <time>2024-07-11T07:09:12Z</time>
      </trkpt>
      <trkpt lat="43.61242" lon="1.14033">
        <ele>189.6</ele>
        <time>2024-07-11T07:09:13Z</time>
      </trkpt>
      <trkpt lat="43.61245" lon="1.1402">
        <ele>189.6</ele>
        <time>2024-07-11T07:09:14Z</time>
      </trkpt>
      <trkpt lat="43.61247" lon="1.14008">
        <ele>189.4</ele>
        <time>2024-07-11T07:09:15Z</time>
      </trkpt>
      <trkpt lat="43.6125" lon="1.13996">
        <ele>189.4</ele>
        <time>2024-07-11T07:09:16Z</time>
      </trkpt>
      <trkpt lat="43.61253" lon="1.13985">
        <ele>189.4</ele>
        <time>2024-07-11T07:09:17Z</time>
      </trkpt>
      <trkpt lat="43.61256" lon="1.13974">
        <ele>189.4</ele>
        <time>2024-07-11T07:09:18Z</time>
      </trkpt>
      <trkpt lat="43.61259" lon="1.13963">
        <ele>189.4</ele>
        <time>2024-07-11T07:09:19Z</time>
      </trkpt>
      <trkpt lat="43.61262" lon="1.13952">
        <ele>189.4</ele>
        <time>2024-07-11T07:09:20Z</time>
      </trkpt>
      <trkpt lat="43.61264" lon="1.13942">
        <ele>189.6</ele>
        <time>2024-07-11T07:09:21Z</time>
      </trkpt>
      <trkpt lat="43.61267" lon="1.13932">
        <ele>189.6</ele>
        <time>2024-07-11T07:09:22Z</time>
      </trkpt>
      <trkpt lat="43.6127" lon="1.13922">
        <ele>189.8</ele>
        <time>2024-07-11T07:09:23Z</time>
      </trkpt>
      <trkpt lat="43.61273" lon="1.13913">
        <ele>190.2</ele>
        <time>2024-07-11T07:09:24Z</time>
      </trkpt>
      <trkpt lat="43.61276" lon="1.13904">
        <ele>190.6</ele>
        <time>2024-07-11T07:09:25Z</time>
      </trkpt>
      <trkpt lat="43.61278" lon="1.13896">
        <ele>190.8</ele>
        <time>2024-07-11T07:09:26Z</time>
      </trkpt>
      <trkpt lat="43.61281" lon="1.13887">
        <ele>191.2</ele>
        <time>2024-07-11T07:09:27Z</time>
      </trkpt>
      <trkpt lat="43.61283" lon="1.13879">
        <ele>191.4</ele>
        <time>2024-07-11T07:09:28Z</time>
      </trkpt>
      <trkpt lat="43.61286" lon="1.13872">
        <ele>191.8</ele>
        <time>2024-07-11T07:09:29Z</time>
      </trkpt>
      <trkpt lat="43.61288" lon="1.13865">
        <ele>192</ele>
        <time>2024-07-11T07:09:30Z</time>
      </trkpt>
      <trkpt lat="43.6129" lon="1.13859">
        <ele>192.8</ele>
        <time>2024-07-11T07:09:31Z</time>
      </trkpt>
      <trkpt lat="43.61292" lon="1.13851">
        <ele>193.4</ele>
        <time>2024-07-11T07:09:32Z</time>
      </trkpt>
      <trkpt lat="43.61294" lon="1.13845">
        <ele>193.8</ele>
        <time>2024-07-11T07:09:33Z</time>
      </trkpt>
      <trkpt lat="43.61297" lon="1.13839">
        <ele>194.4</ele>
        <time>2024-07-11T07:09:34Z</time>
      </trkpt>
      <trkpt lat="43.61299" lon="1.13834">
        <ele>194.6</ele>
        <time>2024-07-11T07:09:35Z</time>
      </trkpt>
      <trkpt lat="43.61301" lon="1.13829">
        <ele>195.4</ele>
        <time>2024-07-11T07:09:36Z</time>
      </trkpt>
      <trkpt lat="43.61303" lon="1.13825">
        <ele>195.6</ele>
        <time>2024-07-11T07:09:37Z</time>
      </trkpt>
      <trkpt lat="43.61305" lon="1.1382">
        <ele>196.2</ele>
        <time>2024-07-11T07:09:38Z</time>
      </trkpt>
      <trkpt lat="43.61307" lon="1.13816">
        <ele>196.8</ele>
        <time>2024-07-11T07:09:39Z</time>
      </trkpt>
      <trkpt lat="43.61309" lon="1.13812">
        <ele>197</ele>
        <time>2024-07-11T07:09:40Z</time>
      </trkpt>
      <trkpt lat="43.61311" lon="1.13808">
        <ele>197.8</ele>
        <time>2024-07-11T07:09:41Z</time>
      </trkpt>
      <trkpt lat="43.61313" lon="1.13804">
        <ele>198</ele>
        <time>2024-07-11T07:09:42Z</time>
      </trkpt>
      <trkpt lat="43.61316" lon="1.138">
        <ele>198.6</ele>
        <time>2024-07-11T07:09:43Z</time>
      </trkpt>
      <trkpt lat="43.61318" lon="1.13797">
        <ele>199.2</ele>
        <time>2024-07-11T07:09:44Z</time>
      </trkpt>
      <trkpt lat="43.61321" lon="1.13793">
        <ele>199.8</ele>
        <time>2024-07-11T07:09:45Z</time>
      </trkpt>
      <trkpt lat="43.61323" lon="1.1379">
        <ele>200.4</ele>
        <time>2024-07-11T07:09:46Z</time>
      </trkpt>
      <trkpt lat="43.61325" lon="1.13786">
        <ele>200.8</ele>
        <time>2024-07-11T07:09:47Z</time>
      </trkpt>
      <trkpt lat="43.61326" lon="1.13783">
        <ele>201.8</ele>
        <time>2024-07-11T07:09:48Z</time>
      </trkpt>
      <trkpt lat="43.61328" lon="1.1378">
        <ele>202.2</ele>
        <time>2024-07-11T07:09:49Z</time>
      </trkpt>
      <trkpt lat="43.6133" lon="1.13776">
        <ele>202.8</ele>
        <time>2024-07-11T07:09:50Z</time>
      </trkpt>
      <trkpt lat="43.61332" lon="1.13771">
        <ele>203.2</ele>
        <time>2024-07-11T07:09:51Z</time>
      </trkpt>
      <trkpt lat="43.61334" lon="1.13767">
        <ele>203.4</ele>
        <time>2024-07-11T07:09:52Z</time>
      </trkpt>
      <trkpt lat="43.61336" lon="1.13764">
        <ele>204.2</ele>
        <time>2024-07-11T07:09:53Z</time>
      </trkpt>
      <trkpt lat="43.61339" lon="1.1376">
        <ele>204.6</ele>
        <time>2024-07-11T07:09:54Z</time>
      </trkpt>
      <trkpt lat="43.61341" lon="1.13756">
        <ele>205.4</ele>
        <time>2024-07-11T07:09:55Z</time>
      </trkpt>
      <trkpt lat="43.61344" lon="1.13753">
        <ele>205.8</ele>
        <time>2024-07-11T07:09:56Z</time>
      </trkpt>
      <trkpt lat="43.61346" lon="1.13749">
        <ele>206.4</ele>
        <time>2024-07-11T07:09:57Z</time>
      </trkpt>
      <trkpt lat="43.61349" lon="1.13745">
        <ele>207</ele>
        <time>2024-07-11T07:09:58Z</time>
      </trkpt>
      <trkpt lat="43.61351" lon="1.13741">
        <ele>207.2</ele>
        <time>2024-07-11T07:09:59Z</time>
      </trkpt>
      <trkpt lat="43.61353" lon="1.13736">
        <ele>207.8</ele>
        <time>2024-07-11T07:10:00Z</time>
      </trkpt>
      <trkpt lat="43.61356" lon="1.13733">
        <ele>208.2</ele>
        <time>2024-07-11T07:10:01Z</time>
      </trkpt>
      <trkpt lat="43.61358" lon="1.13728">
        <ele>208.8</ele>
        <time>2024-07-11T07:10:02Z</time>
      </trkpt>
      <trkpt lat="43.6136" lon="1.13724">
        <ele>209</ele>
        <time>2024-07-11T07:10:03Z</time>
      </trkpt>
      <trkpt lat="43.61362" lon="1.1372">
        <ele>209.4</ele>
        <time>2024-07-11T07:10:04Z</time>
      </trkpt>
      <trkpt lat="43.61365" lon="1.13716">
        <ele>209.8</ele>
        <time>2024-07-11T07:10:05Z</time>
      </trkpt>
      <trkpt lat="43.61367" lon="1.13712">
        <ele>210</ele>
        <time>2024-07-11T07:10:06Z</time>
      </trkpt>
      <trkpt lat="43.61369" lon="1.13708">
        <ele>210.6</ele>
        <time>2024-07-11T07:10:07Z</time>
      </trkpt>
      <trkpt lat="43.61371" lon="1.13704">
        <ele>211</ele>
        <time>2024-07-11T07:10:08Z</time>
      </trkpt>
      <trkpt lat="43.61372" lon="1.13701">
        <ele>211.6</ele>
        <time>2024-07-11T07:10:09Z</time>
      </trkpt>
      <trkpt lat="43.61374" lon="1.13698">
        <ele>212</ele>
        <time>2024-07-11T07:10:10Z</time>
      </trkpt>
      <trkpt lat="43.61376" lon="1.13695">
        <ele>212.4</ele>
        <time>2024-07-11T07:10:11Z</time>
      </trkpt>
      <trkpt lat="43.61378" lon="1.13692">
        <ele>212.8</ele>
        <time>2024-07-11T07:10:12Z</time>
      </trkpt>
      <trkpt lat="43.6138" lon="1.13688">
        <ele>213</ele>
        <time>2024-07-11T07:10:13Z</time>
      </trkpt>
      <trkpt lat="43.61381" lon="1.13683">
        <ele>213.4</ele>
        <time>2024-07-11T07:10:14Z</time>
      </trkpt>
      <trkpt lat="43.61383" lon="1.13678">
        <ele>213.8</ele>
        <time>2024-07-11T07:10:15Z</time>
      </trkpt>
      <trkpt lat="43.61385" lon="1.13674">
        <ele>214</ele>
        <time>2024-07-11T07:10:16Z</time>
      </trkpt>
      <trkpt lat="43.61386" lon="1.13671">
        <ele>214.2</ele>
        <time>2024-07-11T07:10:17Z</time>
      </trkpt>
      <trkpt lat="43.61388" lon="1.13668">
        <ele>214.8</ele>
        <time>2024-07-11T07:10:18Z</time>
      </trkpt>
      <trkpt lat="43.6139" lon="1.13664">
        <ele>215.2</ele>
        <time>2024-07-11T07:10:19Z</time>
      </trkpt>
      <trkpt lat="43.61391" lon="1.1366">
        <ele>215.2</ele>
        <time>2024-07-11T07:10:20Z</time>
      </trkpt>
      <trkpt lat="43.61392" lon="1.13656">
        <ele>215.6</ele>
        <time>2024-07-11T07:10:21Z</time>
      </trkpt>
      <trkpt lat="43.61393" lon="1.13653">
        <ele>215.8</ele>
        <time>2024-07-11T07:10:22Z</time>
      </trkpt>
      <trkpt lat="43.61395" lon="1.13649">
        <ele>216</ele>
        <time>2024-07-11T07:10:23Z</time>
      </trkpt>
      <trkpt lat="43.61396" lon="1.13644">
        <ele>216.6</ele>
        <time>2024-07-11T07:10:24Z</time>
      </trkpt>
      <trkpt lat="43.61397" lon="1.1364">
        <ele>216.8</ele>
        <time>2024-07-11T07:10:25Z</time>
      </trkpt>
      <trkpt lat="43.61398" lon="1.13637">
        <ele>217.4</ele>
        <time>2024-07-11T07:10:26Z</time>
      </trkpt>
      <trkpt lat="43.61399" lon="1.13633">
        <ele>217.4</ele>
        <time>2024-07-11T07:10:27Z</time>
      </trkpt>
      <trkpt lat="43.614" lon="1.13627">
        <ele>217.6</ele>
        <time>2024-07-11T07:10:28Z</time>
      </trkpt>
      <trkpt lat="43.61401" lon="1.13622">
        <ele>217.8</ele>
        <time>2024-07-11T07:10:29Z</time>
      </trkpt>
      <trkpt lat="43.61402" lon="1.13618">
        <ele>218.2</ele>
        <time>2024-07-11T07:10:30Z</time>
      </trkpt>
      <trkpt lat="43.61402" lon="1.13614">
        <ele>218.4</ele>
        <time>2024-07-11T07:10:31Z</time>
      </trkpt>
      <trkpt lat="43.61402" lon="1.1361">
        <ele>218.6</ele>
        <time>2024-07-11T07:10:32Z</time>
      </trkpt>
      <trkpt lat="43.61403" lon="1.13607">
        <ele>218.8</ele>
        <time>2024-07-11T07:10:33Z</time>
      </trkpt>
      <trkpt lat="43.61404" lon="1.13602">
        <ele>219</ele>
        <time>2024-07-11T07:10:34Z</time>
      </trkpt>
      <trkpt lat="43.61404" lon="1.13598">
        <ele>219.4</ele>
        <time>2024-07-11T07:10:35Z</time>
      </trkpt>
      <trkpt lat="43.61405" lon="1.13594">
        <ele>219.6</ele>
        <time>2024-07-11T07:10:36Z</time>
      </trkpt>
      <trkpt lat="43.61405" lon="1.1359">
        <ele>220</ele>
        <time>2024-07-11T07:10:37Z</time>
      </trkpt>
      <trkpt lat="43.61405" lon="1.13586">
        <ele>220.4</ele>
        <time>2024-07-11T07:10:38Z</time>
      </trkpt>
      <trkpt lat="43.61406" lon="1.13581">
        <ele>220.6</ele>
        <time>2024-07-11T07:10:39Z</time>
      </trkpt>
      <trkpt lat="43.61406" lon="1.13577">
        <ele>220.8</ele>
        <time>2024-07-11T07:10:40Z</time>
      </trkpt>
      <trkpt lat="43.61406" lon="1.13573">
        <ele>221</ele>
        <time>2024-07-11T07:10:41Z</time>
      </trkpt>
      <trkpt lat="43.61407" lon="1.1357">
        <ele>221.4</ele>
        <time>2024-07-11T07:10:42Z</time>
      </trkpt>
      <trkpt lat="43.61407" lon="1.13566">
        <ele>221.6</ele>
        <time>2024-07-11T07:10:43Z</time>
      </trkpt>
      <trkpt lat="43.61408" lon="1.13561">
        <ele>221.8</ele>
        <time>2024-07-11T07:10:44Z</time>
      </trkpt>
      <trkpt lat="43.61408" lon="1.13557">
        <ele>222</ele>
        <time>2024-07-11T07:10:45Z</time>
      </trkpt>
      <trkpt lat="43.61407" lon="1.13554">
        <ele>222.2</ele>
        <time>2024-07-11T07:10:46Z</time>
      </trkpt>
      <trkpt lat="43.61408" lon="1.13548">
        <ele>222.4</ele>
        <time>2024-07-11T07:10:47Z</time>
      </trkpt>
      <trkpt lat="43.61408" lon="1.13544">
        <ele>222.6</ele>
        <time>2024-07-11T07:10:48Z</time>
      </trkpt>
      <trkpt lat="43.61408" lon="1.13541">
        <ele>223.2</ele>
        <time>2024-07-11T07:10:49Z</time>
      </trkpt>
      <trkpt lat="43.61408" lon="1.13537">
        <ele>223.4</ele>
        <time>2024-07-11T07:10:50Z</time>
      </trkpt>
      <trkpt lat="43.61408" lon="1.13533">
        <ele>223.8</ele>
        <time>2024-07-11T07:10:51Z</time>
      </trkpt>
      <trkpt lat="43.61408" lon="1.13529">
        <ele>224.2</ele>
        <time>2024-07-11T07:10:52Z</time>
      </trkpt>
      <trkpt lat="43.61409" lon="1.13524">
        <ele>224.2</ele>
        <time>2024-07-11T07:10:53Z</time>
      </trkpt>
      <trkpt lat="43.61409" lon="1.13521">
        <ele>224.6</ele>
        <time>2024-07-11T07:10:54Z</time>
      </trkpt>
      <trkpt lat="43.61409" lon="1.13517">
        <ele>224.6</ele>
        <time>2024-07-11T07:10:55Z</time>
      </trkpt>
      <trkpt lat="43.61409" lon="1.13514">
        <ele>225</ele>
        <time>2024-07-11T07:10:56Z</time>
      </trkpt>
      <trkpt lat="43.6141" lon="1.13511">
        <ele>225.4</ele>
        <time>2024-07-11T07:10:57Z</time>
      </trkpt>
      <trkpt lat="43.6141" lon="1.13508">
        <ele>225.8</ele>
        <time>2024-07-11T07:10:58Z</time>
      </trkpt>
      <trkpt lat="43.6141" lon="1.13504">
        <ele>226.2</ele>
        <time>2024-07-11T07:10:59Z</time>
      </trkpt>
      <trkpt lat="43.6141" lon="1.135">
        <ele>226.4</ele>
        <time>2024-07-11T07:11:00Z</time>
      </trkpt>
      <trkpt lat="43.61411" lon="1.13496">
        <ele>226.6</ele>
        <time>2024-07-11T07:11:01Z</time>
      </trkpt>
      <trkpt lat="43.61411" lon="1.13492">
        <ele>226.8</ele>
        <time>2024-07-11T07:11:02Z</time>
      </trkpt>
      <trkpt lat="43.61411" lon="1.13487">
        <ele>227.2</ele>
        <time>2024-07-11T07:11:03Z</time>
      </trkpt>
      <trkpt lat="43.61412" lon="1.13484">
        <ele>227.2</ele>
        <time>2024-07-11T07:11:04Z</time>
      </trkpt>
      <trkpt lat="43.61412" lon="1.13479">
        <ele>227.4</ele>
        <time>2024-07-11T07:11:05Z</time>
      </trkpt>
      <trkpt lat="43.61412" lon="1.13475">
        <ele>227.6</ele>
        <time>2024-07-11T07:11:06Z</time>
      </trkpt>
      <trkpt lat="43.61412" lon="1.13471">
        <ele>227.8</ele>
        <time>2024-07-11T07:11:07Z</time>
      </trkpt>
      <trkpt lat="43.61413" lon="1.13466">
        <ele>228.2</ele>
        <time>2024-07-11T07:11:08Z</time>
      </trkpt>
      <trkpt lat="43.61413" lon="1.13463">
        <ele>228.2</ele>
        <time>2024-07-11T07:11:09Z</time>
      </trkpt>
      <trkpt lat="43.61414" lon="1.13459">
        <ele>228.6</ele>
        <time>2024-07-11T07:11:10Z</time>
      </trkpt>
      <trkpt lat="43.61414" lon="1.13454">
        <ele>228.8</ele>
        <time>2024-07-11T07:11:11Z</time>
      </trkpt>
      <trkpt lat="43.61415" lon="1.1345">
        <ele>228.8</ele>
        <time>2024-07-11T07:11:12Z</time>
      </trkpt>
      <trkpt lat="43.61415" lon="1.13445">
        <ele>229.4</ele>
        <time>2024-07-11T07:11:13Z</time>
      </trkpt>
      <trkpt lat="43.61416" lon="1.13441">
        <ele>229.6</ele>
        <time>2024-07-11T07:11:14Z</time>
      </trkpt>
      <trkpt lat="43.61417" lon="1.13437">
        <ele>230</ele>
        <time>2024-07-11T07:11:15Z</time>
      </trkpt>
      <trkpt lat="43.61417" lon="1.13433">
        <ele>230.2</ele>
        <time>2024-07-11T07:11:16Z</time>
      </trkpt>
      <trkpt lat="43.61418" lon="1.13429">
        <ele>230.6</ele>
        <time>2024-07-11T07:11:17Z</time>
      </trkpt>
      <trkpt lat="43.61419" lon="1.13424">
        <ele>230.8</ele>
        <time>2024-07-11T07:11:18Z</time>
      </trkpt>
      <trkpt lat="43.6142" lon="1.1342">
        <ele>230.8</ele>
        <time>2024-07-11T07:11:19Z</time>
      </trkpt>
      <trkpt lat="43.61421" lon="1.13416">
        <ele>230.8</ele>
        <time>2024-07-11T07:11:20Z</time>
      </trkpt>
      <trkpt lat="43.61422" lon="1.13411">
        <ele>230.8</ele>
        <time>2024-07-11T07:11:21Z</time>
      </trkpt>
      <trkpt lat="43.61423" lon="1.13406">
        <ele>231</ele>
        <time>2024-07-11T07:11:22Z</time>
      </trkpt>
      <trkpt lat="43.61424" lon="1.13401">
        <ele>231</ele>
        <time>2024-07-11T07:11:23Z</time>
      </trkpt>
      <trkpt lat="43.61425" lon="1.13397">
        <ele>231.4</ele>
        <time>2024-07-11T07:11:24Z</time>
      </trkpt>
      <trkpt lat="43.61426" lon="1.13392">
        <ele>231.8</ele>
        <time>2024-07-11T07:11:25Z</time>
      </trkpt>
      <trkpt lat="43.61428" lon="1.13387">
        <ele>231.8</ele>
        <time>2024-07-11T07:11:26Z</time>
      </trkpt>
      <trkpt lat="43.61429" lon="1.13382">
        <ele>232.2</ele>
        <time>2024-07-11T07:11:27Z</time>
      </trkpt>
      <trkpt lat="43.6143" lon="1.13376">
        <ele>232.4</ele>
        <time>2024-07-11T07:11:28Z</time>
      </trkpt>
      <trkpt lat="43.61431" lon="1.1337">
        <ele>232.8</ele>
        <time>2024-07-11T07:11:29Z</time>
      </trkpt>
      <trkpt lat="43.61433" lon="1.13365">
        <ele>232.8</ele>
        <time>2024-07-11T07:11:30Z</time>
      </trkpt>
      <trkpt lat="43.61434" lon="1.13359">
        <ele>233</ele>
        <time>2024-07-11T07:11:31Z</time>
      </trkpt>
      <trkpt lat="43.61435" lon="1.13353">
        <ele>233.2</ele>
        <time>2024-07-11T07:11:32Z</time>
      </trkpt>
      <trkpt lat="43.61436" lon="1.13347">
        <ele>233.2</ele>
        <time>2024-07-11T07:11:33Z</time>
      </trkpt>
      <trkpt lat="43.61437" lon="1.13341">
        <ele>233.4</ele>
        <time>2024-07-11T07:11:34Z</time>
      </trkpt>
      <trkpt lat="43.61439" lon="1.13334">
        <ele>233.4</ele>
        <time>2024-07-11T07:11:35Z</time>
      </trkpt>
      <trkpt lat="43.6144" lon="1.13328">
        <ele>233.4</ele>
        <time>2024-07-11T07:11:36Z</time>
      </trkpt>
      <trkpt lat="43.61441" lon="1.13321">
        <ele>233.4</ele>
        <time>2024-07-11T07:11:37Z</time>
      </trkpt>
      <trkpt lat="43.61443" lon="1.13315">
        <ele>233.6</ele>
        <time>2024-07-11T07:11:38Z</time>
      </trkpt>
      <trkpt lat="43.61444" lon="1.13308">
        <ele>233.6</ele>
        <time>2024-07-11T07:11:39Z</time>
      </trkpt>
      <trkpt lat="43.61446" lon="1.13302">
        <ele>233.8</ele>
        <time>2024-07-11T07:11:40Z</time>
      </trkpt>
      <trkpt lat="43.61448" lon="1.13296">
        <ele>233.8</ele>
        <time>2024-07-11T07:11:41Z</time>
      </trkpt>
      <trkpt lat="43.6145" lon="1.13289">
        <ele>233.8</ele>
        <time>2024-07-11T07:11:42Z</time>
      </trkpt>
      <trkpt lat="43.61452" lon="1.13282">
        <ele>234</ele>
        <time>2024-07-11T07:11:43Z</time>
      </trkpt>
      <trkpt lat="43.61454" lon="1.13275">
        <ele>234.2</ele>
        <time>2024-07-11T07:11:44Z</time>
      </trkpt>
      <trkpt lat="43.61455" lon="1.13268">
        <ele>234.4</ele>
        <time>2024-07-11T07:11:45Z</time>
      </trkpt>
      <trkpt lat="43.61457" lon="1.13261">
        <ele>234.4</ele>
        <time>2024-07-11T07:11:46Z</time>
      </trkpt>
      <trkpt lat="43.61459" lon="1.13254">
        <ele>234.6</ele>
        <time>2024-07-11T07:11:47Z</time>
      </trkpt>
      <trkpt lat="43.61461" lon="1.13248">
        <ele>234.6</ele>
        <time>2024-07-11T07:11:48Z</time>
      </trkpt>
      <trkpt lat="43.61463" lon="1.13241">
        <ele>234.8</ele>
        <time>2024-07-11T07:11:49Z</time>
      </trkpt>
      <trkpt lat="43.61465" lon="1.13234">
        <ele>234.8</ele>
        <time>2024-07-11T07:11:50Z</time>
      </trkpt>
      <trkpt lat="43.61468" lon="1.13227">
        <ele>235</ele>
        <time>2024-07-11T07:11:51Z</time>
      </trkpt>
      <trkpt lat="43.6147" lon="1.13219">
        <ele>235</ele>
        <time>2024-07-11T07:11:52Z</time>
      </trkpt>
      <trkpt lat="43.61471" lon="1.13212">
        <ele>235</ele>
        <time>2024-07-11T07:11:53Z</time>
      </trkpt>
      <trkpt lat="43.61474" lon="1.13205">
        <ele>235.2</ele>
        <time>2024-07-11T07:11:54Z</time>
      </trkpt>
      <trkpt lat="43.61476" lon="1.13199">
        <ele>235.2</ele>
        <time>2024-07-11T07:11:55Z</time>
      </trkpt>
      <trkpt lat="43.61479" lon="1.13192">
        <ele>235.2</ele>
        <time>2024-07-11T07:11:56Z</time>
      </trkpt>
      <trkpt lat="43.61482" lon="1.13184">
        <ele>235.2</ele>
        <time>2024-07-11T07:11:57Z</time>
      </trkpt>
      <trkpt lat="43.61485" lon="1.13177">
        <ele>235.2</ele>
        <time>2024-07-11T07:11:58Z</time>
      </trkpt>
      <trkpt lat="43.61489" lon="1.1317">
        <ele>235.2</ele>
        <time>2024-07-11T07:11:59Z</time>
      </trkpt>
      <trkpt lat="43.61493" lon="1.13163">
        <ele>235.2</ele>
        <time>2024-07-11T07:12:00Z</time>
      </trkpt>
      <trkpt lat="43.61497" lon="1.13156">
        <ele>235.2</ele>
        <time>2024-07-11T07:12:01Z</time>
      </trkpt>
      <trkpt lat="43.61501" lon="1.13149">
        <ele>235.2</ele>
        <time>2024-07-11T07:12:02Z</time>
      </trkpt>
      <trkpt lat="43.61506" lon="1.13142">
        <ele>235.2</ele>
        <time>2024-07-11T07:12:03Z</time>
      </trkpt>
      <trkpt lat="43.6151" lon="1.13136">
        <ele>235.2</ele>
        <time>2024-07-11T07:12:04Z</time>
      </trkpt>
      <trkpt lat="43.61515" lon="1.13129">
        <ele>235</ele>
        <time>2024-07-11T07:12:05Z</time>
      </trkpt>
      <trkpt lat="43.6152" lon="1.13122">
        <ele>235</ele>
        <time>2024-07-11T07:12:06Z</time>
      </trkpt>
      <trkpt lat="43.61524" lon="1.13115">
        <ele>235</ele>
        <time>2024-07-11T07:12:07Z</time>
      </trkpt>
      <trkpt lat="43.61529" lon="1.13108">
        <ele>234.8</ele>
        <time>2024-07-11T07:12:08Z</time>
      </trkpt>
      <trkpt lat="43.61534" lon="1.131">
        <ele>234.8</ele>
        <time>2024-07-11T07:12:09Z</time>
      </trkpt>
      <trkpt lat="43.61539" lon="1.13093">
        <ele>234.4</ele>
        <time>2024-07-11T07:12:10Z</time>
      </trkpt>
      <trkpt lat="43.61544" lon="1.13086">
        <ele>234.4</ele>
        <time>2024-07-11T07:12:11Z</time>
      </trkpt>
      <trkpt lat="43.61549" lon="1.13079">
        <ele>233.8</ele>
        <time>2024-07-11T07:12:12Z</time>
      </trkpt>
      <trkpt lat="43.61555" lon="1.13072">
        <ele>233.6</ele>
        <time>2024-07-11T07:12:13Z</time>
      </trkpt>
      <trkpt lat="43.61561" lon="1.13065">
        <ele>233.4</ele>
        <time>2024-07-11T07:12:14Z</time>
      </trkpt>
      <trkpt lat="43.61567" lon="1.13058">
        <ele>233.2</ele>
        <time>2024-07-11T07:12:15Z</time>
      </trkpt>
      <trkpt lat="43.61574" lon="1.13051">
        <ele>233</ele>
        <time>2024-07-11T07:12:16Z</time>
      </trkpt>
      <trkpt lat="43.6158" lon="1.13044">
        <ele>232.6</ele>
        <time>2024-07-11T07:12:17Z</time>
      </trkpt>
      <trkpt lat="43.61587" lon="1.13037">
        <ele>232.4</ele>
        <time>2024-07-11T07:12:18Z</time>
      </trkpt>
      <trkpt lat="43.61594" lon="1.13031">
        <ele>232.2</ele>
        <time>2024-07-11T07:12:19Z</time>
      </trkpt>
      <trkpt lat="43.616" lon="1.13024">
        <ele>231.8</ele>
        <time>2024-07-11T07:12:20Z</time>
      </trkpt>
      <trkpt lat="43.61607" lon="1.13016">
        <ele>231.6</ele>
        <time>2024-07-11T07:12:21Z</time>
      </trkpt>
      <trkpt lat="43.61614" lon="1.13008">
        <ele>231</ele>
        <time>2024-07-11T07:12:22Z</time>
      </trkpt>
      <trkpt lat="43.6162" lon="1.13">
        <ele>230.4</ele>
        <time>2024-07-11T07:12:23Z</time>
      </trkpt>
      <trkpt lat="43.61627" lon="1.12991">
        <ele>230</ele>
        <time>2024-07-11T07:12:24Z</time>
      </trkpt>
      <trkpt lat="43.61633" lon="1.12982">
        <ele>229.6</ele>
        <time>2024-07-11T07:12:25Z</time>
      </trkpt>
      <trkpt lat="43.6164" lon="1.12972">
        <ele>229.2</ele>
        <time>2024-07-11T07:12:26Z</time>
      </trkpt>
      <trkpt lat="43.61646" lon="1.12962">
        <ele>229</ele>
        <time>2024-07-11T07:12:27Z</time>
      </trkpt>
      <trkpt lat="43.61652" lon="1.12952">
        <ele>228.6</ele>
        <time>2024-07-11T07:12:28Z</time>
      </trkpt>
      <trkpt lat="43.61659" lon="1.12942">
        <ele>228.4</ele>
        <time>2024-07-11T07:12:29Z</time>
      </trkpt>
      <trkpt lat="43.61666" lon="1.12931">
        <ele>228.2</ele>
        <time>2024-07-11T07:12:30Z</time>
      </trkpt>
      <trkpt lat="43.61673" lon="1.12919">
        <ele>227.6</ele>
        <time>2024-07-11T07:12:31Z</time>
      </trkpt>
      <trkpt lat="43.6168" lon="1.12908">
        <ele>227.2</ele>
        <time>2024-07-11T07:12:32Z</time>
      </trkpt>
      <trkpt lat="43.61687" lon="1.12897">
        <ele>226.8</ele>
        <time>2024-07-11T07:12:33Z</time>
      </trkpt>
      <trkpt lat="43.61694" lon="1.12885">
        <ele>226.4</ele>
        <time>2024-07-11T07:12:34Z</time>
      </trkpt>
      <trkpt lat="43.61701" lon="1.12874">
        <ele>225.6</ele>
        <time>2024-07-11T07:12:35Z</time>
      </trkpt>
      <trkpt lat="43.61709" lon="1.12862">
        <ele>224.6</ele>
        <time>2024-07-11T07:12:36Z</time>
      </trkpt>
      <trkpt lat="43.61716" lon="1.12849">
        <ele>224.2</ele>
        <time>2024-07-11T07:12:37Z</time>
      </trkpt>
      <trkpt lat="43.61723" lon="1.12836">
        <ele>223.2</ele>
        <time>2024-07-11T07:12:38Z</time>
      </trkpt>
      <trkpt lat="43.61729" lon="1.12822">
        <ele>223</ele>
        <time>2024-07-11T07:12:39Z</time>
      </trkpt>
      <trkpt lat="43.61735" lon="1.12807">
        <ele>222</ele>
        <time>2024-07-11T07:12:40Z</time>
      </trkpt>
      <trkpt lat="43.61741" lon="1.12793">
        <ele>221.8</ele>
        <time>2024-07-11T07:12:41Z</time>
      </trkpt>
      <trkpt lat="43.61746" lon="1.12777">
        <ele>220.8</ele>
        <time>2024-07-11T07:12:42Z</time>
      </trkpt>
      <trkpt lat="43.61752" lon="1.12762">
        <ele>219.6</ele>
        <time>2024-07-11T07:12:43Z</time>
      </trkpt>
      <trkpt lat="43.61757" lon="1.12746">
        <ele>219.4</ele>
        <time>2024-07-11T07:12:44Z</time>
      </trkpt>
      <trkpt lat="43.61763" lon="1.1273">
        <ele>218.4</ele>
        <time>2024-07-11T07:12:45Z</time>
      </trkpt>
      <trkpt lat="43.61768" lon="1.12714">
        <ele>217.8</ele>
        <time>2024-07-11T07:12:46Z</time>
      </trkpt>
      <trkpt lat="43.61775" lon="1.12698">
        <ele>217.2</ele>
        <time>2024-07-11T07:12:47Z</time>
      </trkpt>
      <trkpt lat="43.61782" lon="1.12683">
        <ele>216.8</ele>
        <time>2024-07-11T07:12:48Z</time>
      </trkpt>
      <trkpt lat="43.61791" lon="1.12668">
        <ele>216.2</ele>
        <time>2024-07-11T07:12:49Z</time>
      </trkpt>
      <trkpt lat="43.618" lon="1.12655">
        <ele>215.6</ele>
        <time>2024-07-11T07:12:50Z</time>
      </trkpt>
      <trkpt lat="43.61809" lon="1.12642">
        <ele>215.2</ele>
        <time>2024-07-11T07:12:51Z</time>
      </trkpt>
      <trkpt lat="43.61818" lon="1.12628">
        <ele>213.8</ele>
        <time>2024-07-11T07:12:52Z</time>
      </trkpt>
      <trkpt lat="43.61826" lon="1.12614">
        <ele>213</ele>
        <time>2024-07-11T07:12:53Z</time>
      </trkpt>
      <trkpt lat="43.61833" lon="1.12599">
        <ele>211.8</ele>
        <time>2024-07-11T07:12:54Z</time>
      </trkpt>
      <trkpt lat="43.61839" lon="1.12583">
        <ele>210.6</ele>
        <time>2024-07-11T07:12:55Z</time>
      </trkpt>
      <trkpt lat="43.61845" lon="1.12567">
        <ele>209.8</ele>
        <time>2024-07-11T07:12:56Z</time>
      </trkpt>
      <trkpt lat="43.61851" lon="1.12551">
        <ele>209</ele>
        <time>2024-07-11T07:12:57Z</time>
      </trkpt>
      <trkpt lat="43.61856" lon="1.12538">
        <ele>209</ele>
        <time>2024-07-11T07:12:58Z</time>
      </trkpt>
      <trkpt lat="43.61863" lon="1.12523">
        <ele>208</ele>
        <time>2024-07-11T07:12:59Z</time>
      </trkpt>
      <trkpt lat="43.61869" lon="1.12507">
        <ele>207.6</ele>
        <time>2024-07-11T07:13:00Z</time>
      </trkpt>
      <trkpt lat="43.61875" lon="1.12492">
        <ele>206.8</ele>
        <time>2024-07-11T07:13:01Z</time>
      </trkpt>
      <trkpt lat="43.61881" lon="1.12476">
        <ele>206</ele>
        <time>2024-07-11T07:13:02Z</time>
      </trkpt>
      <trkpt lat="43.61887" lon="1.1246">
        <ele>205.4</ele>
        <time>2024-07-11T07:13:03Z</time>
      </trkpt>
      <trkpt lat="43.61893" lon="1.12444">
        <ele>204.2</ele>
        <time>2024-07-11T07:13:04Z</time>
      </trkpt>
      <trkpt lat="43.61898" lon="1.12428">
        <ele>203.6</ele>
        <time>2024-07-11T07:13:05Z</time>
      </trkpt>
      <trkpt lat="43.61904" lon="1.12413">
        <ele>203.2</ele>
        <time>2024-07-11T07:13:06Z</time>
      </trkpt>
      <trkpt lat="43.6191" lon="1.12397">
        <ele>202.4</ele>
        <time>2024-07-11T07:13:07Z</time>
      </trkpt>
      <trkpt lat="43.61916" lon="1.12381">
        <ele>201.4</ele>
        <time>2024-07-11T07:13:08Z</time>
      </trkpt>
      <trkpt lat="43.61922" lon="1.12365">
        <ele>200.8</ele>
        <time>2024-07-11T07:13:09Z</time>
      </trkpt>
      <trkpt lat="43.61928" lon="1.12349">
        <ele>200.2</ele>
        <time>2024-07-11T07:13:10Z</time>
      </trkpt>
      <trkpt lat="43.61934" lon="1.12334">
        <ele>199.6</ele>
        <time>2024-07-11T07:13:11Z</time>
      </trkpt>
      <trkpt lat="43.6194" lon="1.12318">
        <ele>199</ele>
        <time>2024-07-11T07:13:12Z</time>
      </trkpt>
      <trkpt lat="43.61946" lon="1.12302">
        <ele>198.2</ele>
        <time>2024-07-11T07:13:13Z</time>
      </trkpt>
      <trkpt lat="43.61952" lon="1.12286">
        <ele>197.8</ele>
        <time>2024-07-11T07:13:14Z</time>
      </trkpt>
      <trkpt lat="43.61959" lon="1.1227">
        <ele>197.2</ele>
        <time>2024-07-11T07:13:15Z</time>
      </trkpt>
      <trkpt lat="43.61965" lon="1.12255">
        <ele>196.4</ele>
        <time>2024-07-11T07:13:16Z</time>
      </trkpt>
      <trkpt lat="43.61973" lon="1.12239">
        <ele>196</ele>
        <time>2024-07-11T07:13:17Z</time>
      </trkpt>
      <trkpt lat="43.6198" lon="1.12223">
        <ele>194.8</ele>
        <time>2024-07-11T07:13:18Z</time>
      </trkpt>
      <trkpt lat="43.61987" lon="1.12208">
        <ele>194.2</ele>
        <time>2024-07-11T07:13:19Z</time>
      </trkpt>
      <trkpt lat="43.61994" lon="1.12192">
        <ele>193</ele>
        <time>2024-07-11T07:13:20Z</time>
      </trkpt>
      <trkpt lat="43.62001" lon="1.12176">
        <ele>192</ele>
        <time>2024-07-11T07:13:21Z</time>
      </trkpt>
      <trkpt lat="43.62009" lon="1.1216">
        <ele>191.6</ele>
        <time>2024-07-11T07:13:22Z</time>
      </trkpt>
      <trkpt lat="43.62018" lon="1.12145">
        <ele>190.8</ele>
        <time>2024-07-11T07:13:23Z</time>
      </trkpt>
      <trkpt lat="43.62027" lon="1.12131">
        <ele>190.4</ele>
        <time>2024-07-11T07:13:24Z</time>
      </trkpt>
      <trkpt lat="43.62037" lon="1.12119">
        <ele>189.4</ele>
        <time>2024-07-11T07:13:25Z</time>
      </trkpt>
      <trkpt lat="43.62048" lon="1.12108">
        <ele>189</ele>
        <time>2024-07-11T07:13:26Z</time>
      </trkpt>
      <trkpt lat="43.6206" lon="1.12098">
        <ele>188</ele>
        <time>2024-07-11T07:13:27Z</time>
      </trkpt>
      <trkpt lat="43.62071" lon="1.12088">
        <ele>186.8</ele>
        <time>2024-07-11T07:13:28Z</time>
      </trkpt>
      <trkpt lat="43.62082" lon="1.12079">
        <ele>186.2</ele>
        <time>2024-07-11T07:13:29Z</time>
      </trkpt>
      <trkpt lat="43.62093" lon="1.12069">
        <ele>185.4</ele>
        <time>2024-07-11T07:13:30Z</time>
      </trkpt>
      <trkpt lat="43.62104" lon="1.12059">
        <ele>185.2</ele>
        <time>2024-07-11T07:13:31Z</time>
      </trkpt>
      <trkpt lat="43.62115" lon="1.1205">
        <ele>184.2</ele>
        <time>2024-07-11T07:13:32Z</time>
      </trkpt>
      <trkpt lat="43.62115" lon="1.1205">
        <ele>183.8</ele>
        <time>2024-07-11T07:13:33Z</time>
      </trkpt>
      <trkpt lat="43.62136" lon="1.12032">
        <ele>183.2</ele>
        <time>2024-07-11T07:13:34Z</time>
      </trkpt>
      <trkpt lat="43.62146" lon="1.12023">
        <ele>182.8</ele>
        <time>2024-07-11T07:13:35Z</time>
      </trkpt>
      <trkpt lat="43.62155" lon="1.12014">
        <ele>182.2</ele>
        <time>2024-07-11T07:13:36Z</time>
      </trkpt>
      <trkpt lat="43.62163" lon="1.12005">
        <ele>181.4</ele>
        <time>2024-07-11T07:13:37Z</time>
      </trkpt>
      <trkpt lat="43.62172" lon="1.11994">
        <ele>180.8</ele>
        <time>2024-07-11T07:13:38Z</time>
      </trkpt>
      <trkpt lat="43.6218" lon="1.11983">
        <ele>180.2</ele>
        <time>2024-07-11T07:13:39Z</time>
      </trkpt>
      <trkpt lat="43.62187" lon="1.11971">
        <ele>180</ele>
        <time>2024-07-11T07:13:40Z</time>
      </trkpt>
      <trkpt lat="43.62194" lon="1.11959">
        <ele>179</ele>
        <time>2024-07-11T07:13:41Z</time>
      </trkpt>
      <trkpt lat="43.62202" lon="1.11947">
        <ele>178</ele>
        <time>2024-07-11T07:13:42Z</time>
      </trkpt>
      <trkpt lat="43.62209" lon="1.11935">
        <ele>177.8</ele>
        <time>2024-07-11T07:13:43Z</time>
      </trkpt>
      <trkpt lat="43.62214" lon="1.11922">
        <ele>176.8</ele>
        <time>2024-07-11T07:13:44Z</time>
      </trkpt>
      <trkpt lat="43.62218" lon="1.11909">
        <ele>176.4</ele>
        <time>2024-07-11T07:13:45Z</time>
      </trkpt>
      <trkpt lat="43.62221" lon="1.11895">
        <ele>175.6</ele>
        <time>2024-07-11T07:13:46Z</time>
      </trkpt>
      <trkpt lat="43.62222" lon="1.11882">
        <ele>175</ele>
        <time>2024-07-11T07:13:47Z</time>
      </trkpt>
      <trkpt lat="43.62223" lon="1.11868">
        <ele>174.6</ele>
        <time>2024-07-11T07:13:48Z</time>
      </trkpt>
      <trkpt lat="43.62224" lon="1.11854">
        <ele>173.8</ele>
        <time>2024-07-11T07:13:49Z</time>
      </trkpt>
      <trkpt lat="43.62226" lon="1.1184">
        <ele>173.6</ele>
        <time>2024-07-11T07:13:50Z</time>
      </trkpt>
      <trkpt lat="43.6223" lon="1.11828">
        <ele>173.4</ele>
        <time>2024-07-11T07:13:51Z</time>
      </trkpt>
      <trkpt lat="43.62234" lon="1.11818">
        <ele>173.2</ele>
        <time>2024-07-11T07:13:52Z</time>
      </trkpt>
      <trkpt lat="43.62239" lon="1.11809">
        <ele>173</ele>
        <time>2024-07-11T07:13:53Z</time>
      </trkpt>
      <trkpt lat="43.62244" lon="1.118">
        <ele>173</ele>
        <time>2024-07-11T07:13:54Z</time>
      </trkpt>
      <trkpt lat="43.62249" lon="1.11792">
        <ele>173</ele>
        <time>2024-07-11T07:13:55Z</time>
      </trkpt>
      <trkpt lat="43.62254" lon="1.11783">
        <ele>173.2</ele>
        <time>2024-07-11T07:13:56Z</time>
      </trkpt>
      <trkpt lat="43.62258" lon="1.11775">
        <ele>173.4</ele>
        <time>2024-07-11T07:13:57Z</time>
      </trkpt>
      <trkpt lat="43.62263" lon="1.11767">
        <ele>173.8</ele>
        <time>2024-07-11T07:13:58Z</time>
      </trkpt>
      <trkpt lat="43.62268" lon="1.11758">
        <ele>173.8</ele>
        <time>2024-07-11T07:13:59Z</time>
      </trkpt>
      <trkpt lat="43.62272" lon="1.1175">
        <ele>174.2</ele>
        <time>2024-07-11T07:14:00Z</time>
      </trkpt>
      <trkpt lat="43.62277" lon="1.11742">
        <ele>174.4</ele>
        <time>2024-07-11T07:14:01Z</time>
      </trkpt>
      <trkpt lat="43.62282" lon="1.11734">
        <ele>174.4</ele>
        <time>2024-07-11T07:14:02Z</time>
      </trkpt>
      <trkpt lat="43.62287" lon="1.11726">
        <ele>174.4</ele>
        <time>2024-07-11T07:14:03Z</time>
      </trkpt>
      <trkpt lat="43.62292" lon="1.11718">
        <ele>174.4</ele>
        <time>2024-07-11T07:14:04Z</time>
      </trkpt>
      <trkpt lat="43.62297" lon="1.11709">
        <ele>174.4</ele>
        <time>2024-07-11T07:14:05Z</time>
      </trkpt>
      <trkpt lat="43.62303" lon="1.11701">
        <ele>174.4</ele>
        <time>2024-07-11T07:14:06Z</time>
      </trkpt>
      <trkpt lat="43.62308" lon="1.11692">
        <ele>174.4</ele>
        <time>2024-07-11T07:14:07Z</time>
      </trkpt>
      <trkpt lat="43.62314" lon="1.11683">
        <ele>174.4</ele>
        <time>2024-07-11T07:14:08Z</time>
      </trkpt>
      <trkpt lat="43.62319" lon="1.11674">
        <ele>174.2</ele>
        <time>2024-07-11T07:14:09Z</time>
      </trkpt>
      <trkpt lat="43.62325" lon="1.11666">
        <ele>174.2</ele>
        <time>2024-07-11T07:14:10Z</time>
      </trkpt>
      <trkpt lat="43.6233" lon="1.11657">
        <ele>174.2</ele>
        <time>2024-07-11T07:14:11Z</time>
      </trkpt>
      <trkpt lat="43.62336" lon="1.11648">
        <ele>174</ele>
        <time>2024-07-11T07:14:12Z</time>
      </trkpt>
      <trkpt lat="43.62341" lon="1.11639">
        <ele>174</ele>
        <time>2024-07-11T07:14:13Z</time>
      </trkpt>
      <trkpt lat="43.62341" lon="1.11639">
        <ele>173.8</ele>
        <time>2024-07-11T07:14:14Z</time>
      </trkpt>
      <trkpt lat="43.62352" lon="1.11622">
        <ele>173.6</ele>
        <time>2024-07-11T07:14:15Z</time>
      </trkpt>
      <trkpt lat="43.62358" lon="1.11613">
        <ele>173.4</ele>
        <time>2024-07-11T07:14:16Z</time>
      </trkpt>
      <trkpt lat="43.62363" lon="1.11605">
        <ele>173.2</ele>
        <time>2024-07-11T07:14:17Z</time>
      </trkpt>
      <trkpt lat="43.62368" lon="1.11596">
        <ele>173</ele>
        <time>2024-07-11T07:14:18Z</time>
      </trkpt>
      <trkpt lat="43.62374" lon="1.11588">
        <ele>172.8</ele>
        <time>2024-07-11T07:14:19Z</time>
      </trkpt>
      <trkpt lat="43.6238" lon="1.11581">
        <ele>172.6</ele>
        <time>2024-07-11T07:14:20Z</time>
      </trkpt>
      <trkpt lat="43.62386" lon="1.11573">
        <ele>172.4</ele>
        <time>2024-07-11T07:14:21Z</time>
      </trkpt>
      <trkpt lat="43.62392" lon="1.11566">
        <ele>172.2</ele>
        <time>2024-07-11T07:14:22Z</time>
      </trkpt>
      <trkpt lat="43.62398" lon="1.11558">
        <ele>172.2</ele>
        <time>2024-07-11T07:14:23Z</time>
      </trkpt>
      <trkpt lat="43.62404" lon="1.11551">
        <ele>172</ele>
        <time>2024-07-11T07:14:24Z</time>
      </trkpt>
      <trkpt lat="43.62409" lon="1.11543">
        <ele>172</ele>
        <time>2024-07-11T07:14:25Z</time>
      </trkpt>
      <trkpt lat="43.62415" lon="1.11536">
        <ele>171.8</ele>
        <time>2024-07-11T07:14:26Z</time>
      </trkpt>
      <trkpt lat="43.6242" lon="1.11528">
        <ele>171.6</ele>
        <time>2024-07-11T07:14:27Z</time>
      </trkpt>
      <trkpt lat="43.62426" lon="1.11519">
        <ele>171.6</ele>
        <time>2024-07-11T07:14:28Z</time>
      </trkpt>
      <trkpt lat="43.6243" lon="1.11511">
        <ele>171.4</ele>
        <time>2024-07-11T07:14:29Z</time>
      </trkpt>
      <trkpt lat="43.62435" lon="1.11502">
        <ele>171.2</ele>
        <time>2024-07-11T07:14:30Z</time>
      </trkpt>
      <trkpt lat="43.62439" lon="1.11493">
        <ele>171</ele>
        <time>2024-07-11T07:14:31Z</time>
      </trkpt>
      <trkpt lat="43.62443" lon="1.11482">
        <ele>171</ele>
        <time>2024-07-11T07:14:32Z</time>
      </trkpt>
      <trkpt lat="43.62447" lon="1.11472">
        <ele>170.8</ele>
        <time>2024-07-11T07:14:33Z</time>
      </trkpt>
      <trkpt lat="43.62451" lon="1.11462">
        <ele>170</ele>
        <time>2024-07-11T07:14:34Z</time>
      </trkpt>
      <trkpt lat="43.62455" lon="1.11454">
        <ele>169.8</ele>
        <time>2024-07-11T07:14:35Z</time>
      </trkpt>
      <trkpt lat="43.62458" lon="1.11448">
        <ele>169.2</ele>
        <time>2024-07-11T07:14:36Z</time>
      </trkpt>
      <trkpt lat="43.6246" lon="1.11444">
        <ele>169.2</ele>
        <time>2024-07-11T07:14:37Z</time>
      </trkpt>
      <trkpt lat="43.62462" lon="1.11441">
        <ele>168.8</ele>
        <time>2024-07-11T07:14:38Z</time>
      </trkpt>
      <trkpt lat="43.62463" lon="1.1144">
        <ele>168.8</ele>
        <time>2024-07-11T07:14:39Z</time>
      </trkpt>
      <trkpt lat="43.62464" lon="1.11442">
        <ele>168.6</ele>
        <time>2024-07-11T07:14:40Z</time>
      </trkpt>
      <trkpt lat="43.62465" lon="1.11445">
        <ele>168.6</ele>
        <time>2024-07-11T07:14:41Z</time>
      </trkpt>
      <trkpt lat="43.62467" lon="1.11449">
        <ele>168.6</ele>
        <time>2024-07-11T07:14:42Z</time>
      </trkpt>
      <trkpt lat="43.62468" lon="1.11453">
        <ele>168.6</ele>
        <time>2024-07-11T07:14:43Z</time>
      </trkpt>
      <trkpt lat="43.6247" lon="1.11458">
        <ele>168.4</ele>
        <time>2024-07-11T07:14:44Z</time>
      </trkpt>
      <trkpt lat="43.62471" lon="1.11463">
        <ele>168.4</ele>
        <time>2024-07-11T07:14:45Z</time>
      </trkpt>
      <trkpt lat="43.62473" lon="1.11468">
        <ele>168.4</ele>
        <time>2024-07-11T07:14:46Z</time>
      </trkpt>
      <trkpt lat="43.62475" lon="1.11474">
        <ele>168.4</ele>
        <time>2024-07-11T07:14:47Z</time>
      </trkpt>
      <trkpt lat="43.62476" lon="1.11479">
        <ele>168.4</ele>
        <time>2024-07-11T07:14:48Z</time>
      </trkpt>
      <trkpt lat="43.62478" lon="1.11483">
        <ele>168.4</ele>
        <time>2024-07-11T07:14:49Z</time>
      </trkpt>
      <trkpt lat="43.6248" lon="1.11488">
        <ele>168.4</ele>
        <time>2024-07-11T07:14:50Z</time>
      </trkpt>
      <trkpt lat="43.62481" lon="1.11494">
        <ele>168.4</ele>
        <time>2024-07-11T07:14:51Z</time>
      </trkpt>
      <trkpt lat="43.62483" lon="1.11499">
        <ele>168.4</ele>
        <time>2024-07-11T07:14:52Z</time>
      </trkpt>
      <trkpt lat="43.62485" lon="1.11505">
        <ele>168.4</ele>
        <time>2024-07-11T07:14:53Z</time>
      </trkpt>
      <trkpt lat="43.62486" lon="1.1151">
        <ele>168.4</ele>
        <time>2024-07-11T07:14:54Z</time>
      </trkpt>
      <trkpt lat="43.62488" lon="1.11516">
        <ele>168.4</ele>
        <time>2024-07-11T07:14:55Z</time>
      </trkpt>
      <trkpt lat="43.62491" lon="1.11523">
        <ele>168.4</ele>
        <time>2024-07-11T07:14:56Z</time>
      </trkpt>
      <trkpt lat="43.62493" lon="1.11529">
        <ele>168.4</ele>
        <time>2024-07-11T07:14:57Z</time>
      </trkpt>
      <trkpt lat="43.62494" lon="1.11534">
        <ele>168.4</ele>
        <time>2024-07-11T07:14:58Z</time>
      </trkpt>
      <trkpt lat="43.62496" lon="1.1154">
        <ele>168.4</ele>
        <time>2024-07-11T07:14:59Z</time>
      </trkpt>
      <trkpt lat="43.62499" lon="1.11548">
        <ele>168.2</ele>
        <time>2024-07-11T07:15:00Z</time>
      </trkpt>
      <trkpt lat="43.62501" lon="1.11554">
        <ele>168.2</ele>
        <time>2024-07-11T07:15:01Z</time>
      </trkpt>
      <trkpt lat="43.62503" lon="1.1156">
        <ele>168.2</ele>
        <time>2024-07-11T07:15:02Z</time>
      </trkpt>
      <trkpt lat="43.62505" lon="1.11566">
        <ele>168.2</ele>
        <time>2024-07-11T07:15:03Z</time>
      </trkpt>
      <trkpt lat="43.62507" lon="1.11572">
        <ele>168.2</ele>
        <time>2024-07-11T07:15:04Z</time>
      </trkpt>
      <trkpt lat="43.62509" lon="1.11579">
        <ele>168</ele>
        <time>2024-07-11T07:15:05Z</time>
      </trkpt>
      <trkpt lat="43.62512" lon="1.11585">
        <ele>168</ele>
        <time>2024-07-11T07:15:06Z</time>
      </trkpt>
      <trkpt lat="43.62514" lon="1.11592">
        <ele>168</ele>
        <time>2024-07-11T07:15:07Z</time>
      </trkpt>
      <trkpt lat="43.62515" lon="1.11597">
        <ele>168</ele>
        <time>2024-07-11T07:15:08Z</time>
      </trkpt>
      <trkpt lat="43.62518" lon="1.11604">
        <ele>168</ele>
        <time>2024-07-11T07:15:09Z</time>
      </trkpt>
      <trkpt lat="43.6252" lon="1.1161">
        <ele>168</ele>
        <time>2024-07-11T07:15:10Z</time>
      </trkpt>
      <trkpt lat="43.62522" lon="1.11617">
        <ele>168</ele>
        <time>2024-07-11T07:15:11Z</time>
      </trkpt>
      <trkpt lat="43.62524" lon="1.11622">
        <ele>168</ele>
        <time>2024-07-11T07:15:12Z</time>
      </trkpt>
      <trkpt lat="43.62526" lon="1.11628">
        <ele>168</ele>
        <time>2024-07-11T07:15:13Z</time>
      </trkpt>
      <trkpt lat="43.62529" lon="1.11636">
        <ele>167.8</ele>
        <time>2024-07-11T07:15:14Z</time>
      </trkpt>
      <trkpt lat="43.62531" lon="1.11642">
        <ele>167.8</ele>
        <time>2024-07-11T07:15:15Z</time>
      </trkpt>
      <trkpt lat="43.62533" lon="1.11649">
        <ele>167.8</ele>
        <time>2024-07-11T07:15:16Z</time>
      </trkpt>
      <trkpt lat="43.62535" lon="1.11654">
        <ele>167.6</ele>
        <time>2024-07-11T07:15:17Z</time>
      </trkpt>
      <trkpt lat="43.62537" lon="1.1166">
        <ele>167.6</ele>
        <time>2024-07-11T07:15:18Z</time>
      </trkpt>
      <trkpt lat="43.6254" lon="1.11667">
        <ele>167.6</ele>
        <time>2024-07-11T07:15:19Z</time>
      </trkpt>
      <trkpt lat="43.62542" lon="1.11673">
        <ele>167.6</ele>
        <time>2024-07-11T07:15:20Z</time>
      </trkpt>
      <trkpt lat="43.62544" lon="1.11679">
        <ele>167.6</ele>
        <time>2024-07-11T07:15:21Z</time>
      </trkpt>
      <trkpt lat="43.62545" lon="1.11683">
        <ele>167.4</ele>
        <time>2024-07-11T07:15:22Z</time>
      </trkpt>
      <trkpt lat="43.62547" lon="1.11689">
        <ele>167.4</ele>
        <time>2024-07-11T07:15:23Z</time>
      </trkpt>
      <trkpt lat="43.6255" lon="1.11697">
        <ele>167.4</ele>
        <time>2024-07-11T07:15:24Z</time>
      </trkpt>
      <trkpt lat="43.62552" lon="1.11703">
        <ele>167.4</ele>
        <time>2024-07-11T07:15:25Z</time>
      </trkpt>
      <trkpt lat="43.62554" lon="1.11708">
        <ele>167.2</ele>
        <time>2024-07-11T07:15:26Z</time>
      </trkpt>
      <trkpt lat="43.62556" lon="1.11715">
        <ele>167.2</ele>
        <time>2024-07-11T07:15:27Z</time>
      </trkpt>
      <trkpt lat="43.62558" lon="1.11721">
        <ele>167.2</ele>
        <time>2024-07-11T07:15:28Z</time>
      </trkpt>
      <trkpt lat="43.62561" lon="1.11729">
        <ele>167.2</ele>
        <time>2024-07-11T07:15:29Z</time>
      </trkpt>
      <trkpt lat="43.62563" lon="1.11735">
        <ele>167.2</ele>
        <time>2024-07-11T07:15:30Z</time>
      </trkpt>
      <trkpt lat="43.62565" lon="1.1174">
        <ele>167.2</ele>
        <time>2024-07-11T07:15:31Z</time>
      </trkpt>
      <trkpt lat="43.62567" lon="1.11746">
        <ele>167.2</ele>
        <time>2024-07-11T07:15:32Z</time>
      </trkpt>
      <trkpt lat="43.6257" lon="1.11754">
        <ele>167</ele>
        <time>2024-07-11T07:15:33Z</time>
      </trkpt>
      <trkpt lat="43.62572" lon="1.11761">
        <ele>167</ele>
        <time>2024-07-11T07:15:34Z</time>
      </trkpt>
      <trkpt lat="43.62574" lon="1.11768">
        <ele>166.8</ele>
        <time>2024-07-11T07:15:35Z</time>
      </trkpt>
      <trkpt lat="43.62576" lon="1.11773">
        <ele>166.8</ele>
        <time>2024-07-11T07:15:36Z</time>
      </trkpt>
      <trkpt lat="43.62578" lon="1.1178">
        <ele>166.8</ele>
        <time>2024-07-11T07:15:37Z</time>
      </trkpt>
      <trkpt lat="43.62581" lon="1.11788">
        <ele>166.6</ele>
        <time>2024-07-11T07:15:38Z</time>
      </trkpt>
      <trkpt lat="43.62584" lon="1.11795">
        <ele>166.6</ele>
        <time>2024-07-11T07:15:39Z</time>
      </trkpt>
      <trkpt lat="43.62586" lon="1.11801">
        <ele>166.6</ele>
        <time>2024-07-11T07:15:40Z</time>
      </trkpt>
      <trkpt lat="43.62588" lon="1.11809">
        <ele>166.6</ele>
        <time>2024-07-11T07:15:41Z</time>
      </trkpt>
      <trkpt lat="43.62592" lon="1.11818">
        <ele>166.4</ele>
        <time>2024-07-11T07:15:42Z</time>
      </trkpt>
      <trkpt lat="43.62594" lon="1.11825">
        <ele>166.4</ele>
        <time>2024-07-11T07:15:43Z</time>
      </trkpt>
      <trkpt lat="43.62597" lon="1.11833">
        <ele>166.4</ele>
        <time>2024-07-11T07:15:44Z</time>
      </trkpt>
      <trkpt lat="43.626" lon="1.11839">
        <ele>166.4</ele>
        <time>2024-07-11T07:15:45Z</time>
      </trkpt>
      <trkpt lat="43.62603" lon="1.11847">
        <ele>166.2</ele>
        <time>2024-07-11T07:15:46Z</time>
      </trkpt>
      <trkpt lat="43.62606" lon="1.11856">
        <ele>166.2</ele>
        <time>2024-07-11T07:15:47Z</time>
      </trkpt>
      <trkpt lat="43.62608" lon="1.11864">
        <ele>166</ele>
        <time>2024-07-11T07:15:48Z</time>
      </trkpt>
      <trkpt lat="43.62611" lon="1.11871">
        <ele>165.8</ele>
        <time>2024-07-11T07:15:49Z</time>
      </trkpt>
      <trkpt lat="43.62613" lon="1.11877">
        <ele>165.8</ele>
        <time>2024-07-11T07:15:50Z</time>
      </trkpt>
      <trkpt lat="43.62616" lon="1.11886">
        <ele>165.6</ele>
        <time>2024-07-11T07:15:51Z</time>
      </trkpt>
      <trkpt lat="43.62618" lon="1.11893">
        <ele>165.6</ele>
        <time>2024-07-11T07:15:52Z</time>
      </trkpt>
      <trkpt lat="43.62621" lon="1.119">
        <ele>165.6</ele>
        <time>2024-07-11T07:15:53Z</time>
      </trkpt>
      <trkpt lat="43.62623" lon="1.11906">
        <ele>165.6</ele>
        <time>2024-07-11T07:15:54Z</time>
      </trkpt>
      <trkpt lat="43.62625" lon="1.11912">
        <ele>165.6</ele>
        <time>2024-07-11T07:15:55Z</time>
      </trkpt>
      <trkpt lat="43.62627" lon="1.11919">
        <ele>165.8</ele>
        <time>2024-07-11T07:15:56Z</time>
      </trkpt>
      <trkpt lat="43.62629" lon="1.11925">
        <ele>165.8</ele>
        <time>2024-07-11T07:15:57Z</time>
      </trkpt>
      <trkpt lat="43.62631" lon="1.1193">
        <ele>165.8</ele>
        <time>2024-07-11T07:15:58Z</time>
      </trkpt>
      <trkpt lat="43.62631" lon="1.1193">
        <ele>166</ele>
        <time>2024-07-11T07:15:59Z</time>
      </trkpt>
      <trkpt lat="43.62634" lon="1.1194">
        <ele>166</ele>
        <time>2024-07-11T07:16:00Z</time>
      </trkpt>
      <trkpt lat="43.62636" lon="1.11945">
        <ele>166</ele>
        <time>2024-07-11T07:16:01Z</time>
      </trkpt>
      <trkpt lat="43.62637" lon="1.11951">
        <ele>166.2</ele>
        <time>2024-07-11T07:16:02Z</time>
      </trkpt>
      <trkpt lat="43.62639" lon="1.11956">
        <ele>166.2</ele>
        <time>2024-07-11T07:16:03Z</time>
      </trkpt>
      <trkpt lat="43.62641" lon="1.11962">
        <ele>166.2</ele>
        <time>2024-07-11T07:16:04Z</time>
      </trkpt>
      <trkpt lat="43.62643" lon="1.11967">
        <ele>166.2</ele>
        <time>2024-07-11T07:16:05Z</time>
      </trkpt>
      <trkpt lat="43.62645" lon="1.11973">
        <ele>166.4</ele>
        <time>2024-07-11T07:16:06Z</time>
      </trkpt>
      <trkpt lat="43.62647" lon="1.11978">
        <ele>166.4</ele>
        <time>2024-07-11T07:16:07Z</time>
      </trkpt>
      <trkpt lat="43.62649" lon="1.11984">
        <ele>166.4</ele>
        <time>2024-07-11T07:16:08Z</time>
      </trkpt>
      <trkpt lat="43.6265" lon="1.11989">
        <ele>166.4</ele>
        <time>2024-07-11T07:16:09Z</time>
      </trkpt>
      <trkpt lat="43.62652" lon="1.11995">
        <ele>166.4</ele>
        <time>2024-07-11T07:16:10Z</time>
      </trkpt>
      <trkpt lat="43.62655" lon="1.12002">
        <ele>166.4</ele>
        <time>2024-07-11T07:16:11Z</time>
      </trkpt>
      <trkpt lat="43.62657" lon="1.12007">
        <ele>166.4</ele>
        <time>2024-07-11T07:16:12Z</time>
      </trkpt>
      <trkpt lat="43.62659" lon="1.12012">
        <ele>166.4</ele>
        <time>2024-07-11T07:16:13Z</time>
      </trkpt>
      <trkpt lat="43.62661" lon="1.12017">
        <ele>166.4</ele>
        <time>2024-07-11T07:16:14Z</time>
      </trkpt>
      <trkpt lat="43.62662" lon="1.12022">
        <ele>166.4</ele>
        <time>2024-07-11T07:16:15Z</time>
      </trkpt>
      <trkpt lat="43.62664" lon="1.12029">
        <ele>166.4</ele>
        <time>2024-07-11T07:16:16Z</time>
      </trkpt>
      <trkpt lat="43.62666" lon="1.12035">
        <ele>166.4</ele>
        <time>2024-07-11T07:16:17Z</time>
      </trkpt>
      <trkpt lat="43.62668" lon="1.12039">
        <ele>166.2</ele>
        <time>2024-07-11T07:16:18Z</time>
      </trkpt>
      <trkpt lat="43.6267" lon="1.12045">
        <ele>166.2</ele>
        <time>2024-07-11T07:16:19Z</time>
      </trkpt>
      <trkpt lat="43.62672" lon="1.12051">
        <ele>166.2</ele>
        <time>2024-07-11T07:16:20Z</time>
      </trkpt>
      <trkpt lat="43.62674" lon="1.12057">
        <ele>166.2</ele>
        <time>2024-07-11T07:16:21Z</time>
      </trkpt>
      <trkpt lat="43.62676" lon="1.12063">
        <ele>166.2</ele>
        <time>2024-07-11T07:16:22Z</time>
      </trkpt>
      <trkpt lat="43.62678" lon="1.12068">
        <ele>166.2</ele>
        <time>2024-07-11T07:16:23Z</time>
      </trkpt>
      <trkpt lat="43.6268" lon="1.12073">
        <ele>166.2</ele>
        <time>2024-07-11T07:16:24Z</time>
      </trkpt>
      <trkpt lat="43.62682" lon="1.1208">
        <ele>166</ele>
        <time>2024-07-11T07:16:25Z</time>
      </trkpt>
      <trkpt lat="43.62684" lon="1.12085">
        <ele>166</ele>
        <time>2024-07-11T07:16:26Z</time>
      </trkpt>
      <trkpt lat="43.62686" lon="1.12092">
        <ele>166</ele>
        <time>2024-07-11T07:16:27Z</time>
      </trkpt>
      <trkpt lat="43.62688" lon="1.12096">
        <ele>166</ele>
        <time>2024-07-11T07:16:28Z</time>
      </trkpt>
      <trkpt lat="43.6269" lon="1.12102">
        <ele>165.8</ele>
        <time>2024-07-11T07:16:29Z</time>
      </trkpt>
      <trkpt lat="43.62692" lon="1.1211">
        <ele>165.8</ele>
        <time>2024-07-11T07:16:30Z</time>
      </trkpt>
      <trkpt lat="43.62695" lon="1.12116">
        <ele>165.8</ele>
        <time>2024-07-11T07:16:31Z</time>
      </trkpt>
      <trkpt lat="43.62696" lon="1.12121">
        <ele>165.8</ele>
        <time>2024-07-11T07:16:32Z</time>
      </trkpt>
      <trkpt lat="43.62699" lon="1.12127">
        <ele>165.8</ele>
        <time>2024-07-11T07:16:33Z</time>
      </trkpt>
      <trkpt lat="43.62701" lon="1.12135">
        <ele>165.8</ele>
        <time>2024-07-11T07:16:34Z</time>
      </trkpt>
      <trkpt lat="43.62703" lon="1.12141">
        <ele>165.8</ele>
        <time>2024-07-11T07:16:35Z</time>
      </trkpt>
      <trkpt lat="43.62706" lon="1.12148">
        <ele>165.8</ele>
        <time>2024-07-11T07:16:36Z</time>
      </trkpt>
      <trkpt lat="43.62708" lon="1.12154">
        <ele>165.8</ele>
        <time>2024-07-11T07:16:37Z</time>
      </trkpt>
      <trkpt lat="43.6271" lon="1.1216">
        <ele>165.8</ele>
        <time>2024-07-11T07:16:38Z</time>
      </trkpt>
      <trkpt lat="43.62713" lon="1.12168">
        <ele>165.6</ele>
        <time>2024-07-11T07:16:39Z</time>
      </trkpt>
      <trkpt lat="43.62715" lon="1.12176">
        <ele>165.6</ele>
        <time>2024-07-11T07:16:40Z</time>
      </trkpt>
      <trkpt lat="43.62718" lon="1.12183">
        <ele>165.4</ele>
        <time>2024-07-11T07:16:41Z</time>
      </trkpt>
      <trkpt lat="43.6272" lon="1.12189">
        <ele>165.2</ele>
        <time>2024-07-11T07:16:42Z</time>
      </trkpt>
      <trkpt lat="43.62722" lon="1.12197">
        <ele>165</ele>
        <time>2024-07-11T07:16:43Z</time>
      </trkpt>
      <trkpt lat="43.62725" lon="1.12206">
        <ele>165</ele>
        <time>2024-07-11T07:16:44Z</time>
      </trkpt>
      <trkpt lat="43.62728" lon="1.12213">
        <ele>164.8</ele>
        <time>2024-07-11T07:16:45Z</time>
      </trkpt>
      <trkpt lat="43.6273" lon="1.12219">
        <ele>164.8</ele>
        <time>2024-07-11T07:16:46Z</time>
      </trkpt>
      <trkpt lat="43.62733" lon="1.12226">
        <ele>164.8</ele>
        <time>2024-07-11T07:16:47Z</time>
      </trkpt>
      <trkpt lat="43.62736" lon="1.12235">
        <ele>164.8</ele>
        <time>2024-07-11T07:16:48Z</time>
      </trkpt>
      <trkpt lat="43.62738" lon="1.12242">
        <ele>164.6</ele>
        <time>2024-07-11T07:16:49Z</time>
      </trkpt>
      <trkpt lat="43.62741" lon="1.12249">
        <ele>164.6</ele>
        <time>2024-07-11T07:16:50Z</time>
      </trkpt>
      <trkpt lat="43.62742" lon="1.12255">
        <ele>164.6</ele>
        <time>2024-07-11T07:16:51Z</time>
      </trkpt>
      <trkpt lat="43.62745" lon="1.12263">
        <ele>164.6</ele>
        <time>2024-07-11T07:16:52Z</time>
      </trkpt>
      <trkpt lat="43.62747" lon="1.12271">
        <ele>164.6</ele>
        <time>2024-07-11T07:16:53Z</time>
      </trkpt>
      <trkpt lat="43.62749" lon="1.12277">
        <ele>164.6</ele>
        <time>2024-07-11T07:16:54Z</time>
      </trkpt>
      <trkpt lat="43.62751" lon="1.12284">
        <ele>164.6</ele>
        <time>2024-07-11T07:16:55Z</time>
      </trkpt>
      <trkpt lat="43.62752" lon="1.1229">
        <ele>164.6</ele>
        <time>2024-07-11T07:16:56Z</time>
      </trkpt>
      <trkpt lat="43.62755" lon="1.12298">
        <ele>164.6</ele>
        <time>2024-07-11T07:16:57Z</time>
      </trkpt>
      <trkpt lat="43.62757" lon="1.12307">
        <ele>164.6</ele>
        <time>2024-07-11T07:16:58Z</time>
      </trkpt>
      <trkpt lat="43.62759" lon="1.12315">
        <ele>164.6</ele>
        <time>2024-07-11T07:16:59Z</time>
      </trkpt>
      <trkpt lat="43.6276" lon="1.12322">
        <ele>164.6</ele>
        <time>2024-07-11T07:17:00Z</time>
      </trkpt>
      <trkpt lat="43.62762" lon="1.1233">
        <ele>164.6</ele>
        <time>2024-07-11T07:17:01Z</time>
      </trkpt>
      <trkpt lat="43.62765" lon="1.12336">
        <ele>164.6</ele>
        <time>2024-07-11T07:17:02Z</time>
      </trkpt>
      <trkpt lat="43.62769" lon="1.1234">
        <ele>164.6</ele>
        <time>2024-07-11T07:17:03Z</time>
      </trkpt>
      <trkpt lat="43.62774" lon="1.12341">
        <ele>164.6</ele>
        <time>2024-07-11T07:17:04Z</time>
      </trkpt>
      <trkpt lat="43.62778" lon="1.1234">
        <ele>164.8</ele>
        <time>2024-07-11T07:17:05Z</time>
      </trkpt>
      <trkpt lat="43.62781" lon="1.12338">
        <ele>164.8</ele>
        <time>2024-07-11T07:17:06Z</time>
      </trkpt>
      <trkpt lat="43.62784" lon="1.12334">
        <ele>164.6</ele>
        <time>2024-07-11T07:17:07Z</time>
      </trkpt>
      <trkpt lat="43.62786" lon="1.12331">
        <ele>164.6</ele>
        <time>2024-07-11T07:17:08Z</time>
      </trkpt>
      <trkpt lat="43.62789" lon="1.1233">
        <ele>164.6</ele>
        <time>2024-07-11T07:17:09Z</time>
      </trkpt>
      <trkpt lat="43.62791" lon="1.12331">
        <ele>164.6</ele>
        <time>2024-07-11T07:17:10Z</time>
      </trkpt>
      <trkpt lat="43.62793" lon="1.12333">
        <ele>164.4</ele>
        <time>2024-07-11T07:17:11Z</time>
      </trkpt>
      <trkpt lat="43.62796" lon="1.12337">
        <ele>164.4</ele>
        <time>2024-07-11T07:17:12Z</time>
      </trkpt>
      <trkpt lat="43.62798" lon="1.1234">
        <ele>164.2</ele>
        <time>2024-07-11T07:17:13Z</time>
      </trkpt>
      <trkpt lat="43.628" lon="1.12342">
        <ele>164</ele>
        <time>2024-07-11T07:17:14Z</time>
      </trkpt>
      <trkpt lat="43.62802" lon="1.12344">
        <ele>163.8</ele>
        <time>2024-07-11T07:17:15Z</time>
      </trkpt>
      <trkpt lat="43.62804" lon="1.12345">
        <ele>163.6</ele>
        <time>2024-07-11T07:17:16Z</time>
      </trkpt>
      <trkpt lat="43.62805" lon="1.12346">
        <ele>163.2</ele>
        <time>2024-07-11T07:17:17Z</time>
      </trkpt>
      <trkpt lat="43.62806" lon="1.12346">
        <ele>163.2</ele>
        <time>2024-07-11T07:17:18Z</time>
      </trkpt>
      <trkpt lat="43.62807" lon="1.12347">
        <ele>163</ele>
        <time>2024-07-11T07:17:19Z</time>
      </trkpt>
      <trkpt lat="43.62809" lon="1.12348">
        <ele>162.8</ele>
        <time>2024-07-11T07:17:20Z</time>
      </trkpt>
      <trkpt lat="43.62812" lon="1.1235">
        <ele>162.8</ele>
        <time>2024-07-11T07:17:21Z</time>
      </trkpt>
      <trkpt lat="43.62814" lon="1.12353">
        <ele>162.8</ele>
        <time>2024-07-11T07:17:22Z</time>
      </trkpt>
      <trkpt lat="43.62817" lon="1.12355">
        <ele>162.8</ele>
        <time>2024-07-11T07:17:23Z</time>
      </trkpt>
      <trkpt lat="43.6282" lon="1.12358">
        <ele>162.6</ele>
        <time>2024-07-11T07:17:24Z</time>
      </trkpt>
      <trkpt lat="43.62824" lon="1.12362">
        <ele>162.6</ele>
        <time>2024-07-11T07:17:25Z</time>
      </trkpt>
      <trkpt lat="43.62827" lon="1.12365">
        <ele>162.6</ele>
        <time>2024-07-11T07:17:26Z</time>
      </trkpt>
      <trkpt lat="43.6283" lon="1.12368">
        <ele>162.4</ele>
        <time>2024-07-11T07:17:27Z</time>
      </trkpt>
      <trkpt lat="43.62834" lon="1.12372">
        <ele>162.4</ele>
        <time>2024-07-11T07:17:28Z</time>
      </trkpt>
      <trkpt lat="43.62838" lon="1.12375">
        <ele>162.4</ele>
        <time>2024-07-11T07:17:29Z</time>
      </trkpt>
      <trkpt lat="43.62843" lon="1.12379">
        <ele>162.2</ele>
        <time>2024-07-11T07:17:30Z</time>
      </trkpt>
      <trkpt lat="43.62848" lon="1.12382">
        <ele>162.2</ele>
        <time>2024-07-11T07:17:31Z</time>
      </trkpt>
      <trkpt lat="43.62853" lon="1.12382">
        <ele>162.2</ele>
        <time>2024-07-11T07:17:32Z</time>
      </trkpt>
      <trkpt lat="43.62858" lon="1.1238">
        <ele>162.2</ele>
        <time>2024-07-11T07:17:33Z</time>
      </trkpt>
      <trkpt lat="43.62862" lon="1.12377">
        <ele>162</ele>
        <time>2024-07-11T07:17:34Z</time>
      </trkpt>
      <trkpt lat="43.62867" lon="1.12371">
        <ele>162</ele>
        <time>2024-07-11T07:17:35Z</time>
      </trkpt>
      <trkpt lat="43.62871" lon="1.12366">
        <ele>162</ele>
        <time>2024-07-11T07:17:36Z</time>
      </trkpt>
      <trkpt lat="43.62874" lon="1.12359">
        <ele>162</ele>
        <time>2024-07-11T07:17:37Z</time>
      </trkpt>
      <trkpt lat="43.62877" lon="1.12355">
        <ele>161.8</ele>
        <time>2024-07-11T07:17:38Z</time>
      </trkpt>
      <trkpt lat="43.62881" lon="1.12349">
        <ele>161.6</ele>
        <time>2024-07-11T07:17:39Z</time>
      </trkpt>
      <trkpt lat="43.62884" lon="1.12344">
        <ele>161.6</ele>
        <time>2024-07-11T07:17:40Z</time>
      </trkpt>
      <trkpt lat="43.62887" lon="1.12341">
        <ele>161.4</ele>
        <time>2024-07-11T07:17:41Z</time>
      </trkpt>
      <trkpt lat="43.6289" lon="1.12339">
        <ele>161.4</ele>
        <time>2024-07-11T07:17:42Z</time>
      </trkpt>
      <trkpt lat="43.62895" lon="1.1234">
        <ele>161.4</ele>
        <time>2024-07-11T07:17:43Z</time>
      </trkpt>
      <trkpt lat="43.629" lon="1.12344">
        <ele>161.2</ele>
        <time>2024-07-11T07:17:44Z</time>
      </trkpt>
      <trkpt lat="43.62904" lon="1.12349">
        <ele>161.2</ele>
        <time>2024-07-11T07:17:45Z</time>
      </trkpt>
      <trkpt lat="43.62908" lon="1.12356">
        <ele>161</ele>
        <time>2024-07-11T07:17:46Z</time>
      </trkpt>
      <trkpt lat="43.62911" lon="1.12363">
        <ele>161</ele>
        <time>2024-07-11T07:17:47Z</time>
      </trkpt>
      <trkpt lat="43.62914" lon="1.12368">
        <ele>161</ele>
        <time>2024-07-11T07:17:48Z</time>
      </trkpt>
      <trkpt lat="43.62919" lon="1.12377">
        <ele>161</ele>
        <time>2024-07-11T07:17:49Z</time>
      </trkpt>
      <trkpt lat="43.62923" lon="1.12384">
        <ele>161</ele>
        <time>2024-07-11T07:17:50Z</time>
      </trkpt>
      <trkpt lat="43.62928" lon="1.12391">
        <ele>160.4</ele>
        <time>2024-07-11T07:17:51Z</time>
      </trkpt>
      <trkpt lat="43.62932" lon="1.12398">
        <ele>160.4</ele>
        <time>2024-07-11T07:17:52Z</time>
      </trkpt>
      <trkpt lat="43.62937" lon="1.12406">
        <ele>159.8</ele>
        <time>2024-07-11T07:17:53Z</time>
      </trkpt>
      <trkpt lat="43.62941" lon="1.12413">
        <ele>159.6</ele>
        <time>2024-07-11T07:17:54Z</time>
      </trkpt>
      <trkpt lat="43.62946" lon="1.12421">
        <ele>159.4</ele>
        <time>2024-07-11T07:17:55Z</time>
      </trkpt>
      <trkpt lat="43.62949" lon="1.12427">
        <ele>159.2</ele>
        <time>2024-07-11T07:17:56Z</time>
      </trkpt>
      <trkpt lat="43.62953" lon="1.12435">
        <ele>159</ele>
        <time>2024-07-11T07:17:57Z</time>
      </trkpt>
      <trkpt lat="43.62958" lon="1.12444">
        <ele>158.8</ele>
        <time>2024-07-11T07:17:58Z</time>
      </trkpt>
      <trkpt lat="43.62962" lon="1.12451">
        <ele>158.6</ele>
        <time>2024-07-11T07:17:59Z</time>
      </trkpt>
      <trkpt lat="43.62966" lon="1.12459">
        <ele>158.6</ele>
        <time>2024-07-11T07:18:00Z</time>
      </trkpt>
      <trkpt lat="43.62969" lon="1.12467">
        <ele>158.4</ele>
        <time>2024-07-11T07:18:01Z</time>
      </trkpt>
      <trkpt lat="43.62973" lon="1.12473">
        <ele>158.4</ele>
        <time>2024-07-11T07:18:02Z</time>
      </trkpt>
      <trkpt lat="43.62977" lon="1.12483">
        <ele>158.4</ele>
        <time>2024-07-11T07:18:03Z</time>
      </trkpt>
      <trkpt lat="43.62981" lon="1.1249">
        <ele>158.4</ele>
        <time>2024-07-11T07:18:04Z</time>
      </trkpt>
      <trkpt lat="43.62984" lon="1.12498">
        <ele>158.4</ele>
        <time>2024-07-11T07:18:05Z</time>
      </trkpt>
      <trkpt lat="43.62987" lon="1.12504">
        <ele>158.4</ele>
        <time>2024-07-11T07:18:06Z</time>
      </trkpt>
      <trkpt lat="43.62991" lon="1.12514">
        <ele>158.4</ele>
        <time>2024-07-11T07:18:07Z</time>
      </trkpt>
      <trkpt lat="43.62994" lon="1.12522">
        <ele>158.4</ele>
        <time>2024-07-11T07:18:08Z</time>
      </trkpt>
      <trkpt lat="43.62996" lon="1.1253">
        <ele>158.2</ele>
        <time>2024-07-11T07:18:09Z</time>
      </trkpt>
      <trkpt lat="43.62997" lon="1.12537">
        <ele>158</ele>
        <time>2024-07-11T07:18:10Z</time>
      </trkpt>
      <trkpt lat="43.62999" lon="1.12545">
        <ele>158</ele>
        <time>2024-07-11T07:18:11Z</time>
      </trkpt>
      <trkpt lat="43.63002" lon="1.12556">
        <ele>158</ele>
        <time>2024-07-11T07:18:12Z</time>
      </trkpt>
      <trkpt lat="43.63005" lon="1.12565">
        <ele>157.8</ele>
        <time>2024-07-11T07:18:13Z</time>
      </trkpt>
      <trkpt lat="43.63007" lon="1.12574">
        <ele>157.8</ele>
        <time>2024-07-11T07:18:14Z</time>
      </trkpt>
      <trkpt lat="43.6301" lon="1.12583">
        <ele>157.8</ele>
        <time>2024-07-11T07:18:15Z</time>
      </trkpt>
      <trkpt lat="43.63013" lon="1.12591">
        <ele>157.8</ele>
        <time>2024-07-11T07:18:16Z</time>
      </trkpt>
      <trkpt lat="43.63017" lon="1.12602">
        <ele>157.8</ele>
        <time>2024-07-11T07:18:17Z</time>
      </trkpt>
      <trkpt lat="43.63021" lon="1.12611">
        <ele>157.8</ele>
        <time>2024-07-11T07:18:18Z</time>
      </trkpt>
      <trkpt lat="43.63025" lon="1.12619">
        <ele>157.6</ele>
        <time>2024-07-11T07:18:19Z</time>
      </trkpt>
      <trkpt lat="43.63028" lon="1.12626">
        <ele>157.6</ele>
        <time>2024-07-11T07:18:20Z</time>
      </trkpt>
      <trkpt lat="43.63033" lon="1.12636">
        <ele>157.4</ele>
        <time>2024-07-11T07:18:21Z</time>
      </trkpt>
      <trkpt lat="43.63037" lon="1.12644">
        <ele>157.4</ele>
        <time>2024-07-11T07:18:22Z</time>
      </trkpt>
      <trkpt lat="43.63042" lon="1.12652">
        <ele>157.4</ele>
        <time>2024-07-11T07:18:23Z</time>
      </trkpt>
      <trkpt lat="43.63046" lon="1.1266">
        <ele>157.4</ele>
        <time>2024-07-11T07:18:24Z</time>
      </trkpt>
      <trkpt lat="43.6305" lon="1.12667">
        <ele>157.2</ele>
        <time>2024-07-11T07:18:25Z</time>
      </trkpt>
      <trkpt lat="43.63055" lon="1.12677">
        <ele>157.2</ele>
        <time>2024-07-11T07:18:26Z</time>
      </trkpt>
      <trkpt lat="43.63059" lon="1.12686">
        <ele>157.2</ele>
        <time>2024-07-11T07:18:27Z</time>
      </trkpt>
      <trkpt lat="43.63064" lon="1.12695">
        <ele>157</ele>
        <time>2024-07-11T07:18:28Z</time>
      </trkpt>
      <trkpt lat="43.63068" lon="1.12701">
        <ele>157</ele>
        <time>2024-07-11T07:18:29Z</time>
      </trkpt>
      <trkpt lat="43.63072" lon="1.1271">
        <ele>157</ele>
        <time>2024-07-11T07:18:30Z</time>
      </trkpt>
      <trkpt lat="43.63076" lon="1.12718">
        <ele>157</ele>
        <time>2024-07-11T07:18:31Z</time>
      </trkpt>
      <trkpt lat="43.63081" lon="1.12726">
        <ele>157</ele>
        <time>2024-07-11T07:18:32Z</time>
      </trkpt>
      <trkpt lat="43.63085" lon="1.12735">
        <ele>156.8</ele>
        <time>2024-07-11T07:18:33Z</time>
      </trkpt>
      <trkpt lat="43.63089" lon="1.12745">
        <ele>156.8</ele>
        <time>2024-07-11T07:18:34Z</time>
      </trkpt>
      <trkpt lat="43.63094" lon="1.12753">
        <ele>156.8</ele>
        <time>2024-07-11T07:18:35Z</time>
      </trkpt>
      <trkpt lat="43.631" lon="1.12763">
        <ele>156.8</ele>
        <time>2024-07-11T07:18:36Z</time>
      </trkpt>
      <trkpt lat="43.63105" lon="1.12772">
        <ele>156.8</ele>
        <time>2024-07-11T07:18:37Z</time>
      </trkpt>
      <trkpt lat="43.6311" lon="1.12781">
        <ele>156.6</ele>
        <time>2024-07-11T07:18:38Z</time>
      </trkpt>
      <trkpt lat="43.63114" lon="1.12787">
        <ele>156.6</ele>
        <time>2024-07-11T07:18:39Z</time>
      </trkpt>
      <trkpt lat="43.63121" lon="1.12796">
        <ele>156.6</ele>
        <time>2024-07-11T07:18:40Z</time>
      </trkpt>
      <trkpt lat="43.63127" lon="1.12803">
        <ele>156.6</ele>
        <time>2024-07-11T07:18:41Z</time>
      </trkpt>
      <trkpt lat="43.63132" lon="1.1281">
        <ele>156.4</ele>
        <time>2024-07-11T07:18:42Z</time>
      </trkpt>
      <trkpt lat="43.63137" lon="1.12817">
        <ele>156.2</ele>
        <time>2024-07-11T07:18:43Z</time>
      </trkpt>
      <trkpt lat="43.63142" lon="1.12822">
        <ele>156.2</ele>
        <time>2024-07-11T07:18:44Z</time>
      </trkpt>
      <trkpt lat="43.63148" lon="1.1283">
        <ele>156.2</ele>
        <time>2024-07-11T07:18:45Z</time>
      </trkpt>
      <trkpt lat="43.63154" lon="1.12836">
        <ele>156.2</ele>
        <time>2024-07-11T07:18:46Z</time>
      </trkpt>
      <trkpt lat="43.6316" lon="1.12842">
        <ele>156.2</ele>
        <time>2024-07-11T07:18:47Z</time>
      </trkpt>
      <trkpt lat="43.63164" lon="1.12847">
        <ele>156.2</ele>
        <time>2024-07-11T07:18:48Z</time>
      </trkpt>
      <trkpt lat="43.6317" lon="1.12852">
        <ele>156.2</ele>
        <time>2024-07-11T07:18:49Z</time>
      </trkpt>
      <trkpt lat="43.63177" lon="1.12858">
        <ele>156.2</ele>
        <time>2024-07-11T07:18:50Z</time>
      </trkpt>
      <trkpt lat="43.63183" lon="1.12863">
        <ele>156.2</ele>
        <time>2024-07-11T07:18:51Z</time>
      </trkpt>
      <trkpt lat="43.63188" lon="1.12866">
        <ele>156.2</ele>
        <time>2024-07-11T07:18:52Z</time>
      </trkpt>
      <trkpt lat="43.63194" lon="1.12871">
        <ele>156.2</ele>
        <time>2024-07-11T07:18:53Z</time>
      </trkpt>
      <trkpt lat="43.632" lon="1.12876">
        <ele>156.4</ele>
        <time>2024-07-11T07:18:54Z</time>
      </trkpt>
      <trkpt lat="43.63206" lon="1.1288">
        <ele>156.4</ele>
        <time>2024-07-11T07:18:55Z</time>
      </trkpt>
      <trkpt lat="43.63213" lon="1.12884">
        <ele>156.6</ele>
        <time>2024-07-11T07:18:56Z</time>
      </trkpt>
      <trkpt lat="43.63217" lon="1.12886">
        <ele>156.6</ele>
        <time>2024-07-11T07:18:57Z</time>
      </trkpt>
      <trkpt lat="43.63223" lon="1.12889">
        <ele>156.6</ele>
        <time>2024-07-11T07:18:58Z</time>
      </trkpt>
      <trkpt lat="43.63231" lon="1.12893">
        <ele>156.8</ele>
        <time>2024-07-11T07:18:59Z</time>
      </trkpt>
      <trkpt lat="43.63237" lon="1.12896">
        <ele>156.8</ele>
        <time>2024-07-11T07:19:00Z</time>
      </trkpt>
      <trkpt lat="43.63243" lon="1.129">
        <ele>156.8</ele>
        <time>2024-07-11T07:19:01Z</time>
      </trkpt>
      <trkpt lat="43.63249" lon="1.12904">
        <ele>156.8</ele>
        <time>2024-07-11T07:19:02Z</time>
      </trkpt>
      <trkpt lat="43.63254" lon="1.12907">
        <ele>156.8</ele>
        <time>2024-07-11T07:19:03Z</time>
      </trkpt>
      <trkpt lat="43.63261" lon="1.12911">
        <ele>157</ele>
        <time>2024-07-11T07:19:04Z</time>
      </trkpt>
      <trkpt lat="43.63266" lon="1.12915">
        <ele>157</ele>
        <time>2024-07-11T07:19:05Z</time>
      </trkpt>
      <trkpt lat="43.6327" lon="1.12918">
        <ele>157</ele>
        <time>2024-07-11T07:19:06Z</time>
      </trkpt>
      <trkpt lat="43.63272" lon="1.1292">
        <ele>157</ele>
        <time>2024-07-11T07:19:07Z</time>
      </trkpt>
      <trkpt lat="43.63276" lon="1.12922">
        <ele>157</ele>
        <time>2024-07-11T07:19:08Z</time>
      </trkpt>
      <trkpt lat="43.63279" lon="1.12921">
        <ele>157</ele>
        <time>2024-07-11T07:19:09Z</time>
      </trkpt>
      <trkpt lat="43.63283" lon="1.12918">
        <ele>157</ele>
        <time>2024-07-11T07:19:10Z</time>
      </trkpt>
      <trkpt lat="43.63285" lon="1.12914">
        <ele>157</ele>
        <time>2024-07-11T07:19:11Z</time>
      </trkpt>
      <trkpt lat="43.63288" lon="1.12909">
        <ele>157</ele>
        <time>2024-07-11T07:19:12Z</time>
      </trkpt>
      <trkpt lat="43.63292" lon="1.12902">
        <ele>156.8</ele>
        <time>2024-07-11T07:19:13Z</time>
      </trkpt>
      <trkpt lat="43.63296" lon="1.12895">
        <ele>156.8</ele>
        <time>2024-07-11T07:19:14Z</time>
      </trkpt>
      <trkpt lat="43.63299" lon="1.12889">
        <ele>156.8</ele>
        <time>2024-07-11T07:19:15Z</time>
      </trkpt>
      <trkpt lat="43.63303" lon="1.12883">
        <ele>156.6</ele>
        <time>2024-07-11T07:19:16Z</time>
      </trkpt>
      <trkpt lat="43.63307" lon="1.12876">
        <ele>156.4</ele>
        <time>2024-07-11T07:19:17Z</time>
      </trkpt>
      <trkpt lat="43.63312" lon="1.12867">
        <ele>156.4</ele>
        <time>2024-07-11T07:19:18Z</time>
      </trkpt>
      <trkpt lat="43.63317" lon="1.12859">
        <ele>156.2</ele>
        <time>2024-07-11T07:19:19Z</time>
      </trkpt>
      <trkpt lat="43.63321" lon="1.12851">
        <ele>156.2</ele>
        <time>2024-07-11T07:19:20Z</time>
      </trkpt>
      <trkpt lat="43.63325" lon="1.12845">
        <ele>155.6</ele>
        <time>2024-07-11T07:19:21Z</time>
      </trkpt>
      <trkpt lat="43.6333" lon="1.12837">
        <ele>155.4</ele>
        <time>2024-07-11T07:19:22Z</time>
      </trkpt>
      <trkpt lat="43.63336" lon="1.12826">
        <ele>154.8</ele>
        <time>2024-07-11T07:19:23Z</time>
      </trkpt>
      <trkpt lat="43.63341" lon="1.12817">
        <ele>154.6</ele>
        <time>2024-07-11T07:19:24Z</time>
      </trkpt>
      <trkpt lat="43.63346" lon="1.1281">
        <ele>154.2</ele>
        <time>2024-07-11T07:19:25Z</time>
      </trkpt>
      <trkpt lat="43.63351" lon="1.128">
        <ele>154</ele>
        <time>2024-07-11T07:19:26Z</time>
      </trkpt>
      <trkpt lat="43.63357" lon="1.12789">
        <ele>154</ele>
        <time>2024-07-11T07:19:27Z</time>
      </trkpt>
      <trkpt lat="43.63362" lon="1.12779">
        <ele>153.6</ele>
        <time>2024-07-11T07:19:28Z</time>
      </trkpt>
      <trkpt lat="43.63367" lon="1.12769">
        <ele>153.6</ele>
        <time>2024-07-11T07:19:29Z</time>
      </trkpt>
      <trkpt lat="43.63372" lon="1.12759">
        <ele>153.4</ele>
        <time>2024-07-11T07:19:30Z</time>
      </trkpt>
      <trkpt lat="43.63377" lon="1.12748">
        <ele>153.4</ele>
        <time>2024-07-11T07:19:31Z</time>
      </trkpt>
      <trkpt lat="43.63381" lon="1.12737">
        <ele>153</ele>
        <time>2024-07-11T07:19:32Z</time>
      </trkpt>
      <trkpt lat="43.63385" lon="1.12725">
        <ele>152.4</ele>
        <time>2024-07-11T07:19:33Z</time>
      </trkpt>
      <trkpt lat="43.63389" lon="1.12714">
        <ele>152.2</ele>
        <time>2024-07-11T07:19:34Z</time>
      </trkpt>
      <trkpt lat="43.63392" lon="1.12705">
        <ele>152</ele>
        <time>2024-07-11T07:19:35Z</time>
      </trkpt>
      <trkpt lat="43.63395" lon="1.12693">
        <ele>151.8</ele>
        <time>2024-07-11T07:19:36Z</time>
      </trkpt>
      <trkpt lat="43.63399" lon="1.1268">
        <ele>151.6</ele>
        <time>2024-07-11T07:19:37Z</time>
      </trkpt>
      <trkpt lat="43.63403" lon="1.12669">
        <ele>151.4</ele>
        <time>2024-07-11T07:19:38Z</time>
      </trkpt>
      <trkpt lat="43.63406" lon="1.1266">
        <ele>151.2</ele>
        <time>2024-07-11T07:19:39Z</time>
      </trkpt>
      <trkpt lat="43.6341" lon="1.12647">
        <ele>151</ele>
        <time>2024-07-11T07:19:40Z</time>
      </trkpt>
      <trkpt lat="43.63414" lon="1.12636">
        <ele>150.8</ele>
        <time>2024-07-11T07:19:41Z</time>
      </trkpt>
      <trkpt lat="43.63418" lon="1.12625">
        <ele>150.6</ele>
        <time>2024-07-11T07:19:42Z</time>
      </trkpt>
      <trkpt lat="43.63421" lon="1.12614">
        <ele>150.4</ele>
        <time>2024-07-11T07:19:43Z</time>
      </trkpt>
      <trkpt lat="43.63424" lon="1.12604">
        <ele>150.2</ele>
        <time>2024-07-11T07:19:44Z</time>
      </trkpt>
      <trkpt lat="43.63427" lon="1.12593">
        <ele>150.2</ele>
        <time>2024-07-11T07:19:45Z</time>
      </trkpt>
      <trkpt lat="43.63432" lon="1.12581">
        <ele>150.2</ele>
        <time>2024-07-11T07:19:46Z</time>
      </trkpt>
      <trkpt lat="43.63437" lon="1.12571">
        <ele>150</ele>
        <time>2024-07-11T07:19:47Z</time>
      </trkpt>
      <trkpt lat="43.63443" lon="1.12562">
        <ele>150</ele>
        <time>2024-07-11T07:19:48Z</time>
      </trkpt>
      <trkpt lat="43.63448" lon="1.12556">
        <ele>150</ele>
        <time>2024-07-11T07:19:49Z</time>
      </trkpt>
      <trkpt lat="43.63455" lon="1.12548">
        <ele>150</ele>
        <time>2024-07-11T07:19:50Z</time>
      </trkpt>
      <trkpt lat="43.63464" lon="1.1254">
        <ele>149.8</ele>
        <time>2024-07-11T07:19:51Z</time>
      </trkpt>
      <trkpt lat="43.63472" lon="1.12535">
        <ele>149.8</ele>
        <time>2024-07-11T07:19:52Z</time>
      </trkpt>
      <trkpt lat="43.63479" lon="1.12531">
        <ele>149.6</ele>
        <time>2024-07-11T07:19:53Z</time>
      </trkpt>
      <trkpt lat="43.63487" lon="1.12526">
        <ele>149.2</ele>
        <time>2024-07-11T07:19:54Z</time>
      </trkpt>
      <trkpt lat="43.63497" lon="1.12522">
        <ele>149</ele>
        <time>2024-07-11T07:19:55Z</time>
      </trkpt>
      <trkpt lat="43.63505" lon="1.12519">
        <ele>148.6</ele>
        <time>2024-07-11T07:19:56Z</time>
      </trkpt>
      <trkpt lat="43.63513" lon="1.12517">
        <ele>148.4</ele>
        <time>2024-07-11T07:19:57Z</time>
      </trkpt>
      <trkpt lat="43.6352" lon="1.12517">
        <ele>148</ele>
        <time>2024-07-11T07:19:58Z</time>
      </trkpt>
      <trkpt lat="43.6353" lon="1.1252">
        <ele>147.6</ele>
        <time>2024-07-11T07:19:59Z</time>
      </trkpt>
      <trkpt lat="43.63538" lon="1.12525">
        <ele>147.6</ele>
        <time>2024-07-11T07:20:00Z</time>
      </trkpt>
      <trkpt lat="43.63546" lon="1.12531">
        <ele>147.4</ele>
        <time>2024-07-11T07:20:01Z</time>
      </trkpt>
      <trkpt lat="43.63553" lon="1.12537">
        <ele>147.4</ele>
        <time>2024-07-11T07:20:02Z</time>
      </trkpt>
      <trkpt lat="43.63561" lon="1.12544">
        <ele>147.4</ele>
        <time>2024-07-11T07:20:03Z</time>
      </trkpt>
      <trkpt lat="43.63566" lon="1.12549">
        <ele>147.8</ele>
        <time>2024-07-11T07:20:04Z</time>
      </trkpt>
      <trkpt lat="43.63575" lon="1.12558">
        <ele>147.8</ele>
        <time>2024-07-11T07:20:05Z</time>
      </trkpt>
      <trkpt lat="43.63582" lon="1.12565">
        <ele>147.8</ele>
        <time>2024-07-11T07:20:06Z</time>
      </trkpt>
      <trkpt lat="43.63587" lon="1.1257">
        <ele>148</ele>
        <time>2024-07-11T07:20:07Z</time>
      </trkpt>
      <trkpt lat="43.63594" lon="1.12576">
        <ele>148</ele>
        <time>2024-07-11T07:20:08Z</time>
      </trkpt>
      <trkpt lat="43.63604" lon="1.12582">
        <ele>148</ele>
        <time>2024-07-11T07:20:09Z</time>
      </trkpt>
      <trkpt lat="43.63611" lon="1.12584">
        <ele>148</ele>
        <time>2024-07-11T07:20:10Z</time>
      </trkpt>
      <trkpt lat="43.63619" lon="1.12583">
        <ele>148</ele>
        <time>2024-07-11T07:20:11Z</time>
      </trkpt>
      <trkpt lat="43.63625" lon="1.12581">
        <ele>147.8</ele>
        <time>2024-07-11T07:20:12Z</time>
      </trkpt>
      <trkpt lat="43.63632" lon="1.12578">
        <ele>148</ele>
        <time>2024-07-11T07:20:13Z</time>
      </trkpt>
      <trkpt lat="43.63642" lon="1.12574">
        <ele>148</ele>
        <time>2024-07-11T07:20:14Z</time>
      </trkpt>
      <trkpt lat="43.63649" lon="1.1257">
        <ele>148.2</ele>
        <time>2024-07-11T07:20:15Z</time>
      </trkpt>
      <trkpt lat="43.63656" lon="1.12565">
        <ele>148.2</ele>
        <time>2024-07-11T07:20:16Z</time>
      </trkpt>
      <trkpt lat="43.63662" lon="1.12561">
        <ele>148.2</ele>
        <time>2024-07-11T07:20:17Z</time>
      </trkpt>
      <trkpt lat="43.63669" lon="1.12555">
        <ele>148.2</ele>
        <time>2024-07-11T07:20:18Z</time>
      </trkpt>
      <trkpt lat="43.63677" lon="1.12547">
        <ele>148.2</ele>
        <time>2024-07-11T07:20:19Z</time>
      </trkpt>
      <trkpt lat="43.63683" lon="1.12541">
        <ele>148.2</ele>
        <time>2024-07-11T07:20:20Z</time>
      </trkpt>
      <trkpt lat="43.6369" lon="1.12534">
        <ele>148.2</ele>
        <time>2024-07-11T07:20:21Z</time>
      </trkpt>
      <trkpt lat="43.63695" lon="1.12529">
        <ele>148.2</ele>
        <time>2024-07-11T07:20:22Z</time>
      </trkpt>
      <trkpt lat="43.63702" lon="1.12522">
        <ele>148.2</ele>
        <time>2024-07-11T07:20:23Z</time>
      </trkpt>
      <trkpt lat="43.63709" lon="1.12513">
        <ele>148.2</ele>
        <time>2024-07-11T07:20:24Z</time>
      </trkpt>
      <trkpt lat="43.63716" lon="1.12506">
        <ele>148.2</ele>
        <time>2024-07-11T07:20:25Z</time>
      </trkpt>
      <trkpt lat="43.63722" lon="1.12501">
        <ele>148.2</ele>
        <time>2024-07-11T07:20:26Z</time>
      </trkpt>
      <trkpt lat="43.63728" lon="1.12494">
        <ele>148.2</ele>
        <time>2024-07-11T07:20:27Z</time>
      </trkpt>
      <trkpt lat="43.63736" lon="1.12485">
        <ele>148.2</ele>
        <time>2024-07-11T07:20:28Z</time>
      </trkpt>
      <trkpt lat="43.63743" lon="1.12478">
        <ele>148.2</ele>
        <time>2024-07-11T07:20:29Z</time>
      </trkpt>
      <trkpt lat="43.63749" lon="1.12471">
        <ele>148.2</ele>
        <time>2024-07-11T07:20:30Z</time>
      </trkpt>
      <trkpt lat="43.63756" lon="1.12464">
        <ele>148.2</ele>
        <time>2024-07-11T07:20:31Z</time>
      </trkpt>
      <trkpt lat="43.63761" lon="1.12459">
        <ele>148</ele>
        <time>2024-07-11T07:20:32Z</time>
      </trkpt>
      <trkpt lat="43.63769" lon="1.1245">
        <ele>148.2</ele>
        <time>2024-07-11T07:20:33Z</time>
      </trkpt>
      <trkpt lat="43.63775" lon="1.12443">
        <ele>148.2</ele>
        <time>2024-07-11T07:20:34Z</time>
      </trkpt>
      <trkpt lat="43.63781" lon="1.12438">
        <ele>148.2</ele>
        <time>2024-07-11T07:20:35Z</time>
      </trkpt>
      <trkpt lat="43.63787" lon="1.12431">
        <ele>148.2</ele>
        <time>2024-07-11T07:20:36Z</time>
      </trkpt>
      <trkpt lat="43.63794" lon="1.12424">
        <ele>148.2</ele>
        <time>2024-07-11T07:20:37Z</time>
      </trkpt>
      <trkpt lat="43.63802" lon="1.12416">
        <ele>148.2</ele>
        <time>2024-07-11T07:20:38Z</time>
      </trkpt>
      <trkpt lat="43.63809" lon="1.12409">
        <ele>148.2</ele>
        <time>2024-07-11T07:20:39Z</time>
      </trkpt>
      <trkpt lat="43.63815" lon="1.12403">
        <ele>148</ele>
        <time>2024-07-11T07:20:40Z</time>
      </trkpt>
      <trkpt lat="43.63822" lon="1.12396">
        <ele>148</ele>
        <time>2024-07-11T07:20:41Z</time>
      </trkpt>
      <trkpt lat="43.63829" lon="1.1239">
        <ele>148</ele>
        <time>2024-07-11T07:20:42Z</time>
      </trkpt>
      <trkpt lat="43.63835" lon="1.12383">
        <ele>148</ele>
        <time>2024-07-11T07:20:43Z</time>
      </trkpt>
      <trkpt lat="43.63842" lon="1.12376">
        <ele>148</ele>
        <time>2024-07-11T07:20:44Z</time>
      </trkpt>
      <trkpt lat="43.63848" lon="1.12369">
        <ele>148</ele>
        <time>2024-07-11T07:20:45Z</time>
      </trkpt>
      <trkpt lat="43.63855" lon="1.12362">
        <ele>148.2</ele>
        <time>2024-07-11T07:20:46Z</time>
      </trkpt>
      <trkpt lat="43.63862" lon="1.12355">
        <ele>148.2</ele>
        <time>2024-07-11T07:20:47Z</time>
      </trkpt>
      <trkpt lat="43.63868" lon="1.12348">
        <ele>148.2</ele>
        <time>2024-07-11T07:20:48Z</time>
      </trkpt>
      <trkpt lat="43.63874" lon="1.1234">
        <ele>148.2</ele>
        <time>2024-07-11T07:20:49Z</time>
      </trkpt>
      <trkpt lat="43.6388" lon="1.12332">
        <ele>148.2</ele>
        <time>2024-07-11T07:20:50Z</time>
      </trkpt>
      <trkpt lat="43.63885" lon="1.12323">
        <ele>148.4</ele>
        <time>2024-07-11T07:20:51Z</time>
      </trkpt>
      <trkpt lat="43.6389" lon="1.12315">
        <ele>148.4</ele>
        <time>2024-07-11T07:20:52Z</time>
      </trkpt>
      <trkpt lat="43.63895" lon="1.12306">
        <ele>148.6</ele>
        <time>2024-07-11T07:20:53Z</time>
      </trkpt>
      <trkpt lat="43.63899" lon="1.12296">
        <ele>148.6</ele>
        <time>2024-07-11T07:20:54Z</time>
      </trkpt>
      <trkpt lat="43.63904" lon="1.12287">
        <ele>148.6</ele>
        <time>2024-07-11T07:20:55Z</time>
      </trkpt>
      <trkpt lat="43.63908" lon="1.12278">
        <ele>148.8</ele>
        <time>2024-07-11T07:20:56Z</time>
      </trkpt>
      <trkpt lat="43.63913" lon="1.1227">
        <ele>148.8</ele>
        <time>2024-07-11T07:20:57Z</time>
      </trkpt>
      <trkpt lat="43.63918" lon="1.12262">
        <ele>148.8</ele>
        <time>2024-07-11T07:20:58Z</time>
      </trkpt>
      <trkpt lat="43.63924" lon="1.12254">
        <ele>148.8</ele>
        <time>2024-07-11T07:20:59Z</time>
      </trkpt>
      <trkpt lat="43.63929" lon="1.12247">
        <ele>149</ele>
        <time>2024-07-11T07:21:00Z</time>
      </trkpt>
      <trkpt lat="43.63935" lon="1.12241">
        <ele>149</ele>
        <time>2024-07-11T07:21:01Z</time>
      </trkpt>
      <trkpt lat="43.63941" lon="1.12236">
        <ele>149</ele>
        <time>2024-07-11T07:21:02Z</time>
      </trkpt>
      <trkpt lat="43.63947" lon="1.12231">
        <ele>149</ele>
        <time>2024-07-11T07:21:03Z</time>
      </trkpt>
      <trkpt lat="43.63953" lon="1.12226">
        <ele>149.2</ele>
        <time>2024-07-11T07:21:04Z</time>
      </trkpt>
      <trkpt lat="43.6396" lon="1.12222">
        <ele>149.4</ele>
        <time>2024-07-11T07:21:05Z</time>
      </trkpt>
      <trkpt lat="43.63966" lon="1.12219">
        <ele>149.4</ele>
        <time>2024-07-11T07:21:06Z</time>
      </trkpt>
      <trkpt lat="43.63973" lon="1.12217">
        <ele>149.6</ele>
        <time>2024-07-11T07:21:07Z</time>
      </trkpt>
      <trkpt lat="43.63981" lon="1.12215">
        <ele>149.8</ele>
        <time>2024-07-11T07:21:08Z</time>
      </trkpt>
      <trkpt lat="43.63988" lon="1.12215">
        <ele>149.8</ele>
        <time>2024-07-11T07:21:09Z</time>
      </trkpt>
      <trkpt lat="43.63996" lon="1.12215">
        <ele>150.2</ele>
        <time>2024-07-11T07:21:10Z</time>
      </trkpt>
      <trkpt lat="43.64003" lon="1.12215">
        <ele>150.4</ele>
        <time>2024-07-11T07:21:11Z</time>
      </trkpt>
      <trkpt lat="43.64011" lon="1.12216">
        <ele>150.8</ele>
        <time>2024-07-11T07:21:12Z</time>
      </trkpt>
      <trkpt lat="43.64018" lon="1.12217">
        <ele>151</ele>
        <time>2024-07-11T07:21:13Z</time>
      </trkpt>
      <trkpt lat="43.64018" lon="1.12217">
        <ele>151</ele>
        <time>2024-07-11T07:21:14Z</time>
      </trkpt>
      <trkpt lat="43.64035" lon="1.1222">
        <ele>151</ele>
        <time>2024-07-11T07:21:15Z</time>
      </trkpt>
      <trkpt lat="43.64043" lon="1.12221">
        <ele>151</ele>
        <time>2024-07-11T07:21:16Z</time>
      </trkpt>
      <trkpt lat="43.64052" lon="1.12223">
        <ele>151</ele>
        <time>2024-07-11T07:21:17Z</time>
      </trkpt>
      <trkpt lat="43.6406" lon="1.12223">
        <ele>151</ele>
        <time>2024-07-11T07:21:18Z</time>
      </trkpt>
      <trkpt lat="43.64068" lon="1.12223">
        <ele>150.6</ele>
        <time>2024-07-11T07:21:19Z</time>
      </trkpt>
      <trkpt lat="43.64077" lon="1.12222">
        <ele>150.2</ele>
        <time>2024-07-11T07:21:20Z</time>
      </trkpt>
      <trkpt lat="43.64085" lon="1.12219">
        <ele>150.2</ele>
        <time>2024-07-11T07:21:21Z</time>
      </trkpt>
      <trkpt lat="43.64093" lon="1.12216">
        <ele>150</ele>
        <time>2024-07-11T07:21:22Z</time>
      </trkpt>
      <trkpt lat="43.641" lon="1.12212">
        <ele>150</ele>
        <time>2024-07-11T07:21:23Z</time>
      </trkpt>
      <trkpt lat="43.64108" lon="1.12208">
        <ele>150</ele>
        <time>2024-07-11T07:21:24Z</time>
      </trkpt>
      <trkpt lat="43.64115" lon="1.12203">
        <ele>149.8</ele>
        <time>2024-07-11T07:21:25Z</time>
      </trkpt>
      <trkpt lat="43.64122" lon="1.12199">
        <ele>149.8</ele>
        <time>2024-07-11T07:21:26Z</time>
      </trkpt>
      <trkpt lat="43.6413" lon="1.12195">
        <ele>149.8</ele>
        <time>2024-07-11T07:21:27Z</time>
      </trkpt>
      <trkpt lat="43.64137" lon="1.1219">
        <ele>149.8</ele>
        <time>2024-07-11T07:21:28Z</time>
      </trkpt>
      <trkpt lat="43.64146" lon="1.12184">
        <ele>149.8</ele>
        <time>2024-07-11T07:21:29Z</time>
      </trkpt>
      <trkpt lat="43.64152" lon="1.12181">
        <ele>149.8</ele>
        <time>2024-07-11T07:21:30Z</time>
      </trkpt>
      <trkpt lat="43.64161" lon="1.12175">
        <ele>149.8</ele>
        <time>2024-07-11T07:21:31Z</time>
      </trkpt>
      <trkpt lat="43.64169" lon="1.1217">
        <ele>149.6</ele>
        <time>2024-07-11T07:21:32Z</time>
      </trkpt>
      <trkpt lat="43.64175" lon="1.12167">
        <ele>149.6</ele>
        <time>2024-07-11T07:21:33Z</time>
      </trkpt>
      <trkpt lat="43.64182" lon="1.12162">
        <ele>149.6</ele>
        <time>2024-07-11T07:21:34Z</time>
      </trkpt>
      <trkpt lat="43.64191" lon="1.12157">
        <ele>149.4</ele>
        <time>2024-07-11T07:21:35Z</time>
      </trkpt>
      <trkpt lat="43.64198" lon="1.12152">
        <ele>149.2</ele>
        <time>2024-07-11T07:21:36Z</time>
      </trkpt>
      <trkpt lat="43.64205" lon="1.12147">
        <ele>149.2</ele>
        <time>2024-07-11T07:21:37Z</time>
      </trkpt>
      <trkpt lat="43.6421" lon="1.12142">
        <ele>149.2</ele>
        <time>2024-07-11T07:21:38Z</time>
      </trkpt>
      <trkpt lat="43.64216" lon="1.12136">
        <ele>149.2</ele>
        <time>2024-07-11T07:21:39Z</time>
      </trkpt>
      <trkpt lat="43.64222" lon="1.12126">
        <ele>149.4</ele>
        <time>2024-07-11T07:21:40Z</time>
      </trkpt>
      <trkpt lat="43.64224" lon="1.12118">
        <ele>149.6</ele>
        <time>2024-07-11T07:21:41Z</time>
      </trkpt>
      <trkpt lat="43.64227" lon="1.12108">
        <ele>149.6</ele>
        <time>2024-07-11T07:21:42Z</time>
      </trkpt>
      <trkpt lat="43.64227" lon="1.12097">
        <ele>149.8</ele>
        <time>2024-07-11T07:21:43Z</time>
      </trkpt>
      <trkpt lat="43.64227" lon="1.12086">
        <ele>149.8</ele>
        <time>2024-07-11T07:21:44Z</time>
      </trkpt>
      <trkpt lat="43.64226" lon="1.12076">
        <ele>150</ele>
        <time>2024-07-11T07:21:45Z</time>
      </trkpt>
      <trkpt lat="43.64224" lon="1.12064">
        <ele>150.4</ele>
        <time>2024-07-11T07:21:46Z</time>
      </trkpt>
      <trkpt lat="43.64222" lon="1.12054">
        <ele>150.6</ele>
        <time>2024-07-11T07:21:47Z</time>
      </trkpt>
      <trkpt lat="43.6422" lon="1.12047">
        <ele>150.8</ele>
        <time>2024-07-11T07:21:48Z</time>
      </trkpt>
      <trkpt lat="43.64218" lon="1.12037">
        <ele>151</ele>
        <time>2024-07-11T07:21:49Z</time>
      </trkpt>
      <trkpt lat="43.64216" lon="1.12026">
        <ele>151.2</ele>
        <time>2024-07-11T07:21:50Z</time>
      </trkpt>
      <trkpt lat="43.64213" lon="1.12016">
        <ele>151.2</ele>
        <time>2024-07-11T07:21:51Z</time>
      </trkpt>
      <trkpt lat="43.64211" lon="1.12007">
        <ele>151.4</ele>
        <time>2024-07-11T07:21:52Z</time>
      </trkpt>
      <trkpt lat="43.6421" lon="1.11999">
        <ele>151.8</ele>
        <time>2024-07-11T07:21:53Z</time>
      </trkpt>
      <trkpt lat="43.64208" lon="1.11989">
        <ele>152</ele>
        <time>2024-07-11T07:21:54Z</time>
      </trkpt>
      <trkpt lat="43.64205" lon="1.11977">
        <ele>152.4</ele>
        <time>2024-07-11T07:21:55Z</time>
      </trkpt>
      <trkpt lat="43.64203" lon="1.11967">
        <ele>152.6</ele>
        <time>2024-07-11T07:21:56Z</time>
      </trkpt>
      <trkpt lat="43.64201" lon="1.11959">
        <ele>153.4</ele>
        <time>2024-07-11T07:21:57Z</time>
      </trkpt>
      <trkpt lat="43.64198" lon="1.11949">
        <ele>153.6</ele>
        <time>2024-07-11T07:21:58Z</time>
      </trkpt>
      <trkpt lat="43.64196" lon="1.11939">
        <ele>153.8</ele>
        <time>2024-07-11T07:21:59Z</time>
      </trkpt>
      <trkpt lat="43.64193" lon="1.11927">
        <ele>154</ele>
        <time>2024-07-11T07:22:00Z</time>
      </trkpt>
      <trkpt lat="43.64191" lon="1.11917">
        <ele>154.2</ele>
        <time>2024-07-11T07:22:01Z</time>
      </trkpt>
      <trkpt lat="43.64189" lon="1.11909">
        <ele>154.2</ele>
        <time>2024-07-11T07:22:02Z</time>
      </trkpt>
      <trkpt lat="43.64187" lon="1.119">
        <ele>154.4</ele>
        <time>2024-07-11T07:22:03Z</time>
      </trkpt>
      <trkpt lat="43.64184" lon="1.11888">
        <ele>154.4</ele>
        <time>2024-07-11T07:22:04Z</time>
      </trkpt>
      <trkpt lat="43.64182" lon="1.11878">
        <ele>154.6</ele>
        <time>2024-07-11T07:22:05Z</time>
      </trkpt>
      <trkpt lat="43.6418" lon="1.11868">
        <ele>154.6</ele>
        <time>2024-07-11T07:22:06Z</time>
      </trkpt>
      <trkpt lat="43.64178" lon="1.1186">
        <ele>154.6</ele>
        <time>2024-07-11T07:22:07Z</time>
      </trkpt>
      <trkpt lat="43.64176" lon="1.11851">
        <ele>154.8</ele>
        <time>2024-07-11T07:22:08Z</time>
      </trkpt>
      <trkpt lat="43.64173" lon="1.11839">
        <ele>154.8</ele>
        <time>2024-07-11T07:22:09Z</time>
      </trkpt>
      <trkpt lat="43.64171" lon="1.11829">
        <ele>154.8</ele>
        <time>2024-07-11T07:22:10Z</time>
      </trkpt>
      <trkpt lat="43.64169" lon="1.11821">
        <ele>155</ele>
        <time>2024-07-11T07:22:11Z</time>
      </trkpt>
      <trkpt lat="43.64167" lon="1.11812">
        <ele>155.2</ele>
        <time>2024-07-11T07:22:12Z</time>
      </trkpt>
      <trkpt lat="43.64166" lon="1.11802">
        <ele>155.2</ele>
        <time>2024-07-11T07:22:13Z</time>
      </trkpt>
      <trkpt lat="43.64163" lon="1.1179">
        <ele>155.4</ele>
        <time>2024-07-11T07:22:14Z</time>
      </trkpt>
      <trkpt lat="43.64162" lon="1.1178">
        <ele>155.4</ele>
        <time>2024-07-11T07:22:15Z</time>
      </trkpt>
      <trkpt lat="43.64161" lon="1.11773">
        <ele>155.6</ele>
        <time>2024-07-11T07:22:16Z</time>
      </trkpt>
      <trkpt lat="43.6416" lon="1.11763">
        <ele>155.8</ele>
        <time>2024-07-11T07:22:17Z</time>
      </trkpt>
      <trkpt lat="43.64159" lon="1.11751">
        <ele>155.8</ele>
        <time>2024-07-11T07:22:18Z</time>
      </trkpt>
      <trkpt lat="43.64159" lon="1.1174">
        <ele>156</ele>
        <time>2024-07-11T07:22:19Z</time>
      </trkpt>
      <trkpt lat="43.64158" lon="1.1173">
        <ele>156</ele>
        <time>2024-07-11T07:22:20Z</time>
      </trkpt>
      <trkpt lat="43.64158" lon="1.11721">
        <ele>156</ele>
        <time>2024-07-11T07:22:21Z</time>
      </trkpt>
      <trkpt lat="43.64158" lon="1.11711">
        <ele>156</ele>
        <time>2024-07-11T07:22:22Z</time>
      </trkpt>
      <trkpt lat="43.64158" lon="1.11698">
        <ele>156</ele>
        <time>2024-07-11T07:22:23Z</time>
      </trkpt>
      <trkpt lat="43.64157" lon="1.11687">
        <ele>156</ele>
        <time>2024-07-11T07:22:24Z</time>
      </trkpt>
      <trkpt lat="43.64157" lon="1.11677">
        <ele>156</ele>
        <time>2024-07-11T07:22:25Z</time>
      </trkpt>
      <trkpt lat="43.64156" lon="1.11665">
        <ele>156</ele>
        <time>2024-07-11T07:22:26Z</time>
      </trkpt>
      <trkpt lat="43.64155" lon="1.11654">
        <ele>155.8</ele>
        <time>2024-07-11T07:22:27Z</time>
      </trkpt>
      <trkpt lat="43.64153" lon="1.1164">
        <ele>155.8</ele>
        <time>2024-07-11T07:22:28Z</time>
      </trkpt>
      <trkpt lat="43.64151" lon="1.11628">
        <ele>155.8</ele>
        <time>2024-07-11T07:22:29Z</time>
      </trkpt>
      <trkpt lat="43.64149" lon="1.11619">
        <ele>155.6</ele>
        <time>2024-07-11T07:22:30Z</time>
      </trkpt>
      <trkpt lat="43.64147" lon="1.11607">
        <ele>155.4</ele>
        <time>2024-07-11T07:22:31Z</time>
      </trkpt>
      <trkpt lat="43.64143" lon="1.11593">
        <ele>155.4</ele>
        <time>2024-07-11T07:22:32Z</time>
      </trkpt>
      <trkpt lat="43.64141" lon="1.11584">
        <ele>155.2</ele>
        <time>2024-07-11T07:22:33Z</time>
      </trkpt>
      <trkpt lat="43.64137" lon="1.11572">
        <ele>155.2</ele>
        <time>2024-07-11T07:22:34Z</time>
      </trkpt>
      <trkpt lat="43.64134" lon="1.11561">
        <ele>155</ele>
        <time>2024-07-11T07:22:35Z</time>
      </trkpt>
      <trkpt lat="43.64132" lon="1.11553">
        <ele>154.8</ele>
        <time>2024-07-11T07:22:36Z</time>
      </trkpt>
      <trkpt lat="43.64128" lon="1.11541">
        <ele>154.6</ele>
        <time>2024-07-11T07:22:37Z</time>
      </trkpt>
      <trkpt lat="43.64125" lon="1.1153">
        <ele>154.4</ele>
        <time>2024-07-11T07:22:38Z</time>
      </trkpt>
      <trkpt lat="43.64122" lon="1.11522">
        <ele>154.4</ele>
        <time>2024-07-11T07:22:39Z</time>
      </trkpt>
      <trkpt lat="43.64119" lon="1.11512">
        <ele>154.4</ele>
        <time>2024-07-11T07:22:40Z</time>
      </trkpt>
      <trkpt lat="43.64116" lon="1.11499">
        <ele>154.2</ele>
        <time>2024-07-11T07:22:41Z</time>
      </trkpt>
      <trkpt lat="43.64113" lon="1.11487">
        <ele>154.2</ele>
        <time>2024-07-11T07:22:42Z</time>
      </trkpt>
      <trkpt lat="43.64109" lon="1.11476">
        <ele>154.2</ele>
        <time>2024-07-11T07:22:43Z</time>
      </trkpt>
      <trkpt lat="43.64107" lon="1.11466">
        <ele>154.2</ele>
        <time>2024-07-11T07:22:44Z</time>
      </trkpt>
      <trkpt lat="43.64103" lon="1.11454">
        <ele>154</ele>
        <time>2024-07-11T07:22:45Z</time>
      </trkpt>
      <trkpt lat="43.64099" lon="1.11439">
        <ele>153.8</ele>
        <time>2024-07-11T07:22:46Z</time>
      </trkpt>
      <trkpt lat="43.64095" lon="1.11427">
        <ele>153.6</ele>
        <time>2024-07-11T07:22:47Z</time>
      </trkpt>
      <trkpt lat="43.64092" lon="1.11415">
        <ele>153.6</ele>
        <time>2024-07-11T07:22:48Z</time>
      </trkpt>
      <trkpt lat="43.64089" lon="1.11406">
        <ele>153.2</ele>
        <time>2024-07-11T07:22:49Z</time>
      </trkpt>
      <trkpt lat="43.64086" lon="1.11394">
        <ele>152.8</ele>
        <time>2024-07-11T07:22:50Z</time>
      </trkpt>
      <trkpt lat="43.64082" lon="1.1138">
        <ele>152.6</ele>
        <time>2024-07-11T07:22:51Z</time>
      </trkpt>
      <trkpt lat="43.64078" lon="1.11369">
        <ele>152.2</ele>
        <time>2024-07-11T07:22:52Z</time>
      </trkpt>
      <trkpt lat="43.64075" lon="1.1136">
        <ele>152.2</ele>
        <time>2024-07-11T07:22:53Z</time>
      </trkpt>
      <trkpt lat="43.64072" lon="1.11349">
        <ele>152</ele>
        <time>2024-07-11T07:22:54Z</time>
      </trkpt>
      <trkpt lat="43.64069" lon="1.11338">
        <ele>152</ele>
        <time>2024-07-11T07:22:55Z</time>
      </trkpt>
      <trkpt lat="43.64066" lon="1.11327">
        <ele>152</ele>
        <time>2024-07-11T07:22:56Z</time>
      </trkpt>
      <trkpt lat="43.64063" lon="1.11317">
        <ele>152</ele>
        <time>2024-07-11T07:22:57Z</time>
      </trkpt>
      <trkpt lat="43.6406" lon="1.11307">
        <ele>152</ele>
        <time>2024-07-11T07:22:58Z</time>
      </trkpt>
      <trkpt lat="43.64057" lon="1.11297">
        <ele>152</ele>
        <time>2024-07-11T07:22:59Z</time>
      </trkpt>
      <trkpt lat="43.64054" lon="1.11285">
        <ele>152</ele>
        <time>2024-07-11T07:23:00Z</time>
      </trkpt>
      <trkpt lat="43.64052" lon="1.11278">
        <ele>152</ele>
        <time>2024-07-11T07:23:01Z</time>
      </trkpt>
      <trkpt lat="43.6405" lon="1.11268">
        <ele>152.2</ele>
        <time>2024-07-11T07:23:02Z</time>
      </trkpt>
      <trkpt lat="43.64048" lon="1.11259">
        <ele>152.2</ele>
        <time>2024-07-11T07:23:03Z</time>
      </trkpt>
      <trkpt lat="43.64047" lon="1.11249">
        <ele>152.8</ele>
        <time>2024-07-11T07:23:04Z</time>
      </trkpt>
      <trkpt lat="43.64045" lon="1.1124">
        <ele>152.8</ele>
        <time>2024-07-11T07:23:05Z</time>
      </trkpt>
      <trkpt lat="43.64043" lon="1.11228">
        <ele>153.2</ele>
        <time>2024-07-11T07:23:06Z</time>
      </trkpt>
      <trkpt lat="43.64042" lon="1.11217">
        <ele>153.4</ele>
        <time>2024-07-11T07:23:07Z</time>
      </trkpt>
      <trkpt lat="43.64041" lon="1.11209">
        <ele>153.8</ele>
        <time>2024-07-11T07:23:08Z</time>
      </trkpt>
      <trkpt lat="43.6404" lon="1.11198">
        <ele>154</ele>
        <time>2024-07-11T07:23:09Z</time>
      </trkpt>
      <trkpt lat="43.64038" lon="1.11185">
        <ele>154.2</ele>
        <time>2024-07-11T07:23:10Z</time>
      </trkpt>
      <trkpt lat="43.64037" lon="1.11174">
        <ele>154.4</ele>
        <time>2024-07-11T07:23:11Z</time>
      </trkpt>
      <trkpt lat="43.64037" lon="1.11164">
        <ele>154.6</ele>
        <time>2024-07-11T07:23:12Z</time>
      </trkpt>
      <trkpt lat="43.64037" lon="1.11155">
        <ele>154.6</ele>
        <time>2024-07-11T07:23:13Z</time>
      </trkpt>
      <trkpt lat="43.64036" lon="1.11144">
        <ele>154.8</ele>
        <time>2024-07-11T07:23:14Z</time>
      </trkpt>
      <trkpt lat="43.64037" lon="1.11131">
        <ele>154.8</ele>
        <time>2024-07-11T07:23:15Z</time>
      </trkpt>
      <trkpt lat="43.64037" lon="1.11121">
        <ele>155</ele>
        <time>2024-07-11T07:23:16Z</time>
      </trkpt>
      <trkpt lat="43.64037" lon="1.1111">
        <ele>155</ele>
        <time>2024-07-11T07:23:17Z</time>
      </trkpt>
      <trkpt lat="43.64038" lon="1.11101">
        <ele>155</ele>
        <time>2024-07-11T07:23:18Z</time>
      </trkpt>
      <trkpt lat="43.64038" lon="1.1109">
        <ele>155</ele>
        <time>2024-07-11T07:23:19Z</time>
      </trkpt>
      <trkpt lat="43.6404" lon="1.11077">
        <ele>155</ele>
        <time>2024-07-11T07:23:20Z</time>
      </trkpt>
      <trkpt lat="43.64041" lon="1.11066">
        <ele>155</ele>
        <time>2024-07-11T07:23:21Z</time>
      </trkpt>
      <trkpt lat="43.64042" lon="1.11057">
        <ele>155</ele>
        <time>2024-07-11T07:23:22Z</time>
      </trkpt>
      <trkpt lat="43.64044" lon="1.11047">
        <ele>155</ele>
        <time>2024-07-11T07:23:23Z</time>
      </trkpt>
      <trkpt lat="43.64045" lon="1.11035">
        <ele>155</ele>
        <time>2024-07-11T07:23:24Z</time>
      </trkpt>
      <trkpt lat="43.64047" lon="1.11026">
        <ele>155.2</ele>
        <time>2024-07-11T07:23:25Z</time>
      </trkpt>
      <trkpt lat="43.64049" lon="1.11017">
        <ele>155</ele>
        <time>2024-07-11T07:23:26Z</time>
      </trkpt>
      <trkpt lat="43.6405" lon="1.11009">
        <ele>155</ele>
        <time>2024-07-11T07:23:27Z</time>
      </trkpt>
      <trkpt lat="43.64052" lon="1.11">
        <ele>155</ele>
        <time>2024-07-11T07:23:28Z</time>
      </trkpt>
      <trkpt lat="43.64054" lon="1.10991">
        <ele>155</ele>
        <time>2024-07-11T07:23:29Z</time>
      </trkpt>
      <trkpt lat="43.64057" lon="1.1098">
        <ele>155</ele>
        <time>2024-07-11T07:23:30Z</time>
      </trkpt>
      <trkpt lat="43.64059" lon="1.10973">
        <ele>155</ele>
        <time>2024-07-11T07:23:31Z</time>
      </trkpt>
      <trkpt lat="43.64062" lon="1.10964">
        <ele>155</ele>
        <time>2024-07-11T07:23:32Z</time>
      </trkpt>
      <trkpt lat="43.64065" lon="1.10955">
        <ele>155</ele>
        <time>2024-07-11T07:23:33Z</time>
      </trkpt>
      <trkpt lat="43.64068" lon="1.10943">
        <ele>154.8</ele>
        <time>2024-07-11T07:23:34Z</time>
      </trkpt>
      <trkpt lat="43.64071" lon="1.10933">
        <ele>154.8</ele>
        <time>2024-07-11T07:23:35Z</time>
      </trkpt>
      <trkpt lat="43.64073" lon="1.10925">
        <ele>154.8</ele>
        <time>2024-07-11T07:23:36Z</time>
      </trkpt>
      <trkpt lat="43.64076" lon="1.10915">
        <ele>154.8</ele>
        <time>2024-07-11T07:23:37Z</time>
      </trkpt>
      <trkpt lat="43.64079" lon="1.10903">
        <ele>154.8</ele>
        <time>2024-07-11T07:23:38Z</time>
      </trkpt>
      <trkpt lat="43.64081" lon="1.10895">
        <ele>154.8</ele>
        <time>2024-07-11T07:23:39Z</time>
      </trkpt>
      <trkpt lat="43.64085" lon="1.10883">
        <ele>154.8</ele>
        <time>2024-07-11T07:23:40Z</time>
      </trkpt>
      <trkpt lat="43.64087" lon="1.10876">
        <ele>154.6</ele>
        <time>2024-07-11T07:23:41Z</time>
      </trkpt>
      <trkpt lat="43.6409" lon="1.10866">
        <ele>154.6</ele>
        <time>2024-07-11T07:23:42Z</time>
      </trkpt>
      <trkpt lat="43.64092" lon="1.10856">
        <ele>154.4</ele>
        <time>2024-07-11T07:23:43Z</time>
      </trkpt>
      <trkpt lat="43.64095" lon="1.10846">
        <ele>154.4</ele>
        <time>2024-07-11T07:23:44Z</time>
      </trkpt>
      <trkpt lat="43.64098" lon="1.10837">
        <ele>154.2</ele>
        <time>2024-07-11T07:23:45Z</time>
      </trkpt>
      <trkpt lat="43.641" lon="1.10831">
        <ele>154</ele>
        <time>2024-07-11T07:23:46Z</time>
      </trkpt>
      <trkpt lat="43.64102" lon="1.10823">
        <ele>154</ele>
        <time>2024-07-11T07:23:47Z</time>
      </trkpt>
      <trkpt lat="43.64106" lon="1.10816">
        <ele>153.8</ele>
        <time>2024-07-11T07:23:48Z</time>
      </trkpt>
      <trkpt lat="43.64112" lon="1.1081">
        <ele>153.8</ele>
        <time>2024-07-11T07:23:49Z</time>
      </trkpt>
      <trkpt lat="43.64116" lon="1.10809">
        <ele>153.8</ele>
        <time>2024-07-11T07:23:50Z</time>
      </trkpt>
      <trkpt lat="43.64122" lon="1.10808">
        <ele>153.8</ele>
        <time>2024-07-11T07:23:51Z</time>
      </trkpt>
      <trkpt lat="43.64128" lon="1.10809">
        <ele>153.8</ele>
        <time>2024-07-11T07:23:52Z</time>
      </trkpt>
      <trkpt lat="43.64134" lon="1.10809">
        <ele>153.8</ele>
        <time>2024-07-11T07:23:53Z</time>
      </trkpt>
      <trkpt lat="43.6414" lon="1.1081">
        <ele>153.8</ele>
        <time>2024-07-11T07:23:54Z</time>
      </trkpt>
      <trkpt lat="43.64144" lon="1.10811">
        <ele>153.8</ele>
        <time>2024-07-11T07:23:55Z</time>
      </trkpt>
      <trkpt lat="43.64149" lon="1.10811">
        <ele>154.2</ele>
        <time>2024-07-11T07:23:56Z</time>
      </trkpt>
      <trkpt lat="43.64155" lon="1.10812">
        <ele>154.2</ele>
        <time>2024-07-11T07:23:57Z</time>
      </trkpt>
      <trkpt lat="43.6416" lon="1.10813">
        <ele>154.4</ele>
        <time>2024-07-11T07:23:58Z</time>
      </trkpt>
      <trkpt lat="43.64165" lon="1.10814">
        <ele>154.6</ele>
        <time>2024-07-11T07:23:59Z</time>
      </trkpt>
      <trkpt lat="43.64169" lon="1.10814">
        <ele>154.8</ele>
        <time>2024-07-11T07:24:00Z</time>
      </trkpt>
      <trkpt lat="43.64173" lon="1.10813">
        <ele>155</ele>
        <time>2024-07-11T07:24:01Z</time>
      </trkpt>
      <trkpt lat="43.64179" lon="1.10814">
        <ele>155.4</ele>
        <time>2024-07-11T07:24:02Z</time>
      </trkpt>
      <trkpt lat="43.64183" lon="1.10815">
        <ele>155.8</ele>
        <time>2024-07-11T07:24:03Z</time>
      </trkpt>
      <trkpt lat="43.64187" lon="1.10815">
        <ele>156.2</ele>
        <time>2024-07-11T07:24:04Z</time>
      </trkpt>
      <trkpt lat="43.64191" lon="1.10815">
        <ele>156.6</ele>
        <time>2024-07-11T07:24:05Z</time>
      </trkpt>
      <trkpt lat="43.64195" lon="1.10815">
        <ele>157</ele>
        <time>2024-07-11T07:24:06Z</time>
      </trkpt>
      <trkpt lat="43.64201" lon="1.10815">
        <ele>157.4</ele>
        <time>2024-07-11T07:24:07Z</time>
      </trkpt>
      <trkpt lat="43.64205" lon="1.10814">
        <ele>157.8</ele>
        <time>2024-07-11T07:24:08Z</time>
      </trkpt>
      <trkpt lat="43.64209" lon="1.10814">
        <ele>158</ele>
        <time>2024-07-11T07:24:09Z</time>
      </trkpt>
      <trkpt lat="43.64214" lon="1.10813">
        <ele>158.4</ele>
        <time>2024-07-11T07:24:10Z</time>
      </trkpt>
      <trkpt lat="43.64218" lon="1.10811">
        <ele>158.6</ele>
        <time>2024-07-11T07:24:11Z</time>
      </trkpt>
      <trkpt lat="43.64222" lon="1.1081">
        <ele>159.4</ele>
        <time>2024-07-11T07:24:12Z</time>
      </trkpt>
      <trkpt lat="43.64226" lon="1.10809">
        <ele>160</ele>
        <time>2024-07-11T07:24:13Z</time>
      </trkpt>
      <trkpt lat="43.64229" lon="1.10808">
        <ele>160.2</ele>
        <time>2024-07-11T07:24:14Z</time>
      </trkpt>
      <trkpt lat="43.64234" lon="1.10807">
        <ele>160.6</ele>
        <time>2024-07-11T07:24:15Z</time>
      </trkpt>
      <trkpt lat="43.64238" lon="1.10805">
        <ele>161</ele>
        <time>2024-07-11T07:24:16Z</time>
      </trkpt>
      <trkpt lat="43.64242" lon="1.10804">
        <ele>161.6</ele>
        <time>2024-07-11T07:24:17Z</time>
      </trkpt>
      <trkpt lat="43.64246" lon="1.10803">
        <ele>161.8</ele>
        <time>2024-07-11T07:24:18Z</time>
      </trkpt>
      <trkpt lat="43.6425" lon="1.10802">
        <ele>162.4</ele>
        <time>2024-07-11T07:24:19Z</time>
      </trkpt>
      <trkpt lat="43.64255" lon="1.10801">
        <ele>162.8</ele>
        <time>2024-07-11T07:24:20Z</time>
      </trkpt>
      <trkpt lat="43.64259" lon="1.108">
        <ele>163</ele>
        <time>2024-07-11T07:24:21Z</time>
      </trkpt>
      <trkpt lat="43.64264" lon="1.10799">
        <ele>163.6</ele>
        <time>2024-07-11T07:24:22Z</time>
      </trkpt>
      <trkpt lat="43.64268" lon="1.10798">
        <ele>163.8</ele>
        <time>2024-07-11T07:24:23Z</time>
      </trkpt>
      <trkpt lat="43.64272" lon="1.10796">
        <ele>164.4</ele>
        <time>2024-07-11T07:24:24Z</time>
      </trkpt>
      <trkpt lat="43.64277" lon="1.10794">
        <ele>164.6</ele>
        <time>2024-07-11T07:24:25Z</time>
      </trkpt>
      <trkpt lat="43.64281" lon="1.10793">
        <ele>165</ele>
        <time>2024-07-11T07:24:26Z</time>
      </trkpt>
      <trkpt lat="43.64285" lon="1.10791">
        <ele>165.6</ele>
        <time>2024-07-11T07:24:27Z</time>
      </trkpt>
      <trkpt lat="43.64289" lon="1.1079">
        <ele>165.8</ele>
        <time>2024-07-11T07:24:28Z</time>
      </trkpt>
      <trkpt lat="43.64293" lon="1.10789">
        <ele>166.4</ele>
        <time>2024-07-11T07:24:29Z</time>
      </trkpt>
      <trkpt lat="43.64297" lon="1.10787">
        <ele>166.8</ele>
        <time>2024-07-11T07:24:30Z</time>
      </trkpt>
      <trkpt lat="43.64301" lon="1.10786">
        <ele>167.2</ele>
        <time>2024-07-11T07:24:31Z</time>
      </trkpt>
      <trkpt lat="43.64305" lon="1.10786">
        <ele>167.8</ele>
        <time>2024-07-11T07:24:32Z</time>
      </trkpt>
      <trkpt lat="43.64309" lon="1.10785">
        <ele>168</ele>
        <time>2024-07-11T07:24:33Z</time>
      </trkpt>
      <trkpt lat="43.64313" lon="1.10784">
        <ele>168.4</ele>
        <time>2024-07-11T07:24:34Z</time>
      </trkpt>
      <trkpt lat="43.64317" lon="1.10782">
        <ele>168.8</ele>
        <time>2024-07-11T07:24:35Z</time>
      </trkpt>
      <trkpt lat="43.64321" lon="1.10781">
        <ele>169.2</ele>
        <time>2024-07-11T07:24:36Z</time>
      </trkpt>
      <trkpt lat="43.64324" lon="1.1078">
        <ele>169.4</ele>
        <time>2024-07-11T07:24:37Z</time>
      </trkpt>
      <trkpt lat="43.64328" lon="1.10779">
        <ele>170</ele>
        <time>2024-07-11T07:24:38Z</time>
      </trkpt>
      <trkpt lat="43.64333" lon="1.10777">
        <ele>170.4</ele>
        <time>2024-07-11T07:24:39Z</time>
      </trkpt>
      <trkpt lat="43.64336" lon="1.10776">
        <ele>170.6</ele>
        <time>2024-07-11T07:24:40Z</time>
      </trkpt>
      <trkpt lat="43.6434" lon="1.10775">
        <ele>170.6</ele>
        <time>2024-07-11T07:24:41Z</time>
      </trkpt>
      <trkpt lat="43.64343" lon="1.10774">
        <ele>171</ele>
        <time>2024-07-11T07:24:42Z</time>
      </trkpt>
      <trkpt lat="43.64347" lon="1.10773">
        <ele>171.4</ele>
        <time>2024-07-11T07:24:43Z</time>
      </trkpt>
      <trkpt lat="43.6435" lon="1.10771">
        <ele>171.6</ele>
        <time>2024-07-11T07:24:44Z</time>
      </trkpt>
      <trkpt lat="43.64355" lon="1.1077">
        <ele>172</ele>
        <time>2024-07-11T07:24:45Z</time>
      </trkpt>
      <trkpt lat="43.64358" lon="1.10769">
        <ele>172.4</ele>
        <time>2024-07-11T07:24:46Z</time>
      </trkpt>
      <trkpt lat="43.64361" lon="1.10768">
        <ele>172.6</ele>
        <time>2024-07-11T07:24:47Z</time>
      </trkpt>
      <trkpt lat="43.64365" lon="1.10767">
        <ele>173.4</ele>
        <time>2024-07-11T07:24:48Z</time>
      </trkpt>
      <trkpt lat="43.64369" lon="1.10766">
        <ele>173.6</ele>
        <time>2024-07-11T07:24:49Z</time>
      </trkpt>
      <trkpt lat="43.64373" lon="1.10765">
        <ele>174</ele>
        <time>2024-07-11T07:24:50Z</time>
      </trkpt>
      <trkpt lat="43.64376" lon="1.10764">
        <ele>174.4</ele>
        <time>2024-07-11T07:24:51Z</time>
      </trkpt>
      <trkpt lat="43.64379" lon="1.10763">
        <ele>174.8</ele>
        <time>2024-07-11T07:24:52Z</time>
      </trkpt>
      <trkpt lat="43.64383" lon="1.10762">
        <ele>175</ele>
        <time>2024-07-11T07:24:53Z</time>
      </trkpt>
      <trkpt lat="43.64386" lon="1.10761">
        <ele>175</ele>
        <time>2024-07-11T07:24:54Z</time>
      </trkpt>
      <trkpt lat="43.6439" lon="1.1076">
        <ele>175.6</ele>
        <time>2024-07-11T07:24:55Z</time>
      </trkpt>
      <trkpt lat="43.64393" lon="1.10759">
        <ele>175.8</ele>
        <time>2024-07-11T07:24:56Z</time>
      </trkpt>
      <trkpt lat="43.64396" lon="1.10759">
        <ele>176.2</ele>
        <time>2024-07-11T07:24:57Z</time>
      </trkpt>
      <trkpt lat="43.64399" lon="1.10758">
        <ele>176.4</ele>
        <time>2024-07-11T07:24:58Z</time>
      </trkpt>
      <trkpt lat="43.64403" lon="1.10758">
        <ele>176.6</ele>
        <time>2024-07-11T07:24:59Z</time>
      </trkpt>
      <trkpt lat="43.64406" lon="1.10758">
        <ele>176.8</ele>
        <time>2024-07-11T07:25:00Z</time>
      </trkpt>
      <trkpt lat="43.6441" lon="1.10759">
        <ele>176.8</ele>
        <time>2024-07-11T07:25:01Z</time>
      </trkpt>
      <trkpt lat="43.64413" lon="1.10759">
        <ele>177.2</ele>
        <time>2024-07-11T07:25:02Z</time>
      </trkpt>
      <trkpt lat="43.64416" lon="1.1076">
        <ele>177.4</ele>
        <time>2024-07-11T07:25:03Z</time>
      </trkpt>
      <trkpt lat="43.6442" lon="1.10762">
        <ele>178.2</ele>
        <time>2024-07-11T07:25:04Z</time>
      </trkpt>
      <trkpt lat="43.64423" lon="1.10763">
        <ele>178.6</ele>
        <time>2024-07-11T07:25:05Z</time>
      </trkpt>
      <trkpt lat="43.64426" lon="1.10765">
        <ele>178.8</ele>
        <time>2024-07-11T07:25:06Z</time>
      </trkpt>
      <trkpt lat="43.64429" lon="1.10766">
        <ele>179.2</ele>
        <time>2024-07-11T07:25:07Z</time>
      </trkpt>
      <trkpt lat="43.64432" lon="1.10768">
        <ele>179.4</ele>
        <time>2024-07-11T07:25:08Z</time>
      </trkpt>
      <trkpt lat="43.64435" lon="1.1077">
        <ele>179.6</ele>
        <time>2024-07-11T07:25:09Z</time>
      </trkpt>
      <trkpt lat="43.64435" lon="1.1077">
        <ele>179.8</ele>
        <time>2024-07-11T07:25:10Z</time>
      </trkpt>
      <trkpt lat="43.64441" lon="1.10773">
        <ele>180</ele>
        <time>2024-07-11T07:25:11Z</time>
      </trkpt>
      <trkpt lat="43.64444" lon="1.10775">
        <ele>180.6</ele>
        <time>2024-07-11T07:25:12Z</time>
      </trkpt>
      <trkpt lat="43.64447" lon="1.10777">
        <ele>180.8</ele>
        <time>2024-07-11T07:25:13Z</time>
      </trkpt>
      <trkpt lat="43.6445" lon="1.10778">
        <ele>181.2</ele>
        <time>2024-07-11T07:25:14Z</time>
      </trkpt>
      <trkpt lat="43.64453" lon="1.1078">
        <ele>181.4</ele>
        <time>2024-07-11T07:25:15Z</time>
      </trkpt>
      <trkpt lat="43.64457" lon="1.10781">
        <ele>181.6</ele>
        <time>2024-07-11T07:25:16Z</time>
      </trkpt>
      <trkpt lat="43.6446" lon="1.10782">
        <ele>181.8</ele>
        <time>2024-07-11T07:25:17Z</time>
      </trkpt>
      <trkpt lat="43.64464" lon="1.10783">
        <ele>182.2</ele>
        <time>2024-07-11T07:25:18Z</time>
      </trkpt>
      <trkpt lat="43.64468" lon="1.10784">
        <ele>182.6</ele>
        <time>2024-07-11T07:25:19Z</time>
      </trkpt>
      <trkpt lat="43.64471" lon="1.10785">
        <ele>182.8</ele>
        <time>2024-07-11T07:25:20Z</time>
      </trkpt>
      <trkpt lat="43.64475" lon="1.10785">
        <ele>183.2</ele>
        <time>2024-07-11T07:25:21Z</time>
      </trkpt>
      <trkpt lat="43.64479" lon="1.10786">
        <ele>183.2</ele>
        <time>2024-07-11T07:25:22Z</time>
      </trkpt>
      <trkpt lat="43.64483" lon="1.10787">
        <ele>183.4</ele>
        <time>2024-07-11T07:25:23Z</time>
      </trkpt>
      <trkpt lat="43.64487" lon="1.10787">
        <ele>183.6</ele>
        <time>2024-07-11T07:25:24Z</time>
      </trkpt>
      <trkpt lat="43.64492" lon="1.10788">
        <ele>183.6</ele>
        <time>2024-07-11T07:25:25Z</time>
      </trkpt>
      <trkpt lat="43.64492" lon="1.10788">
        <ele>183.8</ele>
        <time>2024-07-11T07:25:26Z</time>
      </trkpt>
      <trkpt lat="43.645" lon="1.10789">
        <ele>184</ele>
        <time>2024-07-11T07:25:27Z</time>
      </trkpt>
      <trkpt lat="43.64505" lon="1.10789">
        <ele>184</ele>
        <time>2024-07-11T07:25:28Z</time>
      </trkpt>
      <trkpt lat="43.64509" lon="1.10789">
        <ele>184.2</ele>
        <time>2024-07-11T07:25:29Z</time>
      </trkpt>
      <trkpt lat="43.64514" lon="1.10789">
        <ele>184.4</ele>
        <time>2024-07-11T07:25:30Z</time>
      </trkpt>
      <trkpt lat="43.64519" lon="1.10789">
        <ele>184.4</ele>
        <time>2024-07-11T07:25:31Z</time>
      </trkpt>
      <trkpt lat="43.64524" lon="1.10789">
        <ele>184.4</ele>
        <time>2024-07-11T07:25:32Z</time>
      </trkpt>
      <trkpt lat="43.64529" lon="1.10789">
        <ele>184.4</ele>
        <time>2024-07-11T07:25:33Z</time>
      </trkpt>
      <trkpt lat="43.64533" lon="1.10788">
        <ele>184.4</ele>
        <time>2024-07-11T07:25:34Z</time>
      </trkpt>
      <trkpt lat="43.64538" lon="1.10788">
        <ele>184.6</ele>
        <time>2024-07-11T07:25:35Z</time>
      </trkpt>
      <trkpt lat="43.64544" lon="1.10786">
        <ele>184.6</ele>
        <time>2024-07-11T07:25:36Z</time>
      </trkpt>
      <trkpt lat="43.64549" lon="1.10786">
        <ele>184.6</ele>
        <time>2024-07-11T07:25:37Z</time>
      </trkpt>
      <trkpt lat="43.64553" lon="1.10785">
        <ele>184.6</ele>
        <time>2024-07-11T07:25:38Z</time>
      </trkpt>
      <trkpt lat="43.64557" lon="1.10784">
        <ele>184.6</ele>
        <time>2024-07-11T07:25:39Z</time>
      </trkpt>
      <trkpt lat="43.64562" lon="1.10783">
        <ele>184.6</ele>
        <time>2024-07-11T07:25:40Z</time>
      </trkpt>
      <trkpt lat="43.64568" lon="1.10782">
        <ele>184.6</ele>
        <time>2024-07-11T07:25:41Z</time>
      </trkpt>
      <trkpt lat="43.64573" lon="1.10781">
        <ele>184.6</ele>
        <time>2024-07-11T07:25:42Z</time>
      </trkpt>
      <trkpt lat="43.64577" lon="1.10781">
        <ele>184.6</ele>
        <time>2024-07-11T07:25:43Z</time>
      </trkpt>
      <trkpt lat="43.64582" lon="1.10781">
        <ele>184.6</ele>
        <time>2024-07-11T07:25:44Z</time>
      </trkpt>
      <trkpt lat="43.64589" lon="1.10781">
        <ele>184.6</ele>
        <time>2024-07-11T07:25:45Z</time>
      </trkpt>
      <trkpt lat="43.64594" lon="1.10782">
        <ele>184.8</ele>
        <time>2024-07-11T07:25:46Z</time>
      </trkpt>
      <trkpt lat="43.64599" lon="1.10784">
        <ele>184.8</ele>
        <time>2024-07-11T07:25:47Z</time>
      </trkpt>
      <trkpt lat="43.64603" lon="1.10785">
        <ele>184.8</ele>
        <time>2024-07-11T07:25:48Z</time>
      </trkpt>
      <trkpt lat="43.64608" lon="1.10786">
        <ele>184.8</ele>
        <time>2024-07-11T07:25:49Z</time>
      </trkpt>
      <trkpt lat="43.64614" lon="1.10787">
        <ele>185</ele>
        <time>2024-07-11T07:25:50Z</time>
      </trkpt>
      <trkpt lat="43.64619" lon="1.10788">
        <ele>185</ele>
        <time>2024-07-11T07:25:51Z</time>
      </trkpt>
      <trkpt lat="43.64623" lon="1.10789">
        <ele>185</ele>
        <time>2024-07-11T07:25:52Z</time>
      </trkpt>
      <trkpt lat="43.64629" lon="1.10789">
        <ele>185.2</ele>
        <time>2024-07-11T07:25:53Z</time>
      </trkpt>
      <trkpt lat="43.64635" lon="1.10789">
        <ele>185.2</ele>
        <time>2024-07-11T07:25:54Z</time>
      </trkpt>
      <trkpt lat="43.6464" lon="1.10787">
        <ele>185.2</ele>
        <time>2024-07-11T07:25:55Z</time>
      </trkpt>
      <trkpt lat="43.64644" lon="1.10785">
        <ele>185.4</ele>
        <time>2024-07-11T07:25:56Z</time>
      </trkpt>
      <trkpt lat="43.64648" lon="1.1078">
        <ele>185.4</ele>
        <time>2024-07-11T07:25:57Z</time>
      </trkpt>
      <trkpt lat="43.64652" lon="1.10775">
        <ele>185.6</ele>
        <time>2024-07-11T07:25:58Z</time>
      </trkpt>
      <trkpt lat="43.64655" lon="1.10768">
        <ele>185.8</ele>
        <time>2024-07-11T07:25:59Z</time>
      </trkpt>
      <trkpt lat="43.64658" lon="1.10762">
        <ele>185.8</ele>
        <time>2024-07-11T07:26:00Z</time>
      </trkpt>
      <trkpt lat="43.64661" lon="1.10756">
        <ele>186.2</ele>
        <time>2024-07-11T07:26:01Z</time>
      </trkpt>
      <trkpt lat="43.64664" lon="1.10751">
        <ele>186.2</ele>
        <time>2024-07-11T07:26:02Z</time>
      </trkpt>
      <trkpt lat="43.64666" lon="1.10745">
        <ele>186.4</ele>
        <time>2024-07-11T07:26:03Z</time>
      </trkpt>
      <trkpt lat="43.6467" lon="1.10738">
        <ele>186.8</ele>
        <time>2024-07-11T07:26:04Z</time>
      </trkpt>
      <trkpt lat="43.64674" lon="1.10733">
        <ele>187</ele>
        <time>2024-07-11T07:26:05Z</time>
      </trkpt>
      <trkpt lat="43.64677" lon="1.10729">
        <ele>187.2</ele>
        <time>2024-07-11T07:26:06Z</time>
      </trkpt>
      <trkpt lat="43.64681" lon="1.10725">
        <ele>187.2</ele>
        <time>2024-07-11T07:26:07Z</time>
      </trkpt>
      <trkpt lat="43.64687" lon="1.10722">
        <ele>187.4</ele>
        <time>2024-07-11T07:26:08Z</time>
      </trkpt>
      <trkpt lat="43.64692" lon="1.1072">
        <ele>187.8</ele>
        <time>2024-07-11T07:26:09Z</time>
      </trkpt>
      <trkpt lat="43.64697" lon="1.10719">
        <ele>188</ele>
        <time>2024-07-11T07:26:10Z</time>
      </trkpt>
      <trkpt lat="43.64701" lon="1.10719">
        <ele>188.2</ele>
        <time>2024-07-11T07:26:11Z</time>
      </trkpt>
      <trkpt lat="43.64706" lon="1.1072">
        <ele>188.2</ele>
        <time>2024-07-11T07:26:12Z</time>
      </trkpt>
      <trkpt lat="43.64713" lon="1.10722">
        <ele>188.4</ele>
        <time>2024-07-11T07:26:13Z</time>
      </trkpt>
      <trkpt lat="43.64718" lon="1.10723">
        <ele>188.6</ele>
        <time>2024-07-11T07:26:14Z</time>
      </trkpt>
      <trkpt lat="43.64722" lon="1.10724">
        <ele>189</ele>
        <time>2024-07-11T07:26:15Z</time>
      </trkpt>
      <trkpt lat="43.64728" lon="1.10726">
        <ele>189.4</ele>
        <time>2024-07-11T07:26:16Z</time>
      </trkpt>
      <trkpt lat="43.64733" lon="1.10727">
        <ele>189.4</ele>
        <time>2024-07-11T07:26:17Z</time>
      </trkpt>
      <trkpt lat="43.64738" lon="1.10728">
        <ele>189.8</ele>
        <time>2024-07-11T07:26:18Z</time>
      </trkpt>
      <trkpt lat="43.64744" lon="1.10729">
        <ele>190</ele>
        <time>2024-07-11T07:26:19Z</time>
      </trkpt>
      <trkpt lat="43.64749" lon="1.1073">
        <ele>190.2</ele>
        <time>2024-07-11T07:26:20Z</time>
      </trkpt>
      <trkpt lat="43.64755" lon="1.10732">
        <ele>190.4</ele>
        <time>2024-07-11T07:26:21Z</time>
      </trkpt>
      <trkpt lat="43.6476" lon="1.10733">
        <ele>190.6</ele>
        <time>2024-07-11T07:26:22Z</time>
      </trkpt>
      <trkpt lat="43.64765" lon="1.10735">
        <ele>191</ele>
        <time>2024-07-11T07:26:23Z</time>
      </trkpt>
      <trkpt lat="43.64771" lon="1.10736">
        <ele>191</ele>
        <time>2024-07-11T07:26:24Z</time>
      </trkpt>
      <trkpt lat="43.64777" lon="1.10737">
        <ele>191</ele>
        <time>2024-07-11T07:26:25Z</time>
      </trkpt>
      <trkpt lat="43.64782" lon="1.10739">
        <ele>191.2</ele>
        <time>2024-07-11T07:26:26Z</time>
      </trkpt>
      <trkpt lat="43.64787" lon="1.1074">
        <ele>191.2</ele>
        <time>2024-07-11T07:26:27Z</time>
      </trkpt>
      <trkpt lat="43.64793" lon="1.10741">
        <ele>191.2</ele>
        <time>2024-07-11T07:26:28Z</time>
      </trkpt>
      <trkpt lat="43.64798" lon="1.10742">
        <ele>191.4</ele>
        <time>2024-07-11T07:26:29Z</time>
      </trkpt>
      <trkpt lat="43.64803" lon="1.10744">
        <ele>191.4</ele>
        <time>2024-07-11T07:26:30Z</time>
      </trkpt>
      <trkpt lat="43.64808" lon="1.10745">
        <ele>191.6</ele>
        <time>2024-07-11T07:26:31Z</time>
      </trkpt>
      <trkpt lat="43.64813" lon="1.10746">
        <ele>191.8</ele>
        <time>2024-07-11T07:26:32Z</time>
      </trkpt>
      <trkpt lat="43.64818" lon="1.10748">
        <ele>192</ele>
        <time>2024-07-11T07:26:33Z</time>
      </trkpt>
      <trkpt lat="43.64823" lon="1.10749">
        <ele>192.4</ele>
        <time>2024-07-11T07:26:34Z</time>
      </trkpt>
      <trkpt lat="43.64823" lon="1.10749">
        <ele>192.6</ele>
        <time>2024-07-11T07:26:35Z</time>
      </trkpt>
      <trkpt lat="43.64833" lon="1.10752">
        <ele>192.6</ele>
        <time>2024-07-11T07:26:36Z</time>
      </trkpt>
      <trkpt lat="43.64838" lon="1.10753">
        <ele>193</ele>
        <time>2024-07-11T07:26:37Z</time>
      </trkpt>
      <trkpt lat="43.64843" lon="1.10754">
        <ele>193</ele>
        <time>2024-07-11T07:26:38Z</time>
      </trkpt>
      <trkpt lat="43.64847" lon="1.10755">
        <ele>193.2</ele>
        <time>2024-07-11T07:26:39Z</time>
      </trkpt>
      <trkpt lat="43.64852" lon="1.10756">
        <ele>193.2</ele>
        <time>2024-07-11T07:26:40Z</time>
      </trkpt>
      <trkpt lat="43.64856" lon="1.10757">
        <ele>193.6</ele>
        <time>2024-07-11T07:26:41Z</time>
      </trkpt>
      <trkpt lat="43.64862" lon="1.10758">
        <ele>193.8</ele>
        <time>2024-07-11T07:26:42Z</time>
      </trkpt>
      <trkpt lat="43.64866" lon="1.10759">
        <ele>194</ele>
        <time>2024-07-11T07:26:43Z</time>
      </trkpt>
      <trkpt lat="43.6487" lon="1.10759">
        <ele>194.6</ele>
        <time>2024-07-11T07:26:44Z</time>
      </trkpt>
      <trkpt lat="43.64873" lon="1.10758">
        <ele>194.6</ele>
        <time>2024-07-11T07:26:45Z</time>
      </trkpt>
      <trkpt lat="43.64878" lon="1.10757">
        <ele>195</ele>
        <time>2024-07-11T07:26:46Z</time>
      </trkpt>
      <trkpt lat="43.64881" lon="1.10755">
        <ele>195</ele>
        <time>2024-07-11T07:26:47Z</time>
      </trkpt>
      <trkpt lat="43.64886" lon="1.10753">
        <ele>195.4</ele>
        <time>2024-07-11T07:26:48Z</time>
      </trkpt>
      <trkpt lat="43.64889" lon="1.10751">
        <ele>195.6</ele>
        <time>2024-07-11T07:26:49Z</time>
      </trkpt>
      <trkpt lat="43.64892" lon="1.10749">
        <ele>196</ele>
        <time>2024-07-11T07:26:50Z</time>
      </trkpt>
      <trkpt lat="43.64894" lon="1.10747">
        <ele>196.4</ele>
        <time>2024-07-11T07:26:51Z</time>
      </trkpt>
      <trkpt lat="43.64897" lon="1.10744">
        <ele>196.6</ele>
        <time>2024-07-11T07:26:52Z</time>
      </trkpt>
      <trkpt lat="43.64899" lon="1.1074">
        <ele>197</ele>
        <time>2024-07-11T07:26:53Z</time>
      </trkpt>
      <trkpt lat="43.64901" lon="1.10737">
        <ele>197.4</ele>
        <time>2024-07-11T07:26:54Z</time>
      </trkpt>
      <trkpt lat="43.64902" lon="1.10733">
        <ele>197.6</ele>
        <time>2024-07-11T07:26:55Z</time>
      </trkpt>
      <trkpt lat="43.64904" lon="1.10729">
        <ele>198</ele>
        <time>2024-07-11T07:26:56Z</time>
      </trkpt>
      <trkpt lat="43.64905" lon="1.10725">
        <ele>198.2</ele>
        <time>2024-07-11T07:26:57Z</time>
      </trkpt>
      <trkpt lat="43.64907" lon="1.10719">
        <ele>198.6</ele>
        <time>2024-07-11T07:26:58Z</time>
      </trkpt>
      <trkpt lat="43.64909" lon="1.10714">
        <ele>198.8</ele>
        <time>2024-07-11T07:26:59Z</time>
      </trkpt>
      <trkpt lat="43.64911" lon="1.10708">
        <ele>199.2</ele>
        <time>2024-07-11T07:27:00Z</time>
      </trkpt>
      <trkpt lat="43.64912" lon="1.10703">
        <ele>199.6</ele>
        <time>2024-07-11T07:27:01Z</time>
      </trkpt>
      <trkpt lat="43.64913" lon="1.10697">
        <ele>199.6</ele>
        <time>2024-07-11T07:27:02Z</time>
      </trkpt>
      <trkpt lat="43.64915" lon="1.10691">
        <ele>199.8</ele>
        <time>2024-07-11T07:27:03Z</time>
      </trkpt>
      <trkpt lat="43.64917" lon="1.10684">
        <ele>199.8</ele>
        <time>2024-07-11T07:27:04Z</time>
      </trkpt>
      <trkpt lat="43.64918" lon="1.10679">
        <ele>199.8</ele>
        <time>2024-07-11T07:27:05Z</time>
      </trkpt>
      <trkpt lat="43.64919" lon="1.10674">
        <ele>199.8</ele>
        <time>2024-07-11T07:27:06Z</time>
      </trkpt>
      <trkpt lat="43.6492" lon="1.10669">
        <ele>200</ele>
        <time>2024-07-11T07:27:07Z</time>
      </trkpt>
      <trkpt lat="43.64921" lon="1.10664">
        <ele>200</ele>
        <time>2024-07-11T07:27:08Z</time>
      </trkpt>
      <trkpt lat="43.64922" lon="1.1066">
        <ele>200</ele>
        <time>2024-07-11T07:27:09Z</time>
      </trkpt>
      <trkpt lat="43.64922" lon="1.10656">
        <ele>200</ele>
        <time>2024-07-11T07:27:10Z</time>
      </trkpt>
      <trkpt lat="43.64923" lon="1.10654">
        <ele>200.2</ele>
        <time>2024-07-11T07:27:11Z</time>
      </trkpt>
      <trkpt lat="43.64922" lon="1.10651">
        <ele>200.2</ele>
        <time>2024-07-11T07:27:12Z</time>
      </trkpt>
      <trkpt lat="43.6492" lon="1.1065">
        <ele>200.2</ele>
        <time>2024-07-11T07:27:13Z</time>
      </trkpt>
      <trkpt lat="43.64919" lon="1.10652">
        <ele>200.2</ele>
        <time>2024-07-11T07:27:14Z</time>
      </trkpt>
      <trkpt lat="43.64918" lon="1.10655">
        <ele>200.2</ele>
        <time>2024-07-11T07:27:15Z</time>
      </trkpt>
      <trkpt lat="43.64917" lon="1.10658">
        <ele>200.2</ele>
        <time>2024-07-11T07:27:16Z</time>
      </trkpt>
      <trkpt lat="43.64917" lon="1.10661">
        <ele>200.2</ele>
        <time>2024-07-11T07:27:17Z</time>
      </trkpt>
      <trkpt lat="43.64916" lon="1.10665">
        <ele>200</ele>
        <time>2024-07-11T07:27:18Z</time>
      </trkpt>
      <trkpt lat="43.64915" lon="1.1067">
        <ele>200</ele>
        <time>2024-07-11T07:27:19Z</time>
      </trkpt>
      <trkpt lat="43.64914" lon="1.10675">
        <ele>200</ele>
        <time>2024-07-11T07:27:20Z</time>
      </trkpt>
      <trkpt lat="43.64913" lon="1.10679">
        <ele>200</ele>
        <time>2024-07-11T07:27:21Z</time>
      </trkpt>
      <trkpt lat="43.64912" lon="1.10683">
        <ele>199.8</ele>
        <time>2024-07-11T07:27:22Z</time>
      </trkpt>
      <trkpt lat="43.64911" lon="1.10687">
        <ele>199.8</ele>
        <time>2024-07-11T07:27:23Z</time>
      </trkpt>
      <trkpt lat="43.6491" lon="1.10691">
        <ele>199.8</ele>
        <time>2024-07-11T07:27:24Z</time>
      </trkpt>
      <trkpt lat="43.64909" lon="1.10696">
        <ele>199.8</ele>
        <time>2024-07-11T07:27:25Z</time>
      </trkpt>
      <trkpt lat="43.64908" lon="1.107">
        <ele>199.8</ele>
        <time>2024-07-11T07:27:26Z</time>
      </trkpt>
      <trkpt lat="43.64908" lon="1.10703">
        <ele>199.8</ele>
        <time>2024-07-11T07:27:27Z</time>
      </trkpt>
      <trkpt lat="43.64908" lon="1.10704">
        <ele>199.8</ele>
        <time>2024-07-11T07:27:28Z</time>
      </trkpt>
      <trkpt lat="43.64909" lon="1.10704">
        <ele>199.8</ele>
        <time>2024-07-11T07:27:29Z</time>
      </trkpt>
      <trkpt lat="43.6491" lon="1.107">
        <ele>199.8</ele>
        <time>2024-07-11T07:27:30Z</time>
      </trkpt>
      <trkpt lat="43.64911" lon="1.10695">
        <ele>199.8</ele>
        <time>2024-07-11T07:27:31Z</time>
      </trkpt>
      <trkpt lat="43.64913" lon="1.10689">
        <ele>199.8</ele>
        <time>2024-07-11T07:27:32Z</time>
      </trkpt>
      <trkpt lat="43.64914" lon="1.10684">
        <ele>199.8</ele>
        <time>2024-07-11T07:27:33Z</time>
      </trkpt>
      <trkpt lat="43.64915" lon="1.10678">
        <ele>199.8</ele>
        <time>2024-07-11T07:27:34Z</time>
      </trkpt>
      <trkpt lat="43.64917" lon="1.10671">
        <ele>199.8</ele>
        <time>2024-07-11T07:27:35Z</time>
      </trkpt>
      <trkpt lat="43.64918" lon="1.10664">
        <ele>199.8</ele>
        <time>2024-07-11T07:27:36Z</time>
      </trkpt>
      <trkpt lat="43.64919" lon="1.10657">
        <ele>199.8</ele>
        <time>2024-07-11T07:27:37Z</time>
      </trkpt>
      <trkpt lat="43.64921" lon="1.10651">
        <ele>199.8</ele>
        <time>2024-07-11T07:27:38Z</time>
      </trkpt>
      <trkpt lat="43.64921" lon="1.10645">
        <ele>200</ele>
        <time>2024-07-11T07:27:39Z</time>
      </trkpt>
      <trkpt lat="43.64922" lon="1.10638">
        <ele>200.2</ele>
        <time>2024-07-11T07:27:40Z</time>
      </trkpt>
      <trkpt lat="43.64923" lon="1.1063">
        <ele>200.2</ele>
        <time>2024-07-11T07:27:41Z</time>
      </trkpt>
      <trkpt lat="43.64924" lon="1.10623">
        <ele>200.4</ele>
        <time>2024-07-11T07:27:42Z</time>
      </trkpt>
      <trkpt lat="43.64925" lon="1.10615">
        <ele>200.4</ele>
        <time>2024-07-11T07:27:43Z</time>
      </trkpt>
      <trkpt lat="43.64926" lon="1.10608">
        <ele>200.4</ele>
        <time>2024-07-11T07:27:44Z</time>
      </trkpt>
      <trkpt lat="43.64927" lon="1.10601">
        <ele>200.6</ele>
        <time>2024-07-11T07:27:45Z</time>
      </trkpt>
      <trkpt lat="43.64928" lon="1.10594">
        <ele>200.6</ele>
        <time>2024-07-11T07:27:46Z</time>
      </trkpt>
      <trkpt lat="43.64929" lon="1.10587">
        <ele>200.6</ele>
        <time>2024-07-11T07:27:47Z</time>
      </trkpt>
      <trkpt lat="43.6493" lon="1.1058">
        <ele>200.8</ele>
        <time>2024-07-11T07:27:48Z</time>
      </trkpt>
      <trkpt lat="43.6493" lon="1.10574">
        <ele>200.8</ele>
        <time>2024-07-11T07:27:49Z</time>
      </trkpt>
      <trkpt lat="43.64931" lon="1.10566">
        <ele>201</ele>
        <time>2024-07-11T07:27:50Z</time>
      </trkpt>
      <trkpt lat="43.64932" lon="1.10559">
        <ele>201</ele>
        <time>2024-07-11T07:27:51Z</time>
      </trkpt>
      <trkpt lat="43.64933" lon="1.10553">
        <ele>201.2</ele>
        <time>2024-07-11T07:27:52Z</time>
      </trkpt>
      <trkpt lat="43.64934" lon="1.10546">
        <ele>201.2</ele>
        <time>2024-07-11T07:27:53Z</time>
      </trkpt>
      <trkpt lat="43.64936" lon="1.10539">
        <ele>201.2</ele>
        <time>2024-07-11T07:27:54Z</time>
      </trkpt>
      <trkpt lat="43.64939" lon="1.10533">
        <ele>201.4</ele>
        <time>2024-07-11T07:27:55Z</time>
      </trkpt>
      <trkpt lat="43.64942" lon="1.10527">
        <ele>201.4</ele>
        <time>2024-07-11T07:27:56Z</time>
      </trkpt>
      <trkpt lat="43.64945" lon="1.10521">
        <ele>201.6</ele>
        <time>2024-07-11T07:27:57Z</time>
      </trkpt>
      <trkpt lat="43.64949" lon="1.10516">
        <ele>201.6</ele>
        <time>2024-07-11T07:27:58Z</time>
      </trkpt>
      <trkpt lat="43.64952" lon="1.1051">
        <ele>201.6</ele>
        <time>2024-07-11T07:27:59Z</time>
      </trkpt>
      <trkpt lat="43.64956" lon="1.10505">
        <ele>201.6</ele>
        <time>2024-07-11T07:28:00Z</time>
      </trkpt>
      <trkpt lat="43.64961" lon="1.10501">
        <ele>201.8</ele>
        <time>2024-07-11T07:28:01Z</time>
      </trkpt>
      <trkpt lat="43.64965" lon="1.10498">
        <ele>202</ele>
        <time>2024-07-11T07:28:02Z</time>
      </trkpt>
      <trkpt lat="43.6497" lon="1.10495">
        <ele>202</ele>
        <time>2024-07-11T07:28:03Z</time>
      </trkpt>
      <trkpt lat="43.64975" lon="1.10493">
        <ele>202.2</ele>
        <time>2024-07-11T07:28:04Z</time>
      </trkpt>
      <trkpt lat="43.6498" lon="1.10491">
        <ele>202.2</ele>
        <time>2024-07-11T07:28:05Z</time>
      </trkpt>
      <trkpt lat="43.64984" lon="1.1049">
        <ele>202.4</ele>
        <time>2024-07-11T07:28:06Z</time>
      </trkpt>
      <trkpt lat="43.64989" lon="1.10489">
        <ele>202.4</ele>
        <time>2024-07-11T07:28:07Z</time>
      </trkpt>
      <trkpt lat="43.64993" lon="1.10489">
        <ele>202.6</ele>
        <time>2024-07-11T07:28:08Z</time>
      </trkpt>
      <trkpt lat="43.64998" lon="1.10489">
        <ele>202.6</ele>
        <time>2024-07-11T07:28:09Z</time>
      </trkpt>
      <trkpt lat="43.65002" lon="1.10489">
        <ele>202.8</ele>
        <time>2024-07-11T07:28:10Z</time>
      </trkpt>
      <trkpt lat="43.65007" lon="1.1049">
        <ele>203</ele>
        <time>2024-07-11T07:28:11Z</time>
      </trkpt>
      <trkpt lat="43.65011" lon="1.10491">
        <ele>203.2</ele>
        <time>2024-07-11T07:28:12Z</time>
      </trkpt>
      <trkpt lat="43.65016" lon="1.10492">
        <ele>203.4</ele>
        <time>2024-07-11T07:28:13Z</time>
      </trkpt>
      <trkpt lat="43.65021" lon="1.10494">
        <ele>203.6</ele>
        <time>2024-07-11T07:28:14Z</time>
      </trkpt>
      <trkpt lat="43.65025" lon="1.10496">
        <ele>203.6</ele>
        <time>2024-07-11T07:28:15Z</time>
      </trkpt>
      <trkpt lat="43.6503" lon="1.10499">
        <ele>204</ele>
        <time>2024-07-11T07:28:16Z</time>
      </trkpt>
      <trkpt lat="43.65035" lon="1.10504">
        <ele>204</ele>
        <time>2024-07-11T07:28:17Z</time>
      </trkpt>
      <trkpt lat="43.65039" lon="1.1051">
        <ele>204</ele>
        <time>2024-07-11T07:28:18Z</time>
      </trkpt>
      <trkpt lat="43.65041" lon="1.10516">
        <ele>204</ele>
        <time>2024-07-11T07:28:19Z</time>
      </trkpt>
      <trkpt lat="43.65042" lon="1.10523">
        <ele>204</ele>
        <time>2024-07-11T07:28:20Z</time>
      </trkpt>
      <trkpt lat="43.65043" lon="1.10531">
        <ele>204</ele>
        <time>2024-07-11T07:28:21Z</time>
      </trkpt>
      <trkpt lat="43.65043" lon="1.10539">
        <ele>204</ele>
        <time>2024-07-11T07:28:22Z</time>
      </trkpt>
      <trkpt lat="43.65045" lon="1.10549">
        <ele>203.8</ele>
        <time>2024-07-11T07:28:23Z</time>
      </trkpt>
      <trkpt lat="43.65049" lon="1.10558">
        <ele>203.4</ele>
        <time>2024-07-11T07:28:24Z</time>
      </trkpt>
      <trkpt lat="43.65054" lon="1.10567">
        <ele>203.2</ele>
        <time>2024-07-11T07:28:25Z</time>
      </trkpt>
      <trkpt lat="43.6506" lon="1.10574">
        <ele>202.6</ele>
        <time>2024-07-11T07:28:26Z</time>
      </trkpt>
      <trkpt lat="43.65069" lon="1.10578">
        <ele>202.2</ele>
        <time>2024-07-11T07:28:27Z</time>
      </trkpt>
      <trkpt lat="43.6508" lon="1.10578">
        <ele>201.4</ele>
        <time>2024-07-11T07:28:28Z</time>
      </trkpt>
      <trkpt lat="43.6509" lon="1.10575">
        <ele>200.2</ele>
        <time>2024-07-11T07:28:29Z</time>
      </trkpt>
      <trkpt lat="43.651" lon="1.10569">
        <ele>199.4</ele>
        <time>2024-07-11T07:28:30Z</time>
      </trkpt>
      <trkpt lat="43.6511" lon="1.10562">
        <ele>197.8</ele>
        <time>2024-07-11T07:28:31Z</time>
      </trkpt>
      <trkpt lat="43.65119" lon="1.10554">
        <ele>197.2</ele>
        <time>2024-07-11T07:28:32Z</time>
      </trkpt>
      <trkpt lat="43.6513" lon="1.10547">
        <ele>196.2</ele>
        <time>2024-07-11T07:28:33Z</time>
      </trkpt>
      <trkpt lat="43.6514" lon="1.10542">
        <ele>195.6</ele>
        <time>2024-07-11T07:28:34Z</time>
      </trkpt>
      <trkpt lat="43.65151" lon="1.10541">
        <ele>194.4</ele>
        <time>2024-07-11T07:28:35Z</time>
      </trkpt>
      <trkpt lat="43.65161" lon="1.10544">
        <ele>193.2</ele>
        <time>2024-07-11T07:28:36Z</time>
      </trkpt>
      <trkpt lat="43.65171" lon="1.10551">
        <ele>192.4</ele>
        <time>2024-07-11T07:28:37Z</time>
      </trkpt>
      <trkpt lat="43.65179" lon="1.1056">
        <ele>191</ele>
        <time>2024-07-11T07:28:38Z</time>
      </trkpt>
      <trkpt lat="43.65185" lon="1.10574">
        <ele>190.8</ele>
        <time>2024-07-11T07:28:39Z</time>
      </trkpt>
      <trkpt lat="43.65191" lon="1.1059">
        <ele>189</ele>
        <time>2024-07-11T07:28:40Z</time>
      </trkpt>
      <trkpt lat="43.65197" lon="1.10607">
        <ele>188.2</ele>
        <time>2024-07-11T07:28:41Z</time>
      </trkpt>
      <trkpt lat="43.65205" lon="1.10623">
        <ele>186.4</ele>
        <time>2024-07-11T07:28:42Z</time>
      </trkpt>
      <trkpt lat="43.65212" lon="1.10641">
        <ele>185</ele>
        <time>2024-07-11T07:28:43Z</time>
      </trkpt>
      <trkpt lat="43.6522" lon="1.10656">
        <ele>184.4</ele>
        <time>2024-07-11T07:28:44Z</time>
      </trkpt>
      <trkpt lat="43.65228" lon="1.10674">
        <ele>183</ele>
        <time>2024-07-11T07:28:45Z</time>
      </trkpt>
      <trkpt lat="43.65237" lon="1.10689">
        <ele>182.2</ele>
        <time>2024-07-11T07:28:46Z</time>
      </trkpt>
      <trkpt lat="43.65245" lon="1.10705">
        <ele>181.2</ele>
        <time>2024-07-11T07:28:47Z</time>
      </trkpt>
      <trkpt lat="43.65254" lon="1.10721">
        <ele>178.6</ele>
        <time>2024-07-11T07:28:48Z</time>
      </trkpt>
      <trkpt lat="43.65262" lon="1.10737">
        <ele>177.4</ele>
        <time>2024-07-11T07:28:49Z</time>
      </trkpt>
      <trkpt lat="43.6527" lon="1.10754">
        <ele>175.6</ele>
        <time>2024-07-11T07:28:50Z</time>
      </trkpt>
      <trkpt lat="43.65279" lon="1.10769">
        <ele>174.6</ele>
        <time>2024-07-11T07:28:51Z</time>
      </trkpt>
      <trkpt lat="43.65289" lon="1.10782">
        <ele>172.8</ele>
        <time>2024-07-11T07:28:52Z</time>
      </trkpt>
      <trkpt lat="43.65299" lon="1.10794">
        <ele>172.2</ele>
        <time>2024-07-11T07:28:53Z</time>
      </trkpt>
      <trkpt lat="43.65309" lon="1.10805">
        <ele>170.6</ele>
        <time>2024-07-11T07:28:54Z</time>
      </trkpt>
      <trkpt lat="43.65319" lon="1.10814">
        <ele>169.2</ele>
        <time>2024-07-11T07:28:55Z</time>
      </trkpt>
      <trkpt lat="43.6533" lon="1.10823">
        <ele>168.8</ele>
        <time>2024-07-11T07:28:56Z</time>
      </trkpt>
      <trkpt lat="43.6534" lon="1.1083">
        <ele>168.4</ele>
        <time>2024-07-11T07:28:57Z</time>
      </trkpt>
      <trkpt lat="43.6535" lon="1.10836">
        <ele>168.2</ele>
        <time>2024-07-11T07:28:58Z</time>
      </trkpt>
      <trkpt lat="43.65359" lon="1.10842">
        <ele>167.8</ele>
        <time>2024-07-11T07:28:59Z</time>
      </trkpt>
      <trkpt lat="43.65371" lon="1.10848">
        <ele>167.8</ele>
        <time>2024-07-11T07:29:00Z</time>
      </trkpt>
      <trkpt lat="43.65378" lon="1.10852">
        <ele>167.8</ele>
        <time>2024-07-11T07:29:01Z</time>
      </trkpt>
      <trkpt lat="43.65387" lon="1.10857">
        <ele>167.6</ele>
        <time>2024-07-11T07:29:02Z</time>
      </trkpt>
      <trkpt lat="43.65387" lon="1.10857">
        <ele>167.4</ele>
        <time>2024-07-11T07:29:03Z</time>
      </trkpt>
      <trkpt lat="43.65404" lon="1.10866">
        <ele>167.4</ele>
        <time>2024-07-11T07:29:04Z</time>
      </trkpt>
      <trkpt lat="43.65412" lon="1.1087">
        <ele>167.4</ele>
        <time>2024-07-11T07:29:05Z</time>
      </trkpt>
      <trkpt lat="43.65421" lon="1.10874">
        <ele>167.2</ele>
        <time>2024-07-11T07:29:06Z</time>
      </trkpt>
      <trkpt lat="43.65429" lon="1.10877">
        <ele>167.2</ele>
        <time>2024-07-11T07:29:07Z</time>
      </trkpt>
      <trkpt lat="43.65438" lon="1.10881">
        <ele>167.2</ele>
        <time>2024-07-11T07:29:08Z</time>
      </trkpt>
      <trkpt lat="43.65448" lon="1.10884">
        <ele>167.2</ele>
        <time>2024-07-11T07:29:09Z</time>
      </trkpt>
      <trkpt lat="43.65457" lon="1.10886">
        <ele>167</ele>
        <time>2024-07-11T07:29:10Z</time>
      </trkpt>
      <trkpt lat="43.65466" lon="1.10887">
        <ele>166.8</ele>
        <time>2024-07-11T07:29:11Z</time>
      </trkpt>
      <trkpt lat="43.65476" lon="1.10888">
        <ele>166.6</ele>
        <time>2024-07-11T07:29:12Z</time>
      </trkpt>
      <trkpt lat="43.65485" lon="1.10887">
        <ele>166.2</ele>
        <time>2024-07-11T07:29:13Z</time>
      </trkpt>
      <trkpt lat="43.65494" lon="1.10885">
        <ele>165.8</ele>
        <time>2024-07-11T07:29:14Z</time>
      </trkpt>
      <trkpt lat="43.65504" lon="1.10884">
        <ele>165.8</ele>
        <time>2024-07-11T07:29:15Z</time>
      </trkpt>
      <trkpt lat="43.65513" lon="1.10882">
        <ele>165.4</ele>
        <time>2024-07-11T07:29:16Z</time>
      </trkpt>
      <trkpt lat="43.65522" lon="1.1088">
        <ele>165.2</ele>
        <time>2024-07-11T07:29:17Z</time>
      </trkpt>
      <trkpt lat="43.65532" lon="1.10879">
        <ele>164.8</ele>
        <time>2024-07-11T07:29:18Z</time>
      </trkpt>
      <trkpt lat="43.65544" lon="1.1088">
        <ele>164.6</ele>
        <time>2024-07-11T07:29:19Z</time>
      </trkpt>
      <trkpt lat="43.65552" lon="1.10882">
        <ele>164.2</ele>
        <time>2024-07-11T07:29:20Z</time>
      </trkpt>
      <trkpt lat="43.65562" lon="1.10885">
        <ele>163.8</ele>
        <time>2024-07-11T07:29:21Z</time>
      </trkpt>
      <trkpt lat="43.65572" lon="1.10889">
        <ele>163.6</ele>
        <time>2024-07-11T07:29:22Z</time>
      </trkpt>
      <trkpt lat="43.65582" lon="1.10894">
        <ele>162.8</ele>
        <time>2024-07-11T07:29:23Z</time>
      </trkpt>
      <trkpt lat="43.65592" lon="1.109">
        <ele>162.6</ele>
        <time>2024-07-11T07:29:24Z</time>
      </trkpt>
      <trkpt lat="43.65602" lon="1.10906">
        <ele>162</ele>
        <time>2024-07-11T07:29:25Z</time>
      </trkpt>
      <trkpt lat="43.65612" lon="1.10914">
        <ele>161</ele>
        <time>2024-07-11T07:29:26Z</time>
      </trkpt>
      <trkpt lat="43.65622" lon="1.10922">
        <ele>160.4</ele>
        <time>2024-07-11T07:29:27Z</time>
      </trkpt>
      <trkpt lat="43.65632" lon="1.10929">
        <ele>159.4</ele>
        <time>2024-07-11T07:29:28Z</time>
      </trkpt>
      <trkpt lat="43.65642" lon="1.10936">
        <ele>158.6</ele>
        <time>2024-07-11T07:29:29Z</time>
      </trkpt>
      <trkpt lat="43.65652" lon="1.10943">
        <ele>157.4</ele>
        <time>2024-07-11T07:29:30Z</time>
      </trkpt>
      <trkpt lat="43.65662" lon="1.10948">
        <ele>157</ele>
        <time>2024-07-11T07:29:31Z</time>
      </trkpt>
      <trkpt lat="43.65672" lon="1.10953">
        <ele>156.2</ele>
        <time>2024-07-11T07:29:32Z</time>
      </trkpt>
      <trkpt lat="43.65682" lon="1.10958">
        <ele>155.6</ele>
        <time>2024-07-11T07:29:33Z</time>
      </trkpt>
      <trkpt lat="43.65692" lon="1.10962">
        <ele>155.4</ele>
        <time>2024-07-11T07:29:34Z</time>
      </trkpt>
      <trkpt lat="43.65701" lon="1.10965">
        <ele>154.8</ele>
        <time>2024-07-11T07:29:35Z</time>
      </trkpt>
      <trkpt lat="43.6571" lon="1.10969">
        <ele>154.6</ele>
        <time>2024-07-11T07:29:36Z</time>
      </trkpt>
      <trkpt lat="43.6572" lon="1.10973">
        <ele>154.6</ele>
        <time>2024-07-11T07:29:37Z</time>
      </trkpt>
      <trkpt lat="43.65729" lon="1.10976">
        <ele>154.4</ele>
        <time>2024-07-11T07:29:38Z</time>
      </trkpt>
      <trkpt lat="43.65738" lon="1.1098">
        <ele>154.4</ele>
        <time>2024-07-11T07:29:39Z</time>
      </trkpt>
      <trkpt lat="43.65747" lon="1.10984">
        <ele>154.4</ele>
        <time>2024-07-11T07:29:40Z</time>
      </trkpt>
      <trkpt lat="43.65758" lon="1.10988">
        <ele>154.2</ele>
        <time>2024-07-11T07:29:41Z</time>
      </trkpt>
      <trkpt lat="43.65766" lon="1.10991">
        <ele>154</ele>
        <time>2024-07-11T07:29:42Z</time>
      </trkpt>
      <trkpt lat="43.65775" lon="1.10993">
        <ele>154</ele>
        <time>2024-07-11T07:29:43Z</time>
      </trkpt>
      <trkpt lat="43.65781" lon="1.10995">
        <ele>154</ele>
        <time>2024-07-11T07:29:44Z</time>
      </trkpt>
      <trkpt lat="43.6579" lon="1.10997">
        <ele>154</ele>
        <time>2024-07-11T07:29:45Z</time>
      </trkpt>
      <trkpt lat="43.658" lon="1.10997">
        <ele>154</ele>
        <time>2024-07-11T07:29:46Z</time>
      </trkpt>
      <trkpt lat="43.65808" lon="1.10998">
        <ele>154</ele>
        <time>2024-07-11T07:29:47Z</time>
      </trkpt>
      <trkpt lat="43.65816" lon="1.10998">
        <ele>153.8</ele>
        <time>2024-07-11T07:29:48Z</time>
      </trkpt>
      <trkpt lat="43.65824" lon="1.10998">
        <ele>153.8</ele>
        <time>2024-07-11T07:29:49Z</time>
      </trkpt>
      <trkpt lat="43.6583" lon="1.10998">
        <ele>153.8</ele>
        <time>2024-07-11T07:29:50Z</time>
      </trkpt>
      <trkpt lat="43.65837" lon="1.10999">
        <ele>153.8</ele>
        <time>2024-07-11T07:29:51Z</time>
      </trkpt>
      <trkpt lat="43.65845" lon="1.11">
        <ele>153.6</ele>
        <time>2024-07-11T07:29:52Z</time>
      </trkpt>
      <trkpt lat="43.65852" lon="1.11001">
        <ele>153.8</ele>
        <time>2024-07-11T07:29:53Z</time>
      </trkpt>
      <trkpt lat="43.65858" lon="1.11003">
        <ele>153.8</ele>
        <time>2024-07-11T07:29:54Z</time>
      </trkpt>
      <trkpt lat="43.65864" lon="1.11004">
        <ele>154</ele>
        <time>2024-07-11T07:29:55Z</time>
      </trkpt>
      <trkpt lat="43.65868" lon="1.11006">
        <ele>154</ele>
        <time>2024-07-11T07:29:56Z</time>
      </trkpt>
      <trkpt lat="43.65871" lon="1.11008">
        <ele>154</ele>
        <time>2024-07-11T07:29:57Z</time>
      </trkpt>
      <trkpt lat="43.65873" lon="1.1101">
        <ele>154.2</ele>
        <time>2024-07-11T07:29:58Z</time>
      </trkpt>
      <trkpt lat="43.65875" lon="1.11012">
        <ele>154.4</ele>
        <time>2024-07-11T07:29:59Z</time>
      </trkpt>
      <trkpt lat="43.65878" lon="1.11014">
        <ele>154.4</ele>
        <time>2024-07-11T07:30:00Z</time>
      </trkpt>
      <trkpt lat="43.6588" lon="1.11016">
        <ele>154.6</ele>
        <time>2024-07-11T07:30:01Z</time>
      </trkpt>
      <trkpt lat="43.65883" lon="1.1102">
        <ele>154.8</ele>
        <time>2024-07-11T07:30:02Z</time>
      </trkpt>
      <trkpt lat="43.65887" lon="1.11023">
        <ele>155</ele>
        <time>2024-07-11T07:30:03Z</time>
      </trkpt>
      <trkpt lat="43.6589" lon="1.11027">
        <ele>155.2</ele>
        <time>2024-07-11T07:30:04Z</time>
      </trkpt>
      <trkpt lat="43.65893" lon="1.11031">
        <ele>155.2</ele>
        <time>2024-07-11T07:30:05Z</time>
      </trkpt>
      <trkpt lat="43.65896" lon="1.11035">
        <ele>155.4</ele>
        <time>2024-07-11T07:30:06Z</time>
      </trkpt>
      <trkpt lat="43.65899" lon="1.11039">
        <ele>155.4</ele>
        <time>2024-07-11T07:30:07Z</time>
      </trkpt>
      <trkpt lat="43.65902" lon="1.11043">
        <ele>155.6</ele>
        <time>2024-07-11T07:30:08Z</time>
      </trkpt>
      <trkpt lat="43.65905" lon="1.11047">
        <ele>155.6</ele>
        <time>2024-07-11T07:30:09Z</time>
      </trkpt>
      <trkpt lat="43.65909" lon="1.11051">
        <ele>155.8</ele>
        <time>2024-07-11T07:30:10Z</time>
      </trkpt>
      <trkpt lat="43.65912" lon="1.11057">
        <ele>156</ele>
        <time>2024-07-11T07:30:11Z</time>
      </trkpt>
      <trkpt lat="43.65915" lon="1.11062">
        <ele>156</ele>
        <time>2024-07-11T07:30:12Z</time>
      </trkpt>
      <trkpt lat="43.65918" lon="1.11067">
        <ele>156.2</ele>
        <time>2024-07-11T07:30:13Z</time>
      </trkpt>
      <trkpt lat="43.6592" lon="1.11072">
        <ele>156.2</ele>
        <time>2024-07-11T07:30:14Z</time>
      </trkpt>
      <trkpt lat="43.65923" lon="1.11076">
        <ele>156.4</ele>
        <time>2024-07-11T07:30:15Z</time>
      </trkpt>
      <trkpt lat="43.65926" lon="1.11081">
        <ele>156.6</ele>
        <time>2024-07-11T07:30:16Z</time>
      </trkpt>
      <trkpt lat="43.65929" lon="1.11085">
        <ele>156.8</ele>
        <time>2024-07-11T07:30:17Z</time>
      </trkpt>
      <trkpt lat="43.65932" lon="1.1109">
        <ele>156.8</ele>
        <time>2024-07-11T07:30:18Z</time>
      </trkpt>
      <trkpt lat="43.65935" lon="1.11094">
        <ele>157</ele>
        <time>2024-07-11T07:30:19Z</time>
      </trkpt>
      <trkpt lat="43.65938" lon="1.11099">
        <ele>157.2</ele>
        <time>2024-07-11T07:30:20Z</time>
      </trkpt>
      <trkpt lat="43.65942" lon="1.11104">
        <ele>157.2</ele>
        <time>2024-07-11T07:30:21Z</time>
      </trkpt>
      <trkpt lat="43.65945" lon="1.11109">
        <ele>157.4</ele>
        <time>2024-07-11T07:30:22Z</time>
      </trkpt>
      <trkpt lat="43.65948" lon="1.11113">
        <ele>157.6</ele>
        <time>2024-07-11T07:30:23Z</time>
      </trkpt>
      <trkpt lat="43.65952" lon="1.11118">
        <ele>157.8</ele>
        <time>2024-07-11T07:30:24Z</time>
      </trkpt>
      <trkpt lat="43.65955" lon="1.11123">
        <ele>157.8</ele>
        <time>2024-07-11T07:30:25Z</time>
      </trkpt>
      <trkpt lat="43.65959" lon="1.11128">
        <ele>157.8</ele>
        <time>2024-07-11T07:30:26Z</time>
      </trkpt>
      <trkpt lat="43.65962" lon="1.11133">
        <ele>157.8</ele>
        <time>2024-07-11T07:30:27Z</time>
      </trkpt>
      <trkpt lat="43.65966" lon="1.11138">
        <ele>157.8</ele>
        <time>2024-07-11T07:30:28Z</time>
      </trkpt>
      <trkpt lat="43.65969" lon="1.11143">
        <ele>157.8</ele>
        <time>2024-07-11T07:30:29Z</time>
      </trkpt>
      <trkpt lat="43.65973" lon="1.11149">
        <ele>158</ele>
        <time>2024-07-11T07:30:30Z</time>
      </trkpt>
      <trkpt lat="43.65976" lon="1.11154">
        <ele>158</ele>
        <time>2024-07-11T07:30:31Z</time>
      </trkpt>
      <trkpt lat="43.65979" lon="1.11159">
        <ele>158</ele>
        <time>2024-07-11T07:30:32Z</time>
      </trkpt>
      <trkpt lat="43.65983" lon="1.11165">
        <ele>158</ele>
        <time>2024-07-11T07:30:33Z</time>
      </trkpt>
      <trkpt lat="43.65987" lon="1.1117">
        <ele>158</ele>
        <time>2024-07-11T07:30:34Z</time>
      </trkpt>
      <trkpt lat="43.65991" lon="1.11175">
        <ele>158</ele>
        <time>2024-07-11T07:30:35Z</time>
      </trkpt>
      <trkpt lat="43.65995" lon="1.11181">
        <ele>158.2</ele>
        <time>2024-07-11T07:30:36Z</time>
      </trkpt>
      <trkpt lat="43.65998" lon="1.11186">
        <ele>158.4</ele>
        <time>2024-07-11T07:30:37Z</time>
      </trkpt>
      <trkpt lat="43.66002" lon="1.11192">
        <ele>158.4</ele>
        <time>2024-07-11T07:30:38Z</time>
      </trkpt>
      <trkpt lat="43.66007" lon="1.11199">
        <ele>158.8</ele>
        <time>2024-07-11T07:30:39Z</time>
      </trkpt>
      <trkpt lat="43.66011" lon="1.11204">
        <ele>158.8</ele>
        <time>2024-07-11T07:30:40Z</time>
      </trkpt>
      <trkpt lat="43.66015" lon="1.1121">
        <ele>159.2</ele>
        <time>2024-07-11T07:30:41Z</time>
      </trkpt>
      <trkpt lat="43.66018" lon="1.11214">
        <ele>159.2</ele>
        <time>2024-07-11T07:30:42Z</time>
      </trkpt>
      <trkpt lat="43.66021" lon="1.1122">
        <ele>159.4</ele>
        <time>2024-07-11T07:30:43Z</time>
      </trkpt>
      <trkpt lat="43.66025" lon="1.11225">
        <ele>159.6</ele>
        <time>2024-07-11T07:30:44Z</time>
      </trkpt>
      <trkpt lat="43.6603" lon="1.11232">
        <ele>159.6</ele>
        <time>2024-07-11T07:30:45Z</time>
      </trkpt>
      <trkpt lat="43.66033" lon="1.11237">
        <ele>159.8</ele>
        <time>2024-07-11T07:30:46Z</time>
      </trkpt>
      <trkpt lat="43.66037" lon="1.11242">
        <ele>159.8</ele>
        <time>2024-07-11T07:30:47Z</time>
      </trkpt>
      <trkpt lat="43.66041" lon="1.11248">
        <ele>160</ele>
        <time>2024-07-11T07:30:48Z</time>
      </trkpt>
      <trkpt lat="43.66045" lon="1.11255">
        <ele>160.2</ele>
        <time>2024-07-11T07:30:49Z</time>
      </trkpt>
      <trkpt lat="43.66048" lon="1.11259">
        <ele>160.2</ele>
        <time>2024-07-11T07:30:50Z</time>
      </trkpt>
      <trkpt lat="43.66052" lon="1.11265">
        <ele>160.4</ele>
        <time>2024-07-11T07:30:51Z</time>
      </trkpt>
      <trkpt lat="43.66056" lon="1.1127">
        <ele>160.4</ele>
        <time>2024-07-11T07:30:52Z</time>
      </trkpt>
      <trkpt lat="43.6606" lon="1.11277">
        <ele>160.4</ele>
        <time>2024-07-11T07:30:53Z</time>
      </trkpt>
      <trkpt lat="43.66064" lon="1.11282">
        <ele>160.4</ele>
        <time>2024-07-11T07:30:54Z</time>
      </trkpt>
      <trkpt lat="43.66067" lon="1.11287">
        <ele>160.6</ele>
        <time>2024-07-11T07:30:55Z</time>
      </trkpt>
      <trkpt lat="43.6607" lon="1.11291">
        <ele>160.8</ele>
        <time>2024-07-11T07:30:56Z</time>
      </trkpt>
      <trkpt lat="43.66074" lon="1.11296">
        <ele>161</ele>
        <time>2024-07-11T07:30:57Z</time>
      </trkpt>
      <trkpt lat="43.66078" lon="1.11302">
        <ele>161.4</ele>
        <time>2024-07-11T07:30:58Z</time>
      </trkpt>
      <trkpt lat="43.66081" lon="1.11306">
        <ele>161.6</ele>
        <time>2024-07-11T07:30:59Z</time>
      </trkpt>
      <trkpt lat="43.66083" lon="1.1131">
        <ele>161.6</ele>
        <time>2024-07-11T07:31:00Z</time>
      </trkpt>
      <trkpt lat="43.66087" lon="1.11314">
        <ele>161.8</ele>
        <time>2024-07-11T07:31:01Z</time>
      </trkpt>
      <trkpt lat="43.6609" lon="1.11319">
        <ele>162.6</ele>
        <time>2024-07-11T07:31:02Z</time>
      </trkpt>
      <trkpt lat="43.66093" lon="1.11324">
        <ele>162.8</ele>
        <time>2024-07-11T07:31:03Z</time>
      </trkpt>
      <trkpt lat="43.66096" lon="1.11329">
        <ele>163</ele>
        <time>2024-07-11T07:31:04Z</time>
      </trkpt>
      <trkpt lat="43.66099" lon="1.11333">
        <ele>163.6</ele>
        <time>2024-07-11T07:31:05Z</time>
      </trkpt>
      <trkpt lat="43.66102" lon="1.11337">
        <ele>163.8</ele>
        <time>2024-07-11T07:31:06Z</time>
      </trkpt>
      <trkpt lat="43.66105" lon="1.11342">
        <ele>164.2</ele>
        <time>2024-07-11T07:31:07Z</time>
      </trkpt>
      <trkpt lat="43.66108" lon="1.11347">
        <ele>164.4</ele>
        <time>2024-07-11T07:31:08Z</time>
      </trkpt>
      <trkpt lat="43.66111" lon="1.11351">
        <ele>164.6</ele>
        <time>2024-07-11T07:31:09Z</time>
      </trkpt>
      <trkpt lat="43.66114" lon="1.11354">
        <ele>165</ele>
        <time>2024-07-11T07:31:10Z</time>
      </trkpt>
      <trkpt lat="43.66117" lon="1.11359">
        <ele>165</ele>
        <time>2024-07-11T07:31:11Z</time>
      </trkpt>
      <trkpt lat="43.6612" lon="1.11364">
        <ele>165.4</ele>
        <time>2024-07-11T07:31:12Z</time>
      </trkpt>
      <trkpt lat="43.66123" lon="1.11369">
        <ele>166</ele>
        <time>2024-07-11T07:31:13Z</time>
      </trkpt>
      <trkpt lat="43.66126" lon="1.11372">
        <ele>166.6</ele>
        <time>2024-07-11T07:31:14Z</time>
      </trkpt>
      <trkpt lat="43.66129" lon="1.11377">
        <ele>167</ele>
        <time>2024-07-11T07:31:15Z</time>
      </trkpt>
      <trkpt lat="43.66132" lon="1.11381">
        <ele>167.2</ele>
        <time>2024-07-11T07:31:16Z</time>
      </trkpt>
      <trkpt lat="43.66135" lon="1.11385">
        <ele>167.4</ele>
        <time>2024-07-11T07:31:17Z</time>
      </trkpt>
      <trkpt lat="43.66138" lon="1.11389">
        <ele>167.6</ele>
        <time>2024-07-11T07:31:18Z</time>
      </trkpt>
      <trkpt lat="43.66138" lon="1.11389">
        <ele>168.2</ele>
        <time>2024-07-11T07:31:19Z</time>
      </trkpt>
      <trkpt lat="43.66143" lon="1.11397">
        <ele>168.4</ele>
        <time>2024-07-11T07:31:20Z</time>
      </trkpt>
      <trkpt lat="43.66146" lon="1.11401">
        <ele>169</ele>
        <time>2024-07-11T07:31:21Z</time>
      </trkpt>
      <trkpt lat="43.66148" lon="1.11405">
        <ele>169.4</ele>
        <time>2024-07-11T07:31:22Z</time>
      </trkpt>
      <trkpt lat="43.66151" lon="1.11409">
        <ele>169.8</ele>
        <time>2024-07-11T07:31:23Z</time>
      </trkpt>
      <trkpt lat="43.66154" lon="1.11413">
        <ele>170.2</ele>
        <time>2024-07-11T07:31:24Z</time>
      </trkpt>
      <trkpt lat="43.66156" lon="1.11417">
        <ele>170.4</ele>
        <time>2024-07-11T07:31:25Z</time>
      </trkpt>
      <trkpt lat="43.66159" lon="1.11422">
        <ele>170.8</ele>
        <time>2024-07-11T07:31:26Z</time>
      </trkpt>
      <trkpt lat="43.66162" lon="1.11426">
        <ele>171.2</ele>
        <time>2024-07-11T07:31:27Z</time>
      </trkpt>
      <trkpt lat="43.66165" lon="1.1143">
        <ele>171.4</ele>
        <time>2024-07-11T07:31:28Z</time>
      </trkpt>
      <trkpt lat="43.66167" lon="1.11433">
        <ele>171.8</ele>
        <time>2024-07-11T07:31:29Z</time>
      </trkpt>
      <trkpt lat="43.6617" lon="1.11437">
        <ele>172</ele>
        <time>2024-07-11T07:31:30Z</time>
      </trkpt>
      <trkpt lat="43.66174" lon="1.11442">
        <ele>172.4</ele>
        <time>2024-07-11T07:31:31Z</time>
      </trkpt>
      <trkpt lat="43.66176" lon="1.11446">
        <ele>172.6</ele>
        <time>2024-07-11T07:31:32Z</time>
      </trkpt>
      <trkpt lat="43.66179" lon="1.1145">
        <ele>173.2</ele>
        <time>2024-07-11T07:31:33Z</time>
      </trkpt>
      <trkpt lat="43.66181" lon="1.11453">
        <ele>173.6</ele>
        <time>2024-07-11T07:31:34Z</time>
      </trkpt>
      <trkpt lat="43.66184" lon="1.11457">
        <ele>173.8</ele>
        <time>2024-07-11T07:31:35Z</time>
      </trkpt>
      <trkpt lat="43.66188" lon="1.11462">
        <ele>174.2</ele>
        <time>2024-07-11T07:31:36Z</time>
      </trkpt>
      <trkpt lat="43.66191" lon="1.11466">
        <ele>174.2</ele>
        <time>2024-07-11T07:31:37Z</time>
      </trkpt>
      <trkpt lat="43.66193" lon="1.1147">
        <ele>174.6</ele>
        <time>2024-07-11T07:31:38Z</time>
      </trkpt>
      <trkpt lat="43.66197" lon="1.11474">
        <ele>174.6</ele>
        <time>2024-07-11T07:31:39Z</time>
      </trkpt>
      <trkpt lat="43.66199" lon="1.11478">
        <ele>174.8</ele>
        <time>2024-07-11T07:31:40Z</time>
      </trkpt>
      <trkpt lat="43.66202" lon="1.11483">
        <ele>175</ele>
        <time>2024-07-11T07:31:41Z</time>
      </trkpt>
      <trkpt lat="43.66205" lon="1.11486">
        <ele>175.2</ele>
        <time>2024-07-11T07:31:42Z</time>
      </trkpt>
      <trkpt lat="43.66207" lon="1.11489">
        <ele>175.4</ele>
        <time>2024-07-11T07:31:43Z</time>
      </trkpt>
      <trkpt lat="43.6621" lon="1.11493">
        <ele>175.6</ele>
        <time>2024-07-11T07:31:44Z</time>
      </trkpt>
      <trkpt lat="43.66213" lon="1.11497">
        <ele>176</ele>
        <time>2024-07-11T07:31:45Z</time>
      </trkpt>
      <trkpt lat="43.66216" lon="1.11501">
        <ele>176.4</ele>
        <time>2024-07-11T07:31:46Z</time>
      </trkpt>
      <trkpt lat="43.66218" lon="1.11505">
        <ele>176.8</ele>
        <time>2024-07-11T07:31:47Z</time>
      </trkpt>
      <trkpt lat="43.66221" lon="1.11509">
        <ele>177</ele>
        <time>2024-07-11T07:31:48Z</time>
      </trkpt>
      <trkpt lat="43.66224" lon="1.11513">
        <ele>177.2</ele>
        <time>2024-07-11T07:31:49Z</time>
      </trkpt>
      <trkpt lat="43.66227" lon="1.11517">
        <ele>177.6</ele>
        <time>2024-07-11T07:31:50Z</time>
      </trkpt>
      <trkpt lat="43.6623" lon="1.11521">
        <ele>177.8</ele>
        <time>2024-07-11T07:31:51Z</time>
      </trkpt>
      <trkpt lat="43.66232" lon="1.11525">
        <ele>178.2</ele>
        <time>2024-07-11T07:31:52Z</time>
      </trkpt>
      <trkpt lat="43.66235" lon="1.11529">
        <ele>178.6</ele>
        <time>2024-07-11T07:31:53Z</time>
      </trkpt>
      <trkpt lat="43.66238" lon="1.11532">
        <ele>178.8</ele>
        <time>2024-07-11T07:31:54Z</time>
      </trkpt>
      <trkpt lat="43.6624" lon="1.11537">
        <ele>179</ele>
        <time>2024-07-11T07:31:55Z</time>
      </trkpt>
      <trkpt lat="43.66243" lon="1.1154">
        <ele>179.2</ele>
        <time>2024-07-11T07:31:56Z</time>
      </trkpt>
      <trkpt lat="43.66245" lon="1.11544">
        <ele>179.6</ele>
        <time>2024-07-11T07:31:57Z</time>
      </trkpt>
      <trkpt lat="43.66248" lon="1.11548">
        <ele>180</ele>
        <time>2024-07-11T07:31:58Z</time>
      </trkpt>
      <trkpt lat="43.66251" lon="1.11552">
        <ele>180.2</ele>
        <time>2024-07-11T07:31:59Z</time>
      </trkpt>
      <trkpt lat="43.66254" lon="1.11556">
        <ele>180.4</ele>
        <time>2024-07-11T07:32:00Z</time>
      </trkpt>
      <trkpt lat="43.66257" lon="1.1156">
        <ele>180.6</ele>
        <time>2024-07-11T07:32:01Z</time>
      </trkpt>
      <trkpt lat="43.66259" lon="1.11563">
        <ele>181</ele>
        <time>2024-07-11T07:32:02Z</time>
      </trkpt>
      <trkpt lat="43.66262" lon="1.11567">
        <ele>181</ele>
        <time>2024-07-11T07:32:03Z</time>
      </trkpt>
      <trkpt lat="43.66265" lon="1.11571">
        <ele>181.2</ele>
        <time>2024-07-11T07:32:04Z</time>
      </trkpt>
      <trkpt lat="43.66268" lon="1.11575">
        <ele>181.4</ele>
        <time>2024-07-11T07:32:05Z</time>
      </trkpt>
      <trkpt lat="43.6627" lon="1.11578">
        <ele>181.8</ele>
        <time>2024-07-11T07:32:06Z</time>
      </trkpt>
      <trkpt lat="43.66273" lon="1.11582">
        <ele>182.2</ele>
        <time>2024-07-11T07:32:07Z</time>
      </trkpt>
      <trkpt lat="43.66276" lon="1.11585">
        <ele>182.2</ele>
        <time>2024-07-11T07:32:08Z</time>
      </trkpt>
      <trkpt lat="43.66278" lon="1.11589">
        <ele>182.6</ele>
        <time>2024-07-11T07:32:09Z</time>
      </trkpt>
      <trkpt lat="43.66281" lon="1.11593">
        <ele>182.6</ele>
        <time>2024-07-11T07:32:10Z</time>
      </trkpt>
      <trkpt lat="43.66284" lon="1.11596">
        <ele>183</ele>
        <time>2024-07-11T07:32:11Z</time>
      </trkpt>
      <trkpt lat="43.66287" lon="1.11599">
        <ele>183.2</ele>
        <time>2024-07-11T07:32:12Z</time>
      </trkpt>
      <trkpt lat="43.66287" lon="1.11599">
        <ele>183.4</ele>
        <time>2024-07-11T07:32:13Z</time>
      </trkpt>
      <trkpt lat="43.66293" lon="1.11606">
        <ele>183.8</ele>
        <time>2024-07-11T07:32:14Z</time>
      </trkpt>
      <trkpt lat="43.66296" lon="1.11609">
        <ele>184</ele>
        <time>2024-07-11T07:32:15Z</time>
      </trkpt>
      <trkpt lat="43.66299" lon="1.11611">
        <ele>184.2</ele>
        <time>2024-07-11T07:32:16Z</time>
      </trkpt>
      <trkpt lat="43.66302" lon="1.11614">
        <ele>184.4</ele>
        <time>2024-07-11T07:32:17Z</time>
      </trkpt>
      <trkpt lat="43.66305" lon="1.11617">
        <ele>184.6</ele>
        <time>2024-07-11T07:32:18Z</time>
      </trkpt>
      <trkpt lat="43.66308" lon="1.1162">
        <ele>184.8</ele>
        <time>2024-07-11T07:32:19Z</time>
      </trkpt>
      <trkpt lat="43.66311" lon="1.11623">
        <ele>185</ele>
        <time>2024-07-11T07:32:20Z</time>
      </trkpt>
      <trkpt lat="43.66315" lon="1.11625">
        <ele>185.2</ele>
        <time>2024-07-11T07:32:21Z</time>
      </trkpt>
      <trkpt lat="43.66318" lon="1.11628">
        <ele>185.4</ele>
        <time>2024-07-11T07:32:22Z</time>
      </trkpt>
      <trkpt lat="43.66322" lon="1.1163">
        <ele>185.6</ele>
        <time>2024-07-11T07:32:23Z</time>
      </trkpt>
      <trkpt lat="43.66326" lon="1.11632">
        <ele>185.6</ele>
        <time>2024-07-11T07:32:24Z</time>
      </trkpt>
      <trkpt lat="43.66329" lon="1.11635">
        <ele>185.8</ele>
        <time>2024-07-11T07:32:25Z</time>
      </trkpt>
      <trkpt lat="43.66334" lon="1.11637">
        <ele>185.8</ele>
        <time>2024-07-11T07:32:26Z</time>
      </trkpt>
      <trkpt lat="43.66337" lon="1.11639">
        <ele>186</ele>
        <time>2024-07-11T07:32:27Z</time>
      </trkpt>
      <trkpt lat="43.66341" lon="1.11641">
        <ele>186</ele>
        <time>2024-07-11T07:32:28Z</time>
      </trkpt>
      <trkpt lat="43.66344" lon="1.11644">
        <ele>186.2</ele>
        <time>2024-07-11T07:32:29Z</time>
      </trkpt>
      <trkpt lat="43.66348" lon="1.11646">
        <ele>186.4</ele>
        <time>2024-07-11T07:32:30Z</time>
      </trkpt>
      <trkpt lat="43.66352" lon="1.11648">
        <ele>186.4</ele>
        <time>2024-07-11T07:32:31Z</time>
      </trkpt>
      <trkpt lat="43.66356" lon="1.1165">
        <ele>186.6</ele>
        <time>2024-07-11T07:32:32Z</time>
      </trkpt>
      <trkpt lat="43.6636" lon="1.11652">
        <ele>186.6</ele>
        <time>2024-07-11T07:32:33Z</time>
      </trkpt>
      <trkpt lat="43.66363" lon="1.11654">
        <ele>186.8</ele>
        <time>2024-07-11T07:32:34Z</time>
      </trkpt>
      <trkpt lat="43.66367" lon="1.11656">
        <ele>187</ele>
        <time>2024-07-11T07:32:35Z</time>
      </trkpt>
      <trkpt lat="43.66371" lon="1.11659">
        <ele>187.2</ele>
        <time>2024-07-11T07:32:36Z</time>
      </trkpt>
      <trkpt lat="43.66375" lon="1.11661">
        <ele>187.4</ele>
        <time>2024-07-11T07:32:37Z</time>
      </trkpt>
      <trkpt lat="43.66378" lon="1.11663">
        <ele>187.8</ele>
        <time>2024-07-11T07:32:38Z</time>
      </trkpt>
      <trkpt lat="43.66382" lon="1.11665">
        <ele>187.8</ele>
        <time>2024-07-11T07:32:39Z</time>
      </trkpt>
      <trkpt lat="43.66386" lon="1.11667">
        <ele>188</ele>
        <time>2024-07-11T07:32:40Z</time>
      </trkpt>
      <trkpt lat="43.66391" lon="1.11669">
        <ele>188.2</ele>
        <time>2024-07-11T07:32:41Z</time>
      </trkpt>
      <trkpt lat="43.66394" lon="1.11672">
        <ele>188.2</ele>
        <time>2024-07-11T07:32:42Z</time>
      </trkpt>
      <trkpt lat="43.66398" lon="1.11674">
        <ele>188.4</ele>
        <time>2024-07-11T07:32:43Z</time>
      </trkpt>
      <trkpt lat="43.66401" lon="1.11675">
        <ele>188.4</ele>
        <time>2024-07-11T07:32:44Z</time>
      </trkpt>
      <trkpt lat="43.66405" lon="1.11677">
        <ele>188.6</ele>
        <time>2024-07-11T07:32:45Z</time>
      </trkpt>
      <trkpt lat="43.6641" lon="1.11679">
        <ele>188.8</ele>
        <time>2024-07-11T07:32:46Z</time>
      </trkpt>
      <trkpt lat="43.66413" lon="1.11681">
        <ele>189</ele>
        <time>2024-07-11T07:32:47Z</time>
      </trkpt>
      <trkpt lat="43.66416" lon="1.11682">
        <ele>189</ele>
        <time>2024-07-11T07:32:48Z</time>
      </trkpt>
      <trkpt lat="43.6642" lon="1.11684">
        <ele>189.2</ele>
        <time>2024-07-11T07:32:49Z</time>
      </trkpt>
      <trkpt lat="43.66424" lon="1.11685">
        <ele>189.6</ele>
        <time>2024-07-11T07:32:50Z</time>
      </trkpt>
      <trkpt lat="43.66429" lon="1.11686">
        <ele>189.8</ele>
        <time>2024-07-11T07:32:51Z</time>
      </trkpt>
      <trkpt lat="43.66432" lon="1.11687">
        <ele>190</ele>
        <time>2024-07-11T07:32:52Z</time>
      </trkpt>
      <trkpt lat="43.66435" lon="1.11688">
        <ele>190</ele>
        <time>2024-07-11T07:32:53Z</time>
      </trkpt>
      <trkpt lat="43.66439" lon="1.11688">
        <ele>190.2</ele>
        <time>2024-07-11T07:32:54Z</time>
      </trkpt>
      <trkpt lat="43.66443" lon="1.11689">
        <ele>190.4</ele>
        <time>2024-07-11T07:32:55Z</time>
      </trkpt>
      <trkpt lat="43.66447" lon="1.11689">
        <ele>190.8</ele>
        <time>2024-07-11T07:32:56Z</time>
      </trkpt>
      <trkpt lat="43.66451" lon="1.11689">
        <ele>191.2</ele>
        <time>2024-07-11T07:32:57Z</time>
      </trkpt>
      <trkpt lat="43.66454" lon="1.1169">
        <ele>191.4</ele>
        <time>2024-07-11T07:32:58Z</time>
      </trkpt>
      <trkpt lat="43.66458" lon="1.1169">
        <ele>191.8</ele>
        <time>2024-07-11T07:32:59Z</time>
      </trkpt>
      <trkpt lat="43.66462" lon="1.1169">
        <ele>191.8</ele>
        <time>2024-07-11T07:33:00Z</time>
      </trkpt>
      <trkpt lat="43.66466" lon="1.1169">
        <ele>192.2</ele>
        <time>2024-07-11T07:33:01Z</time>
      </trkpt>
      <trkpt lat="43.66469" lon="1.1169">
        <ele>192.4</ele>
        <time>2024-07-11T07:33:02Z</time>
      </trkpt>
      <trkpt lat="43.66473" lon="1.1169">
        <ele>192.6</ele>
        <time>2024-07-11T07:33:03Z</time>
      </trkpt>
      <trkpt lat="43.66476" lon="1.1169">
        <ele>193</ele>
        <time>2024-07-11T07:33:04Z</time>
      </trkpt>
      <trkpt lat="43.6648" lon="1.1169">
        <ele>193.2</ele>
        <time>2024-07-11T07:33:05Z</time>
      </trkpt>
      <trkpt lat="43.66484" lon="1.11689">
        <ele>193.4</ele>
        <time>2024-07-11T07:33:06Z</time>
      </trkpt>
      <trkpt lat="43.66488" lon="1.11688">
        <ele>193.6</ele>
        <time>2024-07-11T07:33:07Z</time>
      </trkpt>
      <trkpt lat="43.66491" lon="1.11687">
        <ele>194</ele>
        <time>2024-07-11T07:33:08Z</time>
      </trkpt>
      <trkpt lat="43.66495" lon="1.11687">
        <ele>194.4</ele>
        <time>2024-07-11T07:33:09Z</time>
      </trkpt>
      <trkpt lat="43.66499" lon="1.11686">
        <ele>194.6</ele>
        <time>2024-07-11T07:33:10Z</time>
      </trkpt>
      <trkpt lat="43.66503" lon="1.11685">
        <ele>194.8</ele>
        <time>2024-07-11T07:33:11Z</time>
      </trkpt>
      <trkpt lat="43.66507" lon="1.11684">
        <ele>195</ele>
        <time>2024-07-11T07:33:12Z</time>
      </trkpt>
      <trkpt lat="43.66511" lon="1.11683">
        <ele>195.2</ele>
        <time>2024-07-11T07:33:13Z</time>
      </trkpt>
      <trkpt lat="43.66515" lon="1.11682">
        <ele>195.4</ele>
        <time>2024-07-11T07:33:14Z</time>
      </trkpt>
      <trkpt lat="43.66519" lon="1.11681">
        <ele>195.6</ele>
        <time>2024-07-11T07:33:15Z</time>
      </trkpt>
      <trkpt lat="43.66524" lon="1.11679">
        <ele>195.8</ele>
        <time>2024-07-11T07:33:16Z</time>
      </trkpt>
      <trkpt lat="43.66528" lon="1.11678">
        <ele>196.2</ele>
        <time>2024-07-11T07:33:17Z</time>
      </trkpt>
      <trkpt lat="43.66533" lon="1.11677">
        <ele>196.6</ele>
        <time>2024-07-11T07:33:18Z</time>
      </trkpt>
      <trkpt lat="43.66538" lon="1.11675">
        <ele>196.8</ele>
        <time>2024-07-11T07:33:19Z</time>
      </trkpt>
      <trkpt lat="43.66543" lon="1.11674">
        <ele>197</ele>
        <time>2024-07-11T07:33:20Z</time>
      </trkpt>
      <trkpt lat="43.66546" lon="1.11673">
        <ele>197</ele>
        <time>2024-07-11T07:33:21Z</time>
      </trkpt>
      <trkpt lat="43.66551" lon="1.11671">
        <ele>197</ele>
        <time>2024-07-11T07:33:22Z</time>
      </trkpt>
      <trkpt lat="43.66556" lon="1.1167">
        <ele>197.2</ele>
        <time>2024-07-11T07:33:23Z</time>
      </trkpt>
      <trkpt lat="43.66561" lon="1.11668">
        <ele>197.2</ele>
        <time>2024-07-11T07:33:24Z</time>
      </trkpt>
      <trkpt lat="43.66566" lon="1.11667">
        <ele>197.2</ele>
        <time>2024-07-11T07:33:25Z</time>
      </trkpt>
      <trkpt lat="43.66571" lon="1.11666">
        <ele>197.2</ele>
        <time>2024-07-11T07:33:26Z</time>
      </trkpt>
      <trkpt lat="43.66575" lon="1.11664">
        <ele>197.6</ele>
        <time>2024-07-11T07:33:27Z</time>
      </trkpt>
      <trkpt lat="43.66579" lon="1.11663">
        <ele>197.8</ele>
        <time>2024-07-11T07:33:28Z</time>
      </trkpt>
      <trkpt lat="43.66585" lon="1.11662">
        <ele>197.8</ele>
        <time>2024-07-11T07:33:29Z</time>
      </trkpt>
      <trkpt lat="43.66589" lon="1.1166">
        <ele>198</ele>
        <time>2024-07-11T07:33:30Z</time>
      </trkpt>
      <trkpt lat="43.66593" lon="1.11659">
        <ele>198</ele>
        <time>2024-07-11T07:33:31Z</time>
      </trkpt>
      <trkpt lat="43.66597" lon="1.11658">
        <ele>198</ele>
        <time>2024-07-11T07:33:32Z</time>
      </trkpt>
      <trkpt lat="43.66603" lon="1.11656">
        <ele>198</ele>
        <time>2024-07-11T07:33:33Z</time>
      </trkpt>
      <trkpt lat="43.66607" lon="1.11655">
        <ele>198</ele>
        <time>2024-07-11T07:33:34Z</time>
      </trkpt>
      <trkpt lat="43.66611" lon="1.11654">
        <ele>198.4</ele>
        <time>2024-07-11T07:33:35Z</time>
      </trkpt>
      <trkpt lat="43.66615" lon="1.11653">
        <ele>198.6</ele>
        <time>2024-07-11T07:33:36Z</time>
      </trkpt>
      <trkpt lat="43.66619" lon="1.11651">
        <ele>199</ele>
        <time>2024-07-11T07:33:37Z</time>
      </trkpt>
      <trkpt lat="43.66624" lon="1.1165">
        <ele>199</ele>
        <time>2024-07-11T07:33:38Z</time>
      </trkpt>
      <trkpt lat="43.66628" lon="1.11648">
        <ele>199.2</ele>
        <time>2024-07-11T07:33:39Z</time>
      </trkpt>
      <trkpt lat="43.66632" lon="1.11647">
        <ele>199.6</ele>
        <time>2024-07-11T07:33:40Z</time>
      </trkpt>
      <trkpt lat="43.66635" lon="1.11646">
        <ele>199.8</ele>
        <time>2024-07-11T07:33:41Z</time>
      </trkpt>
      <trkpt lat="43.66639" lon="1.11644">
        <ele>200.4</ele>
        <time>2024-07-11T07:33:42Z</time>
      </trkpt>
      <trkpt lat="43.66644" lon="1.11642">
        <ele>200.8</ele>
        <time>2024-07-11T07:33:43Z</time>
      </trkpt>
      <trkpt lat="43.66648" lon="1.11641">
        <ele>201.4</ele>
        <time>2024-07-11T07:33:44Z</time>
      </trkpt>
      <trkpt lat="43.66651" lon="1.11639">
        <ele>201.6</ele>
        <time>2024-07-11T07:33:45Z</time>
      </trkpt>
      <trkpt lat="43.66654" lon="1.11638">
        <ele>202</ele>
        <time>2024-07-11T07:33:46Z</time>
      </trkpt>
      <trkpt lat="43.66658" lon="1.11637">
        <ele>202.2</ele>
        <time>2024-07-11T07:33:47Z</time>
      </trkpt>
      <trkpt lat="43.66662" lon="1.11636">
        <ele>202.2</ele>
        <time>2024-07-11T07:33:48Z</time>
      </trkpt>
      <trkpt lat="43.66666" lon="1.11635">
        <ele>202.8</ele>
        <time>2024-07-11T07:33:49Z</time>
      </trkpt>
      <trkpt lat="43.66668" lon="1.11634">
        <ele>203.2</ele>
        <time>2024-07-11T07:33:50Z</time>
      </trkpt>
      <trkpt lat="43.66672" lon="1.11632">
        <ele>203.6</ele>
        <time>2024-07-11T07:33:51Z</time>
      </trkpt>
      <trkpt lat="43.66676" lon="1.11631">
        <ele>203.8</ele>
        <time>2024-07-11T07:33:52Z</time>
      </trkpt>
      <trkpt lat="43.6668" lon="1.11629">
        <ele>204.2</ele>
        <time>2024-07-11T07:33:53Z</time>
      </trkpt>
      <trkpt lat="43.66683" lon="1.11628">
        <ele>204.4</ele>
        <time>2024-07-11T07:33:54Z</time>
      </trkpt>
      <trkpt lat="43.66686" lon="1.11626">
        <ele>204.6</ele>
        <time>2024-07-11T07:33:55Z</time>
      </trkpt>
      <trkpt lat="43.66689" lon="1.11625">
        <ele>205</ele>
        <time>2024-07-11T07:33:56Z</time>
      </trkpt>
      <trkpt lat="43.66693" lon="1.11623">
        <ele>205.2</ele>
        <time>2024-07-11T07:33:57Z</time>
      </trkpt>
      <trkpt lat="43.66697" lon="1.11621">
        <ele>205.4</ele>
        <time>2024-07-11T07:33:58Z</time>
      </trkpt>
      <trkpt lat="43.667" lon="1.1162">
        <ele>205.8</ele>
        <time>2024-07-11T07:33:59Z</time>
      </trkpt>
      <trkpt lat="43.66704" lon="1.11619">
        <ele>206</ele>
        <time>2024-07-11T07:34:00Z</time>
      </trkpt>
      <trkpt lat="43.66708" lon="1.11617">
        <ele>206.4</ele>
        <time>2024-07-11T07:34:01Z</time>
      </trkpt>
      <trkpt lat="43.66712" lon="1.11615">
        <ele>206.6</ele>
        <time>2024-07-11T07:34:02Z</time>
      </trkpt>
      <trkpt lat="43.66716" lon="1.11613">
        <ele>206.8</ele>
        <time>2024-07-11T07:34:03Z</time>
      </trkpt>
      <trkpt lat="43.6672" lon="1.11612">
        <ele>207</ele>
        <time>2024-07-11T07:34:04Z</time>
      </trkpt>
      <trkpt lat="43.66724" lon="1.1161">
        <ele>207.2</ele>
        <time>2024-07-11T07:34:05Z</time>
      </trkpt>
      <trkpt lat="43.66729" lon="1.11608">
        <ele>207.4</ele>
        <time>2024-07-11T07:34:06Z</time>
      </trkpt>
      <trkpt lat="43.66734" lon="1.11605">
        <ele>207.4</ele>
        <time>2024-07-11T07:34:07Z</time>
      </trkpt>
      <trkpt lat="43.66738" lon="1.11604">
        <ele>207.4</ele>
        <time>2024-07-11T07:34:08Z</time>
      </trkpt>
      <trkpt lat="43.66743" lon="1.11602">
        <ele>207.4</ele>
        <time>2024-07-11T07:34:09Z</time>
      </trkpt>
      <trkpt lat="43.66748" lon="1.116">
        <ele>207.4</ele>
        <time>2024-07-11T07:34:10Z</time>
      </trkpt>
      <trkpt lat="43.66754" lon="1.11597">
        <ele>207.4</ele>
        <time>2024-07-11T07:34:11Z</time>
      </trkpt>
      <trkpt lat="43.66758" lon="1.11595">
        <ele>207.4</ele>
        <time>2024-07-11T07:34:12Z</time>
      </trkpt>
      <trkpt lat="43.66765" lon="1.11592">
        <ele>207.4</ele>
        <time>2024-07-11T07:34:13Z</time>
      </trkpt>
      <trkpt lat="43.66769" lon="1.1159">
        <ele>207.4</ele>
        <time>2024-07-11T07:34:14Z</time>
      </trkpt>
      <trkpt lat="43.66774" lon="1.11588">
        <ele>207.4</ele>
        <time>2024-07-11T07:34:15Z</time>
      </trkpt>
      <trkpt lat="43.66781" lon="1.11585">
        <ele>207.4</ele>
        <time>2024-07-11T07:34:16Z</time>
      </trkpt>
      <trkpt lat="43.66785" lon="1.11582">
        <ele>207.4</ele>
        <time>2024-07-11T07:34:17Z</time>
      </trkpt>
      <trkpt lat="43.66791" lon="1.1158">
        <ele>207.6</ele>
        <time>2024-07-11T07:34:18Z</time>
      </trkpt>
      <trkpt lat="43.66796" lon="1.11577">
        <ele>207.6</ele>
        <time>2024-07-11T07:34:19Z</time>
      </trkpt>
      <trkpt lat="43.66801" lon="1.11575">
        <ele>207.8</ele>
        <time>2024-07-11T07:34:20Z</time>
      </trkpt>
      <trkpt lat="43.66808" lon="1.11572">
        <ele>207.8</ele>
        <time>2024-07-11T07:34:21Z</time>
      </trkpt>
      <trkpt lat="43.66812" lon="1.1157">
        <ele>208</ele>
        <time>2024-07-11T07:34:22Z</time>
      </trkpt>
      <trkpt lat="43.66818" lon="1.11567">
        <ele>208</ele>
        <time>2024-07-11T07:34:23Z</time>
      </trkpt>
      <trkpt lat="43.66823" lon="1.11566">
        <ele>208</ele>
        <time>2024-07-11T07:34:24Z</time>
      </trkpt>
      <trkpt lat="43.66828" lon="1.11563">
        <ele>208</ele>
        <time>2024-07-11T07:34:25Z</time>
      </trkpt>
      <trkpt lat="43.66833" lon="1.11561">
        <ele>208</ele>
        <time>2024-07-11T07:34:26Z</time>
      </trkpt>
      <trkpt lat="43.66839" lon="1.11558">
        <ele>208</ele>
        <time>2024-07-11T07:34:27Z</time>
      </trkpt>
      <trkpt lat="43.66843" lon="1.11556">
        <ele>208</ele>
        <time>2024-07-11T07:34:28Z</time>
      </trkpt>
      <trkpt lat="43.66848" lon="1.11553">
        <ele>208</ele>
        <time>2024-07-11T07:34:29Z</time>
      </trkpt>
      <trkpt lat="43.66854" lon="1.1155">
        <ele>208</ele>
        <time>2024-07-11T07:34:30Z</time>
      </trkpt>
      <trkpt lat="43.66859" lon="1.11548">
        <ele>208</ele>
        <time>2024-07-11T07:34:31Z</time>
      </trkpt>
      <trkpt lat="43.66863" lon="1.11546">
        <ele>208.2</ele>
        <time>2024-07-11T07:34:32Z</time>
      </trkpt>
      <trkpt lat="43.66868" lon="1.11544">
        <ele>208.2</ele>
        <time>2024-07-11T07:34:33Z</time>
      </trkpt>
      <trkpt lat="43.66873" lon="1.11542">
        <ele>208.4</ele>
        <time>2024-07-11T07:34:34Z</time>
      </trkpt>
      <trkpt lat="43.66879" lon="1.1154">
        <ele>208.4</ele>
        <time>2024-07-11T07:34:35Z</time>
      </trkpt>
      <trkpt lat="43.66882" lon="1.11539">
        <ele>208.6</ele>
        <time>2024-07-11T07:34:36Z</time>
      </trkpt>
      <trkpt lat="43.66887" lon="1.11538">
        <ele>208.8</ele>
        <time>2024-07-11T07:34:37Z</time>
      </trkpt>
      <trkpt lat="43.66891" lon="1.11537">
        <ele>209</ele>
        <time>2024-07-11T07:34:38Z</time>
      </trkpt>
      <trkpt lat="43.66895" lon="1.11536">
        <ele>209.2</ele>
        <time>2024-07-11T07:34:39Z</time>
      </trkpt>
      <trkpt lat="43.66899" lon="1.11537">
        <ele>209.4</ele>
        <time>2024-07-11T07:34:40Z</time>
      </trkpt>
      <trkpt lat="43.66903" lon="1.11537">
        <ele>209.6</ele>
        <time>2024-07-11T07:34:41Z</time>
      </trkpt>
      <trkpt lat="43.66906" lon="1.11538">
        <ele>209.6</ele>
        <time>2024-07-11T07:34:42Z</time>
      </trkpt>
      <trkpt lat="43.66908" lon="1.11539">
        <ele>209.8</ele>
        <time>2024-07-11T07:34:43Z</time>
      </trkpt>
      <trkpt lat="43.66912" lon="1.1154">
        <ele>210.2</ele>
        <time>2024-07-11T07:34:44Z</time>
      </trkpt>
      <trkpt lat="43.66915" lon="1.11542">
        <ele>210.4</ele>
        <time>2024-07-11T07:34:45Z</time>
      </trkpt>
      <trkpt lat="43.66918" lon="1.11543">
        <ele>210.6</ele>
        <time>2024-07-11T07:34:46Z</time>
      </trkpt>
      <trkpt lat="43.66921" lon="1.11544">
        <ele>211</ele>
        <time>2024-07-11T07:34:47Z</time>
      </trkpt>
      <trkpt lat="43.66924" lon="1.11545">
        <ele>211.4</ele>
        <time>2024-07-11T07:34:48Z</time>
      </trkpt>
      <trkpt lat="43.66927" lon="1.11546">
        <ele>211.8</ele>
        <time>2024-07-11T07:34:49Z</time>
      </trkpt>
      <trkpt lat="43.66929" lon="1.11547">
        <ele>211.8</ele>
        <time>2024-07-11T07:34:50Z</time>
      </trkpt>
      <trkpt lat="43.66933" lon="1.11547">
        <ele>212.4</ele>
        <time>2024-07-11T07:34:51Z</time>
      </trkpt>
      <trkpt lat="43.66935" lon="1.11548">
        <ele>212.8</ele>
        <time>2024-07-11T07:34:52Z</time>
      </trkpt>
      <trkpt lat="43.66938" lon="1.11549">
        <ele>213.4</ele>
        <time>2024-07-11T07:34:53Z</time>
      </trkpt>
      <trkpt lat="43.66941" lon="1.11549">
        <ele>213.6</ele>
        <time>2024-07-11T07:34:54Z</time>
      </trkpt>
      <trkpt lat="43.66944" lon="1.11549">
        <ele>213.8</ele>
        <time>2024-07-11T07:34:55Z</time>
      </trkpt>
      <trkpt lat="43.66947" lon="1.11549">
        <ele>214.2</ele>
        <time>2024-07-11T07:34:56Z</time>
      </trkpt>
      <trkpt lat="43.6695" lon="1.11549">
        <ele>214.4</ele>
        <time>2024-07-11T07:34:57Z</time>
      </trkpt>
      <trkpt lat="43.66953" lon="1.11549">
        <ele>214.4</ele>
        <time>2024-07-11T07:34:58Z</time>
      </trkpt>
      <trkpt lat="43.66956" lon="1.11548">
        <ele>214.6</ele>
        <time>2024-07-11T07:34:59Z</time>
      </trkpt>
      <trkpt lat="43.66959" lon="1.11548">
        <ele>215</ele>
        <time>2024-07-11T07:35:00Z</time>
      </trkpt>
      <trkpt lat="43.66962" lon="1.11547">
        <ele>215</ele>
        <time>2024-07-11T07:35:01Z</time>
      </trkpt>
      <trkpt lat="43.66965" lon="1.11547">
        <ele>215.6</ele>
        <time>2024-07-11T07:35:02Z</time>
      </trkpt>
      <trkpt lat="43.66967" lon="1.11546">
        <ele>216</ele>
        <time>2024-07-11T07:35:03Z</time>
      </trkpt>
      <trkpt lat="43.6697" lon="1.11545">
        <ele>216.2</ele>
        <time>2024-07-11T07:35:04Z</time>
      </trkpt>
      <trkpt lat="43.66973" lon="1.11543">
        <ele>216.6</ele>
        <time>2024-07-11T07:35:05Z</time>
      </trkpt>
      <trkpt lat="43.66976" lon="1.11542">
        <ele>216.8</ele>
        <time>2024-07-11T07:35:06Z</time>
      </trkpt>
      <trkpt lat="43.66979" lon="1.11541">
        <ele>217</ele>
        <time>2024-07-11T07:35:07Z</time>
      </trkpt>
      <trkpt lat="43.66982" lon="1.1154">
        <ele>217.6</ele>
        <time>2024-07-11T07:35:08Z</time>
      </trkpt>
      <trkpt lat="43.66985" lon="1.11538">
        <ele>217.8</ele>
        <time>2024-07-11T07:35:09Z</time>
      </trkpt>
      <trkpt lat="43.66988" lon="1.11537">
        <ele>218</ele>
        <time>2024-07-11T07:35:10Z</time>
      </trkpt>
      <trkpt lat="43.6699" lon="1.11535">
        <ele>218.2</ele>
        <time>2024-07-11T07:35:11Z</time>
      </trkpt>
      <trkpt lat="43.66993" lon="1.11534">
        <ele>218.4</ele>
        <time>2024-07-11T07:35:12Z</time>
      </trkpt>
      <trkpt lat="43.66996" lon="1.11532">
        <ele>218.4</ele>
        <time>2024-07-11T07:35:13Z</time>
      </trkpt>
      <trkpt lat="43.66999" lon="1.11531">
        <ele>218.6</ele>
        <time>2024-07-11T07:35:14Z</time>
      </trkpt>
      <trkpt lat="43.67002" lon="1.11529">
        <ele>218.8</ele>
        <time>2024-07-11T07:35:15Z</time>
      </trkpt>
      <trkpt lat="43.67005" lon="1.11527">
        <ele>218.8</ele>
        <time>2024-07-11T07:35:16Z</time>
      </trkpt>
      <trkpt lat="43.67007" lon="1.11526">
        <ele>219.2</ele>
        <time>2024-07-11T07:35:17Z</time>
      </trkpt>
      <trkpt lat="43.6701" lon="1.11525">
        <ele>219.2</ele>
        <time>2024-07-11T07:35:18Z</time>
      </trkpt>
      <trkpt lat="43.67012" lon="1.11523">
        <ele>219.4</ele>
        <time>2024-07-11T07:35:19Z</time>
      </trkpt>
      <trkpt lat="43.67016" lon="1.11522">
        <ele>219.4</ele>
        <time>2024-07-11T07:35:20Z</time>
      </trkpt>
      <trkpt lat="43.67018" lon="1.11521">
        <ele>219.6</ele>
        <time>2024-07-11T07:35:21Z</time>
      </trkpt>
      <trkpt lat="43.67021" lon="1.1152">
        <ele>219.6</ele>
        <time>2024-07-11T07:35:22Z</time>
      </trkpt>
      <trkpt lat="43.67025" lon="1.11519">
        <ele>219.8</ele>
        <time>2024-07-11T07:35:23Z</time>
      </trkpt>
      <trkpt lat="43.67028" lon="1.11518">
        <ele>220.2</ele>
        <time>2024-07-11T07:35:24Z</time>
      </trkpt>
      <trkpt lat="43.67031" lon="1.11517">
        <ele>220.2</ele>
        <time>2024-07-11T07:35:25Z</time>
      </trkpt>
      <trkpt lat="43.67034" lon="1.11517">
        <ele>220.6</ele>
        <time>2024-07-11T07:35:26Z</time>
      </trkpt>
      <trkpt lat="43.67037" lon="1.11516">
        <ele>220.8</ele>
        <time>2024-07-11T07:35:27Z</time>
      </trkpt>
      <trkpt lat="43.67041" lon="1.11516">
        <ele>220.8</ele>
        <time>2024-07-11T07:35:28Z</time>
      </trkpt>
      <trkpt lat="43.67043" lon="1.11516">
        <ele>221.2</ele>
        <time>2024-07-11T07:35:29Z</time>
      </trkpt>
      <trkpt lat="43.67047" lon="1.11515">
        <ele>221.4</ele>
        <time>2024-07-11T07:35:30Z</time>
      </trkpt>
      <trkpt lat="43.67049" lon="1.11514">
        <ele>221.6</ele>
        <time>2024-07-11T07:35:31Z</time>
      </trkpt>
      <trkpt lat="43.67052" lon="1.11514">
        <ele>221.8</ele>
        <time>2024-07-11T07:35:32Z</time>
      </trkpt>
      <trkpt lat="43.67055" lon="1.11514">
        <ele>222.2</ele>
        <time>2024-07-11T07:35:33Z</time>
      </trkpt>
      <trkpt lat="43.67058" lon="1.11514">
        <ele>222.4</ele>
        <time>2024-07-11T07:35:34Z</time>
      </trkpt>
      <trkpt lat="43.67061" lon="1.11513">
        <ele>222.6</ele>
        <time>2024-07-11T07:35:35Z</time>
      </trkpt>
      <trkpt lat="43.67064" lon="1.11513">
        <ele>222.8</ele>
        <time>2024-07-11T07:35:36Z</time>
      </trkpt>
      <trkpt lat="43.67067" lon="1.11513">
        <ele>223</ele>
        <time>2024-07-11T07:35:37Z</time>
      </trkpt>
      <trkpt lat="43.6707" lon="1.11513">
        <ele>223.2</ele>
        <time>2024-07-11T07:35:38Z</time>
      </trkpt>
      <trkpt lat="43.67074" lon="1.11512">
        <ele>223.6</ele>
        <time>2024-07-11T07:35:39Z</time>
      </trkpt>
      <trkpt lat="43.67076" lon="1.11511">
        <ele>223.8</ele>
        <time>2024-07-11T07:35:40Z</time>
      </trkpt>
      <trkpt lat="43.67079" lon="1.11511">
        <ele>224.2</ele>
        <time>2024-07-11T07:35:41Z</time>
      </trkpt>
      <trkpt lat="43.67082" lon="1.11511">
        <ele>224.2</ele>
        <time>2024-07-11T07:35:42Z</time>
      </trkpt>
      <trkpt lat="43.67086" lon="1.1151">
        <ele>224.4</ele>
        <time>2024-07-11T07:35:43Z</time>
      </trkpt>
      <trkpt lat="43.67089" lon="1.11509">
        <ele>224.4</ele>
        <time>2024-07-11T07:35:44Z</time>
      </trkpt>
      <trkpt lat="43.67091" lon="1.11508">
        <ele>224.6</ele>
        <time>2024-07-11T07:35:45Z</time>
      </trkpt>
      <trkpt lat="43.67094" lon="1.11506">
        <ele>224.8</ele>
        <time>2024-07-11T07:35:46Z</time>
      </trkpt>
      <trkpt lat="43.67098" lon="1.11504">
        <ele>224.8</ele>
        <time>2024-07-11T07:35:47Z</time>
      </trkpt>
      <trkpt lat="43.67101" lon="1.11503">
        <ele>225</ele>
        <time>2024-07-11T07:35:48Z</time>
      </trkpt>
      <trkpt lat="43.67104" lon="1.11502">
        <ele>225.2</ele>
        <time>2024-07-11T07:35:49Z</time>
      </trkpt>
      <trkpt lat="43.67107" lon="1.115">
        <ele>225.4</ele>
        <time>2024-07-11T07:35:50Z</time>
      </trkpt>
      <trkpt lat="43.6711" lon="1.11498">
        <ele>225.6</ele>
        <time>2024-07-11T07:35:51Z</time>
      </trkpt>
      <trkpt lat="43.67113" lon="1.11496">
        <ele>226</ele>
        <time>2024-07-11T07:35:52Z</time>
      </trkpt>
      <trkpt lat="43.67116" lon="1.11495">
        <ele>226.2</ele>
        <time>2024-07-11T07:35:53Z</time>
      </trkpt>
      <trkpt lat="43.67119" lon="1.11493">
        <ele>226.4</ele>
        <time>2024-07-11T07:35:54Z</time>
      </trkpt>
      <trkpt lat="43.67122" lon="1.11491">
        <ele>226.6</ele>
        <time>2024-07-11T07:35:55Z</time>
      </trkpt>
      <trkpt lat="43.67125" lon="1.11489">
        <ele>226.6</ele>
        <time>2024-07-11T07:35:56Z</time>
      </trkpt>
      <trkpt lat="43.67128" lon="1.11487">
        <ele>226.8</ele>
        <time>2024-07-11T07:35:57Z</time>
      </trkpt>
      <trkpt lat="43.67132" lon="1.11485">
        <ele>226.8</ele>
        <time>2024-07-11T07:35:58Z</time>
      </trkpt>
      <trkpt lat="43.67134" lon="1.11483">
        <ele>227</ele>
        <time>2024-07-11T07:35:59Z</time>
      </trkpt>
      <trkpt lat="43.67137" lon="1.11481">
        <ele>227</ele>
        <time>2024-07-11T07:36:00Z</time>
      </trkpt>
      <trkpt lat="43.6714" lon="1.11479">
        <ele>227.2</ele>
        <time>2024-07-11T07:36:01Z</time>
      </trkpt>
      <trkpt lat="43.67143" lon="1.11478">
        <ele>227.6</ele>
        <time>2024-07-11T07:36:02Z</time>
      </trkpt>
      <trkpt lat="43.67147" lon="1.11475">
        <ele>227.8</ele>
        <time>2024-07-11T07:36:03Z</time>
      </trkpt>
      <trkpt lat="43.6715" lon="1.11474">
        <ele>228</ele>
        <time>2024-07-11T07:36:04Z</time>
      </trkpt>
      <trkpt lat="43.67153" lon="1.11472">
        <ele>228.4</ele>
        <time>2024-07-11T07:36:05Z</time>
      </trkpt>
      <trkpt lat="43.67156" lon="1.1147">
        <ele>228.8</ele>
        <time>2024-07-11T07:36:06Z</time>
      </trkpt>
      <trkpt lat="43.67159" lon="1.11468">
        <ele>229.2</ele>
        <time>2024-07-11T07:36:07Z</time>
      </trkpt>
      <trkpt lat="43.67162" lon="1.11467">
        <ele>229.4</ele>
        <time>2024-07-11T07:36:08Z</time>
      </trkpt>
      <trkpt lat="43.67165" lon="1.11466">
        <ele>229.6</ele>
        <time>2024-07-11T07:36:09Z</time>
      </trkpt>
      <trkpt lat="43.67168" lon="1.11464">
        <ele>229.8</ele>
        <time>2024-07-11T07:36:10Z</time>
      </trkpt>
      <trkpt lat="43.67171" lon="1.11463">
        <ele>230</ele>
        <time>2024-07-11T07:36:11Z</time>
      </trkpt>
      <trkpt lat="43.67175" lon="1.11462">
        <ele>230.6</ele>
        <time>2024-07-11T07:36:12Z</time>
      </trkpt>
      <trkpt lat="43.67178" lon="1.11462">
        <ele>230.8</ele>
        <time>2024-07-11T07:36:13Z</time>
      </trkpt>
      <trkpt lat="43.67181" lon="1.11461">
        <ele>231.4</ele>
        <time>2024-07-11T07:36:14Z</time>
      </trkpt>
      <trkpt lat="43.67184" lon="1.1146">
        <ele>231.6</ele>
        <time>2024-07-11T07:36:15Z</time>
      </trkpt>
      <trkpt lat="43.67187" lon="1.11459">
        <ele>232</ele>
        <time>2024-07-11T07:36:16Z</time>
      </trkpt>
      <trkpt lat="43.6719" lon="1.11458">
        <ele>232</ele>
        <time>2024-07-11T07:36:17Z</time>
      </trkpt>
      <trkpt lat="43.67192" lon="1.11457">
        <ele>232.6</ele>
        <time>2024-07-11T07:36:18Z</time>
      </trkpt>
      <trkpt lat="43.67195" lon="1.11457">
        <ele>233</ele>
        <time>2024-07-11T07:36:19Z</time>
      </trkpt>
      <trkpt lat="43.67197" lon="1.11457">
        <ele>233</ele>
        <time>2024-07-11T07:36:20Z</time>
      </trkpt>
      <trkpt lat="43.67199" lon="1.11456">
        <ele>233.4</ele>
        <time>2024-07-11T07:36:21Z</time>
      </trkpt>
      <trkpt lat="43.672" lon="1.11453">
        <ele>233.4</ele>
        <time>2024-07-11T07:36:22Z</time>
      </trkpt>
      <trkpt lat="43.672" lon="1.11452">
        <ele>233.6</ele>
        <time>2024-07-11T07:36:23Z</time>
      </trkpt>
      <trkpt lat="43.67199" lon="1.11449">
        <ele>233.8</ele>
        <time>2024-07-11T07:36:24Z</time>
      </trkpt>
      <trkpt lat="43.67198" lon="1.11448">
        <ele>234</ele>
        <time>2024-07-11T07:36:25Z</time>
      </trkpt>
      <trkpt lat="43.67197" lon="1.11448">
        <ele>234.2</ele>
        <time>2024-07-11T07:36:26Z</time>
      </trkpt>
      <trkpt lat="43.67196" lon="1.11448">
        <ele>234.2</ele>
        <time>2024-07-11T07:36:27Z</time>
      </trkpt>
      <trkpt lat="43.67195" lon="1.11449">
        <ele>234.2</ele>
        <time>2024-07-11T07:36:28Z</time>
      </trkpt>
      <trkpt lat="43.67193" lon="1.11451">
        <ele>234.2</ele>
        <time>2024-07-11T07:36:29Z</time>
      </trkpt>
      <trkpt lat="43.6719" lon="1.11453">
        <ele>234.2</ele>
        <time>2024-07-11T07:36:30Z</time>
      </trkpt>
      <trkpt lat="43.67188" lon="1.11454">
        <ele>234.4</ele>
        <time>2024-07-11T07:36:31Z</time>
      </trkpt>
      <trkpt lat="43.67185" lon="1.11455">
        <ele>234.4</ele>
        <time>2024-07-11T07:36:32Z</time>
      </trkpt>
      <trkpt lat="43.67182" lon="1.11456">
        <ele>234.4</ele>
        <time>2024-07-11T07:36:33Z</time>
      </trkpt>
      <trkpt lat="43.67178" lon="1.11457">
        <ele>234.4</ele>
        <time>2024-07-11T07:36:34Z</time>
      </trkpt>
      <trkpt lat="43.67174" lon="1.11457">
        <ele>234.4</ele>
        <time>2024-07-11T07:36:35Z</time>
      </trkpt>
      <trkpt lat="43.67171" lon="1.11458">
        <ele>234.2</ele>
        <time>2024-07-11T07:36:36Z</time>
      </trkpt>
      <trkpt lat="43.67168" lon="1.11459">
        <ele>234.2</ele>
        <time>2024-07-11T07:36:37Z</time>
      </trkpt>
      <trkpt lat="43.67164" lon="1.1146">
        <ele>234</ele>
        <time>2024-07-11T07:36:38Z</time>
      </trkpt>
      <trkpt lat="43.6716" lon="1.11462">
        <ele>233.8</ele>
        <time>2024-07-11T07:36:39Z</time>
      </trkpt>
      <trkpt lat="43.67158" lon="1.11463">
        <ele>233.4</ele>
        <time>2024-07-11T07:36:40Z</time>
      </trkpt>
      <trkpt lat="43.67154" lon="1.11465">
        <ele>233.4</ele>
        <time>2024-07-11T07:36:41Z</time>
      </trkpt>
      <trkpt lat="43.67151" lon="1.11467">
        <ele>233.2</ele>
        <time>2024-07-11T07:36:42Z</time>
      </trkpt>
      <trkpt lat="43.67148" lon="1.11469">
        <ele>232.8</ele>
        <time>2024-07-11T07:36:43Z</time>
      </trkpt>
      <trkpt lat="43.67145" lon="1.1147">
        <ele>232.8</ele>
        <time>2024-07-11T07:36:44Z</time>
      </trkpt>
      <trkpt lat="43.67143" lon="1.11472">
        <ele>232.6</ele>
        <time>2024-07-11T07:36:45Z</time>
      </trkpt>
      <trkpt lat="43.6714" lon="1.11473">
        <ele>232.4</ele>
        <time>2024-07-11T07:36:46Z</time>
      </trkpt>
      <trkpt lat="43.67138" lon="1.11475">
        <ele>232</ele>
        <time>2024-07-11T07:36:47Z</time>
      </trkpt>
      <trkpt lat="43.67136" lon="1.11477">
        <ele>231.8</ele>
        <time>2024-07-11T07:36:48Z</time>
      </trkpt>
      <trkpt lat="43.67132" lon="1.1148">
        <ele>231.4</ele>
        <time>2024-07-11T07:36:49Z</time>
      </trkpt>
      <trkpt lat="43.67129" lon="1.11482">
        <ele>231</ele>
        <time>2024-07-11T07:36:50Z</time>
      </trkpt>
      <trkpt lat="43.67126" lon="1.11484">
        <ele>230.8</ele>
        <time>2024-07-11T07:36:51Z</time>
      </trkpt>
      <trkpt lat="43.67123" lon="1.11486">
        <ele>230.6</ele>
        <time>2024-07-11T07:36:52Z</time>
      </trkpt>
      <trkpt lat="43.6712" lon="1.11488">
        <ele>230.6</ele>
        <time>2024-07-11T07:36:53Z</time>
      </trkpt>
      <trkpt lat="43.67116" lon="1.1149">
        <ele>230.2</ele>
        <time>2024-07-11T07:36:54Z</time>
      </trkpt>
      <trkpt lat="43.67114" lon="1.11492">
        <ele>229.8</ele>
        <time>2024-07-11T07:36:55Z</time>
      </trkpt>
      <trkpt lat="43.67112" lon="1.11493">
        <ele>229.6</ele>
        <time>2024-07-11T07:36:56Z</time>
      </trkpt>
      <trkpt lat="43.6711" lon="1.11495">
        <ele>229</ele>
        <time>2024-07-11T07:36:57Z</time>
      </trkpt>
      <trkpt lat="43.67107" lon="1.11496">
        <ele>229</ele>
        <time>2024-07-11T07:36:58Z</time>
      </trkpt>
      <trkpt lat="43.67107" lon="1.11499">
        <ele>228.6</ele>
        <time>2024-07-11T07:36:59Z</time>
      </trkpt>
      <trkpt lat="43.67108" lon="1.115">
        <ele>228.4</ele>
        <time>2024-07-11T07:37:00Z</time>
      </trkpt>
      <trkpt lat="43.6711" lon="1.115">
        <ele>228.2</ele>
        <time>2024-07-11T07:37:01Z</time>
      </trkpt>
      <trkpt lat="43.67111" lon="1.11499">
        <ele>228</ele>
        <time>2024-07-11T07:37:02Z</time>
      </trkpt>
      <trkpt lat="43.67114" lon="1.11497">
        <ele>228</ele>
        <time>2024-07-11T07:37:03Z</time>
      </trkpt>
      <trkpt lat="43.67116" lon="1.11496">
        <ele>228</ele>
        <time>2024-07-11T07:37:04Z</time>
      </trkpt>
      <trkpt lat="43.67119" lon="1.11494">
        <ele>228</ele>
        <time>2024-07-11T07:37:05Z</time>
      </trkpt>
      <trkpt lat="43.6712" lon="1.11493">
        <ele>227.8</ele>
        <time>2024-07-11T07:37:06Z</time>
      </trkpt>
      <trkpt lat="43.67123" lon="1.11491">
        <ele>227.8</ele>
        <time>2024-07-11T07:37:07Z</time>
      </trkpt>
      <trkpt lat="43.67125" lon="1.1149">
        <ele>228</ele>
        <time>2024-07-11T07:37:08Z</time>
      </trkpt>
      <trkpt lat="43.67128" lon="1.11487">
        <ele>228</ele>
        <time>2024-07-11T07:37:09Z</time>
      </trkpt>
      <trkpt lat="43.67131" lon="1.11485">
        <ele>228</ele>
        <time>2024-07-11T07:37:10Z</time>
      </trkpt>
      <trkpt lat="43.67133" lon="1.11484">
        <ele>228</ele>
        <time>2024-07-11T07:37:11Z</time>
      </trkpt>
      <trkpt lat="43.67135" lon="1.11482">
        <ele>228</ele>
        <time>2024-07-11T07:37:12Z</time>
      </trkpt>
      <trkpt lat="43.67138" lon="1.1148">
        <ele>228</ele>
        <time>2024-07-11T07:37:13Z</time>
      </trkpt>
      <trkpt lat="43.67141" lon="1.11479">
        <ele>228.4</ele>
        <time>2024-07-11T07:37:14Z</time>
      </trkpt>
      <trkpt lat="43.67143" lon="1.11478">
        <ele>228.8</ele>
        <time>2024-07-11T07:37:15Z</time>
      </trkpt>
      <trkpt lat="43.67145" lon="1.11477">
        <ele>229</ele>
        <time>2024-07-11T07:37:16Z</time>
      </trkpt>
      <trkpt lat="43.67147" lon="1.11475">
        <ele>229.2</ele>
        <time>2024-07-11T07:37:17Z</time>
      </trkpt>
      <trkpt lat="43.67149" lon="1.11473">
        <ele>229.4</ele>
        <time>2024-07-11T07:37:18Z</time>
      </trkpt>
      <trkpt lat="43.67151" lon="1.11472">
        <ele>229.4</ele>
        <time>2024-07-11T07:37:19Z</time>
      </trkpt>
      <trkpt lat="43.67153" lon="1.11471">
        <ele>229.4</ele>
        <time>2024-07-11T07:37:20Z</time>
      </trkpt>
      <trkpt lat="43.67155" lon="1.11471">
        <ele>229.6</ele>
        <time>2024-07-11T07:37:21Z</time>
      </trkpt>
      <trkpt lat="43.67157" lon="1.11469">
        <ele>230</ele>
        <time>2024-07-11T07:37:22Z</time>
      </trkpt>
      <trkpt lat="43.67159" lon="1.11468">
        <ele>230</ele>
        <time>2024-07-11T07:37:23Z</time>
      </trkpt>
      <trkpt lat="43.67161" lon="1.11466">
        <ele>230.2</ele>
        <time>2024-07-11T07:37:24Z</time>
      </trkpt>
      <trkpt lat="43.67163" lon="1.11465">
        <ele>230.4</ele>
        <time>2024-07-11T07:37:25Z</time>
      </trkpt>
      <trkpt lat="43.67165" lon="1.11464">
        <ele>230.4</ele>
        <time>2024-07-11T07:37:26Z</time>
      </trkpt>
      <trkpt lat="43.67168" lon="1.11464">
        <ele>230.6</ele>
        <time>2024-07-11T07:37:27Z</time>
      </trkpt>
      <trkpt lat="43.67171" lon="1.11463">
        <ele>230.8</ele>
        <time>2024-07-11T07:37:28Z</time>
      </trkpt>
      <trkpt lat="43.67173" lon="1.11463">
        <ele>231</ele>
        <time>2024-07-11T07:37:29Z</time>
      </trkpt>
      <trkpt lat="43.67175" lon="1.11462">
        <ele>231.2</ele>
        <time>2024-07-11T07:37:30Z</time>
      </trkpt>
      <trkpt lat="43.67178" lon="1.11462">
        <ele>231.4</ele>
        <time>2024-07-11T07:37:31Z</time>
      </trkpt>
      <trkpt lat="43.67181" lon="1.11461">
        <ele>231.8</ele>
        <time>2024-07-11T07:37:32Z</time>
      </trkpt>
      <trkpt lat="43.67184" lon="1.1146">
        <ele>231.8</ele>
        <time>2024-07-11T07:37:33Z</time>
      </trkpt>
      <trkpt lat="43.67186" lon="1.1146">
        <ele>232</ele>
        <time>2024-07-11T07:37:34Z</time>
      </trkpt>
      <trkpt lat="43.67188" lon="1.1146">
        <ele>232</ele>
        <time>2024-07-11T07:37:35Z</time>
      </trkpt>
      <trkpt lat="43.67191" lon="1.1146">
        <ele>232.2</ele>
        <time>2024-07-11T07:37:36Z</time>
      </trkpt>
      <trkpt lat="43.67193" lon="1.11459">
        <ele>232.6</ele>
        <time>2024-07-11T07:37:37Z</time>
      </trkpt>
      <trkpt lat="43.67196" lon="1.11459">
        <ele>232.8</ele>
        <time>2024-07-11T07:37:38Z</time>
      </trkpt>
      <trkpt lat="43.67197" lon="1.11459">
        <ele>233</ele>
        <time>2024-07-11T07:37:39Z</time>
      </trkpt>
      <trkpt lat="43.67199" lon="1.11458">
        <ele>233.2</ele>
        <time>2024-07-11T07:37:40Z</time>
      </trkpt>
      <trkpt lat="43.67201" lon="1.11458">
        <ele>233.4</ele>
        <time>2024-07-11T07:37:41Z</time>
      </trkpt>
      <trkpt lat="43.67204" lon="1.11458">
        <ele>233.6</ele>
        <time>2024-07-11T07:37:42Z</time>
      </trkpt>
      <trkpt lat="43.67207" lon="1.11458">
        <ele>233.6</ele>
        <time>2024-07-11T07:37:43Z</time>
      </trkpt>
      <trkpt lat="43.6721" lon="1.11459">
        <ele>233.6</ele>
        <time>2024-07-11T07:37:44Z</time>
      </trkpt>
      <trkpt lat="43.67214" lon="1.1146">
        <ele>233.6</ele>
        <time>2024-07-11T07:37:45Z</time>
      </trkpt>
      <trkpt lat="43.67218" lon="1.1146">
        <ele>233.6</ele>
        <time>2024-07-11T07:37:46Z</time>
      </trkpt>
      <trkpt lat="43.67224" lon="1.11461">
        <ele>233.6</ele>
        <time>2024-07-11T07:37:47Z</time>
      </trkpt>
      <trkpt lat="43.67229" lon="1.11463">
        <ele>233.6</ele>
        <time>2024-07-11T07:37:48Z</time>
      </trkpt>
      <trkpt lat="43.67234" lon="1.11464">
        <ele>233.6</ele>
        <time>2024-07-11T07:37:49Z</time>
      </trkpt>
      <trkpt lat="43.67239" lon="1.11466">
        <ele>233.6</ele>
        <time>2024-07-11T07:37:50Z</time>
      </trkpt>
      <trkpt lat="43.67246" lon="1.11468">
        <ele>233.4</ele>
        <time>2024-07-11T07:37:51Z</time>
      </trkpt>
      <trkpt lat="43.67252" lon="1.1147">
        <ele>233.2</ele>
        <time>2024-07-11T07:37:52Z</time>
      </trkpt>
      <trkpt lat="43.67258" lon="1.11472">
        <ele>233.2</ele>
        <time>2024-07-11T07:37:53Z</time>
      </trkpt>
      <trkpt lat="43.67263" lon="1.11473">
        <ele>233</ele>
        <time>2024-07-11T07:37:54Z</time>
      </trkpt>
      <trkpt lat="43.67269" lon="1.11474">
        <ele>232.8</ele>
        <time>2024-07-11T07:37:55Z</time>
      </trkpt>
      <trkpt lat="43.67276" lon="1.11477">
        <ele>232.6</ele>
        <time>2024-07-11T07:37:56Z</time>
      </trkpt>
      <trkpt lat="43.67283" lon="1.11479">
        <ele>232.6</ele>
        <time>2024-07-11T07:37:57Z</time>
      </trkpt>
      <trkpt lat="43.67289" lon="1.11481">
        <ele>232.4</ele>
        <time>2024-07-11T07:37:58Z</time>
      </trkpt>
      <trkpt lat="43.67294" lon="1.11482">
        <ele>232.4</ele>
        <time>2024-07-11T07:37:59Z</time>
      </trkpt>
      <trkpt lat="43.67301" lon="1.11484">
        <ele>232.4</ele>
        <time>2024-07-11T07:38:00Z</time>
      </trkpt>
      <trkpt lat="43.67308" lon="1.11486">
        <ele>232.4</ele>
        <time>2024-07-11T07:38:01Z</time>
      </trkpt>
      <trkpt lat="43.67314" lon="1.11488">
        <ele>232.2</ele>
        <time>2024-07-11T07:38:02Z</time>
      </trkpt>
      <trkpt lat="43.67319" lon="1.1149">
        <ele>232.4</ele>
        <time>2024-07-11T07:38:03Z</time>
      </trkpt>
      <trkpt lat="43.67325" lon="1.11491">
        <ele>232.4</ele>
        <time>2024-07-11T07:38:04Z</time>
      </trkpt>
      <trkpt lat="43.67331" lon="1.11493">
        <ele>232.4</ele>
        <time>2024-07-11T07:38:05Z</time>
      </trkpt>
      <trkpt lat="43.67338" lon="1.11495">
        <ele>232.6</ele>
        <time>2024-07-11T07:38:06Z</time>
      </trkpt>
      <trkpt lat="43.67344" lon="1.11496">
        <ele>232.6</ele>
        <time>2024-07-11T07:38:07Z</time>
      </trkpt>
      <trkpt lat="43.67348" lon="1.11498">
        <ele>232.6</ele>
        <time>2024-07-11T07:38:08Z</time>
      </trkpt>
      <trkpt lat="43.67353" lon="1.11499">
        <ele>232.6</ele>
        <time>2024-07-11T07:38:09Z</time>
      </trkpt>
      <trkpt lat="43.67359" lon="1.11501">
        <ele>232.8</ele>
        <time>2024-07-11T07:38:10Z</time>
      </trkpt>
      <trkpt lat="43.67364" lon="1.11503">
        <ele>233</ele>
        <time>2024-07-11T07:38:11Z</time>
      </trkpt>
      <trkpt lat="43.67368" lon="1.11504">
        <ele>233.2</ele>
        <time>2024-07-11T07:38:12Z</time>
      </trkpt>
      <trkpt lat="43.67371" lon="1.11505">
        <ele>233.6</ele>
        <time>2024-07-11T07:38:13Z</time>
      </trkpt>
      <trkpt lat="43.67374" lon="1.11506">
        <ele>233.8</ele>
        <time>2024-07-11T07:38:14Z</time>
      </trkpt>
      <trkpt lat="43.67377" lon="1.11507">
        <ele>234.2</ele>
        <time>2024-07-11T07:38:15Z</time>
      </trkpt>
      <trkpt lat="43.67379" lon="1.11507">
        <ele>234.6</ele>
        <time>2024-07-11T07:38:16Z</time>
      </trkpt>
      <trkpt lat="43.67381" lon="1.11506">
        <ele>234.8</ele>
        <time>2024-07-11T07:38:17Z</time>
      </trkpt>
      <trkpt lat="43.67382" lon="1.11505">
        <ele>235</ele>
        <time>2024-07-11T07:38:18Z</time>
      </trkpt>
      <trkpt lat="43.67384" lon="1.11503">
        <ele>235.4</ele>
        <time>2024-07-11T07:38:19Z</time>
      </trkpt>
      <trkpt lat="43.67386" lon="1.11499">
        <ele>235.8</ele>
        <time>2024-07-11T07:38:20Z</time>
      </trkpt>
      <trkpt lat="43.67388" lon="1.11494">
        <ele>236</ele>
        <time>2024-07-11T07:38:21Z</time>
      </trkpt>
      <trkpt lat="43.6739" lon="1.1149">
        <ele>236</ele>
        <time>2024-07-11T07:38:22Z</time>
      </trkpt>
      <trkpt lat="43.67392" lon="1.11485">
        <ele>236.2</ele>
        <time>2024-07-11T07:38:23Z</time>
      </trkpt>
      <trkpt lat="43.67395" lon="1.11479">
        <ele>236.2</ele>
        <time>2024-07-11T07:38:24Z</time>
      </trkpt>
      <trkpt lat="43.67398" lon="1.11473">
        <ele>236.4</ele>
        <time>2024-07-11T07:38:25Z</time>
      </trkpt>
      <trkpt lat="43.67401" lon="1.11467">
        <ele>236.4</ele>
        <time>2024-07-11T07:38:26Z</time>
      </trkpt>
      <trkpt lat="43.67404" lon="1.11462">
        <ele>236.4</ele>
        <time>2024-07-11T07:38:27Z</time>
      </trkpt>
      <trkpt lat="43.67407" lon="1.11455">
        <ele>236.4</ele>
        <time>2024-07-11T07:38:28Z</time>
      </trkpt>
      <trkpt lat="43.67411" lon="1.11449">
        <ele>236.6</ele>
        <time>2024-07-11T07:38:29Z</time>
      </trkpt>
      <trkpt lat="43.67416" lon="1.1144">
        <ele>236.6</ele>
        <time>2024-07-11T07:38:30Z</time>
      </trkpt>
      <trkpt lat="43.6742" lon="1.11433">
        <ele>236.6</ele>
        <time>2024-07-11T07:38:31Z</time>
      </trkpt>
      <trkpt lat="43.67424" lon="1.11426">
        <ele>236.4</ele>
        <time>2024-07-11T07:38:32Z</time>
      </trkpt>
      <trkpt lat="43.67428" lon="1.11418">
        <ele>236.4</ele>
        <time>2024-07-11T07:38:33Z</time>
      </trkpt>
      <trkpt lat="43.67434" lon="1.11408">
        <ele>236.4</ele>
        <time>2024-07-11T07:38:34Z</time>
      </trkpt>
      <trkpt lat="43.67438" lon="1.11399">
        <ele>236.2</ele>
        <time>2024-07-11T07:38:35Z</time>
      </trkpt>
      <trkpt lat="43.67443" lon="1.1139">
        <ele>236</ele>
        <time>2024-07-11T07:38:36Z</time>
      </trkpt>
      <trkpt lat="43.67447" lon="1.11383">
        <ele>235.6</ele>
        <time>2024-07-11T07:38:37Z</time>
      </trkpt>
      <trkpt lat="43.67452" lon="1.11373">
        <ele>235.4</ele>
        <time>2024-07-11T07:38:38Z</time>
      </trkpt>
      <trkpt lat="43.67458" lon="1.11363">
        <ele>235.2</ele>
        <time>2024-07-11T07:38:39Z</time>
      </trkpt>
      <trkpt lat="43.67463" lon="1.11354">
        <ele>235</ele>
        <time>2024-07-11T07:38:40Z</time>
      </trkpt>
      <trkpt lat="43.67468" lon="1.11347">
        <ele>234.8</ele>
        <time>2024-07-11T07:38:41Z</time>
      </trkpt>
      <trkpt lat="43.67474" lon="1.11339">
        <ele>234.4</ele>
        <time>2024-07-11T07:38:42Z</time>
      </trkpt>
      <trkpt lat="43.67482" lon="1.11329">
        <ele>234.2</ele>
        <time>2024-07-11T07:38:43Z</time>
      </trkpt>
      <trkpt lat="43.67489" lon="1.11322">
        <ele>233.8</ele>
        <time>2024-07-11T07:38:44Z</time>
      </trkpt>
      <trkpt lat="43.67497" lon="1.11317">
        <ele>233.6</ele>
        <time>2024-07-11T07:38:45Z</time>
      </trkpt>
      <trkpt lat="43.67504" lon="1.11313">
        <ele>233</ele>
        <time>2024-07-11T07:38:46Z</time>
      </trkpt>
      <trkpt lat="43.67513" lon="1.11309">
        <ele>232.8</ele>
        <time>2024-07-11T07:38:47Z</time>
      </trkpt>
      <trkpt lat="43.67523" lon="1.11306">
        <ele>232.6</ele>
        <time>2024-07-11T07:38:48Z</time>
      </trkpt>
      <trkpt lat="43.67532" lon="1.11304">
        <ele>232.4</ele>
        <time>2024-07-11T07:38:49Z</time>
      </trkpt>
      <trkpt lat="43.6754" lon="1.11302">
        <ele>232.2</ele>
        <time>2024-07-11T07:38:50Z</time>
      </trkpt>
      <trkpt lat="43.67546" lon="1.11301">
        <ele>232</ele>
        <time>2024-07-11T07:38:51Z</time>
      </trkpt>
      <trkpt lat="43.67554" lon="1.113">
        <ele>231.8</ele>
        <time>2024-07-11T07:38:52Z</time>
      </trkpt>
      <trkpt lat="43.67563" lon="1.11298">
        <ele>231.8</ele>
        <time>2024-07-11T07:38:53Z</time>
      </trkpt>
      <trkpt lat="43.67569" lon="1.11296">
        <ele>231.6</ele>
        <time>2024-07-11T07:38:54Z</time>
      </trkpt>
      <trkpt lat="43.67576" lon="1.11295">
        <ele>231.8</ele>
        <time>2024-07-11T07:38:55Z</time>
      </trkpt>
      <trkpt lat="43.6758" lon="1.11293">
        <ele>231.8</ele>
        <time>2024-07-11T07:38:56Z</time>
      </trkpt>
      <trkpt lat="43.67586" lon="1.11291">
        <ele>232</ele>
        <time>2024-07-11T07:38:57Z</time>
      </trkpt>
      <trkpt lat="43.67591" lon="1.11288">
        <ele>232.2</ele>
        <time>2024-07-11T07:38:58Z</time>
      </trkpt>
      <trkpt lat="43.67597" lon="1.11286">
        <ele>232.4</ele>
        <time>2024-07-11T07:38:59Z</time>
      </trkpt>
      <trkpt lat="43.67602" lon="1.11283">
        <ele>232.6</ele>
        <time>2024-07-11T07:39:00Z</time>
      </trkpt>
      <trkpt lat="43.67607" lon="1.1128">
        <ele>232.8</ele>
        <time>2024-07-11T07:39:01Z</time>
      </trkpt>
      <trkpt lat="43.67613" lon="1.11276">
        <ele>233</ele>
        <time>2024-07-11T07:39:02Z</time>
      </trkpt>
      <trkpt lat="43.67617" lon="1.11272">
        <ele>233.2</ele>
        <time>2024-07-11T07:39:03Z</time>
      </trkpt>
      <trkpt lat="43.67622" lon="1.11268">
        <ele>233.2</ele>
        <time>2024-07-11T07:39:04Z</time>
      </trkpt>
      <trkpt lat="43.67627" lon="1.11265">
        <ele>233.4</ele>
        <time>2024-07-11T07:39:05Z</time>
      </trkpt>
      <trkpt lat="43.67632" lon="1.11262">
        <ele>233.6</ele>
        <time>2024-07-11T07:39:06Z</time>
      </trkpt>
      <trkpt lat="43.67637" lon="1.11257">
        <ele>233.8</ele>
        <time>2024-07-11T07:39:07Z</time>
      </trkpt>
      <trkpt lat="43.67642" lon="1.11253">
        <ele>234.2</ele>
        <time>2024-07-11T07:39:08Z</time>
      </trkpt>
      <trkpt lat="43.67645" lon="1.11249">
        <ele>234.4</ele>
        <time>2024-07-11T07:39:09Z</time>
      </trkpt>
      <trkpt lat="43.6765" lon="1.11244">
        <ele>234.6</ele>
        <time>2024-07-11T07:39:10Z</time>
      </trkpt>
      <trkpt lat="43.67653" lon="1.11241">
        <ele>235.2</ele>
        <time>2024-07-11T07:39:11Z</time>
      </trkpt>
      <trkpt lat="43.67657" lon="1.11237">
        <ele>236</ele>
        <time>2024-07-11T07:39:12Z</time>
      </trkpt>
      <trkpt lat="43.67662" lon="1.11231">
        <ele>236.4</ele>
        <time>2024-07-11T07:39:13Z</time>
      </trkpt>
      <trkpt lat="43.67667" lon="1.11226">
        <ele>236.4</ele>
        <time>2024-07-11T07:39:14Z</time>
      </trkpt>
      <trkpt lat="43.6767" lon="1.11222">
        <ele>236.6</ele>
        <time>2024-07-11T07:39:15Z</time>
      </trkpt>
      <trkpt lat="43.67675" lon="1.11216">
        <ele>236.8</ele>
        <time>2024-07-11T07:39:16Z</time>
      </trkpt>
      <trkpt lat="43.67679" lon="1.1121">
        <ele>237</ele>
        <time>2024-07-11T07:39:17Z</time>
      </trkpt>
      <trkpt lat="43.67682" lon="1.11205">
        <ele>237.4</ele>
        <time>2024-07-11T07:39:18Z</time>
      </trkpt>
      <trkpt lat="43.67686" lon="1.11199">
        <ele>237.4</ele>
        <time>2024-07-11T07:39:19Z</time>
      </trkpt>
      <trkpt lat="43.6769" lon="1.11194">
        <ele>237.8</ele>
        <time>2024-07-11T07:39:20Z</time>
      </trkpt>
      <trkpt lat="43.67693" lon="1.1119">
        <ele>238</ele>
        <time>2024-07-11T07:39:21Z</time>
      </trkpt>
      <trkpt lat="43.67697" lon="1.11183">
        <ele>238.2</ele>
        <time>2024-07-11T07:39:22Z</time>
      </trkpt>
      <trkpt lat="43.67701" lon="1.11179">
        <ele>238.4</ele>
        <time>2024-07-11T07:39:23Z</time>
      </trkpt>
      <trkpt lat="43.67704" lon="1.11174">
        <ele>238.6</ele>
        <time>2024-07-11T07:39:24Z</time>
      </trkpt>
      <trkpt lat="43.67708" lon="1.1117">
        <ele>238.8</ele>
        <time>2024-07-11T07:39:25Z</time>
      </trkpt>
      <trkpt lat="43.67711" lon="1.11166">
        <ele>239</ele>
        <time>2024-07-11T07:39:26Z</time>
      </trkpt>
      <trkpt lat="43.67715" lon="1.11158">
        <ele>239</ele>
        <time>2024-07-11T07:39:27Z</time>
      </trkpt>
      <trkpt lat="43.67719" lon="1.11152">
        <ele>239.2</ele>
        <time>2024-07-11T07:39:28Z</time>
      </trkpt>
      <trkpt lat="43.67722" lon="1.11146">
        <ele>239.2</ele>
        <time>2024-07-11T07:39:29Z</time>
      </trkpt>
      <trkpt lat="43.67725" lon="1.11142">
        <ele>239.2</ele>
        <time>2024-07-11T07:39:30Z</time>
      </trkpt>
      <trkpt lat="43.67728" lon="1.11136">
        <ele>239.6</ele>
        <time>2024-07-11T07:39:31Z</time>
      </trkpt>
      <trkpt lat="43.67731" lon="1.11131">
        <ele>239.8</ele>
        <time>2024-07-11T07:39:32Z</time>
      </trkpt>
      <trkpt lat="43.67734" lon="1.11126">
        <ele>240</ele>
        <time>2024-07-11T07:39:33Z</time>
      </trkpt>
      <trkpt lat="43.67736" lon="1.11122">
        <ele>240.4</ele>
        <time>2024-07-11T07:39:34Z</time>
      </trkpt>
      <trkpt lat="43.67739" lon="1.11117">
        <ele>240.6</ele>
        <time>2024-07-11T07:39:35Z</time>
      </trkpt>
      <trkpt lat="43.67743" lon="1.11113">
        <ele>241</ele>
        <time>2024-07-11T07:39:36Z</time>
      </trkpt>
      <trkpt lat="43.67746" lon="1.11108">
        <ele>241.2</ele>
        <time>2024-07-11T07:39:37Z</time>
      </trkpt>
      <trkpt lat="43.67749" lon="1.11104">
        <ele>241.2</ele>
        <time>2024-07-11T07:39:38Z</time>
      </trkpt>
      <trkpt lat="43.67752" lon="1.11098">
        <ele>241.4</ele>
        <time>2024-07-11T07:39:39Z</time>
      </trkpt>
      <trkpt lat="43.67754" lon="1.11094">
        <ele>241.4</ele>
        <time>2024-07-11T07:39:40Z</time>
      </trkpt>
      <trkpt lat="43.67758" lon="1.11088">
        <ele>241.4</ele>
        <time>2024-07-11T07:39:41Z</time>
      </trkpt>
      <trkpt lat="43.67762" lon="1.11083">
        <ele>241.6</ele>
        <time>2024-07-11T07:39:42Z</time>
      </trkpt>
      <trkpt lat="43.67766" lon="1.11078">
        <ele>241.8</ele>
        <time>2024-07-11T07:39:43Z</time>
      </trkpt>
      <trkpt lat="43.67769" lon="1.11074">
        <ele>242.2</ele>
        <time>2024-07-11T07:39:44Z</time>
      </trkpt>
      <trkpt lat="43.67772" lon="1.11069">
        <ele>242.2</ele>
        <time>2024-07-11T07:39:45Z</time>
      </trkpt>
      <trkpt lat="43.67776" lon="1.11063">
        <ele>242.6</ele>
        <time>2024-07-11T07:39:46Z</time>
      </trkpt>
      <trkpt lat="43.67781" lon="1.11056">
        <ele>242.6</ele>
        <time>2024-07-11T07:39:47Z</time>
      </trkpt>
      <trkpt lat="43.67784" lon="1.11052">
        <ele>242.8</ele>
        <time>2024-07-11T07:39:48Z</time>
      </trkpt>
      <trkpt lat="43.67787" lon="1.11048">
        <ele>243.2</ele>
        <time>2024-07-11T07:39:49Z</time>
      </trkpt>
      <trkpt lat="43.67791" lon="1.11044">
        <ele>243.4</ele>
        <time>2024-07-11T07:39:50Z</time>
      </trkpt>
      <trkpt lat="43.67796" lon="1.11037">
        <ele>243.6</ele>
        <time>2024-07-11T07:39:51Z</time>
      </trkpt>
      <trkpt lat="43.67799" lon="1.11032">
        <ele>243.8</ele>
        <time>2024-07-11T07:39:52Z</time>
      </trkpt>
      <trkpt lat="43.67803" lon="1.11029">
        <ele>244</ele>
        <time>2024-07-11T07:39:53Z</time>
      </trkpt>
      <trkpt lat="43.67807" lon="1.11025">
        <ele>244.2</ele>
        <time>2024-07-11T07:39:54Z</time>
      </trkpt>
      <trkpt lat="43.67811" lon="1.11022">
        <ele>244.6</ele>
        <time>2024-07-11T07:39:55Z</time>
      </trkpt>
      <trkpt lat="43.67816" lon="1.11018">
        <ele>245</ele>
        <time>2024-07-11T07:39:56Z</time>
      </trkpt>
      <trkpt lat="43.6782" lon="1.11014">
        <ele>245.2</ele>
        <time>2024-07-11T07:39:57Z</time>
      </trkpt>
      <trkpt lat="43.67824" lon="1.11011">
        <ele>245.4</ele>
        <time>2024-07-11T07:39:58Z</time>
      </trkpt>
      <trkpt lat="43.67829" lon="1.11009">
        <ele>245.4</ele>
        <time>2024-07-11T07:39:59Z</time>
      </trkpt>
      <trkpt lat="43.67833" lon="1.11006">
        <ele>245.6</ele>
        <time>2024-07-11T07:40:00Z</time>
      </trkpt>
      <trkpt lat="43.67837" lon="1.11003">
        <ele>245.6</ele>
        <time>2024-07-11T07:40:01Z</time>
      </trkpt>
      <trkpt lat="43.67841" lon="1.11001">
        <ele>246</ele>
        <time>2024-07-11T07:40:02Z</time>
      </trkpt>
      <trkpt lat="43.67845" lon="1.10998">
        <ele>246</ele>
        <time>2024-07-11T07:40:03Z</time>
      </trkpt>
      <trkpt lat="43.67849" lon="1.10996">
        <ele>246.2</ele>
        <time>2024-07-11T07:40:04Z</time>
      </trkpt>
      <trkpt lat="43.67854" lon="1.10993">
        <ele>246.8</ele>
        <time>2024-07-11T07:40:05Z</time>
      </trkpt>
      <trkpt lat="43.67858" lon="1.10991">
        <ele>247</ele>
        <time>2024-07-11T07:40:06Z</time>
      </trkpt>
      <trkpt lat="43.67862" lon="1.10989">
        <ele>247.2</ele>
        <time>2024-07-11T07:40:07Z</time>
      </trkpt>
      <trkpt lat="43.67867" lon="1.10987">
        <ele>247.4</ele>
        <time>2024-07-11T07:40:08Z</time>
      </trkpt>
      <trkpt lat="43.6787" lon="1.10985">
        <ele>247.6</ele>
        <time>2024-07-11T07:40:09Z</time>
      </trkpt>
      <trkpt lat="43.67875" lon="1.10984">
        <ele>248</ele>
        <time>2024-07-11T07:40:10Z</time>
      </trkpt>
      <trkpt lat="43.6788" lon="1.10983">
        <ele>248.2</ele>
        <time>2024-07-11T07:40:11Z</time>
      </trkpt>
      <trkpt lat="43.67884" lon="1.10983">
        <ele>248.4</ele>
        <time>2024-07-11T07:40:12Z</time>
      </trkpt>
      <trkpt lat="43.67888" lon="1.10983">
        <ele>248.6</ele>
        <time>2024-07-11T07:40:13Z</time>
      </trkpt>
      <trkpt lat="43.67892" lon="1.10983">
        <ele>249</ele>
        <time>2024-07-11T07:40:14Z</time>
      </trkpt>
      <trkpt lat="43.67897" lon="1.10985">
        <ele>249.2</ele>
        <time>2024-07-11T07:40:15Z</time>
      </trkpt>
      <trkpt lat="43.67901" lon="1.10986">
        <ele>249.2</ele>
        <time>2024-07-11T07:40:16Z</time>
      </trkpt>
      <trkpt lat="43.67905" lon="1.10988">
        <ele>249.6</ele>
        <time>2024-07-11T07:40:17Z</time>
      </trkpt>
      <trkpt lat="43.67909" lon="1.1099">
        <ele>249.8</ele>
        <time>2024-07-11T07:40:18Z</time>
      </trkpt>
      <trkpt lat="43.67912" lon="1.10991">
        <ele>250.4</ele>
        <time>2024-07-11T07:40:19Z</time>
      </trkpt>
      <trkpt lat="43.67916" lon="1.10994">
        <ele>250.8</ele>
        <time>2024-07-11T07:40:20Z</time>
      </trkpt>
      <trkpt lat="43.67919" lon="1.10996">
        <ele>251.2</ele>
        <time>2024-07-11T07:40:21Z</time>
      </trkpt>
      <trkpt lat="43.67921" lon="1.10997">
        <ele>251.4</ele>
        <time>2024-07-11T07:40:22Z</time>
      </trkpt>
      <trkpt lat="43.67925" lon="1.10998">
        <ele>251.4</ele>
        <time>2024-07-11T07:40:23Z</time>
      </trkpt>
      <trkpt lat="43.67929" lon="1.11">
        <ele>251.8</ele>
        <time>2024-07-11T07:40:24Z</time>
      </trkpt>
      <trkpt lat="43.67933" lon="1.11002">
        <ele>251.8</ele>
        <time>2024-07-11T07:40:25Z</time>
      </trkpt>
      <trkpt lat="43.67937" lon="1.11003">
        <ele>252</ele>
        <time>2024-07-11T07:40:26Z</time>
      </trkpt>
      <trkpt lat="43.6794" lon="1.11004">
        <ele>252.2</ele>
        <time>2024-07-11T07:40:27Z</time>
      </trkpt>
      <trkpt lat="43.67944" lon="1.11005">
        <ele>252.4</ele>
        <time>2024-07-11T07:40:28Z</time>
      </trkpt>
      <trkpt lat="43.67949" lon="1.11006">
        <ele>253.2</ele>
        <time>2024-07-11T07:40:29Z</time>
      </trkpt>
      <trkpt lat="43.67953" lon="1.11007">
        <ele>253.6</ele>
        <time>2024-07-11T07:40:30Z</time>
      </trkpt>
      <trkpt lat="43.67956" lon="1.11008">
        <ele>254.2</ele>
        <time>2024-07-11T07:40:31Z</time>
      </trkpt>
      <trkpt lat="43.6796" lon="1.11009">
        <ele>254.4</ele>
        <time>2024-07-11T07:40:32Z</time>
      </trkpt>
      <trkpt lat="43.67964" lon="1.1101">
        <ele>254.6</ele>
        <time>2024-07-11T07:40:33Z</time>
      </trkpt>
      <trkpt lat="43.67968" lon="1.11011">
        <ele>254.6</ele>
        <time>2024-07-11T07:40:34Z</time>
      </trkpt>
      <trkpt lat="43.67973" lon="1.11012">
        <ele>254.8</ele>
        <time>2024-07-11T07:40:35Z</time>
      </trkpt>
      <trkpt lat="43.67977" lon="1.11013">
        <ele>254.8</ele>
        <time>2024-07-11T07:40:36Z</time>
      </trkpt>
      <trkpt lat="43.67981" lon="1.11014">
        <ele>254.8</ele>
        <time>2024-07-11T07:40:37Z</time>
      </trkpt>
      <trkpt lat="43.67985" lon="1.11015">
        <ele>255.2</ele>
        <time>2024-07-11T07:40:38Z</time>
      </trkpt>
      <trkpt lat="43.6799" lon="1.11016">
        <ele>255.2</ele>
        <time>2024-07-11T07:40:39Z</time>
      </trkpt>
      <trkpt lat="43.67994" lon="1.11016">
        <ele>255.4</ele>
        <time>2024-07-11T07:40:40Z</time>
      </trkpt>
      <trkpt lat="43.67999" lon="1.11017">
        <ele>255.4</ele>
        <time>2024-07-11T07:40:41Z</time>
      </trkpt>
      <trkpt lat="43.68003" lon="1.11017">
        <ele>255.6</ele>
        <time>2024-07-11T07:40:42Z</time>
      </trkpt>
      <trkpt lat="43.68008" lon="1.11016">
        <ele>255.6</ele>
        <time>2024-07-11T07:40:43Z</time>
      </trkpt>
      <trkpt lat="43.68013" lon="1.11013">
        <ele>255.8</ele>
        <time>2024-07-11T07:40:44Z</time>
      </trkpt>
      <trkpt lat="43.68017" lon="1.11011">
        <ele>256</ele>
        <time>2024-07-11T07:40:45Z</time>
      </trkpt>
      <trkpt lat="43.68021" lon="1.11009">
        <ele>256.2</ele>
        <time>2024-07-11T07:40:46Z</time>
      </trkpt>
      <trkpt lat="43.68025" lon="1.11007">
        <ele>256.4</ele>
        <time>2024-07-11T07:40:47Z</time>
      </trkpt>
      <trkpt lat="43.6803" lon="1.11005">
        <ele>256.4</ele>
        <time>2024-07-11T07:40:48Z</time>
      </trkpt>
      <trkpt lat="43.68035" lon="1.11002">
        <ele>256.6</ele>
        <time>2024-07-11T07:40:49Z</time>
      </trkpt>
      <trkpt lat="43.68039" lon="1.10998">
        <ele>256.8</ele>
        <time>2024-07-11T07:40:50Z</time>
      </trkpt>
      <trkpt lat="43.68044" lon="1.10994">
        <ele>256.8</ele>
        <time>2024-07-11T07:40:51Z</time>
      </trkpt>
      <trkpt lat="43.68048" lon="1.1099">
        <ele>257</ele>
        <time>2024-07-11T07:40:52Z</time>
      </trkpt>
      <trkpt lat="43.68052" lon="1.10987">
        <ele>257.2</ele>
        <time>2024-07-11T07:40:53Z</time>
      </trkpt>
      <trkpt lat="43.68056" lon="1.10983">
        <ele>257.4</ele>
        <time>2024-07-11T07:40:54Z</time>
      </trkpt>
      <trkpt lat="43.6806" lon="1.10978">
        <ele>257.6</ele>
        <time>2024-07-11T07:40:55Z</time>
      </trkpt>
      <trkpt lat="43.68064" lon="1.10975">
        <ele>257.8</ele>
        <time>2024-07-11T07:40:56Z</time>
      </trkpt>
      <trkpt lat="43.68068" lon="1.1097">
        <ele>258.4</ele>
        <time>2024-07-11T07:40:57Z</time>
      </trkpt>
      <trkpt lat="43.68072" lon="1.10965">
        <ele>258.8</ele>
        <time>2024-07-11T07:40:58Z</time>
      </trkpt>
      <trkpt lat="43.68076" lon="1.10959">
        <ele>259</ele>
        <time>2024-07-11T07:40:59Z</time>
      </trkpt>
      <trkpt lat="43.6808" lon="1.10951">
        <ele>259</ele>
        <time>2024-07-11T07:41:00Z</time>
      </trkpt>
      <trkpt lat="43.68082" lon="1.10946">
        <ele>259.2</ele>
        <time>2024-07-11T07:41:01Z</time>
      </trkpt>
      <trkpt lat="43.68085" lon="1.10939">
        <ele>259.4</ele>
        <time>2024-07-11T07:41:02Z</time>
      </trkpt>
      <trkpt lat="43.68087" lon="1.10932">
        <ele>259.4</ele>
        <time>2024-07-11T07:41:03Z</time>
      </trkpt>
      <trkpt lat="43.68089" lon="1.10925">
        <ele>259.6</ele>
        <time>2024-07-11T07:41:04Z</time>
      </trkpt>
      <trkpt lat="43.68092" lon="1.10918">
        <ele>259.8</ele>
        <time>2024-07-11T07:41:05Z</time>
      </trkpt>
      <trkpt lat="43.68093" lon="1.10912">
        <ele>259.8</ele>
        <time>2024-07-11T07:41:06Z</time>
      </trkpt>
      <trkpt lat="43.68096" lon="1.10905">
        <ele>259.8</ele>
        <time>2024-07-11T07:41:07Z</time>
      </trkpt>
      <trkpt lat="43.681" lon="1.109">
        <ele>259.8</ele>
        <time>2024-07-11T07:41:08Z</time>
      </trkpt>
      <trkpt lat="43.68104" lon="1.10899">
        <ele>260</ele>
        <time>2024-07-11T07:41:09Z</time>
      </trkpt>
      <trkpt lat="43.68107" lon="1.10901">
        <ele>260</ele>
        <time>2024-07-11T07:41:10Z</time>
      </trkpt>
      <trkpt lat="43.68109" lon="1.10904">
        <ele>260</ele>
        <time>2024-07-11T07:41:11Z</time>
      </trkpt>
      <trkpt lat="43.68111" lon="1.10907">
        <ele>260.2</ele>
        <time>2024-07-11T07:41:12Z</time>
      </trkpt>
      <trkpt lat="43.68113" lon="1.10912">
        <ele>260.4</ele>
        <time>2024-07-11T07:41:13Z</time>
      </trkpt>
      <trkpt lat="43.68114" lon="1.10916">
        <ele>260.6</ele>
        <time>2024-07-11T07:41:14Z</time>
      </trkpt>
      <trkpt lat="43.68116" lon="1.10921">
        <ele>260.6</ele>
        <time>2024-07-11T07:41:15Z</time>
      </trkpt>
      <trkpt lat="43.68117" lon="1.10924">
        <ele>261.2</ele>
        <time>2024-07-11T07:41:16Z</time>
      </trkpt>
      <trkpt lat="43.68117" lon="1.10929">
        <ele>261.8</ele>
        <time>2024-07-11T07:41:17Z</time>
      </trkpt>
      <trkpt lat="43.68118" lon="1.10934">
        <ele>262</ele>
        <time>2024-07-11T07:41:18Z</time>
      </trkpt>
      <trkpt lat="43.68119" lon="1.10938">
        <ele>262.4</ele>
        <time>2024-07-11T07:41:19Z</time>
      </trkpt>
      <trkpt lat="43.68121" lon="1.10943">
        <ele>262.6</ele>
        <time>2024-07-11T07:41:20Z</time>
      </trkpt>
      <trkpt lat="43.68122" lon="1.10947">
        <ele>262.8</ele>
        <time>2024-07-11T07:41:21Z</time>
      </trkpt>
      <trkpt lat="43.68123" lon="1.10951">
        <ele>263</ele>
        <time>2024-07-11T07:41:22Z</time>
      </trkpt>
      <trkpt lat="43.68124" lon="1.10956">
        <ele>263.2</ele>
        <time>2024-07-11T07:41:23Z</time>
      </trkpt>
      <trkpt lat="43.68125" lon="1.1096">
        <ele>263.6</ele>
        <time>2024-07-11T07:41:24Z</time>
      </trkpt>
      <trkpt lat="43.68125" lon="1.10964">
        <ele>263.6</ele>
        <time>2024-07-11T07:41:25Z</time>
      </trkpt>
      <trkpt lat="43.68125" lon="1.10968">
        <ele>264.2</ele>
        <time>2024-07-11T07:41:26Z</time>
      </trkpt>
      <trkpt lat="43.68126" lon="1.10972">
        <ele>264.4</ele>
        <time>2024-07-11T07:41:27Z</time>
      </trkpt>
      <trkpt lat="43.68126" lon="1.10976">
        <ele>265</ele>
        <time>2024-07-11T07:41:28Z</time>
      </trkpt>
      <trkpt lat="43.68126" lon="1.1098">
        <ele>265.2</ele>
        <time>2024-07-11T07:41:29Z</time>
      </trkpt>
      <trkpt lat="43.68127" lon="1.10983">
        <ele>265.4</ele>
        <time>2024-07-11T07:41:30Z</time>
      </trkpt>
      <trkpt lat="43.68127" lon="1.10987">
        <ele>265.8</ele>
        <time>2024-07-11T07:41:31Z</time>
      </trkpt>
      <trkpt lat="43.68126" lon="1.1099">
        <ele>266</ele>
        <time>2024-07-11T07:41:32Z</time>
      </trkpt>
      <trkpt lat="43.68126" lon="1.10994">
        <ele>266.6</ele>
        <time>2024-07-11T07:41:33Z</time>
      </trkpt>
      <trkpt lat="43.68125" lon="1.10997">
        <ele>266.8</ele>
        <time>2024-07-11T07:41:34Z</time>
      </trkpt>
      <trkpt lat="43.68124" lon="1.11001">
        <ele>267</ele>
        <time>2024-07-11T07:41:35Z</time>
      </trkpt>
      <trkpt lat="43.68122" lon="1.11004">
        <ele>267.4</ele>
        <time>2024-07-11T07:41:36Z</time>
      </trkpt>
      <trkpt lat="43.68121" lon="1.11006">
        <ele>267.6</ele>
        <time>2024-07-11T07:41:37Z</time>
      </trkpt>
      <trkpt lat="43.68119" lon="1.11009">
        <ele>268</ele>
        <time>2024-07-11T07:41:38Z</time>
      </trkpt>
      <trkpt lat="43.68118" lon="1.11012">
        <ele>268</ele>
        <time>2024-07-11T07:41:39Z</time>
      </trkpt>
      <trkpt lat="43.68117" lon="1.11015">
        <ele>268.2</ele>
        <time>2024-07-11T07:41:40Z</time>
      </trkpt>
      <trkpt lat="43.68116" lon="1.11018">
        <ele>268.4</ele>
        <time>2024-07-11T07:41:41Z</time>
      </trkpt>
      <trkpt lat="43.68114" lon="1.11022">
        <ele>268.8</ele>
        <time>2024-07-11T07:41:42Z</time>
      </trkpt>
      <trkpt lat="43.68113" lon="1.11024">
        <ele>269.4</ele>
        <time>2024-07-11T07:41:43Z</time>
      </trkpt>
      <trkpt lat="43.68111" lon="1.11029">
        <ele>269.6</ele>
        <time>2024-07-11T07:41:44Z</time>
      </trkpt>
      <trkpt lat="43.6811" lon="1.11033">
        <ele>269.8</ele>
        <time>2024-07-11T07:41:45Z</time>
      </trkpt>
      <trkpt lat="43.6811" lon="1.11037">
        <ele>270</ele>
        <time>2024-07-11T07:41:46Z</time>
      </trkpt>
      <trkpt lat="43.68109" lon="1.1104">
        <ele>270</ele>
        <time>2024-07-11T07:41:47Z</time>
      </trkpt>
      <trkpt lat="43.68108" lon="1.11045">
        <ele>270.4</ele>
        <time>2024-07-11T07:41:48Z</time>
      </trkpt>
      <trkpt lat="43.68108" lon="1.1105">
        <ele>270.6</ele>
        <time>2024-07-11T07:41:49Z</time>
      </trkpt>
      <trkpt lat="43.68107" lon="1.11054">
        <ele>271.2</ele>
        <time>2024-07-11T07:41:50Z</time>
      </trkpt>
      <trkpt lat="43.68107" lon="1.11059">
        <ele>271.4</ele>
        <time>2024-07-11T07:41:51Z</time>
      </trkpt>
      <trkpt lat="43.68107" lon="1.11062">
        <ele>271.8</ele>
        <time>2024-07-11T07:41:52Z</time>
      </trkpt>
      <trkpt lat="43.68108" lon="1.11066">
        <ele>272</ele>
        <time>2024-07-11T07:41:53Z</time>
      </trkpt>
      <trkpt lat="43.68108" lon="1.11071">
        <ele>272.2</ele>
        <time>2024-07-11T07:41:54Z</time>
      </trkpt>
      <trkpt lat="43.68109" lon="1.11074">
        <ele>272.6</ele>
        <time>2024-07-11T07:41:55Z</time>
      </trkpt>
      <trkpt lat="43.68111" lon="1.11078">
        <ele>272.6</ele>
        <time>2024-07-11T07:41:56Z</time>
      </trkpt>
      <trkpt lat="43.68112" lon="1.1108">
        <ele>273</ele>
        <time>2024-07-11T07:41:57Z</time>
      </trkpt>
      <trkpt lat="43.68113" lon="1.11082">
        <ele>273.2</ele>
        <time>2024-07-11T07:41:58Z</time>
      </trkpt>
      <trkpt lat="43.68115" lon="1.11084">
        <ele>273.6</ele>
        <time>2024-07-11T07:41:59Z</time>
      </trkpt>
      <trkpt lat="43.68118" lon="1.11087">
        <ele>273.6</ele>
        <time>2024-07-11T07:42:00Z</time>
      </trkpt>
      <trkpt lat="43.6812" lon="1.11089">
        <ele>274</ele>
        <time>2024-07-11T07:42:01Z</time>
      </trkpt>
      <trkpt lat="43.68123" lon="1.11091">
        <ele>274.2</ele>
        <time>2024-07-11T07:42:02Z</time>
      </trkpt>
      <trkpt lat="43.68126" lon="1.11093">
        <ele>274.4</ele>
        <time>2024-07-11T07:42:03Z</time>
      </trkpt>
      <trkpt lat="43.68129" lon="1.11096">
        <ele>274.8</ele>
        <time>2024-07-11T07:42:04Z</time>
      </trkpt>
      <trkpt lat="43.68131" lon="1.11098">
        <ele>275</ele>
        <time>2024-07-11T07:42:05Z</time>
      </trkpt>
      <trkpt lat="43.68134" lon="1.111">
        <ele>275.2</ele>
        <time>2024-07-11T07:42:06Z</time>
      </trkpt>
      <trkpt lat="43.68136" lon="1.11101">
        <ele>275.8</ele>
        <time>2024-07-11T07:42:07Z</time>
      </trkpt>
      <trkpt lat="43.68137" lon="1.11103">
        <ele>275.8</ele>
        <time>2024-07-11T07:42:08Z</time>
      </trkpt>
      <trkpt lat="43.68139" lon="1.11106">
        <ele>276.2</ele>
        <time>2024-07-11T07:42:09Z</time>
      </trkpt>
      <trkpt lat="43.68141" lon="1.11108">
        <ele>276.4</ele>
        <time>2024-07-11T07:42:10Z</time>
      </trkpt>
      <trkpt lat="43.68143" lon="1.1111">
        <ele>276.6</ele>
        <time>2024-07-11T07:42:11Z</time>
      </trkpt>
      <trkpt lat="43.68144" lon="1.11112">
        <ele>276.8</ele>
        <time>2024-07-11T07:42:12Z</time>
      </trkpt>
      <trkpt lat="43.68146" lon="1.11113">
        <ele>277</ele>
        <time>2024-07-11T07:42:13Z</time>
      </trkpt>
      <trkpt lat="43.68147" lon="1.11114">
        <ele>277.2</ele>
        <time>2024-07-11T07:42:14Z</time>
      </trkpt>
      <trkpt lat="43.68148" lon="1.11115">
        <ele>277.2</ele>
        <time>2024-07-11T07:42:15Z</time>
      </trkpt>
      <trkpt lat="43.6815" lon="1.11115">
        <ele>277.4</ele>
        <time>2024-07-11T07:42:16Z</time>
      </trkpt>
      <trkpt lat="43.68153" lon="1.11114">
        <ele>277.4</ele>
        <time>2024-07-11T07:42:17Z</time>
      </trkpt>
      <trkpt lat="43.68156" lon="1.11115">
        <ele>277.4</ele>
        <time>2024-07-11T07:42:18Z</time>
      </trkpt>
      <trkpt lat="43.68159" lon="1.11115">
        <ele>277.4</ele>
        <time>2024-07-11T07:42:19Z</time>
      </trkpt>
      <trkpt lat="43.68163" lon="1.11116">
        <ele>277.6</ele>
        <time>2024-07-11T07:42:20Z</time>
      </trkpt>
      <trkpt lat="43.68167" lon="1.11117">
        <ele>277.4</ele>
        <time>2024-07-11T07:42:21Z</time>
      </trkpt>
      <trkpt lat="43.68171" lon="1.11118">
        <ele>277.6</ele>
        <time>2024-07-11T07:42:22Z</time>
      </trkpt>
      <trkpt lat="43.68175" lon="1.11118">
        <ele>277.4</ele>
        <time>2024-07-11T07:42:23Z</time>
      </trkpt>
      <trkpt lat="43.6818" lon="1.11118">
        <ele>277.6</ele>
        <time>2024-07-11T07:42:24Z</time>
      </trkpt>
      <trkpt lat="43.68185" lon="1.11118">
        <ele>277.6</ele>
        <time>2024-07-11T07:42:25Z</time>
      </trkpt>
      <trkpt lat="43.68189" lon="1.11118">
        <ele>277.8</ele>
        <time>2024-07-11T07:42:26Z</time>
      </trkpt>
      <trkpt lat="43.68194" lon="1.11118">
        <ele>277.8</ele>
        <time>2024-07-11T07:42:27Z</time>
      </trkpt>
      <trkpt lat="43.68199" lon="1.11118">
        <ele>277.8</ele>
        <time>2024-07-11T07:42:28Z</time>
      </trkpt>
      <trkpt lat="43.68204" lon="1.11118">
        <ele>278</ele>
        <time>2024-07-11T07:42:29Z</time>
      </trkpt>
      <trkpt lat="43.68209" lon="1.11118">
        <ele>278</ele>
        <time>2024-07-11T07:42:30Z</time>
      </trkpt>
      <trkpt lat="43.68214" lon="1.11119">
        <ele>278</ele>
        <time>2024-07-11T07:42:31Z</time>
      </trkpt>
      <trkpt lat="43.68219" lon="1.1112">
        <ele>278</ele>
        <time>2024-07-11T07:42:32Z</time>
      </trkpt>
      <trkpt lat="43.68225" lon="1.11121">
        <ele>278</ele>
        <time>2024-07-11T07:42:33Z</time>
      </trkpt>
      <trkpt lat="43.6823" lon="1.11122">
        <ele>277.8</ele>
        <time>2024-07-11T07:42:34Z</time>
      </trkpt>
      <trkpt lat="43.68236" lon="1.11124">
        <ele>277.8</ele>
        <time>2024-07-11T07:42:35Z</time>
      </trkpt>
      <trkpt lat="43.68241" lon="1.11126">
        <ele>277.8</ele>
        <time>2024-07-11T07:42:36Z</time>
      </trkpt>
      <trkpt lat="43.68247" lon="1.11129">
        <ele>277.8</ele>
        <time>2024-07-11T07:42:37Z</time>
      </trkpt>
      <trkpt lat="43.68252" lon="1.11132">
        <ele>277.8</ele>
        <time>2024-07-11T07:42:38Z</time>
      </trkpt>
      <trkpt lat="43.68258" lon="1.11135">
        <ele>277.8</ele>
        <time>2024-07-11T07:42:39Z</time>
      </trkpt>
      <trkpt lat="43.68263" lon="1.11139">
        <ele>277.6</ele>
        <time>2024-07-11T07:42:40Z</time>
      </trkpt>
      <trkpt lat="43.68269" lon="1.11142">
        <ele>277.6</ele>
        <time>2024-07-11T07:42:41Z</time>
      </trkpt>
      <trkpt lat="43.68274" lon="1.11146">
        <ele>277.4</ele>
        <time>2024-07-11T07:42:42Z</time>
      </trkpt>
      <trkpt lat="43.68279" lon="1.1115">
        <ele>277.4</ele>
        <time>2024-07-11T07:42:43Z</time>
      </trkpt>
      <trkpt lat="43.68284" lon="1.11154">
        <ele>277.4</ele>
        <time>2024-07-11T07:42:44Z</time>
      </trkpt>
      <trkpt lat="43.6829" lon="1.11157">
        <ele>277.4</ele>
        <time>2024-07-11T07:42:45Z</time>
      </trkpt>
      <trkpt lat="43.68295" lon="1.11162">
        <ele>277.4</ele>
        <time>2024-07-11T07:42:46Z</time>
      </trkpt>
      <trkpt lat="43.683" lon="1.11166">
        <ele>277.4</ele>
        <time>2024-07-11T07:42:47Z</time>
      </trkpt>
      <trkpt lat="43.68305" lon="1.1117">
        <ele>277.4</ele>
        <time>2024-07-11T07:42:48Z</time>
      </trkpt>
      <trkpt lat="43.68311" lon="1.11175">
        <ele>277.6</ele>
        <time>2024-07-11T07:42:49Z</time>
      </trkpt>
      <trkpt lat="43.68316" lon="1.11178">
        <ele>277.6</ele>
        <time>2024-07-11T07:42:50Z</time>
      </trkpt>
      <trkpt lat="43.68321" lon="1.11182">
        <ele>277.6</ele>
        <time>2024-07-11T07:42:51Z</time>
      </trkpt>
      <trkpt lat="43.68326" lon="1.11186">
        <ele>277.8</ele>
        <time>2024-07-11T07:42:52Z</time>
      </trkpt>
      <trkpt lat="43.6833" lon="1.1119">
        <ele>278</ele>
        <time>2024-07-11T07:42:53Z</time>
      </trkpt>
      <trkpt lat="43.68335" lon="1.11194">
        <ele>278.2</ele>
        <time>2024-07-11T07:42:54Z</time>
      </trkpt>
      <trkpt lat="43.6834" lon="1.11198">
        <ele>278.2</ele>
        <time>2024-07-11T07:42:55Z</time>
      </trkpt>
      <trkpt lat="43.68345" lon="1.11202">
        <ele>278.4</ele>
        <time>2024-07-11T07:42:56Z</time>
      </trkpt>
      <trkpt lat="43.6835" lon="1.11206">
        <ele>278.4</ele>
        <time>2024-07-11T07:42:57Z</time>
      </trkpt>
      <trkpt lat="43.68355" lon="1.1121">
        <ele>278.6</ele>
        <time>2024-07-11T07:42:58Z</time>
      </trkpt>
      <trkpt lat="43.6836" lon="1.11215">
        <ele>278.6</ele>
        <time>2024-07-11T07:42:59Z</time>
      </trkpt>
      <trkpt lat="43.68365" lon="1.11219">
        <ele>278.8</ele>
        <time>2024-07-11T07:43:00Z</time>
      </trkpt>
      <trkpt lat="43.6837" lon="1.11223">
        <ele>278.8</ele>
        <time>2024-07-11T07:43:01Z</time>
      </trkpt>
      <trkpt lat="43.68375" lon="1.11228">
        <ele>279</ele>
        <time>2024-07-11T07:43:02Z</time>
      </trkpt>
      <trkpt lat="43.6838" lon="1.11232">
        <ele>279.2</ele>
        <time>2024-07-11T07:43:03Z</time>
      </trkpt>
      <trkpt lat="43.68385" lon="1.11236">
        <ele>279.2</ele>
        <time>2024-07-11T07:43:04Z</time>
      </trkpt>
      <trkpt lat="43.6839" lon="1.1124">
        <ele>279.4</ele>
        <time>2024-07-11T07:43:05Z</time>
      </trkpt>
      <trkpt lat="43.68394" lon="1.11245">
        <ele>279.6</ele>
        <time>2024-07-11T07:43:06Z</time>
      </trkpt>
      <trkpt lat="43.68398" lon="1.11249">
        <ele>279.6</ele>
        <time>2024-07-11T07:43:07Z</time>
      </trkpt>
      <trkpt lat="43.68403" lon="1.11253">
        <ele>279.8</ele>
        <time>2024-07-11T07:43:08Z</time>
      </trkpt>
      <trkpt lat="43.68407" lon="1.11257">
        <ele>280</ele>
        <time>2024-07-11T07:43:09Z</time>
      </trkpt>
      <trkpt lat="43.68412" lon="1.11261">
        <ele>280.2</ele>
        <time>2024-07-11T07:43:10Z</time>
      </trkpt>
      <trkpt lat="43.68416" lon="1.11265">
        <ele>280.4</ele>
        <time>2024-07-11T07:43:11Z</time>
      </trkpt>
      <trkpt lat="43.6842" lon="1.11268">
        <ele>280.4</ele>
        <time>2024-07-11T07:43:12Z</time>
      </trkpt>
      <trkpt lat="43.68425" lon="1.11272">
        <ele>280.6</ele>
        <time>2024-07-11T07:43:13Z</time>
      </trkpt>
      <trkpt lat="43.68429" lon="1.11276">
        <ele>280.8</ele>
        <time>2024-07-11T07:43:14Z</time>
      </trkpt>
      <trkpt lat="43.68433" lon="1.1128">
        <ele>281.2</ele>
        <time>2024-07-11T07:43:15Z</time>
      </trkpt>
      <trkpt lat="43.68438" lon="1.11284">
        <ele>281.4</ele>
        <time>2024-07-11T07:43:16Z</time>
      </trkpt>
      <trkpt lat="43.68442" lon="1.11289">
        <ele>281.8</ele>
        <time>2024-07-11T07:43:17Z</time>
      </trkpt>
      <trkpt lat="43.68447" lon="1.11293">
        <ele>282.2</ele>
        <time>2024-07-11T07:43:18Z</time>
      </trkpt>
      <trkpt lat="43.68451" lon="1.11298">
        <ele>282.4</ele>
        <time>2024-07-11T07:43:19Z</time>
      </trkpt>
      <trkpt lat="43.68455" lon="1.11303">
        <ele>282.6</ele>
        <time>2024-07-11T07:43:20Z</time>
      </trkpt>
      <trkpt lat="43.68459" lon="1.11309">
        <ele>282.6</ele>
        <time>2024-07-11T07:43:21Z</time>
      </trkpt>
      <trkpt lat="43.68463" lon="1.11314">
        <ele>283</ele>
        <time>2024-07-11T07:43:22Z</time>
      </trkpt>
      <trkpt lat="43.68467" lon="1.1132">
        <ele>283.4</ele>
        <time>2024-07-11T07:43:23Z</time>
      </trkpt>
      <trkpt lat="43.68471" lon="1.11325">
        <ele>283.6</ele>
        <time>2024-07-11T07:43:24Z</time>
      </trkpt>
      <trkpt lat="43.68474" lon="1.11332">
        <ele>283.8</ele>
        <time>2024-07-11T07:43:25Z</time>
      </trkpt>
      <trkpt lat="43.68478" lon="1.11338">
        <ele>283.8</ele>
        <time>2024-07-11T07:43:26Z</time>
      </trkpt>
      <trkpt lat="43.68481" lon="1.11344">
        <ele>284.2</ele>
        <time>2024-07-11T07:43:27Z</time>
      </trkpt>
      <trkpt lat="43.68485" lon="1.1135">
        <ele>284.2</ele>
        <time>2024-07-11T07:43:28Z</time>
      </trkpt>
      <trkpt lat="43.68488" lon="1.11356">
        <ele>284.4</ele>
        <time>2024-07-11T07:43:29Z</time>
      </trkpt>
      <trkpt lat="43.68491" lon="1.11362">
        <ele>284.6</ele>
        <time>2024-07-11T07:43:30Z</time>
      </trkpt>
      <trkpt lat="43.68495" lon="1.11368">
        <ele>284.6</ele>
        <time>2024-07-11T07:43:31Z</time>
      </trkpt>
      <trkpt lat="43.68498" lon="1.11374">
        <ele>284.8</ele>
        <time>2024-07-11T07:43:32Z</time>
      </trkpt>
      <trkpt lat="43.68501" lon="1.1138">
        <ele>284.8</ele>
        <time>2024-07-11T07:43:33Z</time>
      </trkpt>
      <trkpt lat="43.68504" lon="1.11385">
        <ele>285</ele>
        <time>2024-07-11T07:43:34Z</time>
      </trkpt>
      <trkpt lat="43.68506" lon="1.11391">
        <ele>285</ele>
        <time>2024-07-11T07:43:35Z</time>
      </trkpt>
      <trkpt lat="43.68509" lon="1.11397">
        <ele>285.2</ele>
        <time>2024-07-11T07:43:36Z</time>
      </trkpt>
      <trkpt lat="43.68512" lon="1.11403">
        <ele>285.2</ele>
        <time>2024-07-11T07:43:37Z</time>
      </trkpt>
      <trkpt lat="43.68514" lon="1.11409">
        <ele>285.4</ele>
        <time>2024-07-11T07:43:38Z</time>
      </trkpt>
      <trkpt lat="43.68517" lon="1.11415">
        <ele>285.4</ele>
        <time>2024-07-11T07:43:39Z</time>
      </trkpt>
      <trkpt lat="43.6852" lon="1.11422">
        <ele>285.6</ele>
        <time>2024-07-11T07:43:40Z</time>
      </trkpt>
      <trkpt lat="43.68522" lon="1.11428">
        <ele>285.6</ele>
        <time>2024-07-11T07:43:41Z</time>
      </trkpt>
      <trkpt lat="43.68525" lon="1.11434">
        <ele>285.8</ele>
        <time>2024-07-11T07:43:42Z</time>
      </trkpt>
      <trkpt lat="43.68527" lon="1.1144">
        <ele>285.8</ele>
        <time>2024-07-11T07:43:43Z</time>
      </trkpt>
      <trkpt lat="43.6853" lon="1.11446">
        <ele>285.8</ele>
        <time>2024-07-11T07:43:44Z</time>
      </trkpt>
      <trkpt lat="43.68533" lon="1.11453">
        <ele>285.8</ele>
        <time>2024-07-11T07:43:45Z</time>
      </trkpt>
      <trkpt lat="43.68536" lon="1.1146">
        <ele>286</ele>
        <time>2024-07-11T07:43:46Z</time>
      </trkpt>
      <trkpt lat="43.68538" lon="1.11465">
        <ele>286</ele>
        <time>2024-07-11T07:43:47Z</time>
      </trkpt>
      <trkpt lat="43.68541" lon="1.11471">
        <ele>286</ele>
        <time>2024-07-11T07:43:48Z</time>
      </trkpt>
      <trkpt lat="43.68544" lon="1.11477">
        <ele>286</ele>
        <time>2024-07-11T07:43:49Z</time>
      </trkpt>
      <trkpt lat="43.68547" lon="1.11483">
        <ele>286</ele>
        <time>2024-07-11T07:43:50Z</time>
      </trkpt>
      <trkpt lat="43.68551" lon="1.11489">
        <ele>286.2</ele>
        <time>2024-07-11T07:43:51Z</time>
      </trkpt>
      <trkpt lat="43.68554" lon="1.11496">
        <ele>286.2</ele>
        <time>2024-07-11T07:43:52Z</time>
      </trkpt>
      <trkpt lat="43.68557" lon="1.11504">
        <ele>286.2</ele>
        <time>2024-07-11T07:43:53Z</time>
      </trkpt>
      <trkpt lat="43.68561" lon="1.1151">
        <ele>286.2</ele>
        <time>2024-07-11T07:43:54Z</time>
      </trkpt>
      <trkpt lat="43.68566" lon="1.11517">
        <ele>286</ele>
        <time>2024-07-11T07:43:55Z</time>
      </trkpt>
      <trkpt lat="43.68571" lon="1.11524">
        <ele>285.8</ele>
        <time>2024-07-11T07:43:56Z</time>
      </trkpt>
      <trkpt lat="43.68577" lon="1.11532">
        <ele>285.6</ele>
        <time>2024-07-11T07:43:57Z</time>
      </trkpt>
      <trkpt lat="43.68582" lon="1.11537">
        <ele>285.2</ele>
        <time>2024-07-11T07:43:58Z</time>
      </trkpt>
      <trkpt lat="43.68589" lon="1.11543">
        <ele>284.8</ele>
        <time>2024-07-11T07:43:59Z</time>
      </trkpt>
      <trkpt lat="43.68596" lon="1.11549">
        <ele>284.2</ele>
        <time>2024-07-11T07:44:00Z</time>
      </trkpt>
      <trkpt lat="43.68603" lon="1.11555">
        <ele>283.8</ele>
        <time>2024-07-11T07:44:01Z</time>
      </trkpt>
      <trkpt lat="43.68611" lon="1.11561">
        <ele>283.6</ele>
        <time>2024-07-11T07:44:02Z</time>
      </trkpt>
      <trkpt lat="43.6862" lon="1.11571">
        <ele>283.2</ele>
        <time>2024-07-11T07:44:03Z</time>
      </trkpt>
      <trkpt lat="43.68626" lon="1.11579">
        <ele>282.8</ele>
        <time>2024-07-11T07:44:04Z</time>
      </trkpt>
      <trkpt lat="43.68633" lon="1.1159">
        <ele>282.2</ele>
        <time>2024-07-11T07:44:05Z</time>
      </trkpt>
      <trkpt lat="43.68641" lon="1.11603">
        <ele>281.8</ele>
        <time>2024-07-11T07:44:06Z</time>
      </trkpt>
      <trkpt lat="43.68645" lon="1.11617">
        <ele>281</ele>
        <time>2024-07-11T07:44:07Z</time>
      </trkpt>
      <trkpt lat="43.68649" lon="1.11634">
        <ele>280</ele>
        <time>2024-07-11T07:44:08Z</time>
      </trkpt>
      <trkpt lat="43.68653" lon="1.1165">
        <ele>279.6</ele>
        <time>2024-07-11T07:44:09Z</time>
      </trkpt>
      <trkpt lat="43.68657" lon="1.11668">
        <ele>278.4</ele>
        <time>2024-07-11T07:44:10Z</time>
      </trkpt>
      <trkpt lat="43.68662" lon="1.11685">
        <ele>277.8</ele>
        <time>2024-07-11T07:44:11Z</time>
      </trkpt>
      <trkpt lat="43.68668" lon="1.11701">
        <ele>277</ele>
        <time>2024-07-11T07:44:12Z</time>
      </trkpt>
      <trkpt lat="43.68677" lon="1.11716">
        <ele>276.6</ele>
        <time>2024-07-11T07:44:13Z</time>
      </trkpt>
      <trkpt lat="43.68686" lon="1.11729">
        <ele>274.6</ele>
        <time>2024-07-11T07:44:14Z</time>
      </trkpt>
      <trkpt lat="43.68697" lon="1.11741">
        <ele>273.2</ele>
        <time>2024-07-11T07:44:15Z</time>
      </trkpt>
      <trkpt lat="43.68708" lon="1.11752">
        <ele>272.6</ele>
        <time>2024-07-11T07:44:16Z</time>
      </trkpt>
      <trkpt lat="43.6872" lon="1.1176">
        <ele>270.6</ele>
        <time>2024-07-11T07:44:17Z</time>
      </trkpt>
      <trkpt lat="43.68731" lon="1.11768">
        <ele>269.8</ele>
        <time>2024-07-11T07:44:18Z</time>
      </trkpt>
      <trkpt lat="43.68743" lon="1.11776">
        <ele>269</ele>
        <time>2024-07-11T07:44:19Z</time>
      </trkpt>
      <trkpt lat="43.68753" lon="1.11783">
        <ele>268</ele>
        <time>2024-07-11T07:44:20Z</time>
      </trkpt>
      <trkpt lat="43.68764" lon="1.11791">
        <ele>268</ele>
        <time>2024-07-11T07:44:21Z</time>
      </trkpt>
      <trkpt lat="43.68775" lon="1.11798">
        <ele>267.4</ele>
        <time>2024-07-11T07:44:22Z</time>
      </trkpt>
      <trkpt lat="43.68786" lon="1.11804">
        <ele>267.2</ele>
        <time>2024-07-11T07:44:23Z</time>
      </trkpt>
      <trkpt lat="43.68796" lon="1.11809">
        <ele>266.6</ele>
        <time>2024-07-11T07:44:24Z</time>
      </trkpt>
      <trkpt lat="43.68808" lon="1.11813">
        <ele>266.2</ele>
        <time>2024-07-11T07:44:25Z</time>
      </trkpt>
      <trkpt lat="43.6882" lon="1.11815">
        <ele>265</ele>
        <time>2024-07-11T07:44:26Z</time>
      </trkpt>
      <trkpt lat="43.68832" lon="1.11816">
        <ele>264.2</ele>
        <time>2024-07-11T07:44:27Z</time>
      </trkpt>
      <trkpt lat="43.68845" lon="1.11817">
        <ele>263.8</ele>
        <time>2024-07-11T07:44:28Z</time>
      </trkpt>
      <trkpt lat="43.68858" lon="1.11818">
        <ele>263</ele>
        <time>2024-07-11T07:44:29Z</time>
      </trkpt>
      <trkpt lat="43.68872" lon="1.11819">
        <ele>262.6</ele>
        <time>2024-07-11T07:44:30Z</time>
      </trkpt>
      <trkpt lat="43.68886" lon="1.1182">
        <ele>261.4</ele>
        <time>2024-07-11T07:44:31Z</time>
      </trkpt>
      <trkpt lat="43.689" lon="1.11821">
        <ele>260.8</ele>
        <time>2024-07-11T07:44:32Z</time>
      </trkpt>
      <trkpt lat="43.68914" lon="1.11822">
        <ele>259.6</ele>
        <time>2024-07-11T07:44:33Z</time>
      </trkpt>
      <trkpt lat="43.68929" lon="1.11824">
        <ele>257.8</ele>
        <time>2024-07-11T07:44:34Z</time>
      </trkpt>
      <trkpt lat="43.68945" lon="1.11825">
        <ele>257</ele>
        <time>2024-07-11T07:44:35Z</time>
      </trkpt>
      <trkpt lat="43.6896" lon="1.11826">
        <ele>254.4</ele>
        <time>2024-07-11T07:44:36Z</time>
      </trkpt>
      <trkpt lat="43.68975" lon="1.11827">
        <ele>253.6</ele>
        <time>2024-07-11T07:44:37Z</time>
      </trkpt>
      <trkpt lat="43.6899" lon="1.11826">
        <ele>252.2</ele>
        <time>2024-07-11T07:44:38Z</time>
      </trkpt>
      <trkpt lat="43.69005" lon="1.11822">
        <ele>249.2</ele>
        <time>2024-07-11T07:44:39Z</time>
      </trkpt>
      <trkpt lat="43.69018" lon="1.11815">
        <ele>248</ele>
        <time>2024-07-11T07:44:40Z</time>
      </trkpt>
      <trkpt lat="43.69031" lon="1.11805">
        <ele>246.2</ele>
        <time>2024-07-11T07:44:41Z</time>
      </trkpt>
      <trkpt lat="43.69043" lon="1.11794">
        <ele>245</ele>
        <time>2024-07-11T07:44:42Z</time>
      </trkpt>
      <trkpt lat="43.69056" lon="1.11782">
        <ele>242</ele>
        <time>2024-07-11T07:44:43Z</time>
      </trkpt>
      <trkpt lat="43.69068" lon="1.1177">
        <ele>241.2</ele>
        <time>2024-07-11T07:44:44Z</time>
      </trkpt>
      <trkpt lat="43.69081" lon="1.11758">
        <ele>239.8</ele>
        <time>2024-07-11T07:44:45Z</time>
      </trkpt>
      <trkpt lat="43.69093" lon="1.11747">
        <ele>238.4</ele>
        <time>2024-07-11T07:44:46Z</time>
      </trkpt>
      <trkpt lat="43.69107" lon="1.11736">
        <ele>237</ele>
        <time>2024-07-11T07:44:47Z</time>
      </trkpt>
      <trkpt lat="43.69121" lon="1.11728">
        <ele>235.6</ele>
        <time>2024-07-11T07:44:48Z</time>
      </trkpt>
      <trkpt lat="43.69135" lon="1.11722">
        <ele>234.8</ele>
        <time>2024-07-11T07:44:49Z</time>
      </trkpt>
      <trkpt lat="43.69148" lon="1.11716">
        <ele>233.2</ele>
        <time>2024-07-11T07:44:50Z</time>
      </trkpt>
      <trkpt lat="43.69162" lon="1.1171">
        <ele>232.6</ele>
        <time>2024-07-11T07:44:51Z</time>
      </trkpt>
      <trkpt lat="43.69175" lon="1.11705">
        <ele>231.6</ele>
        <time>2024-07-11T07:44:52Z</time>
      </trkpt>
      <trkpt lat="43.69189" lon="1.117">
        <ele>230.2</ele>
        <time>2024-07-11T07:44:53Z</time>
      </trkpt>
      <trkpt lat="43.69202" lon="1.11695">
        <ele>229.6</ele>
        <time>2024-07-11T07:44:54Z</time>
      </trkpt>
      <trkpt lat="43.69214" lon="1.11691">
        <ele>228.4</ele>
        <time>2024-07-11T07:44:55Z</time>
      </trkpt>
      <trkpt lat="43.69226" lon="1.11686">
        <ele>228</ele>
        <time>2024-07-11T07:44:56Z</time>
      </trkpt>
      <trkpt lat="43.69238" lon="1.11681">
        <ele>227.4</ele>
        <time>2024-07-11T07:44:57Z</time>
      </trkpt>
      <trkpt lat="43.69249" lon="1.11676">
        <ele>227</ele>
        <time>2024-07-11T07:44:58Z</time>
      </trkpt>
      <trkpt lat="43.6926" lon="1.11672">
        <ele>227</ele>
        <time>2024-07-11T07:44:59Z</time>
      </trkpt>
      <trkpt lat="43.69271" lon="1.11668">
        <ele>226.4</ele>
        <time>2024-07-11T07:45:00Z</time>
      </trkpt>
      <trkpt lat="43.69282" lon="1.11665">
        <ele>226.2</ele>
        <time>2024-07-11T07:45:01Z</time>
      </trkpt>
      <trkpt lat="43.69292" lon="1.11663">
        <ele>225.8</ele>
        <time>2024-07-11T07:45:02Z</time>
      </trkpt>
      <trkpt lat="43.69302" lon="1.11663">
        <ele>225.6</ele>
        <time>2024-07-11T07:45:03Z</time>
      </trkpt>
      <trkpt lat="43.69312" lon="1.11665">
        <ele>225.4</ele>
        <time>2024-07-11T07:45:04Z</time>
      </trkpt>
      <trkpt lat="43.69321" lon="1.11668">
        <ele>225.2</ele>
        <time>2024-07-11T07:45:05Z</time>
      </trkpt>
      <trkpt lat="43.6933" lon="1.11673">
        <ele>225.2</ele>
        <time>2024-07-11T07:45:06Z</time>
      </trkpt>
      <trkpt lat="43.69339" lon="1.11678">
        <ele>225.2</ele>
        <time>2024-07-11T07:45:07Z</time>
      </trkpt>
      <trkpt lat="43.69348" lon="1.11682">
        <ele>225</ele>
        <time>2024-07-11T07:45:08Z</time>
      </trkpt>
      <trkpt lat="43.69357" lon="1.11687">
        <ele>225</ele>
        <time>2024-07-11T07:45:09Z</time>
      </trkpt>
      <trkpt lat="43.69368" lon="1.11692">
        <ele>224.8</ele>
        <time>2024-07-11T07:45:10Z</time>
      </trkpt>
      <trkpt lat="43.69377" lon="1.117">
        <ele>224.6</ele>
        <time>2024-07-11T07:45:11Z</time>
      </trkpt>
      <trkpt lat="43.69386" lon="1.1171">
        <ele>223.8</ele>
        <time>2024-07-11T07:45:12Z</time>
      </trkpt>
      <trkpt lat="43.69392" lon="1.11724">
        <ele>223.4</ele>
        <time>2024-07-11T07:45:13Z</time>
      </trkpt>
      <trkpt lat="43.69396" lon="1.11739">
        <ele>222.8</ele>
        <time>2024-07-11T07:45:14Z</time>
      </trkpt>
      <trkpt lat="43.69399" lon="1.11756">
        <ele>222.2</ele>
        <time>2024-07-11T07:45:15Z</time>
      </trkpt>
      <trkpt lat="43.69401" lon="1.11773">
        <ele>220.6</ele>
        <time>2024-07-11T07:45:16Z</time>
      </trkpt>
      <trkpt lat="43.69405" lon="1.11789">
        <ele>219</ele>
        <time>2024-07-11T07:45:17Z</time>
      </trkpt>
      <trkpt lat="43.69411" lon="1.11804">
        <ele>218.6</ele>
        <time>2024-07-11T07:45:18Z</time>
      </trkpt>
      <trkpt lat="43.69417" lon="1.11818">
        <ele>217.2</ele>
        <time>2024-07-11T07:45:19Z</time>
      </trkpt>
      <trkpt lat="43.69424" lon="1.11829">
        <ele>216.4</ele>
        <time>2024-07-11T07:45:20Z</time>
      </trkpt>
      <trkpt lat="43.69431" lon="1.11839">
        <ele>215.4</ele>
        <time>2024-07-11T07:45:21Z</time>
      </trkpt>
      <trkpt lat="43.69437" lon="1.11848">
        <ele>215.2</ele>
        <time>2024-07-11T07:45:22Z</time>
      </trkpt>
      <trkpt lat="43.69443" lon="1.11856">
        <ele>214.8</ele>
        <time>2024-07-11T07:45:23Z</time>
      </trkpt>
      <trkpt lat="43.69449" lon="1.11863">
        <ele>214.8</ele>
        <time>2024-07-11T07:45:24Z</time>
      </trkpt>
      <trkpt lat="43.69454" lon="1.11871">
        <ele>214.8</ele>
        <time>2024-07-11T07:45:25Z</time>
      </trkpt>
      <trkpt lat="43.69459" lon="1.11878">
        <ele>214.8</ele>
        <time>2024-07-11T07:45:26Z</time>
      </trkpt>
      <trkpt lat="43.69464" lon="1.11884">
        <ele>214.8</ele>
        <time>2024-07-11T07:45:27Z</time>
      </trkpt>
      <trkpt lat="43.69468" lon="1.11891">
        <ele>215.2</ele>
        <time>2024-07-11T07:45:28Z</time>
      </trkpt>
      <trkpt lat="43.69473" lon="1.11897">
        <ele>215.6</ele>
        <time>2024-07-11T07:45:29Z</time>
      </trkpt>
      <trkpt lat="43.69478" lon="1.11903">
        <ele>216.4</ele>
        <time>2024-07-11T07:45:30Z</time>
      </trkpt>
      <trkpt lat="43.69483" lon="1.1191">
        <ele>217.2</ele>
        <time>2024-07-11T07:45:31Z</time>
      </trkpt>
      <trkpt lat="43.69488" lon="1.11917">
        <ele>217.6</ele>
        <time>2024-07-11T07:45:32Z</time>
      </trkpt>
      <trkpt lat="43.69492" lon="1.11923">
        <ele>218</ele>
        <time>2024-07-11T07:45:33Z</time>
      </trkpt>
      <trkpt lat="43.69496" lon="1.11928">
        <ele>218.2</ele>
        <time>2024-07-11T07:45:34Z</time>
      </trkpt>
      <trkpt lat="43.69499" lon="1.11934">
        <ele>219</ele>
        <time>2024-07-11T07:45:35Z</time>
      </trkpt>
      <trkpt lat="43.69503" lon="1.11939">
        <ele>220.6</ele>
        <time>2024-07-11T07:45:36Z</time>
      </trkpt>
      <trkpt lat="43.69507" lon="1.11944">
        <ele>221</ele>
        <time>2024-07-11T07:45:37Z</time>
      </trkpt>
      <trkpt lat="43.69511" lon="1.11949">
        <ele>221.6</ele>
        <time>2024-07-11T07:45:38Z</time>
      </trkpt>
      <trkpt lat="43.69514" lon="1.11953">
        <ele>222</ele>
        <time>2024-07-11T07:45:39Z</time>
      </trkpt>
      <trkpt lat="43.69518" lon="1.11959">
        <ele>222.2</ele>
        <time>2024-07-11T07:45:40Z</time>
      </trkpt>
      <trkpt lat="43.6952" lon="1.11963">
        <ele>222.4</ele>
        <time>2024-07-11T07:45:41Z</time>
      </trkpt>
      <trkpt lat="43.69522" lon="1.11967">
        <ele>223</ele>
        <time>2024-07-11T07:45:42Z</time>
      </trkpt>
      <trkpt lat="43.69524" lon="1.1197">
        <ele>224.2</ele>
        <time>2024-07-11T07:45:43Z</time>
      </trkpt>
      <trkpt lat="43.69525" lon="1.11973">
        <ele>224.6</ele>
        <time>2024-07-11T07:45:44Z</time>
      </trkpt>
      <trkpt lat="43.69526" lon="1.11976">
        <ele>225.2</ele>
        <time>2024-07-11T07:45:45Z</time>
      </trkpt>
      <trkpt lat="43.69528" lon="1.11979">
        <ele>225.4</ele>
        <time>2024-07-11T07:45:46Z</time>
      </trkpt>
      <trkpt lat="43.69529" lon="1.11982">
        <ele>225.8</ele>
        <time>2024-07-11T07:45:47Z</time>
      </trkpt>
      <trkpt lat="43.6953" lon="1.11986">
        <ele>225.8</ele>
        <time>2024-07-11T07:45:48Z</time>
      </trkpt>
      <trkpt lat="43.69532" lon="1.11991">
        <ele>225.8</ele>
        <time>2024-07-11T07:45:49Z</time>
      </trkpt>
      <trkpt lat="43.69534" lon="1.11995">
        <ele>226</ele>
        <time>2024-07-11T07:45:50Z</time>
      </trkpt>
      <trkpt lat="43.69535" lon="1.12">
        <ele>226</ele>
        <time>2024-07-11T07:45:51Z</time>
      </trkpt>
      <trkpt lat="43.69537" lon="1.12005">
        <ele>226</ele>
        <time>2024-07-11T07:45:52Z</time>
      </trkpt>
      <trkpt lat="43.69539" lon="1.12012">
        <ele>226</ele>
        <time>2024-07-11T07:45:53Z</time>
      </trkpt>
      <trkpt lat="43.69541" lon="1.12018">
        <ele>226</ele>
        <time>2024-07-11T07:45:54Z</time>
      </trkpt>
      <trkpt lat="43.69543" lon="1.12026">
        <ele>226</ele>
        <time>2024-07-11T07:45:55Z</time>
      </trkpt>
      <trkpt lat="43.69546" lon="1.12035">
        <ele>225.8</ele>
        <time>2024-07-11T07:45:56Z</time>
      </trkpt>
      <trkpt lat="43.69548" lon="1.12042">
        <ele>225.6</ele>
        <time>2024-07-11T07:45:57Z</time>
      </trkpt>
      <trkpt lat="43.69551" lon="1.1205">
        <ele>225.6</ele>
        <time>2024-07-11T07:45:58Z</time>
      </trkpt>
      <trkpt lat="43.69553" lon="1.12058">
        <ele>225.6</ele>
        <time>2024-07-11T07:45:59Z</time>
      </trkpt>
      <trkpt lat="43.69556" lon="1.12066">
        <ele>225.2</ele>
        <time>2024-07-11T07:46:00Z</time>
      </trkpt>
      <trkpt lat="43.69558" lon="1.12074">
        <ele>224.6</ele>
        <time>2024-07-11T07:46:01Z</time>
      </trkpt>
      <trkpt lat="43.6956" lon="1.12082">
        <ele>224.2</ele>
        <time>2024-07-11T07:46:02Z</time>
      </trkpt>
      <trkpt lat="43.69563" lon="1.12091">
        <ele>224</ele>
        <time>2024-07-11T07:46:03Z</time>
      </trkpt>
      <trkpt lat="43.69565" lon="1.12099">
        <ele>223.8</ele>
        <time>2024-07-11T07:46:04Z</time>
      </trkpt>
      <trkpt lat="43.69567" lon="1.12107">
        <ele>223.6</ele>
        <time>2024-07-11T07:46:05Z</time>
      </trkpt>
      <trkpt lat="43.69569" lon="1.12117">
        <ele>223.2</ele>
        <time>2024-07-11T07:46:06Z</time>
      </trkpt>
      <trkpt lat="43.69571" lon="1.12123">
        <ele>223.2</ele>
        <time>2024-07-11T07:46:07Z</time>
      </trkpt>
      <trkpt lat="43.69573" lon="1.12132">
        <ele>222.8</ele>
        <time>2024-07-11T07:46:08Z</time>
      </trkpt>
      <trkpt lat="43.69574" lon="1.1214">
        <ele>222.8</ele>
        <time>2024-07-11T07:46:09Z</time>
      </trkpt>
      <trkpt lat="43.69576" lon="1.12148">
        <ele>222.6</ele>
        <time>2024-07-11T07:46:10Z</time>
      </trkpt>
      <trkpt lat="43.69577" lon="1.12157">
        <ele>222.4</ele>
        <time>2024-07-11T07:46:11Z</time>
      </trkpt>
      <trkpt lat="43.69579" lon="1.12165">
        <ele>222.2</ele>
        <time>2024-07-11T07:46:12Z</time>
      </trkpt>
      <trkpt lat="43.69581" lon="1.12173">
        <ele>222</ele>
        <time>2024-07-11T07:46:13Z</time>
      </trkpt>
      <trkpt lat="43.69582" lon="1.12181">
        <ele>221.8</ele>
        <time>2024-07-11T07:46:14Z</time>
      </trkpt>
      <trkpt lat="43.69584" lon="1.12191">
        <ele>221.8</ele>
        <time>2024-07-11T07:46:15Z</time>
      </trkpt>
      <trkpt lat="43.69585" lon="1.12197">
        <ele>221.8</ele>
        <time>2024-07-11T07:46:16Z</time>
      </trkpt>
      <trkpt lat="43.69587" lon="1.12205">
        <ele>221.6</ele>
        <time>2024-07-11T07:46:17Z</time>
      </trkpt>
      <trkpt lat="43.69588" lon="1.12213">
        <ele>221.6</ele>
        <time>2024-07-11T07:46:18Z</time>
      </trkpt>
      <trkpt lat="43.6959" lon="1.12222">
        <ele>221.6</ele>
        <time>2024-07-11T07:46:19Z</time>
      </trkpt>
      <trkpt lat="43.69591" lon="1.1223">
        <ele>221.2</ele>
        <time>2024-07-11T07:46:20Z</time>
      </trkpt>
      <trkpt lat="43.69593" lon="1.12239">
        <ele>221</ele>
        <time>2024-07-11T07:46:21Z</time>
      </trkpt>
      <trkpt lat="43.69594" lon="1.12248">
        <ele>220.8</ele>
        <time>2024-07-11T07:46:22Z</time>
      </trkpt>
      <trkpt lat="43.69596" lon="1.12257">
        <ele>220.8</ele>
        <time>2024-07-11T07:46:23Z</time>
      </trkpt>
      <trkpt lat="43.69598" lon="1.12267">
        <ele>220.6</ele>
        <time>2024-07-11T07:46:24Z</time>
      </trkpt>
      <trkpt lat="43.696" lon="1.12276">
        <ele>220.6</ele>
        <time>2024-07-11T07:46:25Z</time>
      </trkpt>
      <trkpt lat="43.69602" lon="1.12287">
        <ele>220.4</ele>
        <time>2024-07-11T07:46:26Z</time>
      </trkpt>
      <trkpt lat="43.69604" lon="1.12297">
        <ele>220</ele>
        <time>2024-07-11T07:46:27Z</time>
      </trkpt>
      <trkpt lat="43.69606" lon="1.12307">
        <ele>219.6</ele>
        <time>2024-07-11T07:46:28Z</time>
      </trkpt>
      <trkpt lat="43.69608" lon="1.12318">
        <ele>219.4</ele>
        <time>2024-07-11T07:46:29Z</time>
      </trkpt>
      <trkpt lat="43.6961" lon="1.12329">
        <ele>219.2</ele>
        <time>2024-07-11T07:46:30Z</time>
      </trkpt>
      <trkpt lat="43.69612" lon="1.1234">
        <ele>219.2</ele>
        <time>2024-07-11T07:46:31Z</time>
      </trkpt>
      <trkpt lat="43.69614" lon="1.12352">
        <ele>219</ele>
        <time>2024-07-11T07:46:32Z</time>
      </trkpt>
      <trkpt lat="43.69616" lon="1.12364">
        <ele>218.6</ele>
        <time>2024-07-11T07:46:33Z</time>
      </trkpt>
      <trkpt lat="43.69618" lon="1.12377">
        <ele>218.4</ele>
        <time>2024-07-11T07:46:34Z</time>
      </trkpt>
      <trkpt lat="43.6962" lon="1.12394">
        <ele>218</ele>
        <time>2024-07-11T07:46:35Z</time>
      </trkpt>
      <trkpt lat="43.69622" lon="1.12405">
        <ele>217.6</ele>
        <time>2024-07-11T07:46:36Z</time>
      </trkpt>
      <trkpt lat="43.69624" lon="1.12419">
        <ele>216.8</ele>
        <time>2024-07-11T07:46:37Z</time>
      </trkpt>
      <trkpt lat="43.69626" lon="1.12434">
        <ele>216.4</ele>
        <time>2024-07-11T07:46:38Z</time>
      </trkpt>
      <trkpt lat="43.69629" lon="1.12449">
        <ele>216</ele>
        <time>2024-07-11T07:46:39Z</time>
      </trkpt>
      <trkpt lat="43.69632" lon="1.12464">
        <ele>215.2</ele>
        <time>2024-07-11T07:46:40Z</time>
      </trkpt>
      <trkpt lat="43.69635" lon="1.12479">
        <ele>214.4</ele>
        <time>2024-07-11T07:46:41Z</time>
      </trkpt>
      <trkpt lat="43.69639" lon="1.12495">
        <ele>213.4</ele>
        <time>2024-07-11T07:46:42Z</time>
      </trkpt>
      <trkpt lat="43.69644" lon="1.12511">
        <ele>212.8</ele>
        <time>2024-07-11T07:46:43Z</time>
      </trkpt>
      <trkpt lat="43.69649" lon="1.12527">
        <ele>211.2</ele>
        <time>2024-07-11T07:46:44Z</time>
      </trkpt>
      <trkpt lat="43.69653" lon="1.12543">
        <ele>210.4</ele>
        <time>2024-07-11T07:46:45Z</time>
      </trkpt>
      <trkpt lat="43.69658" lon="1.12558">
        <ele>209.2</ele>
        <time>2024-07-11T07:46:46Z</time>
      </trkpt>
      <trkpt lat="43.69663" lon="1.12574">
        <ele>207.6</ele>
        <time>2024-07-11T07:46:47Z</time>
      </trkpt>
      <trkpt lat="43.69668" lon="1.12589">
        <ele>207</ele>
        <time>2024-07-11T07:46:48Z</time>
      </trkpt>
      <trkpt lat="43.69673" lon="1.12605">
        <ele>206</ele>
        <time>2024-07-11T07:46:49Z</time>
      </trkpt>
      <trkpt lat="43.69678" lon="1.12621">
        <ele>205.6</ele>
        <time>2024-07-11T07:46:50Z</time>
      </trkpt>
      <trkpt lat="43.69683" lon="1.12638">
        <ele>205.2</ele>
        <time>2024-07-11T07:46:51Z</time>
      </trkpt>
      <trkpt lat="43.69688" lon="1.12654">
        <ele>204.2</ele>
        <time>2024-07-11T07:46:52Z</time>
      </trkpt>
      <trkpt lat="43.69692" lon="1.12671">
        <ele>203.4</ele>
        <time>2024-07-11T07:46:53Z</time>
      </trkpt>
      <trkpt lat="43.69696" lon="1.12686">
        <ele>202.2</ele>
        <time>2024-07-11T07:46:54Z</time>
      </trkpt>
      <trkpt lat="43.697" lon="1.12705">
        <ele>201.8</ele>
        <time>2024-07-11T07:46:55Z</time>
      </trkpt>
      <trkpt lat="43.69702" lon="1.12717">
        <ele>200.8</ele>
        <time>2024-07-11T07:46:56Z</time>
      </trkpt>
      <trkpt lat="43.69705" lon="1.12731">
        <ele>200.6</ele>
        <time>2024-07-11T07:46:57Z</time>
      </trkpt>
      <trkpt lat="43.69708" lon="1.12745">
        <ele>200.2</ele>
        <time>2024-07-11T07:46:58Z</time>
      </trkpt>
      <trkpt lat="43.69711" lon="1.12759">
        <ele>200</ele>
        <time>2024-07-11T07:46:59Z</time>
      </trkpt>
      <trkpt lat="43.69714" lon="1.12772">
        <ele>199.8</ele>
        <time>2024-07-11T07:47:00Z</time>
      </trkpt>
      <trkpt lat="43.69717" lon="1.12785">
        <ele>199.6</ele>
        <time>2024-07-11T07:47:01Z</time>
      </trkpt>
      <trkpt lat="43.69719" lon="1.12799">
        <ele>199.4</ele>
        <time>2024-07-11T07:47:02Z</time>
      </trkpt>
      <trkpt lat="43.69722" lon="1.12812">
        <ele>199.4</ele>
        <time>2024-07-11T07:47:03Z</time>
      </trkpt>
      <trkpt lat="43.69725" lon="1.12828">
        <ele>199.4</ele>
        <time>2024-07-11T07:47:04Z</time>
      </trkpt>
      <trkpt lat="43.69727" lon="1.12838">
        <ele>199.2</ele>
        <time>2024-07-11T07:47:05Z</time>
      </trkpt>
      <trkpt lat="43.69729" lon="1.1285">
        <ele>199.2</ele>
        <time>2024-07-11T07:47:06Z</time>
      </trkpt>
      <trkpt lat="43.69731" lon="1.12863">
        <ele>199.2</ele>
        <time>2024-07-11T07:47:07Z</time>
      </trkpt>
      <trkpt lat="43.69733" lon="1.12875">
        <ele>198.8</ele>
        <time>2024-07-11T07:47:08Z</time>
      </trkpt>
      <trkpt lat="43.69736" lon="1.1289">
        <ele>198.8</ele>
        <time>2024-07-11T07:47:09Z</time>
      </trkpt>
      <trkpt lat="43.69738" lon="1.12902">
        <ele>198.6</ele>
        <time>2024-07-11T07:47:10Z</time>
      </trkpt>
      <trkpt lat="43.6974" lon="1.12914">
        <ele>198.4</ele>
        <time>2024-07-11T07:47:11Z</time>
      </trkpt>
      <trkpt lat="43.69742" lon="1.12925">
        <ele>198.4</ele>
        <time>2024-07-11T07:47:12Z</time>
      </trkpt>
      <trkpt lat="43.69744" lon="1.12937">
        <ele>198</ele>
        <time>2024-07-11T07:47:13Z</time>
      </trkpt>
      <trkpt lat="43.69747" lon="1.12949">
        <ele>197.8</ele>
        <time>2024-07-11T07:47:14Z</time>
      </trkpt>
      <trkpt lat="43.69749" lon="1.1296">
        <ele>197.6</ele>
        <time>2024-07-11T07:47:15Z</time>
      </trkpt>
      <trkpt lat="43.69751" lon="1.12971">
        <ele>197.6</ele>
        <time>2024-07-11T07:47:16Z</time>
      </trkpt>
      <trkpt lat="43.69753" lon="1.12983">
        <ele>197.4</ele>
        <time>2024-07-11T07:47:17Z</time>
      </trkpt>
      <trkpt lat="43.69756" lon="1.12994">
        <ele>197</ele>
        <time>2024-07-11T07:47:18Z</time>
      </trkpt>
      <trkpt lat="43.69758" lon="1.13005">
        <ele>196.8</ele>
        <time>2024-07-11T07:47:19Z</time>
      </trkpt>
      <trkpt lat="43.6976" lon="1.13016">
        <ele>196.6</ele>
        <time>2024-07-11T07:47:20Z</time>
      </trkpt>
      <trkpt lat="43.69762" lon="1.13027">
        <ele>196.6</ele>
        <time>2024-07-11T07:47:21Z</time>
      </trkpt>
      <trkpt lat="43.69764" lon="1.13038">
        <ele>196.2</ele>
        <time>2024-07-11T07:47:22Z</time>
      </trkpt>
      <trkpt lat="43.69766" lon="1.1305">
        <ele>195.8</ele>
        <time>2024-07-11T07:47:23Z</time>
      </trkpt>
      <trkpt lat="43.69768" lon="1.13061">
        <ele>195.6</ele>
        <time>2024-07-11T07:47:24Z</time>
      </trkpt>
      <trkpt lat="43.6977" lon="1.13072">
        <ele>195.4</ele>
        <time>2024-07-11T07:47:25Z</time>
      </trkpt>
      <trkpt lat="43.69773" lon="1.13083">
        <ele>195.2</ele>
        <time>2024-07-11T07:47:26Z</time>
      </trkpt>
      <trkpt lat="43.69776" lon="1.13094">
        <ele>195</ele>
        <time>2024-07-11T07:47:27Z</time>
      </trkpt>
      <trkpt lat="43.69781" lon="1.13104">
        <ele>195</ele>
        <time>2024-07-11T07:47:28Z</time>
      </trkpt>
      <trkpt lat="43.69786" lon="1.13113">
        <ele>194.8</ele>
        <time>2024-07-11T07:47:29Z</time>
      </trkpt>
      <trkpt lat="43.69793" lon="1.1312">
        <ele>194.6</ele>
        <time>2024-07-11T07:47:30Z</time>
      </trkpt>
      <trkpt lat="43.69801" lon="1.13124">
        <ele>194.4</ele>
        <time>2024-07-11T07:47:31Z</time>
      </trkpt>
      <trkpt lat="43.69809" lon="1.13127">
        <ele>194</ele>
        <time>2024-07-11T07:47:32Z</time>
      </trkpt>
      <trkpt lat="43.69816" lon="1.13128">
        <ele>193.8</ele>
        <time>2024-07-11T07:47:33Z</time>
      </trkpt>
      <trkpt lat="43.69824" lon="1.1313">
        <ele>193.6</ele>
        <time>2024-07-11T07:47:34Z</time>
      </trkpt>
      <trkpt lat="43.69835" lon="1.13132">
        <ele>193.4</ele>
        <time>2024-07-11T07:47:35Z</time>
      </trkpt>
      <trkpt lat="43.69844" lon="1.13134">
        <ele>193.2</ele>
        <time>2024-07-11T07:47:36Z</time>
      </trkpt>
      <trkpt lat="43.69853" lon="1.13136">
        <ele>192.8</ele>
        <time>2024-07-11T07:47:37Z</time>
      </trkpt>
      <trkpt lat="43.69862" lon="1.13138">
        <ele>192.6</ele>
        <time>2024-07-11T07:47:38Z</time>
      </trkpt>
      <trkpt lat="43.69871" lon="1.1314">
        <ele>192.2</ele>
        <time>2024-07-11T07:47:39Z</time>
      </trkpt>
      <trkpt lat="43.69881" lon="1.13142">
        <ele>191.8</ele>
        <time>2024-07-11T07:47:40Z</time>
      </trkpt>
      <trkpt lat="43.69891" lon="1.13144">
        <ele>191.6</ele>
        <time>2024-07-11T07:47:41Z</time>
      </trkpt>
      <trkpt lat="43.699" lon="1.13147">
        <ele>191.2</ele>
        <time>2024-07-11T07:47:42Z</time>
      </trkpt>
      <trkpt lat="43.69909" lon="1.13152">
        <ele>191.2</ele>
        <time>2024-07-11T07:47:43Z</time>
      </trkpt>
      <trkpt lat="43.69916" lon="1.13159">
        <ele>190.8</ele>
        <time>2024-07-11T07:47:44Z</time>
      </trkpt>
      <trkpt lat="43.69923" lon="1.13167">
        <ele>190.6</ele>
        <time>2024-07-11T07:47:45Z</time>
      </trkpt>
      <trkpt lat="43.69929" lon="1.13176">
        <ele>190.2</ele>
        <time>2024-07-11T07:47:46Z</time>
      </trkpt>
      <trkpt lat="43.69934" lon="1.13186">
        <ele>190</ele>
        <time>2024-07-11T07:47:47Z</time>
      </trkpt>
      <trkpt lat="43.69938" lon="1.13195">
        <ele>189.8</ele>
        <time>2024-07-11T07:47:48Z</time>
      </trkpt>
      <trkpt lat="43.69943" lon="1.13205">
        <ele>189.8</ele>
        <time>2024-07-11T07:47:49Z</time>
      </trkpt>
      <trkpt lat="43.69947" lon="1.13214">
        <ele>189.8</ele>
        <time>2024-07-11T07:47:50Z</time>
      </trkpt>
      <trkpt lat="43.69952" lon="1.13223">
        <ele>189.8</ele>
        <time>2024-07-11T07:47:51Z</time>
      </trkpt>
      <trkpt lat="43.69956" lon="1.13232">
        <ele>190</ele>
        <time>2024-07-11T07:47:52Z</time>
      </trkpt>
      <trkpt lat="43.69961" lon="1.13241">
        <ele>190.2</ele>
        <time>2024-07-11T07:47:53Z</time>
      </trkpt>
      <trkpt lat="43.69965" lon="1.1325">
        <ele>190.2</ele>
        <time>2024-07-11T07:47:54Z</time>
      </trkpt>
      <trkpt lat="43.6997" lon="1.13259">
        <ele>190.4</ele>
        <time>2024-07-11T07:47:55Z</time>
      </trkpt>
      <trkpt lat="43.69974" lon="1.13267">
        <ele>190.6</ele>
        <time>2024-07-11T07:47:56Z</time>
      </trkpt>
      <trkpt lat="43.69978" lon="1.13276">
        <ele>190.8</ele>
        <time>2024-07-11T07:47:57Z</time>
      </trkpt>
      <trkpt lat="43.69982" lon="1.13285">
        <ele>191.2</ele>
        <time>2024-07-11T07:47:58Z</time>
      </trkpt>
      <trkpt lat="43.69985" lon="1.13294">
        <ele>191.4</ele>
        <time>2024-07-11T07:47:59Z</time>
      </trkpt>
      <trkpt lat="43.69989" lon="1.13304">
        <ele>191.8</ele>
        <time>2024-07-11T07:48:00Z</time>
      </trkpt>
      <trkpt lat="43.69991" lon="1.13314">
        <ele>192</ele>
        <time>2024-07-11T07:48:01Z</time>
      </trkpt>
      <trkpt lat="43.69994" lon="1.13324">
        <ele>192</ele>
        <time>2024-07-11T07:48:02Z</time>
      </trkpt>
      <trkpt lat="43.69996" lon="1.13334">
        <ele>192.2</ele>
        <time>2024-07-11T07:48:03Z</time>
      </trkpt>
      <trkpt lat="43.69998" lon="1.13344">
        <ele>192.2</ele>
        <time>2024-07-11T07:48:04Z</time>
      </trkpt>
      <trkpt lat="43.7" lon="1.13355">
        <ele>192.6</ele>
        <time>2024-07-11T07:48:05Z</time>
      </trkpt>
      <trkpt lat="43.70002" lon="1.13365">
        <ele>192.6</ele>
        <time>2024-07-11T07:48:06Z</time>
      </trkpt>
      <trkpt lat="43.70005" lon="1.13375">
        <ele>192.8</ele>
        <time>2024-07-11T07:48:07Z</time>
      </trkpt>
      <trkpt lat="43.70007" lon="1.13386">
        <ele>193</ele>
        <time>2024-07-11T07:48:08Z</time>
      </trkpt>
      <trkpt lat="43.70009" lon="1.13396">
        <ele>193</ele>
        <time>2024-07-11T07:48:09Z</time>
      </trkpt>
      <trkpt lat="43.70011" lon="1.13406">
        <ele>193</ele>
        <time>2024-07-11T07:48:10Z</time>
      </trkpt>
      <trkpt lat="43.70013" lon="1.13414">
        <ele>193</ele>
        <time>2024-07-11T07:48:11Z</time>
      </trkpt>
      <trkpt lat="43.70015" lon="1.13427">
        <ele>193</ele>
        <time>2024-07-11T07:48:12Z</time>
      </trkpt>
      <trkpt lat="43.70018" lon="1.13437">
        <ele>193</ele>
        <time>2024-07-11T07:48:13Z</time>
      </trkpt>
      <trkpt lat="43.7002" lon="1.13447">
        <ele>193</ele>
        <time>2024-07-11T07:48:14Z</time>
      </trkpt>
      <trkpt lat="43.70022" lon="1.13458">
        <ele>193</ele>
        <time>2024-07-11T07:48:15Z</time>
      </trkpt>
      <trkpt lat="43.70024" lon="1.13466">
        <ele>193</ele>
        <time>2024-07-11T07:48:16Z</time>
      </trkpt>
      <trkpt lat="43.70027" lon="1.13478">
        <ele>192.8</ele>
        <time>2024-07-11T07:48:17Z</time>
      </trkpt>
      <trkpt lat="43.70029" lon="1.13488">
        <ele>192.8</ele>
        <time>2024-07-11T07:48:18Z</time>
      </trkpt>
      <trkpt lat="43.70032" lon="1.13498">
        <ele>192.6</ele>
        <time>2024-07-11T07:48:19Z</time>
      </trkpt>
      <trkpt lat="43.70034" lon="1.13508">
        <ele>192.6</ele>
        <time>2024-07-11T07:48:20Z</time>
      </trkpt>
      <trkpt lat="43.70036" lon="1.13518">
        <ele>192.6</ele>
        <time>2024-07-11T07:48:21Z</time>
      </trkpt>
      <trkpt lat="43.70038" lon="1.13528">
        <ele>192.6</ele>
        <time>2024-07-11T07:48:22Z</time>
      </trkpt>
      <trkpt lat="43.7004" lon="1.13538">
        <ele>192.6</ele>
        <time>2024-07-11T07:48:23Z</time>
      </trkpt>
      <trkpt lat="43.70041" lon="1.13546">
        <ele>192.4</ele>
        <time>2024-07-11T07:48:24Z</time>
      </trkpt>
      <trkpt lat="43.70043" lon="1.13558">
        <ele>192.4</ele>
        <time>2024-07-11T07:48:25Z</time>
      </trkpt>
      <trkpt lat="43.70045" lon="1.13567">
        <ele>192.4</ele>
        <time>2024-07-11T07:48:26Z</time>
      </trkpt>
      <trkpt lat="43.70047" lon="1.13577">
        <ele>192.4</ele>
        <time>2024-07-11T07:48:27Z</time>
      </trkpt>
      <trkpt lat="43.7005" lon="1.13586">
        <ele>192.4</ele>
        <time>2024-07-11T07:48:28Z</time>
      </trkpt>
      <trkpt lat="43.70053" lon="1.13594">
        <ele>192.4</ele>
        <time>2024-07-11T07:48:29Z</time>
      </trkpt>
      <trkpt lat="43.70056" lon="1.13602">
        <ele>192.4</ele>
        <time>2024-07-11T07:48:30Z</time>
      </trkpt>
      <trkpt lat="43.7006" lon="1.13609">
        <ele>192.4</ele>
        <time>2024-07-11T07:48:31Z</time>
      </trkpt>
      <trkpt lat="43.70065" lon="1.13614">
        <ele>192.4</ele>
        <time>2024-07-11T07:48:32Z</time>
      </trkpt>
      <trkpt lat="43.70069" lon="1.13619">
        <ele>192.6</ele>
        <time>2024-07-11T07:48:33Z</time>
      </trkpt>
      <trkpt lat="43.70074" lon="1.13622">
        <ele>193</ele>
        <time>2024-07-11T07:48:34Z</time>
      </trkpt>
      <trkpt lat="43.70079" lon="1.13626">
        <ele>193</ele>
        <time>2024-07-11T07:48:35Z</time>
      </trkpt>
      <trkpt lat="43.70084" lon="1.13629">
        <ele>193.4</ele>
        <time>2024-07-11T07:48:36Z</time>
      </trkpt>
      <trkpt lat="43.70088" lon="1.13632">
        <ele>193.8</ele>
        <time>2024-07-11T07:48:37Z</time>
      </trkpt>
      <trkpt lat="43.70092" lon="1.13634">
        <ele>194.2</ele>
        <time>2024-07-11T07:48:38Z</time>
      </trkpt>
      <trkpt lat="43.70096" lon="1.13636">
        <ele>194.8</ele>
        <time>2024-07-11T07:48:39Z</time>
      </trkpt>
      <trkpt lat="43.701" lon="1.13638">
        <ele>195</ele>
        <time>2024-07-11T07:48:40Z</time>
      </trkpt>
      <trkpt lat="43.70104" lon="1.1364">
        <ele>195.6</ele>
        <time>2024-07-11T07:48:41Z</time>
      </trkpt>
      <trkpt lat="43.70108" lon="1.13642">
        <ele>195.8</ele>
        <time>2024-07-11T07:48:42Z</time>
      </trkpt>
      <trkpt lat="43.70111" lon="1.13643">
        <ele>196.2</ele>
        <time>2024-07-11T07:48:43Z</time>
      </trkpt>
      <trkpt lat="43.70116" lon="1.13646">
        <ele>196.6</ele>
        <time>2024-07-11T07:48:44Z</time>
      </trkpt>
      <trkpt lat="43.70119" lon="1.13648">
        <ele>196.6</ele>
        <time>2024-07-11T07:48:45Z</time>
      </trkpt>
      <trkpt lat="43.70123" lon="1.13651">
        <ele>197.4</ele>
        <time>2024-07-11T07:48:46Z</time>
      </trkpt>
      <trkpt lat="43.70126" lon="1.13654">
        <ele>197.6</ele>
        <time>2024-07-11T07:48:47Z</time>
      </trkpt>
      <trkpt lat="43.70129" lon="1.13656">
        <ele>198</ele>
        <time>2024-07-11T07:48:48Z</time>
      </trkpt>
      <trkpt lat="43.70132" lon="1.13661">
        <ele>198.2</ele>
        <time>2024-07-11T07:48:49Z</time>
      </trkpt>
      <trkpt lat="43.70135" lon="1.13664">
        <ele>199</ele>
        <time>2024-07-11T07:48:50Z</time>
      </trkpt>
      <trkpt lat="43.70138" lon="1.13668">
        <ele>199.4</ele>
        <time>2024-07-11T07:48:51Z</time>
      </trkpt>
      <trkpt lat="43.7014" lon="1.13672">
        <ele>199.6</ele>
        <time>2024-07-11T07:48:52Z</time>
      </trkpt>
      <trkpt lat="43.70142" lon="1.13676">
        <ele>200.2</ele>
        <time>2024-07-11T07:48:53Z</time>
      </trkpt>
      <trkpt lat="43.70145" lon="1.13679">
        <ele>200.4</ele>
        <time>2024-07-11T07:48:54Z</time>
      </trkpt>
      <trkpt lat="43.70147" lon="1.13683">
        <ele>201.2</ele>
        <time>2024-07-11T07:48:55Z</time>
      </trkpt>
      <trkpt lat="43.70149" lon="1.13686">
        <ele>201.4</ele>
        <time>2024-07-11T07:48:56Z</time>
      </trkpt>
      <trkpt lat="43.70151" lon="1.1369">
        <ele>202</ele>
        <time>2024-07-11T07:48:57Z</time>
      </trkpt>
      <trkpt lat="43.70153" lon="1.13692">
        <ele>202.4</ele>
        <time>2024-07-11T07:48:58Z</time>
      </trkpt>
      <trkpt lat="43.70155" lon="1.13696">
        <ele>202.6</ele>
        <time>2024-07-11T07:48:59Z</time>
      </trkpt>
      <trkpt lat="43.70157" lon="1.13699">
        <ele>203</ele>
        <time>2024-07-11T07:49:00Z</time>
      </trkpt>
      <trkpt lat="43.70159" lon="1.13702">
        <ele>203.2</ele>
        <time>2024-07-11T07:49:01Z</time>
      </trkpt>
      <trkpt lat="43.70161" lon="1.13704">
        <ele>203.6</ele>
        <time>2024-07-11T07:49:02Z</time>
      </trkpt>
      <trkpt lat="43.70164" lon="1.13708">
        <ele>204</ele>
        <time>2024-07-11T07:49:03Z</time>
      </trkpt>
      <trkpt lat="43.70166" lon="1.13712">
        <ele>204.2</ele>
        <time>2024-07-11T07:49:04Z</time>
      </trkpt>
      <trkpt lat="43.70168" lon="1.13715">
        <ele>204.4</ele>
        <time>2024-07-11T07:49:05Z</time>
      </trkpt>
      <trkpt lat="43.7017" lon="1.13718">
        <ele>204.4</ele>
        <time>2024-07-11T07:49:06Z</time>
      </trkpt>
      <trkpt lat="43.70172" lon="1.13721">
        <ele>205.2</ele>
        <time>2024-07-11T07:49:07Z</time>
      </trkpt>
      <trkpt lat="43.70174" lon="1.13724">
        <ele>205.6</ele>
        <time>2024-07-11T07:49:08Z</time>
      </trkpt>
      <trkpt lat="43.70176" lon="1.13727">
        <ele>206.2</ele>
        <time>2024-07-11T07:49:09Z</time>
      </trkpt>
      <trkpt lat="43.70178" lon="1.1373">
        <ele>206.6</ele>
        <time>2024-07-11T07:49:10Z</time>
      </trkpt>
      <trkpt lat="43.70181" lon="1.13732">
        <ele>206.6</ele>
        <time>2024-07-11T07:49:11Z</time>
      </trkpt>
      <trkpt lat="43.70183" lon="1.13734">
        <ele>206.8</ele>
        <time>2024-07-11T07:49:12Z</time>
      </trkpt>
      <trkpt lat="43.70185" lon="1.13737">
        <ele>207.2</ele>
        <time>2024-07-11T07:49:13Z</time>
      </trkpt>
      <trkpt lat="43.70187" lon="1.13739">
        <ele>207.8</ele>
        <time>2024-07-11T07:49:14Z</time>
      </trkpt>
      <trkpt lat="43.7019" lon="1.13742">
        <ele>208</ele>
        <time>2024-07-11T07:49:15Z</time>
      </trkpt>
      <trkpt lat="43.70192" lon="1.13744">
        <ele>208.4</ele>
        <time>2024-07-11T07:49:16Z</time>
      </trkpt>
      <trkpt lat="43.70194" lon="1.13746">
        <ele>208.8</ele>
        <time>2024-07-11T07:49:17Z</time>
      </trkpt>
      <trkpt lat="43.70197" lon="1.13747">
        <ele>209.2</ele>
        <time>2024-07-11T07:49:18Z</time>
      </trkpt>
      <trkpt lat="43.70199" lon="1.13748">
        <ele>209.4</ele>
        <time>2024-07-11T07:49:19Z</time>
      </trkpt>
      <trkpt lat="43.70201" lon="1.1375">
        <ele>209.6</ele>
        <time>2024-07-11T07:49:20Z</time>
      </trkpt>
      <trkpt lat="43.70203" lon="1.13751">
        <ele>209.8</ele>
        <time>2024-07-11T07:49:21Z</time>
      </trkpt>
      <trkpt lat="43.70206" lon="1.13752">
        <ele>210.2</ele>
        <time>2024-07-11T07:49:22Z</time>
      </trkpt>
      <trkpt lat="43.70208" lon="1.13753">
        <ele>210.2</ele>
        <time>2024-07-11T07:49:23Z</time>
      </trkpt>
      <trkpt lat="43.70211" lon="1.13755">
        <ele>210.8</ele>
        <time>2024-07-11T07:49:24Z</time>
      </trkpt>
      <trkpt lat="43.70214" lon="1.13756">
        <ele>211</ele>
        <time>2024-07-11T07:49:25Z</time>
      </trkpt>
      <trkpt lat="43.70216" lon="1.13757">
        <ele>211.2</ele>
        <time>2024-07-11T07:49:26Z</time>
      </trkpt>
      <trkpt lat="43.70219" lon="1.13758">
        <ele>211.4</ele>
        <time>2024-07-11T07:49:27Z</time>
      </trkpt>
      <trkpt lat="43.70222" lon="1.13759">
        <ele>211.6</ele>
        <time>2024-07-11T07:49:28Z</time>
      </trkpt>
      <trkpt lat="43.70224" lon="1.13759">
        <ele>212</ele>
        <time>2024-07-11T07:49:29Z</time>
      </trkpt>
      <trkpt lat="43.70226" lon="1.1376">
        <ele>212.2</ele>
        <time>2024-07-11T07:49:30Z</time>
      </trkpt>
      <trkpt lat="43.70229" lon="1.13761">
        <ele>212.4</ele>
        <time>2024-07-11T07:49:31Z</time>
      </trkpt>
      <trkpt lat="43.70232" lon="1.13762">
        <ele>212.6</ele>
        <time>2024-07-11T07:49:32Z</time>
      </trkpt>
      <trkpt lat="43.70234" lon="1.13762">
        <ele>213</ele>
        <time>2024-07-11T07:49:33Z</time>
      </trkpt>
      <trkpt lat="43.70237" lon="1.13763">
        <ele>213.2</ele>
        <time>2024-07-11T07:49:34Z</time>
      </trkpt>
      <trkpt lat="43.70239" lon="1.13764">
        <ele>213.4</ele>
        <time>2024-07-11T07:49:35Z</time>
      </trkpt>
      <trkpt lat="43.70242" lon="1.13764">
        <ele>213.6</ele>
        <time>2024-07-11T07:49:36Z</time>
      </trkpt>
      <trkpt lat="43.70244" lon="1.13765">
        <ele>213.8</ele>
        <time>2024-07-11T07:49:37Z</time>
      </trkpt>
      <trkpt lat="43.70247" lon="1.13766">
        <ele>214</ele>
        <time>2024-07-11T07:49:38Z</time>
      </trkpt>
      <trkpt lat="43.7025" lon="1.13767">
        <ele>214</ele>
        <time>2024-07-11T07:49:39Z</time>
      </trkpt>
      <trkpt lat="43.70252" lon="1.13768">
        <ele>214.2</ele>
        <time>2024-07-11T07:49:40Z</time>
      </trkpt>
      <trkpt lat="43.70255" lon="1.13769">
        <ele>214.6</ele>
        <time>2024-07-11T07:49:41Z</time>
      </trkpt>
      <trkpt lat="43.70257" lon="1.1377">
        <ele>214.8</ele>
        <time>2024-07-11T07:49:42Z</time>
      </trkpt>
      <trkpt lat="43.7026" lon="1.13771">
        <ele>215</ele>
        <time>2024-07-11T07:49:43Z</time>
      </trkpt>
      <trkpt lat="43.70262" lon="1.13773">
        <ele>215</ele>
        <time>2024-07-11T07:49:44Z</time>
      </trkpt>
      <trkpt lat="43.70264" lon="1.13774">
        <ele>215.4</ele>
        <time>2024-07-11T07:49:45Z</time>
      </trkpt>
      <trkpt lat="43.70266" lon="1.13775">
        <ele>215.6</ele>
        <time>2024-07-11T07:49:46Z</time>
      </trkpt>
      <trkpt lat="43.70268" lon="1.13776">
        <ele>216</ele>
        <time>2024-07-11T07:49:47Z</time>
      </trkpt>
      <trkpt lat="43.7027" lon="1.13778">
        <ele>216</ele>
        <time>2024-07-11T07:49:48Z</time>
      </trkpt>
      <trkpt lat="43.70272" lon="1.13779">
        <ele>216.2</ele>
        <time>2024-07-11T07:49:49Z</time>
      </trkpt>
      <trkpt lat="43.70275" lon="1.13781">
        <ele>216.6</ele>
        <time>2024-07-11T07:49:50Z</time>
      </trkpt>
      <trkpt lat="43.70277" lon="1.13782">
        <ele>216.6</ele>
        <time>2024-07-11T07:49:51Z</time>
      </trkpt>
      <trkpt lat="43.70279" lon="1.13784">
        <ele>217</ele>
        <time>2024-07-11T07:49:52Z</time>
      </trkpt>
      <trkpt lat="43.70281" lon="1.13785">
        <ele>217.2</ele>
        <time>2024-07-11T07:49:53Z</time>
      </trkpt>
      <trkpt lat="43.70283" lon="1.13787">
        <ele>217.4</ele>
        <time>2024-07-11T07:49:54Z</time>
      </trkpt>
      <trkpt lat="43.70285" lon="1.13788">
        <ele>217.6</ele>
        <time>2024-07-11T07:49:55Z</time>
      </trkpt>
      <trkpt lat="43.70287" lon="1.1379">
        <ele>217.6</ele>
        <time>2024-07-11T07:49:56Z</time>
      </trkpt>
      <trkpt lat="43.70289" lon="1.13791">
        <ele>218</ele>
        <time>2024-07-11T07:49:57Z</time>
      </trkpt>
      <trkpt lat="43.70291" lon="1.13793">
        <ele>218.2</ele>
        <time>2024-07-11T07:49:58Z</time>
      </trkpt>
      <trkpt lat="43.70293" lon="1.13794">
        <ele>218.6</ele>
        <time>2024-07-11T07:49:59Z</time>
      </trkpt>
      <trkpt lat="43.70295" lon="1.13796">
        <ele>218.8</ele>
        <time>2024-07-11T07:50:00Z</time>
      </trkpt>
      <trkpt lat="43.70297" lon="1.13798">
        <ele>218.8</ele>
        <time>2024-07-11T07:50:01Z</time>
      </trkpt>
      <trkpt lat="43.70299" lon="1.13799">
        <ele>219.2</ele>
        <time>2024-07-11T07:50:02Z</time>
      </trkpt>
      <trkpt lat="43.70301" lon="1.13801">
        <ele>219.2</ele>
        <time>2024-07-11T07:50:03Z</time>
      </trkpt>
      <trkpt lat="43.70303" lon="1.13803">
        <ele>219.4</ele>
        <time>2024-07-11T07:50:04Z</time>
      </trkpt>
      <trkpt lat="43.70305" lon="1.13805">
        <ele>219.6</ele>
        <time>2024-07-11T07:50:05Z</time>
      </trkpt>
      <trkpt lat="43.70307" lon="1.13806">
        <ele>219.8</ele>
        <time>2024-07-11T07:50:06Z</time>
      </trkpt>
      <trkpt lat="43.70309" lon="1.13808">
        <ele>220.2</ele>
        <time>2024-07-11T07:50:07Z</time>
      </trkpt>
      <trkpt lat="43.7031" lon="1.1381">
        <ele>220.4</ele>
        <time>2024-07-11T07:50:08Z</time>
      </trkpt>
      <trkpt lat="43.70312" lon="1.13811">
        <ele>220.6</ele>
        <time>2024-07-11T07:50:09Z</time>
      </trkpt>
      <trkpt lat="43.70314" lon="1.13812">
        <ele>220.8</ele>
        <time>2024-07-11T07:50:10Z</time>
      </trkpt>
      <trkpt lat="43.70316" lon="1.13814">
        <ele>221.2</ele>
        <time>2024-07-11T07:50:11Z</time>
      </trkpt>
      <trkpt lat="43.70318" lon="1.13815">
        <ele>221.6</ele>
        <time>2024-07-11T07:50:12Z</time>
      </trkpt>
      <trkpt lat="43.7032" lon="1.13817">
        <ele>221.8</ele>
        <time>2024-07-11T07:50:13Z</time>
      </trkpt>
      <trkpt lat="43.70322" lon="1.13819">
        <ele>222.2</ele>
        <time>2024-07-11T07:50:14Z</time>
      </trkpt>
      <trkpt lat="43.70324" lon="1.1382">
        <ele>222.4</ele>
        <time>2024-07-11T07:50:15Z</time>
      </trkpt>
      <trkpt lat="43.70326" lon="1.13822">
        <ele>222.8</ele>
        <time>2024-07-11T07:50:16Z</time>
      </trkpt>
      <trkpt lat="43.70328" lon="1.13824">
        <ele>222.8</ele>
        <time>2024-07-11T07:50:17Z</time>
      </trkpt>
      <trkpt lat="43.7033" lon="1.13826">
        <ele>223.2</ele>
        <time>2024-07-11T07:50:18Z</time>
      </trkpt>
      <trkpt lat="43.70332" lon="1.13828">
        <ele>223.4</ele>
        <time>2024-07-11T07:50:19Z</time>
      </trkpt>
      <trkpt lat="43.70334" lon="1.1383">
        <ele>223.6</ele>
        <time>2024-07-11T07:50:20Z</time>
      </trkpt>
      <trkpt lat="43.70337" lon="1.13831">
        <ele>223.8</ele>
        <time>2024-07-11T07:50:21Z</time>
      </trkpt>
      <trkpt lat="43.70338" lon="1.13833">
        <ele>224</ele>
        <time>2024-07-11T07:50:22Z</time>
      </trkpt>
      <trkpt lat="43.7034" lon="1.13835">
        <ele>224.2</ele>
        <time>2024-07-11T07:50:23Z</time>
      </trkpt>
      <trkpt lat="43.70342" lon="1.13836">
        <ele>224.4</ele>
        <time>2024-07-11T07:50:24Z</time>
      </trkpt>
      <trkpt lat="43.70344" lon="1.13838">
        <ele>224.6</ele>
        <time>2024-07-11T07:50:25Z</time>
      </trkpt>
      <trkpt lat="43.70346" lon="1.13839">
        <ele>224.8</ele>
        <time>2024-07-11T07:50:26Z</time>
      </trkpt>
      <trkpt lat="43.70348" lon="1.13841">
        <ele>224.8</ele>
        <time>2024-07-11T07:50:27Z</time>
      </trkpt>
      <trkpt lat="43.7035" lon="1.13843">
        <ele>225.2</ele>
        <time>2024-07-11T07:50:28Z</time>
      </trkpt>
      <trkpt lat="43.70352" lon="1.13844">
        <ele>225.4</ele>
        <time>2024-07-11T07:50:29Z</time>
      </trkpt>
      <trkpt lat="43.70354" lon="1.13846">
        <ele>225.8</ele>
        <time>2024-07-11T07:50:30Z</time>
      </trkpt>
      <trkpt lat="43.70356" lon="1.13848">
        <ele>226.2</ele>
        <time>2024-07-11T07:50:31Z</time>
      </trkpt>
      <trkpt lat="43.70358" lon="1.13849">
        <ele>226.4</ele>
        <time>2024-07-11T07:50:32Z</time>
      </trkpt>
      <trkpt lat="43.70359" lon="1.13851">
        <ele>226.8</ele>
        <time>2024-07-11T07:50:33Z</time>
      </trkpt>
      <trkpt lat="43.70361" lon="1.13852">
        <ele>226.8</ele>
        <time>2024-07-11T07:50:34Z</time>
      </trkpt>
      <trkpt lat="43.70363" lon="1.13853">
        <ele>227.2</ele>
        <time>2024-07-11T07:50:35Z</time>
      </trkpt>
      <trkpt lat="43.70365" lon="1.13855">
        <ele>227.2</ele>
        <time>2024-07-11T07:50:36Z</time>
      </trkpt>
      <trkpt lat="43.70367" lon="1.13856">
        <ele>227.6</ele>
        <time>2024-07-11T07:50:37Z</time>
      </trkpt>
      <trkpt lat="43.70369" lon="1.13858">
        <ele>228</ele>
        <time>2024-07-11T07:50:38Z</time>
      </trkpt>
      <trkpt lat="43.7037" lon="1.13859">
        <ele>228.2</ele>
        <time>2024-07-11T07:50:39Z</time>
      </trkpt>
      <trkpt lat="43.70373" lon="1.13861">
        <ele>228.4</ele>
        <time>2024-07-11T07:50:40Z</time>
      </trkpt>
      <trkpt lat="43.70375" lon="1.13863">
        <ele>228.6</ele>
        <time>2024-07-11T07:50:41Z</time>
      </trkpt>
      <trkpt lat="43.70377" lon="1.13865">
        <ele>229</ele>
        <time>2024-07-11T07:50:42Z</time>
      </trkpt>
      <trkpt lat="43.70379" lon="1.13867">
        <ele>229.2</ele>
        <time>2024-07-11T07:50:43Z</time>
      </trkpt>
      <trkpt lat="43.70381" lon="1.13868">
        <ele>229.6</ele>
        <time>2024-07-11T07:50:44Z</time>
      </trkpt>
      <trkpt lat="43.70383" lon="1.13869">
        <ele>229.8</ele>
        <time>2024-07-11T07:50:45Z</time>
      </trkpt>
      <trkpt lat="43.70385" lon="1.13871">
        <ele>230</ele>
        <time>2024-07-11T07:50:46Z</time>
      </trkpt>
      <trkpt lat="43.70387" lon="1.13873">
        <ele>230.4</ele>
        <time>2024-07-11T07:50:47Z</time>
      </trkpt>
      <trkpt lat="43.70389" lon="1.13874">
        <ele>230.6</ele>
        <time>2024-07-11T07:50:48Z</time>
      </trkpt>
      <trkpt lat="43.7039" lon="1.13876">
        <ele>231</ele>
        <time>2024-07-11T07:50:49Z</time>
      </trkpt>
      <trkpt lat="43.70392" lon="1.13877">
        <ele>231.2</ele>
        <time>2024-07-11T07:50:50Z</time>
      </trkpt>
      <trkpt lat="43.70395" lon="1.13879">
        <ele>231.2</ele>
        <time>2024-07-11T07:50:51Z</time>
      </trkpt>
      <trkpt lat="43.70396" lon="1.1388">
        <ele>231.4</ele>
        <time>2024-07-11T07:50:52Z</time>
      </trkpt>
      <trkpt lat="43.70398" lon="1.13882">
        <ele>231.6</ele>
        <time>2024-07-11T07:50:53Z</time>
      </trkpt>
      <trkpt lat="43.704" lon="1.13883">
        <ele>231.8</ele>
        <time>2024-07-11T07:50:54Z</time>
      </trkpt>
      <trkpt lat="43.70402" lon="1.13884">
        <ele>232</ele>
        <time>2024-07-11T07:50:55Z</time>
      </trkpt>
      <trkpt lat="43.70404" lon="1.13886">
        <ele>232.2</ele>
        <time>2024-07-11T07:50:56Z</time>
      </trkpt>
      <trkpt lat="43.70406" lon="1.13887">
        <ele>232.4</ele>
        <time>2024-07-11T07:50:57Z</time>
      </trkpt>
      <trkpt lat="43.70408" lon="1.13888">
        <ele>232.6</ele>
        <time>2024-07-11T07:50:58Z</time>
      </trkpt>
      <trkpt lat="43.7041" lon="1.1389">
        <ele>233</ele>
        <time>2024-07-11T07:50:59Z</time>
      </trkpt>
      <trkpt lat="43.70412" lon="1.13891">
        <ele>233</ele>
        <time>2024-07-11T07:51:00Z</time>
      </trkpt>
      <trkpt lat="43.70413" lon="1.13892">
        <ele>233.4</ele>
        <time>2024-07-11T07:51:01Z</time>
      </trkpt>
      <trkpt lat="43.70415" lon="1.13893">
        <ele>233.6</ele>
        <time>2024-07-11T07:51:02Z</time>
      </trkpt>
      <trkpt lat="43.70416" lon="1.13894">
        <ele>233.8</ele>
        <time>2024-07-11T07:51:03Z</time>
      </trkpt>
      <trkpt lat="43.70418" lon="1.13894">
        <ele>234.2</ele>
        <time>2024-07-11T07:51:04Z</time>
      </trkpt>
      <trkpt lat="43.70419" lon="1.13896">
        <ele>234.2</ele>
        <time>2024-07-11T07:51:05Z</time>
      </trkpt>
      <trkpt lat="43.70422" lon="1.13898">
        <ele>234.6</ele>
        <time>2024-07-11T07:51:06Z</time>
      </trkpt>
      <trkpt lat="43.70424" lon="1.139">
        <ele>234.6</ele>
        <time>2024-07-11T07:51:07Z</time>
      </trkpt>
      <trkpt lat="43.70425" lon="1.13901">
        <ele>235</ele>
        <time>2024-07-11T07:51:08Z</time>
      </trkpt>
      <trkpt lat="43.70427" lon="1.13902">
        <ele>235.2</ele>
        <time>2024-07-11T07:51:09Z</time>
      </trkpt>
      <trkpt lat="43.70429" lon="1.13903">
        <ele>235.4</ele>
        <time>2024-07-11T07:51:10Z</time>
      </trkpt>
      <trkpt lat="43.70431" lon="1.13905">
        <ele>235.6</ele>
        <time>2024-07-11T07:51:11Z</time>
      </trkpt>
      <trkpt lat="43.70433" lon="1.13907">
        <ele>235.8</ele>
        <time>2024-07-11T07:51:12Z</time>
      </trkpt>
      <trkpt lat="43.70434" lon="1.13908">
        <ele>236.2</ele>
        <time>2024-07-11T07:51:13Z</time>
      </trkpt>
      <trkpt lat="43.70436" lon="1.13909">
        <ele>236.4</ele>
        <time>2024-07-11T07:51:14Z</time>
      </trkpt>
      <trkpt lat="43.70438" lon="1.1391">
        <ele>236.8</ele>
        <time>2024-07-11T07:51:15Z</time>
      </trkpt>
      <trkpt lat="43.7044" lon="1.13913">
        <ele>237</ele>
        <time>2024-07-11T07:51:16Z</time>
      </trkpt>
      <trkpt lat="43.70442" lon="1.13916">
        <ele>237.2</ele>
        <time>2024-07-11T07:51:17Z</time>
      </trkpt>
      <trkpt lat="43.70443" lon="1.13917">
        <ele>237.6</ele>
        <time>2024-07-11T07:51:18Z</time>
      </trkpt>
      <trkpt lat="43.70445" lon="1.13918">
        <ele>237.8</ele>
        <time>2024-07-11T07:51:19Z</time>
      </trkpt>
      <trkpt lat="43.70447" lon="1.1392">
        <ele>238</ele>
        <time>2024-07-11T07:51:20Z</time>
      </trkpt>
      <trkpt lat="43.7045" lon="1.13923">
        <ele>238.4</ele>
        <time>2024-07-11T07:51:21Z</time>
      </trkpt>
      <trkpt lat="43.70452" lon="1.13925">
        <ele>238.4</ele>
        <time>2024-07-11T07:51:22Z</time>
      </trkpt>
      <trkpt lat="43.70454" lon="1.13928">
        <ele>238.8</ele>
        <time>2024-07-11T07:51:23Z</time>
      </trkpt>
      <trkpt lat="43.70457" lon="1.13929">
        <ele>239</ele>
        <time>2024-07-11T07:51:24Z</time>
      </trkpt>
      <trkpt lat="43.70459" lon="1.13931">
        <ele>239.6</ele>
        <time>2024-07-11T07:51:25Z</time>
      </trkpt>
      <trkpt lat="43.70462" lon="1.13932">
        <ele>239.8</ele>
        <time>2024-07-11T07:51:26Z</time>
      </trkpt>
      <trkpt lat="43.70465" lon="1.13933">
        <ele>240.2</ele>
        <time>2024-07-11T07:51:27Z</time>
      </trkpt>
      <trkpt lat="43.70468" lon="1.13935">
        <ele>240.4</ele>
        <time>2024-07-11T07:51:28Z</time>
      </trkpt>
      <trkpt lat="43.70472" lon="1.13938">
        <ele>240.6</ele>
        <time>2024-07-11T07:51:29Z</time>
      </trkpt>
      <trkpt lat="43.70475" lon="1.1394">
        <ele>240.8</ele>
        <time>2024-07-11T07:51:30Z</time>
      </trkpt>
      <trkpt lat="43.70478" lon="1.13943">
        <ele>241</ele>
        <time>2024-07-11T07:51:31Z</time>
      </trkpt>
      <trkpt lat="43.70481" lon="1.13944">
        <ele>241.4</ele>
        <time>2024-07-11T07:51:32Z</time>
      </trkpt>
      <trkpt lat="43.70484" lon="1.13946">
        <ele>241.6</ele>
        <time>2024-07-11T07:51:33Z</time>
      </trkpt>
      <trkpt lat="43.70487" lon="1.13948">
        <ele>241.8</ele>
        <time>2024-07-11T07:51:34Z</time>
      </trkpt>
      <trkpt lat="43.70491" lon="1.13949">
        <ele>242</ele>
        <time>2024-07-11T07:51:35Z</time>
      </trkpt>
      <trkpt lat="43.70495" lon="1.13952">
        <ele>242</ele>
        <time>2024-07-11T07:51:36Z</time>
      </trkpt>
      <trkpt lat="43.70499" lon="1.13954">
        <ele>242.2</ele>
        <time>2024-07-11T07:51:37Z</time>
      </trkpt>
      <trkpt lat="43.70503" lon="1.13956">
        <ele>242.4</ele>
        <time>2024-07-11T07:51:38Z</time>
      </trkpt>
      <trkpt lat="43.70508" lon="1.13959">
        <ele>242.8</ele>
        <time>2024-07-11T07:51:39Z</time>
      </trkpt>
      <trkpt lat="43.70511" lon="1.13961">
        <ele>242.6</ele>
        <time>2024-07-11T07:51:40Z</time>
      </trkpt>
      <trkpt lat="43.70515" lon="1.13963">
        <ele>242.6</ele>
        <time>2024-07-11T07:51:41Z</time>
      </trkpt>
      <trkpt lat="43.7052" lon="1.13966">
        <ele>243.2</ele>
        <time>2024-07-11T07:51:42Z</time>
      </trkpt>
      <trkpt lat="43.70525" lon="1.13969">
        <ele>243.2</ele>
        <time>2024-07-11T07:51:43Z</time>
      </trkpt>
      <trkpt lat="43.70529" lon="1.13971">
        <ele>243</ele>
        <time>2024-07-11T07:51:44Z</time>
      </trkpt>
      <trkpt lat="43.70534" lon="1.13975">
        <ele>243</ele>
        <time>2024-07-11T07:51:45Z</time>
      </trkpt>
      <trkpt lat="43.70539" lon="1.13978">
        <ele>243.2</ele>
        <time>2024-07-11T07:51:46Z</time>
      </trkpt>
      <trkpt lat="43.70543" lon="1.13981">
        <ele>243.2</ele>
        <time>2024-07-11T07:51:47Z</time>
      </trkpt>
      <trkpt lat="43.70547" lon="1.13984">
        <ele>243.2</ele>
        <time>2024-07-11T07:51:48Z</time>
      </trkpt>
      <trkpt lat="43.70552" lon="1.13988">
        <ele>243.2</ele>
        <time>2024-07-11T07:51:49Z</time>
      </trkpt>
      <trkpt lat="43.70557" lon="1.13993">
        <ele>243.4</ele>
        <time>2024-07-11T07:51:50Z</time>
      </trkpt>
      <trkpt lat="43.70561" lon="1.13997">
        <ele>243.4</ele>
        <time>2024-07-11T07:51:51Z</time>
      </trkpt>
      <trkpt lat="43.70566" lon="1.14002">
        <ele>243.4</ele>
        <time>2024-07-11T07:51:52Z</time>
      </trkpt>
      <trkpt lat="43.7057" lon="1.14006">
        <ele>243.4</ele>
        <time>2024-07-11T07:51:53Z</time>
      </trkpt>
      <trkpt lat="43.70575" lon="1.1401">
        <ele>243.4</ele>
        <time>2024-07-11T07:51:54Z</time>
      </trkpt>
      <trkpt lat="43.7058" lon="1.14015">
        <ele>243.4</ele>
        <time>2024-07-11T07:51:55Z</time>
      </trkpt>
      <trkpt lat="43.70584" lon="1.1402">
        <ele>243.6</ele>
        <time>2024-07-11T07:51:56Z</time>
      </trkpt>
      <trkpt lat="43.70589" lon="1.14024">
        <ele>243.6</ele>
        <time>2024-07-11T07:51:57Z</time>
      </trkpt>
      <trkpt lat="43.70594" lon="1.14029">
        <ele>243.6</ele>
        <time>2024-07-11T07:51:58Z</time>
      </trkpt>
      <trkpt lat="43.70598" lon="1.14033">
        <ele>243.6</ele>
        <time>2024-07-11T07:51:59Z</time>
      </trkpt>
      <trkpt lat="43.70603" lon="1.14037">
        <ele>243.6</ele>
        <time>2024-07-11T07:52:00Z</time>
      </trkpt>
      <trkpt lat="43.70607" lon="1.14042">
        <ele>243.6</ele>
        <time>2024-07-11T07:52:01Z</time>
      </trkpt>
      <trkpt lat="43.70612" lon="1.14046">
        <ele>243.6</ele>
        <time>2024-07-11T07:52:02Z</time>
      </trkpt>
      <trkpt lat="43.70616" lon="1.14051">
        <ele>243.8</ele>
        <time>2024-07-11T07:52:03Z</time>
      </trkpt>
      <trkpt lat="43.70621" lon="1.14056">
        <ele>243.8</ele>
        <time>2024-07-11T07:52:04Z</time>
      </trkpt>
      <trkpt lat="43.70625" lon="1.14062">
        <ele>243.8</ele>
        <time>2024-07-11T07:52:05Z</time>
      </trkpt>
      <trkpt lat="43.70629" lon="1.14069">
        <ele>243.8</ele>
        <time>2024-07-11T07:52:06Z</time>
      </trkpt>
      <trkpt lat="43.70632" lon="1.14073">
        <ele>243.8</ele>
        <time>2024-07-11T07:52:07Z</time>
      </trkpt>
      <trkpt lat="43.70634" lon="1.14078">
        <ele>244</ele>
        <time>2024-07-11T07:52:08Z</time>
      </trkpt>
      <trkpt lat="43.70637" lon="1.14083">
        <ele>244</ele>
        <time>2024-07-11T07:52:09Z</time>
      </trkpt>
      <trkpt lat="43.70639" lon="1.14089">
        <ele>244.2</ele>
        <time>2024-07-11T07:52:10Z</time>
      </trkpt>
      <trkpt lat="43.70641" lon="1.14093">
        <ele>244.4</ele>
        <time>2024-07-11T07:52:11Z</time>
      </trkpt>
      <trkpt lat="43.70643" lon="1.14098">
        <ele>244.6</ele>
        <time>2024-07-11T07:52:12Z</time>
      </trkpt>
      <trkpt lat="43.70644" lon="1.14102">
        <ele>244.6</ele>
        <time>2024-07-11T07:52:13Z</time>
      </trkpt>
      <trkpt lat="43.70646" lon="1.14107">
        <ele>244.8</ele>
        <time>2024-07-11T07:52:14Z</time>
      </trkpt>
      <trkpt lat="43.70646" lon="1.14107">
        <ele>245.2</ele>
        <time>2024-07-11T07:52:15Z</time>
      </trkpt>
      <trkpt lat="43.70647" lon="1.14115">
        <ele>245.4</ele>
        <time>2024-07-11T07:52:16Z</time>
      </trkpt>
      <trkpt lat="43.70647" lon="1.14119">
        <ele>245.8</ele>
        <time>2024-07-11T07:52:17Z</time>
      </trkpt>
      <trkpt lat="43.70648" lon="1.14124">
        <ele>246.2</ele>
        <time>2024-07-11T07:52:18Z</time>
      </trkpt>
      <trkpt lat="43.7065" lon="1.1413">
        <ele>246.4</ele>
        <time>2024-07-11T07:52:19Z</time>
      </trkpt>
      <trkpt lat="43.70651" lon="1.14135">
        <ele>246.8</ele>
        <time>2024-07-11T07:52:20Z</time>
      </trkpt>
      <trkpt lat="43.70653" lon="1.14141">
        <ele>246.8</ele>
        <time>2024-07-11T07:52:21Z</time>
      </trkpt>
      <trkpt lat="43.70654" lon="1.14145">
        <ele>247.2</ele>
        <time>2024-07-11T07:52:22Z</time>
      </trkpt>
      <trkpt lat="43.70655" lon="1.1415">
        <ele>247.6</ele>
        <time>2024-07-11T07:52:23Z</time>
      </trkpt>
      <trkpt lat="43.70656" lon="1.14156">
        <ele>248</ele>
        <time>2024-07-11T07:52:24Z</time>
      </trkpt>
      <trkpt lat="43.70658" lon="1.14162">
        <ele>248.4</ele>
        <time>2024-07-11T07:52:25Z</time>
      </trkpt>
      <trkpt lat="43.7066" lon="1.14169">
        <ele>248.4</ele>
        <time>2024-07-11T07:52:26Z</time>
      </trkpt>
      <trkpt lat="43.70661" lon="1.14175">
        <ele>248.6</ele>
        <time>2024-07-11T07:52:27Z</time>
      </trkpt>
      <trkpt lat="43.70662" lon="1.14181">
        <ele>248.8</ele>
        <time>2024-07-11T07:52:28Z</time>
      </trkpt>
      <trkpt lat="43.70663" lon="1.14186">
        <ele>249.2</ele>
        <time>2024-07-11T07:52:29Z</time>
      </trkpt>
      <trkpt lat="43.70664" lon="1.14192">
        <ele>249.6</ele>
        <time>2024-07-11T07:52:30Z</time>
      </trkpt>
      <trkpt lat="43.70665" lon="1.14197">
        <ele>250</ele>
        <time>2024-07-11T07:52:31Z</time>
      </trkpt>
      <trkpt lat="43.70665" lon="1.14201">
        <ele>250.2</ele>
        <time>2024-07-11T07:52:32Z</time>
      </trkpt>
      <trkpt lat="43.70666" lon="1.14206">
        <ele>250.4</ele>
        <time>2024-07-11T07:52:33Z</time>
      </trkpt>
      <trkpt lat="43.70667" lon="1.14211">
        <ele>250.8</ele>
        <time>2024-07-11T07:52:34Z</time>
      </trkpt>
      <trkpt lat="43.70667" lon="1.14216">
        <ele>251</ele>
        <time>2024-07-11T07:52:35Z</time>
      </trkpt>
      <trkpt lat="43.70668" lon="1.14221">
        <ele>251.4</ele>
        <time>2024-07-11T07:52:36Z</time>
      </trkpt>
      <trkpt lat="43.70669" lon="1.14226">
        <ele>251.6</ele>
        <time>2024-07-11T07:52:37Z</time>
      </trkpt>
      <trkpt lat="43.7067" lon="1.14231">
        <ele>251.8</ele>
        <time>2024-07-11T07:52:38Z</time>
      </trkpt>
      <trkpt lat="43.70671" lon="1.14235">
        <ele>252</ele>
        <time>2024-07-11T07:52:39Z</time>
      </trkpt>
      <trkpt lat="43.70672" lon="1.14239">
        <ele>252.2</ele>
        <time>2024-07-11T07:52:40Z</time>
      </trkpt>
      <trkpt lat="43.70673" lon="1.14243">
        <ele>252.4</ele>
        <time>2024-07-11T07:52:41Z</time>
      </trkpt>
      <trkpt lat="43.70673" lon="1.14248">
        <ele>252.6</ele>
        <time>2024-07-11T07:52:42Z</time>
      </trkpt>
      <trkpt lat="43.70674" lon="1.14252">
        <ele>252.8</ele>
        <time>2024-07-11T07:52:43Z</time>
      </trkpt>
      <trkpt lat="43.70675" lon="1.14255">
        <ele>253</ele>
        <time>2024-07-11T07:52:44Z</time>
      </trkpt>
      <trkpt lat="43.70675" lon="1.14259">
        <ele>253.2</ele>
        <time>2024-07-11T07:52:45Z</time>
      </trkpt>
      <trkpt lat="43.70676" lon="1.14263">
        <ele>253.8</ele>
        <time>2024-07-11T07:52:46Z</time>
      </trkpt>
      <trkpt lat="43.70677" lon="1.14267">
        <ele>254</ele>
        <time>2024-07-11T07:52:47Z</time>
      </trkpt>
      <trkpt lat="43.70677" lon="1.14271">
        <ele>254.2</ele>
        <time>2024-07-11T07:52:48Z</time>
      </trkpt>
      <trkpt lat="43.70678" lon="1.14275">
        <ele>254.6</ele>
        <time>2024-07-11T07:52:49Z</time>
      </trkpt>
      <trkpt lat="43.70678" lon="1.14279">
        <ele>254.6</ele>
        <time>2024-07-11T07:52:50Z</time>
      </trkpt>
      <trkpt lat="43.70679" lon="1.14283">
        <ele>254.8</ele>
        <time>2024-07-11T07:52:51Z</time>
      </trkpt>
      <trkpt lat="43.70679" lon="1.14286">
        <ele>255</ele>
        <time>2024-07-11T07:52:52Z</time>
      </trkpt>
      <trkpt lat="43.70679" lon="1.14288">
        <ele>255.2</ele>
        <time>2024-07-11T07:52:53Z</time>
      </trkpt>
      <trkpt lat="43.7068" lon="1.1429">
        <ele>256</ele>
        <time>2024-07-11T07:52:54Z</time>
      </trkpt>
      <trkpt lat="43.70681" lon="1.14292">
        <ele>256.4</ele>
        <time>2024-07-11T07:52:55Z</time>
      </trkpt>
      <trkpt lat="43.70681" lon="1.14294">
        <ele>256.8</ele>
        <time>2024-07-11T07:52:56Z</time>
      </trkpt>
      <trkpt lat="43.70681" lon="1.14296">
        <ele>256.8</ele>
        <time>2024-07-11T07:52:57Z</time>
      </trkpt>
      <trkpt lat="43.70682" lon="1.14297">
        <ele>257</ele>
        <time>2024-07-11T07:52:58Z</time>
      </trkpt>
      <trkpt lat="43.70683" lon="1.14297">
        <ele>257.2</ele>
        <time>2024-07-11T07:52:59Z</time>
      </trkpt>
      <trkpt lat="43.70683" lon="1.14296">
        <ele>257.4</ele>
        <time>2024-07-11T07:53:00Z</time>
      </trkpt>
      <trkpt lat="43.70684" lon="1.14294">
        <ele>257.6</ele>
        <time>2024-07-11T07:53:01Z</time>
      </trkpt>
      <trkpt lat="43.70683" lon="1.14292">
        <ele>257.6</ele>
        <time>2024-07-11T07:53:02Z</time>
      </trkpt>
      <trkpt lat="43.70682" lon="1.14288">
        <ele>257.8</ele>
        <time>2024-07-11T07:53:03Z</time>
      </trkpt>
      <trkpt lat="43.70681" lon="1.14285">
        <ele>257.8</ele>
        <time>2024-07-11T07:53:04Z</time>
      </trkpt>
      <trkpt lat="43.7068" lon="1.1428">
        <ele>257.8</ele>
        <time>2024-07-11T07:53:05Z</time>
      </trkpt>
      <trkpt lat="43.70679" lon="1.14274">
        <ele>257.8</ele>
        <time>2024-07-11T07:53:06Z</time>
      </trkpt>
      <trkpt lat="43.70678" lon="1.14269">
        <ele>257.8</ele>
        <time>2024-07-11T07:53:07Z</time>
      </trkpt>
      <trkpt lat="43.70677" lon="1.14263">
        <ele>257.6</ele>
        <time>2024-07-11T07:53:08Z</time>
      </trkpt>
      <trkpt lat="43.70676" lon="1.14258">
        <ele>257.4</ele>
        <time>2024-07-11T07:53:09Z</time>
      </trkpt>
      <trkpt lat="43.70675" lon="1.14251">
        <ele>257</ele>
        <time>2024-07-11T07:53:10Z</time>
      </trkpt>
      <trkpt lat="43.70673" lon="1.14244">
        <ele>256.8</ele>
        <time>2024-07-11T07:53:11Z</time>
      </trkpt>
      <trkpt lat="43.70672" lon="1.14237">
        <ele>256.6</ele>
        <time>2024-07-11T07:53:12Z</time>
      </trkpt>
      <trkpt lat="43.70671" lon="1.1423">
        <ele>256.2</ele>
        <time>2024-07-11T07:53:13Z</time>
      </trkpt>
      <trkpt lat="43.70669" lon="1.14223">
        <ele>256.2</ele>
        <time>2024-07-11T07:53:14Z</time>
      </trkpt>
      <trkpt lat="43.70668" lon="1.14215">
        <ele>255.6</ele>
        <time>2024-07-11T07:53:15Z</time>
      </trkpt>
      <trkpt lat="43.70667" lon="1.14208">
        <ele>255.2</ele>
        <time>2024-07-11T07:53:16Z</time>
      </trkpt>
      <trkpt lat="43.70665" lon="1.142">
        <ele>254.4</ele>
        <time>2024-07-11T07:53:17Z</time>
      </trkpt>
      <trkpt lat="43.70663" lon="1.14192">
        <ele>254</ele>
        <time>2024-07-11T07:53:18Z</time>
      </trkpt>
      <trkpt lat="43.70661" lon="1.14183">
        <ele>253.4</ele>
        <time>2024-07-11T07:53:19Z</time>
      </trkpt>
      <trkpt lat="43.70659" lon="1.14174">
        <ele>253</ele>
        <time>2024-07-11T07:53:20Z</time>
      </trkpt>
      <trkpt lat="43.70657" lon="1.14166">
        <ele>252.6</ele>
        <time>2024-07-11T07:53:21Z</time>
      </trkpt>
      <trkpt lat="43.70655" lon="1.14157">
        <ele>252.2</ele>
        <time>2024-07-11T07:53:22Z</time>
      </trkpt>
      <trkpt lat="43.70653" lon="1.14148">
        <ele>252</ele>
        <time>2024-07-11T07:53:23Z</time>
      </trkpt>
      <trkpt lat="43.70651" lon="1.14141">
        <ele>251.6</ele>
        <time>2024-07-11T07:53:24Z</time>
      </trkpt>
      <trkpt lat="43.70651" lon="1.14134">
        <ele>251.2</ele>
        <time>2024-07-11T07:53:25Z</time>
      </trkpt>
      <trkpt lat="43.70649" lon="1.14128">
        <ele>250.4</ele>
        <time>2024-07-11T07:53:26Z</time>
      </trkpt>
      <trkpt lat="43.70647" lon="1.14123">
        <ele>250</ele>
        <time>2024-07-11T07:53:27Z</time>
      </trkpt>
      <trkpt lat="43.70645" lon="1.14116">
        <ele>249.8</ele>
        <time>2024-07-11T07:53:28Z</time>
      </trkpt>
      <trkpt lat="43.70643" lon="1.14108">
        <ele>249.2</ele>
        <time>2024-07-11T07:53:29Z</time>
      </trkpt>
      <trkpt lat="43.7064" lon="1.141">
        <ele>249</ele>
        <time>2024-07-11T07:53:30Z</time>
      </trkpt>
      <trkpt lat="43.70636" lon="1.1409">
        <ele>248.4</ele>
        <time>2024-07-11T07:53:31Z</time>
      </trkpt>
      <trkpt lat="43.70634" lon="1.14082">
        <ele>247.8</ele>
        <time>2024-07-11T07:53:32Z</time>
      </trkpt>
      <trkpt lat="43.7063" lon="1.14075">
        <ele>247.6</ele>
        <time>2024-07-11T07:53:33Z</time>
      </trkpt>
      <trkpt lat="43.70627" lon="1.14069">
        <ele>247.2</ele>
        <time>2024-07-11T07:53:34Z</time>
      </trkpt>
      <trkpt lat="43.70624" lon="1.14064">
        <ele>247</ele>
        <time>2024-07-11T07:53:35Z</time>
      </trkpt>
      <trkpt lat="43.70619" lon="1.14055">
        <ele>246.8</ele>
        <time>2024-07-11T07:53:36Z</time>
      </trkpt>
      <trkpt lat="43.70616" lon="1.1405">
        <ele>246.6</ele>
        <time>2024-07-11T07:53:37Z</time>
      </trkpt>
      <trkpt lat="43.70612" lon="1.14044">
        <ele>246.4</ele>
        <time>2024-07-11T07:53:38Z</time>
      </trkpt>
      <trkpt lat="43.7061" lon="1.1404">
        <ele>246</ele>
        <time>2024-07-11T07:53:39Z</time>
      </trkpt>
      <trkpt lat="43.70609" lon="1.14039">
        <ele>245.8</ele>
        <time>2024-07-11T07:53:40Z</time>
      </trkpt>
      <trkpt lat="43.70608" lon="1.14037">
        <ele>245.6</ele>
        <time>2024-07-11T07:53:41Z</time>
      </trkpt>
      <trkpt lat="43.70608" lon="1.14037">
        <ele>245.4</ele>
        <time>2024-07-11T07:53:42Z</time>
      </trkpt>
      <trkpt lat="43.70608" lon="1.14037">
        <ele>245.2</ele>
        <time>2024-07-11T07:53:43Z</time>
      </trkpt>
      <trkpt lat="43.70608" lon="1.14037">
        <ele>244.8</ele>
        <time>2024-07-11T07:53:44Z</time>
      </trkpt>
      <trkpt lat="43.70605" lon="1.14034">
        <ele>244.6</ele>
        <time>2024-07-11T07:54:08Z</time>
      </trkpt>
      <trkpt lat="43.70603" lon="1.14033">
        <ele>244.6</ele>
        <time>2024-07-11T07:54:09Z</time>
      </trkpt>
      <trkpt lat="43.70602" lon="1.14031">
        <ele>244.2</ele>
        <time>2024-07-11T07:54:10Z</time>
      </trkpt>
      <trkpt lat="43.706" lon="1.1403">
        <ele>244.2</ele>
        <time>2024-07-11T07:54:11Z</time>
      </trkpt>
      <trkpt lat="43.70599" lon="1.14028">
        <ele>244.2</ele>
        <time>2024-07-11T07:54:12Z</time>
      </trkpt>
      <trkpt lat="43.70597" lon="1.14026">
        <ele>244.2</ele>
        <time>2024-07-11T07:54:13Z</time>
      </trkpt>
      <trkpt lat="43.70595" lon="1.14024">
        <ele>244.2</ele>
        <time>2024-07-11T07:54:14Z</time>
      </trkpt>
      <trkpt lat="43.70594" lon="1.14024">
        <ele>244.2</ele>
        <time>2024-07-11T07:54:15Z</time>
      </trkpt>
      <trkpt lat="43.70593" lon="1.14024">
        <ele>244.2</ele>
        <time>2024-07-11T07:54:16Z</time>
      </trkpt>
      <trkpt lat="43.70593" lon="1.14026">
        <ele>244</ele>
        <time>2024-07-11T07:54:17Z</time>
      </trkpt>
      <trkpt lat="43.70594" lon="1.14028">
        <ele>244</ele>
        <time>2024-07-11T07:54:18Z</time>
      </trkpt>
      <trkpt lat="43.70596" lon="1.1403">
        <ele>244</ele>
        <time>2024-07-11T07:54:19Z</time>
      </trkpt>
      <trkpt lat="43.70598" lon="1.14032">
        <ele>244</ele>
        <time>2024-07-11T07:54:20Z</time>
      </trkpt>
      <trkpt lat="43.70601" lon="1.14034">
        <ele>243.8</ele>
        <time>2024-07-11T07:54:21Z</time>
      </trkpt>
      <trkpt lat="43.70604" lon="1.14037">
        <ele>243.8</ele>
        <time>2024-07-11T07:54:22Z</time>
      </trkpt>
      <trkpt lat="43.70607" lon="1.1404">
        <ele>243.8</ele>
        <time>2024-07-11T07:54:23Z</time>
      </trkpt>
      <trkpt lat="43.7061" lon="1.14043">
        <ele>243.8</ele>
        <time>2024-07-11T07:54:24Z</time>
      </trkpt>
      <trkpt lat="43.70613" lon="1.14046">
        <ele>243.8</ele>
        <time>2024-07-11T07:54:25Z</time>
      </trkpt>
      <trkpt lat="43.70616" lon="1.1405">
        <ele>243.8</ele>
        <time>2024-07-11T07:54:26Z</time>
      </trkpt>
      <trkpt lat="43.7062" lon="1.14053">
        <ele>243.8</ele>
        <time>2024-07-11T07:54:27Z</time>
      </trkpt>
      <trkpt lat="43.70623" lon="1.14057">
        <ele>243.8</ele>
        <time>2024-07-11T07:54:28Z</time>
      </trkpt>
      <trkpt lat="43.70626" lon="1.14062">
        <ele>243.8</ele>
        <time>2024-07-11T07:54:29Z</time>
      </trkpt>
      <trkpt lat="43.70628" lon="1.14066">
        <ele>244</ele>
        <time>2024-07-11T07:54:30Z</time>
      </trkpt>
      <trkpt lat="43.70631" lon="1.14071">
        <ele>244.2</ele>
        <time>2024-07-11T07:54:31Z</time>
      </trkpt>
      <trkpt lat="43.70633" lon="1.14075">
        <ele>244.2</ele>
        <time>2024-07-11T07:54:32Z</time>
      </trkpt>
      <trkpt lat="43.70634" lon="1.14078">
        <ele>244.4</ele>
        <time>2024-07-11T07:54:33Z</time>
      </trkpt>
      <trkpt lat="43.70636" lon="1.14082">
        <ele>244.4</ele>
        <time>2024-07-11T07:54:34Z</time>
      </trkpt>
      <trkpt lat="43.70638" lon="1.14087">
        <ele>244.4</ele>
        <time>2024-07-11T07:54:35Z</time>
      </trkpt>
      <trkpt lat="43.7064" lon="1.14092">
        <ele>244.8</ele>
        <time>2024-07-11T07:54:36Z</time>
      </trkpt>
      <trkpt lat="43.70642" lon="1.14096">
        <ele>244.6</ele>
        <time>2024-07-11T07:54:37Z</time>
      </trkpt>
      <trkpt lat="43.70644" lon="1.14101">
        <ele>244.8</ele>
        <time>2024-07-11T07:54:38Z</time>
      </trkpt>
      <trkpt lat="43.70645" lon="1.14106">
        <ele>244.8</ele>
        <time>2024-07-11T07:54:39Z</time>
      </trkpt>
      <trkpt lat="43.70647" lon="1.14111">
        <ele>245</ele>
        <time>2024-07-11T07:54:40Z</time>
      </trkpt>
      <trkpt lat="43.70648" lon="1.14115">
        <ele>245.2</ele>
        <time>2024-07-11T07:54:41Z</time>
      </trkpt>
      <trkpt lat="43.70649" lon="1.14121">
        <ele>245.4</ele>
        <time>2024-07-11T07:54:42Z</time>
      </trkpt>
      <trkpt lat="43.7065" lon="1.14126">
        <ele>245.8</ele>
        <time>2024-07-11T07:54:43Z</time>
      </trkpt>
      <trkpt lat="43.70652" lon="1.14131">
        <ele>246</ele>
        <time>2024-07-11T07:54:44Z</time>
      </trkpt>
      <trkpt lat="43.70653" lon="1.14136">
        <ele>246.4</ele>
        <time>2024-07-11T07:54:45Z</time>
      </trkpt>
      <trkpt lat="43.70654" lon="1.14141">
        <ele>246.6</ele>
        <time>2024-07-11T07:54:46Z</time>
      </trkpt>
      <trkpt lat="43.70655" lon="1.14146">
        <ele>247</ele>
        <time>2024-07-11T07:54:47Z</time>
      </trkpt>
      <trkpt lat="43.70656" lon="1.1415">
        <ele>247.2</ele>
        <time>2024-07-11T07:54:48Z</time>
      </trkpt>
      <trkpt lat="43.70657" lon="1.14155">
        <ele>247.4</ele>
        <time>2024-07-11T07:54:49Z</time>
      </trkpt>
      <trkpt lat="43.70658" lon="1.14161">
        <ele>247.6</ele>
        <time>2024-07-11T07:54:50Z</time>
      </trkpt>
      <trkpt lat="43.70659" lon="1.14166">
        <ele>247.8</ele>
        <time>2024-07-11T07:54:51Z</time>
      </trkpt>
      <trkpt lat="43.70661" lon="1.1417">
        <ele>248</ele>
        <time>2024-07-11T07:54:52Z</time>
      </trkpt>
      <trkpt lat="43.70661" lon="1.14174">
        <ele>248</ele>
        <time>2024-07-11T07:54:53Z</time>
      </trkpt>
      <trkpt lat="43.70661" lon="1.14179">
        <ele>248.6</ele>
        <time>2024-07-11T07:54:54Z</time>
      </trkpt>
      <trkpt lat="43.70662" lon="1.14184">
        <ele>249.2</ele>
        <time>2024-07-11T07:54:55Z</time>
      </trkpt>
      <trkpt lat="43.70662" lon="1.14189">
        <ele>249.4</ele>
        <time>2024-07-11T07:54:56Z</time>
      </trkpt>
      <trkpt lat="43.70663" lon="1.14193">
        <ele>249.8</ele>
        <time>2024-07-11T07:54:57Z</time>
      </trkpt>
      <trkpt lat="43.70663" lon="1.14198">
        <ele>249.8</ele>
        <time>2024-07-11T07:54:58Z</time>
      </trkpt>
      <trkpt lat="43.70664" lon="1.14204">
        <ele>250</ele>
        <time>2024-07-11T07:54:59Z</time>
      </trkpt>
      <trkpt lat="43.70665" lon="1.14209">
        <ele>250.2</ele>
        <time>2024-07-11T07:55:00Z</time>
      </trkpt>
      <trkpt lat="43.70666" lon="1.14214">
        <ele>250.2</ele>
        <time>2024-07-11T07:55:01Z</time>
      </trkpt>
      <trkpt lat="43.70667" lon="1.14218">
        <ele>250.8</ele>
        <time>2024-07-11T07:55:02Z</time>
      </trkpt>
      <trkpt lat="43.70667" lon="1.14222">
        <ele>251</ele>
        <time>2024-07-11T07:55:03Z</time>
      </trkpt>
      <trkpt lat="43.70668" lon="1.14227">
        <ele>251.2</ele>
        <time>2024-07-11T07:55:04Z</time>
      </trkpt>
      <trkpt lat="43.70668" lon="1.14231">
        <ele>251.2</ele>
        <time>2024-07-11T07:55:05Z</time>
      </trkpt>
      <trkpt lat="43.70668" lon="1.14235">
        <ele>251.4</ele>
        <time>2024-07-11T07:55:06Z</time>
      </trkpt>
      <trkpt lat="43.70669" lon="1.14241">
        <ele>251.8</ele>
        <time>2024-07-11T07:55:07Z</time>
      </trkpt>
      <trkpt lat="43.7067" lon="1.14245">
        <ele>252</ele>
        <time>2024-07-11T07:55:08Z</time>
      </trkpt>
      <trkpt lat="43.70671" lon="1.14249">
        <ele>252.4</ele>
        <time>2024-07-11T07:55:09Z</time>
      </trkpt>
      <trkpt lat="43.70671" lon="1.14253">
        <ele>252.4</ele>
        <time>2024-07-11T07:55:10Z</time>
      </trkpt>
      <trkpt lat="43.70672" lon="1.14257">
        <ele>252.8</ele>
        <time>2024-07-11T07:55:11Z</time>
      </trkpt>
      <trkpt lat="43.70673" lon="1.1426">
        <ele>253.2</ele>
        <time>2024-07-11T07:55:12Z</time>
      </trkpt>
      <trkpt lat="43.70673" lon="1.14264">
        <ele>253.2</ele>
        <time>2024-07-11T07:55:13Z</time>
      </trkpt>
      <trkpt lat="43.70674" lon="1.14268">
        <ele>253.6</ele>
        <time>2024-07-11T07:55:14Z</time>
      </trkpt>
      <trkpt lat="43.70675" lon="1.14272">
        <ele>253.6</ele>
        <time>2024-07-11T07:55:15Z</time>
      </trkpt>
      <trkpt lat="43.70676" lon="1.14276">
        <ele>254</ele>
        <time>2024-07-11T07:55:16Z</time>
      </trkpt>
      <trkpt lat="43.70676" lon="1.14281">
        <ele>254.4</ele>
        <time>2024-07-11T07:55:17Z</time>
      </trkpt>
      <trkpt lat="43.70677" lon="1.14284">
        <ele>254.8</ele>
        <time>2024-07-11T07:55:18Z</time>
      </trkpt>
      <trkpt lat="43.70678" lon="1.14288">
        <ele>255.2</ele>
        <time>2024-07-11T07:55:19Z</time>
      </trkpt>
      <trkpt lat="43.70679" lon="1.14292">
        <ele>255.4</ele>
        <time>2024-07-11T07:55:20Z</time>
      </trkpt>
      <trkpt lat="43.7068" lon="1.14296">
        <ele>255.6</ele>
        <time>2024-07-11T07:55:21Z</time>
      </trkpt>
      <trkpt lat="43.70681" lon="1.14299">
        <ele>255.8</ele>
        <time>2024-07-11T07:55:22Z</time>
      </trkpt>
      <trkpt lat="43.70682" lon="1.14302">
        <ele>256</ele>
        <time>2024-07-11T07:55:23Z</time>
      </trkpt>
      <trkpt lat="43.70682" lon="1.14306">
        <ele>256.2</ele>
        <time>2024-07-11T07:55:24Z</time>
      </trkpt>
      <trkpt lat="43.70683" lon="1.14308">
        <ele>256.6</ele>
        <time>2024-07-11T07:55:25Z</time>
      </trkpt>
      <trkpt lat="43.70683" lon="1.14311">
        <ele>257.2</ele>
        <time>2024-07-11T07:55:26Z</time>
      </trkpt>
      <trkpt lat="43.70683" lon="1.14314">
        <ele>257.2</ele>
        <time>2024-07-11T07:55:27Z</time>
      </trkpt>
      <trkpt lat="43.70683" lon="1.14317">
        <ele>257.4</ele>
        <time>2024-07-11T07:55:28Z</time>
      </trkpt>
      <trkpt lat="43.70684" lon="1.1432">
        <ele>257.6</ele>
        <time>2024-07-11T07:55:29Z</time>
      </trkpt>
      <trkpt lat="43.70684" lon="1.14323">
        <ele>257.8</ele>
        <time>2024-07-11T07:55:30Z</time>
      </trkpt>
      <trkpt lat="43.70684" lon="1.14325">
        <ele>258</ele>
        <time>2024-07-11T07:55:31Z</time>
      </trkpt>
      <trkpt lat="43.70684" lon="1.14327">
        <ele>258</ele>
        <time>2024-07-11T07:55:32Z</time>
      </trkpt>
      <trkpt lat="43.70685" lon="1.14328">
        <ele>258.2</ele>
        <time>2024-07-11T07:55:33Z</time>
      </trkpt>
      <trkpt lat="43.70685" lon="1.14329">
        <ele>258.2</ele>
        <time>2024-07-11T07:55:34Z</time>
      </trkpt>
      <trkpt lat="43.70685" lon="1.14329">
        <ele>258.4</ele>
        <time>2024-07-11T07:55:35Z</time>
      </trkpt>
      <trkpt lat="43.70685" lon="1.14329">
        <ele>258.4</ele>
        <time>2024-07-11T07:55:36Z</time>
      </trkpt>
      <trkpt lat="43.70685" lon="1.14329">
        <ele>258.4</ele>
        <time>2024-07-11T07:55:37Z</time>
      </trkpt>
      <trkpt lat="43.70686" lon="1.14335">
        <ele>258.2</ele>
        <time>2024-07-11T08:05:01Z</time>
      </trkpt>
      <trkpt lat="43.70687" lon="1.14338">
        <ele>258.2</ele>
        <time>2024-07-11T08:05:02Z</time>
      </trkpt>
      <trkpt lat="43.70688" lon="1.14342">
        <ele>258.2</ele>
        <time>2024-07-11T08:05:03Z</time>
      </trkpt>
      <trkpt lat="43.70689" lon="1.14346">
        <ele>258.2</ele>
        <time>2024-07-11T08:05:04Z</time>
      </trkpt>
      <trkpt lat="43.7069" lon="1.1435">
        <ele>258.2</ele>
        <time>2024-07-11T08:05:05Z</time>
      </trkpt>
      <trkpt lat="43.70692" lon="1.14356">
        <ele>258.2</ele>
        <time>2024-07-11T08:05:06Z</time>
      </trkpt>
      <trkpt lat="43.70693" lon="1.14361">
        <ele>258.2</ele>
        <time>2024-07-11T08:05:07Z</time>
      </trkpt>
      <trkpt lat="43.70695" lon="1.14365">
        <ele>258.2</ele>
        <time>2024-07-11T08:05:08Z</time>
      </trkpt>
      <trkpt lat="43.70696" lon="1.1437">
        <ele>258.2</ele>
        <time>2024-07-11T08:05:09Z</time>
      </trkpt>
      <trkpt lat="43.70697" lon="1.14375">
        <ele>258.2</ele>
        <time>2024-07-11T08:05:10Z</time>
      </trkpt>
      <trkpt lat="43.70699" lon="1.1438">
        <ele>258.2</ele>
        <time>2024-07-11T08:05:11Z</time>
      </trkpt>
      <trkpt lat="43.70701" lon="1.14385">
        <ele>258.2</ele>
        <time>2024-07-11T08:05:12Z</time>
      </trkpt>
      <trkpt lat="43.70702" lon="1.14391">
        <ele>258.2</ele>
        <time>2024-07-11T08:05:13Z</time>
      </trkpt>
      <trkpt lat="43.70704" lon="1.14397">
        <ele>258.2</ele>
        <time>2024-07-11T08:05:14Z</time>
      </trkpt>
      <trkpt lat="43.70706" lon="1.14403">
        <ele>258.2</ele>
        <time>2024-07-11T08:05:15Z</time>
      </trkpt>
      <trkpt lat="43.70708" lon="1.1441">
        <ele>258.2</ele>
        <time>2024-07-11T08:05:16Z</time>
      </trkpt>
      <trkpt lat="43.7071" lon="1.14417">
        <ele>258.2</ele>
        <time>2024-07-11T08:05:17Z</time>
      </trkpt>
      <trkpt lat="43.70712" lon="1.14424">
        <ele>258.2</ele>
        <time>2024-07-11T08:05:18Z</time>
      </trkpt>
      <trkpt lat="43.70713" lon="1.14429">
        <ele>258.2</ele>
        <time>2024-07-11T08:05:19Z</time>
      </trkpt>
      <trkpt lat="43.70715" lon="1.14436">
        <ele>258.2</ele>
        <time>2024-07-11T08:05:20Z</time>
      </trkpt>
      <trkpt lat="43.70717" lon="1.14443">
        <ele>258.2</ele>
        <time>2024-07-11T08:05:21Z</time>
      </trkpt>
      <trkpt lat="43.70719" lon="1.14452">
        <ele>258.2</ele>
        <time>2024-07-11T08:05:22Z</time>
      </trkpt>
      <trkpt lat="43.70721" lon="1.14459">
        <ele>258.2</ele>
        <time>2024-07-11T08:05:23Z</time>
      </trkpt>
      <trkpt lat="43.70722" lon="1.14465">
        <ele>258</ele>
        <time>2024-07-11T08:05:24Z</time>
      </trkpt>
      <trkpt lat="43.70723" lon="1.14472">
        <ele>258</ele>
        <time>2024-07-11T08:05:25Z</time>
      </trkpt>
      <trkpt lat="43.70725" lon="1.1448">
        <ele>258</ele>
        <time>2024-07-11T08:05:26Z</time>
      </trkpt>
      <trkpt lat="43.70727" lon="1.14489">
        <ele>258</ele>
        <time>2024-07-11T08:05:27Z</time>
      </trkpt>
      <trkpt lat="43.70728" lon="1.14497">
        <ele>258</ele>
        <time>2024-07-11T08:05:28Z</time>
      </trkpt>
      <trkpt lat="43.7073" lon="1.14505">
        <ele>258</ele>
        <time>2024-07-11T08:05:29Z</time>
      </trkpt>
      <trkpt lat="43.70732" lon="1.14512">
        <ele>258</ele>
        <time>2024-07-11T08:05:30Z</time>
      </trkpt>
      <trkpt lat="43.70733" lon="1.14519">
        <ele>258.2</ele>
        <time>2024-07-11T08:05:31Z</time>
      </trkpt>
      <trkpt lat="43.70736" lon="1.14528">
        <ele>258.2</ele>
        <time>2024-07-11T08:05:32Z</time>
      </trkpt>
      <trkpt lat="43.70738" lon="1.14536">
        <ele>258.2</ele>
        <time>2024-07-11T08:05:33Z</time>
      </trkpt>
      <trkpt lat="43.7074" lon="1.14544">
        <ele>258.2</ele>
        <time>2024-07-11T08:05:34Z</time>
      </trkpt>
      <trkpt lat="43.70741" lon="1.14551">
        <ele>258.4</ele>
        <time>2024-07-11T08:05:35Z</time>
      </trkpt>
      <trkpt lat="43.70743" lon="1.14558">
        <ele>258.4</ele>
        <time>2024-07-11T08:05:36Z</time>
      </trkpt>
      <trkpt lat="43.70746" lon="1.14567">
        <ele>258.4</ele>
        <time>2024-07-11T08:05:37Z</time>
      </trkpt>
      <trkpt lat="43.70748" lon="1.14574">
        <ele>258.8</ele>
        <time>2024-07-11T08:05:38Z</time>
      </trkpt>
      <trkpt lat="43.7075" lon="1.1458">
        <ele>258.8</ele>
        <time>2024-07-11T08:05:39Z</time>
      </trkpt>
      <trkpt lat="43.70752" lon="1.14585">
        <ele>259</ele>
        <time>2024-07-11T08:05:40Z</time>
      </trkpt>
      <trkpt lat="43.70755" lon="1.14592">
        <ele>259</ele>
        <time>2024-07-11T08:05:41Z</time>
      </trkpt>
      <trkpt lat="43.70759" lon="1.14598">
        <ele>259.2</ele>
        <time>2024-07-11T08:05:42Z</time>
      </trkpt>
      <trkpt lat="43.70763" lon="1.14604">
        <ele>259.2</ele>
        <time>2024-07-11T08:05:43Z</time>
      </trkpt>
      <trkpt lat="43.70767" lon="1.1461">
        <ele>259.4</ele>
        <time>2024-07-11T08:05:44Z</time>
      </trkpt>
      <trkpt lat="43.70771" lon="1.14614">
        <ele>259.6</ele>
        <time>2024-07-11T08:05:45Z</time>
      </trkpt>
      <trkpt lat="43.70775" lon="1.14619">
        <ele>259.8</ele>
        <time>2024-07-11T08:05:46Z</time>
      </trkpt>
      <trkpt lat="43.70781" lon="1.14623">
        <ele>260</ele>
        <time>2024-07-11T08:05:47Z</time>
      </trkpt>
      <trkpt lat="43.70786" lon="1.14627">
        <ele>260.2</ele>
        <time>2024-07-11T08:05:48Z</time>
      </trkpt>
      <trkpt lat="43.70792" lon="1.14632">
        <ele>260.4</ele>
        <time>2024-07-11T08:05:49Z</time>
      </trkpt>
      <trkpt lat="43.70797" lon="1.14635">
        <ele>260.4</ele>
        <time>2024-07-11T08:05:50Z</time>
      </trkpt>
      <trkpt lat="43.70803" lon="1.14639">
        <ele>260.6</ele>
        <time>2024-07-11T08:05:51Z</time>
      </trkpt>
      <trkpt lat="43.70808" lon="1.14644">
        <ele>260.6</ele>
        <time>2024-07-11T08:05:52Z</time>
      </trkpt>
      <trkpt lat="43.70815" lon="1.14649">
        <ele>260.6</ele>
        <time>2024-07-11T08:05:53Z</time>
      </trkpt>
      <trkpt lat="43.70821" lon="1.14653">
        <ele>260.8</ele>
        <time>2024-07-11T08:05:54Z</time>
      </trkpt>
      <trkpt lat="43.70825" lon="1.14657">
        <ele>260.8</ele>
        <time>2024-07-11T08:05:55Z</time>
      </trkpt>
      <trkpt lat="43.70831" lon="1.14662">
        <ele>260.6</ele>
        <time>2024-07-11T08:05:56Z</time>
      </trkpt>
      <trkpt lat="43.70837" lon="1.14666">
        <ele>260.6</ele>
        <time>2024-07-11T08:05:57Z</time>
      </trkpt>
      <trkpt lat="43.70843" lon="1.14671">
        <ele>260.4</ele>
        <time>2024-07-11T08:05:58Z</time>
      </trkpt>
      <trkpt lat="43.70849" lon="1.14676">
        <ele>260.4</ele>
        <time>2024-07-11T08:05:59Z</time>
      </trkpt>
      <trkpt lat="43.70855" lon="1.14681">
        <ele>260.2</ele>
        <time>2024-07-11T08:06:00Z</time>
      </trkpt>
      <trkpt lat="43.7086" lon="1.14687">
        <ele>260</ele>
        <time>2024-07-11T08:06:01Z</time>
      </trkpt>
      <trkpt lat="43.70865" lon="1.14694">
        <ele>260</ele>
        <time>2024-07-11T08:06:02Z</time>
      </trkpt>
      <trkpt lat="43.7087" lon="1.14701">
        <ele>259.8</ele>
        <time>2024-07-11T08:06:03Z</time>
      </trkpt>
      <trkpt lat="43.70874" lon="1.14708">
        <ele>259.8</ele>
        <time>2024-07-11T08:06:04Z</time>
      </trkpt>
      <trkpt lat="43.70878" lon="1.14716">
        <ele>259.8</ele>
        <time>2024-07-11T08:06:05Z</time>
      </trkpt>
      <trkpt lat="43.70881" lon="1.14724">
        <ele>259.8</ele>
        <time>2024-07-11T08:06:06Z</time>
      </trkpt>
      <trkpt lat="43.70884" lon="1.14732">
        <ele>259.6</ele>
        <time>2024-07-11T08:06:07Z</time>
      </trkpt>
      <trkpt lat="43.70887" lon="1.1474">
        <ele>259.6</ele>
        <time>2024-07-11T08:06:08Z</time>
      </trkpt>
      <trkpt lat="43.70889" lon="1.14749">
        <ele>259.6</ele>
        <time>2024-07-11T08:06:09Z</time>
      </trkpt>
      <trkpt lat="43.70891" lon="1.14757">
        <ele>259.6</ele>
        <time>2024-07-11T08:06:10Z</time>
      </trkpt>
      <trkpt lat="43.70894" lon="1.14765">
        <ele>259.6</ele>
        <time>2024-07-11T08:06:11Z</time>
      </trkpt>
      <trkpt lat="43.70897" lon="1.14774">
        <ele>259.6</ele>
        <time>2024-07-11T08:06:12Z</time>
      </trkpt>
      <trkpt lat="43.709" lon="1.14783">
        <ele>259.6</ele>
        <time>2024-07-11T08:06:13Z</time>
      </trkpt>
      <trkpt lat="43.70903" lon="1.14792">
        <ele>259.8</ele>
        <time>2024-07-11T08:06:14Z</time>
      </trkpt>
      <trkpt lat="43.70906" lon="1.148">
        <ele>259.8</ele>
        <time>2024-07-11T08:06:15Z</time>
      </trkpt>
      <trkpt lat="43.70909" lon="1.1481">
        <ele>259.8</ele>
        <time>2024-07-11T08:06:16Z</time>
      </trkpt>
      <trkpt lat="43.70911" lon="1.14817">
        <ele>259.8</ele>
        <time>2024-07-11T08:06:17Z</time>
      </trkpt>
      <trkpt lat="43.70914" lon="1.14825">
        <ele>259.8</ele>
        <time>2024-07-11T08:06:18Z</time>
      </trkpt>
      <trkpt lat="43.70917" lon="1.14834">
        <ele>259.8</ele>
        <time>2024-07-11T08:06:19Z</time>
      </trkpt>
      <trkpt lat="43.7092" lon="1.14842">
        <ele>259.8</ele>
        <time>2024-07-11T08:06:20Z</time>
      </trkpt>
      <trkpt lat="43.70922" lon="1.1485">
        <ele>259.8</ele>
        <time>2024-07-11T08:06:21Z</time>
      </trkpt>
      <trkpt lat="43.70925" lon="1.14858">
        <ele>259.8</ele>
        <time>2024-07-11T08:06:22Z</time>
      </trkpt>
      <trkpt lat="43.70928" lon="1.14866">
        <ele>259.8</ele>
        <time>2024-07-11T08:06:23Z</time>
      </trkpt>
      <trkpt lat="43.7093" lon="1.14874">
        <ele>259.8</ele>
        <time>2024-07-11T08:06:24Z</time>
      </trkpt>
      <trkpt lat="43.70933" lon="1.14884">
        <ele>259.8</ele>
        <time>2024-07-11T08:06:25Z</time>
      </trkpt>
      <trkpt lat="43.70935" lon="1.14891">
        <ele>260</ele>
        <time>2024-07-11T08:06:26Z</time>
      </trkpt>
      <trkpt lat="43.70938" lon="1.149">
        <ele>260</ele>
        <time>2024-07-11T08:06:27Z</time>
      </trkpt>
      <trkpt lat="43.70941" lon="1.14908">
        <ele>260</ele>
        <time>2024-07-11T08:06:28Z</time>
      </trkpt>
      <trkpt lat="43.70944" lon="1.14916">
        <ele>260</ele>
        <time>2024-07-11T08:06:29Z</time>
      </trkpt>
      <trkpt lat="43.70946" lon="1.14925">
        <ele>259.8</ele>
        <time>2024-07-11T08:06:30Z</time>
      </trkpt>
      <trkpt lat="43.7095" lon="1.14933">
        <ele>259.8</ele>
        <time>2024-07-11T08:06:31Z</time>
      </trkpt>
      <trkpt lat="43.70953" lon="1.14941">
        <ele>259.8</ele>
        <time>2024-07-11T08:06:32Z</time>
      </trkpt>
      <trkpt lat="43.70957" lon="1.14949">
        <ele>259.8</ele>
        <time>2024-07-11T08:06:33Z</time>
      </trkpt>
      <trkpt lat="43.70961" lon="1.14957">
        <ele>259.8</ele>
        <time>2024-07-11T08:06:34Z</time>
      </trkpt>
      <trkpt lat="43.70966" lon="1.14964">
        <ele>259.6</ele>
        <time>2024-07-11T08:06:35Z</time>
      </trkpt>
      <trkpt lat="43.70972" lon="1.14971">
        <ele>259.6</ele>
        <time>2024-07-11T08:06:36Z</time>
      </trkpt>
      <trkpt lat="43.70978" lon="1.14979">
        <ele>259.4</ele>
        <time>2024-07-11T08:06:37Z</time>
      </trkpt>
      <trkpt lat="43.70983" lon="1.14985">
        <ele>259.4</ele>
        <time>2024-07-11T08:06:38Z</time>
      </trkpt>
      <trkpt lat="43.70989" lon="1.14992">
        <ele>259.2</ele>
        <time>2024-07-11T08:06:39Z</time>
      </trkpt>
      <trkpt lat="43.70995" lon="1.14999">
        <ele>259</ele>
        <time>2024-07-11T08:06:40Z</time>
      </trkpt>
      <trkpt lat="43.71001" lon="1.15005">
        <ele>258.8</ele>
        <time>2024-07-11T08:06:41Z</time>
      </trkpt>
      <trkpt lat="43.71007" lon="1.15011">
        <ele>258.8</ele>
        <time>2024-07-11T08:06:42Z</time>
      </trkpt>
      <trkpt lat="43.71013" lon="1.15018">
        <ele>258.8</ele>
        <time>2024-07-11T08:06:43Z</time>
      </trkpt>
      <trkpt lat="43.71019" lon="1.15024">
        <ele>258.6</ele>
        <time>2024-07-11T08:06:44Z</time>
      </trkpt>
      <trkpt lat="43.71025" lon="1.15031">
        <ele>258.4</ele>
        <time>2024-07-11T08:06:45Z</time>
      </trkpt>
      <trkpt lat="43.71031" lon="1.15038">
        <ele>258.4</ele>
        <time>2024-07-11T08:06:46Z</time>
      </trkpt>
      <trkpt lat="43.71038" lon="1.15046">
        <ele>258.2</ele>
        <time>2024-07-11T08:06:47Z</time>
      </trkpt>
      <trkpt lat="43.71044" lon="1.15052">
        <ele>258.2</ele>
        <time>2024-07-11T08:06:48Z</time>
      </trkpt>
      <trkpt lat="43.7105" lon="1.15059">
        <ele>258.2</ele>
        <time>2024-07-11T08:06:49Z</time>
      </trkpt>
      <trkpt lat="43.71055" lon="1.15064">
        <ele>258.2</ele>
        <time>2024-07-11T08:06:50Z</time>
      </trkpt>
      <trkpt lat="43.71062" lon="1.15072">
        <ele>258.2</ele>
        <time>2024-07-11T08:06:51Z</time>
      </trkpt>
      <trkpt lat="43.71068" lon="1.15078">
        <ele>258</ele>
        <time>2024-07-11T08:06:52Z</time>
      </trkpt>
      <trkpt lat="43.71073" lon="1.15085">
        <ele>258</ele>
        <time>2024-07-11T08:06:53Z</time>
      </trkpt>
      <trkpt lat="43.71079" lon="1.15091">
        <ele>258</ele>
        <time>2024-07-11T08:06:54Z</time>
      </trkpt>
      <trkpt lat="43.71084" lon="1.15097">
        <ele>257.8</ele>
        <time>2024-07-11T08:06:55Z</time>
      </trkpt>
      <trkpt lat="43.71088" lon="1.15103">
        <ele>257.8</ele>
        <time>2024-07-11T08:06:56Z</time>
      </trkpt>
      <trkpt lat="43.71094" lon="1.15111">
        <ele>257.8</ele>
        <time>2024-07-11T08:06:57Z</time>
      </trkpt>
      <trkpt lat="43.71098" lon="1.15119">
        <ele>257.6</ele>
        <time>2024-07-11T08:06:58Z</time>
      </trkpt>
      <trkpt lat="43.71102" lon="1.15126">
        <ele>257.6</ele>
        <time>2024-07-11T08:06:59Z</time>
      </trkpt>
      <trkpt lat="43.71106" lon="1.15134">
        <ele>257.4</ele>
        <time>2024-07-11T08:07:00Z</time>
      </trkpt>
      <trkpt lat="43.71109" lon="1.15143">
        <ele>257.2</ele>
        <time>2024-07-11T08:07:01Z</time>
      </trkpt>
      <trkpt lat="43.71113" lon="1.15154">
        <ele>257.2</ele>
        <time>2024-07-11T08:07:02Z</time>
      </trkpt>
      <trkpt lat="43.71117" lon="1.15164">
        <ele>256.8</ele>
        <time>2024-07-11T08:07:03Z</time>
      </trkpt>
      <trkpt lat="43.7112" lon="1.15173">
        <ele>256.4</ele>
        <time>2024-07-11T08:07:04Z</time>
      </trkpt>
      <trkpt lat="43.71124" lon="1.15185">
        <ele>256</ele>
        <time>2024-07-11T08:07:05Z</time>
      </trkpt>
      <trkpt lat="43.71127" lon="1.15197">
        <ele>256</ele>
        <time>2024-07-11T08:07:06Z</time>
      </trkpt>
      <trkpt lat="43.71132" lon="1.15213">
        <ele>255.6</ele>
        <time>2024-07-11T08:07:07Z</time>
      </trkpt>
      <trkpt lat="43.71136" lon="1.15227">
        <ele>255.2</ele>
        <time>2024-07-11T08:07:08Z</time>
      </trkpt>
      <trkpt lat="43.7114" lon="1.15238">
        <ele>254.6</ele>
        <time>2024-07-11T08:07:09Z</time>
      </trkpt>
      <trkpt lat="43.71145" lon="1.15252">
        <ele>254.4</ele>
        <time>2024-07-11T08:07:10Z</time>
      </trkpt>
      <trkpt lat="43.71151" lon="1.15269">
        <ele>253.6</ele>
        <time>2024-07-11T08:07:11Z</time>
      </trkpt>
      <trkpt lat="43.71157" lon="1.15284">
        <ele>252.6</ele>
        <time>2024-07-11T08:07:12Z</time>
      </trkpt>
      <trkpt lat="43.71163" lon="1.15299">
        <ele>252.2</ele>
        <time>2024-07-11T08:07:13Z</time>
      </trkpt>
      <trkpt lat="43.71168" lon="1.15312">
        <ele>251.8</ele>
        <time>2024-07-11T08:07:14Z</time>
      </trkpt>
      <trkpt lat="43.71173" lon="1.15328">
        <ele>250</ele>
        <time>2024-07-11T08:07:15Z</time>
      </trkpt>
      <trkpt lat="43.7118" lon="1.15348">
        <ele>248.8</ele>
        <time>2024-07-11T08:07:16Z</time>
      </trkpt>
      <trkpt lat="43.71184" lon="1.15366">
        <ele>247</ele>
        <time>2024-07-11T08:07:17Z</time>
      </trkpt>
      <trkpt lat="43.71186" lon="1.15384">
        <ele>246.2</ele>
        <time>2024-07-11T08:07:18Z</time>
      </trkpt>
      <trkpt lat="43.71188" lon="1.15399">
        <ele>243.8</ele>
        <time>2024-07-11T08:07:19Z</time>
      </trkpt>
      <trkpt lat="43.7119" lon="1.15419">
        <ele>242</ele>
        <time>2024-07-11T08:07:20Z</time>
      </trkpt>
      <trkpt lat="43.71193" lon="1.15442">
        <ele>241.4</ele>
        <time>2024-07-11T08:07:21Z</time>
      </trkpt>
      <trkpt lat="43.71195" lon="1.15461">
        <ele>240.2</ele>
        <time>2024-07-11T08:07:22Z</time>
      </trkpt>
      <trkpt lat="43.71197" lon="1.1548">
        <ele>239.6</ele>
        <time>2024-07-11T08:07:23Z</time>
      </trkpt>
      <trkpt lat="43.71198" lon="1.15496">
        <ele>237.4</ele>
        <time>2024-07-11T08:07:24Z</time>
      </trkpt>
      <trkpt lat="43.712" lon="1.15515">
        <ele>236.8</ele>
        <time>2024-07-11T08:07:25Z</time>
      </trkpt>
      <trkpt lat="43.71202" lon="1.15537">
        <ele>235.2</ele>
        <time>2024-07-11T08:07:26Z</time>
      </trkpt>
      <trkpt lat="43.71203" lon="1.15556">
        <ele>233.8</ele>
        <time>2024-07-11T08:07:27Z</time>
      </trkpt>
      <trkpt lat="43.71204" lon="1.1557">
        <ele>233.2</ele>
        <time>2024-07-11T08:07:28Z</time>
      </trkpt>
      <trkpt lat="43.71205" lon="1.15588">
        <ele>232</ele>
        <time>2024-07-11T08:07:29Z</time>
      </trkpt>
      <trkpt lat="43.71207" lon="1.15609">
        <ele>231.4</ele>
        <time>2024-07-11T08:07:30Z</time>
      </trkpt>
      <trkpt lat="43.71208" lon="1.15627">
        <ele>230.4</ele>
        <time>2024-07-11T08:07:31Z</time>
      </trkpt>
      <trkpt lat="43.7121" lon="1.15644">
        <ele>230</ele>
        <time>2024-07-11T08:07:32Z</time>
      </trkpt>
      <trkpt lat="43.71211" lon="1.15658">
        <ele>229.2</ele>
        <time>2024-07-11T08:07:33Z</time>
      </trkpt>
      <trkpt lat="43.71214" lon="1.15675">
        <ele>228.6</ele>
        <time>2024-07-11T08:07:34Z</time>
      </trkpt>
      <trkpt lat="43.71217" lon="1.15695">
        <ele>228.2</ele>
        <time>2024-07-11T08:07:35Z</time>
      </trkpt>
      <trkpt lat="43.7122" lon="1.15712">
        <ele>227.4</ele>
        <time>2024-07-11T08:07:36Z</time>
      </trkpt>
      <trkpt lat="43.71222" lon="1.15729">
        <ele>227.2</ele>
        <time>2024-07-11T08:07:37Z</time>
      </trkpt>
      <trkpt lat="43.71225" lon="1.15742">
        <ele>225.6</ele>
        <time>2024-07-11T08:07:38Z</time>
      </trkpt>
      <trkpt lat="43.71228" lon="1.15758">
        <ele>224.6</ele>
        <time>2024-07-11T08:07:39Z</time>
      </trkpt>
      <trkpt lat="43.71235" lon="1.15775">
        <ele>224.2</ele>
        <time>2024-07-11T08:07:40Z</time>
      </trkpt>
      <trkpt lat="43.71243" lon="1.15787">
        <ele>223.8</ele>
        <time>2024-07-11T08:07:41Z</time>
      </trkpt>
      <trkpt lat="43.7125" lon="1.15798">
        <ele>223.6</ele>
        <time>2024-07-11T08:07:42Z</time>
      </trkpt>
      <trkpt lat="43.71255" lon="1.15808">
        <ele>222.6</ele>
        <time>2024-07-11T08:07:43Z</time>
      </trkpt>
      <trkpt lat="43.71259" lon="1.15821">
        <ele>222</ele>
        <time>2024-07-11T08:07:44Z</time>
      </trkpt>
      <trkpt lat="43.71262" lon="1.15838">
        <ele>221.2</ele>
        <time>2024-07-11T08:07:45Z</time>
      </trkpt>
      <trkpt lat="43.71262" lon="1.15852">
        <ele>220.8</ele>
        <time>2024-07-11T08:07:46Z</time>
      </trkpt>
      <trkpt lat="43.71263" lon="1.15862">
        <ele>220.4</ele>
        <time>2024-07-11T08:07:47Z</time>
      </trkpt>
      <trkpt lat="43.71263" lon="1.15874">
        <ele>220</ele>
        <time>2024-07-11T08:07:48Z</time>
      </trkpt>
      <trkpt lat="43.71263" lon="1.15887">
        <ele>220</ele>
        <time>2024-07-11T08:07:49Z</time>
      </trkpt>
      <trkpt lat="43.71262" lon="1.15898">
        <ele>219.8</ele>
        <time>2024-07-11T08:07:50Z</time>
      </trkpt>
      <trkpt lat="43.71259" lon="1.15908">
        <ele>219.6</ele>
        <time>2024-07-11T08:07:51Z</time>
      </trkpt>
      <trkpt lat="43.71255" lon="1.15914">
        <ele>219.4</ele>
        <time>2024-07-11T08:07:52Z</time>
      </trkpt>
      <trkpt lat="43.71248" lon="1.15921">
        <ele>219.2</ele>
        <time>2024-07-11T08:07:53Z</time>
      </trkpt>
      <trkpt lat="43.71239" lon="1.15927">
        <ele>219.2</ele>
        <time>2024-07-11T08:07:54Z</time>
      </trkpt>
      <trkpt lat="43.7123" lon="1.1593">
        <ele>219</ele>
        <time>2024-07-11T08:07:55Z</time>
      </trkpt>
      <trkpt lat="43.71224" lon="1.15931">
        <ele>218.8</ele>
        <time>2024-07-11T08:07:56Z</time>
      </trkpt>
      <trkpt lat="43.71216" lon="1.1593">
        <ele>218.6</ele>
        <time>2024-07-11T08:07:57Z</time>
      </trkpt>
      <trkpt lat="43.71208" lon="1.15927">
        <ele>218.2</ele>
        <time>2024-07-11T08:07:58Z</time>
      </trkpt>
      <trkpt lat="43.712" lon="1.15923">
        <ele>218</ele>
        <time>2024-07-11T08:07:59Z</time>
      </trkpt>
      <trkpt lat="43.71193" lon="1.1592">
        <ele>217.8</ele>
        <time>2024-07-11T08:08:00Z</time>
      </trkpt>
      <trkpt lat="43.71186" lon="1.1592">
        <ele>217.8</ele>
        <time>2024-07-11T08:08:01Z</time>
      </trkpt>
      <trkpt lat="43.71179" lon="1.15923">
        <ele>217.8</ele>
        <time>2024-07-11T08:08:02Z</time>
      </trkpt>
      <trkpt lat="43.71173" lon="1.15929">
        <ele>217.8</ele>
        <time>2024-07-11T08:08:03Z</time>
      </trkpt>
      <trkpt lat="43.7117" lon="1.15936">
        <ele>217.6</ele>
        <time>2024-07-11T08:08:04Z</time>
      </trkpt>
      <trkpt lat="43.71167" lon="1.15944">
        <ele>217.6</ele>
        <time>2024-07-11T08:08:05Z</time>
      </trkpt>
      <trkpt lat="43.71164" lon="1.15952">
        <ele>217.6</ele>
        <time>2024-07-11T08:08:06Z</time>
      </trkpt>
      <trkpt lat="43.71161" lon="1.15963">
        <ele>217.6</ele>
        <time>2024-07-11T08:08:07Z</time>
      </trkpt>
      <trkpt lat="43.71159" lon="1.1597">
        <ele>217.6</ele>
        <time>2024-07-11T08:08:08Z</time>
      </trkpt>
      <trkpt lat="43.71156" lon="1.1598">
        <ele>217.6</ele>
        <time>2024-07-11T08:08:09Z</time>
      </trkpt>
      <trkpt lat="43.71155" lon="1.15989">
        <ele>217.6</ele>
        <time>2024-07-11T08:08:10Z</time>
      </trkpt>
      <trkpt lat="43.71153" lon="1.15998">
        <ele>217.6</ele>
        <time>2024-07-11T08:08:11Z</time>
      </trkpt>
      <trkpt lat="43.71152" lon="1.16005">
        <ele>217.6</ele>
        <time>2024-07-11T08:08:12Z</time>
      </trkpt>
      <trkpt lat="43.7115" lon="1.16014">
        <ele>217.6</ele>
        <time>2024-07-11T08:08:13Z</time>
      </trkpt>
      <trkpt lat="43.71148" lon="1.16025">
        <ele>217.6</ele>
        <time>2024-07-11T08:08:14Z</time>
      </trkpt>
      <trkpt lat="43.71147" lon="1.16032">
        <ele>217.6</ele>
        <time>2024-07-11T08:08:15Z</time>
      </trkpt>
      <trkpt lat="43.71145" lon="1.1604">
        <ele>217.6</ele>
        <time>2024-07-11T08:08:16Z</time>
      </trkpt>
      <trkpt lat="43.71144" lon="1.16049">
        <ele>217.6</ele>
        <time>2024-07-11T08:08:17Z</time>
      </trkpt>
      <trkpt lat="43.71143" lon="1.16057">
        <ele>217.6</ele>
        <time>2024-07-11T08:08:18Z</time>
      </trkpt>
      <trkpt lat="43.71141" lon="1.16065">
        <ele>217.6</ele>
        <time>2024-07-11T08:08:19Z</time>
      </trkpt>
      <trkpt lat="43.7114" lon="1.16072">
        <ele>217.6</ele>
        <time>2024-07-11T08:08:20Z</time>
      </trkpt>
      <trkpt lat="43.71138" lon="1.1608">
        <ele>217.6</ele>
        <time>2024-07-11T08:08:21Z</time>
      </trkpt>
      <trkpt lat="43.71137" lon="1.16087">
        <ele>217.6</ele>
        <time>2024-07-11T08:08:22Z</time>
      </trkpt>
      <trkpt lat="43.71135" lon="1.16095">
        <ele>217.8</ele>
        <time>2024-07-11T08:08:23Z</time>
      </trkpt>
      <trkpt lat="43.71132" lon="1.16103">
        <ele>217.8</ele>
        <time>2024-07-11T08:08:24Z</time>
      </trkpt>
      <trkpt lat="43.7113" lon="1.1611">
        <ele>217.8</ele>
        <time>2024-07-11T08:08:25Z</time>
      </trkpt>
      <trkpt lat="43.71128" lon="1.16118">
        <ele>217.8</ele>
        <time>2024-07-11T08:08:26Z</time>
      </trkpt>
      <trkpt lat="43.71127" lon="1.16124">
        <ele>217.8</ele>
        <time>2024-07-11T08:08:27Z</time>
      </trkpt>
      <trkpt lat="43.71127" lon="1.16132">
        <ele>217.8</ele>
        <time>2024-07-11T08:08:28Z</time>
      </trkpt>
      <trkpt lat="43.71126" lon="1.1614">
        <ele>217.8</ele>
        <time>2024-07-11T08:08:29Z</time>
      </trkpt>
      <trkpt lat="43.71126" lon="1.16148">
        <ele>217.8</ele>
        <time>2024-07-11T08:08:30Z</time>
      </trkpt>
      <trkpt lat="43.71125" lon="1.16156">
        <ele>217.8</ele>
        <time>2024-07-11T08:08:31Z</time>
      </trkpt>
      <trkpt lat="43.71125" lon="1.16165">
        <ele>217.8</ele>
        <time>2024-07-11T08:08:32Z</time>
      </trkpt>
      <trkpt lat="43.71126" lon="1.16173">
        <ele>217.8</ele>
        <time>2024-07-11T08:08:33Z</time>
      </trkpt>
      <trkpt lat="43.71126" lon="1.16184">
        <ele>217.8</ele>
        <time>2024-07-11T08:08:34Z</time>
      </trkpt>
      <trkpt lat="43.71125" lon="1.16193">
        <ele>217.8</ele>
        <time>2024-07-11T08:08:35Z</time>
      </trkpt>
      <trkpt lat="43.71125" lon="1.16202">
        <ele>217.8</ele>
        <time>2024-07-11T08:08:36Z</time>
      </trkpt>
      <trkpt lat="43.71124" lon="1.16211">
        <ele>217.6</ele>
        <time>2024-07-11T08:08:37Z</time>
      </trkpt>
      <trkpt lat="43.71123" lon="1.16221">
        <ele>217.6</ele>
        <time>2024-07-11T08:08:38Z</time>
      </trkpt>
      <trkpt lat="43.71123" lon="1.1623">
        <ele>217.6</ele>
        <time>2024-07-11T08:08:39Z</time>
      </trkpt>
      <trkpt lat="43.71122" lon="1.16239">
        <ele>217.6</ele>
        <time>2024-07-11T08:08:40Z</time>
      </trkpt>
      <trkpt lat="43.71121" lon="1.16249">
        <ele>217.4</ele>
        <time>2024-07-11T08:08:41Z</time>
      </trkpt>
      <trkpt lat="43.7112" lon="1.16256">
        <ele>217.4</ele>
        <time>2024-07-11T08:08:42Z</time>
      </trkpt>
      <trkpt lat="43.71119" lon="1.16266">
        <ele>217.4</ele>
        <time>2024-07-11T08:08:43Z</time>
      </trkpt>
      <trkpt lat="43.71118" lon="1.16275">
        <ele>217.2</ele>
        <time>2024-07-11T08:08:44Z</time>
      </trkpt>
      <trkpt lat="43.71115" lon="1.16286">
        <ele>217.2</ele>
        <time>2024-07-11T08:08:45Z</time>
      </trkpt>
      <trkpt lat="43.71113" lon="1.16294">
        <ele>217</ele>
        <time>2024-07-11T08:08:46Z</time>
      </trkpt>
      <trkpt lat="43.71109" lon="1.16302">
        <ele>216.8</ele>
        <time>2024-07-11T08:08:47Z</time>
      </trkpt>
      <trkpt lat="43.71105" lon="1.16313">
        <ele>216.8</ele>
        <time>2024-07-11T08:08:48Z</time>
      </trkpt>
      <trkpt lat="43.71102" lon="1.16323">
        <ele>216.4</ele>
        <time>2024-07-11T08:08:49Z</time>
      </trkpt>
      <trkpt lat="43.71099" lon="1.16332">
        <ele>216.2</ele>
        <time>2024-07-11T08:08:50Z</time>
      </trkpt>
      <trkpt lat="43.71097" lon="1.16342">
        <ele>216.2</ele>
        <time>2024-07-11T08:08:51Z</time>
      </trkpt>
      <trkpt lat="43.71095" lon="1.1635">
        <ele>216</ele>
        <time>2024-07-11T08:08:52Z</time>
      </trkpt>
      <trkpt lat="43.71093" lon="1.16361">
        <ele>216</ele>
        <time>2024-07-11T08:08:53Z</time>
      </trkpt>
      <trkpt lat="43.71092" lon="1.16372">
        <ele>215.6</ele>
        <time>2024-07-11T08:08:54Z</time>
      </trkpt>
      <trkpt lat="43.71092" lon="1.16383">
        <ele>215.4</ele>
        <time>2024-07-11T08:08:55Z</time>
      </trkpt>
      <trkpt lat="43.71092" lon="1.16395">
        <ele>215.2</ele>
        <time>2024-07-11T08:08:56Z</time>
      </trkpt>
      <trkpt lat="43.71092" lon="1.16406">
        <ele>215</ele>
        <time>2024-07-11T08:08:57Z</time>
      </trkpt>
      <trkpt lat="43.71093" lon="1.16418">
        <ele>214.8</ele>
        <time>2024-07-11T08:08:58Z</time>
      </trkpt>
      <trkpt lat="43.71093" lon="1.16431">
        <ele>214.6</ele>
        <time>2024-07-11T08:08:59Z</time>
      </trkpt>
      <trkpt lat="43.71093" lon="1.16443">
        <ele>214.4</ele>
        <time>2024-07-11T08:09:00Z</time>
      </trkpt>
      <trkpt lat="43.71092" lon="1.16455">
        <ele>214.2</ele>
        <time>2024-07-11T08:09:01Z</time>
      </trkpt>
      <trkpt lat="43.71093" lon="1.16468">
        <ele>214</ele>
        <time>2024-07-11T08:09:02Z</time>
      </trkpt>
      <trkpt lat="43.71093" lon="1.16482">
        <ele>213.6</ele>
        <time>2024-07-11T08:09:03Z</time>
      </trkpt>
      <trkpt lat="43.71093" lon="1.16495">
        <ele>213.4</ele>
        <time>2024-07-11T08:09:04Z</time>
      </trkpt>
      <trkpt lat="43.71093" lon="1.16507">
        <ele>213</ele>
        <time>2024-07-11T08:09:05Z</time>
      </trkpt>
      <trkpt lat="43.71093" lon="1.16519">
        <ele>212.6</ele>
        <time>2024-07-11T08:09:06Z</time>
      </trkpt>
      <trkpt lat="43.71093" lon="1.16528">
        <ele>212.4</ele>
        <time>2024-07-11T08:09:07Z</time>
      </trkpt>
      <trkpt lat="43.71093" lon="1.1654">
        <ele>212</ele>
        <time>2024-07-11T08:09:08Z</time>
      </trkpt>
      <trkpt lat="43.71093" lon="1.16555">
        <ele>211.8</ele>
        <time>2024-07-11T08:09:09Z</time>
      </trkpt>
      <trkpt lat="43.71094" lon="1.16567">
        <ele>211.6</ele>
        <time>2024-07-11T08:09:10Z</time>
      </trkpt>
      <trkpt lat="43.71094" lon="1.16579">
        <ele>211.4</ele>
        <time>2024-07-11T08:09:11Z</time>
      </trkpt>
      <trkpt lat="43.71094" lon="1.16588">
        <ele>211.2</ele>
        <time>2024-07-11T08:09:12Z</time>
      </trkpt>
      <trkpt lat="43.71094" lon="1.166">
        <ele>210.4</ele>
        <time>2024-07-11T08:09:13Z</time>
      </trkpt>
      <trkpt lat="43.71094" lon="1.16612">
        <ele>210.2</ele>
        <time>2024-07-11T08:09:14Z</time>
      </trkpt>
      <trkpt lat="43.71094" lon="1.16627">
        <ele>210</ele>
        <time>2024-07-11T08:09:15Z</time>
      </trkpt>
      <trkpt lat="43.71094" lon="1.16639">
        <ele>209.8</ele>
        <time>2024-07-11T08:09:16Z</time>
      </trkpt>
      <trkpt lat="43.71093" lon="1.16648">
        <ele>209.8</ele>
        <time>2024-07-11T08:09:17Z</time>
      </trkpt>
      <trkpt lat="43.71093" lon="1.16659">
        <ele>209.2</ele>
        <time>2024-07-11T08:09:18Z</time>
      </trkpt>
      <trkpt lat="43.71092" lon="1.16672">
        <ele>208.8</ele>
        <time>2024-07-11T08:09:19Z</time>
      </trkpt>
      <trkpt lat="43.71092" lon="1.16682">
        <ele>208.4</ele>
        <time>2024-07-11T08:09:20Z</time>
      </trkpt>
      <trkpt lat="43.71095" lon="1.16692">
        <ele>208</ele>
        <time>2024-07-11T08:09:21Z</time>
      </trkpt>
      <trkpt lat="43.71099" lon="1.16697">
        <ele>207.8</ele>
        <time>2024-07-11T08:09:22Z</time>
      </trkpt>
      <trkpt lat="43.71105" lon="1.16702">
        <ele>207.2</ele>
        <time>2024-07-11T08:09:23Z</time>
      </trkpt>
      <trkpt lat="43.71111" lon="1.16704">
        <ele>206.8</ele>
        <time>2024-07-11T08:09:24Z</time>
      </trkpt>
      <trkpt lat="43.71118" lon="1.16707">
        <ele>206.6</ele>
        <time>2024-07-11T08:09:25Z</time>
      </trkpt>
      <trkpt lat="43.71124" lon="1.16709">
        <ele>206.6</ele>
        <time>2024-07-11T08:09:26Z</time>
      </trkpt>
      <trkpt lat="43.7113" lon="1.16712">
        <ele>206.4</ele>
        <time>2024-07-11T08:09:27Z</time>
      </trkpt>
      <trkpt lat="43.71136" lon="1.16714">
        <ele>206.4</ele>
        <time>2024-07-11T08:09:28Z</time>
      </trkpt>
      <trkpt lat="43.71144" lon="1.16717">
        <ele>206.4</ele>
        <time>2024-07-11T08:09:29Z</time>
      </trkpt>
      <trkpt lat="43.71149" lon="1.16719">
        <ele>206.4</ele>
        <time>2024-07-11T08:09:30Z</time>
      </trkpt>
      <trkpt lat="43.71155" lon="1.16721">
        <ele>206.4</ele>
        <time>2024-07-11T08:09:31Z</time>
      </trkpt>
      <trkpt lat="43.71162" lon="1.16724">
        <ele>206.6</ele>
        <time>2024-07-11T08:09:32Z</time>
      </trkpt>
      <trkpt lat="43.71168" lon="1.16727">
        <ele>206.6</ele>
        <time>2024-07-11T08:09:33Z</time>
      </trkpt>
      <trkpt lat="43.71175" lon="1.16731">
        <ele>206.6</ele>
        <time>2024-07-11T08:09:34Z</time>
      </trkpt>
      <trkpt lat="43.71182" lon="1.16735">
        <ele>206.6</ele>
        <time>2024-07-11T08:09:35Z</time>
      </trkpt>
      <trkpt lat="43.71191" lon="1.16741">
        <ele>206.6</ele>
        <time>2024-07-11T08:09:36Z</time>
      </trkpt>
      <trkpt lat="43.71196" lon="1.16745">
        <ele>206.6</ele>
        <time>2024-07-11T08:09:37Z</time>
      </trkpt>
      <trkpt lat="43.71211" lon="1.16754">
        <ele>206.6</ele>
        <time>2024-07-11T08:09:38Z</time>
      </trkpt>
      <trkpt lat="43.71211" lon="1.16754">
        <ele>206.4</ele>
        <time>2024-07-11T08:09:39Z</time>
      </trkpt>
      <trkpt lat="43.71219" lon="1.16759">
        <ele>206.2</ele>
        <time>2024-07-11T08:09:40Z</time>
      </trkpt>
      <trkpt lat="43.71227" lon="1.16762">
        <ele>206.2</ele>
        <time>2024-07-11T08:09:41Z</time>
      </trkpt>
      <trkpt lat="43.71234" lon="1.16765">
        <ele>206</ele>
        <time>2024-07-11T08:09:42Z</time>
      </trkpt>
      <trkpt lat="43.71242" lon="1.16767">
        <ele>206</ele>
        <time>2024-07-11T08:09:43Z</time>
      </trkpt>
      <trkpt lat="43.7125" lon="1.16769">
        <ele>205.8</ele>
        <time>2024-07-11T08:09:44Z</time>
      </trkpt>
      <trkpt lat="43.71257" lon="1.1677">
        <ele>205.6</ele>
        <time>2024-07-11T08:09:45Z</time>
      </trkpt>
      <trkpt lat="43.71265" lon="1.16772">
        <ele>205.6</ele>
        <time>2024-07-11T08:09:46Z</time>
      </trkpt>
      <trkpt lat="43.7128" lon="1.16775">
        <ele>205.4</ele>
        <time>2024-07-11T08:09:47Z</time>
      </trkpt>
      <trkpt lat="43.7128" lon="1.16775">
        <ele>205.4</ele>
        <time>2024-07-11T08:09:48Z</time>
      </trkpt>
      <trkpt lat="43.71288" lon="1.16776">
        <ele>205.4</ele>
        <time>2024-07-11T08:09:49Z</time>
      </trkpt>
      <trkpt lat="43.71296" lon="1.16777">
        <ele>205.2</ele>
        <time>2024-07-11T08:09:50Z</time>
      </trkpt>
      <trkpt lat="43.71312" lon="1.16777">
        <ele>205.2</ele>
        <time>2024-07-11T08:09:51Z</time>
      </trkpt>
      <trkpt lat="43.71312" lon="1.16777">
        <ele>205.2</ele>
        <time>2024-07-11T08:09:52Z</time>
      </trkpt>
      <trkpt lat="43.7132" lon="1.16777">
        <ele>205.2</ele>
        <time>2024-07-11T08:09:53Z</time>
      </trkpt>
      <trkpt lat="43.71336" lon="1.16777">
        <ele>205.2</ele>
        <time>2024-07-11T08:09:54Z</time>
      </trkpt>
      <trkpt lat="43.71344" lon="1.16777">
        <ele>205.2</ele>
        <time>2024-07-11T08:09:55Z</time>
      </trkpt>
      <trkpt lat="43.71344" lon="1.16777">
        <ele>205.2</ele>
        <time>2024-07-11T08:09:56Z</time>
      </trkpt>
      <trkpt lat="43.71352" lon="1.16778">
        <ele>205.2</ele>
        <time>2024-07-11T08:09:57Z</time>
      </trkpt>
      <trkpt lat="43.7136" lon="1.16779">
        <ele>205.2</ele>
        <time>2024-07-11T08:09:58Z</time>
      </trkpt>
      <trkpt lat="43.71376" lon="1.16782">
        <ele>205.2</ele>
        <time>2024-07-11T08:09:59Z</time>
      </trkpt>
      <trkpt lat="43.71385" lon="1.16784">
        <ele>205</ele>
        <time>2024-07-11T08:10:00Z</time>
      </trkpt>
      <trkpt lat="43.71385" lon="1.16784">
        <ele>205</ele>
        <time>2024-07-11T08:10:01Z</time>
      </trkpt>
      <trkpt lat="43.71401" lon="1.16788">
        <ele>205</ele>
        <time>2024-07-11T08:10:02Z</time>
      </trkpt>
      <trkpt lat="43.71409" lon="1.1679">
        <ele>204.8</ele>
        <time>2024-07-11T08:10:03Z</time>
      </trkpt>
      <trkpt lat="43.71409" lon="1.1679">
        <ele>204.6</ele>
        <time>2024-07-11T08:10:04Z</time>
      </trkpt>
      <trkpt lat="43.71426" lon="1.16794">
        <ele>204.6</ele>
        <time>2024-07-11T08:10:05Z</time>
      </trkpt>
      <trkpt lat="43.71426" lon="1.16794">
        <ele>204.4</ele>
        <time>2024-07-11T08:10:06Z</time>
      </trkpt>
      <trkpt lat="43.71442" lon="1.16798">
        <ele>204.2</ele>
        <time>2024-07-11T08:10:07Z</time>
      </trkpt>
      <trkpt lat="43.71442" lon="1.16798">
        <ele>204</ele>
        <time>2024-07-11T08:10:08Z</time>
      </trkpt>
      <trkpt lat="43.71459" lon="1.16802">
        <ele>204</ele>
        <time>2024-07-11T08:10:09Z</time>
      </trkpt>
      <trkpt lat="43.71467" lon="1.16805">
        <ele>204</ele>
        <time>2024-07-11T08:10:10Z</time>
      </trkpt>
      <trkpt lat="43.71476" lon="1.16807">
        <ele>204</ele>
        <time>2024-07-11T08:10:11Z</time>
      </trkpt>
      <trkpt lat="43.71476" lon="1.16807">
        <ele>203.8</ele>
        <time>2024-07-11T08:10:12Z</time>
      </trkpt>
      <trkpt lat="43.71493" lon="1.16811">
        <ele>203.8</ele>
        <time>2024-07-11T08:10:13Z</time>
      </trkpt>
      <trkpt lat="43.71493" lon="1.16811">
        <ele>203.8</ele>
        <time>2024-07-11T08:10:14Z</time>
      </trkpt>
      <trkpt lat="43.71509" lon="1.16816">
        <ele>203.6</ele>
        <time>2024-07-11T08:10:15Z</time>
      </trkpt>
      <trkpt lat="43.71517" lon="1.16818">
        <ele>203.4</ele>
        <time>2024-07-11T08:10:16Z</time>
      </trkpt>
      <trkpt lat="43.71524" lon="1.16821">
        <ele>203.4</ele>
        <time>2024-07-11T08:10:17Z</time>
      </trkpt>
      <trkpt lat="43.71531" lon="1.16824">
        <ele>203.4</ele>
        <time>2024-07-11T08:10:18Z</time>
      </trkpt>
      <trkpt lat="43.71531" lon="1.16824">
        <ele>203.4</ele>
        <time>2024-07-11T08:10:19Z</time>
      </trkpt>
      <trkpt lat="43.71536" lon="1.16826">
        <ele>203.4</ele>
        <time>2024-07-11T08:10:20Z</time>
      </trkpt>
      <trkpt lat="43.71542" lon="1.16829">
        <ele>203.2</ele>
        <time>2024-07-11T08:10:21Z</time>
      </trkpt>
      <trkpt lat="43.71542" lon="1.16829">
        <ele>203.2</ele>
        <time>2024-07-11T08:10:22Z</time>
      </trkpt>
      <trkpt lat="43.71546" lon="1.16831">
        <ele>203.2</ele>
        <time>2024-07-11T08:10:23Z</time>
      </trkpt>
      <trkpt lat="43.7155" lon="1.16832">
        <ele>203.2</ele>
        <time>2024-07-11T08:10:24Z</time>
      </trkpt>
      <trkpt lat="43.71554" lon="1.16833">
        <ele>203</ele>
        <time>2024-07-11T08:10:25Z</time>
      </trkpt>
      <trkpt lat="43.71558" lon="1.16835">
        <ele>203</ele>
        <time>2024-07-11T08:10:26Z</time>
      </trkpt>
      <trkpt lat="43.71563" lon="1.16838">
        <ele>202.8</ele>
        <time>2024-07-11T08:10:27Z</time>
      </trkpt>
      <trkpt lat="43.71563" lon="1.16838">
        <ele>202.8</ele>
        <time>2024-07-11T08:10:28Z</time>
      </trkpt>
      <trkpt lat="43.71568" lon="1.1684">
        <ele>202.8</ele>
        <time>2024-07-11T08:10:29Z</time>
      </trkpt>
      <trkpt lat="43.7158" lon="1.16845">
        <ele>202.8</ele>
        <time>2024-07-11T08:10:30Z</time>
      </trkpt>
      <trkpt lat="43.7158" lon="1.16845">
        <ele>202.8</ele>
        <time>2024-07-11T08:10:31Z</time>
      </trkpt>
      <trkpt lat="43.71592" lon="1.1685">
        <ele>202.6</ele>
        <time>2024-07-11T08:10:32Z</time>
      </trkpt>
      <trkpt lat="43.71599" lon="1.16853">
        <ele>202.6</ele>
        <time>2024-07-11T08:10:33Z</time>
      </trkpt>
      <trkpt lat="43.71606" lon="1.16855">
        <ele>202.6</ele>
        <time>2024-07-11T08:10:34Z</time>
      </trkpt>
      <trkpt lat="43.71613" lon="1.16858">
        <ele>202.4</ele>
        <time>2024-07-11T08:10:35Z</time>
      </trkpt>
      <trkpt lat="43.71622" lon="1.16861">
        <ele>202.4</ele>
        <time>2024-07-11T08:10:36Z</time>
      </trkpt>
      <trkpt lat="43.71622" lon="1.16861">
        <ele>202</ele>
        <time>2024-07-11T08:10:37Z</time>
      </trkpt>
      <trkpt lat="43.71635" lon="1.16868">
        <ele>201.8</ele>
        <time>2024-07-11T08:10:38Z</time>
      </trkpt>
      <trkpt lat="43.71642" lon="1.16871">
        <ele>201.4</ele>
        <time>2024-07-11T08:10:39Z</time>
      </trkpt>
      <trkpt lat="43.71642" lon="1.16871">
        <ele>201.2</ele>
        <time>2024-07-11T08:10:40Z</time>
      </trkpt>
      <trkpt lat="43.71656" lon="1.16878">
        <ele>201</ele>
        <time>2024-07-11T08:10:41Z</time>
      </trkpt>
      <trkpt lat="43.71663" lon="1.16882">
        <ele>200.8</ele>
        <time>2024-07-11T08:10:42Z</time>
      </trkpt>
      <trkpt lat="43.7167" lon="1.16886">
        <ele>200.6</ele>
        <time>2024-07-11T08:10:43Z</time>
      </trkpt>
      <trkpt lat="43.71677" lon="1.1689">
        <ele>200.4</ele>
        <time>2024-07-11T08:10:44Z</time>
      </trkpt>
      <trkpt lat="43.71684" lon="1.16894">
        <ele>200.2</ele>
        <time>2024-07-11T08:10:45Z</time>
      </trkpt>
      <trkpt lat="43.71684" lon="1.16894">
        <ele>200.2</ele>
        <time>2024-07-11T08:10:46Z</time>
      </trkpt>
      <trkpt lat="43.71697" lon="1.16902">
        <ele>200.2</ele>
        <time>2024-07-11T08:10:47Z</time>
      </trkpt>
      <trkpt lat="43.71704" lon="1.16906">
        <ele>200</ele>
        <time>2024-07-11T08:10:48Z</time>
      </trkpt>
      <trkpt lat="43.71704" lon="1.16906">
        <ele>200</ele>
        <time>2024-07-11T08:10:49Z</time>
      </trkpt>
      <trkpt lat="43.71717" lon="1.16914">
        <ele>200</ele>
        <time>2024-07-11T08:10:50Z</time>
      </trkpt>
      <trkpt lat="43.71717" lon="1.16914">
        <ele>200</ele>
        <time>2024-07-11T08:10:51Z</time>
      </trkpt>
      <trkpt lat="43.71729" lon="1.16922">
        <ele>199.8</ele>
        <time>2024-07-11T08:10:52Z</time>
      </trkpt>
      <trkpt lat="43.71736" lon="1.16926">
        <ele>199.8</ele>
        <time>2024-07-11T08:10:53Z</time>
      </trkpt>
      <trkpt lat="43.71736" lon="1.16926">
        <ele>199.8</ele>
        <time>2024-07-11T08:10:54Z</time>
      </trkpt>
      <trkpt lat="43.71749" lon="1.16935">
        <ele>199.6</ele>
        <time>2024-07-11T08:10:55Z</time>
      </trkpt>
      <trkpt lat="43.71755" lon="1.16939">
        <ele>199.4</ele>
        <time>2024-07-11T08:10:56Z</time>
      </trkpt>
      <trkpt lat="43.71762" lon="1.16943">
        <ele>199.4</ele>
        <time>2024-07-11T08:10:57Z</time>
      </trkpt>
      <trkpt lat="43.71769" lon="1.16948">
        <ele>199.2</ele>
        <time>2024-07-11T08:10:58Z</time>
      </trkpt>
      <trkpt lat="43.71775" lon="1.16953">
        <ele>199.2</ele>
        <time>2024-07-11T08:10:59Z</time>
      </trkpt>
      <trkpt lat="43.71783" lon="1.16959">
        <ele>199</ele>
        <time>2024-07-11T08:11:00Z</time>
      </trkpt>
      <trkpt lat="43.71789" lon="1.16963">
        <ele>198.6</ele>
        <time>2024-07-11T08:11:01Z</time>
      </trkpt>
      <trkpt lat="43.71789" lon="1.16963">
        <ele>198.6</ele>
        <time>2024-07-11T08:11:02Z</time>
      </trkpt>
      <trkpt lat="43.71796" lon="1.16968">
        <ele>198.4</ele>
        <time>2024-07-11T08:11:03Z</time>
      </trkpt>
      <trkpt lat="43.71809" lon="1.16979">
        <ele>198.4</ele>
        <time>2024-07-11T08:11:04Z</time>
      </trkpt>
      <trkpt lat="43.71818" lon="1.16987">
        <ele>198.2</ele>
        <time>2024-07-11T08:11:05Z</time>
      </trkpt>
      <trkpt lat="43.71823" lon="1.16991">
        <ele>198</ele>
        <time>2024-07-11T08:11:06Z</time>
      </trkpt>
      <trkpt lat="43.7183" lon="1.16998">
        <ele>197.8</ele>
        <time>2024-07-11T08:11:07Z</time>
      </trkpt>
      <trkpt lat="43.71837" lon="1.17004">
        <ele>197.8</ele>
        <time>2024-07-11T08:11:08Z</time>
      </trkpt>
      <trkpt lat="43.71843" lon="1.1701">
        <ele>197.8</ele>
        <time>2024-07-11T08:11:09Z</time>
      </trkpt>
      <trkpt lat="43.7185" lon="1.17016">
        <ele>197.6</ele>
        <time>2024-07-11T08:11:10Z</time>
      </trkpt>
      <trkpt lat="43.71858" lon="1.17024">
        <ele>197.6</ele>
        <time>2024-07-11T08:11:11Z</time>
      </trkpt>
      <trkpt lat="43.71858" lon="1.17024">
        <ele>197.6</ele>
        <time>2024-07-11T08:11:12Z</time>
      </trkpt>
      <trkpt lat="43.71864" lon="1.1703">
        <ele>197.4</ele>
        <time>2024-07-11T08:11:13Z</time>
      </trkpt>
      <trkpt lat="43.71872" lon="1.17038">
        <ele>197.4</ele>
        <time>2024-07-11T08:11:14Z</time>
      </trkpt>
      <trkpt lat="43.71885" lon="1.17053">
        <ele>197.4</ele>
        <time>2024-07-11T08:11:15Z</time>
      </trkpt>
      <trkpt lat="43.7189" lon="1.17059">
        <ele>197.2</ele>
        <time>2024-07-11T08:11:16Z</time>
      </trkpt>
      <trkpt lat="43.71897" lon="1.17066">
        <ele>197.2</ele>
        <time>2024-07-11T08:11:17Z</time>
      </trkpt>
      <trkpt lat="43.71897" lon="1.17066">
        <ele>197</ele>
        <time>2024-07-11T08:11:18Z</time>
      </trkpt>
      <trkpt lat="43.7191" lon="1.17081">
        <ele>197</ele>
        <time>2024-07-11T08:11:19Z</time>
      </trkpt>
      <trkpt lat="43.71917" lon="1.17089">
        <ele>196.8</ele>
        <time>2024-07-11T08:11:20Z</time>
      </trkpt>
      <trkpt lat="43.71924" lon="1.17096">
        <ele>196.8</ele>
        <time>2024-07-11T08:11:21Z</time>
      </trkpt>
      <trkpt lat="43.71931" lon="1.17103">
        <ele>196.6</ele>
        <time>2024-07-11T08:11:22Z</time>
      </trkpt>
      <trkpt lat="43.71931" lon="1.17103">
        <ele>196.6</ele>
        <time>2024-07-11T08:11:23Z</time>
      </trkpt>
      <trkpt lat="43.71946" lon="1.17116">
        <ele>196.6</ele>
        <time>2024-07-11T08:11:24Z</time>
      </trkpt>
      <trkpt lat="43.71953" lon="1.17122">
        <ele>196.6</ele>
        <time>2024-07-11T08:11:25Z</time>
      </trkpt>
      <trkpt lat="43.71961" lon="1.17128">
        <ele>196.4</ele>
        <time>2024-07-11T08:11:26Z</time>
      </trkpt>
      <trkpt lat="43.71961" lon="1.17128">
        <ele>196.4</ele>
        <time>2024-07-11T08:11:27Z</time>
      </trkpt>
      <trkpt lat="43.71968" lon="1.17134">
        <ele>196.2</ele>
        <time>2024-07-11T08:11:28Z</time>
      </trkpt>
      <trkpt lat="43.71984" lon="1.17146">
        <ele>196</ele>
        <time>2024-07-11T08:11:29Z</time>
      </trkpt>
      <trkpt lat="43.71991" lon="1.17152">
        <ele>196</ele>
        <time>2024-07-11T08:11:30Z</time>
      </trkpt>
      <trkpt lat="43.71999" lon="1.17157">
        <ele>196</ele>
        <time>2024-07-11T08:11:31Z</time>
      </trkpt>
      <trkpt lat="43.72007" lon="1.17163">
        <ele>195.8</ele>
        <time>2024-07-11T08:11:32Z</time>
      </trkpt>
      <trkpt lat="43.72007" lon="1.17163">
        <ele>195.8</ele>
        <time>2024-07-11T08:11:33Z</time>
      </trkpt>
      <trkpt lat="43.72022" lon="1.17176">
        <ele>195.8</ele>
        <time>2024-07-11T08:11:34Z</time>
      </trkpt>
      <trkpt lat="43.7203" lon="1.17181">
        <ele>195.8</ele>
        <time>2024-07-11T08:11:35Z</time>
      </trkpt>
      <trkpt lat="43.72037" lon="1.17187">
        <ele>195.6</ele>
        <time>2024-07-11T08:11:36Z</time>
      </trkpt>
      <trkpt lat="43.72045" lon="1.17193">
        <ele>195.6</ele>
        <time>2024-07-11T08:11:37Z</time>
      </trkpt>
      <trkpt lat="43.72054" lon="1.17201">
        <ele>195.4</ele>
        <time>2024-07-11T08:11:38Z</time>
      </trkpt>
      <trkpt lat="43.72062" lon="1.17206">
        <ele>195.4</ele>
        <time>2024-07-11T08:11:39Z</time>
      </trkpt>
      <trkpt lat="43.72068" lon="1.17211">
        <ele>195.4</ele>
        <time>2024-07-11T08:11:40Z</time>
      </trkpt>
      <trkpt lat="43.72068" lon="1.17211">
        <ele>195.2</ele>
        <time>2024-07-11T08:11:41Z</time>
      </trkpt>
      <trkpt lat="43.72084" lon="1.17222">
        <ele>195.2</ele>
        <time>2024-07-11T08:11:42Z</time>
      </trkpt>
      <trkpt lat="43.72094" lon="1.17229">
        <ele>195</ele>
        <time>2024-07-11T08:11:43Z</time>
      </trkpt>
      <trkpt lat="43.72094" lon="1.17229">
        <ele>195</ele>
        <time>2024-07-11T08:11:44Z</time>
      </trkpt>
      <trkpt lat="43.7211" lon="1.1724">
        <ele>195</ele>
        <time>2024-07-11T08:11:45Z</time>
      </trkpt>
      <trkpt lat="43.72116" lon="1.17245">
        <ele>194.8</ele>
        <time>2024-07-11T08:11:46Z</time>
      </trkpt>
      <trkpt lat="43.72116" lon="1.17245">
        <ele>194.6</ele>
        <time>2024-07-11T08:11:47Z</time>
      </trkpt>
      <trkpt lat="43.72133" lon="1.17257">
        <ele>194.4</ele>
        <time>2024-07-11T08:11:48Z</time>
      </trkpt>
      <trkpt lat="43.72141" lon="1.17263">
        <ele>194.4</ele>
        <time>2024-07-11T08:11:49Z</time>
      </trkpt>
      <trkpt lat="43.72149" lon="1.17268">
        <ele>194.2</ele>
        <time>2024-07-11T08:11:50Z</time>
      </trkpt>
      <trkpt lat="43.72156" lon="1.17274">
        <ele>194.2</ele>
        <time>2024-07-11T08:11:51Z</time>
      </trkpt>
      <trkpt lat="43.72156" lon="1.17274">
        <ele>194</ele>
        <time>2024-07-11T08:11:52Z</time>
      </trkpt>
      <trkpt lat="43.72172" lon="1.17285">
        <ele>194</ele>
        <time>2024-07-11T08:11:53Z</time>
      </trkpt>
      <trkpt lat="43.72179" lon="1.17291">
        <ele>194</ele>
        <time>2024-07-11T08:11:54Z</time>
      </trkpt>
      <trkpt lat="43.72185" lon="1.17295">
        <ele>194</ele>
        <time>2024-07-11T08:11:55Z</time>
      </trkpt>
      <trkpt lat="43.72195" lon="1.17302">
        <ele>194</ele>
        <time>2024-07-11T08:11:56Z</time>
      </trkpt>
      <trkpt lat="43.72201" lon="1.17306">
        <ele>193.8</ele>
        <time>2024-07-11T08:11:57Z</time>
      </trkpt>
      <trkpt lat="43.7221" lon="1.17313">
        <ele>193.8</ele>
        <time>2024-07-11T08:11:58Z</time>
      </trkpt>
      <trkpt lat="43.72217" lon="1.17318">
        <ele>193.8</ele>
        <time>2024-07-11T08:11:59Z</time>
      </trkpt>
      <trkpt lat="43.72225" lon="1.17324">
        <ele>193.8</ele>
        <time>2024-07-11T08:12:00Z</time>
      </trkpt>
      <trkpt lat="43.72231" lon="1.17328">
        <ele>193.8</ele>
        <time>2024-07-11T08:12:01Z</time>
      </trkpt>
      <trkpt lat="43.7224" lon="1.17335">
        <ele>193.6</ele>
        <time>2024-07-11T08:12:02Z</time>
      </trkpt>
      <trkpt lat="43.7224" lon="1.17335">
        <ele>193.6</ele>
        <time>2024-07-11T08:12:03Z</time>
      </trkpt>
      <trkpt lat="43.72256" lon="1.17346">
        <ele>193.6</ele>
        <time>2024-07-11T08:12:04Z</time>
      </trkpt>
      <trkpt lat="43.72262" lon="1.1735">
        <ele>193.6</ele>
        <time>2024-07-11T08:12:05Z</time>
      </trkpt>
      <trkpt lat="43.72262" lon="1.1735">
        <ele>193.6</ele>
        <time>2024-07-11T08:12:06Z</time>
      </trkpt>
      <trkpt lat="43.72279" lon="1.17362">
        <ele>193.6</ele>
        <time>2024-07-11T08:12:07Z</time>
      </trkpt>
      <trkpt lat="43.72286" lon="1.17367">
        <ele>193.6</ele>
        <time>2024-07-11T08:12:08Z</time>
      </trkpt>
      <trkpt lat="43.72293" lon="1.17371">
        <ele>193.6</ele>
        <time>2024-07-11T08:12:09Z</time>
      </trkpt>
      <trkpt lat="43.72301" lon="1.17375">
        <ele>193.6</ele>
        <time>2024-07-11T08:12:10Z</time>
      </trkpt>
      <trkpt lat="43.72301" lon="1.17375">
        <ele>193.6</ele>
        <time>2024-07-11T08:12:11Z</time>
      </trkpt>
      <trkpt lat="43.72318" lon="1.17386">
        <ele>193.6</ele>
        <time>2024-07-11T08:12:12Z</time>
      </trkpt>
      <trkpt lat="43.72327" lon="1.1739">
        <ele>193.6</ele>
        <time>2024-07-11T08:12:13Z</time>
      </trkpt>
      <trkpt lat="43.72335" lon="1.17394">
        <ele>193.6</ele>
        <time>2024-07-11T08:12:14Z</time>
      </trkpt>
      <trkpt lat="43.72343" lon="1.17399">
        <ele>193.6</ele>
        <time>2024-07-11T08:12:15Z</time>
      </trkpt>
      <trkpt lat="43.72351" lon="1.17403">
        <ele>193.6</ele>
        <time>2024-07-11T08:12:16Z</time>
      </trkpt>
      <trkpt lat="43.72359" lon="1.17408">
        <ele>193.6</ele>
        <time>2024-07-11T08:12:17Z</time>
      </trkpt>
      <trkpt lat="43.72367" lon="1.17412">
        <ele>193.6</ele>
        <time>2024-07-11T08:12:18Z</time>
      </trkpt>
      <trkpt lat="43.72375" lon="1.17416">
        <ele>193.6</ele>
        <time>2024-07-11T08:12:19Z</time>
      </trkpt>
      <trkpt lat="43.72382" lon="1.1742">
        <ele>193.6</ele>
        <time>2024-07-11T08:12:20Z</time>
      </trkpt>
      <trkpt lat="43.7239" lon="1.17425">
        <ele>193.6</ele>
        <time>2024-07-11T08:12:21Z</time>
      </trkpt>
      <trkpt lat="43.72398" lon="1.17429">
        <ele>193.6</ele>
        <time>2024-07-11T08:12:22Z</time>
      </trkpt>
      <trkpt lat="43.72406" lon="1.17433">
        <ele>193.6</ele>
        <time>2024-07-11T08:12:23Z</time>
      </trkpt>
      <trkpt lat="43.72414" lon="1.17437">
        <ele>193.6</ele>
        <time>2024-07-11T08:12:24Z</time>
      </trkpt>
      <trkpt lat="43.72414" lon="1.17437">
        <ele>193.6</ele>
        <time>2024-07-11T08:12:25Z</time>
      </trkpt>
      <trkpt lat="43.7243" lon="1.17444">
        <ele>193.4</ele>
        <time>2024-07-11T08:12:26Z</time>
      </trkpt>
      <trkpt lat="43.72439" lon="1.17447">
        <ele>193.4</ele>
        <time>2024-07-11T08:12:27Z</time>
      </trkpt>
      <trkpt lat="43.72439" lon="1.17447">
        <ele>193.4</ele>
        <time>2024-07-11T08:12:28Z</time>
      </trkpt>
      <trkpt lat="43.72454" lon="1.17453">
        <ele>193.4</ele>
        <time>2024-07-11T08:12:29Z</time>
      </trkpt>
      <trkpt lat="43.72464" lon="1.17456">
        <ele>193.4</ele>
        <time>2024-07-11T08:12:30Z</time>
      </trkpt>
      <trkpt lat="43.72473" lon="1.17459">
        <ele>193.2</ele>
        <time>2024-07-11T08:12:31Z</time>
      </trkpt>
      <trkpt lat="43.72481" lon="1.17462">
        <ele>193.2</ele>
        <time>2024-07-11T08:12:32Z</time>
      </trkpt>
      <trkpt lat="43.72488" lon="1.17465">
        <ele>193.2</ele>
        <time>2024-07-11T08:12:33Z</time>
      </trkpt>
      <trkpt lat="43.72498" lon="1.17469">
        <ele>193.2</ele>
        <time>2024-07-11T08:12:34Z</time>
      </trkpt>
      <trkpt lat="43.72506" lon="1.17472">
        <ele>193</ele>
        <time>2024-07-11T08:12:35Z</time>
      </trkpt>
      <trkpt lat="43.72514" lon="1.17475">
        <ele>193</ele>
        <time>2024-07-11T08:12:36Z</time>
      </trkpt>
      <trkpt lat="43.72522" lon="1.17478">
        <ele>193</ele>
        <time>2024-07-11T08:12:37Z</time>
      </trkpt>
      <trkpt lat="43.72531" lon="1.17481">
        <ele>192.8</ele>
        <time>2024-07-11T08:12:38Z</time>
      </trkpt>
      <trkpt lat="43.72537" lon="1.17484">
        <ele>192.8</ele>
        <time>2024-07-11T08:12:39Z</time>
      </trkpt>
      <trkpt lat="43.72547" lon="1.17487">
        <ele>192.6</ele>
        <time>2024-07-11T08:12:40Z</time>
      </trkpt>
      <trkpt lat="43.72555" lon="1.1749">
        <ele>192.6</ele>
        <time>2024-07-11T08:12:41Z</time>
      </trkpt>
      <trkpt lat="43.72564" lon="1.17492">
        <ele>192.6</ele>
        <time>2024-07-11T08:12:42Z</time>
      </trkpt>
      <trkpt lat="43.72571" lon="1.17493">
        <ele>192.6</ele>
        <time>2024-07-11T08:12:43Z</time>
      </trkpt>
      <trkpt lat="43.72571" lon="1.17493">
        <ele>192.6</ele>
        <time>2024-07-11T08:12:44Z</time>
      </trkpt>
      <trkpt lat="43.7259" lon="1.17493">
        <ele>192.6</ele>
        <time>2024-07-11T08:12:45Z</time>
      </trkpt>
      <trkpt lat="43.72598" lon="1.17492">
        <ele>192.6</ele>
        <time>2024-07-11T08:12:46Z</time>
      </trkpt>
      <trkpt lat="43.72598" lon="1.17492">
        <ele>192.4</ele>
        <time>2024-07-11T08:12:47Z</time>
      </trkpt>
      <trkpt lat="43.72613" lon="1.17489">
        <ele>192.4</ele>
        <time>2024-07-11T08:12:48Z</time>
      </trkpt>
      <trkpt lat="43.72623" lon="1.17487">
        <ele>192.2</ele>
        <time>2024-07-11T08:12:49Z</time>
      </trkpt>
      <trkpt lat="43.72632" lon="1.17485">
        <ele>192.2</ele>
        <time>2024-07-11T08:12:50Z</time>
      </trkpt>
      <trkpt lat="43.7264" lon="1.17483">
        <ele>192.2</ele>
        <time>2024-07-11T08:12:51Z</time>
      </trkpt>
      <trkpt lat="43.72647" lon="1.17482">
        <ele>192.2</ele>
        <time>2024-07-11T08:12:52Z</time>
      </trkpt>
      <trkpt lat="43.72655" lon="1.1748">
        <ele>192</ele>
        <time>2024-07-11T08:12:53Z</time>
      </trkpt>
      <trkpt lat="43.72665" lon="1.17478">
        <ele>192</ele>
        <time>2024-07-11T08:12:54Z</time>
      </trkpt>
      <trkpt lat="43.72665" lon="1.17478">
        <ele>191.8</ele>
        <time>2024-07-11T08:12:55Z</time>
      </trkpt>
      <trkpt lat="43.72682" lon="1.17476">
        <ele>191.6</ele>
        <time>2024-07-11T08:12:56Z</time>
      </trkpt>
      <trkpt lat="43.72691" lon="1.17476">
        <ele>191.4</ele>
        <time>2024-07-11T08:12:57Z</time>
      </trkpt>
      <trkpt lat="43.72691" lon="1.17476">
        <ele>191.4</ele>
        <time>2024-07-11T08:12:58Z</time>
      </trkpt>
      <trkpt lat="43.72708" lon="1.17475">
        <ele>191.4</ele>
        <time>2024-07-11T08:12:59Z</time>
      </trkpt>
      <trkpt lat="43.72716" lon="1.17476">
        <ele>191.2</ele>
        <time>2024-07-11T08:13:00Z</time>
      </trkpt>
      <trkpt lat="43.72725" lon="1.17476">
        <ele>191.2</ele>
        <time>2024-07-11T08:13:01Z</time>
      </trkpt>
      <trkpt lat="43.72731" lon="1.17476">
        <ele>191.2</ele>
        <time>2024-07-11T08:13:02Z</time>
      </trkpt>
      <trkpt lat="43.72741" lon="1.17476">
        <ele>191.2</ele>
        <time>2024-07-11T08:13:03Z</time>
      </trkpt>
      <trkpt lat="43.7275" lon="1.17477">
        <ele>191.2</ele>
        <time>2024-07-11T08:13:04Z</time>
      </trkpt>
      <trkpt lat="43.72758" lon="1.17477">
        <ele>191</ele>
        <time>2024-07-11T08:13:05Z</time>
      </trkpt>
      <trkpt lat="43.72766" lon="1.17477">
        <ele>191</ele>
        <time>2024-07-11T08:13:06Z</time>
      </trkpt>
      <trkpt lat="43.72772" lon="1.17477">
        <ele>191</ele>
        <time>2024-07-11T08:13:07Z</time>
      </trkpt>
      <trkpt lat="43.72782" lon="1.17475">
        <ele>191</ele>
        <time>2024-07-11T08:13:08Z</time>
      </trkpt>
      <trkpt lat="43.7279" lon="1.17473">
        <ele>190.8</ele>
        <time>2024-07-11T08:13:09Z</time>
      </trkpt>
      <trkpt lat="43.72798" lon="1.1747">
        <ele>190.8</ele>
        <time>2024-07-11T08:13:10Z</time>
      </trkpt>
      <trkpt lat="43.72806" lon="1.17466">
        <ele>190.8</ele>
        <time>2024-07-11T08:13:11Z</time>
      </trkpt>
      <trkpt lat="43.72806" lon="1.17466">
        <ele>190.8</ele>
        <time>2024-07-11T08:13:12Z</time>
      </trkpt>
      <trkpt lat="43.72821" lon="1.17457">
        <ele>190.6</ele>
        <time>2024-07-11T08:13:13Z</time>
      </trkpt>
      <trkpt lat="43.72828" lon="1.17451">
        <ele>190.6</ele>
        <time>2024-07-11T08:13:14Z</time>
      </trkpt>
      <trkpt lat="43.72835" lon="1.17443">
        <ele>190.6</ele>
        <time>2024-07-11T08:13:15Z</time>
      </trkpt>
      <trkpt lat="43.72842" lon="1.17435">
        <ele>190.2</ele>
        <time>2024-07-11T08:13:16Z</time>
      </trkpt>
      <trkpt lat="43.72842" lon="1.17435">
        <ele>190.2</ele>
        <time>2024-07-11T08:13:17Z</time>
      </trkpt>
      <trkpt lat="43.72854" lon="1.17416">
        <ele>190.2</ele>
        <time>2024-07-11T08:13:18Z</time>
      </trkpt>
      <trkpt lat="43.7286" lon="1.17407">
        <ele>190</ele>
        <time>2024-07-11T08:13:19Z</time>
      </trkpt>
      <trkpt lat="43.7286" lon="1.17407">
        <ele>190.2</ele>
        <time>2024-07-11T08:13:20Z</time>
      </trkpt>
      <trkpt lat="43.7287" lon="1.17389">
        <ele>189.6</ele>
        <time>2024-07-11T08:13:21Z</time>
      </trkpt>
      <trkpt lat="43.72877" lon="1.17377">
        <ele>189.4</ele>
        <time>2024-07-11T08:13:22Z</time>
      </trkpt>
      <trkpt lat="43.72882" lon="1.17366">
        <ele>188.8</ele>
        <time>2024-07-11T08:13:23Z</time>
      </trkpt>
      <trkpt lat="43.72887" lon="1.17359">
        <ele>188.6</ele>
        <time>2024-07-11T08:13:24Z</time>
      </trkpt>
      <trkpt lat="43.72894" lon="1.17351">
        <ele>188.8</ele>
        <time>2024-07-11T08:13:25Z</time>
      </trkpt>
      <trkpt lat="43.72902" lon="1.17345">
        <ele>188.2</ele>
        <time>2024-07-11T08:13:26Z</time>
      </trkpt>
      <trkpt lat="43.72912" lon="1.17342">
        <ele>188</ele>
        <time>2024-07-11T08:13:27Z</time>
      </trkpt>
      <trkpt lat="43.7292" lon="1.17343">
        <ele>187.6</ele>
        <time>2024-07-11T08:13:28Z</time>
      </trkpt>
      <trkpt lat="43.72928" lon="1.17346">
        <ele>187.2</ele>
        <time>2024-07-11T08:13:29Z</time>
      </trkpt>
      <trkpt lat="43.72937" lon="1.1735">
        <ele>187</ele>
        <time>2024-07-11T08:13:30Z</time>
      </trkpt>
      <trkpt lat="43.72937" lon="1.1735">
        <ele>186.4</ele>
        <time>2024-07-11T08:13:31Z</time>
      </trkpt>
      <trkpt lat="43.72954" lon="1.17361">
        <ele>186</ele>
        <time>2024-07-11T08:13:32Z</time>
      </trkpt>
      <trkpt lat="43.72962" lon="1.17365">
        <ele>185.4</ele>
        <time>2024-07-11T08:13:33Z</time>
      </trkpt>
      <trkpt lat="43.72969" lon="1.17369">
        <ele>185.2</ele>
        <time>2024-07-11T08:13:34Z</time>
      </trkpt>
      <trkpt lat="43.72977" lon="1.17373">
        <ele>185</ele>
        <time>2024-07-11T08:13:35Z</time>
      </trkpt>
      <trkpt lat="43.72977" lon="1.17373">
        <ele>184.8</ele>
        <time>2024-07-11T08:13:36Z</time>
      </trkpt>
      <trkpt lat="43.72994" lon="1.17384">
        <ele>184.8</ele>
        <time>2024-07-11T08:13:37Z</time>
      </trkpt>
      <trkpt lat="43.73002" lon="1.17389">
        <ele>184.6</ele>
        <time>2024-07-11T08:13:38Z</time>
      </trkpt>
      <trkpt lat="43.73009" lon="1.17394">
        <ele>184.4</ele>
        <time>2024-07-11T08:13:39Z</time>
      </trkpt>
      <trkpt lat="43.73016" lon="1.17398">
        <ele>184.4</ele>
        <time>2024-07-11T08:13:40Z</time>
      </trkpt>
      <trkpt lat="43.73025" lon="1.17404">
        <ele>184.4</ele>
        <time>2024-07-11T08:13:41Z</time>
      </trkpt>
      <trkpt lat="43.73025" lon="1.17404">
        <ele>184.4</ele>
        <time>2024-07-11T08:13:42Z</time>
      </trkpt>
      <trkpt lat="43.73041" lon="1.17414">
        <ele>184.4</ele>
        <time>2024-07-11T08:13:43Z</time>
      </trkpt>
      <trkpt lat="43.73049" lon="1.17419">
        <ele>184.4</ele>
        <time>2024-07-11T08:13:44Z</time>
      </trkpt>
      <trkpt lat="43.73049" lon="1.17419">
        <ele>184.2</ele>
        <time>2024-07-11T08:13:45Z</time>
      </trkpt>
      <trkpt lat="43.73066" lon="1.17429">
        <ele>184.2</ele>
        <time>2024-07-11T08:13:46Z</time>
      </trkpt>
      <trkpt lat="43.73073" lon="1.17434">
        <ele>184.2</ele>
        <time>2024-07-11T08:13:47Z</time>
      </trkpt>
      <trkpt lat="43.73081" lon="1.17439">
        <ele>184.2</ele>
        <time>2024-07-11T08:13:48Z</time>
      </trkpt>
      <trkpt lat="43.73088" lon="1.17443">
        <ele>184.2</ele>
        <time>2024-07-11T08:13:49Z</time>
      </trkpt>
      <trkpt lat="43.73097" lon="1.17448">
        <ele>184.2</ele>
        <time>2024-07-11T08:13:50Z</time>
      </trkpt>
      <trkpt lat="43.73105" lon="1.17453">
        <ele>184.2</ele>
        <time>2024-07-11T08:13:51Z</time>
      </trkpt>
      <trkpt lat="43.73113" lon="1.17458">
        <ele>184.2</ele>
        <time>2024-07-11T08:13:52Z</time>
      </trkpt>
      <trkpt lat="43.73119" lon="1.17462">
        <ele>184.2</ele>
        <time>2024-07-11T08:13:53Z</time>
      </trkpt>
      <trkpt lat="43.73126" lon="1.17466">
        <ele>183.8</ele>
        <time>2024-07-11T08:13:54Z</time>
      </trkpt>
      <trkpt lat="43.73135" lon="1.17472">
        <ele>183.6</ele>
        <time>2024-07-11T08:13:55Z</time>
      </trkpt>
      <trkpt lat="43.73142" lon="1.17479">
        <ele>183.6</ele>
        <time>2024-07-11T08:13:56Z</time>
      </trkpt>
      <trkpt lat="43.73148" lon="1.17485">
        <ele>183.6</ele>
        <time>2024-07-11T08:13:57Z</time>
      </trkpt>
      <trkpt lat="43.73154" lon="1.17492">
        <ele>183.6</ele>
        <time>2024-07-11T08:13:58Z</time>
      </trkpt>
      <trkpt lat="43.73159" lon="1.17497">
        <ele>183.6</ele>
        <time>2024-07-11T08:13:59Z</time>
      </trkpt>
      <trkpt lat="43.73166" lon="1.17506">
        <ele>183.6</ele>
        <time>2024-07-11T08:14:00Z</time>
      </trkpt>
      <trkpt lat="43.73166" lon="1.17506">
        <ele>183.8</ele>
        <time>2024-07-11T08:14:01Z</time>
      </trkpt>
      <trkpt lat="43.73176" lon="1.17521">
        <ele>183.8</ele>
        <time>2024-07-11T08:14:02Z</time>
      </trkpt>
      <trkpt lat="43.73181" lon="1.17528">
        <ele>184</ele>
        <time>2024-07-11T08:14:03Z</time>
      </trkpt>
      <trkpt lat="43.73181" lon="1.17528">
        <ele>184.2</ele>
        <time>2024-07-11T08:14:04Z</time>
      </trkpt>
      <trkpt lat="43.7319" lon="1.17542">
        <ele>184.2</ele>
        <time>2024-07-11T08:14:05Z</time>
      </trkpt>
      <trkpt lat="43.73195" lon="1.17549">
        <ele>184.4</ele>
        <time>2024-07-11T08:14:06Z</time>
      </trkpt>
      <trkpt lat="43.73195" lon="1.17549">
        <ele>184.4</ele>
        <time>2024-07-11T08:14:07Z</time>
      </trkpt>
      <trkpt lat="43.73203" lon="1.17561">
        <ele>184.6</ele>
        <time>2024-07-11T08:14:08Z</time>
      </trkpt>
      <trkpt lat="43.73208" lon="1.1757">
        <ele>184.8</ele>
        <time>2024-07-11T08:14:09Z</time>
      </trkpt>
      <trkpt lat="43.73211" lon="1.17577">
        <ele>185</ele>
        <time>2024-07-11T08:14:10Z</time>
      </trkpt>
      <trkpt lat="43.73215" lon="1.17584">
        <ele>185.2</ele>
        <time>2024-07-11T08:14:11Z</time>
      </trkpt>
      <trkpt lat="43.73219" lon="1.1759">
        <ele>185.4</ele>
        <time>2024-07-11T08:14:12Z</time>
      </trkpt>
      <trkpt lat="43.73222" lon="1.17595">
        <ele>185.6</ele>
        <time>2024-07-11T08:14:13Z</time>
      </trkpt>
      <trkpt lat="43.73227" lon="1.17602">
        <ele>186.2</ele>
        <time>2024-07-11T08:14:14Z</time>
      </trkpt>
      <trkpt lat="43.73232" lon="1.17608">
        <ele>186.4</ele>
        <time>2024-07-11T08:14:15Z</time>
      </trkpt>
      <trkpt lat="43.73237" lon="1.17614">
        <ele>186.8</ele>
        <time>2024-07-11T08:14:16Z</time>
      </trkpt>
      <trkpt lat="43.73241" lon="1.17618">
        <ele>187</ele>
        <time>2024-07-11T08:14:17Z</time>
      </trkpt>
      <trkpt lat="43.73241" lon="1.17618">
        <ele>187.2</ele>
        <time>2024-07-11T08:14:18Z</time>
      </trkpt>
      <trkpt lat="43.73253" lon="1.17626">
        <ele>187.4</ele>
        <time>2024-07-11T08:14:19Z</time>
      </trkpt>
      <trkpt lat="43.73259" lon="1.17629">
        <ele>187.6</ele>
        <time>2024-07-11T08:14:20Z</time>
      </trkpt>
      <trkpt lat="43.73266" lon="1.1763">
        <ele>188</ele>
        <time>2024-07-11T08:14:21Z</time>
      </trkpt>
      <trkpt lat="43.73272" lon="1.17631">
        <ele>188.2</ele>
        <time>2024-07-11T08:14:22Z</time>
      </trkpt>
      <trkpt lat="43.73279" lon="1.17632">
        <ele>188.4</ele>
        <time>2024-07-11T08:14:23Z</time>
      </trkpt>
      <trkpt lat="43.73285" lon="1.17632">
        <ele>188.6</ele>
        <time>2024-07-11T08:14:24Z</time>
      </trkpt>
      <trkpt lat="43.73292" lon="1.17633">
        <ele>189</ele>
        <time>2024-07-11T08:14:25Z</time>
      </trkpt>
      <trkpt lat="43.73298" lon="1.17633">
        <ele>189.4</ele>
        <time>2024-07-11T08:14:26Z</time>
      </trkpt>
      <trkpt lat="43.73305" lon="1.17633">
        <ele>189.4</ele>
        <time>2024-07-11T08:14:27Z</time>
      </trkpt>
      <trkpt lat="43.73311" lon="1.17633">
        <ele>189.6</ele>
        <time>2024-07-11T08:14:28Z</time>
      </trkpt>
      <trkpt lat="43.73311" lon="1.17633">
        <ele>189.6</ele>
        <time>2024-07-11T08:14:29Z</time>
      </trkpt>
      <trkpt lat="43.73323" lon="1.17634">
        <ele>189.8</ele>
        <time>2024-07-11T08:14:30Z</time>
      </trkpt>
      <trkpt lat="43.73328" lon="1.17634">
        <ele>190</ele>
        <time>2024-07-11T08:14:31Z</time>
      </trkpt>
      <trkpt lat="43.73328" lon="1.17634">
        <ele>190.2</ele>
        <time>2024-07-11T08:14:32Z</time>
      </trkpt>
      <trkpt lat="43.73341" lon="1.17634">
        <ele>190.2</ele>
        <time>2024-07-11T08:14:33Z</time>
      </trkpt>
      <trkpt lat="43.73348" lon="1.17634">
        <ele>190.2</ele>
        <time>2024-07-11T08:14:34Z</time>
      </trkpt>
      <trkpt lat="43.73353" lon="1.17635">
        <ele>190.4</ele>
        <time>2024-07-11T08:14:35Z</time>
      </trkpt>
      <trkpt lat="43.73361" lon="1.17635">
        <ele>190.6</ele>
        <time>2024-07-11T08:14:36Z</time>
      </trkpt>
      <trkpt lat="43.73367" lon="1.17636">
        <ele>191.2</ele>
        <time>2024-07-11T08:14:37Z</time>
      </trkpt>
      <trkpt lat="43.73373" lon="1.17636">
        <ele>191.4</ele>
        <time>2024-07-11T08:14:38Z</time>
      </trkpt>
      <trkpt lat="43.7338" lon="1.17636">
        <ele>191.4</ele>
        <time>2024-07-11T08:14:39Z</time>
      </trkpt>
      <trkpt lat="43.73386" lon="1.17637">
        <ele>191.6</ele>
        <time>2024-07-11T08:14:40Z</time>
      </trkpt>
      <trkpt lat="43.73391" lon="1.17638">
        <ele>191.6</ele>
        <time>2024-07-11T08:14:41Z</time>
      </trkpt>
      <trkpt lat="43.73399" lon="1.17639">
        <ele>191.8</ele>
        <time>2024-07-11T08:14:42Z</time>
      </trkpt>
      <trkpt lat="43.73399" lon="1.17639">
        <ele>191.8</ele>
        <time>2024-07-11T08:14:43Z</time>
      </trkpt>
      <trkpt lat="43.73413" lon="1.17642">
        <ele>192</ele>
        <time>2024-07-11T08:14:44Z</time>
      </trkpt>
      <trkpt lat="43.73419" lon="1.17643">
        <ele>192.2</ele>
        <time>2024-07-11T08:14:45Z</time>
      </trkpt>
      <trkpt lat="43.73426" lon="1.17645">
        <ele>192.2</ele>
        <time>2024-07-11T08:14:46Z</time>
      </trkpt>
      <trkpt lat="43.73432" lon="1.17646">
        <ele>192.4</ele>
        <time>2024-07-11T08:14:47Z</time>
      </trkpt>
      <trkpt lat="43.73439" lon="1.17648">
        <ele>192.4</ele>
        <time>2024-07-11T08:14:48Z</time>
      </trkpt>
      <trkpt lat="43.73446" lon="1.1765">
        <ele>192.4</ele>
        <time>2024-07-11T08:14:49Z</time>
      </trkpt>
      <trkpt lat="43.73451" lon="1.17651">
        <ele>192.4</ele>
        <time>2024-07-11T08:14:50Z</time>
      </trkpt>
      <trkpt lat="43.73451" lon="1.17651">
        <ele>192.6</ele>
        <time>2024-07-11T08:14:51Z</time>
      </trkpt>
      <trkpt lat="43.73466" lon="1.17655">
        <ele>192.8</ele>
        <time>2024-07-11T08:14:52Z</time>
      </trkpt>
      <trkpt lat="43.73473" lon="1.17657">
        <ele>192.8</ele>
        <time>2024-07-11T08:14:53Z</time>
      </trkpt>
      <trkpt lat="43.73473" lon="1.17657">
        <ele>192.8</ele>
        <time>2024-07-11T08:14:54Z</time>
      </trkpt>
      <trkpt lat="43.73485" lon="1.17661">
        <ele>192.8</ele>
        <time>2024-07-11T08:14:55Z</time>
      </trkpt>
      <trkpt lat="43.73493" lon="1.17663">
        <ele>192.8</ele>
        <time>2024-07-11T08:14:56Z</time>
      </trkpt>
      <trkpt lat="43.735" lon="1.17665">
        <ele>192.8</ele>
        <time>2024-07-11T08:14:57Z</time>
      </trkpt>
      <trkpt lat="43.73507" lon="1.17667">
        <ele>193</ele>
        <time>2024-07-11T08:14:58Z</time>
      </trkpt>
      <trkpt lat="43.73514" lon="1.17669">
        <ele>193</ele>
        <time>2024-07-11T08:14:59Z</time>
      </trkpt>
      <trkpt lat="43.73521" lon="1.17672">
        <ele>193</ele>
        <time>2024-07-11T08:15:00Z</time>
      </trkpt>
      <trkpt lat="43.73526" lon="1.17674">
        <ele>193</ele>
        <time>2024-07-11T08:15:01Z</time>
      </trkpt>
      <trkpt lat="43.73535" lon="1.17677">
        <ele>193</ele>
        <time>2024-07-11T08:15:02Z</time>
      </trkpt>
      <trkpt lat="43.73542" lon="1.1768">
        <ele>193</ele>
        <time>2024-07-11T08:15:03Z</time>
      </trkpt>
      <trkpt lat="43.7355" lon="1.17683">
        <ele>193</ele>
        <time>2024-07-11T08:15:04Z</time>
      </trkpt>
      <trkpt lat="43.73557" lon="1.17685">
        <ele>193</ele>
        <time>2024-07-11T08:15:05Z</time>
      </trkpt>
      <trkpt lat="43.73564" lon="1.17688">
        <ele>193</ele>
        <time>2024-07-11T08:15:06Z</time>
      </trkpt>
      <trkpt lat="43.73571" lon="1.1769">
        <ele>193.2</ele>
        <time>2024-07-11T08:15:07Z</time>
      </trkpt>
      <trkpt lat="43.73578" lon="1.17693">
        <ele>193.2</ele>
        <time>2024-07-11T08:15:08Z</time>
      </trkpt>
      <trkpt lat="43.73586" lon="1.17696">
        <ele>193.4</ele>
        <time>2024-07-11T08:15:09Z</time>
      </trkpt>
      <trkpt lat="43.73593" lon="1.17698">
        <ele>193.4</ele>
        <time>2024-07-11T08:15:10Z</time>
      </trkpt>
      <trkpt lat="43.736" lon="1.17701">
        <ele>193.4</ele>
        <time>2024-07-11T08:15:11Z</time>
      </trkpt>
      <trkpt lat="43.736" lon="1.17701">
        <ele>193.4</ele>
        <time>2024-07-11T08:15:12Z</time>
      </trkpt>
      <trkpt lat="43.73615" lon="1.17706">
        <ele>193.4</ele>
        <time>2024-07-11T08:15:13Z</time>
      </trkpt>
      <trkpt lat="43.73622" lon="1.17709">
        <ele>193.4</ele>
        <time>2024-07-11T08:15:14Z</time>
      </trkpt>
      <trkpt lat="43.7363" lon="1.17711">
        <ele>193.4</ele>
        <time>2024-07-11T08:15:15Z</time>
      </trkpt>
      <trkpt lat="43.73638" lon="1.17714">
        <ele>193.4</ele>
        <time>2024-07-11T08:15:16Z</time>
      </trkpt>
      <trkpt lat="43.73645" lon="1.17716">
        <ele>193.4</ele>
        <time>2024-07-11T08:15:17Z</time>
      </trkpt>
      <trkpt lat="43.73652" lon="1.17719">
        <ele>193.2</ele>
        <time>2024-07-11T08:15:18Z</time>
      </trkpt>
      <trkpt lat="43.7366" lon="1.17722">
        <ele>193.2</ele>
        <time>2024-07-11T08:15:19Z</time>
      </trkpt>
      <trkpt lat="43.73667" lon="1.17724">
        <ele>193</ele>
        <time>2024-07-11T08:15:20Z</time>
      </trkpt>
      <trkpt lat="43.73675" lon="1.17727">
        <ele>193</ele>
        <time>2024-07-11T08:15:21Z</time>
      </trkpt>
      <trkpt lat="43.73682" lon="1.17729">
        <ele>192.8</ele>
        <time>2024-07-11T08:15:22Z</time>
      </trkpt>
      <trkpt lat="43.7369" lon="1.17732">
        <ele>192.8</ele>
        <time>2024-07-11T08:15:23Z</time>
      </trkpt>
      <trkpt lat="43.73697" lon="1.17734">
        <ele>192.8</ele>
        <time>2024-07-11T08:15:24Z</time>
      </trkpt>
      <trkpt lat="43.73705" lon="1.17737">
        <ele>192.6</ele>
        <time>2024-07-11T08:15:25Z</time>
      </trkpt>
      <trkpt lat="43.73712" lon="1.1774">
        <ele>192.6</ele>
        <time>2024-07-11T08:15:26Z</time>
      </trkpt>
      <trkpt lat="43.73718" lon="1.17742">
        <ele>192.4</ele>
        <time>2024-07-11T08:15:27Z</time>
      </trkpt>
      <trkpt lat="43.73727" lon="1.17745">
        <ele>192.4</ele>
        <time>2024-07-11T08:15:28Z</time>
      </trkpt>
      <trkpt lat="43.73734" lon="1.17748">
        <ele>192.4</ele>
        <time>2024-07-11T08:15:29Z</time>
      </trkpt>
      <trkpt lat="43.73742" lon="1.17751">
        <ele>192.2</ele>
        <time>2024-07-11T08:15:30Z</time>
      </trkpt>
      <trkpt lat="43.73749" lon="1.17754">
        <ele>192.2</ele>
        <time>2024-07-11T08:15:31Z</time>
      </trkpt>
      <trkpt lat="43.73757" lon="1.17758">
        <ele>192.2</ele>
        <time>2024-07-11T08:15:32Z</time>
      </trkpt>
      <trkpt lat="43.73763" lon="1.17761">
        <ele>192.2</ele>
        <time>2024-07-11T08:15:33Z</time>
      </trkpt>
      <trkpt lat="43.73772" lon="1.17765">
        <ele>192.2</ele>
        <time>2024-07-11T08:15:34Z</time>
      </trkpt>
      <trkpt lat="43.73779" lon="1.1777">
        <ele>192.2</ele>
        <time>2024-07-11T08:15:35Z</time>
      </trkpt>
      <trkpt lat="43.73787" lon="1.17774">
        <ele>192.2</ele>
        <time>2024-07-11T08:15:36Z</time>
      </trkpt>
      <trkpt lat="43.73794" lon="1.17778">
        <ele>192.2</ele>
        <time>2024-07-11T08:15:37Z</time>
      </trkpt>
      <trkpt lat="43.73802" lon="1.17782">
        <ele>192.2</ele>
        <time>2024-07-11T08:15:38Z</time>
      </trkpt>
      <trkpt lat="43.73809" lon="1.17786">
        <ele>192</ele>
        <time>2024-07-11T08:15:39Z</time>
      </trkpt>
      <trkpt lat="43.73817" lon="1.17791">
        <ele>192</ele>
        <time>2024-07-11T08:15:40Z</time>
      </trkpt>
      <trkpt lat="43.73824" lon="1.17795">
        <ele>192</ele>
        <time>2024-07-11T08:15:41Z</time>
      </trkpt>
      <trkpt lat="43.73832" lon="1.17799">
        <ele>191.8</ele>
        <time>2024-07-11T08:15:42Z</time>
      </trkpt>
      <trkpt lat="43.73839" lon="1.17804">
        <ele>191.8</ele>
        <time>2024-07-11T08:15:43Z</time>
      </trkpt>
      <trkpt lat="43.73846" lon="1.17808">
        <ele>191.6</ele>
        <time>2024-07-11T08:15:44Z</time>
      </trkpt>
      <trkpt lat="43.73853" lon="1.17812">
        <ele>191.6</ele>
        <time>2024-07-11T08:15:45Z</time>
      </trkpt>
      <trkpt lat="43.73853" lon="1.17812">
        <ele>191.4</ele>
        <time>2024-07-11T08:15:46Z</time>
      </trkpt>
      <trkpt lat="43.73868" lon="1.17821">
        <ele>191.2</ele>
        <time>2024-07-11T08:15:47Z</time>
      </trkpt>
      <trkpt lat="43.73876" lon="1.17825">
        <ele>191.2</ele>
        <time>2024-07-11T08:15:48Z</time>
      </trkpt>
      <trkpt lat="43.73876" lon="1.17825">
        <ele>191.2</ele>
        <time>2024-07-11T08:15:49Z</time>
      </trkpt>
      <trkpt lat="43.7389" lon="1.17833">
        <ele>191.2</ele>
        <time>2024-07-11T08:15:50Z</time>
      </trkpt>
      <trkpt lat="43.73897" lon="1.17838">
        <ele>191</ele>
        <time>2024-07-11T08:15:51Z</time>
      </trkpt>
      <trkpt lat="43.73905" lon="1.17842">
        <ele>191</ele>
        <time>2024-07-11T08:15:52Z</time>
      </trkpt>
      <trkpt lat="43.73912" lon="1.17846">
        <ele>191</ele>
        <time>2024-07-11T08:15:53Z</time>
      </trkpt>
      <trkpt lat="43.7392" lon="1.1785">
        <ele>191</ele>
        <time>2024-07-11T08:15:54Z</time>
      </trkpt>
      <trkpt lat="43.73927" lon="1.17854">
        <ele>191</ele>
        <time>2024-07-11T08:15:55Z</time>
      </trkpt>
      <trkpt lat="43.73935" lon="1.17858">
        <ele>190.8</ele>
        <time>2024-07-11T08:15:56Z</time>
      </trkpt>
      <trkpt lat="43.73942" lon="1.17862">
        <ele>190.6</ele>
        <time>2024-07-11T08:15:57Z</time>
      </trkpt>
      <trkpt lat="43.7395" lon="1.17867">
        <ele>190.6</ele>
        <time>2024-07-11T08:15:58Z</time>
      </trkpt>
      <trkpt lat="43.73957" lon="1.17871">
        <ele>190.6</ele>
        <time>2024-07-11T08:15:59Z</time>
      </trkpt>
      <trkpt lat="43.73965" lon="1.17875">
        <ele>190.4</ele>
        <time>2024-07-11T08:16:00Z</time>
      </trkpt>
      <trkpt lat="43.73972" lon="1.17879">
        <ele>190.4</ele>
        <time>2024-07-11T08:16:01Z</time>
      </trkpt>
      <trkpt lat="43.7398" lon="1.17883">
        <ele>190.4</ele>
        <time>2024-07-11T08:16:02Z</time>
      </trkpt>
      <trkpt lat="43.73987" lon="1.17887">
        <ele>190.2</ele>
        <time>2024-07-11T08:16:03Z</time>
      </trkpt>
      <trkpt lat="43.73995" lon="1.17891">
        <ele>190.2</ele>
        <time>2024-07-11T08:16:04Z</time>
      </trkpt>
      <trkpt lat="43.74001" lon="1.17895">
        <ele>190.2</ele>
        <time>2024-07-11T08:16:05Z</time>
      </trkpt>
      <trkpt lat="43.74008" lon="1.17899">
        <ele>190.2</ele>
        <time>2024-07-11T08:16:06Z</time>
      </trkpt>
      <trkpt lat="43.74016" lon="1.17903">
        <ele>190.2</ele>
        <time>2024-07-11T08:16:07Z</time>
      </trkpt>
      <trkpt lat="43.74023" lon="1.17907">
        <ele>190.2</ele>
        <time>2024-07-11T08:16:08Z</time>
      </trkpt>
      <trkpt lat="43.74031" lon="1.17911">
        <ele>190.2</ele>
        <time>2024-07-11T08:16:09Z</time>
      </trkpt>
      <trkpt lat="43.74038" lon="1.17916">
        <ele>190.2</ele>
        <time>2024-07-11T08:16:10Z</time>
      </trkpt>
      <trkpt lat="43.74046" lon="1.1792">
        <ele>190.2</ele>
        <time>2024-07-11T08:16:11Z</time>
      </trkpt>
      <trkpt lat="43.74053" lon="1.17924">
        <ele>190.2</ele>
        <time>2024-07-11T08:16:12Z</time>
      </trkpt>
      <trkpt lat="43.74061" lon="1.17929">
        <ele>190</ele>
        <time>2024-07-11T08:16:13Z</time>
      </trkpt>
      <trkpt lat="43.74068" lon="1.17933">
        <ele>190</ele>
        <time>2024-07-11T08:16:14Z</time>
      </trkpt>
      <trkpt lat="43.74076" lon="1.17936">
        <ele>190</ele>
        <time>2024-07-11T08:16:15Z</time>
      </trkpt>
      <trkpt lat="43.74083" lon="1.1794">
        <ele>190</ele>
        <time>2024-07-11T08:16:16Z</time>
      </trkpt>
      <trkpt lat="43.74091" lon="1.17944">
        <ele>189.8</ele>
        <time>2024-07-11T08:16:17Z</time>
      </trkpt>
      <trkpt lat="43.74098" lon="1.17949">
        <ele>189.6</ele>
        <time>2024-07-11T08:16:18Z</time>
      </trkpt>
      <trkpt lat="43.74105" lon="1.17953">
        <ele>189.4</ele>
        <time>2024-07-11T08:16:19Z</time>
      </trkpt>
      <trkpt lat="43.74112" lon="1.17957">
        <ele>189.4</ele>
        <time>2024-07-11T08:16:20Z</time>
      </trkpt>
      <trkpt lat="43.74118" lon="1.1796">
        <ele>189.4</ele>
        <time>2024-07-11T08:16:21Z</time>
      </trkpt>
      <trkpt lat="43.74124" lon="1.17964">
        <ele>189.2</ele>
        <time>2024-07-11T08:16:22Z</time>
      </trkpt>
      <trkpt lat="43.74131" lon="1.17968">
        <ele>189.2</ele>
        <time>2024-07-11T08:16:23Z</time>
      </trkpt>
      <trkpt lat="43.74137" lon="1.17972">
        <ele>189.2</ele>
        <time>2024-07-11T08:16:24Z</time>
      </trkpt>
      <trkpt lat="43.74144" lon="1.17976">
        <ele>189.2</ele>
        <time>2024-07-11T08:16:25Z</time>
      </trkpt>
      <trkpt lat="43.74151" lon="1.1798">
        <ele>189.2</ele>
        <time>2024-07-11T08:16:26Z</time>
      </trkpt>
      <trkpt lat="43.74158" lon="1.17983">
        <ele>189.2</ele>
        <time>2024-07-11T08:16:27Z</time>
      </trkpt>
      <trkpt lat="43.74165" lon="1.17987">
        <ele>189.2</ele>
        <time>2024-07-11T08:16:28Z</time>
      </trkpt>
      <trkpt lat="43.74172" lon="1.17991">
        <ele>189.2</ele>
        <time>2024-07-11T08:16:29Z</time>
      </trkpt>
      <trkpt lat="43.74179" lon="1.17995">
        <ele>189.2</ele>
        <time>2024-07-11T08:16:30Z</time>
      </trkpt>
      <trkpt lat="43.74186" lon="1.17999">
        <ele>189.2</ele>
        <time>2024-07-11T08:16:31Z</time>
      </trkpt>
      <trkpt lat="43.74192" lon="1.18003">
        <ele>189</ele>
        <time>2024-07-11T08:16:32Z</time>
      </trkpt>
      <trkpt lat="43.74199" lon="1.18006">
        <ele>189</ele>
        <time>2024-07-11T08:16:33Z</time>
      </trkpt>
      <trkpt lat="43.74206" lon="1.1801">
        <ele>189</ele>
        <time>2024-07-11T08:16:34Z</time>
      </trkpt>
      <trkpt lat="43.74213" lon="1.18014">
        <ele>189</ele>
        <time>2024-07-11T08:16:35Z</time>
      </trkpt>
      <trkpt lat="43.74219" lon="1.18017">
        <ele>188.8</ele>
        <time>2024-07-11T08:16:36Z</time>
      </trkpt>
      <trkpt lat="43.74225" lon="1.1802">
        <ele>188.6</ele>
        <time>2024-07-11T08:16:37Z</time>
      </trkpt>
      <trkpt lat="43.74232" lon="1.18024">
        <ele>188.6</ele>
        <time>2024-07-11T08:16:38Z</time>
      </trkpt>
      <trkpt lat="43.74237" lon="1.18027">
        <ele>188.4</ele>
        <time>2024-07-11T08:16:39Z</time>
      </trkpt>
      <trkpt lat="43.74243" lon="1.1803">
        <ele>188.4</ele>
        <time>2024-07-11T08:16:40Z</time>
      </trkpt>
      <trkpt lat="43.74248" lon="1.18033">
        <ele>188.4</ele>
        <time>2024-07-11T08:16:41Z</time>
      </trkpt>
      <trkpt lat="43.74253" lon="1.18035">
        <ele>188.4</ele>
        <time>2024-07-11T08:16:42Z</time>
      </trkpt>
      <trkpt lat="43.74259" lon="1.18037">
        <ele>188.4</ele>
        <time>2024-07-11T08:16:43Z</time>
      </trkpt>
      <trkpt lat="43.74265" lon="1.18039">
        <ele>188.4</ele>
        <time>2024-07-11T08:16:44Z</time>
      </trkpt>
      <trkpt lat="43.74269" lon="1.1804">
        <ele>188.4</ele>
        <time>2024-07-11T08:16:45Z</time>
      </trkpt>
      <trkpt lat="43.74273" lon="1.1804">
        <ele>188.4</ele>
        <time>2024-07-11T08:16:46Z</time>
      </trkpt>
      <trkpt lat="43.74276" lon="1.18041">
        <ele>188.4</ele>
        <time>2024-07-11T08:16:47Z</time>
      </trkpt>
      <trkpt lat="43.7428" lon="1.18041">
        <ele>188.4</ele>
        <time>2024-07-11T08:16:48Z</time>
      </trkpt>
      <trkpt lat="43.74284" lon="1.18041">
        <ele>188.4</ele>
        <time>2024-07-11T08:16:49Z</time>
      </trkpt>
      <trkpt lat="43.74284" lon="1.18041">
        <ele>188.4</ele>
        <time>2024-07-11T08:16:50Z</time>
      </trkpt>
      <trkpt lat="43.74292" lon="1.18042">
        <ele>188.4</ele>
        <time>2024-07-11T08:16:51Z</time>
      </trkpt>
      <trkpt lat="43.74297" lon="1.18043">
        <ele>188.6</ele>
        <time>2024-07-11T08:16:52Z</time>
      </trkpt>
      <trkpt lat="43.74297" lon="1.18043">
        <ele>188.8</ele>
        <time>2024-07-11T08:16:53Z</time>
      </trkpt>
      <trkpt lat="43.74306" lon="1.18045">
        <ele>189</ele>
        <time>2024-07-11T08:16:54Z</time>
      </trkpt>
      <trkpt lat="43.7431" lon="1.18045">
        <ele>189</ele>
        <time>2024-07-11T08:16:55Z</time>
      </trkpt>
      <trkpt lat="43.74315" lon="1.18045">
        <ele>189</ele>
        <time>2024-07-11T08:16:56Z</time>
      </trkpt>
      <trkpt lat="43.74319" lon="1.18045">
        <ele>189.2</ele>
        <time>2024-07-11T08:16:57Z</time>
      </trkpt>
      <trkpt lat="43.74323" lon="1.18046">
        <ele>189.2</ele>
        <time>2024-07-11T08:16:58Z</time>
      </trkpt>
      <trkpt lat="43.74326" lon="1.18047">
        <ele>189.2</ele>
        <time>2024-07-11T08:16:59Z</time>
      </trkpt>
      <trkpt lat="43.74328" lon="1.18051">
        <ele>189.2</ele>
        <time>2024-07-11T08:17:00Z</time>
      </trkpt>
      <trkpt lat="43.74328" lon="1.18055">
        <ele>189.2</ele>
        <time>2024-07-11T08:17:01Z</time>
      </trkpt>
      <trkpt lat="43.74329" lon="1.18061">
        <ele>189.2</ele>
        <time>2024-07-11T08:17:02Z</time>
      </trkpt>
      <trkpt lat="43.74329" lon="1.18067">
        <ele>189</ele>
        <time>2024-07-11T08:17:03Z</time>
      </trkpt>
      <trkpt lat="43.7433" lon="1.18073">
        <ele>189</ele>
        <time>2024-07-11T08:17:04Z</time>
      </trkpt>
      <trkpt lat="43.7433" lon="1.18079">
        <ele>188.8</ele>
        <time>2024-07-11T08:17:05Z</time>
      </trkpt>
      <trkpt lat="43.74331" lon="1.18085">
        <ele>188.4</ele>
        <time>2024-07-11T08:17:06Z</time>
      </trkpt>
      <trkpt lat="43.74332" lon="1.1809">
        <ele>188.2</ele>
        <time>2024-07-11T08:17:07Z</time>
      </trkpt>
      <trkpt lat="43.74332" lon="1.18095">
        <ele>188</ele>
        <time>2024-07-11T08:17:08Z</time>
      </trkpt>
      <trkpt lat="43.74332" lon="1.18101">
        <ele>188</ele>
        <time>2024-07-11T08:17:09Z</time>
      </trkpt>
      <trkpt lat="43.74334" lon="1.18107">
        <ele>187.8</ele>
        <time>2024-07-11T08:17:10Z</time>
      </trkpt>
      <trkpt lat="43.74337" lon="1.18112">
        <ele>187.6</ele>
        <time>2024-07-11T08:17:11Z</time>
      </trkpt>
      <trkpt lat="43.74341" lon="1.18115">
        <ele>187.6</ele>
        <time>2024-07-11T08:17:12Z</time>
      </trkpt>
      <trkpt lat="43.74346" lon="1.18118">
        <ele>187.6</ele>
        <time>2024-07-11T08:17:13Z</time>
      </trkpt>
      <trkpt lat="43.74352" lon="1.18121">
        <ele>187.6</ele>
        <time>2024-07-11T08:17:14Z</time>
      </trkpt>
      <trkpt lat="43.74358" lon="1.18125">
        <ele>187.4</ele>
        <time>2024-07-11T08:17:15Z</time>
      </trkpt>
      <trkpt lat="43.74365" lon="1.18129">
        <ele>187.2</ele>
        <time>2024-07-11T08:17:16Z</time>
      </trkpt>
      <trkpt lat="43.74372" lon="1.1813">
        <ele>187</ele>
        <time>2024-07-11T08:17:17Z</time>
      </trkpt>
      <trkpt lat="43.7438" lon="1.18131">
        <ele>186.8</ele>
        <time>2024-07-11T08:17:18Z</time>
      </trkpt>
      <trkpt lat="43.74387" lon="1.1813">
        <ele>186.6</ele>
        <time>2024-07-11T08:17:19Z</time>
      </trkpt>
      <trkpt lat="43.74396" lon="1.18129">
        <ele>186.6</ele>
        <time>2024-07-11T08:17:20Z</time>
      </trkpt>
      <trkpt lat="43.74404" lon="1.18129">
        <ele>186.4</ele>
        <time>2024-07-11T08:17:21Z</time>
      </trkpt>
      <trkpt lat="43.74413" lon="1.18128">
        <ele>185.8</ele>
        <time>2024-07-11T08:17:22Z</time>
      </trkpt>
      <trkpt lat="43.74423" lon="1.18128">
        <ele>185.2</ele>
        <time>2024-07-11T08:17:23Z</time>
      </trkpt>
      <trkpt lat="43.74432" lon="1.18127">
        <ele>184.6</ele>
        <time>2024-07-11T08:17:24Z</time>
      </trkpt>
      <trkpt lat="43.74441" lon="1.18126">
        <ele>184</ele>
        <time>2024-07-11T08:17:25Z</time>
      </trkpt>
      <trkpt lat="43.7445" lon="1.18125">
        <ele>183.8</ele>
        <time>2024-07-11T08:17:26Z</time>
      </trkpt>
      <trkpt lat="43.7446" lon="1.18125">
        <ele>183.2</ele>
        <time>2024-07-11T08:17:27Z</time>
      </trkpt>
      <trkpt lat="43.74471" lon="1.18124">
        <ele>183</ele>
        <time>2024-07-11T08:17:28Z</time>
      </trkpt>
      <trkpt lat="43.74482" lon="1.18123">
        <ele>182.4</ele>
        <time>2024-07-11T08:17:29Z</time>
      </trkpt>
      <trkpt lat="43.74492" lon="1.18122">
        <ele>182.2</ele>
        <time>2024-07-11T08:17:30Z</time>
      </trkpt>
      <trkpt lat="43.74503" lon="1.18121">
        <ele>181.8</ele>
        <time>2024-07-11T08:17:31Z</time>
      </trkpt>
      <trkpt lat="43.74513" lon="1.1812">
        <ele>180.8</ele>
        <time>2024-07-11T08:17:32Z</time>
      </trkpt>
      <trkpt lat="43.74523" lon="1.18119">
        <ele>180.4</ele>
        <time>2024-07-11T08:17:33Z</time>
      </trkpt>
      <trkpt lat="43.74533" lon="1.18118">
        <ele>179.8</ele>
        <time>2024-07-11T08:17:34Z</time>
      </trkpt>
      <trkpt lat="43.74544" lon="1.18118">
        <ele>179.4</ele>
        <time>2024-07-11T08:17:35Z</time>
      </trkpt>
      <trkpt lat="43.74554" lon="1.18117">
        <ele>179</ele>
        <time>2024-07-11T08:17:36Z</time>
      </trkpt>
      <trkpt lat="43.74563" lon="1.18116">
        <ele>178.6</ele>
        <time>2024-07-11T08:17:37Z</time>
      </trkpt>
      <trkpt lat="43.74572" lon="1.18115">
        <ele>178.6</ele>
        <time>2024-07-11T08:17:38Z</time>
      </trkpt>
      <trkpt lat="43.74581" lon="1.18115">
        <ele>178.4</ele>
        <time>2024-07-11T08:17:39Z</time>
      </trkpt>
      <trkpt lat="43.74589" lon="1.18114">
        <ele>178.4</ele>
        <time>2024-07-11T08:17:40Z</time>
      </trkpt>
      <trkpt lat="43.74597" lon="1.18114">
        <ele>178.4</ele>
        <time>2024-07-11T08:17:41Z</time>
      </trkpt>
      <trkpt lat="43.74605" lon="1.18114">
        <ele>178.6</ele>
        <time>2024-07-11T08:17:42Z</time>
      </trkpt>
      <trkpt lat="43.74612" lon="1.18113">
        <ele>178.6</ele>
        <time>2024-07-11T08:17:43Z</time>
      </trkpt>
      <trkpt lat="43.74619" lon="1.18112">
        <ele>179</ele>
        <time>2024-07-11T08:17:44Z</time>
      </trkpt>
      <trkpt lat="43.74624" lon="1.18109">
        <ele>179.2</ele>
        <time>2024-07-11T08:17:45Z</time>
      </trkpt>
      <trkpt lat="43.74624" lon="1.18109">
        <ele>179.4</ele>
        <time>2024-07-11T08:17:46Z</time>
      </trkpt>
      <trkpt lat="43.74632" lon="1.18098">
        <ele>179.6</ele>
        <time>2024-07-11T08:17:47Z</time>
      </trkpt>
      <trkpt lat="43.74634" lon="1.18091">
        <ele>180.2</ele>
        <time>2024-07-11T08:17:48Z</time>
      </trkpt>
      <trkpt lat="43.74636" lon="1.18084">
        <ele>180.8</ele>
        <time>2024-07-11T08:17:49Z</time>
      </trkpt>
      <trkpt lat="43.74637" lon="1.18078">
        <ele>181</ele>
        <time>2024-07-11T08:17:50Z</time>
      </trkpt>
      <trkpt lat="43.74639" lon="1.18069">
        <ele>181.8</ele>
        <time>2024-07-11T08:17:51Z</time>
      </trkpt>
      <trkpt lat="43.7464" lon="1.18061">
        <ele>182.2</ele>
        <time>2024-07-11T08:17:52Z</time>
      </trkpt>
      <trkpt lat="43.74641" lon="1.18053">
        <ele>182.6</ele>
        <time>2024-07-11T08:17:53Z</time>
      </trkpt>
      <trkpt lat="43.74642" lon="1.18045">
        <ele>182.8</ele>
        <time>2024-07-11T08:17:54Z</time>
      </trkpt>
      <trkpt lat="43.74642" lon="1.18037">
        <ele>183.2</ele>
        <time>2024-07-11T08:17:55Z</time>
      </trkpt>
      <trkpt lat="43.74643" lon="1.18029">
        <ele>183.6</ele>
        <time>2024-07-11T08:17:56Z</time>
      </trkpt>
      <trkpt lat="43.74644" lon="1.18021">
        <ele>183.8</ele>
        <time>2024-07-11T08:17:57Z</time>
      </trkpt>
      <trkpt lat="43.74645" lon="1.18014">
        <ele>184.2</ele>
        <time>2024-07-11T08:17:58Z</time>
      </trkpt>
      <trkpt lat="43.74646" lon="1.18006">
        <ele>184.6</ele>
        <time>2024-07-11T08:17:59Z</time>
      </trkpt>
      <trkpt lat="43.74648" lon="1.17998">
        <ele>185.2</ele>
        <time>2024-07-11T08:18:00Z</time>
      </trkpt>
      <trkpt lat="43.74649" lon="1.1799">
        <ele>185.6</ele>
        <time>2024-07-11T08:18:01Z</time>
      </trkpt>
      <trkpt lat="43.7465" lon="1.17983">
        <ele>185.8</ele>
        <time>2024-07-11T08:18:02Z</time>
      </trkpt>
      <trkpt lat="43.74651" lon="1.17975">
        <ele>186</ele>
        <time>2024-07-11T08:18:03Z</time>
      </trkpt>
      <trkpt lat="43.74652" lon="1.17967">
        <ele>186</ele>
        <time>2024-07-11T08:18:04Z</time>
      </trkpt>
      <trkpt lat="43.74652" lon="1.17967">
        <ele>186.2</ele>
        <time>2024-07-11T08:18:05Z</time>
      </trkpt>
      <trkpt lat="43.74653" lon="1.17951">
        <ele>186.4</ele>
        <time>2024-07-11T08:18:06Z</time>
      </trkpt>
      <trkpt lat="43.74654" lon="1.17943">
        <ele>186.6</ele>
        <time>2024-07-11T08:18:07Z</time>
      </trkpt>
      <trkpt lat="43.74655" lon="1.17935">
        <ele>186.8</ele>
        <time>2024-07-11T08:18:08Z</time>
      </trkpt>
      <trkpt lat="43.74657" lon="1.17927">
        <ele>187</ele>
        <time>2024-07-11T08:18:09Z</time>
      </trkpt>
      <trkpt lat="43.74658" lon="1.17919">
        <ele>187.2</ele>
        <time>2024-07-11T08:18:10Z</time>
      </trkpt>
      <trkpt lat="43.74659" lon="1.1791">
        <ele>187.2</ele>
        <time>2024-07-11T08:18:11Z</time>
      </trkpt>
      <trkpt lat="43.74659" lon="1.17901">
        <ele>187.6</ele>
        <time>2024-07-11T08:18:12Z</time>
      </trkpt>
      <trkpt lat="43.74659" lon="1.17892">
        <ele>187.6</ele>
        <time>2024-07-11T08:18:13Z</time>
      </trkpt>
      <trkpt lat="43.74659" lon="1.17883">
        <ele>187.8</ele>
        <time>2024-07-11T08:18:14Z</time>
      </trkpt>
      <trkpt lat="43.74659" lon="1.17874">
        <ele>187.8</ele>
        <time>2024-07-11T08:18:15Z</time>
      </trkpt>
      <trkpt lat="43.74659" lon="1.17864">
        <ele>187.8</ele>
        <time>2024-07-11T08:18:16Z</time>
      </trkpt>
      <trkpt lat="43.74658" lon="1.17855">
        <ele>188</ele>
        <time>2024-07-11T08:18:17Z</time>
      </trkpt>
      <trkpt lat="43.74657" lon="1.17846">
        <ele>188</ele>
        <time>2024-07-11T08:18:18Z</time>
      </trkpt>
      <trkpt lat="43.74657" lon="1.17846">
        <ele>188</ele>
        <time>2024-07-11T08:18:19Z</time>
      </trkpt>
      <trkpt lat="43.74655" lon="1.17826">
        <ele>188.2</ele>
        <time>2024-07-11T08:18:20Z</time>
      </trkpt>
      <trkpt lat="43.74653" lon="1.17817">
        <ele>188.4</ele>
        <time>2024-07-11T08:18:21Z</time>
      </trkpt>
      <trkpt lat="43.74651" lon="1.17808">
        <ele>188.4</ele>
        <time>2024-07-11T08:18:22Z</time>
      </trkpt>
      <trkpt lat="43.74649" lon="1.17798">
        <ele>188.4</ele>
        <time>2024-07-11T08:18:23Z</time>
      </trkpt>
      <trkpt lat="43.74647" lon="1.17788">
        <ele>188.4</ele>
        <time>2024-07-11T08:18:24Z</time>
      </trkpt>
      <trkpt lat="43.74646" lon="1.17778">
        <ele>188.4</ele>
        <time>2024-07-11T08:18:25Z</time>
      </trkpt>
      <trkpt lat="43.74644" lon="1.17768">
        <ele>188.4</ele>
        <time>2024-07-11T08:18:26Z</time>
      </trkpt>
      <trkpt lat="43.74643" lon="1.17758">
        <ele>188.4</ele>
        <time>2024-07-11T08:18:27Z</time>
      </trkpt>
      <trkpt lat="43.74641" lon="1.17747">
        <ele>188.4</ele>
        <time>2024-07-11T08:18:28Z</time>
      </trkpt>
      <trkpt lat="43.74641" lon="1.17736">
        <ele>188.2</ele>
        <time>2024-07-11T08:18:29Z</time>
      </trkpt>
      <trkpt lat="43.7464" lon="1.17725">
        <ele>188.2</ele>
        <time>2024-07-11T08:18:30Z</time>
      </trkpt>
      <trkpt lat="43.74639" lon="1.17714">
        <ele>188</ele>
        <time>2024-07-11T08:18:31Z</time>
      </trkpt>
      <trkpt lat="43.74639" lon="1.17703">
        <ele>188</ele>
        <time>2024-07-11T08:18:32Z</time>
      </trkpt>
      <trkpt lat="43.74639" lon="1.17703">
        <ele>188</ele>
        <time>2024-07-11T08:18:33Z</time>
      </trkpt>
      <trkpt lat="43.74638" lon="1.17681">
        <ele>188</ele>
        <time>2024-07-11T08:18:34Z</time>
      </trkpt>
      <trkpt lat="43.74639" lon="1.1767">
        <ele>188</ele>
        <time>2024-07-11T08:18:35Z</time>
      </trkpt>
      <trkpt lat="43.74639" lon="1.17658">
        <ele>187.8</ele>
        <time>2024-07-11T08:18:36Z</time>
      </trkpt>
      <trkpt lat="43.7464" lon="1.17649">
        <ele>187.8</ele>
        <time>2024-07-11T08:18:37Z</time>
      </trkpt>
      <trkpt lat="43.74643" lon="1.17637">
        <ele>187.8</ele>
        <time>2024-07-11T08:18:38Z</time>
      </trkpt>
      <trkpt lat="43.74647" lon="1.17627">
        <ele>187.8</ele>
        <time>2024-07-11T08:18:39Z</time>
      </trkpt>
      <trkpt lat="43.74652" lon="1.17617">
        <ele>187.8</ele>
        <time>2024-07-11T08:18:40Z</time>
      </trkpt>
      <trkpt lat="43.74657" lon="1.17608">
        <ele>187.6</ele>
        <time>2024-07-11T08:18:41Z</time>
      </trkpt>
      <trkpt lat="43.74661" lon="1.17601">
        <ele>187.6</ele>
        <time>2024-07-11T08:18:42Z</time>
      </trkpt>
      <trkpt lat="43.74666" lon="1.17589">
        <ele>187.6</ele>
        <time>2024-07-11T08:18:43Z</time>
      </trkpt>
      <trkpt lat="43.74668" lon="1.17578">
        <ele>187.6</ele>
        <time>2024-07-11T08:18:44Z</time>
      </trkpt>
      <trkpt lat="43.7467" lon="1.17566">
        <ele>187.6</ele>
        <time>2024-07-11T08:18:45Z</time>
      </trkpt>
      <trkpt lat="43.74669" lon="1.17555">
        <ele>187.4</ele>
        <time>2024-07-11T08:18:46Z</time>
      </trkpt>
      <trkpt lat="43.74669" lon="1.17543">
        <ele>187.4</ele>
        <time>2024-07-11T08:18:47Z</time>
      </trkpt>
      <trkpt lat="43.74668" lon="1.17532">
        <ele>187.2</ele>
        <time>2024-07-11T08:18:48Z</time>
      </trkpt>
      <trkpt lat="43.74667" lon="1.17521">
        <ele>187.2</ele>
        <time>2024-07-11T08:18:49Z</time>
      </trkpt>
      <trkpt lat="43.74665" lon="1.17509">
        <ele>187.2</ele>
        <time>2024-07-11T08:18:50Z</time>
      </trkpt>
      <trkpt lat="43.74664" lon="1.17498">
        <ele>187.2</ele>
        <time>2024-07-11T08:18:51Z</time>
      </trkpt>
      <trkpt lat="43.74664" lon="1.17487">
        <ele>187.2</ele>
        <time>2024-07-11T08:18:52Z</time>
      </trkpt>
      <trkpt lat="43.74666" lon="1.17476">
        <ele>187.2</ele>
        <time>2024-07-11T08:18:53Z</time>
      </trkpt>
      <trkpt lat="43.74669" lon="1.17466">
        <ele>187.2</ele>
        <time>2024-07-11T08:18:54Z</time>
      </trkpt>
      <trkpt lat="43.74674" lon="1.17457">
        <ele>187.4</ele>
        <time>2024-07-11T08:18:55Z</time>
      </trkpt>
      <trkpt lat="43.7468" lon="1.1745">
        <ele>187.4</ele>
        <time>2024-07-11T08:18:56Z</time>
      </trkpt>
      <trkpt lat="43.74688" lon="1.17445">
        <ele>187.4</ele>
        <time>2024-07-11T08:18:57Z</time>
      </trkpt>
      <trkpt lat="43.74696" lon="1.17442">
        <ele>187.4</ele>
        <time>2024-07-11T08:18:58Z</time>
      </trkpt>
      <trkpt lat="43.74703" lon="1.17439">
        <ele>187.6</ele>
        <time>2024-07-11T08:18:59Z</time>
      </trkpt>
      <trkpt lat="43.74712" lon="1.17436">
        <ele>187.6</ele>
        <time>2024-07-11T08:19:00Z</time>
      </trkpt>
      <trkpt lat="43.74712" lon="1.17436">
        <ele>187.6</ele>
        <time>2024-07-11T08:19:01Z</time>
      </trkpt>
      <trkpt lat="43.74728" lon="1.1743">
        <ele>187.6</ele>
        <time>2024-07-11T08:19:02Z</time>
      </trkpt>
      <trkpt lat="43.74736" lon="1.17428">
        <ele>187.6</ele>
        <time>2024-07-11T08:19:03Z</time>
      </trkpt>
      <trkpt lat="43.74736" lon="1.17428">
        <ele>187.6</ele>
        <time>2024-07-11T08:19:04Z</time>
      </trkpt>
      <trkpt lat="43.74751" lon="1.17423">
        <ele>187.8</ele>
        <time>2024-07-11T08:19:05Z</time>
      </trkpt>
      <trkpt lat="43.74759" lon="1.1742">
        <ele>187.8</ele>
        <time>2024-07-11T08:19:06Z</time>
      </trkpt>
      <trkpt lat="43.74766" lon="1.17418">
        <ele>188</ele>
        <time>2024-07-11T08:19:07Z</time>
      </trkpt>
      <trkpt lat="43.74773" lon="1.17415">
        <ele>188</ele>
        <time>2024-07-11T08:19:08Z</time>
      </trkpt>
      <trkpt lat="43.74781" lon="1.17412">
        <ele>188.2</ele>
        <time>2024-07-11T08:19:09Z</time>
      </trkpt>
      <trkpt lat="43.74788" lon="1.17409">
        <ele>188.2</ele>
        <time>2024-07-11T08:19:10Z</time>
      </trkpt>
      <trkpt lat="43.74795" lon="1.17405">
        <ele>188.2</ele>
        <time>2024-07-11T08:19:11Z</time>
      </trkpt>
      <trkpt lat="43.74802" lon="1.174">
        <ele>188.4</ele>
        <time>2024-07-11T08:19:12Z</time>
      </trkpt>
      <trkpt lat="43.74808" lon="1.17394">
        <ele>188.6</ele>
        <time>2024-07-11T08:19:13Z</time>
      </trkpt>
      <trkpt lat="43.74815" lon="1.17387">
        <ele>188.6</ele>
        <time>2024-07-11T08:19:14Z</time>
      </trkpt>
      <trkpt lat="43.7482" lon="1.17379">
        <ele>188.8</ele>
        <time>2024-07-11T08:19:15Z</time>
      </trkpt>
      <trkpt lat="43.74826" lon="1.17371">
        <ele>188.8</ele>
        <time>2024-07-11T08:19:16Z</time>
      </trkpt>
      <trkpt lat="43.74831" lon="1.17363">
        <ele>188.8</ele>
        <time>2024-07-11T08:19:17Z</time>
      </trkpt>
      <trkpt lat="43.74831" lon="1.17363">
        <ele>188.8</ele>
        <time>2024-07-11T08:19:18Z</time>
      </trkpt>
      <trkpt lat="43.74841" lon="1.17347">
        <ele>189</ele>
        <time>2024-07-11T08:19:19Z</time>
      </trkpt>
      <trkpt lat="43.74847" lon="1.17339">
        <ele>189</ele>
        <time>2024-07-11T08:19:20Z</time>
      </trkpt>
      <trkpt lat="43.74847" lon="1.17339">
        <ele>189</ele>
        <time>2024-07-11T08:19:21Z</time>
      </trkpt>
      <trkpt lat="43.74858" lon="1.17322">
        <ele>189.2</ele>
        <time>2024-07-11T08:19:22Z</time>
      </trkpt>
      <trkpt lat="43.74863" lon="1.17315">
        <ele>189.2</ele>
        <time>2024-07-11T08:19:23Z</time>
      </trkpt>
      <trkpt lat="43.74869" lon="1.17307">
        <ele>189.2</ele>
        <time>2024-07-11T08:19:24Z</time>
      </trkpt>
      <trkpt lat="43.74876" lon="1.173">
        <ele>189.2</ele>
        <time>2024-07-11T08:19:25Z</time>
      </trkpt>
      <trkpt lat="43.74882" lon="1.17294">
        <ele>189.4</ele>
        <time>2024-07-11T08:19:26Z</time>
      </trkpt>
      <trkpt lat="43.74889" lon="1.17288">
        <ele>189.4</ele>
        <time>2024-07-11T08:19:27Z</time>
      </trkpt>
      <trkpt lat="43.74896" lon="1.17282">
        <ele>189.4</ele>
        <time>2024-07-11T08:19:28Z</time>
      </trkpt>
      <trkpt lat="43.74903" lon="1.17277">
        <ele>189.4</ele>
        <time>2024-07-11T08:19:29Z</time>
      </trkpt>
      <trkpt lat="43.7491" lon="1.17271">
        <ele>189.4</ele>
        <time>2024-07-11T08:19:30Z</time>
      </trkpt>
      <trkpt lat="43.74918" lon="1.17266">
        <ele>189.6</ele>
        <time>2024-07-11T08:19:31Z</time>
      </trkpt>
      <trkpt lat="43.74925" lon="1.17261">
        <ele>189.6</ele>
        <time>2024-07-11T08:19:32Z</time>
      </trkpt>
      <trkpt lat="43.74932" lon="1.17256">
        <ele>189.8</ele>
        <time>2024-07-11T08:19:33Z</time>
      </trkpt>
      <trkpt lat="43.74939" lon="1.1725">
        <ele>189.8</ele>
        <time>2024-07-11T08:19:34Z</time>
      </trkpt>
      <trkpt lat="43.74946" lon="1.17245">
        <ele>189.8</ele>
        <time>2024-07-11T08:19:35Z</time>
      </trkpt>
      <trkpt lat="43.74953" lon="1.1724">
        <ele>189.8</ele>
        <time>2024-07-11T08:19:36Z</time>
      </trkpt>
      <trkpt lat="43.74961" lon="1.17235">
        <ele>189.8</ele>
        <time>2024-07-11T08:19:37Z</time>
      </trkpt>
      <trkpt lat="43.74968" lon="1.17229">
        <ele>189.8</ele>
        <time>2024-07-11T08:19:38Z</time>
      </trkpt>
      <trkpt lat="43.74975" lon="1.17223">
        <ele>189.8</ele>
        <time>2024-07-11T08:19:39Z</time>
      </trkpt>
      <trkpt lat="43.74983" lon="1.17218">
        <ele>189.6</ele>
        <time>2024-07-11T08:19:40Z</time>
      </trkpt>
      <trkpt lat="43.74989" lon="1.17213">
        <ele>189.6</ele>
        <time>2024-07-11T08:19:41Z</time>
      </trkpt>
      <trkpt lat="43.74998" lon="1.17207">
        <ele>189.6</ele>
        <time>2024-07-11T08:19:42Z</time>
      </trkpt>
      <trkpt lat="43.75006" lon="1.17201">
        <ele>189.6</ele>
        <time>2024-07-11T08:19:43Z</time>
      </trkpt>
      <trkpt lat="43.75013" lon="1.17196">
        <ele>189.6</ele>
        <time>2024-07-11T08:19:44Z</time>
      </trkpt>
      <trkpt lat="43.7502" lon="1.1719">
        <ele>189.4</ele>
        <time>2024-07-11T08:19:45Z</time>
      </trkpt>
      <trkpt lat="43.75028" lon="1.17184">
        <ele>189.4</ele>
        <time>2024-07-11T08:19:46Z</time>
      </trkpt>
      <trkpt lat="43.75036" lon="1.17179">
        <ele>189.4</ele>
        <time>2024-07-11T08:19:47Z</time>
      </trkpt>
      <trkpt lat="43.75043" lon="1.17173">
        <ele>189.4</ele>
        <time>2024-07-11T08:19:48Z</time>
      </trkpt>
      <trkpt lat="43.75051" lon="1.17167">
        <ele>189.2</ele>
        <time>2024-07-11T08:19:49Z</time>
      </trkpt>
      <trkpt lat="43.75058" lon="1.17161">
        <ele>189.2</ele>
        <time>2024-07-11T08:19:50Z</time>
      </trkpt>
      <trkpt lat="43.75065" lon="1.17155">
        <ele>189.2</ele>
        <time>2024-07-11T08:19:51Z</time>
      </trkpt>
      <trkpt lat="43.75071" lon="1.1715">
        <ele>189.2</ele>
        <time>2024-07-11T08:19:52Z</time>
      </trkpt>
      <trkpt lat="43.7508" lon="1.17144">
        <ele>189</ele>
        <time>2024-07-11T08:19:53Z</time>
      </trkpt>
      <trkpt lat="43.75087" lon="1.17138">
        <ele>189</ele>
        <time>2024-07-11T08:19:54Z</time>
      </trkpt>
      <trkpt lat="43.75094" lon="1.17132">
        <ele>189</ele>
        <time>2024-07-11T08:19:55Z</time>
      </trkpt>
      <trkpt lat="43.75101" lon="1.17125">
        <ele>189</ele>
        <time>2024-07-11T08:19:56Z</time>
      </trkpt>
      <trkpt lat="43.75108" lon="1.17119">
        <ele>189</ele>
        <time>2024-07-11T08:19:57Z</time>
      </trkpt>
      <trkpt lat="43.75115" lon="1.17113">
        <ele>188.8</ele>
        <time>2024-07-11T08:19:58Z</time>
      </trkpt>
      <trkpt lat="43.75123" lon="1.17108">
        <ele>188.8</ele>
        <time>2024-07-11T08:19:59Z</time>
      </trkpt>
      <trkpt lat="43.7513" lon="1.17102">
        <ele>188.8</ele>
        <time>2024-07-11T08:20:00Z</time>
      </trkpt>
      <trkpt lat="43.75138" lon="1.17095">
        <ele>188.6</ele>
        <time>2024-07-11T08:20:01Z</time>
      </trkpt>
      <trkpt lat="43.75145" lon="1.17089">
        <ele>188.6</ele>
        <time>2024-07-11T08:20:02Z</time>
      </trkpt>
      <trkpt lat="43.75153" lon="1.17083">
        <ele>188.4</ele>
        <time>2024-07-11T08:20:03Z</time>
      </trkpt>
      <trkpt lat="43.7516" lon="1.17076">
        <ele>188.4</ele>
        <time>2024-07-11T08:20:04Z</time>
      </trkpt>
      <trkpt lat="43.75168" lon="1.1707">
        <ele>188.4</ele>
        <time>2024-07-11T08:20:05Z</time>
      </trkpt>
      <trkpt lat="43.75175" lon="1.17065">
        <ele>188.4</ele>
        <time>2024-07-11T08:20:06Z</time>
      </trkpt>
      <trkpt lat="43.75182" lon="1.17059">
        <ele>188.2</ele>
        <time>2024-07-11T08:20:07Z</time>
      </trkpt>
      <trkpt lat="43.7519" lon="1.17053">
        <ele>188.2</ele>
        <time>2024-07-11T08:20:08Z</time>
      </trkpt>
      <trkpt lat="43.75198" lon="1.17047">
        <ele>188.2</ele>
        <time>2024-07-11T08:20:09Z</time>
      </trkpt>
      <trkpt lat="43.75206" lon="1.1704">
        <ele>188</ele>
        <time>2024-07-11T08:20:10Z</time>
      </trkpt>
      <trkpt lat="43.75214" lon="1.17035">
        <ele>188</ele>
        <time>2024-07-11T08:20:11Z</time>
      </trkpt>
      <trkpt lat="43.75222" lon="1.17029">
        <ele>187.8</ele>
        <time>2024-07-11T08:20:12Z</time>
      </trkpt>
      <trkpt lat="43.75231" lon="1.17023">
        <ele>187.8</ele>
        <time>2024-07-11T08:20:13Z</time>
      </trkpt>
      <trkpt lat="43.7524" lon="1.17018">
        <ele>187.6</ele>
        <time>2024-07-11T08:20:14Z</time>
      </trkpt>
      <trkpt lat="43.75248" lon="1.17015">
        <ele>187.6</ele>
        <time>2024-07-11T08:20:15Z</time>
      </trkpt>
      <trkpt lat="43.75258" lon="1.17012">
        <ele>187.4</ele>
        <time>2024-07-11T08:20:16Z</time>
      </trkpt>
      <trkpt lat="43.75267" lon="1.17009">
        <ele>187.2</ele>
        <time>2024-07-11T08:20:17Z</time>
      </trkpt>
      <trkpt lat="43.75276" lon="1.17007">
        <ele>187</ele>
        <time>2024-07-11T08:20:18Z</time>
      </trkpt>
      <trkpt lat="43.75285" lon="1.17005">
        <ele>187</ele>
        <time>2024-07-11T08:20:19Z</time>
      </trkpt>
      <trkpt lat="43.75294" lon="1.17002">
        <ele>187</ele>
        <time>2024-07-11T08:20:20Z</time>
      </trkpt>
      <trkpt lat="43.75303" lon="1.17">
        <ele>187</ele>
        <time>2024-07-11T08:20:21Z</time>
      </trkpt>
      <trkpt lat="43.75312" lon="1.16997">
        <ele>186.8</ele>
        <time>2024-07-11T08:20:22Z</time>
      </trkpt>
      <trkpt lat="43.75321" lon="1.16995">
        <ele>186.8</ele>
        <time>2024-07-11T08:20:23Z</time>
      </trkpt>
      <trkpt lat="43.75329" lon="1.16993">
        <ele>186.6</ele>
        <time>2024-07-11T08:20:24Z</time>
      </trkpt>
      <trkpt lat="43.75338" lon="1.16992">
        <ele>186.6</ele>
        <time>2024-07-11T08:20:25Z</time>
      </trkpt>
      <trkpt lat="43.75347" lon="1.16991">
        <ele>186.4</ele>
        <time>2024-07-11T08:20:26Z</time>
      </trkpt>
      <trkpt lat="43.75356" lon="1.16991">
        <ele>186.4</ele>
        <time>2024-07-11T08:20:27Z</time>
      </trkpt>
      <trkpt lat="43.75365" lon="1.1699">
        <ele>186.4</ele>
        <time>2024-07-11T08:20:28Z</time>
      </trkpt>
      <trkpt lat="43.75373" lon="1.1699">
        <ele>186.4</ele>
        <time>2024-07-11T08:20:29Z</time>
      </trkpt>
      <trkpt lat="43.75383" lon="1.16989">
        <ele>186.4</ele>
        <time>2024-07-11T08:20:30Z</time>
      </trkpt>
      <trkpt lat="43.75392" lon="1.16989">
        <ele>186.4</ele>
        <time>2024-07-11T08:20:31Z</time>
      </trkpt>
      <trkpt lat="43.75401" lon="1.16988">
        <ele>186.4</ele>
        <time>2024-07-11T08:20:32Z</time>
      </trkpt>
      <trkpt lat="43.7541" lon="1.16987">
        <ele>186.4</ele>
        <time>2024-07-11T08:20:33Z</time>
      </trkpt>
      <trkpt lat="43.75419" lon="1.16986">
        <ele>186.4</ele>
        <time>2024-07-11T08:20:34Z</time>
      </trkpt>
      <trkpt lat="43.75428" lon="1.16984">
        <ele>186.4</ele>
        <time>2024-07-11T08:20:35Z</time>
      </trkpt>
      <trkpt lat="43.75437" lon="1.16981">
        <ele>186.4</ele>
        <time>2024-07-11T08:20:36Z</time>
      </trkpt>
      <trkpt lat="43.75446" lon="1.16978">
        <ele>186.4</ele>
        <time>2024-07-11T08:20:37Z</time>
      </trkpt>
      <trkpt lat="43.75454" lon="1.16973">
        <ele>186.4</ele>
        <time>2024-07-11T08:20:38Z</time>
      </trkpt>
      <trkpt lat="43.75461" lon="1.16967">
        <ele>186.4</ele>
        <time>2024-07-11T08:20:39Z</time>
      </trkpt>
      <trkpt lat="43.75469" lon="1.1696">
        <ele>186.6</ele>
        <time>2024-07-11T08:20:40Z</time>
      </trkpt>
      <trkpt lat="43.75476" lon="1.16953">
        <ele>186.6</ele>
        <time>2024-07-11T08:20:41Z</time>
      </trkpt>
      <trkpt lat="43.75483" lon="1.16946">
        <ele>186.8</ele>
        <time>2024-07-11T08:20:42Z</time>
      </trkpt>
      <trkpt lat="43.75491" lon="1.16939">
        <ele>186.8</ele>
        <time>2024-07-11T08:20:43Z</time>
      </trkpt>
      <trkpt lat="43.75498" lon="1.16932">
        <ele>186.8</ele>
        <time>2024-07-11T08:20:44Z</time>
      </trkpt>
      <trkpt lat="43.75504" lon="1.16925">
        <ele>187</ele>
        <time>2024-07-11T08:20:45Z</time>
      </trkpt>
      <trkpt lat="43.75512" lon="1.16918">
        <ele>187</ele>
        <time>2024-07-11T08:20:46Z</time>
      </trkpt>
      <trkpt lat="43.75519" lon="1.1691">
        <ele>187.2</ele>
        <time>2024-07-11T08:20:47Z</time>
      </trkpt>
      <trkpt lat="43.75526" lon="1.16903">
        <ele>187.2</ele>
        <time>2024-07-11T08:20:48Z</time>
      </trkpt>
      <trkpt lat="43.75533" lon="1.16896">
        <ele>187.2</ele>
        <time>2024-07-11T08:20:49Z</time>
      </trkpt>
      <trkpt lat="43.7554" lon="1.16888">
        <ele>187.2</ele>
        <time>2024-07-11T08:20:50Z</time>
      </trkpt>
      <trkpt lat="43.75547" lon="1.16882">
        <ele>187.4</ele>
        <time>2024-07-11T08:20:51Z</time>
      </trkpt>
      <trkpt lat="43.75555" lon="1.16875">
        <ele>187.4</ele>
        <time>2024-07-11T08:20:52Z</time>
      </trkpt>
      <trkpt lat="43.75562" lon="1.16869">
        <ele>187.6</ele>
        <time>2024-07-11T08:20:53Z</time>
      </trkpt>
      <trkpt lat="43.7557" lon="1.16864">
        <ele>187.2</ele>
        <time>2024-07-11T08:20:54Z</time>
      </trkpt>
      <trkpt lat="43.75578" lon="1.16859">
        <ele>187.2</ele>
        <time>2024-07-11T08:20:55Z</time>
      </trkpt>
      <trkpt lat="43.75586" lon="1.16854">
        <ele>187.4</ele>
        <time>2024-07-11T08:20:56Z</time>
      </trkpt>
      <trkpt lat="43.75594" lon="1.1685">
        <ele>187.2</ele>
        <time>2024-07-11T08:20:57Z</time>
      </trkpt>
      <trkpt lat="43.75602" lon="1.16846">
        <ele>187.2</ele>
        <time>2024-07-11T08:20:58Z</time>
      </trkpt>
      <trkpt lat="43.75611" lon="1.16842">
        <ele>187</ele>
        <time>2024-07-11T08:20:59Z</time>
      </trkpt>
      <trkpt lat="43.7562" lon="1.16839">
        <ele>187</ele>
        <time>2024-07-11T08:21:00Z</time>
      </trkpt>
      <trkpt lat="43.75628" lon="1.16836">
        <ele>187</ele>
        <time>2024-07-11T08:21:01Z</time>
      </trkpt>
      <trkpt lat="43.75637" lon="1.16832">
        <ele>187</ele>
        <time>2024-07-11T08:21:02Z</time>
      </trkpt>
      <trkpt lat="43.75645" lon="1.16829">
        <ele>187</ele>
        <time>2024-07-11T08:21:03Z</time>
      </trkpt>
      <trkpt lat="43.75654" lon="1.16825">
        <ele>187</ele>
        <time>2024-07-11T08:21:04Z</time>
      </trkpt>
      <trkpt lat="43.75662" lon="1.16821">
        <ele>187</ele>
        <time>2024-07-11T08:21:05Z</time>
      </trkpt>
      <trkpt lat="43.7567" lon="1.16818">
        <ele>187.2</ele>
        <time>2024-07-11T08:21:06Z</time>
      </trkpt>
      <trkpt lat="43.75679" lon="1.16814">
        <ele>187</ele>
        <time>2024-07-11T08:21:07Z</time>
      </trkpt>
      <trkpt lat="43.75687" lon="1.1681">
        <ele>186.8</ele>
        <time>2024-07-11T08:21:08Z</time>
      </trkpt>
      <trkpt lat="43.75695" lon="1.16806">
        <ele>186.8</ele>
        <time>2024-07-11T08:21:09Z</time>
      </trkpt>
      <trkpt lat="43.75703" lon="1.16802">
        <ele>187</ele>
        <time>2024-07-11T08:21:10Z</time>
      </trkpt>
      <trkpt lat="43.75711" lon="1.16798">
        <ele>187</ele>
        <time>2024-07-11T08:21:11Z</time>
      </trkpt>
      <trkpt lat="43.75719" lon="1.16793">
        <ele>187.2</ele>
        <time>2024-07-11T08:21:12Z</time>
      </trkpt>
      <trkpt lat="43.75727" lon="1.16789">
        <ele>187.2</ele>
        <time>2024-07-11T08:21:13Z</time>
      </trkpt>
      <trkpt lat="43.75734" lon="1.16784">
        <ele>187.4</ele>
        <time>2024-07-11T08:21:14Z</time>
      </trkpt>
      <trkpt lat="43.75742" lon="1.1678">
        <ele>187.4</ele>
        <time>2024-07-11T08:21:15Z</time>
      </trkpt>
      <trkpt lat="43.7575" lon="1.16775">
        <ele>187.4</ele>
        <time>2024-07-11T08:21:16Z</time>
      </trkpt>
      <trkpt lat="43.75758" lon="1.1677">
        <ele>187.6</ele>
        <time>2024-07-11T08:21:17Z</time>
      </trkpt>
      <trkpt lat="43.75765" lon="1.16765">
        <ele>187.6</ele>
        <time>2024-07-11T08:21:18Z</time>
      </trkpt>
      <trkpt lat="43.75773" lon="1.1676">
        <ele>187.6</ele>
        <time>2024-07-11T08:21:19Z</time>
      </trkpt>
      <trkpt lat="43.75781" lon="1.16754">
        <ele>187.6</ele>
        <time>2024-07-11T08:21:20Z</time>
      </trkpt>
      <trkpt lat="43.75788" lon="1.16749">
        <ele>187.6</ele>
        <time>2024-07-11T08:21:21Z</time>
      </trkpt>
      <trkpt lat="43.75796" lon="1.16744">
        <ele>187.6</ele>
        <time>2024-07-11T08:21:22Z</time>
      </trkpt>
      <trkpt lat="43.75804" lon="1.16738">
        <ele>187.6</ele>
        <time>2024-07-11T08:21:23Z</time>
      </trkpt>
      <trkpt lat="43.75811" lon="1.16733">
        <ele>187.6</ele>
        <time>2024-07-11T08:21:24Z</time>
      </trkpt>
      <trkpt lat="43.75819" lon="1.16728">
        <ele>187.8</ele>
        <time>2024-07-11T08:21:25Z</time>
      </trkpt>
      <trkpt lat="43.75826" lon="1.16722">
        <ele>187.8</ele>
        <time>2024-07-11T08:21:26Z</time>
      </trkpt>
      <trkpt lat="43.75834" lon="1.16717">
        <ele>187.8</ele>
        <time>2024-07-11T08:21:27Z</time>
      </trkpt>
      <trkpt lat="43.75842" lon="1.16711">
        <ele>187.8</ele>
        <time>2024-07-11T08:21:28Z</time>
      </trkpt>
      <trkpt lat="43.75849" lon="1.16706">
        <ele>187.6</ele>
        <time>2024-07-11T08:21:29Z</time>
      </trkpt>
      <trkpt lat="43.75857" lon="1.16701">
        <ele>187.6</ele>
        <time>2024-07-11T08:21:30Z</time>
      </trkpt>
      <trkpt lat="43.75864" lon="1.16696">
        <ele>187.6</ele>
        <time>2024-07-11T08:21:31Z</time>
      </trkpt>
      <trkpt lat="43.75872" lon="1.16691">
        <ele>187.6</ele>
        <time>2024-07-11T08:21:32Z</time>
      </trkpt>
      <trkpt lat="43.75879" lon="1.16686">
        <ele>187.6</ele>
        <time>2024-07-11T08:21:33Z</time>
      </trkpt>
      <trkpt lat="43.75886" lon="1.1668">
        <ele>187.6</ele>
        <time>2024-07-11T08:21:34Z</time>
      </trkpt>
      <trkpt lat="43.75894" lon="1.16675">
        <ele>187.6</ele>
        <time>2024-07-11T08:21:35Z</time>
      </trkpt>
      <trkpt lat="43.75902" lon="1.16669">
        <ele>187.6</ele>
        <time>2024-07-11T08:21:36Z</time>
      </trkpt>
      <trkpt lat="43.75909" lon="1.16664">
        <ele>187.6</ele>
        <time>2024-07-11T08:21:37Z</time>
      </trkpt>
      <trkpt lat="43.75917" lon="1.16658">
        <ele>187.6</ele>
        <time>2024-07-11T08:21:38Z</time>
      </trkpt>
      <trkpt lat="43.75925" lon="1.16653">
        <ele>187.6</ele>
        <time>2024-07-11T08:21:39Z</time>
      </trkpt>
      <trkpt lat="43.75933" lon="1.16647">
        <ele>187.8</ele>
        <time>2024-07-11T08:21:40Z</time>
      </trkpt>
      <trkpt lat="43.75941" lon="1.16641">
        <ele>187.8</ele>
        <time>2024-07-11T08:21:41Z</time>
      </trkpt>
      <trkpt lat="43.75949" lon="1.16636">
        <ele>187.8</ele>
        <time>2024-07-11T08:21:42Z</time>
      </trkpt>
      <trkpt lat="43.75956" lon="1.16631">
        <ele>187.8</ele>
        <time>2024-07-11T08:21:43Z</time>
      </trkpt>
      <trkpt lat="43.75964" lon="1.16626">
        <ele>187.8</ele>
        <time>2024-07-11T08:21:44Z</time>
      </trkpt>
      <trkpt lat="43.75972" lon="1.1662">
        <ele>187.8</ele>
        <time>2024-07-11T08:21:45Z</time>
      </trkpt>
      <trkpt lat="43.7598" lon="1.16615">
        <ele>187.8</ele>
        <time>2024-07-11T08:21:46Z</time>
      </trkpt>
      <trkpt lat="43.75988" lon="1.16609">
        <ele>187.8</ele>
        <time>2024-07-11T08:21:47Z</time>
      </trkpt>
      <trkpt lat="43.75996" lon="1.16605">
        <ele>187.8</ele>
        <time>2024-07-11T08:21:48Z</time>
      </trkpt>
      <trkpt lat="43.76005" lon="1.166">
        <ele>187.8</ele>
        <time>2024-07-11T08:21:49Z</time>
      </trkpt>
      <trkpt lat="43.76014" lon="1.16596">
        <ele>187.8</ele>
        <time>2024-07-11T08:21:50Z</time>
      </trkpt>
      <trkpt lat="43.76023" lon="1.16593">
        <ele>187.8</ele>
        <time>2024-07-11T08:21:51Z</time>
      </trkpt>
      <trkpt lat="43.76031" lon="1.1659">
        <ele>187.6</ele>
        <time>2024-07-11T08:21:52Z</time>
      </trkpt>
      <trkpt lat="43.7604" lon="1.16587">
        <ele>187.6</ele>
        <time>2024-07-11T08:21:53Z</time>
      </trkpt>
      <trkpt lat="43.76049" lon="1.16584">
        <ele>187.6</ele>
        <time>2024-07-11T08:21:54Z</time>
      </trkpt>
      <trkpt lat="43.76057" lon="1.16582">
        <ele>187.4</ele>
        <time>2024-07-11T08:21:55Z</time>
      </trkpt>
      <trkpt lat="43.76066" lon="1.16579">
        <ele>187.4</ele>
        <time>2024-07-11T08:21:56Z</time>
      </trkpt>
      <trkpt lat="43.76074" lon="1.16576">
        <ele>187.4</ele>
        <time>2024-07-11T08:21:57Z</time>
      </trkpt>
      <trkpt lat="43.76083" lon="1.16574">
        <ele>187.4</ele>
        <time>2024-07-11T08:21:58Z</time>
      </trkpt>
      <trkpt lat="43.76092" lon="1.16571">
        <ele>187.4</ele>
        <time>2024-07-11T08:21:59Z</time>
      </trkpt>
      <trkpt lat="43.76101" lon="1.16569">
        <ele>187.4</ele>
        <time>2024-07-11T08:22:00Z</time>
      </trkpt>
      <trkpt lat="43.76109" lon="1.16566">
        <ele>187.2</ele>
        <time>2024-07-11T08:22:01Z</time>
      </trkpt>
      <trkpt lat="43.76118" lon="1.16563">
        <ele>187</ele>
        <time>2024-07-11T08:22:02Z</time>
      </trkpt>
      <trkpt lat="43.76127" lon="1.1656">
        <ele>187</ele>
        <time>2024-07-11T08:22:03Z</time>
      </trkpt>
      <trkpt lat="43.76136" lon="1.16557">
        <ele>186.8</ele>
        <time>2024-07-11T08:22:04Z</time>
      </trkpt>
      <trkpt lat="43.76144" lon="1.16554">
        <ele>186.8</ele>
        <time>2024-07-11T08:22:05Z</time>
      </trkpt>
      <trkpt lat="43.76153" lon="1.1655">
        <ele>186.8</ele>
        <time>2024-07-11T08:22:06Z</time>
      </trkpt>
      <trkpt lat="43.76162" lon="1.16547">
        <ele>186.8</ele>
        <time>2024-07-11T08:22:07Z</time>
      </trkpt>
      <trkpt lat="43.76171" lon="1.16544">
        <ele>186.8</ele>
        <time>2024-07-11T08:22:08Z</time>
      </trkpt>
      <trkpt lat="43.7618" lon="1.1654">
        <ele>186.8</ele>
        <time>2024-07-11T08:22:09Z</time>
      </trkpt>
      <trkpt lat="43.76189" lon="1.16536">
        <ele>186.8</ele>
        <time>2024-07-11T08:22:10Z</time>
      </trkpt>
      <trkpt lat="43.76198" lon="1.16533">
        <ele>186.8</ele>
        <time>2024-07-11T08:22:11Z</time>
      </trkpt>
      <trkpt lat="43.76207" lon="1.16529">
        <ele>186.8</ele>
        <time>2024-07-11T08:22:12Z</time>
      </trkpt>
      <trkpt lat="43.76215" lon="1.16526">
        <ele>186.8</ele>
        <time>2024-07-11T08:22:13Z</time>
      </trkpt>
      <trkpt lat="43.76224" lon="1.16522">
        <ele>186.8</ele>
        <time>2024-07-11T08:22:14Z</time>
      </trkpt>
      <trkpt lat="43.76233" lon="1.16519">
        <ele>186.8</ele>
        <time>2024-07-11T08:22:15Z</time>
      </trkpt>
      <trkpt lat="43.76242" lon="1.16516">
        <ele>186.8</ele>
        <time>2024-07-11T08:22:16Z</time>
      </trkpt>
      <trkpt lat="43.76251" lon="1.16512">
        <ele>186.8</ele>
        <time>2024-07-11T08:22:17Z</time>
      </trkpt>
      <trkpt lat="43.76259" lon="1.16508">
        <ele>186.8</ele>
        <time>2024-07-11T08:22:18Z</time>
      </trkpt>
      <trkpt lat="43.76268" lon="1.16505">
        <ele>186.8</ele>
        <time>2024-07-11T08:22:19Z</time>
      </trkpt>
      <trkpt lat="43.76277" lon="1.16501">
        <ele>186.8</ele>
        <time>2024-07-11T08:22:20Z</time>
      </trkpt>
      <trkpt lat="43.76286" lon="1.16498">
        <ele>186.8</ele>
        <time>2024-07-11T08:22:21Z</time>
      </trkpt>
      <trkpt lat="43.76295" lon="1.16494">
        <ele>186.8</ele>
        <time>2024-07-11T08:22:22Z</time>
      </trkpt>
      <trkpt lat="43.76304" lon="1.16491">
        <ele>186.8</ele>
        <time>2024-07-11T08:22:23Z</time>
      </trkpt>
      <trkpt lat="43.76313" lon="1.16487">
        <ele>186.8</ele>
        <time>2024-07-11T08:22:24Z</time>
      </trkpt>
      <trkpt lat="43.76322" lon="1.16483">
        <ele>186.8</ele>
        <time>2024-07-11T08:22:25Z</time>
      </trkpt>
      <trkpt lat="43.76331" lon="1.1648">
        <ele>186.8</ele>
        <time>2024-07-11T08:22:26Z</time>
      </trkpt>
      <trkpt lat="43.76339" lon="1.16476">
        <ele>186.8</ele>
        <time>2024-07-11T08:22:27Z</time>
      </trkpt>
      <trkpt lat="43.76348" lon="1.16472">
        <ele>186.8</ele>
        <time>2024-07-11T08:22:28Z</time>
      </trkpt>
      <trkpt lat="43.76357" lon="1.16468">
        <ele>186.8</ele>
        <time>2024-07-11T08:22:29Z</time>
      </trkpt>
      <trkpt lat="43.76366" lon="1.16464">
        <ele>186.8</ele>
        <time>2024-07-11T08:22:30Z</time>
      </trkpt>
      <trkpt lat="43.76375" lon="1.16459">
        <ele>186.6</ele>
        <time>2024-07-11T08:22:31Z</time>
      </trkpt>
      <trkpt lat="43.76383" lon="1.16455">
        <ele>186.6</ele>
        <time>2024-07-11T08:22:32Z</time>
      </trkpt>
      <trkpt lat="43.76383" lon="1.16455">
        <ele>186.6</ele>
        <time>2024-07-11T08:22:33Z</time>
      </trkpt>
      <trkpt lat="43.76401" lon="1.16446">
        <ele>186.6</ele>
        <time>2024-07-11T08:22:34Z</time>
      </trkpt>
      <trkpt lat="43.7641" lon="1.16442">
        <ele>186.6</ele>
        <time>2024-07-11T08:22:35Z</time>
      </trkpt>
      <trkpt lat="43.76418" lon="1.16437">
        <ele>186.4</ele>
        <time>2024-07-11T08:22:36Z</time>
      </trkpt>
      <trkpt lat="43.76427" lon="1.16433">
        <ele>186.2</ele>
        <time>2024-07-11T08:22:37Z</time>
      </trkpt>
      <trkpt lat="43.76436" lon="1.16428">
        <ele>186.2</ele>
        <time>2024-07-11T08:22:38Z</time>
      </trkpt>
      <trkpt lat="43.76445" lon="1.16424">
        <ele>186.2</ele>
        <time>2024-07-11T08:22:39Z</time>
      </trkpt>
      <trkpt lat="43.76453" lon="1.16419">
        <ele>186</ele>
        <time>2024-07-11T08:22:40Z</time>
      </trkpt>
      <trkpt lat="43.76462" lon="1.16415">
        <ele>186</ele>
        <time>2024-07-11T08:22:41Z</time>
      </trkpt>
      <trkpt lat="43.7647" lon="1.16411">
        <ele>186.4</ele>
        <time>2024-07-11T08:22:42Z</time>
      </trkpt>
      <trkpt lat="43.76477" lon="1.16408">
        <ele>186.2</ele>
        <time>2024-07-11T08:22:43Z</time>
      </trkpt>
      <trkpt lat="43.76486" lon="1.16403">
        <ele>186.4</ele>
        <time>2024-07-11T08:22:44Z</time>
      </trkpt>
      <trkpt lat="43.76496" lon="1.16398">
        <ele>186.2</ele>
        <time>2024-07-11T08:22:45Z</time>
      </trkpt>
      <trkpt lat="43.76505" lon="1.16394">
        <ele>186.2</ele>
        <time>2024-07-11T08:22:46Z</time>
      </trkpt>
      <trkpt lat="43.76514" lon="1.1639">
        <ele>186</ele>
        <time>2024-07-11T08:22:47Z</time>
      </trkpt>
      <trkpt lat="43.76522" lon="1.16387">
        <ele>186.2</ele>
        <time>2024-07-11T08:22:48Z</time>
      </trkpt>
      <trkpt lat="43.76531" lon="1.16384">
        <ele>186</ele>
        <time>2024-07-11T08:22:49Z</time>
      </trkpt>
      <trkpt lat="43.7654" lon="1.16381">
        <ele>186</ele>
        <time>2024-07-11T08:22:50Z</time>
      </trkpt>
      <trkpt lat="43.76549" lon="1.16378">
        <ele>186</ele>
        <time>2024-07-11T08:22:51Z</time>
      </trkpt>
      <trkpt lat="43.76557" lon="1.16376">
        <ele>186</ele>
        <time>2024-07-11T08:22:52Z</time>
      </trkpt>
      <trkpt lat="43.76557" lon="1.16376">
        <ele>186</ele>
        <time>2024-07-11T08:22:53Z</time>
      </trkpt>
      <trkpt lat="43.76575" lon="1.16371">
        <ele>186</ele>
        <time>2024-07-11T08:22:54Z</time>
      </trkpt>
      <trkpt lat="43.76584" lon="1.16368">
        <ele>186</ele>
        <time>2024-07-11T08:22:55Z</time>
      </trkpt>
      <trkpt lat="43.76592" lon="1.16366">
        <ele>186</ele>
        <time>2024-07-11T08:22:56Z</time>
      </trkpt>
      <trkpt lat="43.76601" lon="1.16363">
        <ele>186.2</ele>
        <time>2024-07-11T08:22:57Z</time>
      </trkpt>
      <trkpt lat="43.7661" lon="1.16361">
        <ele>186.2</ele>
        <time>2024-07-11T08:22:58Z</time>
      </trkpt>
      <trkpt lat="43.76618" lon="1.16358">
        <ele>186.2</ele>
        <time>2024-07-11T08:22:59Z</time>
      </trkpt>
      <trkpt lat="43.76626" lon="1.16356">
        <ele>186.4</ele>
        <time>2024-07-11T08:23:00Z</time>
      </trkpt>
      <trkpt lat="43.76635" lon="1.16354">
        <ele>186.4</ele>
        <time>2024-07-11T08:23:01Z</time>
      </trkpt>
      <trkpt lat="43.76643" lon="1.16352">
        <ele>186.4</ele>
        <time>2024-07-11T08:23:02Z</time>
      </trkpt>
      <trkpt lat="43.76652" lon="1.1635">
        <ele>186.4</ele>
        <time>2024-07-11T08:23:03Z</time>
      </trkpt>
      <trkpt lat="43.7666" lon="1.16349">
        <ele>186.4</ele>
        <time>2024-07-11T08:23:04Z</time>
      </trkpt>
      <trkpt lat="43.76669" lon="1.16348">
        <ele>186.6</ele>
        <time>2024-07-11T08:23:05Z</time>
      </trkpt>
      <trkpt lat="43.76677" lon="1.16347">
        <ele>186.6</ele>
        <time>2024-07-11T08:23:06Z</time>
      </trkpt>
      <trkpt lat="43.76685" lon="1.16345">
        <ele>186.6</ele>
        <time>2024-07-11T08:23:07Z</time>
      </trkpt>
      <trkpt lat="43.76694" lon="1.16344">
        <ele>186.6</ele>
        <time>2024-07-11T08:23:08Z</time>
      </trkpt>
      <trkpt lat="43.76702" lon="1.16343">
        <ele>186.6</ele>
        <time>2024-07-11T08:23:09Z</time>
      </trkpt>
      <trkpt lat="43.76711" lon="1.16342">
        <ele>186.6</ele>
        <time>2024-07-11T08:23:10Z</time>
      </trkpt>
      <trkpt lat="43.7672" lon="1.16341">
        <ele>186.6</ele>
        <time>2024-07-11T08:23:11Z</time>
      </trkpt>
      <trkpt lat="43.76729" lon="1.16339">
        <ele>186.6</ele>
        <time>2024-07-11T08:23:12Z</time>
      </trkpt>
      <trkpt lat="43.76738" lon="1.16338">
        <ele>186.6</ele>
        <time>2024-07-11T08:23:13Z</time>
      </trkpt>
      <trkpt lat="43.76746" lon="1.16337">
        <ele>186.6</ele>
        <time>2024-07-11T08:23:14Z</time>
      </trkpt>
      <trkpt lat="43.76755" lon="1.16336">
        <ele>186.8</ele>
        <time>2024-07-11T08:23:15Z</time>
      </trkpt>
      <trkpt lat="43.76764" lon="1.16335">
        <ele>187</ele>
        <time>2024-07-11T08:23:16Z</time>
      </trkpt>
      <trkpt lat="43.76773" lon="1.16333">
        <ele>187</ele>
        <time>2024-07-11T08:23:17Z</time>
      </trkpt>
      <trkpt lat="43.76782" lon="1.16332">
        <ele>186.8</ele>
        <time>2024-07-11T08:23:18Z</time>
      </trkpt>
      <trkpt lat="43.76791" lon="1.16331">
        <ele>187</ele>
        <time>2024-07-11T08:23:19Z</time>
      </trkpt>
      <trkpt lat="43.768" lon="1.1633">
        <ele>187</ele>
        <time>2024-07-11T08:23:20Z</time>
      </trkpt>
      <trkpt lat="43.7681" lon="1.16329">
        <ele>187</ele>
        <time>2024-07-11T08:23:21Z</time>
      </trkpt>
      <trkpt lat="43.76819" lon="1.16328">
        <ele>187</ele>
        <time>2024-07-11T08:23:22Z</time>
      </trkpt>
      <trkpt lat="43.76828" lon="1.16327">
        <ele>186.8</ele>
        <time>2024-07-11T08:23:23Z</time>
      </trkpt>
      <trkpt lat="43.76838" lon="1.16326">
        <ele>186.8</ele>
        <time>2024-07-11T08:23:24Z</time>
      </trkpt>
      <trkpt lat="43.76847" lon="1.16324">
        <ele>186.6</ele>
        <time>2024-07-11T08:23:25Z</time>
      </trkpt>
      <trkpt lat="43.76857" lon="1.16323">
        <ele>186.4</ele>
        <time>2024-07-11T08:23:26Z</time>
      </trkpt>
      <trkpt lat="43.76866" lon="1.16322">
        <ele>186.4</ele>
        <time>2024-07-11T08:23:27Z</time>
      </trkpt>
      <trkpt lat="43.76875" lon="1.16321">
        <ele>186.4</ele>
        <time>2024-07-11T08:23:28Z</time>
      </trkpt>
      <trkpt lat="43.76884" lon="1.1632">
        <ele>186.4</ele>
        <time>2024-07-11T08:23:29Z</time>
      </trkpt>
      <trkpt lat="43.76893" lon="1.16318">
        <ele>186.4</ele>
        <time>2024-07-11T08:23:30Z</time>
      </trkpt>
      <trkpt lat="43.76902" lon="1.16318">
        <ele>186.4</ele>
        <time>2024-07-11T08:23:31Z</time>
      </trkpt>
      <trkpt lat="43.76912" lon="1.16317">
        <ele>186.4</ele>
        <time>2024-07-11T08:23:32Z</time>
      </trkpt>
      <trkpt lat="43.76921" lon="1.16315">
        <ele>186.2</ele>
        <time>2024-07-11T08:23:33Z</time>
      </trkpt>
      <trkpt lat="43.7693" lon="1.16314">
        <ele>186.2</ele>
        <time>2024-07-11T08:23:34Z</time>
      </trkpt>
      <trkpt lat="43.76939" lon="1.16313">
        <ele>186.2</ele>
        <time>2024-07-11T08:23:35Z</time>
      </trkpt>
      <trkpt lat="43.76948" lon="1.16312">
        <ele>186.2</ele>
        <time>2024-07-11T08:23:36Z</time>
      </trkpt>
      <trkpt lat="43.76957" lon="1.16311">
        <ele>186.2</ele>
        <time>2024-07-11T08:23:37Z</time>
      </trkpt>
      <trkpt lat="43.76966" lon="1.16311">
        <ele>186.2</ele>
        <time>2024-07-11T08:23:38Z</time>
      </trkpt>
      <trkpt lat="43.76975" lon="1.1631">
        <ele>186.2</ele>
        <time>2024-07-11T08:23:39Z</time>
      </trkpt>
      <trkpt lat="43.76984" lon="1.16308">
        <ele>186</ele>
        <time>2024-07-11T08:23:40Z</time>
      </trkpt>
      <trkpt lat="43.76993" lon="1.16307">
        <ele>186</ele>
        <time>2024-07-11T08:23:41Z</time>
      </trkpt>
      <trkpt lat="43.77002" lon="1.16306">
        <ele>185.8</ele>
        <time>2024-07-11T08:23:42Z</time>
      </trkpt>
      <trkpt lat="43.77009" lon="1.16305">
        <ele>185.8</ele>
        <time>2024-07-11T08:23:43Z</time>
      </trkpt>
      <trkpt lat="43.7702" lon="1.16303">
        <ele>185.8</ele>
        <time>2024-07-11T08:23:44Z</time>
      </trkpt>
      <trkpt lat="43.77029" lon="1.16302">
        <ele>185.6</ele>
        <time>2024-07-11T08:23:45Z</time>
      </trkpt>
      <trkpt lat="43.77038" lon="1.163">
        <ele>185.6</ele>
        <time>2024-07-11T08:23:46Z</time>
      </trkpt>
      <trkpt lat="43.77047" lon="1.16299">
        <ele>185.4</ele>
        <time>2024-07-11T08:23:47Z</time>
      </trkpt>
      <trkpt lat="43.77056" lon="1.16297">
        <ele>185.4</ele>
        <time>2024-07-11T08:23:48Z</time>
      </trkpt>
      <trkpt lat="43.77063" lon="1.16295">
        <ele>185.2</ele>
        <time>2024-07-11T08:23:49Z</time>
      </trkpt>
      <trkpt lat="43.77074" lon="1.16292">
        <ele>185.2</ele>
        <time>2024-07-11T08:23:50Z</time>
      </trkpt>
      <trkpt lat="43.77083" lon="1.16288">
        <ele>185</ele>
        <time>2024-07-11T08:23:51Z</time>
      </trkpt>
      <trkpt lat="43.77092" lon="1.16285">
        <ele>185</ele>
        <time>2024-07-11T08:23:52Z</time>
      </trkpt>
      <trkpt lat="43.77101" lon="1.16282">
        <ele>185</ele>
        <time>2024-07-11T08:23:53Z</time>
      </trkpt>
      <trkpt lat="43.77109" lon="1.16278">
        <ele>185</ele>
        <time>2024-07-11T08:23:54Z</time>
      </trkpt>
      <trkpt lat="43.77118" lon="1.16274">
        <ele>184.8</ele>
        <time>2024-07-11T08:23:55Z</time>
      </trkpt>
      <trkpt lat="43.77127" lon="1.16271">
        <ele>184.8</ele>
        <time>2024-07-11T08:23:56Z</time>
      </trkpt>
      <trkpt lat="43.77135" lon="1.16267">
        <ele>184.8</ele>
        <time>2024-07-11T08:23:57Z</time>
      </trkpt>
      <trkpt lat="43.77144" lon="1.16264">
        <ele>184.8</ele>
        <time>2024-07-11T08:23:58Z</time>
      </trkpt>
      <trkpt lat="43.77153" lon="1.16261">
        <ele>184.6</ele>
        <time>2024-07-11T08:23:59Z</time>
      </trkpt>
      <trkpt lat="43.77162" lon="1.16258">
        <ele>184.6</ele>
        <time>2024-07-11T08:24:00Z</time>
      </trkpt>
      <trkpt lat="43.77172" lon="1.16256">
        <ele>184.6</ele>
        <time>2024-07-11T08:24:01Z</time>
      </trkpt>
      <trkpt lat="43.77181" lon="1.16256">
        <ele>184.4</ele>
        <time>2024-07-11T08:24:02Z</time>
      </trkpt>
      <trkpt lat="43.77191" lon="1.16258">
        <ele>184.4</ele>
        <time>2024-07-11T08:24:03Z</time>
      </trkpt>
      <trkpt lat="43.772" lon="1.16263">
        <ele>184.2</ele>
        <time>2024-07-11T08:24:04Z</time>
      </trkpt>
      <trkpt lat="43.77209" lon="1.16268">
        <ele>184.2</ele>
        <time>2024-07-11T08:24:05Z</time>
      </trkpt>
      <trkpt lat="43.77218" lon="1.16274">
        <ele>184</ele>
        <time>2024-07-11T08:24:06Z</time>
      </trkpt>
      <trkpt lat="43.77225" lon="1.16279">
        <ele>184</ele>
        <time>2024-07-11T08:24:07Z</time>
      </trkpt>
      <trkpt lat="43.77236" lon="1.16285">
        <ele>183.8</ele>
        <time>2024-07-11T08:24:08Z</time>
      </trkpt>
      <trkpt lat="43.77246" lon="1.16288">
        <ele>183.4</ele>
        <time>2024-07-11T08:24:09Z</time>
      </trkpt>
      <trkpt lat="43.77257" lon="1.16287">
        <ele>182.8</ele>
        <time>2024-07-11T08:24:10Z</time>
      </trkpt>
      <trkpt lat="43.77266" lon="1.16282">
        <ele>182.2</ele>
        <time>2024-07-11T08:24:11Z</time>
      </trkpt>
      <trkpt lat="43.77275" lon="1.16273">
        <ele>182</ele>
        <time>2024-07-11T08:24:12Z</time>
      </trkpt>
      <trkpt lat="43.77283" lon="1.16262">
        <ele>181.4</ele>
        <time>2024-07-11T08:24:13Z</time>
      </trkpt>
      <trkpt lat="43.77289" lon="1.16249">
        <ele>181.2</ele>
        <time>2024-07-11T08:24:14Z</time>
      </trkpt>
      <trkpt lat="43.77293" lon="1.16234">
        <ele>180.2</ele>
        <time>2024-07-11T08:24:15Z</time>
      </trkpt>
      <trkpt lat="43.77297" lon="1.16217">
        <ele>179.2</ele>
        <time>2024-07-11T08:24:16Z</time>
      </trkpt>
      <trkpt lat="43.77301" lon="1.16201">
        <ele>178.8</ele>
        <time>2024-07-11T08:24:17Z</time>
      </trkpt>
      <trkpt lat="43.77304" lon="1.16184">
        <ele>177.8</ele>
        <time>2024-07-11T08:24:18Z</time>
      </trkpt>
      <trkpt lat="43.77308" lon="1.16167">
        <ele>177</ele>
        <time>2024-07-11T08:24:19Z</time>
      </trkpt>
      <trkpt lat="43.77312" lon="1.1615">
        <ele>176.2</ele>
        <time>2024-07-11T08:24:20Z</time>
      </trkpt>
      <trkpt lat="43.77316" lon="1.16133">
        <ele>175.6</ele>
        <time>2024-07-11T08:24:21Z</time>
      </trkpt>
      <trkpt lat="43.7732" lon="1.16117">
        <ele>174.8</ele>
        <time>2024-07-11T08:24:22Z</time>
      </trkpt>
      <trkpt lat="43.77324" lon="1.161">
        <ele>173.8</ele>
        <time>2024-07-11T08:24:23Z</time>
      </trkpt>
      <trkpt lat="43.77328" lon="1.16083">
        <ele>173.2</ele>
        <time>2024-07-11T08:24:24Z</time>
      </trkpt>
      <trkpt lat="43.77333" lon="1.16067">
        <ele>172</ele>
        <time>2024-07-11T08:24:25Z</time>
      </trkpt>
      <trkpt lat="43.77339" lon="1.16053">
        <ele>171.6</ele>
        <time>2024-07-11T08:24:26Z</time>
      </trkpt>
      <trkpt lat="43.77348" lon="1.16042">
        <ele>170.6</ele>
        <time>2024-07-11T08:24:27Z</time>
      </trkpt>
      <trkpt lat="43.77359" lon="1.16035">
        <ele>170.2</ele>
        <time>2024-07-11T08:24:28Z</time>
      </trkpt>
      <trkpt lat="43.77372" lon="1.16032">
        <ele>169.2</ele>
        <time>2024-07-11T08:24:29Z</time>
      </trkpt>
      <trkpt lat="43.77384" lon="1.16032">
        <ele>167.8</ele>
        <time>2024-07-11T08:24:30Z</time>
      </trkpt>
      <trkpt lat="43.77397" lon="1.16033">
        <ele>167.2</ele>
        <time>2024-07-11T08:24:31Z</time>
      </trkpt>
      <trkpt lat="43.7741" lon="1.16034">
        <ele>165.4</ele>
        <time>2024-07-11T08:24:32Z</time>
      </trkpt>
      <trkpt lat="43.77423" lon="1.16034">
        <ele>164.8</ele>
        <time>2024-07-11T08:24:33Z</time>
      </trkpt>
      <trkpt lat="43.77435" lon="1.16035">
        <ele>163.8</ele>
        <time>2024-07-11T08:24:34Z</time>
      </trkpt>
      <trkpt lat="43.77447" lon="1.16036">
        <ele>162.8</ele>
        <time>2024-07-11T08:24:35Z</time>
      </trkpt>
      <trkpt lat="43.7746" lon="1.16037">
        <ele>162.4</ele>
        <time>2024-07-11T08:24:36Z</time>
      </trkpt>
      <trkpt lat="43.77471" lon="1.16038">
        <ele>161.8</ele>
        <time>2024-07-11T08:24:37Z</time>
      </trkpt>
      <trkpt lat="43.77483" lon="1.1604">
        <ele>161.6</ele>
        <time>2024-07-11T08:24:38Z</time>
      </trkpt>
      <trkpt lat="43.77495" lon="1.16041">
        <ele>160.8</ele>
        <time>2024-07-11T08:24:39Z</time>
      </trkpt>
      <trkpt lat="43.77506" lon="1.16041">
        <ele>160.2</ele>
        <time>2024-07-11T08:24:40Z</time>
      </trkpt>
      <trkpt lat="43.77517" lon="1.16041">
        <ele>160</ele>
        <time>2024-07-11T08:24:41Z</time>
      </trkpt>
      <trkpt lat="43.77528" lon="1.16041">
        <ele>159.6</ele>
        <time>2024-07-11T08:24:42Z</time>
      </trkpt>
      <trkpt lat="43.77538" lon="1.16041">
        <ele>159.4</ele>
        <time>2024-07-11T08:24:43Z</time>
      </trkpt>
      <trkpt lat="43.77549" lon="1.1604">
        <ele>159.4</ele>
        <time>2024-07-11T08:24:44Z</time>
      </trkpt>
      <trkpt lat="43.77559" lon="1.16039">
        <ele>159.4</ele>
        <time>2024-07-11T08:24:45Z</time>
      </trkpt>
      <trkpt lat="43.77569" lon="1.16037">
        <ele>159.4</ele>
        <time>2024-07-11T08:24:46Z</time>
      </trkpt>
      <trkpt lat="43.77579" lon="1.16035">
        <ele>159.2</ele>
        <time>2024-07-11T08:24:47Z</time>
      </trkpt>
      <trkpt lat="43.77588" lon="1.16033">
        <ele>159.2</ele>
        <time>2024-07-11T08:24:48Z</time>
      </trkpt>
      <trkpt lat="43.77598" lon="1.16032">
        <ele>159.4</ele>
        <time>2024-07-11T08:24:49Z</time>
      </trkpt>
      <trkpt lat="43.77607" lon="1.16031">
        <ele>159.6</ele>
        <time>2024-07-11T08:24:50Z</time>
      </trkpt>
      <trkpt lat="43.77616" lon="1.16029">
        <ele>159.6</ele>
        <time>2024-07-11T08:24:51Z</time>
      </trkpt>
      <trkpt lat="43.77625" lon="1.16028">
        <ele>159.6</ele>
        <time>2024-07-11T08:24:52Z</time>
      </trkpt>
      <trkpt lat="43.77633" lon="1.16027">
        <ele>159.8</ele>
        <time>2024-07-11T08:24:53Z</time>
      </trkpt>
      <trkpt lat="43.77641" lon="1.16026">
        <ele>160</ele>
        <time>2024-07-11T08:24:54Z</time>
      </trkpt>
      <trkpt lat="43.77649" lon="1.16024">
        <ele>160</ele>
        <time>2024-07-11T08:24:55Z</time>
      </trkpt>
      <trkpt lat="43.77656" lon="1.16023">
        <ele>160.4</ele>
        <time>2024-07-11T08:24:56Z</time>
      </trkpt>
      <trkpt lat="43.77662" lon="1.16022">
        <ele>160.6</ele>
        <time>2024-07-11T08:24:57Z</time>
      </trkpt>
      <trkpt lat="43.77668" lon="1.16021">
        <ele>161</ele>
        <time>2024-07-11T08:24:58Z</time>
      </trkpt>
      <trkpt lat="43.77675" lon="1.1602">
        <ele>161.4</ele>
        <time>2024-07-11T08:24:59Z</time>
      </trkpt>
      <trkpt lat="43.77681" lon="1.16019">
        <ele>161.6</ele>
        <time>2024-07-11T08:25:00Z</time>
      </trkpt>
      <trkpt lat="43.77686" lon="1.16018">
        <ele>162.4</ele>
        <time>2024-07-11T08:25:01Z</time>
      </trkpt>
      <trkpt lat="43.77691" lon="1.16017">
        <ele>162.6</ele>
        <time>2024-07-11T08:25:02Z</time>
      </trkpt>
      <trkpt lat="43.77696" lon="1.16016">
        <ele>163.4</ele>
        <time>2024-07-11T08:25:03Z</time>
      </trkpt>
      <trkpt lat="43.77701" lon="1.16015">
        <ele>163.8</ele>
        <time>2024-07-11T08:25:04Z</time>
      </trkpt>
      <trkpt lat="43.77706" lon="1.16014">
        <ele>164.4</ele>
        <time>2024-07-11T08:25:05Z</time>
      </trkpt>
      <trkpt lat="43.7771" lon="1.16013">
        <ele>165.4</ele>
        <time>2024-07-11T08:25:06Z</time>
      </trkpt>
      <trkpt lat="43.77714" lon="1.16011">
        <ele>166</ele>
        <time>2024-07-11T08:25:07Z</time>
      </trkpt>
      <trkpt lat="43.77718" lon="1.1601">
        <ele>166.4</ele>
        <time>2024-07-11T08:25:08Z</time>
      </trkpt>
      <trkpt lat="43.77722" lon="1.16009">
        <ele>166.8</ele>
        <time>2024-07-11T08:25:09Z</time>
      </trkpt>
      <trkpt lat="43.77726" lon="1.16007">
        <ele>167.6</ele>
        <time>2024-07-11T08:25:10Z</time>
      </trkpt>
      <trkpt lat="43.77731" lon="1.16006">
        <ele>168.4</ele>
        <time>2024-07-11T08:25:11Z</time>
      </trkpt>
      <trkpt lat="43.77736" lon="1.16005">
        <ele>168.6</ele>
        <time>2024-07-11T08:25:12Z</time>
      </trkpt>
      <trkpt lat="43.7774" lon="1.16004">
        <ele>169</ele>
        <time>2024-07-11T08:25:13Z</time>
      </trkpt>
      <trkpt lat="43.77744" lon="1.16003">
        <ele>169.2</ele>
        <time>2024-07-11T08:25:14Z</time>
      </trkpt>
      <trkpt lat="43.77749" lon="1.16001">
        <ele>169.8</ele>
        <time>2024-07-11T08:25:15Z</time>
      </trkpt>
      <trkpt lat="43.77753" lon="1.15999">
        <ele>170.2</ele>
        <time>2024-07-11T08:25:16Z</time>
      </trkpt>
      <trkpt lat="43.77757" lon="1.15996">
        <ele>170.6</ele>
        <time>2024-07-11T08:25:17Z</time>
      </trkpt>
      <trkpt lat="43.77761" lon="1.15994">
        <ele>171.4</ele>
        <time>2024-07-11T08:25:18Z</time>
      </trkpt>
      <trkpt lat="43.77766" lon="1.15992">
        <ele>171.8</ele>
        <time>2024-07-11T08:25:19Z</time>
      </trkpt>
      <trkpt lat="43.7777" lon="1.1599">
        <ele>172.6</ele>
        <time>2024-07-11T08:25:20Z</time>
      </trkpt>
      <trkpt lat="43.77775" lon="1.15989">
        <ele>173</ele>
        <time>2024-07-11T08:25:21Z</time>
      </trkpt>
      <trkpt lat="43.77779" lon="1.15987">
        <ele>173.8</ele>
        <time>2024-07-11T08:25:22Z</time>
      </trkpt>
      <trkpt lat="43.77784" lon="1.15984">
        <ele>174.6</ele>
        <time>2024-07-11T08:25:23Z</time>
      </trkpt>
      <trkpt lat="43.77788" lon="1.15982">
        <ele>174.8</ele>
        <time>2024-07-11T08:25:24Z</time>
      </trkpt>
      <trkpt lat="43.77792" lon="1.1598">
        <ele>175.4</ele>
        <time>2024-07-11T08:25:25Z</time>
      </trkpt>
      <trkpt lat="43.77796" lon="1.15977">
        <ele>175.6</ele>
        <time>2024-07-11T08:25:26Z</time>
      </trkpt>
      <trkpt lat="43.778" lon="1.15975">
        <ele>175.8</ele>
        <time>2024-07-11T08:25:27Z</time>
      </trkpt>
      <trkpt lat="43.77804" lon="1.15973">
        <ele>176.4</ele>
        <time>2024-07-11T08:25:28Z</time>
      </trkpt>
      <trkpt lat="43.77808" lon="1.15971">
        <ele>177</ele>
        <time>2024-07-11T08:25:29Z</time>
      </trkpt>
      <trkpt lat="43.77813" lon="1.15969">
        <ele>177.4</ele>
        <time>2024-07-11T08:25:30Z</time>
      </trkpt>
      <trkpt lat="43.77817" lon="1.15967">
        <ele>177.8</ele>
        <time>2024-07-11T08:25:31Z</time>
      </trkpt>
      <trkpt lat="43.77821" lon="1.15966">
        <ele>178.2</ele>
        <time>2024-07-11T08:25:32Z</time>
      </trkpt>
      <trkpt lat="43.77826" lon="1.15964">
        <ele>178.4</ele>
        <time>2024-07-11T08:25:33Z</time>
      </trkpt>
      <trkpt lat="43.77831" lon="1.15963">
        <ele>178.8</ele>
        <time>2024-07-11T08:25:34Z</time>
      </trkpt>
      <trkpt lat="43.77835" lon="1.15962">
        <ele>179.2</ele>
        <time>2024-07-11T08:25:35Z</time>
      </trkpt>
      <trkpt lat="43.77839" lon="1.1596">
        <ele>179.4</ele>
        <time>2024-07-11T08:25:36Z</time>
      </trkpt>
      <trkpt lat="43.77844" lon="1.15958">
        <ele>180</ele>
        <time>2024-07-11T08:25:37Z</time>
      </trkpt>
      <trkpt lat="43.77848" lon="1.15956">
        <ele>180</ele>
        <time>2024-07-11T08:25:38Z</time>
      </trkpt>
      <trkpt lat="43.77852" lon="1.15955">
        <ele>180.4</ele>
        <time>2024-07-11T08:25:39Z</time>
      </trkpt>
      <trkpt lat="43.77856" lon="1.15953">
        <ele>180.6</ele>
        <time>2024-07-11T08:25:40Z</time>
      </trkpt>
      <trkpt lat="43.77861" lon="1.15951">
        <ele>181</ele>
        <time>2024-07-11T08:25:41Z</time>
      </trkpt>
      <trkpt lat="43.77865" lon="1.1595">
        <ele>181.4</ele>
        <time>2024-07-11T08:25:42Z</time>
      </trkpt>
      <trkpt lat="43.7787" lon="1.15948">
        <ele>181.4</ele>
        <time>2024-07-11T08:25:43Z</time>
      </trkpt>
      <trkpt lat="43.77874" lon="1.15946">
        <ele>181.8</ele>
        <time>2024-07-11T08:25:44Z</time>
      </trkpt>
      <trkpt lat="43.7788" lon="1.15944">
        <ele>182</ele>
        <time>2024-07-11T08:25:45Z</time>
      </trkpt>
      <trkpt lat="43.77884" lon="1.15942">
        <ele>182.2</ele>
        <time>2024-07-11T08:25:46Z</time>
      </trkpt>
      <trkpt lat="43.77889" lon="1.1594">
        <ele>182.4</ele>
        <time>2024-07-11T08:25:47Z</time>
      </trkpt>
      <trkpt lat="43.77894" lon="1.15939">
        <ele>182.4</ele>
        <time>2024-07-11T08:25:48Z</time>
      </trkpt>
      <trkpt lat="43.779" lon="1.15937">
        <ele>182.6</ele>
        <time>2024-07-11T08:25:49Z</time>
      </trkpt>
      <trkpt lat="43.77905" lon="1.15935">
        <ele>182.6</ele>
        <time>2024-07-11T08:25:50Z</time>
      </trkpt>
      <trkpt lat="43.7791" lon="1.15933">
        <ele>183</ele>
        <time>2024-07-11T08:25:51Z</time>
      </trkpt>
      <trkpt lat="43.77916" lon="1.15931">
        <ele>183</ele>
        <time>2024-07-11T08:25:52Z</time>
      </trkpt>
      <trkpt lat="43.77921" lon="1.15929">
        <ele>183.2</ele>
        <time>2024-07-11T08:25:53Z</time>
      </trkpt>
      <trkpt lat="43.77927" lon="1.15927">
        <ele>183.4</ele>
        <time>2024-07-11T08:25:54Z</time>
      </trkpt>
      <trkpt lat="43.77932" lon="1.15926">
        <ele>183.6</ele>
        <time>2024-07-11T08:25:55Z</time>
      </trkpt>
      <trkpt lat="43.77938" lon="1.15924">
        <ele>183.8</ele>
        <time>2024-07-11T08:25:56Z</time>
      </trkpt>
      <trkpt lat="43.77943" lon="1.15922">
        <ele>183.8</ele>
        <time>2024-07-11T08:25:57Z</time>
      </trkpt>
      <trkpt lat="43.77949" lon="1.1592">
        <ele>184</ele>
        <time>2024-07-11T08:25:58Z</time>
      </trkpt>
      <trkpt lat="43.77955" lon="1.15918">
        <ele>184.2</ele>
        <time>2024-07-11T08:25:59Z</time>
      </trkpt>
      <trkpt lat="43.7796" lon="1.15916">
        <ele>184.4</ele>
        <time>2024-07-11T08:26:00Z</time>
      </trkpt>
      <trkpt lat="43.77966" lon="1.15914">
        <ele>184.4</ele>
        <time>2024-07-11T08:26:01Z</time>
      </trkpt>
      <trkpt lat="43.77972" lon="1.15912">
        <ele>184.6</ele>
        <time>2024-07-11T08:26:02Z</time>
      </trkpt>
      <trkpt lat="43.77977" lon="1.15909">
        <ele>184.6</ele>
        <time>2024-07-11T08:26:03Z</time>
      </trkpt>
      <trkpt lat="43.77983" lon="1.15907">
        <ele>184.6</ele>
        <time>2024-07-11T08:26:04Z</time>
      </trkpt>
      <trkpt lat="43.77989" lon="1.15905">
        <ele>184.6</ele>
        <time>2024-07-11T08:26:05Z</time>
      </trkpt>
      <trkpt lat="43.77995" lon="1.15903">
        <ele>184.8</ele>
        <time>2024-07-11T08:26:06Z</time>
      </trkpt>
      <trkpt lat="43.78001" lon="1.15901">
        <ele>184.8</ele>
        <time>2024-07-11T08:26:07Z</time>
      </trkpt>
      <trkpt lat="43.78008" lon="1.15898">
        <ele>184.8</ele>
        <time>2024-07-11T08:26:08Z</time>
      </trkpt>
      <trkpt lat="43.78014" lon="1.15896">
        <ele>184.8</ele>
        <time>2024-07-11T08:26:09Z</time>
      </trkpt>
      <trkpt lat="43.7802" lon="1.15894">
        <ele>184.8</ele>
        <time>2024-07-11T08:26:10Z</time>
      </trkpt>
      <trkpt lat="43.78026" lon="1.15892">
        <ele>185</ele>
        <time>2024-07-11T08:26:11Z</time>
      </trkpt>
      <trkpt lat="43.78033" lon="1.15889">
        <ele>185</ele>
        <time>2024-07-11T08:26:12Z</time>
      </trkpt>
      <trkpt lat="43.7804" lon="1.15887">
        <ele>185</ele>
        <time>2024-07-11T08:26:13Z</time>
      </trkpt>
      <trkpt lat="43.78046" lon="1.15885">
        <ele>185</ele>
        <time>2024-07-11T08:26:14Z</time>
      </trkpt>
      <trkpt lat="43.78053" lon="1.15882">
        <ele>185</ele>
        <time>2024-07-11T08:26:15Z</time>
      </trkpt>
      <trkpt lat="43.7806" lon="1.1588">
        <ele>185.2</ele>
        <time>2024-07-11T08:26:16Z</time>
      </trkpt>
      <trkpt lat="43.78066" lon="1.15878">
        <ele>185.2</ele>
        <time>2024-07-11T08:26:17Z</time>
      </trkpt>
      <trkpt lat="43.78073" lon="1.15875">
        <ele>185.2</ele>
        <time>2024-07-11T08:26:18Z</time>
      </trkpt>
      <trkpt lat="43.7808" lon="1.15873">
        <ele>185.4</ele>
        <time>2024-07-11T08:26:19Z</time>
      </trkpt>
      <trkpt lat="43.78086" lon="1.15871">
        <ele>185.4</ele>
        <time>2024-07-11T08:26:20Z</time>
      </trkpt>
      <trkpt lat="43.78094" lon="1.15868">
        <ele>185.4</ele>
        <time>2024-07-11T08:26:21Z</time>
      </trkpt>
      <trkpt lat="43.781" lon="1.15866">
        <ele>185.6</ele>
        <time>2024-07-11T08:26:22Z</time>
      </trkpt>
      <trkpt lat="43.78107" lon="1.15863">
        <ele>185.6</ele>
        <time>2024-07-11T08:26:23Z</time>
      </trkpt>
      <trkpt lat="43.78114" lon="1.15861">
        <ele>185.6</ele>
        <time>2024-07-11T08:26:24Z</time>
      </trkpt>
      <trkpt lat="43.78121" lon="1.15859">
        <ele>185.6</ele>
        <time>2024-07-11T08:26:25Z</time>
      </trkpt>
      <trkpt lat="43.78127" lon="1.15856">
        <ele>185.6</ele>
        <time>2024-07-11T08:26:26Z</time>
      </trkpt>
      <trkpt lat="43.78134" lon="1.15854">
        <ele>185.6</ele>
        <time>2024-07-11T08:26:27Z</time>
      </trkpt>
      <trkpt lat="43.78141" lon="1.15851">
        <ele>185.6</ele>
        <time>2024-07-11T08:26:28Z</time>
      </trkpt>
      <trkpt lat="43.78148" lon="1.15849">
        <ele>185.8</ele>
        <time>2024-07-11T08:26:29Z</time>
      </trkpt>
      <trkpt lat="43.78154" lon="1.15847">
        <ele>186</ele>
        <time>2024-07-11T08:26:30Z</time>
      </trkpt>
      <trkpt lat="43.7816" lon="1.15845">
        <ele>186</ele>
        <time>2024-07-11T08:26:31Z</time>
      </trkpt>
      <trkpt lat="43.78166" lon="1.15843">
        <ele>186</ele>
        <time>2024-07-11T08:26:32Z</time>
      </trkpt>
      <trkpt lat="43.78173" lon="1.15841">
        <ele>186</ele>
        <time>2024-07-11T08:26:33Z</time>
      </trkpt>
      <trkpt lat="43.78179" lon="1.1584">
        <ele>186</ele>
        <time>2024-07-11T08:26:34Z</time>
      </trkpt>
      <trkpt lat="43.78185" lon="1.15838">
        <ele>186.2</ele>
        <time>2024-07-11T08:26:35Z</time>
      </trkpt>
      <trkpt lat="43.78191" lon="1.15837">
        <ele>186.2</ele>
        <time>2024-07-11T08:26:36Z</time>
      </trkpt>
      <trkpt lat="43.78195" lon="1.15836">
        <ele>186.2</ele>
        <time>2024-07-11T08:26:37Z</time>
      </trkpt>
      <trkpt lat="43.78199" lon="1.15835">
        <ele>186.2</ele>
        <time>2024-07-11T08:26:38Z</time>
      </trkpt>
      <trkpt lat="43.78203" lon="1.15835">
        <ele>186.2</ele>
        <time>2024-07-11T08:26:39Z</time>
      </trkpt>
      <trkpt lat="43.78207" lon="1.15834">
        <ele>186.2</ele>
        <time>2024-07-11T08:26:40Z</time>
      </trkpt>
      <trkpt lat="43.78212" lon="1.15833">
        <ele>186.2</ele>
        <time>2024-07-11T08:26:41Z</time>
      </trkpt>
      <trkpt lat="43.78216" lon="1.15833">
        <ele>186.2</ele>
        <time>2024-07-11T08:26:42Z</time>
      </trkpt>
      <trkpt lat="43.78221" lon="1.15832">
        <ele>186.2</ele>
        <time>2024-07-11T08:26:43Z</time>
      </trkpt>
      <trkpt lat="43.78226" lon="1.15831">
        <ele>186.2</ele>
        <time>2024-07-11T08:26:44Z</time>
      </trkpt>
      <trkpt lat="43.78231" lon="1.15831">
        <ele>186.2</ele>
        <time>2024-07-11T08:26:45Z</time>
      </trkpt>
      <trkpt lat="43.78236" lon="1.1583">
        <ele>186.2</ele>
        <time>2024-07-11T08:26:46Z</time>
      </trkpt>
      <trkpt lat="43.78242" lon="1.1583">
        <ele>186.2</ele>
        <time>2024-07-11T08:26:47Z</time>
      </trkpt>
      <trkpt lat="43.78248" lon="1.15829">
        <ele>186.2</ele>
        <time>2024-07-11T08:26:48Z</time>
      </trkpt>
      <trkpt lat="43.78254" lon="1.15828">
        <ele>186.2</ele>
        <time>2024-07-11T08:26:49Z</time>
      </trkpt>
      <trkpt lat="43.7826" lon="1.15828">
        <ele>186.2</ele>
        <time>2024-07-11T08:26:50Z</time>
      </trkpt>
      <trkpt lat="43.78266" lon="1.15827">
        <ele>186.2</ele>
        <time>2024-07-11T08:26:51Z</time>
      </trkpt>
      <trkpt lat="43.78273" lon="1.15826">
        <ele>186.2</ele>
        <time>2024-07-11T08:26:52Z</time>
      </trkpt>
      <trkpt lat="43.78279" lon="1.15825">
        <ele>186.2</ele>
        <time>2024-07-11T08:26:53Z</time>
      </trkpt>
      <trkpt lat="43.78286" lon="1.15825">
        <ele>186.2</ele>
        <time>2024-07-11T08:26:54Z</time>
      </trkpt>
      <trkpt lat="43.78293" lon="1.15824">
        <ele>186.2</ele>
        <time>2024-07-11T08:26:55Z</time>
      </trkpt>
      <trkpt lat="43.783" lon="1.15823">
        <ele>186.2</ele>
        <time>2024-07-11T08:26:56Z</time>
      </trkpt>
      <trkpt lat="43.78307" lon="1.15822">
        <ele>186.2</ele>
        <time>2024-07-11T08:26:57Z</time>
      </trkpt>
      <trkpt lat="43.78313" lon="1.15821">
        <ele>186.2</ele>
        <time>2024-07-11T08:26:58Z</time>
      </trkpt>
      <trkpt lat="43.78321" lon="1.1582">
        <ele>186.2</ele>
        <time>2024-07-11T08:26:59Z</time>
      </trkpt>
      <trkpt lat="43.78328" lon="1.15819">
        <ele>186.2</ele>
        <time>2024-07-11T08:27:00Z</time>
      </trkpt>
      <trkpt lat="43.78335" lon="1.15818">
        <ele>186.2</ele>
        <time>2024-07-11T08:27:01Z</time>
      </trkpt>
      <trkpt lat="43.78342" lon="1.15817">
        <ele>186.2</ele>
        <time>2024-07-11T08:27:02Z</time>
      </trkpt>
      <trkpt lat="43.78349" lon="1.15815">
        <ele>186.2</ele>
        <time>2024-07-11T08:27:03Z</time>
      </trkpt>
      <trkpt lat="43.78356" lon="1.15814">
        <ele>186.2</ele>
        <time>2024-07-11T08:27:04Z</time>
      </trkpt>
      <trkpt lat="43.78363" lon="1.15812">
        <ele>186</ele>
        <time>2024-07-11T08:27:05Z</time>
      </trkpt>
      <trkpt lat="43.7837" lon="1.1581">
        <ele>186</ele>
        <time>2024-07-11T08:27:06Z</time>
      </trkpt>
      <trkpt lat="43.78378" lon="1.15808">
        <ele>186.2</ele>
        <time>2024-07-11T08:27:07Z</time>
      </trkpt>
      <trkpt lat="43.78385" lon="1.15805">
        <ele>186.2</ele>
        <time>2024-07-11T08:27:08Z</time>
      </trkpt>
      <trkpt lat="43.78392" lon="1.15803">
        <ele>186</ele>
        <time>2024-07-11T08:27:09Z</time>
      </trkpt>
      <trkpt lat="43.78399" lon="1.15801">
        <ele>186</ele>
        <time>2024-07-11T08:27:10Z</time>
      </trkpt>
      <trkpt lat="43.78406" lon="1.15798">
        <ele>186</ele>
        <time>2024-07-11T08:27:11Z</time>
      </trkpt>
      <trkpt lat="43.78414" lon="1.15796">
        <ele>185.8</ele>
        <time>2024-07-11T08:27:12Z</time>
      </trkpt>
      <trkpt lat="43.78421" lon="1.15793">
        <ele>185.8</ele>
        <time>2024-07-11T08:27:13Z</time>
      </trkpt>
      <trkpt lat="43.78428" lon="1.15791">
        <ele>185.8</ele>
        <time>2024-07-11T08:27:14Z</time>
      </trkpt>
      <trkpt lat="43.78436" lon="1.15788">
        <ele>185.6</ele>
        <time>2024-07-11T08:27:15Z</time>
      </trkpt>
      <trkpt lat="43.78443" lon="1.15786">
        <ele>185.6</ele>
        <time>2024-07-11T08:27:16Z</time>
      </trkpt>
      <trkpt lat="43.7845" lon="1.15783">
        <ele>185.4</ele>
        <time>2024-07-11T08:27:17Z</time>
      </trkpt>
      <trkpt lat="43.78458" lon="1.15781">
        <ele>185.2</ele>
        <time>2024-07-11T08:27:18Z</time>
      </trkpt>
      <trkpt lat="43.78465" lon="1.15779">
        <ele>185.2</ele>
        <time>2024-07-11T08:27:19Z</time>
      </trkpt>
      <trkpt lat="43.78472" lon="1.15776">
        <ele>185</ele>
        <time>2024-07-11T08:27:20Z</time>
      </trkpt>
      <trkpt lat="43.78479" lon="1.15774">
        <ele>185</ele>
        <time>2024-07-11T08:27:21Z</time>
      </trkpt>
      <trkpt lat="43.78487" lon="1.15771">
        <ele>184.8</ele>
        <time>2024-07-11T08:27:22Z</time>
      </trkpt>
      <trkpt lat="43.78494" lon="1.15768">
        <ele>184.6</ele>
        <time>2024-07-11T08:27:23Z</time>
      </trkpt>
      <trkpt lat="43.78502" lon="1.15766">
        <ele>184.4</ele>
        <time>2024-07-11T08:27:24Z</time>
      </trkpt>
      <trkpt lat="43.7851" lon="1.15763">
        <ele>184.2</ele>
        <time>2024-07-11T08:27:25Z</time>
      </trkpt>
      <trkpt lat="43.78518" lon="1.15761">
        <ele>184</ele>
        <time>2024-07-11T08:27:26Z</time>
      </trkpt>
      <trkpt lat="43.78526" lon="1.15758">
        <ele>183.8</ele>
        <time>2024-07-11T08:27:27Z</time>
      </trkpt>
      <trkpt lat="43.78535" lon="1.15756">
        <ele>183.8</ele>
        <time>2024-07-11T08:27:28Z</time>
      </trkpt>
      <trkpt lat="43.78543" lon="1.15753">
        <ele>183.4</ele>
        <time>2024-07-11T08:27:29Z</time>
      </trkpt>
      <trkpt lat="43.78552" lon="1.1575">
        <ele>183.2</ele>
        <time>2024-07-11T08:27:30Z</time>
      </trkpt>
      <trkpt lat="43.7856" lon="1.15747">
        <ele>182.8</ele>
        <time>2024-07-11T08:27:31Z</time>
      </trkpt>
      <trkpt lat="43.78569" lon="1.15743">
        <ele>182.2</ele>
        <time>2024-07-11T08:27:32Z</time>
      </trkpt>
      <trkpt lat="43.78577" lon="1.15738">
        <ele>182</ele>
        <time>2024-07-11T08:27:33Z</time>
      </trkpt>
      <trkpt lat="43.78585" lon="1.15732">
        <ele>181.6</ele>
        <time>2024-07-11T08:27:34Z</time>
      </trkpt>
      <trkpt lat="43.78593" lon="1.15725">
        <ele>181.6</ele>
        <time>2024-07-11T08:27:35Z</time>
      </trkpt>
      <trkpt lat="43.786" lon="1.15717">
        <ele>181.4</ele>
        <time>2024-07-11T08:27:36Z</time>
      </trkpt>
      <trkpt lat="43.78607" lon="1.15709">
        <ele>181</ele>
        <time>2024-07-11T08:27:37Z</time>
      </trkpt>
      <trkpt lat="43.78614" lon="1.157">
        <ele>180.8</ele>
        <time>2024-07-11T08:27:38Z</time>
      </trkpt>
      <trkpt lat="43.78621" lon="1.15692">
        <ele>180.6</ele>
        <time>2024-07-11T08:27:39Z</time>
      </trkpt>
      <trkpt lat="43.78628" lon="1.15684">
        <ele>180.4</ele>
        <time>2024-07-11T08:27:40Z</time>
      </trkpt>
      <trkpt lat="43.78634" lon="1.15676">
        <ele>179.8</ele>
        <time>2024-07-11T08:27:41Z</time>
      </trkpt>
      <trkpt lat="43.78641" lon="1.15668">
        <ele>179.6</ele>
        <time>2024-07-11T08:27:42Z</time>
      </trkpt>
      <trkpt lat="43.78648" lon="1.1566">
        <ele>179.2</ele>
        <time>2024-07-11T08:27:43Z</time>
      </trkpt>
      <trkpt lat="43.78654" lon="1.15652">
        <ele>178.8</ele>
        <time>2024-07-11T08:27:44Z</time>
      </trkpt>
      <trkpt lat="43.78661" lon="1.15644">
        <ele>178.6</ele>
        <time>2024-07-11T08:27:45Z</time>
      </trkpt>
      <trkpt lat="43.78667" lon="1.15636">
        <ele>178.4</ele>
        <time>2024-07-11T08:27:46Z</time>
      </trkpt>
      <trkpt lat="43.78672" lon="1.15628">
        <ele>178.4</ele>
        <time>2024-07-11T08:27:47Z</time>
      </trkpt>
      <trkpt lat="43.78679" lon="1.15623">
        <ele>178.2</ele>
        <time>2024-07-11T08:27:48Z</time>
      </trkpt>
      <trkpt lat="43.78686" lon="1.15622">
        <ele>178.2</ele>
        <time>2024-07-11T08:27:49Z</time>
      </trkpt>
      <trkpt lat="43.78694" lon="1.15625">
        <ele>178</ele>
        <time>2024-07-11T08:27:50Z</time>
      </trkpt>
      <trkpt lat="43.78702" lon="1.15629">
        <ele>177.8</ele>
        <time>2024-07-11T08:27:51Z</time>
      </trkpt>
      <trkpt lat="43.78709" lon="1.15636">
        <ele>177.8</ele>
        <time>2024-07-11T08:27:52Z</time>
      </trkpt>
      <trkpt lat="43.78715" lon="1.15643">
        <ele>177.6</ele>
        <time>2024-07-11T08:27:53Z</time>
      </trkpt>
      <trkpt lat="43.78722" lon="1.15651">
        <ele>177.6</ele>
        <time>2024-07-11T08:27:54Z</time>
      </trkpt>
      <trkpt lat="43.7873" lon="1.15657">
        <ele>177.6</ele>
        <time>2024-07-11T08:27:55Z</time>
      </trkpt>
      <trkpt lat="43.78738" lon="1.15663">
        <ele>177.4</ele>
        <time>2024-07-11T08:27:56Z</time>
      </trkpt>
      <trkpt lat="43.78746" lon="1.15668">
        <ele>177.4</ele>
        <time>2024-07-11T08:27:57Z</time>
      </trkpt>
      <trkpt lat="43.78754" lon="1.15672">
        <ele>177.2</ele>
        <time>2024-07-11T08:27:58Z</time>
      </trkpt>
      <trkpt lat="43.78763" lon="1.15675">
        <ele>177.2</ele>
        <time>2024-07-11T08:27:59Z</time>
      </trkpt>
      <trkpt lat="43.78771" lon="1.15678">
        <ele>177.2</ele>
        <time>2024-07-11T08:28:00Z</time>
      </trkpt>
      <trkpt lat="43.78779" lon="1.15679">
        <ele>177.4</ele>
        <time>2024-07-11T08:28:01Z</time>
      </trkpt>
      <trkpt lat="43.78787" lon="1.15681">
        <ele>177.6</ele>
        <time>2024-07-11T08:28:02Z</time>
      </trkpt>
      <trkpt lat="43.78794" lon="1.15682">
        <ele>177.6</ele>
        <time>2024-07-11T08:28:03Z</time>
      </trkpt>
      <trkpt lat="43.78802" lon="1.15684">
        <ele>177.6</ele>
        <time>2024-07-11T08:28:04Z</time>
      </trkpt>
      <trkpt lat="43.78809" lon="1.15685">
        <ele>177.8</ele>
        <time>2024-07-11T08:28:05Z</time>
      </trkpt>
      <trkpt lat="43.78816" lon="1.15686">
        <ele>177.8</ele>
        <time>2024-07-11T08:28:06Z</time>
      </trkpt>
      <trkpt lat="43.78822" lon="1.15687">
        <ele>178</ele>
        <time>2024-07-11T08:28:07Z</time>
      </trkpt>
      <trkpt lat="43.78829" lon="1.15689">
        <ele>178</ele>
        <time>2024-07-11T08:28:08Z</time>
      </trkpt>
      <trkpt lat="43.78836" lon="1.15691">
        <ele>178</ele>
        <time>2024-07-11T08:28:09Z</time>
      </trkpt>
      <trkpt lat="43.78842" lon="1.15692">
        <ele>178.2</ele>
        <time>2024-07-11T08:28:10Z</time>
      </trkpt>
      <trkpt lat="43.78849" lon="1.15694">
        <ele>178.6</ele>
        <time>2024-07-11T08:28:11Z</time>
      </trkpt>
      <trkpt lat="43.78855" lon="1.15697">
        <ele>179.4</ele>
        <time>2024-07-11T08:28:12Z</time>
      </trkpt>
      <trkpt lat="43.78862" lon="1.15699">
        <ele>179.6</ele>
        <time>2024-07-11T08:28:13Z</time>
      </trkpt>
      <trkpt lat="43.78868" lon="1.15702">
        <ele>180</ele>
        <time>2024-07-11T08:28:14Z</time>
      </trkpt>
      <trkpt lat="43.78874" lon="1.15705">
        <ele>180.6</ele>
        <time>2024-07-11T08:28:15Z</time>
      </trkpt>
      <trkpt lat="43.78881" lon="1.15709">
        <ele>180.8</ele>
        <time>2024-07-11T08:28:16Z</time>
      </trkpt>
      <trkpt lat="43.78887" lon="1.15712">
        <ele>181.4</ele>
        <time>2024-07-11T08:28:17Z</time>
      </trkpt>
      <trkpt lat="43.78893" lon="1.15715">
        <ele>181.8</ele>
        <time>2024-07-11T08:28:18Z</time>
      </trkpt>
      <trkpt lat="43.789" lon="1.15719">
        <ele>182.2</ele>
        <time>2024-07-11T08:28:19Z</time>
      </trkpt>
      <trkpt lat="43.78906" lon="1.15723">
        <ele>182.6</ele>
        <time>2024-07-11T08:28:20Z</time>
      </trkpt>
      <trkpt lat="43.78912" lon="1.15727">
        <ele>182.8</ele>
        <time>2024-07-11T08:28:21Z</time>
      </trkpt>
      <trkpt lat="43.78917" lon="1.15731">
        <ele>183.4</ele>
        <time>2024-07-11T08:28:22Z</time>
      </trkpt>
      <trkpt lat="43.78923" lon="1.15735">
        <ele>183.6</ele>
        <time>2024-07-11T08:28:23Z</time>
      </trkpt>
      <trkpt lat="43.78929" lon="1.15739">
        <ele>183.8</ele>
        <time>2024-07-11T08:28:24Z</time>
      </trkpt>
      <trkpt lat="43.78935" lon="1.15743">
        <ele>183.8</ele>
        <time>2024-07-11T08:28:25Z</time>
      </trkpt>
      <trkpt lat="43.78941" lon="1.15747">
        <ele>184</ele>
        <time>2024-07-11T08:28:26Z</time>
      </trkpt>
      <trkpt lat="43.78947" lon="1.15751">
        <ele>184.2</ele>
        <time>2024-07-11T08:28:27Z</time>
      </trkpt>
      <trkpt lat="43.78953" lon="1.15755">
        <ele>184.2</ele>
        <time>2024-07-11T08:28:28Z</time>
      </trkpt>
      <trkpt lat="43.78959" lon="1.15759">
        <ele>184.4</ele>
        <time>2024-07-11T08:28:29Z</time>
      </trkpt>
      <trkpt lat="43.78966" lon="1.15764">
        <ele>184.4</ele>
        <time>2024-07-11T08:28:30Z</time>
      </trkpt>
      <trkpt lat="43.78972" lon="1.15768">
        <ele>184.4</ele>
        <time>2024-07-11T08:28:31Z</time>
      </trkpt>
      <trkpt lat="43.78979" lon="1.15772">
        <ele>184.4</ele>
        <time>2024-07-11T08:28:32Z</time>
      </trkpt>
      <trkpt lat="43.78986" lon="1.15777">
        <ele>184.6</ele>
        <time>2024-07-11T08:28:33Z</time>
      </trkpt>
      <trkpt lat="43.78993" lon="1.15781">
        <ele>184.6</ele>
        <time>2024-07-11T08:28:34Z</time>
      </trkpt>
      <trkpt lat="43.78999" lon="1.15786">
        <ele>184.6</ele>
        <time>2024-07-11T08:28:35Z</time>
      </trkpt>
      <trkpt lat="43.79006" lon="1.15791">
        <ele>184.6</ele>
        <time>2024-07-11T08:28:36Z</time>
      </trkpt>
      <trkpt lat="43.79013" lon="1.15796">
        <ele>184.6</ele>
        <time>2024-07-11T08:28:37Z</time>
      </trkpt>
      <trkpt lat="43.79022" lon="1.15801">
        <ele>184.6</ele>
        <time>2024-07-11T08:28:38Z</time>
      </trkpt>
      <trkpt lat="43.79027" lon="1.15805">
        <ele>184.6</ele>
        <time>2024-07-11T08:28:39Z</time>
      </trkpt>
      <trkpt lat="43.79034" lon="1.1581">
        <ele>184.6</ele>
        <time>2024-07-11T08:28:40Z</time>
      </trkpt>
      <trkpt lat="43.79042" lon="1.15815">
        <ele>184.4</ele>
        <time>2024-07-11T08:28:41Z</time>
      </trkpt>
      <trkpt lat="43.79049" lon="1.1582">
        <ele>184.4</ele>
        <time>2024-07-11T08:28:42Z</time>
      </trkpt>
      <trkpt lat="43.79056" lon="1.15825">
        <ele>184.4</ele>
        <time>2024-07-11T08:28:43Z</time>
      </trkpt>
      <trkpt lat="43.79063" lon="1.1583">
        <ele>184</ele>
        <time>2024-07-11T08:28:44Z</time>
      </trkpt>
      <trkpt lat="43.79071" lon="1.15835">
        <ele>184</ele>
        <time>2024-07-11T08:28:45Z</time>
      </trkpt>
      <trkpt lat="43.79078" lon="1.1584">
        <ele>183.8</ele>
        <time>2024-07-11T08:28:46Z</time>
      </trkpt>
      <trkpt lat="43.79085" lon="1.15845">
        <ele>183.6</ele>
        <time>2024-07-11T08:28:47Z</time>
      </trkpt>
      <trkpt lat="43.79092" lon="1.15851">
        <ele>183.4</ele>
        <time>2024-07-11T08:28:48Z</time>
      </trkpt>
      <trkpt lat="43.79099" lon="1.15857">
        <ele>183.4</ele>
        <time>2024-07-11T08:28:49Z</time>
      </trkpt>
      <trkpt lat="43.79106" lon="1.15863">
        <ele>183.2</ele>
        <time>2024-07-11T08:28:50Z</time>
      </trkpt>
      <trkpt lat="43.79113" lon="1.15869">
        <ele>183.2</ele>
        <time>2024-07-11T08:28:51Z</time>
      </trkpt>
      <trkpt lat="43.7912" lon="1.15876">
        <ele>183.2</ele>
        <time>2024-07-11T08:28:52Z</time>
      </trkpt>
      <trkpt lat="43.79127" lon="1.15883">
        <ele>183</ele>
        <time>2024-07-11T08:28:53Z</time>
      </trkpt>
      <trkpt lat="43.79133" lon="1.15891">
        <ele>182.6</ele>
        <time>2024-07-11T08:28:54Z</time>
      </trkpt>
      <trkpt lat="43.7914" lon="1.15899">
        <ele>182.2</ele>
        <time>2024-07-11T08:28:55Z</time>
      </trkpt>
      <trkpt lat="43.79146" lon="1.15907">
        <ele>182</ele>
        <time>2024-07-11T08:28:56Z</time>
      </trkpt>
      <trkpt lat="43.79153" lon="1.15914">
        <ele>181.8</ele>
        <time>2024-07-11T08:28:57Z</time>
      </trkpt>
      <trkpt lat="43.79159" lon="1.15922">
        <ele>181.8</ele>
        <time>2024-07-11T08:28:58Z</time>
      </trkpt>
      <trkpt lat="43.79166" lon="1.1593">
        <ele>181.8</ele>
        <time>2024-07-11T08:28:59Z</time>
      </trkpt>
      <trkpt lat="43.79173" lon="1.15938">
        <ele>181.8</ele>
        <time>2024-07-11T08:29:00Z</time>
      </trkpt>
      <trkpt lat="43.79179" lon="1.15946">
        <ele>181.8</ele>
        <time>2024-07-11T08:29:01Z</time>
      </trkpt>
      <trkpt lat="43.79186" lon="1.15953">
        <ele>181.8</ele>
        <time>2024-07-11T08:29:02Z</time>
      </trkpt>
      <trkpt lat="43.79192" lon="1.1596">
        <ele>181.8</ele>
        <time>2024-07-11T08:29:03Z</time>
      </trkpt>
      <trkpt lat="43.79198" lon="1.15968">
        <ele>181.8</ele>
        <time>2024-07-11T08:29:04Z</time>
      </trkpt>
      <trkpt lat="43.79205" lon="1.15975">
        <ele>181.8</ele>
        <time>2024-07-11T08:29:05Z</time>
      </trkpt>
      <trkpt lat="43.79211" lon="1.15981">
        <ele>181.6</ele>
        <time>2024-07-11T08:29:06Z</time>
      </trkpt>
      <trkpt lat="43.79218" lon="1.15988">
        <ele>181.6</ele>
        <time>2024-07-11T08:29:07Z</time>
      </trkpt>
      <trkpt lat="43.79225" lon="1.15994">
        <ele>181.6</ele>
        <time>2024-07-11T08:29:08Z</time>
      </trkpt>
      <trkpt lat="43.79231" lon="1.16">
        <ele>181.6</ele>
        <time>2024-07-11T08:29:09Z</time>
      </trkpt>
      <trkpt lat="43.79238" lon="1.16005">
        <ele>181.6</ele>
        <time>2024-07-11T08:29:10Z</time>
      </trkpt>
      <trkpt lat="43.79245" lon="1.16011">
        <ele>181.6</ele>
        <time>2024-07-11T08:29:11Z</time>
      </trkpt>
      <trkpt lat="43.79252" lon="1.16017">
        <ele>181.6</ele>
        <time>2024-07-11T08:29:12Z</time>
      </trkpt>
      <trkpt lat="43.79259" lon="1.16023">
        <ele>181.6</ele>
        <time>2024-07-11T08:29:13Z</time>
      </trkpt>
      <trkpt lat="43.79266" lon="1.16028">
        <ele>181.8</ele>
        <time>2024-07-11T08:29:14Z</time>
      </trkpt>
      <trkpt lat="43.79273" lon="1.16034">
        <ele>181.8</ele>
        <time>2024-07-11T08:29:15Z</time>
      </trkpt>
      <trkpt lat="43.79281" lon="1.1604">
        <ele>181.8</ele>
        <time>2024-07-11T08:29:16Z</time>
      </trkpt>
      <trkpt lat="43.79288" lon="1.16046">
        <ele>181.8</ele>
        <time>2024-07-11T08:29:17Z</time>
      </trkpt>
      <trkpt lat="43.79295" lon="1.16052">
        <ele>181.8</ele>
        <time>2024-07-11T08:29:18Z</time>
      </trkpt>
      <trkpt lat="43.79302" lon="1.16057">
        <ele>181.8</ele>
        <time>2024-07-11T08:29:19Z</time>
      </trkpt>
      <trkpt lat="43.79309" lon="1.16063">
        <ele>181.8</ele>
        <time>2024-07-11T08:29:20Z</time>
      </trkpt>
      <trkpt lat="43.79316" lon="1.16069">
        <ele>181.8</ele>
        <time>2024-07-11T08:29:21Z</time>
      </trkpt>
      <trkpt lat="43.79322" lon="1.16074">
        <ele>181.6</ele>
        <time>2024-07-11T08:29:22Z</time>
      </trkpt>
      <trkpt lat="43.79329" lon="1.1608">
        <ele>181.6</ele>
        <time>2024-07-11T08:29:23Z</time>
      </trkpt>
      <trkpt lat="43.79336" lon="1.16085">
        <ele>181.4</ele>
        <time>2024-07-11T08:29:24Z</time>
      </trkpt>
      <trkpt lat="43.79343" lon="1.16091">
        <ele>181.2</ele>
        <time>2024-07-11T08:29:25Z</time>
      </trkpt>
      <trkpt lat="43.79349" lon="1.16097">
        <ele>181.2</ele>
        <time>2024-07-11T08:29:26Z</time>
      </trkpt>
      <trkpt lat="43.79355" lon="1.16102">
        <ele>181</ele>
        <time>2024-07-11T08:29:27Z</time>
      </trkpt>
      <trkpt lat="43.79362" lon="1.16107">
        <ele>181</ele>
        <time>2024-07-11T08:29:28Z</time>
      </trkpt>
      <trkpt lat="43.79368" lon="1.16112">
        <ele>180.8</ele>
        <time>2024-07-11T08:29:29Z</time>
      </trkpt>
      <trkpt lat="43.79374" lon="1.16118">
        <ele>180.8</ele>
        <time>2024-07-11T08:29:30Z</time>
      </trkpt>
      <trkpt lat="43.7938" lon="1.16123">
        <ele>180.8</ele>
        <time>2024-07-11T08:29:31Z</time>
      </trkpt>
      <trkpt lat="43.79386" lon="1.16127">
        <ele>180.8</ele>
        <time>2024-07-11T08:29:32Z</time>
      </trkpt>
      <trkpt lat="43.79392" lon="1.16132">
        <ele>180.8</ele>
        <time>2024-07-11T08:29:33Z</time>
      </trkpt>
      <trkpt lat="43.79398" lon="1.16137">
        <ele>180.6</ele>
        <time>2024-07-11T08:29:34Z</time>
      </trkpt>
      <trkpt lat="43.79405" lon="1.16141">
        <ele>180.6</ele>
        <time>2024-07-11T08:29:35Z</time>
      </trkpt>
      <trkpt lat="43.79411" lon="1.16145">
        <ele>180.4</ele>
        <time>2024-07-11T08:29:36Z</time>
      </trkpt>
      <trkpt lat="43.79417" lon="1.16149">
        <ele>180.4</ele>
        <time>2024-07-11T08:29:37Z</time>
      </trkpt>
      <trkpt lat="43.79423" lon="1.16154">
        <ele>180.4</ele>
        <time>2024-07-11T08:29:38Z</time>
      </trkpt>
      <trkpt lat="43.79429" lon="1.16157">
        <ele>180.4</ele>
        <time>2024-07-11T08:29:39Z</time>
      </trkpt>
      <trkpt lat="43.79435" lon="1.1616">
        <ele>180.4</ele>
        <time>2024-07-11T08:29:40Z</time>
      </trkpt>
      <trkpt lat="43.7944" lon="1.16164">
        <ele>180.2</ele>
        <time>2024-07-11T08:29:41Z</time>
      </trkpt>
      <trkpt lat="43.79445" lon="1.16166">
        <ele>180.2</ele>
        <time>2024-07-11T08:29:42Z</time>
      </trkpt>
      <trkpt lat="43.79449" lon="1.16169">
        <ele>180.2</ele>
        <time>2024-07-11T08:29:43Z</time>
      </trkpt>
      <trkpt lat="43.79453" lon="1.16173">
        <ele>180.2</ele>
        <time>2024-07-11T08:29:44Z</time>
      </trkpt>
      <trkpt lat="43.79457" lon="1.16176">
        <ele>180</ele>
        <time>2024-07-11T08:29:45Z</time>
      </trkpt>
      <trkpt lat="43.7946" lon="1.16181">
        <ele>180</ele>
        <time>2024-07-11T08:29:46Z</time>
      </trkpt>
      <trkpt lat="43.79461" lon="1.16186">
        <ele>180</ele>
        <time>2024-07-11T08:29:47Z</time>
      </trkpt>
      <trkpt lat="43.79462" lon="1.16193">
        <ele>180</ele>
        <time>2024-07-11T08:29:48Z</time>
      </trkpt>
      <trkpt lat="43.79464" lon="1.16199">
        <ele>180</ele>
        <time>2024-07-11T08:29:49Z</time>
      </trkpt>
      <trkpt lat="43.79467" lon="1.16202">
        <ele>179.8</ele>
        <time>2024-07-11T08:29:50Z</time>
      </trkpt>
      <trkpt lat="43.79471" lon="1.16203">
        <ele>179.6</ele>
        <time>2024-07-11T08:29:51Z</time>
      </trkpt>
      <trkpt lat="43.79474" lon="1.16201">
        <ele>179.4</ele>
        <time>2024-07-11T08:29:52Z</time>
      </trkpt>
      <trkpt lat="43.79477" lon="1.16197">
        <ele>179.4</ele>
        <time>2024-07-11T08:29:53Z</time>
      </trkpt>
      <trkpt lat="43.79476" lon="1.16193">
        <ele>179.2</ele>
        <time>2024-07-11T08:29:54Z</time>
      </trkpt>
      <trkpt lat="43.79473" lon="1.16188">
        <ele>179.2</ele>
        <time>2024-07-11T08:29:55Z</time>
      </trkpt>
      <trkpt lat="43.7947" lon="1.16184">
        <ele>179.2</ele>
        <time>2024-07-11T08:29:56Z</time>
      </trkpt>
      <trkpt lat="43.79466" lon="1.16179">
        <ele>179</ele>
        <time>2024-07-11T08:29:57Z</time>
      </trkpt>
      <trkpt lat="43.79462" lon="1.16175">
        <ele>179</ele>
        <time>2024-07-11T08:29:58Z</time>
      </trkpt>
      <trkpt lat="43.79458" lon="1.1617">
        <ele>179</ele>
        <time>2024-07-11T08:29:59Z</time>
      </trkpt>
      <trkpt lat="43.79455" lon="1.16165">
        <ele>179</ele>
        <time>2024-07-11T08:30:00Z</time>
      </trkpt>
      <trkpt lat="43.79455" lon="1.16158">
        <ele>178.8</ele>
        <time>2024-07-11T08:30:01Z</time>
      </trkpt>
      <trkpt lat="43.79456" lon="1.16151">
        <ele>178.8</ele>
        <time>2024-07-11T08:30:02Z</time>
      </trkpt>
      <trkpt lat="43.79457" lon="1.16144">
        <ele>178.8</ele>
        <time>2024-07-11T08:30:03Z</time>
      </trkpt>
      <trkpt lat="43.79459" lon="1.16136">
        <ele>178.8</ele>
        <time>2024-07-11T08:30:04Z</time>
      </trkpt>
      <trkpt lat="43.79462" lon="1.16129">
        <ele>178.8</ele>
        <time>2024-07-11T08:30:05Z</time>
      </trkpt>
      <trkpt lat="43.79464" lon="1.16121">
        <ele>178.8</ele>
        <time>2024-07-11T08:30:06Z</time>
      </trkpt>
      <trkpt lat="43.79467" lon="1.16113">
        <ele>178.8</ele>
        <time>2024-07-11T08:30:07Z</time>
      </trkpt>
      <trkpt lat="43.79469" lon="1.16105">
        <ele>178.8</ele>
        <time>2024-07-11T08:30:08Z</time>
      </trkpt>
      <trkpt lat="43.79473" lon="1.16097">
        <ele>178.8</ele>
        <time>2024-07-11T08:30:09Z</time>
      </trkpt>
      <trkpt lat="43.79476" lon="1.16089">
        <ele>178.8</ele>
        <time>2024-07-11T08:30:10Z</time>
      </trkpt>
      <trkpt lat="43.79479" lon="1.1608">
        <ele>179</ele>
        <time>2024-07-11T08:30:11Z</time>
      </trkpt>
      <trkpt lat="43.79483" lon="1.16072">
        <ele>179</ele>
        <time>2024-07-11T08:30:12Z</time>
      </trkpt>
      <trkpt lat="43.79486" lon="1.16064">
        <ele>179</ele>
        <time>2024-07-11T08:30:13Z</time>
      </trkpt>
      <trkpt lat="43.7949" lon="1.16056">
        <ele>179</ele>
        <time>2024-07-11T08:30:14Z</time>
      </trkpt>
      <trkpt lat="43.79494" lon="1.16048">
        <ele>179</ele>
        <time>2024-07-11T08:30:15Z</time>
      </trkpt>
      <trkpt lat="43.79497" lon="1.1604">
        <ele>179</ele>
        <time>2024-07-11T08:30:16Z</time>
      </trkpt>
      <trkpt lat="43.79501" lon="1.16032">
        <ele>179</ele>
        <time>2024-07-11T08:30:17Z</time>
      </trkpt>
      <trkpt lat="43.79505" lon="1.16023">
        <ele>179</ele>
        <time>2024-07-11T08:30:18Z</time>
      </trkpt>
      <trkpt lat="43.79508" lon="1.16015">
        <ele>179</ele>
        <time>2024-07-11T08:30:19Z</time>
      </trkpt>
      <trkpt lat="43.79512" lon="1.16007">
        <ele>179</ele>
        <time>2024-07-11T08:30:20Z</time>
      </trkpt>
      <trkpt lat="43.79515" lon="1.15999">
        <ele>179.2</ele>
        <time>2024-07-11T08:30:21Z</time>
      </trkpt>
      <trkpt lat="43.79519" lon="1.15991">
        <ele>179.2</ele>
        <time>2024-07-11T08:30:22Z</time>
      </trkpt>
      <trkpt lat="43.79522" lon="1.15983">
        <ele>179.2</ele>
        <time>2024-07-11T08:30:23Z</time>
      </trkpt>
      <trkpt lat="43.79524" lon="1.15974">
        <ele>179.2</ele>
        <time>2024-07-11T08:30:24Z</time>
      </trkpt>
      <trkpt lat="43.79527" lon="1.15966">
        <ele>179.2</ele>
        <time>2024-07-11T08:30:25Z</time>
      </trkpt>
      <trkpt lat="43.79529" lon="1.15958">
        <ele>179.4</ele>
        <time>2024-07-11T08:30:26Z</time>
      </trkpt>
      <trkpt lat="43.79531" lon="1.1595">
        <ele>179.4</ele>
        <time>2024-07-11T08:30:27Z</time>
      </trkpt>
      <trkpt lat="43.79533" lon="1.15942">
        <ele>179.6</ele>
        <time>2024-07-11T08:30:28Z</time>
      </trkpt>
      <trkpt lat="43.79535" lon="1.15933">
        <ele>179.8</ele>
        <time>2024-07-11T08:30:29Z</time>
      </trkpt>
      <trkpt lat="43.79537" lon="1.15925">
        <ele>180</ele>
        <time>2024-07-11T08:30:30Z</time>
      </trkpt>
      <trkpt lat="43.79538" lon="1.15916">
        <ele>180</ele>
        <time>2024-07-11T08:30:31Z</time>
      </trkpt>
      <trkpt lat="43.79539" lon="1.15907">
        <ele>180</ele>
        <time>2024-07-11T08:30:32Z</time>
      </trkpt>
      <trkpt lat="43.7954" lon="1.15897">
        <ele>180.2</ele>
        <time>2024-07-11T08:30:33Z</time>
      </trkpt>
      <trkpt lat="43.79541" lon="1.15888">
        <ele>180.2</ele>
        <time>2024-07-11T08:30:34Z</time>
      </trkpt>
      <trkpt lat="43.79543" lon="1.15879">
        <ele>180.2</ele>
        <time>2024-07-11T08:30:35Z</time>
      </trkpt>
      <trkpt lat="43.79543" lon="1.15869">
        <ele>180.4</ele>
        <time>2024-07-11T08:30:36Z</time>
      </trkpt>
      <trkpt lat="43.79544" lon="1.1586">
        <ele>180.4</ele>
        <time>2024-07-11T08:30:37Z</time>
      </trkpt>
      <trkpt lat="43.79544" lon="1.15851">
        <ele>180.4</ele>
        <time>2024-07-11T08:30:38Z</time>
      </trkpt>
      <trkpt lat="43.79545" lon="1.15841">
        <ele>180.4</ele>
        <time>2024-07-11T08:30:39Z</time>
      </trkpt>
      <trkpt lat="43.79546" lon="1.15832">
        <ele>180.4</ele>
        <time>2024-07-11T08:30:40Z</time>
      </trkpt>
      <trkpt lat="43.79547" lon="1.15823">
        <ele>180.6</ele>
        <time>2024-07-11T08:30:41Z</time>
      </trkpt>
      <trkpt lat="43.79547" lon="1.15813">
        <ele>180.6</ele>
        <time>2024-07-11T08:30:42Z</time>
      </trkpt>
      <trkpt lat="43.79547" lon="1.15804">
        <ele>180.6</ele>
        <time>2024-07-11T08:30:43Z</time>
      </trkpt>
      <trkpt lat="43.79547" lon="1.15794">
        <ele>180.8</ele>
        <time>2024-07-11T08:30:44Z</time>
      </trkpt>
      <trkpt lat="43.79547" lon="1.15784">
        <ele>180.8</ele>
        <time>2024-07-11T08:30:45Z</time>
      </trkpt>
      <trkpt lat="43.79547" lon="1.15774">
        <ele>180.8</ele>
        <time>2024-07-11T08:30:46Z</time>
      </trkpt>
      <trkpt lat="43.79547" lon="1.15765">
        <ele>180.8</ele>
        <time>2024-07-11T08:30:47Z</time>
      </trkpt>
      <trkpt lat="43.79548" lon="1.15755">
        <ele>180.8</ele>
        <time>2024-07-11T08:30:48Z</time>
      </trkpt>
      <trkpt lat="43.79547" lon="1.15745">
        <ele>180.8</ele>
        <time>2024-07-11T08:30:49Z</time>
      </trkpt>
      <trkpt lat="43.79547" lon="1.15735">
        <ele>181</ele>
        <time>2024-07-11T08:30:50Z</time>
      </trkpt>
      <trkpt lat="43.79547" lon="1.15726">
        <ele>181</ele>
        <time>2024-07-11T08:30:51Z</time>
      </trkpt>
      <trkpt lat="43.79548" lon="1.15716">
        <ele>181.2</ele>
        <time>2024-07-11T08:30:52Z</time>
      </trkpt>
      <trkpt lat="43.79548" lon="1.15706">
        <ele>181.2</ele>
        <time>2024-07-11T08:30:53Z</time>
      </trkpt>
      <trkpt lat="43.79549" lon="1.15697">
        <ele>181.2</ele>
        <time>2024-07-11T08:30:54Z</time>
      </trkpt>
      <trkpt lat="43.79549" lon="1.15687">
        <ele>181.4</ele>
        <time>2024-07-11T08:30:55Z</time>
      </trkpt>
      <trkpt lat="43.79549" lon="1.15678">
        <ele>181.4</ele>
        <time>2024-07-11T08:30:56Z</time>
      </trkpt>
      <trkpt lat="43.7955" lon="1.15669">
        <ele>181.6</ele>
        <time>2024-07-11T08:30:57Z</time>
      </trkpt>
      <trkpt lat="43.7955" lon="1.15659">
        <ele>181.6</ele>
        <time>2024-07-11T08:30:58Z</time>
      </trkpt>
      <trkpt lat="43.79551" lon="1.1565">
        <ele>181.8</ele>
        <time>2024-07-11T08:30:59Z</time>
      </trkpt>
      <trkpt lat="43.79552" lon="1.15641">
        <ele>181.8</ele>
        <time>2024-07-11T08:31:00Z</time>
      </trkpt>
      <trkpt lat="43.79553" lon="1.15632">
        <ele>182</ele>
        <time>2024-07-11T08:31:01Z</time>
      </trkpt>
      <trkpt lat="43.79554" lon="1.15623">
        <ele>182</ele>
        <time>2024-07-11T08:31:02Z</time>
      </trkpt>
      <trkpt lat="43.79555" lon="1.15614">
        <ele>182</ele>
        <time>2024-07-11T08:31:03Z</time>
      </trkpt>
      <trkpt lat="43.79556" lon="1.15605">
        <ele>182.2</ele>
        <time>2024-07-11T08:31:04Z</time>
      </trkpt>
      <trkpt lat="43.79557" lon="1.15596">
        <ele>182.4</ele>
        <time>2024-07-11T08:31:05Z</time>
      </trkpt>
      <trkpt lat="43.79558" lon="1.15587">
        <ele>182.6</ele>
        <time>2024-07-11T08:31:06Z</time>
      </trkpt>
      <trkpt lat="43.79559" lon="1.15577">
        <ele>183</ele>
        <time>2024-07-11T08:31:07Z</time>
      </trkpt>
      <trkpt lat="43.7956" lon="1.15568">
        <ele>183</ele>
        <time>2024-07-11T08:31:08Z</time>
      </trkpt>
      <trkpt lat="43.79561" lon="1.15558">
        <ele>183.2</ele>
        <time>2024-07-11T08:31:09Z</time>
      </trkpt>
      <trkpt lat="43.79562" lon="1.15548">
        <ele>183.2</ele>
        <time>2024-07-11T08:31:10Z</time>
      </trkpt>
      <trkpt lat="43.79564" lon="1.15538">
        <ele>183.4</ele>
        <time>2024-07-11T08:31:11Z</time>
      </trkpt>
      <trkpt lat="43.79565" lon="1.1553">
        <ele>183.6</ele>
        <time>2024-07-11T08:31:12Z</time>
      </trkpt>
      <trkpt lat="43.79566" lon="1.1552">
        <ele>183.6</ele>
        <time>2024-07-11T08:31:13Z</time>
      </trkpt>
      <trkpt lat="43.79568" lon="1.1551">
        <ele>183.6</ele>
        <time>2024-07-11T08:31:14Z</time>
      </trkpt>
      <trkpt lat="43.79569" lon="1.15501">
        <ele>183.6</ele>
        <time>2024-07-11T08:31:15Z</time>
      </trkpt>
      <trkpt lat="43.7957" lon="1.15491">
        <ele>183.4</ele>
        <time>2024-07-11T08:31:16Z</time>
      </trkpt>
      <trkpt lat="43.79572" lon="1.15481">
        <ele>183.4</ele>
        <time>2024-07-11T08:31:17Z</time>
      </trkpt>
      <trkpt lat="43.79574" lon="1.15472">
        <ele>183.4</ele>
        <time>2024-07-11T08:31:18Z</time>
      </trkpt>
      <trkpt lat="43.79577" lon="1.15462">
        <ele>183.4</ele>
        <time>2024-07-11T08:31:19Z</time>
      </trkpt>
      <trkpt lat="43.79579" lon="1.15452">
        <ele>183.6</ele>
        <time>2024-07-11T08:31:20Z</time>
      </trkpt>
      <trkpt lat="43.79581" lon="1.15442">
        <ele>183.6</ele>
        <time>2024-07-11T08:31:21Z</time>
      </trkpt>
      <trkpt lat="43.79583" lon="1.15433">
        <ele>183.6</ele>
        <time>2024-07-11T08:31:22Z</time>
      </trkpt>
      <trkpt lat="43.79586" lon="1.15423">
        <ele>183.8</ele>
        <time>2024-07-11T08:31:23Z</time>
      </trkpt>
      <trkpt lat="43.79588" lon="1.15413">
        <ele>184</ele>
        <time>2024-07-11T08:31:24Z</time>
      </trkpt>
      <trkpt lat="43.7959" lon="1.15404">
        <ele>184</ele>
        <time>2024-07-11T08:31:25Z</time>
      </trkpt>
      <trkpt lat="43.79593" lon="1.15394">
        <ele>184</ele>
        <time>2024-07-11T08:31:26Z</time>
      </trkpt>
      <trkpt lat="43.79595" lon="1.15385">
        <ele>184</ele>
        <time>2024-07-11T08:31:27Z</time>
      </trkpt>
      <trkpt lat="43.79597" lon="1.15375">
        <ele>184.2</ele>
        <time>2024-07-11T08:31:28Z</time>
      </trkpt>
      <trkpt lat="43.79599" lon="1.15366">
        <ele>184.2</ele>
        <time>2024-07-11T08:31:29Z</time>
      </trkpt>
      <trkpt lat="43.79602" lon="1.15356">
        <ele>184.2</ele>
        <time>2024-07-11T08:31:30Z</time>
      </trkpt>
      <trkpt lat="43.79604" lon="1.15347">
        <ele>184.4</ele>
        <time>2024-07-11T08:31:31Z</time>
      </trkpt>
      <trkpt lat="43.79607" lon="1.15337">
        <ele>184.4</ele>
        <time>2024-07-11T08:31:32Z</time>
      </trkpt>
      <trkpt lat="43.79609" lon="1.15328">
        <ele>184.4</ele>
        <time>2024-07-11T08:31:33Z</time>
      </trkpt>
      <trkpt lat="43.79611" lon="1.15318">
        <ele>184.4</ele>
        <time>2024-07-11T08:31:34Z</time>
      </trkpt>
      <trkpt lat="43.79614" lon="1.15309">
        <ele>184.4</ele>
        <time>2024-07-11T08:31:35Z</time>
      </trkpt>
      <trkpt lat="43.79616" lon="1.153">
        <ele>184.4</ele>
        <time>2024-07-11T08:31:36Z</time>
      </trkpt>
      <trkpt lat="43.79619" lon="1.1529">
        <ele>184.6</ele>
        <time>2024-07-11T08:31:37Z</time>
      </trkpt>
      <trkpt lat="43.79622" lon="1.15281">
        <ele>184.8</ele>
        <time>2024-07-11T08:31:38Z</time>
      </trkpt>
      <trkpt lat="43.79624" lon="1.15269">
        <ele>184.8</ele>
        <time>2024-07-11T08:31:39Z</time>
      </trkpt>
      <trkpt lat="43.79627" lon="1.15262">
        <ele>184.8</ele>
        <time>2024-07-11T08:31:40Z</time>
      </trkpt>
      <trkpt lat="43.79629" lon="1.15252">
        <ele>184.8</ele>
        <time>2024-07-11T08:31:41Z</time>
      </trkpt>
      <trkpt lat="43.79632" lon="1.15242">
        <ele>184.8</ele>
        <time>2024-07-11T08:31:42Z</time>
      </trkpt>
      <trkpt lat="43.79635" lon="1.15233">
        <ele>185</ele>
        <time>2024-07-11T08:31:43Z</time>
      </trkpt>
      <trkpt lat="43.79638" lon="1.15224">
        <ele>185.2</ele>
        <time>2024-07-11T08:31:44Z</time>
      </trkpt>
      <trkpt lat="43.79641" lon="1.15215">
        <ele>185.2</ele>
        <time>2024-07-11T08:31:45Z</time>
      </trkpt>
      <trkpt lat="43.79645" lon="1.15206">
        <ele>185.2</ele>
        <time>2024-07-11T08:31:46Z</time>
      </trkpt>
      <trkpt lat="43.79648" lon="1.15197">
        <ele>185.2</ele>
        <time>2024-07-11T08:31:47Z</time>
      </trkpt>
      <trkpt lat="43.79651" lon="1.15188">
        <ele>185.4</ele>
        <time>2024-07-11T08:31:48Z</time>
      </trkpt>
      <trkpt lat="43.79655" lon="1.15179">
        <ele>185.4</ele>
        <time>2024-07-11T08:31:49Z</time>
      </trkpt>
      <trkpt lat="43.79658" lon="1.1517">
        <ele>185.6</ele>
        <time>2024-07-11T08:31:50Z</time>
      </trkpt>
      <trkpt lat="43.79661" lon="1.15161">
        <ele>185.6</ele>
        <time>2024-07-11T08:31:51Z</time>
      </trkpt>
      <trkpt lat="43.79664" lon="1.15152">
        <ele>185.6</ele>
        <time>2024-07-11T08:31:52Z</time>
      </trkpt>
      <trkpt lat="43.79668" lon="1.15143">
        <ele>186</ele>
        <time>2024-07-11T08:31:53Z</time>
      </trkpt>
      <trkpt lat="43.79671" lon="1.15133">
        <ele>186</ele>
        <time>2024-07-11T08:31:54Z</time>
      </trkpt>
      <trkpt lat="43.79675" lon="1.15124">
        <ele>186</ele>
        <time>2024-07-11T08:31:55Z</time>
      </trkpt>
      <trkpt lat="43.79678" lon="1.15115">
        <ele>186</ele>
        <time>2024-07-11T08:31:56Z</time>
      </trkpt>
      <trkpt lat="43.79681" lon="1.15106">
        <ele>186.2</ele>
        <time>2024-07-11T08:31:57Z</time>
      </trkpt>
      <trkpt lat="43.79684" lon="1.15097">
        <ele>186.2</ele>
        <time>2024-07-11T08:31:58Z</time>
      </trkpt>
      <trkpt lat="43.79687" lon="1.15089">
        <ele>186.2</ele>
        <time>2024-07-11T08:31:59Z</time>
      </trkpt>
      <trkpt lat="43.7969" lon="1.15079">
        <ele>186.4</ele>
        <time>2024-07-11T08:32:00Z</time>
      </trkpt>
      <trkpt lat="43.79693" lon="1.1507">
        <ele>186.4</ele>
        <time>2024-07-11T08:32:01Z</time>
      </trkpt>
      <trkpt lat="43.79696" lon="1.15061">
        <ele>186.4</ele>
        <time>2024-07-11T08:32:02Z</time>
      </trkpt>
      <trkpt lat="43.79699" lon="1.15052">
        <ele>186.4</ele>
        <time>2024-07-11T08:32:03Z</time>
      </trkpt>
      <trkpt lat="43.79702" lon="1.15043">
        <ele>186.4</ele>
        <time>2024-07-11T08:32:04Z</time>
      </trkpt>
      <trkpt lat="43.79706" lon="1.15034">
        <ele>186.4</ele>
        <time>2024-07-11T08:32:05Z</time>
      </trkpt>
      <trkpt lat="43.79709" lon="1.15025">
        <ele>186.4</ele>
        <time>2024-07-11T08:32:06Z</time>
      </trkpt>
      <trkpt lat="43.79713" lon="1.15016">
        <ele>186.4</ele>
        <time>2024-07-11T08:32:07Z</time>
      </trkpt>
      <trkpt lat="43.79716" lon="1.15007">
        <ele>186.6</ele>
        <time>2024-07-11T08:32:08Z</time>
      </trkpt>
      <trkpt lat="43.7972" lon="1.14998">
        <ele>186.6</ele>
        <time>2024-07-11T08:32:09Z</time>
      </trkpt>
      <trkpt lat="43.79723" lon="1.14989">
        <ele>186.6</ele>
        <time>2024-07-11T08:32:10Z</time>
      </trkpt>
      <trkpt lat="43.79727" lon="1.1498">
        <ele>186.8</ele>
        <time>2024-07-11T08:32:11Z</time>
      </trkpt>
      <trkpt lat="43.7973" lon="1.14971">
        <ele>186.8</ele>
        <time>2024-07-11T08:32:12Z</time>
      </trkpt>
      <trkpt lat="43.79734" lon="1.14963">
        <ele>186.8</ele>
        <time>2024-07-11T08:32:13Z</time>
      </trkpt>
      <trkpt lat="43.79738" lon="1.14954">
        <ele>187</ele>
        <time>2024-07-11T08:32:14Z</time>
      </trkpt>
      <trkpt lat="43.79742" lon="1.14946">
        <ele>187</ele>
        <time>2024-07-11T08:32:15Z</time>
      </trkpt>
      <trkpt lat="43.79745" lon="1.14937">
        <ele>187.2</ele>
        <time>2024-07-11T08:32:16Z</time>
      </trkpt>
      <trkpt lat="43.79749" lon="1.14929">
        <ele>187.2</ele>
        <time>2024-07-11T08:32:17Z</time>
      </trkpt>
      <trkpt lat="43.79753" lon="1.1492">
        <ele>187.4</ele>
        <time>2024-07-11T08:32:18Z</time>
      </trkpt>
      <trkpt lat="43.79757" lon="1.14912">
        <ele>187.4</ele>
        <time>2024-07-11T08:32:19Z</time>
      </trkpt>
      <trkpt lat="43.7976" lon="1.14903">
        <ele>187.4</ele>
        <time>2024-07-11T08:32:20Z</time>
      </trkpt>
      <trkpt lat="43.79764" lon="1.14895">
        <ele>187.6</ele>
        <time>2024-07-11T08:32:21Z</time>
      </trkpt>
      <trkpt lat="43.79768" lon="1.14886">
        <ele>187.8</ele>
        <time>2024-07-11T08:32:22Z</time>
      </trkpt>
      <trkpt lat="43.79772" lon="1.14878">
        <ele>188</ele>
        <time>2024-07-11T08:32:23Z</time>
      </trkpt>
      <trkpt lat="43.79775" lon="1.1487">
        <ele>188</ele>
        <time>2024-07-11T08:32:24Z</time>
      </trkpt>
      <trkpt lat="43.79779" lon="1.14861">
        <ele>188.2</ele>
        <time>2024-07-11T08:32:25Z</time>
      </trkpt>
      <trkpt lat="43.79783" lon="1.14853">
        <ele>188.4</ele>
        <time>2024-07-11T08:32:26Z</time>
      </trkpt>
      <trkpt lat="43.79786" lon="1.14844">
        <ele>188.4</ele>
        <time>2024-07-11T08:32:27Z</time>
      </trkpt>
      <trkpt lat="43.79789" lon="1.14836">
        <ele>188.6</ele>
        <time>2024-07-11T08:32:28Z</time>
      </trkpt>
      <trkpt lat="43.79792" lon="1.14827">
        <ele>188.6</ele>
        <time>2024-07-11T08:32:29Z</time>
      </trkpt>
      <trkpt lat="43.79796" lon="1.14819">
        <ele>188.6</ele>
        <time>2024-07-11T08:32:30Z</time>
      </trkpt>
      <trkpt lat="43.79798" lon="1.1481">
        <ele>188.8</ele>
        <time>2024-07-11T08:32:31Z</time>
      </trkpt>
      <trkpt lat="43.79801" lon="1.14801">
        <ele>188.8</ele>
        <time>2024-07-11T08:32:32Z</time>
      </trkpt>
      <trkpt lat="43.79804" lon="1.14792">
        <ele>189</ele>
        <time>2024-07-11T08:32:33Z</time>
      </trkpt>
      <trkpt lat="43.79807" lon="1.14783">
        <ele>189</ele>
        <time>2024-07-11T08:32:34Z</time>
      </trkpt>
      <trkpt lat="43.7981" lon="1.14774">
        <ele>189</ele>
        <time>2024-07-11T08:32:35Z</time>
      </trkpt>
      <trkpt lat="43.79812" lon="1.14765">
        <ele>189.4</ele>
        <time>2024-07-11T08:32:36Z</time>
      </trkpt>
      <trkpt lat="43.79815" lon="1.14756">
        <ele>189.6</ele>
        <time>2024-07-11T08:32:37Z</time>
      </trkpt>
      <trkpt lat="43.79818" lon="1.14748">
        <ele>190</ele>
        <time>2024-07-11T08:32:38Z</time>
      </trkpt>
      <trkpt lat="43.79821" lon="1.14739">
        <ele>190</ele>
        <time>2024-07-11T08:32:39Z</time>
      </trkpt>
      <trkpt lat="43.79824" lon="1.14731">
        <ele>190.2</ele>
        <time>2024-07-11T08:32:40Z</time>
      </trkpt>
      <trkpt lat="43.79827" lon="1.14722">
        <ele>190.2</ele>
        <time>2024-07-11T08:32:41Z</time>
      </trkpt>
      <trkpt lat="43.7983" lon="1.14714">
        <ele>190.4</ele>
        <time>2024-07-11T08:32:42Z</time>
      </trkpt>
      <trkpt lat="43.79833" lon="1.14706">
        <ele>190.4</ele>
        <time>2024-07-11T08:32:43Z</time>
      </trkpt>
      <trkpt lat="43.79837" lon="1.14697">
        <ele>190.4</ele>
        <time>2024-07-11T08:32:44Z</time>
      </trkpt>
      <trkpt lat="43.79841" lon="1.14689">
        <ele>190.6</ele>
        <time>2024-07-11T08:32:45Z</time>
      </trkpt>
      <trkpt lat="43.79845" lon="1.14682">
        <ele>190.8</ele>
        <time>2024-07-11T08:32:46Z</time>
      </trkpt>
      <trkpt lat="43.7985" lon="1.14674">
        <ele>191</ele>
        <time>2024-07-11T08:32:47Z</time>
      </trkpt>
      <trkpt lat="43.79855" lon="1.14667">
        <ele>191</ele>
        <time>2024-07-11T08:32:48Z</time>
      </trkpt>
      <trkpt lat="43.79861" lon="1.14661">
        <ele>191</ele>
        <time>2024-07-11T08:32:49Z</time>
      </trkpt>
      <trkpt lat="43.79866" lon="1.14655">
        <ele>191</ele>
        <time>2024-07-11T08:32:50Z</time>
      </trkpt>
      <trkpt lat="43.79872" lon="1.14648">
        <ele>191</ele>
        <time>2024-07-11T08:32:51Z</time>
      </trkpt>
      <trkpt lat="43.79877" lon="1.14643">
        <ele>191</ele>
        <time>2024-07-11T08:32:52Z</time>
      </trkpt>
      <trkpt lat="43.79883" lon="1.14637">
        <ele>191</ele>
        <time>2024-07-11T08:32:53Z</time>
      </trkpt>
      <trkpt lat="43.79889" lon="1.14631">
        <ele>191</ele>
        <time>2024-07-11T08:32:54Z</time>
      </trkpt>
      <trkpt lat="43.79894" lon="1.14625">
        <ele>191</ele>
        <time>2024-07-11T08:32:55Z</time>
      </trkpt>
      <trkpt lat="43.799" lon="1.14619">
        <ele>191</ele>
        <time>2024-07-11T08:32:56Z</time>
      </trkpt>
      <trkpt lat="43.79905" lon="1.14613">
        <ele>191.2</ele>
        <time>2024-07-11T08:32:57Z</time>
      </trkpt>
      <trkpt lat="43.79911" lon="1.14607">
        <ele>191.2</ele>
        <time>2024-07-11T08:32:58Z</time>
      </trkpt>
      <trkpt lat="43.79917" lon="1.146">
        <ele>191.2</ele>
        <time>2024-07-11T08:32:59Z</time>
      </trkpt>
      <trkpt lat="43.79923" lon="1.14594">
        <ele>191.4</ele>
        <time>2024-07-11T08:33:00Z</time>
      </trkpt>
      <trkpt lat="43.79928" lon="1.14588">
        <ele>191.4</ele>
        <time>2024-07-11T08:33:01Z</time>
      </trkpt>
      <trkpt lat="43.79934" lon="1.14582">
        <ele>191.6</ele>
        <time>2024-07-11T08:33:02Z</time>
      </trkpt>
      <trkpt lat="43.79939" lon="1.14576">
        <ele>191.6</ele>
        <time>2024-07-11T08:33:03Z</time>
      </trkpt>
      <trkpt lat="43.79945" lon="1.1457">
        <ele>191.8</ele>
        <time>2024-07-11T08:33:04Z</time>
      </trkpt>
      <trkpt lat="43.7995" lon="1.14564">
        <ele>191.8</ele>
        <time>2024-07-11T08:33:05Z</time>
      </trkpt>
      <trkpt lat="43.79956" lon="1.14558">
        <ele>192</ele>
        <time>2024-07-11T08:33:06Z</time>
      </trkpt>
      <trkpt lat="43.79961" lon="1.14552">
        <ele>192.2</ele>
        <time>2024-07-11T08:33:07Z</time>
      </trkpt>
      <trkpt lat="43.79967" lon="1.14546">
        <ele>192.2</ele>
        <time>2024-07-11T08:33:08Z</time>
      </trkpt>
      <trkpt lat="43.79972" lon="1.1454">
        <ele>192.2</ele>
        <time>2024-07-11T08:33:09Z</time>
      </trkpt>
      <trkpt lat="43.79978" lon="1.14534">
        <ele>192.4</ele>
        <time>2024-07-11T08:33:10Z</time>
      </trkpt>
      <trkpt lat="43.79983" lon="1.14528">
        <ele>192.4</ele>
        <time>2024-07-11T08:33:11Z</time>
      </trkpt>
      <trkpt lat="43.79989" lon="1.14522">
        <ele>192.6</ele>
        <time>2024-07-11T08:33:12Z</time>
      </trkpt>
      <trkpt lat="43.79994" lon="1.14515">
        <ele>192.8</ele>
        <time>2024-07-11T08:33:13Z</time>
      </trkpt>
      <trkpt lat="43.79999" lon="1.14508">
        <ele>192.8</ele>
        <time>2024-07-11T08:33:14Z</time>
      </trkpt>
      <trkpt lat="43.80004" lon="1.145">
        <ele>193</ele>
        <time>2024-07-11T08:33:15Z</time>
      </trkpt>
      <trkpt lat="43.80009" lon="1.14493">
        <ele>193</ele>
        <time>2024-07-11T08:33:16Z</time>
      </trkpt>
      <trkpt lat="43.80013" lon="1.14485">
        <ele>193.2</ele>
        <time>2024-07-11T08:33:17Z</time>
      </trkpt>
      <trkpt lat="43.80017" lon="1.14476">
        <ele>193.2</ele>
        <time>2024-07-11T08:33:18Z</time>
      </trkpt>
      <trkpt lat="43.80021" lon="1.14468">
        <ele>193.2</ele>
        <time>2024-07-11T08:33:19Z</time>
      </trkpt>
      <trkpt lat="43.80025" lon="1.14459">
        <ele>193.4</ele>
        <time>2024-07-11T08:33:20Z</time>
      </trkpt>
      <trkpt lat="43.80029" lon="1.1445">
        <ele>193.6</ele>
        <time>2024-07-11T08:33:21Z</time>
      </trkpt>
      <trkpt lat="43.80033" lon="1.14441">
        <ele>193.6</ele>
        <time>2024-07-11T08:33:22Z</time>
      </trkpt>
      <trkpt lat="43.80037" lon="1.14433">
        <ele>193.8</ele>
        <time>2024-07-11T08:33:23Z</time>
      </trkpt>
      <trkpt lat="43.80041" lon="1.14424">
        <ele>194</ele>
        <time>2024-07-11T08:33:24Z</time>
      </trkpt>
      <trkpt lat="43.80045" lon="1.14416">
        <ele>194.2</ele>
        <time>2024-07-11T08:33:25Z</time>
      </trkpt>
      <trkpt lat="43.80049" lon="1.14407">
        <ele>194.4</ele>
        <time>2024-07-11T08:33:26Z</time>
      </trkpt>
      <trkpt lat="43.80053" lon="1.14399">
        <ele>194.4</ele>
        <time>2024-07-11T08:33:27Z</time>
      </trkpt>
      <trkpt lat="43.80057" lon="1.1439">
        <ele>194.6</ele>
        <time>2024-07-11T08:33:28Z</time>
      </trkpt>
      <trkpt lat="43.80061" lon="1.14381">
        <ele>194.6</ele>
        <time>2024-07-11T08:33:29Z</time>
      </trkpt>
      <trkpt lat="43.80065" lon="1.14373">
        <ele>194.6</ele>
        <time>2024-07-11T08:33:30Z</time>
      </trkpt>
      <trkpt lat="43.80069" lon="1.14364">
        <ele>194.8</ele>
        <time>2024-07-11T08:33:31Z</time>
      </trkpt>
      <trkpt lat="43.80073" lon="1.14355">
        <ele>194.8</ele>
        <time>2024-07-11T08:33:32Z</time>
      </trkpt>
      <trkpt lat="43.80077" lon="1.14347">
        <ele>194.8</ele>
        <time>2024-07-11T08:33:33Z</time>
      </trkpt>
      <trkpt lat="43.80081" lon="1.14338">
        <ele>195</ele>
        <time>2024-07-11T08:33:34Z</time>
      </trkpt>
      <trkpt lat="43.80085" lon="1.14329">
        <ele>194.8</ele>
        <time>2024-07-11T08:33:35Z</time>
      </trkpt>
      <trkpt lat="43.80089" lon="1.14321">
        <ele>194.8</ele>
        <time>2024-07-11T08:33:36Z</time>
      </trkpt>
      <trkpt lat="43.80093" lon="1.14312">
        <ele>194.8</ele>
        <time>2024-07-11T08:33:37Z</time>
      </trkpt>
      <trkpt lat="43.80098" lon="1.14302">
        <ele>195.2</ele>
        <time>2024-07-11T08:33:38Z</time>
      </trkpt>
      <trkpt lat="43.80101" lon="1.14293">
        <ele>195.4</ele>
        <time>2024-07-11T08:33:39Z</time>
      </trkpt>
      <trkpt lat="43.80105" lon="1.14284">
        <ele>195.6</ele>
        <time>2024-07-11T08:33:40Z</time>
      </trkpt>
      <trkpt lat="43.80108" lon="1.14277">
        <ele>195.6</ele>
        <time>2024-07-11T08:33:41Z</time>
      </trkpt>
      <trkpt lat="43.80112" lon="1.14267">
        <ele>195.6</ele>
        <time>2024-07-11T08:33:42Z</time>
      </trkpt>
      <trkpt lat="43.80115" lon="1.14258">
        <ele>195.6</ele>
        <time>2024-07-11T08:33:43Z</time>
      </trkpt>
      <trkpt lat="43.80118" lon="1.14249">
        <ele>195.6</ele>
        <time>2024-07-11T08:33:44Z</time>
      </trkpt>
      <trkpt lat="43.80122" lon="1.14239">
        <ele>195.6</ele>
        <time>2024-07-11T08:33:45Z</time>
      </trkpt>
      <trkpt lat="43.80125" lon="1.14229">
        <ele>195.8</ele>
        <time>2024-07-11T08:33:46Z</time>
      </trkpt>
      <trkpt lat="43.80128" lon="1.1422">
        <ele>195.8</ele>
        <time>2024-07-11T08:33:47Z</time>
      </trkpt>
      <trkpt lat="43.80132" lon="1.14208">
        <ele>196</ele>
        <time>2024-07-11T08:33:48Z</time>
      </trkpt>
      <trkpt lat="43.80135" lon="1.142">
        <ele>196.2</ele>
        <time>2024-07-11T08:33:49Z</time>
      </trkpt>
      <trkpt lat="43.80139" lon="1.14189">
        <ele>196.2</ele>
        <time>2024-07-11T08:33:50Z</time>
      </trkpt>
      <trkpt lat="43.80141" lon="1.14181">
        <ele>196.4</ele>
        <time>2024-07-11T08:33:51Z</time>
      </trkpt>
      <trkpt lat="43.80144" lon="1.14171">
        <ele>196.6</ele>
        <time>2024-07-11T08:33:52Z</time>
      </trkpt>
      <trkpt lat="43.80148" lon="1.1416">
        <ele>196.6</ele>
        <time>2024-07-11T08:33:53Z</time>
      </trkpt>
      <trkpt lat="43.80152" lon="1.1415">
        <ele>196.6</ele>
        <time>2024-07-11T08:33:54Z</time>
      </trkpt>
      <trkpt lat="43.80154" lon="1.14143">
        <ele>196.6</ele>
        <time>2024-07-11T08:33:55Z</time>
      </trkpt>
      <trkpt lat="43.80157" lon="1.14133">
        <ele>196.8</ele>
        <time>2024-07-11T08:33:56Z</time>
      </trkpt>
      <trkpt lat="43.8016" lon="1.14124">
        <ele>196.8</ele>
        <time>2024-07-11T08:33:57Z</time>
      </trkpt>
      <trkpt lat="43.80164" lon="1.14112">
        <ele>196.8</ele>
        <time>2024-07-11T08:33:58Z</time>
      </trkpt>
      <trkpt lat="43.80167" lon="1.14105">
        <ele>196.6</ele>
        <time>2024-07-11T08:33:59Z</time>
      </trkpt>
      <trkpt lat="43.80171" lon="1.14094">
        <ele>196.6</ele>
        <time>2024-07-11T08:34:00Z</time>
      </trkpt>
      <trkpt lat="43.80173" lon="1.14086">
        <ele>196.6</ele>
        <time>2024-07-11T08:34:01Z</time>
      </trkpt>
      <trkpt lat="43.80176" lon="1.14077">
        <ele>196.8</ele>
        <time>2024-07-11T08:34:02Z</time>
      </trkpt>
      <trkpt lat="43.8018" lon="1.14068">
        <ele>196.8</ele>
        <time>2024-07-11T08:34:03Z</time>
      </trkpt>
      <trkpt lat="43.80184" lon="1.14057">
        <ele>197</ele>
        <time>2024-07-11T08:34:04Z</time>
      </trkpt>
      <trkpt lat="43.80187" lon="1.14048">
        <ele>197</ele>
        <time>2024-07-11T08:34:05Z</time>
      </trkpt>
      <trkpt lat="43.80189" lon="1.14041">
        <ele>197.4</ele>
        <time>2024-07-11T08:34:06Z</time>
      </trkpt>
      <trkpt lat="43.80192" lon="1.14032">
        <ele>197.4</ele>
        <time>2024-07-11T08:34:07Z</time>
      </trkpt>
      <trkpt lat="43.80195" lon="1.14023">
        <ele>197.6</ele>
        <time>2024-07-11T08:34:08Z</time>
      </trkpt>
      <trkpt lat="43.80199" lon="1.14012">
        <ele>197.8</ele>
        <time>2024-07-11T08:34:09Z</time>
      </trkpt>
      <trkpt lat="43.80202" lon="1.14005">
        <ele>197.8</ele>
        <time>2024-07-11T08:34:10Z</time>
      </trkpt>
      <trkpt lat="43.80205" lon="1.13996">
        <ele>198</ele>
        <time>2024-07-11T08:34:11Z</time>
      </trkpt>
      <trkpt lat="43.80209" lon="1.13986">
        <ele>198</ele>
        <time>2024-07-11T08:34:12Z</time>
      </trkpt>
      <trkpt lat="43.80212" lon="1.13977">
        <ele>198.2</ele>
        <time>2024-07-11T08:34:13Z</time>
      </trkpt>
      <trkpt lat="43.80215" lon="1.13968">
        <ele>198.4</ele>
        <time>2024-07-11T08:34:14Z</time>
      </trkpt>
      <trkpt lat="43.80217" lon="1.1396">
        <ele>198.6</ele>
        <time>2024-07-11T08:34:15Z</time>
      </trkpt>
      <trkpt lat="43.8022" lon="1.13951">
        <ele>199</ele>
        <time>2024-07-11T08:34:16Z</time>
      </trkpt>
      <trkpt lat="43.80223" lon="1.13942">
        <ele>199</ele>
        <time>2024-07-11T08:34:17Z</time>
      </trkpt>
      <trkpt lat="43.80226" lon="1.13932">
        <ele>199.2</ele>
        <time>2024-07-11T08:34:18Z</time>
      </trkpt>
      <trkpt lat="43.80229" lon="1.13923">
        <ele>199.4</ele>
        <time>2024-07-11T08:34:19Z</time>
      </trkpt>
      <trkpt lat="43.80231" lon="1.13916">
        <ele>199.6</ele>
        <time>2024-07-11T08:34:20Z</time>
      </trkpt>
      <trkpt lat="43.80234" lon="1.13907">
        <ele>199.6</ele>
        <time>2024-07-11T08:34:21Z</time>
      </trkpt>
      <trkpt lat="43.80237" lon="1.13898">
        <ele>199.8</ele>
        <time>2024-07-11T08:34:22Z</time>
      </trkpt>
      <trkpt lat="43.8024" lon="1.13889">
        <ele>199.8</ele>
        <time>2024-07-11T08:34:23Z</time>
      </trkpt>
      <trkpt lat="43.80243" lon="1.13879">
        <ele>200</ele>
        <time>2024-07-11T08:34:24Z</time>
      </trkpt>
      <trkpt lat="43.80245" lon="1.13872">
        <ele>200.2</ele>
        <time>2024-07-11T08:34:25Z</time>
      </trkpt>
      <trkpt lat="43.80248" lon="1.13863">
        <ele>200.2</ele>
        <time>2024-07-11T08:34:26Z</time>
      </trkpt>
      <trkpt lat="43.80251" lon="1.13854">
        <ele>200.4</ele>
        <time>2024-07-11T08:34:27Z</time>
      </trkpt>
      <trkpt lat="43.80253" lon="1.13845">
        <ele>200.8</ele>
        <time>2024-07-11T08:34:28Z</time>
      </trkpt>
      <trkpt lat="43.80256" lon="1.13837">
        <ele>201</ele>
        <time>2024-07-11T08:34:29Z</time>
      </trkpt>
      <trkpt lat="43.80259" lon="1.13828">
        <ele>201.4</ele>
        <time>2024-07-11T08:34:30Z</time>
      </trkpt>
      <trkpt lat="43.80261" lon="1.1382">
        <ele>201.6</ele>
        <time>2024-07-11T08:34:31Z</time>
      </trkpt>
      <trkpt lat="43.80264" lon="1.13811">
        <ele>202</ele>
        <time>2024-07-11T08:34:32Z</time>
      </trkpt>
      <trkpt lat="43.80266" lon="1.13803">
        <ele>202.2</ele>
        <time>2024-07-11T08:34:33Z</time>
      </trkpt>
      <trkpt lat="43.80269" lon="1.13793">
        <ele>202.6</ele>
        <time>2024-07-11T08:34:34Z</time>
      </trkpt>
      <trkpt lat="43.80271" lon="1.13786">
        <ele>202.8</ele>
        <time>2024-07-11T08:34:35Z</time>
      </trkpt>
      <trkpt lat="43.80274" lon="1.13778">
        <ele>202.8</ele>
        <time>2024-07-11T08:34:36Z</time>
      </trkpt>
      <trkpt lat="43.80276" lon="1.13769">
        <ele>203</ele>
        <time>2024-07-11T08:34:37Z</time>
      </trkpt>
      <trkpt lat="43.80279" lon="1.13761">
        <ele>203</ele>
        <time>2024-07-11T08:34:38Z</time>
      </trkpt>
      <trkpt lat="43.80282" lon="1.13751">
        <ele>203.4</ele>
        <time>2024-07-11T08:34:39Z</time>
      </trkpt>
      <trkpt lat="43.80283" lon="1.13745">
        <ele>203.8</ele>
        <time>2024-07-11T08:34:40Z</time>
      </trkpt>
      <trkpt lat="43.80286" lon="1.13736">
        <ele>204</ele>
        <time>2024-07-11T08:34:41Z</time>
      </trkpt>
      <trkpt lat="43.80288" lon="1.13727">
        <ele>204.2</ele>
        <time>2024-07-11T08:34:42Z</time>
      </trkpt>
      <trkpt lat="43.80289" lon="1.1372">
        <ele>204.4</ele>
        <time>2024-07-11T08:34:43Z</time>
      </trkpt>
      <trkpt lat="43.80292" lon="1.13711">
        <ele>205</ele>
        <time>2024-07-11T08:34:44Z</time>
      </trkpt>
      <trkpt lat="43.80293" lon="1.13704">
        <ele>205.2</ele>
        <time>2024-07-11T08:34:45Z</time>
      </trkpt>
      <trkpt lat="43.80295" lon="1.13696">
        <ele>205.6</ele>
        <time>2024-07-11T08:34:46Z</time>
      </trkpt>
      <trkpt lat="43.80296" lon="1.13687">
        <ele>205.8</ele>
        <time>2024-07-11T08:34:47Z</time>
      </trkpt>
      <trkpt lat="43.80298" lon="1.13677">
        <ele>206</ele>
        <time>2024-07-11T08:34:48Z</time>
      </trkpt>
      <trkpt lat="43.803" lon="1.13669">
        <ele>206.6</ele>
        <time>2024-07-11T08:34:49Z</time>
      </trkpt>
      <trkpt lat="43.80301" lon="1.13662">
        <ele>206.8</ele>
        <time>2024-07-11T08:34:50Z</time>
      </trkpt>
      <trkpt lat="43.80302" lon="1.13654">
        <ele>207.2</ele>
        <time>2024-07-11T08:34:51Z</time>
      </trkpt>
      <trkpt lat="43.80303" lon="1.13646">
        <ele>207.4</ele>
        <time>2024-07-11T08:34:52Z</time>
      </trkpt>
      <trkpt lat="43.80304" lon="1.13636">
        <ele>207.6</ele>
        <time>2024-07-11T08:34:53Z</time>
      </trkpt>
      <trkpt lat="43.80305" lon="1.13631">
        <ele>207.8</ele>
        <time>2024-07-11T08:34:54Z</time>
      </trkpt>
      <trkpt lat="43.80306" lon="1.13623">
        <ele>208</ele>
        <time>2024-07-11T08:34:55Z</time>
      </trkpt>
      <trkpt lat="43.80306" lon="1.13614">
        <ele>208.4</ele>
        <time>2024-07-11T08:34:56Z</time>
      </trkpt>
      <trkpt lat="43.80306" lon="1.13609">
        <ele>208.6</ele>
        <time>2024-07-11T08:34:57Z</time>
      </trkpt>
      <trkpt lat="43.80305" lon="1.136">
        <ele>208.8</ele>
        <time>2024-07-11T08:34:58Z</time>
      </trkpt>
      <trkpt lat="43.80305" lon="1.13594">
        <ele>209.2</ele>
        <time>2024-07-11T08:34:59Z</time>
      </trkpt>
      <trkpt lat="43.80305" lon="1.13587">
        <ele>209.2</ele>
        <time>2024-07-11T08:35:00Z</time>
      </trkpt>
      <trkpt lat="43.80305" lon="1.13581">
        <ele>209.4</ele>
        <time>2024-07-11T08:35:01Z</time>
      </trkpt>
      <trkpt lat="43.80306" lon="1.13574">
        <ele>209.4</ele>
        <time>2024-07-11T08:35:02Z</time>
      </trkpt>
      <trkpt lat="43.80306" lon="1.13567">
        <ele>210.2</ele>
        <time>2024-07-11T08:35:03Z</time>
      </trkpt>
      <trkpt lat="43.80306" lon="1.1356">
        <ele>210.4</ele>
        <time>2024-07-11T08:35:04Z</time>
      </trkpt>
      <trkpt lat="43.80307" lon="1.13553">
        <ele>211</ele>
        <time>2024-07-11T08:35:05Z</time>
      </trkpt>
      <trkpt lat="43.80308" lon="1.13544">
        <ele>211.4</ele>
        <time>2024-07-11T08:35:06Z</time>
      </trkpt>
      <trkpt lat="43.80309" lon="1.13537">
        <ele>211.6</ele>
        <time>2024-07-11T08:35:07Z</time>
      </trkpt>
      <trkpt lat="43.80311" lon="1.13531">
        <ele>211.8</ele>
        <time>2024-07-11T08:35:08Z</time>
      </trkpt>
      <trkpt lat="43.80313" lon="1.13523">
        <ele>211.8</ele>
        <time>2024-07-11T08:35:09Z</time>
      </trkpt>
      <trkpt lat="43.80316" lon="1.13516">
        <ele>212</ele>
        <time>2024-07-11T08:35:10Z</time>
      </trkpt>
      <trkpt lat="43.80319" lon="1.13508">
        <ele>212.2</ele>
        <time>2024-07-11T08:35:11Z</time>
      </trkpt>
      <trkpt lat="43.80323" lon="1.135">
        <ele>212.2</ele>
        <time>2024-07-11T08:35:12Z</time>
      </trkpt>
      <trkpt lat="43.80325" lon="1.13494">
        <ele>212.2</ele>
        <time>2024-07-11T08:35:13Z</time>
      </trkpt>
      <trkpt lat="43.80328" lon="1.13486">
        <ele>212.4</ele>
        <time>2024-07-11T08:35:14Z</time>
      </trkpt>
      <trkpt lat="43.80332" lon="1.13476">
        <ele>212.2</ele>
        <time>2024-07-11T08:35:15Z</time>
      </trkpt>
      <trkpt lat="43.80336" lon="1.13468">
        <ele>212.2</ele>
        <time>2024-07-11T08:35:16Z</time>
      </trkpt>
      <trkpt lat="43.80339" lon="1.13462">
        <ele>212</ele>
        <time>2024-07-11T08:35:17Z</time>
      </trkpt>
      <trkpt lat="43.80341" lon="1.13454">
        <ele>212</ele>
        <time>2024-07-11T08:35:18Z</time>
      </trkpt>
      <trkpt lat="43.80344" lon="1.13446">
        <ele>212</ele>
        <time>2024-07-11T08:35:19Z</time>
      </trkpt>
      <trkpt lat="43.80347" lon="1.13438">
        <ele>211.6</ele>
        <time>2024-07-11T08:35:20Z</time>
      </trkpt>
      <trkpt lat="43.8035" lon="1.13429">
        <ele>211.6</ele>
        <time>2024-07-11T08:35:21Z</time>
      </trkpt>
      <trkpt lat="43.80353" lon="1.1342">
        <ele>211.2</ele>
        <time>2024-07-11T08:35:22Z</time>
      </trkpt>
      <trkpt lat="43.80356" lon="1.1341">
        <ele>211</ele>
        <time>2024-07-11T08:35:23Z</time>
      </trkpt>
      <trkpt lat="43.80358" lon="1.134">
        <ele>210.6</ele>
        <time>2024-07-11T08:35:24Z</time>
      </trkpt>
      <trkpt lat="43.80361" lon="1.1339">
        <ele>210.4</ele>
        <time>2024-07-11T08:35:25Z</time>
      </trkpt>
      <trkpt lat="43.80364" lon="1.1338">
        <ele>210.2</ele>
        <time>2024-07-11T08:35:26Z</time>
      </trkpt>
      <trkpt lat="43.80367" lon="1.1337">
        <ele>210</ele>
        <time>2024-07-11T08:35:27Z</time>
      </trkpt>
      <trkpt lat="43.8037" lon="1.13358">
        <ele>209.8</ele>
        <time>2024-07-11T08:35:28Z</time>
      </trkpt>
      <trkpt lat="43.80372" lon="1.1335">
        <ele>209.8</ele>
        <time>2024-07-11T08:35:29Z</time>
      </trkpt>
      <trkpt lat="43.80374" lon="1.13337">
        <ele>209.6</ele>
        <time>2024-07-11T08:35:30Z</time>
      </trkpt>
      <trkpt lat="43.80376" lon="1.13325">
        <ele>209.4</ele>
        <time>2024-07-11T08:35:31Z</time>
      </trkpt>
      <trkpt lat="43.80378" lon="1.13312">
        <ele>209</ele>
        <time>2024-07-11T08:35:32Z</time>
      </trkpt>
      <trkpt lat="43.8038" lon="1.13298">
        <ele>208.8</ele>
        <time>2024-07-11T08:35:33Z</time>
      </trkpt>
      <trkpt lat="43.80382" lon="1.13286">
        <ele>208</ele>
        <time>2024-07-11T08:35:34Z</time>
      </trkpt>
      <trkpt lat="43.80383" lon="1.13273">
        <ele>207.6</ele>
        <time>2024-07-11T08:35:35Z</time>
      </trkpt>
      <trkpt lat="43.80384" lon="1.1326">
        <ele>207.2</ele>
        <time>2024-07-11T08:35:36Z</time>
      </trkpt>
      <trkpt lat="43.80386" lon="1.13247">
        <ele>206.8</ele>
        <time>2024-07-11T08:35:37Z</time>
      </trkpt>
      <trkpt lat="43.80388" lon="1.13234">
        <ele>206.4</ele>
        <time>2024-07-11T08:35:38Z</time>
      </trkpt>
      <trkpt lat="43.80389" lon="1.13223">
        <ele>205.8</ele>
        <time>2024-07-11T08:35:39Z</time>
      </trkpt>
      <trkpt lat="43.80391" lon="1.13211">
        <ele>205.8</ele>
        <time>2024-07-11T08:35:40Z</time>
      </trkpt>
      <trkpt lat="43.80393" lon="1.13196">
        <ele>205.4</ele>
        <time>2024-07-11T08:35:41Z</time>
      </trkpt>
      <trkpt lat="43.80394" lon="1.13187">
        <ele>205.2</ele>
        <time>2024-07-11T08:35:42Z</time>
      </trkpt>
      <trkpt lat="43.80396" lon="1.13175">
        <ele>205.2</ele>
        <time>2024-07-11T08:35:43Z</time>
      </trkpt>
      <trkpt lat="43.80398" lon="1.13162">
        <ele>205.2</ele>
        <time>2024-07-11T08:35:44Z</time>
      </trkpt>
      <trkpt lat="43.80399" lon="1.13153">
        <ele>205</ele>
        <time>2024-07-11T08:35:45Z</time>
      </trkpt>
      <trkpt lat="43.80401" lon="1.13142">
        <ele>205</ele>
        <time>2024-07-11T08:35:46Z</time>
      </trkpt>
      <trkpt lat="43.80403" lon="1.13131">
        <ele>205</ele>
        <time>2024-07-11T08:35:47Z</time>
      </trkpt>
      <trkpt lat="43.80405" lon="1.13119">
        <ele>205</ele>
        <time>2024-07-11T08:35:48Z</time>
      </trkpt>
      <trkpt lat="43.80407" lon="1.13106">
        <ele>205</ele>
        <time>2024-07-11T08:35:49Z</time>
      </trkpt>
      <trkpt lat="43.80409" lon="1.13095">
        <ele>205</ele>
        <time>2024-07-11T08:35:50Z</time>
      </trkpt>
      <trkpt lat="43.8041" lon="1.13085">
        <ele>205</ele>
        <time>2024-07-11T08:35:51Z</time>
      </trkpt>
      <trkpt lat="43.80411" lon="1.13078">
        <ele>205</ele>
        <time>2024-07-11T08:35:52Z</time>
      </trkpt>
      <trkpt lat="43.80412" lon="1.13069">
        <ele>205</ele>
        <time>2024-07-11T08:35:53Z</time>
      </trkpt>
      <trkpt lat="43.80414" lon="1.1306">
        <ele>205</ele>
        <time>2024-07-11T08:35:54Z</time>
      </trkpt>
      <trkpt lat="43.80416" lon="1.13048">
        <ele>205.2</ele>
        <time>2024-07-11T08:35:55Z</time>
      </trkpt>
      <trkpt lat="43.80417" lon="1.1304">
        <ele>205.6</ele>
        <time>2024-07-11T08:35:56Z</time>
      </trkpt>
      <trkpt lat="43.80419" lon="1.13031">
        <ele>205.8</ele>
        <time>2024-07-11T08:35:57Z</time>
      </trkpt>
      <trkpt lat="43.80421" lon="1.13023">
        <ele>206</ele>
        <time>2024-07-11T08:35:58Z</time>
      </trkpt>
      <trkpt lat="43.80423" lon="1.13014">
        <ele>206.2</ele>
        <time>2024-07-11T08:35:59Z</time>
      </trkpt>
      <trkpt lat="43.80426" lon="1.13004">
        <ele>206.4</ele>
        <time>2024-07-11T08:36:00Z</time>
      </trkpt>
      <trkpt lat="43.80429" lon="1.12997">
        <ele>206.6</ele>
        <time>2024-07-11T08:36:01Z</time>
      </trkpt>
      <trkpt lat="43.80432" lon="1.12989">
        <ele>206.8</ele>
        <time>2024-07-11T08:36:02Z</time>
      </trkpt>
      <trkpt lat="43.80436" lon="1.12981">
        <ele>207.2</ele>
        <time>2024-07-11T08:36:03Z</time>
      </trkpt>
      <trkpt lat="43.8044" lon="1.12973">
        <ele>207.2</ele>
        <time>2024-07-11T08:36:04Z</time>
      </trkpt>
      <trkpt lat="43.80443" lon="1.12965">
        <ele>207.6</ele>
        <time>2024-07-11T08:36:05Z</time>
      </trkpt>
      <trkpt lat="43.80446" lon="1.12957">
        <ele>207.6</ele>
        <time>2024-07-11T08:36:06Z</time>
      </trkpt>
      <trkpt lat="43.80449" lon="1.12949">
        <ele>208</ele>
        <time>2024-07-11T08:36:07Z</time>
      </trkpt>
      <trkpt lat="43.80452" lon="1.12941">
        <ele>208.6</ele>
        <time>2024-07-11T08:36:08Z</time>
      </trkpt>
      <trkpt lat="43.80455" lon="1.12933">
        <ele>209</ele>
        <time>2024-07-11T08:36:09Z</time>
      </trkpt>
      <trkpt lat="43.80456" lon="1.12924">
        <ele>209.6</ele>
        <time>2024-07-11T08:36:10Z</time>
      </trkpt>
      <trkpt lat="43.80458" lon="1.12916">
        <ele>209.8</ele>
        <time>2024-07-11T08:36:11Z</time>
      </trkpt>
      <trkpt lat="43.8046" lon="1.12909">
        <ele>210</ele>
        <time>2024-07-11T08:36:12Z</time>
      </trkpt>
      <trkpt lat="43.80463" lon="1.12902">
        <ele>210.2</ele>
        <time>2024-07-11T08:36:13Z</time>
      </trkpt>
      <trkpt lat="43.80464" lon="1.12892">
        <ele>210.2</ele>
        <time>2024-07-11T08:36:14Z</time>
      </trkpt>
      <trkpt lat="43.80466" lon="1.12886">
        <ele>210.2</ele>
        <time>2024-07-11T08:36:15Z</time>
      </trkpt>
      <trkpt lat="43.80466" lon="1.12877">
        <ele>210.2</ele>
        <time>2024-07-11T08:36:16Z</time>
      </trkpt>
      <trkpt lat="43.80467" lon="1.1287">
        <ele>210.2</ele>
        <time>2024-07-11T08:36:17Z</time>
      </trkpt>
      <trkpt lat="43.80468" lon="1.12863">
        <ele>210.2</ele>
        <time>2024-07-11T08:36:18Z</time>
      </trkpt>
      <trkpt lat="43.8047" lon="1.12855">
        <ele>210.4</ele>
        <time>2024-07-11T08:36:19Z</time>
      </trkpt>
      <trkpt lat="43.80471" lon="1.12846">
        <ele>210.6</ele>
        <time>2024-07-11T08:36:20Z</time>
      </trkpt>
      <trkpt lat="43.80471" lon="1.12838">
        <ele>210.6</ele>
        <time>2024-07-11T08:36:21Z</time>
      </trkpt>
      <trkpt lat="43.80471" lon="1.12838">
        <ele>210.8</ele>
        <time>2024-07-11T08:36:22Z</time>
      </trkpt>
      <trkpt lat="43.80471" lon="1.12821">
        <ele>211</ele>
        <time>2024-07-11T08:36:23Z</time>
      </trkpt>
      <trkpt lat="43.8047" lon="1.12811">
        <ele>211.8</ele>
        <time>2024-07-11T08:36:24Z</time>
      </trkpt>
      <trkpt lat="43.80472" lon="1.12802">
        <ele>212.4</ele>
        <time>2024-07-11T08:36:25Z</time>
      </trkpt>
      <trkpt lat="43.80475" lon="1.12795">
        <ele>213</ele>
        <time>2024-07-11T08:36:26Z</time>
      </trkpt>
      <trkpt lat="43.80479" lon="1.1279">
        <ele>213.2</ele>
        <time>2024-07-11T08:36:27Z</time>
      </trkpt>
      <trkpt lat="43.80483" lon="1.12787">
        <ele>213.4</ele>
        <time>2024-07-11T08:36:28Z</time>
      </trkpt>
      <trkpt lat="43.80488" lon="1.12785">
        <ele>213.4</ele>
        <time>2024-07-11T08:36:29Z</time>
      </trkpt>
      <trkpt lat="43.80492" lon="1.12785">
        <ele>213.6</ele>
        <time>2024-07-11T08:36:30Z</time>
      </trkpt>
      <trkpt lat="43.80496" lon="1.12786">
        <ele>213.6</ele>
        <time>2024-07-11T08:36:31Z</time>
      </trkpt>
      <trkpt lat="43.80496" lon="1.12786">
        <ele>213.8</ele>
        <time>2024-07-11T08:36:32Z</time>
      </trkpt>
      <trkpt lat="43.80502" lon="1.1279">
        <ele>213.8</ele>
        <time>2024-07-11T08:36:33Z</time>
      </trkpt>
      <trkpt lat="43.80506" lon="1.12793">
        <ele>213.8</ele>
        <time>2024-07-11T08:36:34Z</time>
      </trkpt>
      <trkpt lat="43.8051" lon="1.12796">
        <ele>213.8</ele>
        <time>2024-07-11T08:36:35Z</time>
      </trkpt>
      <trkpt lat="43.80513" lon="1.12798">
        <ele>213.8</ele>
        <time>2024-07-11T08:36:36Z</time>
      </trkpt>
      <trkpt lat="43.80513" lon="1.12798">
        <ele>213.8</ele>
        <time>2024-07-11T08:36:37Z</time>
      </trkpt>
      <trkpt lat="43.8052" lon="1.12804">
        <ele>213.8</ele>
        <time>2024-07-11T08:36:38Z</time>
      </trkpt>
      <trkpt lat="43.80525" lon="1.12807">
        <ele>214.2</ele>
        <time>2024-07-11T08:36:39Z</time>
      </trkpt>
      <trkpt lat="43.80529" lon="1.1281">
        <ele>214.2</ele>
        <time>2024-07-11T08:36:40Z</time>
      </trkpt>
      <trkpt lat="43.80534" lon="1.12814">
        <ele>214.6</ele>
        <time>2024-07-11T08:36:41Z</time>
      </trkpt>
      <trkpt lat="43.80539" lon="1.12816">
        <ele>214.8</ele>
        <time>2024-07-11T08:36:42Z</time>
      </trkpt>
      <trkpt lat="43.80544" lon="1.12817">
        <ele>215.2</ele>
        <time>2024-07-11T08:36:43Z</time>
      </trkpt>
      <trkpt lat="43.8055" lon="1.12817">
        <ele>215.6</ele>
        <time>2024-07-11T08:36:44Z</time>
      </trkpt>
      <trkpt lat="43.80555" lon="1.12817">
        <ele>215.6</ele>
        <time>2024-07-11T08:36:45Z</time>
      </trkpt>
      <trkpt lat="43.80559" lon="1.12815">
        <ele>216</ele>
        <time>2024-07-11T08:36:46Z</time>
      </trkpt>
      <trkpt lat="43.80564" lon="1.12812">
        <ele>216.2</ele>
        <time>2024-07-11T08:36:47Z</time>
      </trkpt>
      <trkpt lat="43.80569" lon="1.12809">
        <ele>216.4</ele>
        <time>2024-07-11T08:36:48Z</time>
      </trkpt>
      <trkpt lat="43.80573" lon="1.12805">
        <ele>216.6</ele>
        <time>2024-07-11T08:36:49Z</time>
      </trkpt>
      <trkpt lat="43.80576" lon="1.12801">
        <ele>217</ele>
        <time>2024-07-11T08:36:50Z</time>
      </trkpt>
      <trkpt lat="43.80579" lon="1.12796">
        <ele>217.2</ele>
        <time>2024-07-11T08:36:51Z</time>
      </trkpt>
      <trkpt lat="43.80579" lon="1.12796">
        <ele>217.6</ele>
        <time>2024-07-11T08:36:52Z</time>
      </trkpt>
      <trkpt lat="43.80583" lon="1.12786">
        <ele>218</ele>
        <time>2024-07-11T08:36:53Z</time>
      </trkpt>
      <trkpt lat="43.80587" lon="1.12781">
        <ele>218.2</ele>
        <time>2024-07-11T08:36:54Z</time>
      </trkpt>
      <trkpt lat="43.80589" lon="1.12776">
        <ele>218.6</ele>
        <time>2024-07-11T08:36:55Z</time>
      </trkpt>
      <trkpt lat="43.80592" lon="1.1277">
        <ele>218.8</ele>
        <time>2024-07-11T08:36:56Z</time>
      </trkpt>
      <trkpt lat="43.80596" lon="1.12764">
        <ele>219.2</ele>
        <time>2024-07-11T08:36:57Z</time>
      </trkpt>
      <trkpt lat="43.806" lon="1.12758">
        <ele>219.6</ele>
        <time>2024-07-11T08:36:58Z</time>
      </trkpt>
      <trkpt lat="43.80604" lon="1.12751">
        <ele>220</ele>
        <time>2024-07-11T08:36:59Z</time>
      </trkpt>
      <trkpt lat="43.80607" lon="1.12747">
        <ele>220.2</ele>
        <time>2024-07-11T08:37:00Z</time>
      </trkpt>
      <trkpt lat="43.80612" lon="1.12741">
        <ele>220.4</ele>
        <time>2024-07-11T08:37:01Z</time>
      </trkpt>
      <trkpt lat="43.80614" lon="1.12736">
        <ele>220.6</ele>
        <time>2024-07-11T08:37:02Z</time>
      </trkpt>
      <trkpt lat="43.80617" lon="1.1273">
        <ele>220.8</ele>
        <time>2024-07-11T08:37:03Z</time>
      </trkpt>
      <trkpt lat="43.80622" lon="1.12723">
        <ele>221.2</ele>
        <time>2024-07-11T08:37:04Z</time>
      </trkpt>
      <trkpt lat="43.80626" lon="1.12717">
        <ele>221.4</ele>
        <time>2024-07-11T08:37:05Z</time>
      </trkpt>
      <trkpt lat="43.80628" lon="1.12711">
        <ele>221.8</ele>
        <time>2024-07-11T08:37:06Z</time>
      </trkpt>
      <trkpt lat="43.80628" lon="1.12711">
        <ele>222.2</ele>
        <time>2024-07-11T08:37:07Z</time>
      </trkpt>
      <trkpt lat="43.80634" lon="1.12697">
        <ele>222.2</ele>
        <time>2024-07-11T08:37:08Z</time>
      </trkpt>
      <trkpt lat="43.80636" lon="1.12691">
        <ele>222.4</ele>
        <time>2024-07-11T08:37:09Z</time>
      </trkpt>
      <trkpt lat="43.80638" lon="1.12684">
        <ele>222.8</ele>
        <time>2024-07-11T08:37:10Z</time>
      </trkpt>
      <trkpt lat="43.80639" lon="1.12677">
        <ele>223</ele>
        <time>2024-07-11T08:37:11Z</time>
      </trkpt>
      <trkpt lat="43.80641" lon="1.12671">
        <ele>223.2</ele>
        <time>2024-07-11T08:37:12Z</time>
      </trkpt>
      <trkpt lat="43.80643" lon="1.12664">
        <ele>223.2</ele>
        <time>2024-07-11T08:37:13Z</time>
      </trkpt>
      <trkpt lat="43.80643" lon="1.12664">
        <ele>223.4</ele>
        <time>2024-07-11T08:37:14Z</time>
      </trkpt>
      <trkpt lat="43.80646" lon="1.1265">
        <ele>223.6</ele>
        <time>2024-07-11T08:37:15Z</time>
      </trkpt>
      <trkpt lat="43.80647" lon="1.12644">
        <ele>224</ele>
        <time>2024-07-11T08:37:16Z</time>
      </trkpt>
      <trkpt lat="43.80648" lon="1.12636">
        <ele>224.8</ele>
        <time>2024-07-11T08:37:17Z</time>
      </trkpt>
      <trkpt lat="43.80649" lon="1.12629">
        <ele>224.8</ele>
        <time>2024-07-11T08:37:18Z</time>
      </trkpt>
      <trkpt lat="43.8065" lon="1.12623">
        <ele>225.4</ele>
        <time>2024-07-11T08:37:19Z</time>
      </trkpt>
      <trkpt lat="43.80652" lon="1.12616">
        <ele>225.4</ele>
        <time>2024-07-11T08:37:20Z</time>
      </trkpt>
      <trkpt lat="43.80652" lon="1.12616">
        <ele>225.6</ele>
        <time>2024-07-11T08:37:21Z</time>
      </trkpt>
      <trkpt lat="43.80654" lon="1.12601">
        <ele>225.8</ele>
        <time>2024-07-11T08:37:22Z</time>
      </trkpt>
      <trkpt lat="43.80656" lon="1.12594">
        <ele>225.8</ele>
        <time>2024-07-11T08:37:23Z</time>
      </trkpt>
      <trkpt lat="43.80657" lon="1.12588">
        <ele>226.4</ele>
        <time>2024-07-11T08:37:24Z</time>
      </trkpt>
      <trkpt lat="43.80658" lon="1.12581">
        <ele>226.8</ele>
        <time>2024-07-11T08:37:25Z</time>
      </trkpt>
      <trkpt lat="43.80659" lon="1.12574">
        <ele>227.2</ele>
        <time>2024-07-11T08:37:26Z</time>
      </trkpt>
      <trkpt lat="43.80659" lon="1.12567">
        <ele>227.4</ele>
        <time>2024-07-11T08:37:27Z</time>
      </trkpt>
      <trkpt lat="43.8066" lon="1.1256">
        <ele>228</ele>
        <time>2024-07-11T08:37:28Z</time>
      </trkpt>
      <trkpt lat="43.80662" lon="1.12554">
        <ele>228.2</ele>
        <time>2024-07-11T08:37:29Z</time>
      </trkpt>
      <trkpt lat="43.80663" lon="1.12548">
        <ele>228.4</ele>
        <time>2024-07-11T08:37:30Z</time>
      </trkpt>
      <trkpt lat="43.80664" lon="1.12541">
        <ele>228.4</ele>
        <time>2024-07-11T08:37:31Z</time>
      </trkpt>
      <trkpt lat="43.80664" lon="1.12535">
        <ele>228.4</ele>
        <time>2024-07-11T08:37:32Z</time>
      </trkpt>
      <trkpt lat="43.80664" lon="1.12528">
        <ele>228.6</ele>
        <time>2024-07-11T08:37:33Z</time>
      </trkpt>
      <trkpt lat="43.80665" lon="1.12522">
        <ele>228.8</ele>
        <time>2024-07-11T08:37:34Z</time>
      </trkpt>
      <trkpt lat="43.80666" lon="1.12515">
        <ele>229</ele>
        <time>2024-07-11T08:37:35Z</time>
      </trkpt>
      <trkpt lat="43.80666" lon="1.12509">
        <ele>229.4</ele>
        <time>2024-07-11T08:37:36Z</time>
      </trkpt>
      <trkpt lat="43.80666" lon="1.12503">
        <ele>229.8</ele>
        <time>2024-07-11T08:37:37Z</time>
      </trkpt>
      <trkpt lat="43.80666" lon="1.12496">
        <ele>230.2</ele>
        <time>2024-07-11T08:37:38Z</time>
      </trkpt>
      <trkpt lat="43.80667" lon="1.12489">
        <ele>230.4</ele>
        <time>2024-07-11T08:37:39Z</time>
      </trkpt>
      <trkpt lat="43.80667" lon="1.12482">
        <ele>231.2</ele>
        <time>2024-07-11T08:37:40Z</time>
      </trkpt>
      <trkpt lat="43.80668" lon="1.12475">
        <ele>231.4</ele>
        <time>2024-07-11T08:37:41Z</time>
      </trkpt>
      <trkpt lat="43.80669" lon="1.12469">
        <ele>231.6</ele>
        <time>2024-07-11T08:37:42Z</time>
      </trkpt>
      <trkpt lat="43.80669" lon="1.12462">
        <ele>232</ele>
        <time>2024-07-11T08:37:43Z</time>
      </trkpt>
      <trkpt lat="43.8067" lon="1.12454">
        <ele>232.2</ele>
        <time>2024-07-11T08:37:44Z</time>
      </trkpt>
      <trkpt lat="43.80671" lon="1.12448">
        <ele>232.4</ele>
        <time>2024-07-11T08:37:45Z</time>
      </trkpt>
      <trkpt lat="43.80671" lon="1.12441">
        <ele>232.4</ele>
        <time>2024-07-11T08:37:46Z</time>
      </trkpt>
      <trkpt lat="43.80672" lon="1.12436">
        <ele>232.8</ele>
        <time>2024-07-11T08:37:47Z</time>
      </trkpt>
      <trkpt lat="43.80673" lon="1.12429">
        <ele>233</ele>
        <time>2024-07-11T08:37:48Z</time>
      </trkpt>
      <trkpt lat="43.80674" lon="1.12422">
        <ele>233.2</ele>
        <time>2024-07-11T08:37:49Z</time>
      </trkpt>
      <trkpt lat="43.80674" lon="1.12417">
        <ele>233.4</ele>
        <time>2024-07-11T08:37:50Z</time>
      </trkpt>
      <trkpt lat="43.80676" lon="1.1241">
        <ele>233.6</ele>
        <time>2024-07-11T08:37:51Z</time>
      </trkpt>
      <trkpt lat="43.80676" lon="1.12405">
        <ele>233.8</ele>
        <time>2024-07-11T08:37:52Z</time>
      </trkpt>
      <trkpt lat="43.80677" lon="1.12399">
        <ele>234.2</ele>
        <time>2024-07-11T08:37:53Z</time>
      </trkpt>
      <trkpt lat="43.80677" lon="1.12399">
        <ele>234.2</ele>
        <time>2024-07-11T08:37:54Z</time>
      </trkpt>
      <trkpt lat="43.80679" lon="1.12386">
        <ele>234.6</ele>
        <time>2024-07-11T08:37:55Z</time>
      </trkpt>
      <trkpt lat="43.8068" lon="1.1238">
        <ele>234.8</ele>
        <time>2024-07-11T08:37:56Z</time>
      </trkpt>
      <trkpt lat="43.8068" lon="1.12375">
        <ele>235</ele>
        <time>2024-07-11T08:37:57Z</time>
      </trkpt>
      <trkpt lat="43.80681" lon="1.12369">
        <ele>235.2</ele>
        <time>2024-07-11T08:37:58Z</time>
      </trkpt>
      <trkpt lat="43.80682" lon="1.12363">
        <ele>235.4</ele>
        <time>2024-07-11T08:37:59Z</time>
      </trkpt>
      <trkpt lat="43.80682" lon="1.12357">
        <ele>235.6</ele>
        <time>2024-07-11T08:38:00Z</time>
      </trkpt>
      <trkpt lat="43.80683" lon="1.12352">
        <ele>235.8</ele>
        <time>2024-07-11T08:38:01Z</time>
      </trkpt>
      <trkpt lat="43.80683" lon="1.12346">
        <ele>236.2</ele>
        <time>2024-07-11T08:38:02Z</time>
      </trkpt>
      <trkpt lat="43.80683" lon="1.12341">
        <ele>236.2</ele>
        <time>2024-07-11T08:38:03Z</time>
      </trkpt>
      <trkpt lat="43.80683" lon="1.12335">
        <ele>236.6</ele>
        <time>2024-07-11T08:38:04Z</time>
      </trkpt>
      <trkpt lat="43.80683" lon="1.1233">
        <ele>236.6</ele>
        <time>2024-07-11T08:38:05Z</time>
      </trkpt>
      <trkpt lat="43.80682" lon="1.12325">
        <ele>237</ele>
        <time>2024-07-11T08:38:06Z</time>
      </trkpt>
      <trkpt lat="43.80682" lon="1.12319">
        <ele>237.2</ele>
        <time>2024-07-11T08:38:07Z</time>
      </trkpt>
      <trkpt lat="43.80681" lon="1.12314">
        <ele>237.4</ele>
        <time>2024-07-11T08:38:08Z</time>
      </trkpt>
      <trkpt lat="43.80681" lon="1.12309">
        <ele>237.6</ele>
        <time>2024-07-11T08:38:09Z</time>
      </trkpt>
      <trkpt lat="43.8068" lon="1.12304">
        <ele>237.8</ele>
        <time>2024-07-11T08:38:10Z</time>
      </trkpt>
      <trkpt lat="43.8068" lon="1.12299">
        <ele>238</ele>
        <time>2024-07-11T08:38:11Z</time>
      </trkpt>
      <trkpt lat="43.8068" lon="1.12294">
        <ele>238.2</ele>
        <time>2024-07-11T08:38:12Z</time>
      </trkpt>
      <trkpt lat="43.80681" lon="1.12289">
        <ele>238.2</ele>
        <time>2024-07-11T08:38:13Z</time>
      </trkpt>
      <trkpt lat="43.80682" lon="1.12285">
        <ele>238.2</ele>
        <time>2024-07-11T08:38:14Z</time>
      </trkpt>
      <trkpt lat="43.80683" lon="1.12281">
        <ele>238.2</ele>
        <time>2024-07-11T08:38:15Z</time>
      </trkpt>
      <trkpt lat="43.80684" lon="1.12277">
        <ele>238.2</ele>
        <time>2024-07-11T08:38:16Z</time>
      </trkpt>
      <trkpt lat="43.80685" lon="1.12271">
        <ele>238.2</ele>
        <time>2024-07-11T08:38:17Z</time>
      </trkpt>
      <trkpt lat="43.80685" lon="1.12271">
        <ele>238.2</ele>
        <time>2024-07-11T08:38:18Z</time>
      </trkpt>
      <trkpt lat="43.80689" lon="1.12258">
        <ele>238</ele>
        <time>2024-07-11T08:38:19Z</time>
      </trkpt>
      <trkpt lat="43.80692" lon="1.1225">
        <ele>238</ele>
        <time>2024-07-11T08:38:20Z</time>
      </trkpt>
      <trkpt lat="43.80695" lon="1.1224">
        <ele>237.8</ele>
        <time>2024-07-11T08:38:21Z</time>
      </trkpt>
      <trkpt lat="43.80698" lon="1.1223">
        <ele>237.8</ele>
        <time>2024-07-11T08:38:22Z</time>
      </trkpt>
      <trkpt lat="43.80701" lon="1.12219">
        <ele>237.2</ele>
        <time>2024-07-11T08:38:23Z</time>
      </trkpt>
      <trkpt lat="43.80705" lon="1.12208">
        <ele>236.8</ele>
        <time>2024-07-11T08:38:24Z</time>
      </trkpt>
      <trkpt lat="43.80708" lon="1.12196">
        <ele>236.4</ele>
        <time>2024-07-11T08:38:25Z</time>
      </trkpt>
      <trkpt lat="43.80708" lon="1.12196">
        <ele>236</ele>
        <time>2024-07-11T08:38:26Z</time>
      </trkpt>
      <trkpt lat="43.80716" lon="1.12171">
        <ele>235.6</ele>
        <time>2024-07-11T08:38:27Z</time>
      </trkpt>
      <trkpt lat="43.8072" lon="1.12158">
        <ele>235.2</ele>
        <time>2024-07-11T08:38:28Z</time>
      </trkpt>
      <trkpt lat="43.80724" lon="1.12144">
        <ele>234.6</ele>
        <time>2024-07-11T08:38:29Z</time>
      </trkpt>
      <trkpt lat="43.80728" lon="1.1213">
        <ele>233.8</ele>
        <time>2024-07-11T08:38:30Z</time>
      </trkpt>
      <trkpt lat="43.80733" lon="1.12116">
        <ele>233</ele>
        <time>2024-07-11T08:38:31Z</time>
      </trkpt>
      <trkpt lat="43.80737" lon="1.12103">
        <ele>232.8</ele>
        <time>2024-07-11T08:38:32Z</time>
      </trkpt>
      <trkpt lat="43.8074" lon="1.12091">
        <ele>232.2</ele>
        <time>2024-07-11T08:38:33Z</time>
      </trkpt>
      <trkpt lat="43.80742" lon="1.1208">
        <ele>231</ele>
        <time>2024-07-11T08:38:34Z</time>
      </trkpt>
      <trkpt lat="43.80741" lon="1.1207">
        <ele>229.4</ele>
        <time>2024-07-11T08:38:35Z</time>
      </trkpt>
      <trkpt lat="43.80736" lon="1.12061">
        <ele>228.8</ele>
        <time>2024-07-11T08:38:36Z</time>
      </trkpt>
      <trkpt lat="43.80728" lon="1.12052">
        <ele>228</ele>
        <time>2024-07-11T08:38:37Z</time>
      </trkpt>
      <trkpt lat="43.80717" lon="1.12044">
        <ele>227.2</ele>
        <time>2024-07-11T08:38:38Z</time>
      </trkpt>
      <trkpt lat="43.80708" lon="1.12036">
        <ele>226.4</ele>
        <time>2024-07-11T08:38:39Z</time>
      </trkpt>
      <trkpt lat="43.80698" lon="1.12027">
        <ele>225.4</ele>
        <time>2024-07-11T08:38:40Z</time>
      </trkpt>
      <trkpt lat="43.80688" lon="1.12016">
        <ele>225</ele>
        <time>2024-07-11T08:38:41Z</time>
      </trkpt>
      <trkpt lat="43.8068" lon="1.12004">
        <ele>223.6</ele>
        <time>2024-07-11T08:38:42Z</time>
      </trkpt>
      <trkpt lat="43.80675" lon="1.1199">
        <ele>222.6</ele>
        <time>2024-07-11T08:38:43Z</time>
      </trkpt>
      <trkpt lat="43.80675" lon="1.11974">
        <ele>221.2</ele>
        <time>2024-07-11T08:38:44Z</time>
      </trkpt>
      <trkpt lat="43.80676" lon="1.11958">
        <ele>220.2</ele>
        <time>2024-07-11T08:38:45Z</time>
      </trkpt>
      <trkpt lat="43.80679" lon="1.11941">
        <ele>219.2</ele>
        <time>2024-07-11T08:38:46Z</time>
      </trkpt>
      <trkpt lat="43.80682" lon="1.11923">
        <ele>218</ele>
        <time>2024-07-11T08:38:47Z</time>
      </trkpt>
      <trkpt lat="43.80686" lon="1.11905">
        <ele>217.4</ele>
        <time>2024-07-11T08:38:48Z</time>
      </trkpt>
      <trkpt lat="43.8069" lon="1.11887">
        <ele>215.4</ele>
        <time>2024-07-11T08:38:49Z</time>
      </trkpt>
      <trkpt lat="43.80694" lon="1.11869">
        <ele>212.6</ele>
        <time>2024-07-11T08:38:50Z</time>
      </trkpt>
      <trkpt lat="43.80697" lon="1.11851">
        <ele>211.2</ele>
        <time>2024-07-11T08:38:51Z</time>
      </trkpt>
      <trkpt lat="43.80702" lon="1.11828">
        <ele>209.4</ele>
        <time>2024-07-11T08:38:52Z</time>
      </trkpt>
      <trkpt lat="43.80706" lon="1.11814">
        <ele>208.6</ele>
        <time>2024-07-11T08:38:53Z</time>
      </trkpt>
      <trkpt lat="43.80711" lon="1.11796">
        <ele>207.4</ele>
        <time>2024-07-11T08:38:54Z</time>
      </trkpt>
      <trkpt lat="43.80718" lon="1.11779">
        <ele>207</ele>
        <time>2024-07-11T08:38:55Z</time>
      </trkpt>
      <trkpt lat="43.80727" lon="1.11764">
        <ele>205.4</ele>
        <time>2024-07-11T08:38:56Z</time>
      </trkpt>
      <trkpt lat="43.80739" lon="1.11746">
        <ele>204.4</ele>
        <time>2024-07-11T08:38:57Z</time>
      </trkpt>
      <trkpt lat="43.80748" lon="1.11735">
        <ele>203.6</ele>
        <time>2024-07-11T08:38:58Z</time>
      </trkpt>
      <trkpt lat="43.80759" lon="1.11721">
        <ele>202</ele>
        <time>2024-07-11T08:38:59Z</time>
      </trkpt>
      <trkpt lat="43.80771" lon="1.11707">
        <ele>200.8</ele>
        <time>2024-07-11T08:39:00Z</time>
      </trkpt>
      <trkpt lat="43.80782" lon="1.11693">
        <ele>197.2</ele>
        <time>2024-07-11T08:39:01Z</time>
      </trkpt>
      <trkpt lat="43.80793" lon="1.11679">
        <ele>196</ele>
        <time>2024-07-11T08:39:02Z</time>
      </trkpt>
      <trkpt lat="43.80803" lon="1.11667">
        <ele>194.2</ele>
        <time>2024-07-11T08:39:03Z</time>
      </trkpt>
      <trkpt lat="43.80814" lon="1.11657">
        <ele>192.4</ele>
        <time>2024-07-11T08:39:04Z</time>
      </trkpt>
      <trkpt lat="43.80825" lon="1.11651">
        <ele>191.4</ele>
        <time>2024-07-11T08:39:05Z</time>
      </trkpt>
      <trkpt lat="43.80837" lon="1.1165">
        <ele>189.8</ele>
        <time>2024-07-11T08:39:06Z</time>
      </trkpt>
      <trkpt lat="43.80849" lon="1.11653">
        <ele>189.4</ele>
        <time>2024-07-11T08:39:07Z</time>
      </trkpt>
      <trkpt lat="43.80859" lon="1.11658">
        <ele>188.4</ele>
        <time>2024-07-11T08:39:08Z</time>
      </trkpt>
      <trkpt lat="43.8087" lon="1.11664">
        <ele>185.6</ele>
        <time>2024-07-11T08:39:09Z</time>
      </trkpt>
      <trkpt lat="43.8088" lon="1.11668">
        <ele>184.8</ele>
        <time>2024-07-11T08:39:10Z</time>
      </trkpt>
      <trkpt lat="43.80888" lon="1.11668">
        <ele>183.6</ele>
        <time>2024-07-11T08:39:11Z</time>
      </trkpt>
      <trkpt lat="43.80897" lon="1.11663">
        <ele>183</ele>
        <time>2024-07-11T08:39:12Z</time>
      </trkpt>
      <trkpt lat="43.80905" lon="1.11657">
        <ele>181.8</ele>
        <time>2024-07-11T08:39:13Z</time>
      </trkpt>
      <trkpt lat="43.8091" lon="1.11648">
        <ele>181.4</ele>
        <time>2024-07-11T08:39:14Z</time>
      </trkpt>
      <trkpt lat="43.80915" lon="1.11638">
        <ele>180.6</ele>
        <time>2024-07-11T08:39:15Z</time>
      </trkpt>
      <trkpt lat="43.8092" lon="1.11629">
        <ele>180</ele>
        <time>2024-07-11T08:39:16Z</time>
      </trkpt>
      <trkpt lat="43.80925" lon="1.1162">
        <ele>179.8</ele>
        <time>2024-07-11T08:39:17Z</time>
      </trkpt>
      <trkpt lat="43.80929" lon="1.11611">
        <ele>179.4</ele>
        <time>2024-07-11T08:39:18Z</time>
      </trkpt>
      <trkpt lat="43.80933" lon="1.11603">
        <ele>179.4</ele>
        <time>2024-07-11T08:39:19Z</time>
      </trkpt>
      <trkpt lat="43.80937" lon="1.11596">
        <ele>179.2</ele>
        <time>2024-07-11T08:39:20Z</time>
      </trkpt>
      <trkpt lat="43.80941" lon="1.11589">
        <ele>179.2</ele>
        <time>2024-07-11T08:39:21Z</time>
      </trkpt>
      <trkpt lat="43.80944" lon="1.11582">
        <ele>179.2</ele>
        <time>2024-07-11T08:39:22Z</time>
      </trkpt>
      <trkpt lat="43.80947" lon="1.11575">
        <ele>179.2</ele>
        <time>2024-07-11T08:39:23Z</time>
      </trkpt>
      <trkpt lat="43.8095" lon="1.11568">
        <ele>179.2</ele>
        <time>2024-07-11T08:39:24Z</time>
      </trkpt>
      <trkpt lat="43.80954" lon="1.11561">
        <ele>179.2</ele>
        <time>2024-07-11T08:39:25Z</time>
      </trkpt>
      <trkpt lat="43.80957" lon="1.11555">
        <ele>179.4</ele>
        <time>2024-07-11T08:39:26Z</time>
      </trkpt>
      <trkpt lat="43.8096" lon="1.11548">
        <ele>179.6</ele>
        <time>2024-07-11T08:39:27Z</time>
      </trkpt>
      <trkpt lat="43.80964" lon="1.11542">
        <ele>179.8</ele>
        <time>2024-07-11T08:39:28Z</time>
      </trkpt>
      <trkpt lat="43.80967" lon="1.11536">
        <ele>180</ele>
        <time>2024-07-11T08:39:29Z</time>
      </trkpt>
      <trkpt lat="43.80971" lon="1.1153">
        <ele>180.4</ele>
        <time>2024-07-11T08:39:30Z</time>
      </trkpt>
      <trkpt lat="43.80974" lon="1.11524">
        <ele>180.6</ele>
        <time>2024-07-11T08:39:31Z</time>
      </trkpt>
      <trkpt lat="43.80977" lon="1.11517">
        <ele>180.8</ele>
        <time>2024-07-11T08:39:32Z</time>
      </trkpt>
      <trkpt lat="43.8098" lon="1.11511">
        <ele>180.8</ele>
        <time>2024-07-11T08:39:33Z</time>
      </trkpt>
      <trkpt lat="43.80983" lon="1.11505">
        <ele>180.8</ele>
        <time>2024-07-11T08:39:34Z</time>
      </trkpt>
      <trkpt lat="43.80986" lon="1.115">
        <ele>181</ele>
        <time>2024-07-11T08:39:35Z</time>
      </trkpt>
      <trkpt lat="43.8099" lon="1.11495">
        <ele>181</ele>
        <time>2024-07-11T08:39:36Z</time>
      </trkpt>
      <trkpt lat="43.80993" lon="1.1149">
        <ele>181.2</ele>
        <time>2024-07-11T08:39:37Z</time>
      </trkpt>
      <trkpt lat="43.80993" lon="1.1149">
        <ele>181.2</ele>
        <time>2024-07-11T08:39:38Z</time>
      </trkpt>
      <trkpt lat="43.80994" lon="1.11478">
        <ele>181.4</ele>
        <time>2024-07-11T08:39:39Z</time>
      </trkpt>
      <trkpt lat="43.80992" lon="1.11472">
        <ele>181.4</ele>
        <time>2024-07-11T08:39:40Z</time>
      </trkpt>
      <trkpt lat="43.80988" lon="1.11467">
        <ele>181.6</ele>
        <time>2024-07-11T08:39:41Z</time>
      </trkpt>
      <trkpt lat="43.80985" lon="1.11462">
        <ele>181.6</ele>
        <time>2024-07-11T08:39:42Z</time>
      </trkpt>
      <trkpt lat="43.80985" lon="1.11462">
        <ele>181.6</ele>
        <time>2024-07-11T08:39:43Z</time>
      </trkpt>
      <trkpt lat="43.80977" lon="1.11451">
        <ele>181.6</ele>
        <time>2024-07-11T08:39:44Z</time>
      </trkpt>
      <trkpt lat="43.80973" lon="1.11445">
        <ele>181.6</ele>
        <time>2024-07-11T08:39:45Z</time>
      </trkpt>
      <trkpt lat="43.8097" lon="1.1144">
        <ele>181.6</ele>
        <time>2024-07-11T08:39:46Z</time>
      </trkpt>
      <trkpt lat="43.80965" lon="1.11434">
        <ele>181.6</ele>
        <time>2024-07-11T08:39:47Z</time>
      </trkpt>
      <trkpt lat="43.80965" lon="1.11434">
        <ele>181.6</ele>
        <time>2024-07-11T08:39:48Z</time>
      </trkpt>
      <trkpt lat="43.80957" lon="1.11423">
        <ele>181.6</ele>
        <time>2024-07-11T08:39:49Z</time>
      </trkpt>
      <trkpt lat="43.80954" lon="1.11417">
        <ele>181.6</ele>
        <time>2024-07-11T08:39:50Z</time>
      </trkpt>
      <trkpt lat="43.8095" lon="1.1141">
        <ele>181.6</ele>
        <time>2024-07-11T08:39:51Z</time>
      </trkpt>
      <trkpt lat="43.80946" lon="1.11405">
        <ele>181.6</ele>
        <time>2024-07-11T08:39:52Z</time>
      </trkpt>
      <trkpt lat="43.80942" lon="1.11399">
        <ele>181.6</ele>
        <time>2024-07-11T08:39:53Z</time>
      </trkpt>
      <trkpt lat="43.80939" lon="1.11392">
        <ele>181.4</ele>
        <time>2024-07-11T08:39:54Z</time>
      </trkpt>
      <trkpt lat="43.80935" lon="1.11386">
        <ele>181.4</ele>
        <time>2024-07-11T08:39:55Z</time>
      </trkpt>
      <trkpt lat="43.80931" lon="1.1138">
        <ele>181.8</ele>
        <time>2024-07-11T08:39:56Z</time>
      </trkpt>
      <trkpt lat="43.80926" lon="1.11374">
        <ele>181.6</ele>
        <time>2024-07-11T08:39:57Z</time>
      </trkpt>
      <trkpt lat="43.80923" lon="1.11367">
        <ele>181.4</ele>
        <time>2024-07-11T08:39:58Z</time>
      </trkpt>
      <trkpt lat="43.80923" lon="1.11367">
        <ele>181.4</ele>
        <time>2024-07-11T08:39:59Z</time>
      </trkpt>
      <trkpt lat="43.80914" lon="1.11355">
        <ele>181.6</ele>
        <time>2024-07-11T08:40:00Z</time>
      </trkpt>
      <trkpt lat="43.8091" lon="1.11349">
        <ele>181.6</ele>
        <time>2024-07-11T08:40:01Z</time>
      </trkpt>
      <trkpt lat="43.8091" lon="1.11349">
        <ele>181.6</ele>
        <time>2024-07-11T08:40:02Z</time>
      </trkpt>
      <trkpt lat="43.80902" lon="1.11336">
        <ele>181.6</ele>
        <time>2024-07-11T08:40:03Z</time>
      </trkpt>
      <trkpt lat="43.80898" lon="1.1133">
        <ele>181.6</ele>
        <time>2024-07-11T08:40:04Z</time>
      </trkpt>
      <trkpt lat="43.80894" lon="1.11324">
        <ele>181.8</ele>
        <time>2024-07-11T08:40:05Z</time>
      </trkpt>
      <trkpt lat="43.8089" lon="1.11317">
        <ele>181.8</ele>
        <time>2024-07-11T08:40:06Z</time>
      </trkpt>
      <trkpt lat="43.80886" lon="1.11311">
        <ele>181.8</ele>
        <time>2024-07-11T08:40:07Z</time>
      </trkpt>
      <trkpt lat="43.80882" lon="1.11304">
        <ele>182</ele>
        <time>2024-07-11T08:40:08Z</time>
      </trkpt>
      <trkpt lat="43.80878" lon="1.11298">
        <ele>182</ele>
        <time>2024-07-11T08:40:09Z</time>
      </trkpt>
      <trkpt lat="43.80873" lon="1.11291">
        <ele>182</ele>
        <time>2024-07-11T08:40:10Z</time>
      </trkpt>
      <trkpt lat="43.80869" lon="1.11285">
        <ele>182</ele>
        <time>2024-07-11T08:40:11Z</time>
      </trkpt>
      <trkpt lat="43.80865" lon="1.11279">
        <ele>182</ele>
        <time>2024-07-11T08:40:12Z</time>
      </trkpt>
      <trkpt lat="43.8086" lon="1.11273">
        <ele>182.2</ele>
        <time>2024-07-11T08:40:13Z</time>
      </trkpt>
      <trkpt lat="43.80857" lon="1.11267">
        <ele>182.2</ele>
        <time>2024-07-11T08:40:14Z</time>
      </trkpt>
      <trkpt lat="43.80854" lon="1.11259">
        <ele>182.2</ele>
        <time>2024-07-11T08:40:15Z</time>
      </trkpt>
      <trkpt lat="43.80853" lon="1.11251">
        <ele>182.2</ele>
        <time>2024-07-11T08:40:16Z</time>
      </trkpt>
      <trkpt lat="43.80855" lon="1.11244">
        <ele>182.4</ele>
        <time>2024-07-11T08:40:17Z</time>
      </trkpt>
      <trkpt lat="43.80858" lon="1.11238">
        <ele>182.4</ele>
        <time>2024-07-11T08:40:18Z</time>
      </trkpt>
      <trkpt lat="43.80862" lon="1.11232">
        <ele>182.4</ele>
        <time>2024-07-11T08:40:19Z</time>
      </trkpt>
      <trkpt lat="43.80866" lon="1.11226">
        <ele>182.6</ele>
        <time>2024-07-11T08:40:20Z</time>
      </trkpt>
      <trkpt lat="43.80869" lon="1.1122">
        <ele>182.8</ele>
        <time>2024-07-11T08:40:21Z</time>
      </trkpt>
      <trkpt lat="43.80872" lon="1.11215">
        <ele>182.8</ele>
        <time>2024-07-11T08:40:22Z</time>
      </trkpt>
      <trkpt lat="43.80875" lon="1.11209">
        <ele>183</ele>
        <time>2024-07-11T08:40:23Z</time>
      </trkpt>
      <trkpt lat="43.80878" lon="1.11203">
        <ele>183.4</ele>
        <time>2024-07-11T08:40:24Z</time>
      </trkpt>
      <trkpt lat="43.80881" lon="1.11198">
        <ele>184</ele>
        <time>2024-07-11T08:40:25Z</time>
      </trkpt>
      <trkpt lat="43.80884" lon="1.11193">
        <ele>184</ele>
        <time>2024-07-11T08:40:26Z</time>
      </trkpt>
      <trkpt lat="43.80887" lon="1.11188">
        <ele>184.4</ele>
        <time>2024-07-11T08:40:27Z</time>
      </trkpt>
      <trkpt lat="43.8089" lon="1.11183">
        <ele>184.4</ele>
        <time>2024-07-11T08:40:28Z</time>
      </trkpt>
      <trkpt lat="43.80892" lon="1.11177">
        <ele>184.8</ele>
        <time>2024-07-11T08:40:29Z</time>
      </trkpt>
      <trkpt lat="43.80895" lon="1.11172">
        <ele>185</ele>
        <time>2024-07-11T08:40:30Z</time>
      </trkpt>
      <trkpt lat="43.80898" lon="1.11167">
        <ele>185.4</ele>
        <time>2024-07-11T08:40:31Z</time>
      </trkpt>
      <trkpt lat="43.809" lon="1.11162">
        <ele>185.6</ele>
        <time>2024-07-11T08:40:32Z</time>
      </trkpt>
      <trkpt lat="43.80903" lon="1.11157">
        <ele>185.8</ele>
        <time>2024-07-11T08:40:33Z</time>
      </trkpt>
      <trkpt lat="43.80906" lon="1.11153">
        <ele>186</ele>
        <time>2024-07-11T08:40:34Z</time>
      </trkpt>
      <trkpt lat="43.80909" lon="1.11148">
        <ele>186.4</ele>
        <time>2024-07-11T08:40:35Z</time>
      </trkpt>
      <trkpt lat="43.80911" lon="1.11143">
        <ele>186.8</ele>
        <time>2024-07-11T08:40:36Z</time>
      </trkpt>
      <trkpt lat="43.80913" lon="1.11138">
        <ele>187</ele>
        <time>2024-07-11T08:40:37Z</time>
      </trkpt>
      <trkpt lat="43.80915" lon="1.11134">
        <ele>187.2</ele>
        <time>2024-07-11T08:40:38Z</time>
      </trkpt>
      <trkpt lat="43.80917" lon="1.1113">
        <ele>187.6</ele>
        <time>2024-07-11T08:40:39Z</time>
      </trkpt>
      <trkpt lat="43.8092" lon="1.11126">
        <ele>187.8</ele>
        <time>2024-07-11T08:40:40Z</time>
      </trkpt>
      <trkpt lat="43.80921" lon="1.11122">
        <ele>188</ele>
        <time>2024-07-11T08:40:41Z</time>
      </trkpt>
      <trkpt lat="43.80923" lon="1.11118">
        <ele>188.2</ele>
        <time>2024-07-11T08:40:42Z</time>
      </trkpt>
      <trkpt lat="43.80925" lon="1.11114">
        <ele>188.6</ele>
        <time>2024-07-11T08:40:43Z</time>
      </trkpt>
      <trkpt lat="43.80927" lon="1.11111">
        <ele>188.8</ele>
        <time>2024-07-11T08:40:44Z</time>
      </trkpt>
      <trkpt lat="43.80927" lon="1.11111">
        <ele>189.2</ele>
        <time>2024-07-11T08:40:45Z</time>
      </trkpt>
      <trkpt lat="43.8093" lon="1.11104">
        <ele>189.6</ele>
        <time>2024-07-11T08:40:46Z</time>
      </trkpt>
      <trkpt lat="43.80932" lon="1.11101">
        <ele>189.8</ele>
        <time>2024-07-11T08:40:47Z</time>
      </trkpt>
      <trkpt lat="43.80934" lon="1.11097">
        <ele>190.2</ele>
        <time>2024-07-11T08:40:48Z</time>
      </trkpt>
      <trkpt lat="43.80936" lon="1.11094">
        <ele>190.4</ele>
        <time>2024-07-11T08:40:49Z</time>
      </trkpt>
      <trkpt lat="43.80938" lon="1.11091">
        <ele>190.6</ele>
        <time>2024-07-11T08:40:50Z</time>
      </trkpt>
      <trkpt lat="43.8094" lon="1.11088">
        <ele>191.2</ele>
        <time>2024-07-11T08:40:51Z</time>
      </trkpt>
      <trkpt lat="43.80942" lon="1.11085">
        <ele>191.4</ele>
        <time>2024-07-11T08:40:52Z</time>
      </trkpt>
      <trkpt lat="43.80944" lon="1.11082">
        <ele>191.8</ele>
        <time>2024-07-11T08:40:53Z</time>
      </trkpt>
      <trkpt lat="43.80945" lon="1.11079">
        <ele>192</ele>
        <time>2024-07-11T08:40:54Z</time>
      </trkpt>
      <trkpt lat="43.80947" lon="1.11076">
        <ele>192.8</ele>
        <time>2024-07-11T08:40:55Z</time>
      </trkpt>
      <trkpt lat="43.80947" lon="1.11076">
        <ele>193.2</ele>
        <time>2024-07-11T08:40:56Z</time>
      </trkpt>
      <trkpt lat="43.80951" lon="1.1107">
        <ele>193.8</ele>
        <time>2024-07-11T08:40:57Z</time>
      </trkpt>
      <trkpt lat="43.80952" lon="1.11067">
        <ele>194</ele>
        <time>2024-07-11T08:40:58Z</time>
      </trkpt>
      <trkpt lat="43.80954" lon="1.11063">
        <ele>194.2</ele>
        <time>2024-07-11T08:40:59Z</time>
      </trkpt>
      <trkpt lat="43.80956" lon="1.1106">
        <ele>194.6</ele>
        <time>2024-07-11T08:41:00Z</time>
      </trkpt>
      <trkpt lat="43.80957" lon="1.11058">
        <ele>194.6</ele>
        <time>2024-07-11T08:41:01Z</time>
      </trkpt>
      <trkpt lat="43.80958" lon="1.11055">
        <ele>195</ele>
        <time>2024-07-11T08:41:02Z</time>
      </trkpt>
      <trkpt lat="43.8096" lon="1.11052">
        <ele>195.2</ele>
        <time>2024-07-11T08:41:03Z</time>
      </trkpt>
      <trkpt lat="43.80961" lon="1.11049">
        <ele>195.4</ele>
        <time>2024-07-11T08:41:04Z</time>
      </trkpt>
      <trkpt lat="43.80963" lon="1.11047">
        <ele>195.8</ele>
        <time>2024-07-11T08:41:05Z</time>
      </trkpt>
      <trkpt lat="43.80964" lon="1.11044">
        <ele>196</ele>
        <time>2024-07-11T08:41:06Z</time>
      </trkpt>
      <trkpt lat="43.80966" lon="1.11041">
        <ele>196.4</ele>
        <time>2024-07-11T08:41:07Z</time>
      </trkpt>
      <trkpt lat="43.80967" lon="1.11038">
        <ele>196.4</ele>
        <time>2024-07-11T08:41:08Z</time>
      </trkpt>
      <trkpt lat="43.80969" lon="1.11035">
        <ele>197.2</ele>
        <time>2024-07-11T08:41:09Z</time>
      </trkpt>
      <trkpt lat="43.8097" lon="1.11032">
        <ele>197.6</ele>
        <time>2024-07-11T08:41:10Z</time>
      </trkpt>
      <trkpt lat="43.80971" lon="1.11029">
        <ele>197.8</ele>
        <time>2024-07-11T08:41:11Z</time>
      </trkpt>
      <trkpt lat="43.80973" lon="1.11026">
        <ele>198.2</ele>
        <time>2024-07-11T08:41:12Z</time>
      </trkpt>
      <trkpt lat="43.80974" lon="1.11023">
        <ele>198.4</ele>
        <time>2024-07-11T08:41:13Z</time>
      </trkpt>
      <trkpt lat="43.80975" lon="1.1102">
        <ele>198.8</ele>
        <time>2024-07-11T08:41:14Z</time>
      </trkpt>
      <trkpt lat="43.80976" lon="1.11017">
        <ele>199.2</ele>
        <time>2024-07-11T08:41:15Z</time>
      </trkpt>
      <trkpt lat="43.80977" lon="1.11014">
        <ele>199.4</ele>
        <time>2024-07-11T08:41:16Z</time>
      </trkpt>
      <trkpt lat="43.80978" lon="1.11012">
        <ele>200.2</ele>
        <time>2024-07-11T08:41:17Z</time>
      </trkpt>
      <trkpt lat="43.8098" lon="1.11009">
        <ele>200.4</ele>
        <time>2024-07-11T08:41:18Z</time>
      </trkpt>
      <trkpt lat="43.80981" lon="1.11006">
        <ele>200.6</ele>
        <time>2024-07-11T08:41:19Z</time>
      </trkpt>
      <trkpt lat="43.80982" lon="1.11003">
        <ele>200.8</ele>
        <time>2024-07-11T08:41:20Z</time>
      </trkpt>
      <trkpt lat="43.80983" lon="1.11001">
        <ele>201</ele>
        <time>2024-07-11T08:41:21Z</time>
      </trkpt>
      <trkpt lat="43.80984" lon="1.10998">
        <ele>201.2</ele>
        <time>2024-07-11T08:41:22Z</time>
      </trkpt>
      <trkpt lat="43.80985" lon="1.10994">
        <ele>201.4</ele>
        <time>2024-07-11T08:41:23Z</time>
      </trkpt>
      <trkpt lat="43.80986" lon="1.10991">
        <ele>201.8</ele>
        <time>2024-07-11T08:41:24Z</time>
      </trkpt>
      <trkpt lat="43.80988" lon="1.10988">
        <ele>202</ele>
        <time>2024-07-11T08:41:25Z</time>
      </trkpt>
      <trkpt lat="43.80989" lon="1.10985">
        <ele>202.2</ele>
        <time>2024-07-11T08:41:26Z</time>
      </trkpt>
      <trkpt lat="43.8099" lon="1.10982">
        <ele>202.2</ele>
        <time>2024-07-11T08:41:27Z</time>
      </trkpt>
      <trkpt lat="43.80992" lon="1.10979">
        <ele>202.6</ele>
        <time>2024-07-11T08:41:28Z</time>
      </trkpt>
      <trkpt lat="43.80993" lon="1.10976">
        <ele>202.8</ele>
        <time>2024-07-11T08:41:29Z</time>
      </trkpt>
      <trkpt lat="43.80994" lon="1.10973">
        <ele>203</ele>
        <time>2024-07-11T08:41:30Z</time>
      </trkpt>
      <trkpt lat="43.80996" lon="1.10971">
        <ele>203.2</ele>
        <time>2024-07-11T08:41:31Z</time>
      </trkpt>
      <trkpt lat="43.80998" lon="1.10968">
        <ele>203.4</ele>
        <time>2024-07-11T08:41:32Z</time>
      </trkpt>
      <trkpt lat="43.80999" lon="1.10965">
        <ele>203.6</ele>
        <time>2024-07-11T08:41:33Z</time>
      </trkpt>
      <trkpt lat="43.81001" lon="1.10962">
        <ele>203.8</ele>
        <time>2024-07-11T08:41:34Z</time>
      </trkpt>
      <trkpt lat="43.81002" lon="1.1096">
        <ele>204</ele>
        <time>2024-07-11T08:41:35Z</time>
      </trkpt>
      <trkpt lat="43.81004" lon="1.10957">
        <ele>204.2</ele>
        <time>2024-07-11T08:41:36Z</time>
      </trkpt>
      <trkpt lat="43.81005" lon="1.10954">
        <ele>204.4</ele>
        <time>2024-07-11T08:41:37Z</time>
      </trkpt>
      <trkpt lat="43.81006" lon="1.10951">
        <ele>204.4</ele>
        <time>2024-07-11T08:41:38Z</time>
      </trkpt>
      <trkpt lat="43.81008" lon="1.10948">
        <ele>204.6</ele>
        <time>2024-07-11T08:41:39Z</time>
      </trkpt>
      <trkpt lat="43.8101" lon="1.10945">
        <ele>204.8</ele>
        <time>2024-07-11T08:41:40Z</time>
      </trkpt>
      <trkpt lat="43.81011" lon="1.10943">
        <ele>205</ele>
        <time>2024-07-11T08:41:41Z</time>
      </trkpt>
      <trkpt lat="43.81013" lon="1.1094">
        <ele>205</ele>
        <time>2024-07-11T08:41:42Z</time>
      </trkpt>
      <trkpt lat="43.81015" lon="1.10938">
        <ele>205.2</ele>
        <time>2024-07-11T08:41:43Z</time>
      </trkpt>
      <trkpt lat="43.81017" lon="1.10935">
        <ele>205.2</ele>
        <time>2024-07-11T08:41:44Z</time>
      </trkpt>
      <trkpt lat="43.81019" lon="1.10933">
        <ele>205.4</ele>
        <time>2024-07-11T08:41:45Z</time>
      </trkpt>
      <trkpt lat="43.81021" lon="1.1093">
        <ele>205.4</ele>
        <time>2024-07-11T08:41:46Z</time>
      </trkpt>
      <trkpt lat="43.81023" lon="1.10928">
        <ele>205.6</ele>
        <time>2024-07-11T08:41:47Z</time>
      </trkpt>
      <trkpt lat="43.81024" lon="1.10925">
        <ele>205.8</ele>
        <time>2024-07-11T08:41:48Z</time>
      </trkpt>
      <trkpt lat="43.81026" lon="1.10922">
        <ele>206</ele>
        <time>2024-07-11T08:41:49Z</time>
      </trkpt>
      <trkpt lat="43.81027" lon="1.1092">
        <ele>206.2</ele>
        <time>2024-07-11T08:41:50Z</time>
      </trkpt>
      <trkpt lat="43.81027" lon="1.1092">
        <ele>206.6</ele>
        <time>2024-07-11T08:41:51Z</time>
      </trkpt>
      <trkpt lat="43.81031" lon="1.10916">
        <ele>206.8</ele>
        <time>2024-07-11T08:41:52Z</time>
      </trkpt>
      <trkpt lat="43.81033" lon="1.10914">
        <ele>207</ele>
        <time>2024-07-11T08:41:53Z</time>
      </trkpt>
      <trkpt lat="43.81035" lon="1.10912">
        <ele>207.4</ele>
        <time>2024-07-11T08:41:54Z</time>
      </trkpt>
      <trkpt lat="43.81037" lon="1.1091">
        <ele>207.6</ele>
        <time>2024-07-11T08:41:55Z</time>
      </trkpt>
      <trkpt lat="43.81039" lon="1.10908">
        <ele>207.8</ele>
        <time>2024-07-11T08:41:56Z</time>
      </trkpt>
      <trkpt lat="43.81041" lon="1.10906">
        <ele>208</ele>
        <time>2024-07-11T08:41:57Z</time>
      </trkpt>
      <trkpt lat="43.81043" lon="1.10905">
        <ele>208.2</ele>
        <time>2024-07-11T08:41:58Z</time>
      </trkpt>
      <trkpt lat="43.81045" lon="1.10903">
        <ele>208.4</ele>
        <time>2024-07-11T08:41:59Z</time>
      </trkpt>
      <trkpt lat="43.81047" lon="1.10901">
        <ele>208.6</ele>
        <time>2024-07-11T08:42:00Z</time>
      </trkpt>
      <trkpt lat="43.81047" lon="1.10901">
        <ele>208.6</ele>
        <time>2024-07-11T08:42:01Z</time>
      </trkpt>
      <trkpt lat="43.81051" lon="1.10898">
        <ele>208.6</ele>
        <time>2024-07-11T08:42:02Z</time>
      </trkpt>
      <trkpt lat="43.81053" lon="1.10896">
        <ele>208.8</ele>
        <time>2024-07-11T08:42:03Z</time>
      </trkpt>
      <trkpt lat="43.81055" lon="1.10895">
        <ele>209</ele>
        <time>2024-07-11T08:42:04Z</time>
      </trkpt>
      <trkpt lat="43.81058" lon="1.10893">
        <ele>209</ele>
        <time>2024-07-11T08:42:05Z</time>
      </trkpt>
      <trkpt lat="43.8106" lon="1.10891">
        <ele>209.6</ele>
        <time>2024-07-11T08:42:06Z</time>
      </trkpt>
      <trkpt lat="43.81062" lon="1.1089">
        <ele>210.2</ele>
        <time>2024-07-11T08:42:07Z</time>
      </trkpt>
      <trkpt lat="43.81065" lon="1.10888">
        <ele>210.4</ele>
        <time>2024-07-11T08:42:08Z</time>
      </trkpt>
      <trkpt lat="43.81067" lon="1.10886">
        <ele>210.8</ele>
        <time>2024-07-11T08:42:09Z</time>
      </trkpt>
      <trkpt lat="43.81069" lon="1.10885">
        <ele>211</ele>
        <time>2024-07-11T08:42:10Z</time>
      </trkpt>
      <trkpt lat="43.81071" lon="1.10883">
        <ele>211.2</ele>
        <time>2024-07-11T08:42:11Z</time>
      </trkpt>
      <trkpt lat="43.81073" lon="1.10882">
        <ele>211.4</ele>
        <time>2024-07-11T08:42:12Z</time>
      </trkpt>
      <trkpt lat="43.81075" lon="1.1088">
        <ele>211.6</ele>
        <time>2024-07-11T08:42:13Z</time>
      </trkpt>
      <trkpt lat="43.81077" lon="1.10879">
        <ele>211.8</ele>
        <time>2024-07-11T08:42:14Z</time>
      </trkpt>
      <trkpt lat="43.81079" lon="1.10877">
        <ele>211.8</ele>
        <time>2024-07-11T08:42:15Z</time>
      </trkpt>
      <trkpt lat="43.81081" lon="1.10876">
        <ele>212</ele>
        <time>2024-07-11T08:42:16Z</time>
      </trkpt>
      <trkpt lat="43.81083" lon="1.10875">
        <ele>212.2</ele>
        <time>2024-07-11T08:42:17Z</time>
      </trkpt>
      <trkpt lat="43.81086" lon="1.10873">
        <ele>212.4</ele>
        <time>2024-07-11T08:42:18Z</time>
      </trkpt>
      <trkpt lat="43.81088" lon="1.10872">
        <ele>212.8</ele>
        <time>2024-07-11T08:42:19Z</time>
      </trkpt>
      <trkpt lat="43.8109" lon="1.10871">
        <ele>213</ele>
        <time>2024-07-11T08:42:20Z</time>
      </trkpt>
      <trkpt lat="43.81092" lon="1.1087">
        <ele>213.2</ele>
        <time>2024-07-11T08:42:21Z</time>
      </trkpt>
      <trkpt lat="43.81094" lon="1.10868">
        <ele>213.4</ele>
        <time>2024-07-11T08:42:22Z</time>
      </trkpt>
      <trkpt lat="43.81096" lon="1.10866">
        <ele>213.8</ele>
        <time>2024-07-11T08:42:23Z</time>
      </trkpt>
      <trkpt lat="43.81098" lon="1.10865">
        <ele>214</ele>
        <time>2024-07-11T08:42:24Z</time>
      </trkpt>
      <trkpt lat="43.811" lon="1.10864">
        <ele>214.2</ele>
        <time>2024-07-11T08:42:25Z</time>
      </trkpt>
      <trkpt lat="43.81102" lon="1.10863">
        <ele>214.4</ele>
        <time>2024-07-11T08:42:26Z</time>
      </trkpt>
      <trkpt lat="43.81104" lon="1.10861">
        <ele>214.4</ele>
        <time>2024-07-11T08:42:27Z</time>
      </trkpt>
      <trkpt lat="43.81106" lon="1.10859">
        <ele>214.8</ele>
        <time>2024-07-11T08:42:28Z</time>
      </trkpt>
      <trkpt lat="43.81108" lon="1.10857">
        <ele>215</ele>
        <time>2024-07-11T08:42:29Z</time>
      </trkpt>
      <trkpt lat="43.81109" lon="1.10855">
        <ele>215.4</ele>
        <time>2024-07-11T08:42:30Z</time>
      </trkpt>
      <trkpt lat="43.81111" lon="1.10853">
        <ele>215.8</ele>
        <time>2024-07-11T08:42:31Z</time>
      </trkpt>
      <trkpt lat="43.81113" lon="1.10852">
        <ele>215.8</ele>
        <time>2024-07-11T08:42:32Z</time>
      </trkpt>
      <trkpt lat="43.81116" lon="1.1085">
        <ele>216.2</ele>
        <time>2024-07-11T08:42:33Z</time>
      </trkpt>
      <trkpt lat="43.81118" lon="1.10849">
        <ele>216.4</ele>
        <time>2024-07-11T08:42:34Z</time>
      </trkpt>
      <trkpt lat="43.8112" lon="1.10847">
        <ele>216.6</ele>
        <time>2024-07-11T08:42:35Z</time>
      </trkpt>
      <trkpt lat="43.81121" lon="1.10845">
        <ele>216.8</ele>
        <time>2024-07-11T08:42:36Z</time>
      </trkpt>
      <trkpt lat="43.81123" lon="1.10843">
        <ele>217</ele>
        <time>2024-07-11T08:42:37Z</time>
      </trkpt>
      <trkpt lat="43.81126" lon="1.10841">
        <ele>217.2</ele>
        <time>2024-07-11T08:42:38Z</time>
      </trkpt>
      <trkpt lat="43.81127" lon="1.1084">
        <ele>217.2</ele>
        <time>2024-07-11T08:42:39Z</time>
      </trkpt>
      <trkpt lat="43.81129" lon="1.10838">
        <ele>217.4</ele>
        <time>2024-07-11T08:42:40Z</time>
      </trkpt>
      <trkpt lat="43.81131" lon="1.10837">
        <ele>217.6</ele>
        <time>2024-07-11T08:42:41Z</time>
      </trkpt>
      <trkpt lat="43.81132" lon="1.10835">
        <ele>217.8</ele>
        <time>2024-07-11T08:42:42Z</time>
      </trkpt>
      <trkpt lat="43.81134" lon="1.10832">
        <ele>218.4</ele>
        <time>2024-07-11T08:42:43Z</time>
      </trkpt>
      <trkpt lat="43.81136" lon="1.1083">
        <ele>219.2</ele>
        <time>2024-07-11T08:42:44Z</time>
      </trkpt>
      <trkpt lat="43.81137" lon="1.10829">
        <ele>219.4</ele>
        <time>2024-07-11T08:42:45Z</time>
      </trkpt>
      <trkpt lat="43.81139" lon="1.10827">
        <ele>219.6</ele>
        <time>2024-07-11T08:42:46Z</time>
      </trkpt>
      <trkpt lat="43.8114" lon="1.10824">
        <ele>220</ele>
        <time>2024-07-11T08:42:47Z</time>
      </trkpt>
      <trkpt lat="43.81142" lon="1.10822">
        <ele>220</ele>
        <time>2024-07-11T08:42:48Z</time>
      </trkpt>
      <trkpt lat="43.81143" lon="1.1082">
        <ele>220.2</ele>
        <time>2024-07-11T08:42:49Z</time>
      </trkpt>
      <trkpt lat="43.81145" lon="1.10818">
        <ele>220.4</ele>
        <time>2024-07-11T08:42:50Z</time>
      </trkpt>
      <trkpt lat="43.81146" lon="1.10816">
        <ele>220.6</ele>
        <time>2024-07-11T08:42:51Z</time>
      </trkpt>
      <trkpt lat="43.81148" lon="1.10814">
        <ele>221.2</ele>
        <time>2024-07-11T08:42:52Z</time>
      </trkpt>
      <trkpt lat="43.81149" lon="1.10811">
        <ele>221.4</ele>
        <time>2024-07-11T08:42:53Z</time>
      </trkpt>
      <trkpt lat="43.81151" lon="1.10809">
        <ele>221.8</ele>
        <time>2024-07-11T08:42:54Z</time>
      </trkpt>
      <trkpt lat="43.81152" lon="1.10807">
        <ele>221.8</ele>
        <time>2024-07-11T08:42:55Z</time>
      </trkpt>
      <trkpt lat="43.81154" lon="1.10805">
        <ele>222.2</ele>
        <time>2024-07-11T08:42:56Z</time>
      </trkpt>
      <trkpt lat="43.81155" lon="1.10803">
        <ele>222.6</ele>
        <time>2024-07-11T08:42:57Z</time>
      </trkpt>
      <trkpt lat="43.81156" lon="1.10801">
        <ele>222.6</ele>
        <time>2024-07-11T08:42:58Z</time>
      </trkpt>
      <trkpt lat="43.81157" lon="1.10798">
        <ele>223</ele>
        <time>2024-07-11T08:42:59Z</time>
      </trkpt>
      <trkpt lat="43.81158" lon="1.10796">
        <ele>223.2</ele>
        <time>2024-07-11T08:43:00Z</time>
      </trkpt>
      <trkpt lat="43.81159" lon="1.10794">
        <ele>223.6</ele>
        <time>2024-07-11T08:43:01Z</time>
      </trkpt>
      <trkpt lat="43.8116" lon="1.10791">
        <ele>223.8</ele>
        <time>2024-07-11T08:43:02Z</time>
      </trkpt>
      <trkpt lat="43.81161" lon="1.10789">
        <ele>224</ele>
        <time>2024-07-11T08:43:03Z</time>
      </trkpt>
      <trkpt lat="43.81162" lon="1.10787">
        <ele>224.4</ele>
        <time>2024-07-11T08:43:04Z</time>
      </trkpt>
      <trkpt lat="43.81163" lon="1.10786">
        <ele>224.4</ele>
        <time>2024-07-11T08:43:05Z</time>
      </trkpt>
      <trkpt lat="43.81164" lon="1.10784">
        <ele>224.6</ele>
        <time>2024-07-11T08:43:06Z</time>
      </trkpt>
      <trkpt lat="43.81165" lon="1.10782">
        <ele>224.8</ele>
        <time>2024-07-11T08:43:07Z</time>
      </trkpt>
      <trkpt lat="43.81165" lon="1.10781">
        <ele>225</ele>
        <time>2024-07-11T08:43:08Z</time>
      </trkpt>
      <trkpt lat="43.81166" lon="1.10779">
        <ele>225.2</ele>
        <time>2024-07-11T08:43:09Z</time>
      </trkpt>
      <trkpt lat="43.81167" lon="1.10778">
        <ele>225.4</ele>
        <time>2024-07-11T08:43:10Z</time>
      </trkpt>
      <trkpt lat="43.81168" lon="1.10776">
        <ele>225.4</ele>
        <time>2024-07-11T08:43:11Z</time>
      </trkpt>
      <trkpt lat="43.81169" lon="1.10774">
        <ele>225.6</ele>
        <time>2024-07-11T08:43:12Z</time>
      </trkpt>
      <trkpt lat="43.8117" lon="1.10772">
        <ele>225.8</ele>
        <time>2024-07-11T08:43:13Z</time>
      </trkpt>
      <trkpt lat="43.81172" lon="1.10771">
        <ele>226</ele>
        <time>2024-07-11T08:43:14Z</time>
      </trkpt>
      <trkpt lat="43.81173" lon="1.10769">
        <ele>226.4</ele>
        <time>2024-07-11T08:43:15Z</time>
      </trkpt>
      <trkpt lat="43.81174" lon="1.10768">
        <ele>227</ele>
        <time>2024-07-11T08:43:16Z</time>
      </trkpt>
      <trkpt lat="43.81175" lon="1.10765">
        <ele>227.2</ele>
        <time>2024-07-11T08:43:17Z</time>
      </trkpt>
      <trkpt lat="43.81175" lon="1.10763">
        <ele>227.6</ele>
        <time>2024-07-11T08:43:18Z</time>
      </trkpt>
      <trkpt lat="43.81176" lon="1.10761">
        <ele>227.8</ele>
        <time>2024-07-11T08:43:19Z</time>
      </trkpt>
      <trkpt lat="43.81177" lon="1.1076">
        <ele>228</ele>
        <time>2024-07-11T08:43:20Z</time>
      </trkpt>
      <trkpt lat="43.81177" lon="1.10758">
        <ele>228</ele>
        <time>2024-07-11T08:43:21Z</time>
      </trkpt>
      <trkpt lat="43.81178" lon="1.10755">
        <ele>228.2</ele>
        <time>2024-07-11T08:43:22Z</time>
      </trkpt>
      <trkpt lat="43.81179" lon="1.10753">
        <ele>228.8</ele>
        <time>2024-07-11T08:43:23Z</time>
      </trkpt>
      <trkpt lat="43.81179" lon="1.10751">
        <ele>229</ele>
        <time>2024-07-11T08:43:24Z</time>
      </trkpt>
      <trkpt lat="43.8118" lon="1.1075">
        <ele>229.6</ele>
        <time>2024-07-11T08:43:25Z</time>
      </trkpt>
      <trkpt lat="43.81181" lon="1.10749">
        <ele>229.8</ele>
        <time>2024-07-11T08:43:26Z</time>
      </trkpt>
      <trkpt lat="43.81182" lon="1.10746">
        <ele>230.2</ele>
        <time>2024-07-11T08:43:27Z</time>
      </trkpt>
      <trkpt lat="43.81183" lon="1.10744">
        <ele>230.4</ele>
        <time>2024-07-11T08:43:28Z</time>
      </trkpt>
      <trkpt lat="43.81184" lon="1.10741">
        <ele>230.6</ele>
        <time>2024-07-11T08:43:29Z</time>
      </trkpt>
      <trkpt lat="43.81184" lon="1.1074">
        <ele>231</ele>
        <time>2024-07-11T08:43:30Z</time>
      </trkpt>
      <trkpt lat="43.81184" lon="1.10738">
        <ele>231.2</ele>
        <time>2024-07-11T08:43:31Z</time>
      </trkpt>
      <trkpt lat="43.81185" lon="1.10736">
        <ele>231.6</ele>
        <time>2024-07-11T08:43:32Z</time>
      </trkpt>
      <trkpt lat="43.81185" lon="1.10734">
        <ele>231.6</ele>
        <time>2024-07-11T08:43:33Z</time>
      </trkpt>
      <trkpt lat="43.81186" lon="1.10731">
        <ele>231.8</ele>
        <time>2024-07-11T08:43:34Z</time>
      </trkpt>
      <trkpt lat="43.81187" lon="1.10729">
        <ele>232</ele>
        <time>2024-07-11T08:43:35Z</time>
      </trkpt>
      <trkpt lat="43.81188" lon="1.10727">
        <ele>232.2</ele>
        <time>2024-07-11T08:43:36Z</time>
      </trkpt>
      <trkpt lat="43.81188" lon="1.10724">
        <ele>232.6</ele>
        <time>2024-07-11T08:43:37Z</time>
      </trkpt>
      <trkpt lat="43.81189" lon="1.10722">
        <ele>232.8</ele>
        <time>2024-07-11T08:43:38Z</time>
      </trkpt>
      <trkpt lat="43.81189" lon="1.1072">
        <ele>233.2</ele>
        <time>2024-07-11T08:43:39Z</time>
      </trkpt>
      <trkpt lat="43.8119" lon="1.10717">
        <ele>233.4</ele>
        <time>2024-07-11T08:43:40Z</time>
      </trkpt>
      <trkpt lat="43.8119" lon="1.10714">
        <ele>233.6</ele>
        <time>2024-07-11T08:43:41Z</time>
      </trkpt>
      <trkpt lat="43.81191" lon="1.10712">
        <ele>233.8</ele>
        <time>2024-07-11T08:43:42Z</time>
      </trkpt>
      <trkpt lat="43.81191" lon="1.1071">
        <ele>234</ele>
        <time>2024-07-11T08:43:43Z</time>
      </trkpt>
      <trkpt lat="43.81192" lon="1.10708">
        <ele>234.2</ele>
        <time>2024-07-11T08:43:44Z</time>
      </trkpt>
      <trkpt lat="43.81193" lon="1.10705">
        <ele>234.4</ele>
        <time>2024-07-11T08:43:45Z</time>
      </trkpt>
      <trkpt lat="43.81194" lon="1.10702">
        <ele>234.6</ele>
        <time>2024-07-11T08:43:46Z</time>
      </trkpt>
      <trkpt lat="43.81194" lon="1.107">
        <ele>235</ele>
        <time>2024-07-11T08:43:47Z</time>
      </trkpt>
      <trkpt lat="43.81194" lon="1.107">
        <ele>235.2</ele>
        <time>2024-07-11T08:43:48Z</time>
      </trkpt>
      <trkpt lat="43.81194" lon="1.10695">
        <ele>235.6</ele>
        <time>2024-07-11T08:43:49Z</time>
      </trkpt>
      <trkpt lat="43.81194" lon="1.10692">
        <ele>235.8</ele>
        <time>2024-07-11T08:43:50Z</time>
      </trkpt>
      <trkpt lat="43.81195" lon="1.10689">
        <ele>236</ele>
        <time>2024-07-11T08:43:51Z</time>
      </trkpt>
      <trkpt lat="43.81196" lon="1.10687">
        <ele>236.2</ele>
        <time>2024-07-11T08:43:52Z</time>
      </trkpt>
      <trkpt lat="43.81196" lon="1.10685">
        <ele>236.6</ele>
        <time>2024-07-11T08:43:53Z</time>
      </trkpt>
      <trkpt lat="43.81196" lon="1.10681">
        <ele>237.2</ele>
        <time>2024-07-11T08:43:54Z</time>
      </trkpt>
      <trkpt lat="43.81196" lon="1.10677">
        <ele>237.4</ele>
        <time>2024-07-11T08:43:55Z</time>
      </trkpt>
      <trkpt lat="43.81195" lon="1.10673">
        <ele>237.8</ele>
        <time>2024-07-11T08:43:56Z</time>
      </trkpt>
      <trkpt lat="43.81194" lon="1.10671">
        <ele>238</ele>
        <time>2024-07-11T08:43:57Z</time>
      </trkpt>
      <trkpt lat="43.81193" lon="1.10668">
        <ele>238</ele>
        <time>2024-07-11T08:43:58Z</time>
      </trkpt>
      <trkpt lat="43.81192" lon="1.10665">
        <ele>238.2</ele>
        <time>2024-07-11T08:43:59Z</time>
      </trkpt>
      <trkpt lat="43.81192" lon="1.10662">
        <ele>238.4</ele>
        <time>2024-07-11T08:44:00Z</time>
      </trkpt>
      <trkpt lat="43.81191" lon="1.10659">
        <ele>238.6</ele>
        <time>2024-07-11T08:44:01Z</time>
      </trkpt>
      <trkpt lat="43.8119" lon="1.10656">
        <ele>238.6</ele>
        <time>2024-07-11T08:44:02Z</time>
      </trkpt>
      <trkpt lat="43.81189" lon="1.10654">
        <ele>238.8</ele>
        <time>2024-07-11T08:44:03Z</time>
      </trkpt>
      <trkpt lat="43.81188" lon="1.10651">
        <ele>239</ele>
        <time>2024-07-11T08:44:04Z</time>
      </trkpt>
      <trkpt lat="43.81187" lon="1.10648">
        <ele>239</ele>
        <time>2024-07-11T08:44:05Z</time>
      </trkpt>
      <trkpt lat="43.81185" lon="1.10646">
        <ele>239.2</ele>
        <time>2024-07-11T08:44:06Z</time>
      </trkpt>
      <trkpt lat="43.81184" lon="1.10643">
        <ele>239.4</ele>
        <time>2024-07-11T08:44:07Z</time>
      </trkpt>
      <trkpt lat="43.81182" lon="1.1064">
        <ele>239.6</ele>
        <time>2024-07-11T08:44:08Z</time>
      </trkpt>
      <trkpt lat="43.8118" lon="1.10637">
        <ele>239.6</ele>
        <time>2024-07-11T08:44:09Z</time>
      </trkpt>
      <trkpt lat="43.81178" lon="1.10635">
        <ele>239.8</ele>
        <time>2024-07-11T08:44:10Z</time>
      </trkpt>
      <trkpt lat="43.81176" lon="1.10632">
        <ele>240</ele>
        <time>2024-07-11T08:44:11Z</time>
      </trkpt>
      <trkpt lat="43.81174" lon="1.10629">
        <ele>240.2</ele>
        <time>2024-07-11T08:44:12Z</time>
      </trkpt>
      <trkpt lat="43.81172" lon="1.10625">
        <ele>240.6</ele>
        <time>2024-07-11T08:44:13Z</time>
      </trkpt>
      <trkpt lat="43.81171" lon="1.10622">
        <ele>240.6</ele>
        <time>2024-07-11T08:44:14Z</time>
      </trkpt>
      <trkpt lat="43.81169" lon="1.10619">
        <ele>241</ele>
        <time>2024-07-11T08:44:15Z</time>
      </trkpt>
      <trkpt lat="43.81168" lon="1.10615">
        <ele>241.2</ele>
        <time>2024-07-11T08:44:16Z</time>
      </trkpt>
      <trkpt lat="43.81166" lon="1.10612">
        <ele>241.4</ele>
        <time>2024-07-11T08:44:17Z</time>
      </trkpt>
      <trkpt lat="43.81165" lon="1.10609">
        <ele>241.6</ele>
        <time>2024-07-11T08:44:18Z</time>
      </trkpt>
      <trkpt lat="43.81165" lon="1.10606">
        <ele>241.6</ele>
        <time>2024-07-11T08:44:19Z</time>
      </trkpt>
      <trkpt lat="43.81164" lon="1.10603">
        <ele>241.8</ele>
        <time>2024-07-11T08:44:20Z</time>
      </trkpt>
      <trkpt lat="43.81163" lon="1.106">
        <ele>241.8</ele>
        <time>2024-07-11T08:44:21Z</time>
      </trkpt>
      <trkpt lat="43.81162" lon="1.10597">
        <ele>241.8</ele>
        <time>2024-07-11T08:44:22Z</time>
      </trkpt>
      <trkpt lat="43.81162" lon="1.10593">
        <ele>242</ele>
        <time>2024-07-11T08:44:23Z</time>
      </trkpt>
      <trkpt lat="43.81161" lon="1.1059">
        <ele>242.2</ele>
        <time>2024-07-11T08:44:24Z</time>
      </trkpt>
      <trkpt lat="43.81161" lon="1.10586">
        <ele>242.6</ele>
        <time>2024-07-11T08:44:25Z</time>
      </trkpt>
      <trkpt lat="43.8116" lon="1.10583">
        <ele>243</ele>
        <time>2024-07-11T08:44:26Z</time>
      </trkpt>
      <trkpt lat="43.8116" lon="1.1058">
        <ele>243.4</ele>
        <time>2024-07-11T08:44:27Z</time>
      </trkpt>
      <trkpt lat="43.81159" lon="1.10576">
        <ele>243.4</ele>
        <time>2024-07-11T08:44:28Z</time>
      </trkpt>
      <trkpt lat="43.81159" lon="1.10573">
        <ele>243.8</ele>
        <time>2024-07-11T08:44:29Z</time>
      </trkpt>
      <trkpt lat="43.81159" lon="1.1057">
        <ele>244.2</ele>
        <time>2024-07-11T08:44:30Z</time>
      </trkpt>
      <trkpt lat="43.81159" lon="1.10566">
        <ele>244.2</ele>
        <time>2024-07-11T08:44:31Z</time>
      </trkpt>
      <trkpt lat="43.81159" lon="1.10563">
        <ele>244.4</ele>
        <time>2024-07-11T08:44:32Z</time>
      </trkpt>
      <trkpt lat="43.81159" lon="1.1056">
        <ele>244.4</ele>
        <time>2024-07-11T08:44:33Z</time>
      </trkpt>
      <trkpt lat="43.81159" lon="1.10556">
        <ele>244.6</ele>
        <time>2024-07-11T08:44:34Z</time>
      </trkpt>
      <trkpt lat="43.81159" lon="1.10553">
        <ele>244.6</ele>
        <time>2024-07-11T08:44:35Z</time>
      </trkpt>
      <trkpt lat="43.81159" lon="1.10549">
        <ele>244.8</ele>
        <time>2024-07-11T08:44:36Z</time>
      </trkpt>
      <trkpt lat="43.81158" lon="1.10545">
        <ele>245</ele>
        <time>2024-07-11T08:44:37Z</time>
      </trkpt>
      <trkpt lat="43.81158" lon="1.10542">
        <ele>245.2</ele>
        <time>2024-07-11T08:44:38Z</time>
      </trkpt>
      <trkpt lat="43.81158" lon="1.10539">
        <ele>245.6</ele>
        <time>2024-07-11T08:44:39Z</time>
      </trkpt>
      <trkpt lat="43.81157" lon="1.10535">
        <ele>245.8</ele>
        <time>2024-07-11T08:44:40Z</time>
      </trkpt>
      <trkpt lat="43.81157" lon="1.10532">
        <ele>246</ele>
        <time>2024-07-11T08:44:41Z</time>
      </trkpt>
      <trkpt lat="43.81156" lon="1.10529">
        <ele>246</ele>
        <time>2024-07-11T08:44:42Z</time>
      </trkpt>
      <trkpt lat="43.81156" lon="1.10525">
        <ele>246.4</ele>
        <time>2024-07-11T08:44:43Z</time>
      </trkpt>
      <trkpt lat="43.81155" lon="1.10522">
        <ele>246.8</ele>
        <time>2024-07-11T08:44:44Z</time>
      </trkpt>
      <trkpt lat="43.81155" lon="1.10518">
        <ele>246.8</ele>
        <time>2024-07-11T08:44:45Z</time>
      </trkpt>
      <trkpt lat="43.81155" lon="1.10515">
        <ele>247</ele>
        <time>2024-07-11T08:44:46Z</time>
      </trkpt>
      <trkpt lat="43.81155" lon="1.10511">
        <ele>247.2</ele>
        <time>2024-07-11T08:44:47Z</time>
      </trkpt>
      <trkpt lat="43.81154" lon="1.10508">
        <ele>247.4</ele>
        <time>2024-07-11T08:44:48Z</time>
      </trkpt>
      <trkpt lat="43.81154" lon="1.10504">
        <ele>247.6</ele>
        <time>2024-07-11T08:44:49Z</time>
      </trkpt>
      <trkpt lat="43.81153" lon="1.10501">
        <ele>247.6</ele>
        <time>2024-07-11T08:44:50Z</time>
      </trkpt>
      <trkpt lat="43.81153" lon="1.10498">
        <ele>247.8</ele>
        <time>2024-07-11T08:44:51Z</time>
      </trkpt>
      <trkpt lat="43.81154" lon="1.10495">
        <ele>248</ele>
        <time>2024-07-11T08:44:52Z</time>
      </trkpt>
      <trkpt lat="43.81154" lon="1.10491">
        <ele>248.4</ele>
        <time>2024-07-11T08:44:53Z</time>
      </trkpt>
      <trkpt lat="43.81154" lon="1.10489">
        <ele>248.4</ele>
        <time>2024-07-11T08:44:54Z</time>
      </trkpt>
      <trkpt lat="43.81154" lon="1.10487">
        <ele>248.6</ele>
        <time>2024-07-11T08:44:55Z</time>
      </trkpt>
      <trkpt lat="43.81154" lon="1.10483">
        <ele>248.8</ele>
        <time>2024-07-11T08:44:56Z</time>
      </trkpt>
      <trkpt lat="43.81152" lon="1.10479">
        <ele>248.8</ele>
        <time>2024-07-11T08:44:57Z</time>
      </trkpt>
      <trkpt lat="43.81151" lon="1.10475">
        <ele>248.8</ele>
        <time>2024-07-11T08:44:58Z</time>
      </trkpt>
      <trkpt lat="43.81151" lon="1.10475">
        <ele>249.2</ele>
        <time>2024-07-11T08:44:59Z</time>
      </trkpt>
      <trkpt lat="43.81149" lon="1.10465">
        <ele>249.6</ele>
        <time>2024-07-11T08:45:00Z</time>
      </trkpt>
      <trkpt lat="43.81148" lon="1.1046">
        <ele>249.8</ele>
        <time>2024-07-11T08:45:01Z</time>
      </trkpt>
      <trkpt lat="43.81147" lon="1.10455">
        <ele>250</ele>
        <time>2024-07-11T08:45:02Z</time>
      </trkpt>
      <trkpt lat="43.81145" lon="1.1045">
        <ele>250.2</ele>
        <time>2024-07-11T08:45:03Z</time>
      </trkpt>
      <trkpt lat="43.81143" lon="1.10444">
        <ele>250.2</ele>
        <time>2024-07-11T08:45:04Z</time>
      </trkpt>
      <trkpt lat="43.81142" lon="1.10439">
        <ele>250.4</ele>
        <time>2024-07-11T08:45:05Z</time>
      </trkpt>
      <trkpt lat="43.8114" lon="1.10433">
        <ele>250.4</ele>
        <time>2024-07-11T08:45:06Z</time>
      </trkpt>
      <trkpt lat="43.81138" lon="1.10427">
        <ele>250.6</ele>
        <time>2024-07-11T08:45:07Z</time>
      </trkpt>
      <trkpt lat="43.81137" lon="1.10421">
        <ele>251</ele>
        <time>2024-07-11T08:45:08Z</time>
      </trkpt>
      <trkpt lat="43.81135" lon="1.10415">
        <ele>251</ele>
        <time>2024-07-11T08:45:09Z</time>
      </trkpt>
      <trkpt lat="43.81133" lon="1.10408">
        <ele>251.2</ele>
        <time>2024-07-11T08:45:10Z</time>
      </trkpt>
      <trkpt lat="43.81131" lon="1.10402">
        <ele>251.2</ele>
        <time>2024-07-11T08:45:11Z</time>
      </trkpt>
      <trkpt lat="43.81129" lon="1.10397">
        <ele>251.4</ele>
        <time>2024-07-11T08:45:12Z</time>
      </trkpt>
      <trkpt lat="43.81127" lon="1.10391">
        <ele>251.6</ele>
        <time>2024-07-11T08:45:13Z</time>
      </trkpt>
      <trkpt lat="43.81126" lon="1.10385">
        <ele>251.8</ele>
        <time>2024-07-11T08:45:14Z</time>
      </trkpt>
      <trkpt lat="43.81124" lon="1.10379">
        <ele>252</ele>
        <time>2024-07-11T08:45:15Z</time>
      </trkpt>
      <trkpt lat="43.81122" lon="1.10372">
        <ele>252</ele>
        <time>2024-07-11T08:45:16Z</time>
      </trkpt>
      <trkpt lat="43.81121" lon="1.10367">
        <ele>252</ele>
        <time>2024-07-11T08:45:17Z</time>
      </trkpt>
      <trkpt lat="43.81119" lon="1.10361">
        <ele>252.2</ele>
        <time>2024-07-11T08:45:18Z</time>
      </trkpt>
      <trkpt lat="43.81118" lon="1.10354">
        <ele>252.4</ele>
        <time>2024-07-11T08:45:19Z</time>
      </trkpt>
      <trkpt lat="43.81116" lon="1.10348">
        <ele>252.6</ele>
        <time>2024-07-11T08:45:20Z</time>
      </trkpt>
      <trkpt lat="43.81115" lon="1.10342">
        <ele>252.6</ele>
        <time>2024-07-11T08:45:21Z</time>
      </trkpt>
      <trkpt lat="43.81114" lon="1.10335">
        <ele>252.8</ele>
        <time>2024-07-11T08:45:22Z</time>
      </trkpt>
      <trkpt lat="43.81113" lon="1.10328">
        <ele>252.8</ele>
        <time>2024-07-11T08:45:23Z</time>
      </trkpt>
      <trkpt lat="43.81113" lon="1.10322">
        <ele>253</ele>
        <time>2024-07-11T08:45:24Z</time>
      </trkpt>
      <trkpt lat="43.81114" lon="1.10315">
        <ele>253</ele>
        <time>2024-07-11T08:45:25Z</time>
      </trkpt>
      <trkpt lat="43.81114" lon="1.10309">
        <ele>253.2</ele>
        <time>2024-07-11T08:45:26Z</time>
      </trkpt>
      <trkpt lat="43.81115" lon="1.10302">
        <ele>253.4</ele>
        <time>2024-07-11T08:45:27Z</time>
      </trkpt>
      <trkpt lat="43.81115" lon="1.10295">
        <ele>253.6</ele>
        <time>2024-07-11T08:45:28Z</time>
      </trkpt>
      <trkpt lat="43.81116" lon="1.10288">
        <ele>253.8</ele>
        <time>2024-07-11T08:45:29Z</time>
      </trkpt>
      <trkpt lat="43.81117" lon="1.10281">
        <ele>253.8</ele>
        <time>2024-07-11T08:45:30Z</time>
      </trkpt>
      <trkpt lat="43.81118" lon="1.10274">
        <ele>254</ele>
        <time>2024-07-11T08:45:31Z</time>
      </trkpt>
      <trkpt lat="43.81119" lon="1.10267">
        <ele>254</ele>
        <time>2024-07-11T08:45:32Z</time>
      </trkpt>
      <trkpt lat="43.8112" lon="1.1026">
        <ele>254</ele>
        <time>2024-07-11T08:45:33Z</time>
      </trkpt>
      <trkpt lat="43.81121" lon="1.10252">
        <ele>254.2</ele>
        <time>2024-07-11T08:45:34Z</time>
      </trkpt>
      <trkpt lat="43.81123" lon="1.10245">
        <ele>254.4</ele>
        <time>2024-07-11T08:45:35Z</time>
      </trkpt>
      <trkpt lat="43.81124" lon="1.10237">
        <ele>254.6</ele>
        <time>2024-07-11T08:45:36Z</time>
      </trkpt>
      <trkpt lat="43.81126" lon="1.10229">
        <ele>254.6</ele>
        <time>2024-07-11T08:45:37Z</time>
      </trkpt>
      <trkpt lat="43.81127" lon="1.10222">
        <ele>254.6</ele>
        <time>2024-07-11T08:45:38Z</time>
      </trkpt>
      <trkpt lat="43.81127" lon="1.10222">
        <ele>254.6</ele>
        <time>2024-07-11T08:45:39Z</time>
      </trkpt>
      <trkpt lat="43.8113" lon="1.10206">
        <ele>254.6</ele>
        <time>2024-07-11T08:45:40Z</time>
      </trkpt>
      <trkpt lat="43.81131" lon="1.10198">
        <ele>254.6</ele>
        <time>2024-07-11T08:45:41Z</time>
      </trkpt>
      <trkpt lat="43.81133" lon="1.1019">
        <ele>254.6</ele>
        <time>2024-07-11T08:45:42Z</time>
      </trkpt>
      <trkpt lat="43.81134" lon="1.10183">
        <ele>254.6</ele>
        <time>2024-07-11T08:45:43Z</time>
      </trkpt>
      <trkpt lat="43.81135" lon="1.10176">
        <ele>254.6</ele>
        <time>2024-07-11T08:45:44Z</time>
      </trkpt>
      <trkpt lat="43.81137" lon="1.10169">
        <ele>254.6</ele>
        <time>2024-07-11T08:45:45Z</time>
      </trkpt>
      <trkpt lat="43.81139" lon="1.10163">
        <ele>254.6</ele>
        <time>2024-07-11T08:45:46Z</time>
      </trkpt>
      <trkpt lat="43.81141" lon="1.10156">
        <ele>254.6</ele>
        <time>2024-07-11T08:45:47Z</time>
      </trkpt>
      <trkpt lat="43.81144" lon="1.10149">
        <ele>254.6</ele>
        <time>2024-07-11T08:45:48Z</time>
      </trkpt>
      <trkpt lat="43.81146" lon="1.10142">
        <ele>254.6</ele>
        <time>2024-07-11T08:45:49Z</time>
      </trkpt>
      <trkpt lat="43.81149" lon="1.10135">
        <ele>254.8</ele>
        <time>2024-07-11T08:45:50Z</time>
      </trkpt>
      <trkpt lat="43.81151" lon="1.10128">
        <ele>254.8</ele>
        <time>2024-07-11T08:45:51Z</time>
      </trkpt>
      <trkpt lat="43.81154" lon="1.10121">
        <ele>255</ele>
        <time>2024-07-11T08:45:52Z</time>
      </trkpt>
      <trkpt lat="43.81156" lon="1.10114">
        <ele>255</ele>
        <time>2024-07-11T08:45:53Z</time>
      </trkpt>
      <trkpt lat="43.81159" lon="1.10107">
        <ele>255</ele>
        <time>2024-07-11T08:45:54Z</time>
      </trkpt>
      <trkpt lat="43.81162" lon="1.10099">
        <ele>255.4</ele>
        <time>2024-07-11T08:45:55Z</time>
      </trkpt>
      <trkpt lat="43.81164" lon="1.10092">
        <ele>255.4</ele>
        <time>2024-07-11T08:45:56Z</time>
      </trkpt>
      <trkpt lat="43.81164" lon="1.10092">
        <ele>255.6</ele>
        <time>2024-07-11T08:45:57Z</time>
      </trkpt>
      <trkpt lat="43.81169" lon="1.10078">
        <ele>255.8</ele>
        <time>2024-07-11T08:45:58Z</time>
      </trkpt>
      <trkpt lat="43.81171" lon="1.10071">
        <ele>255.8</ele>
        <time>2024-07-11T08:45:59Z</time>
      </trkpt>
      <trkpt lat="43.81174" lon="1.10064">
        <ele>256</ele>
        <time>2024-07-11T08:46:00Z</time>
      </trkpt>
      <trkpt lat="43.81176" lon="1.10058">
        <ele>256</ele>
        <time>2024-07-11T08:46:01Z</time>
      </trkpt>
      <trkpt lat="43.81179" lon="1.10051">
        <ele>256.2</ele>
        <time>2024-07-11T08:46:02Z</time>
      </trkpt>
      <trkpt lat="43.81181" lon="1.10044">
        <ele>256.4</ele>
        <time>2024-07-11T08:46:03Z</time>
      </trkpt>
      <trkpt lat="43.81183" lon="1.10037">
        <ele>256.6</ele>
        <time>2024-07-11T08:46:04Z</time>
      </trkpt>
      <trkpt lat="43.81185" lon="1.10029">
        <ele>256.6</ele>
        <time>2024-07-11T08:46:05Z</time>
      </trkpt>
      <trkpt lat="43.81187" lon="1.10022">
        <ele>256.8</ele>
        <time>2024-07-11T08:46:06Z</time>
      </trkpt>
      <trkpt lat="43.8119" lon="1.10014">
        <ele>257</ele>
        <time>2024-07-11T08:46:07Z</time>
      </trkpt>
      <trkpt lat="43.81192" lon="1.10007">
        <ele>257</ele>
        <time>2024-07-11T08:46:08Z</time>
      </trkpt>
      <trkpt lat="43.81194" lon="1.09999">
        <ele>257.2</ele>
        <time>2024-07-11T08:46:09Z</time>
      </trkpt>
      <trkpt lat="43.81197" lon="1.09992">
        <ele>257.4</ele>
        <time>2024-07-11T08:46:10Z</time>
      </trkpt>
      <trkpt lat="43.81199" lon="1.09984">
        <ele>257.4</ele>
        <time>2024-07-11T08:46:11Z</time>
      </trkpt>
      <trkpt lat="43.81201" lon="1.09977">
        <ele>257.6</ele>
        <time>2024-07-11T08:46:12Z</time>
      </trkpt>
      <trkpt lat="43.81203" lon="1.09969">
        <ele>257.8</ele>
        <time>2024-07-11T08:46:13Z</time>
      </trkpt>
      <trkpt lat="43.81205" lon="1.09962">
        <ele>258</ele>
        <time>2024-07-11T08:46:14Z</time>
      </trkpt>
      <trkpt lat="43.81207" lon="1.09955">
        <ele>258.2</ele>
        <time>2024-07-11T08:46:15Z</time>
      </trkpt>
      <trkpt lat="43.81209" lon="1.09948">
        <ele>258.2</ele>
        <time>2024-07-11T08:46:16Z</time>
      </trkpt>
      <trkpt lat="43.81211" lon="1.0994">
        <ele>258.4</ele>
        <time>2024-07-11T08:46:17Z</time>
      </trkpt>
      <trkpt lat="43.81213" lon="1.09933">
        <ele>258.6</ele>
        <time>2024-07-11T08:46:18Z</time>
      </trkpt>
      <trkpt lat="43.81215" lon="1.09925">
        <ele>258.6</ele>
        <time>2024-07-11T08:46:19Z</time>
      </trkpt>
      <trkpt lat="43.81217" lon="1.09918">
        <ele>258.8</ele>
        <time>2024-07-11T08:46:20Z</time>
      </trkpt>
      <trkpt lat="43.8122" lon="1.09911">
        <ele>258.8</ele>
        <time>2024-07-11T08:46:21Z</time>
      </trkpt>
      <trkpt lat="43.81222" lon="1.09903">
        <ele>258.8</ele>
        <time>2024-07-11T08:46:22Z</time>
      </trkpt>
      <trkpt lat="43.81224" lon="1.09896">
        <ele>259</ele>
        <time>2024-07-11T08:46:23Z</time>
      </trkpt>
      <trkpt lat="43.81227" lon="1.09889">
        <ele>259</ele>
        <time>2024-07-11T08:46:24Z</time>
      </trkpt>
      <trkpt lat="43.81229" lon="1.09882">
        <ele>259.2</ele>
        <time>2024-07-11T08:46:25Z</time>
      </trkpt>
      <trkpt lat="43.81232" lon="1.09876">
        <ele>259.4</ele>
        <time>2024-07-11T08:46:26Z</time>
      </trkpt>
      <trkpt lat="43.81236" lon="1.09869">
        <ele>259.6</ele>
        <time>2024-07-11T08:46:27Z</time>
      </trkpt>
      <trkpt lat="43.8124" lon="1.09863">
        <ele>259.6</ele>
        <time>2024-07-11T08:46:28Z</time>
      </trkpt>
      <trkpt lat="43.81244" lon="1.09857">
        <ele>259.8</ele>
        <time>2024-07-11T08:46:29Z</time>
      </trkpt>
      <trkpt lat="43.81249" lon="1.09852">
        <ele>259.8</ele>
        <time>2024-07-11T08:46:30Z</time>
      </trkpt>
      <trkpt lat="43.81253" lon="1.09846">
        <ele>259.8</ele>
        <time>2024-07-11T08:46:31Z</time>
      </trkpt>
      <trkpt lat="43.8126" lon="1.0984">
        <ele>259.8</ele>
        <time>2024-07-11T08:46:32Z</time>
      </trkpt>
      <trkpt lat="43.81265" lon="1.09836">
        <ele>259.8</ele>
        <time>2024-07-11T08:46:33Z</time>
      </trkpt>
      <trkpt lat="43.81271" lon="1.09831">
        <ele>259.8</ele>
        <time>2024-07-11T08:46:34Z</time>
      </trkpt>
      <trkpt lat="43.81277" lon="1.09826">
        <ele>259.8</ele>
        <time>2024-07-11T08:46:35Z</time>
      </trkpt>
      <trkpt lat="43.81283" lon="1.09822">
        <ele>259.4</ele>
        <time>2024-07-11T08:46:36Z</time>
      </trkpt>
      <trkpt lat="43.81288" lon="1.09818">
        <ele>259.4</ele>
        <time>2024-07-11T08:46:37Z</time>
      </trkpt>
      <trkpt lat="43.81294" lon="1.09813">
        <ele>259.2</ele>
        <time>2024-07-11T08:46:38Z</time>
      </trkpt>
      <trkpt lat="43.81299" lon="1.09808">
        <ele>259.2</ele>
        <time>2024-07-11T08:46:39Z</time>
      </trkpt>
      <trkpt lat="43.81305" lon="1.09803">
        <ele>258.8</ele>
        <time>2024-07-11T08:46:40Z</time>
      </trkpt>
      <trkpt lat="43.81311" lon="1.09798">
        <ele>258.6</ele>
        <time>2024-07-11T08:46:41Z</time>
      </trkpt>
      <trkpt lat="43.81316" lon="1.09793">
        <ele>258.4</ele>
        <time>2024-07-11T08:46:42Z</time>
      </trkpt>
      <trkpt lat="43.81322" lon="1.09788">
        <ele>258.2</ele>
        <time>2024-07-11T08:46:43Z</time>
      </trkpt>
      <trkpt lat="43.81327" lon="1.09782">
        <ele>258</ele>
        <time>2024-07-11T08:46:44Z</time>
      </trkpt>
      <trkpt lat="43.81332" lon="1.09777">
        <ele>258</ele>
        <time>2024-07-11T08:46:45Z</time>
      </trkpt>
      <trkpt lat="43.81338" lon="1.09771">
        <ele>257.8</ele>
        <time>2024-07-11T08:46:46Z</time>
      </trkpt>
      <trkpt lat="43.81342" lon="1.09765">
        <ele>257.6</ele>
        <time>2024-07-11T08:46:47Z</time>
      </trkpt>
      <trkpt lat="43.81347" lon="1.09758">
        <ele>257.4</ele>
        <time>2024-07-11T08:46:48Z</time>
      </trkpt>
      <trkpt lat="43.81352" lon="1.09752">
        <ele>257.4</ele>
        <time>2024-07-11T08:46:49Z</time>
      </trkpt>
      <trkpt lat="43.81357" lon="1.09745">
        <ele>257.2</ele>
        <time>2024-07-11T08:46:50Z</time>
      </trkpt>
      <trkpt lat="43.81361" lon="1.09738">
        <ele>257</ele>
        <time>2024-07-11T08:46:51Z</time>
      </trkpt>
      <trkpt lat="43.81365" lon="1.09733">
        <ele>257</ele>
        <time>2024-07-11T08:46:52Z</time>
      </trkpt>
      <trkpt lat="43.81369" lon="1.09725">
        <ele>256.6</ele>
        <time>2024-07-11T08:46:53Z</time>
      </trkpt>
      <trkpt lat="43.81374" lon="1.09716">
        <ele>256.8</ele>
        <time>2024-07-11T08:46:54Z</time>
      </trkpt>
      <trkpt lat="43.81379" lon="1.09709">
        <ele>256.6</ele>
        <time>2024-07-11T08:46:55Z</time>
      </trkpt>
      <trkpt lat="43.81383" lon="1.09701">
        <ele>256.4</ele>
        <time>2024-07-11T08:46:56Z</time>
      </trkpt>
      <trkpt lat="43.81387" lon="1.09694">
        <ele>256.2</ele>
        <time>2024-07-11T08:46:57Z</time>
      </trkpt>
      <trkpt lat="43.81391" lon="1.09687">
        <ele>256.2</ele>
        <time>2024-07-11T08:46:58Z</time>
      </trkpt>
      <trkpt lat="43.81395" lon="1.09679">
        <ele>256</ele>
        <time>2024-07-11T08:46:59Z</time>
      </trkpt>
      <trkpt lat="43.81399" lon="1.09672">
        <ele>255.6</ele>
        <time>2024-07-11T08:47:00Z</time>
      </trkpt>
      <trkpt lat="43.81403" lon="1.09665">
        <ele>255.6</ele>
        <time>2024-07-11T08:47:01Z</time>
      </trkpt>
      <trkpt lat="43.81406" lon="1.09659">
        <ele>255.6</ele>
        <time>2024-07-11T08:47:02Z</time>
      </trkpt>
      <trkpt lat="43.8141" lon="1.09655">
        <ele>255.6</ele>
        <time>2024-07-11T08:47:03Z</time>
      </trkpt>
      <trkpt lat="43.81412" lon="1.09655">
        <ele>255.6</ele>
        <time>2024-07-11T08:47:04Z</time>
      </trkpt>
      <trkpt lat="43.81414" lon="1.09656">
        <ele>255.4</ele>
        <time>2024-07-11T08:47:05Z</time>
      </trkpt>
      <trkpt lat="43.81416" lon="1.09657">
        <ele>255.6</ele>
        <time>2024-07-11T08:47:06Z</time>
      </trkpt>
      <trkpt lat="43.81416" lon="1.09658">
        <ele>255.2</ele>
        <time>2024-07-11T08:47:07Z</time>
      </trkpt>
      <trkpt lat="43.81417" lon="1.09658">
        <ele>255.2</ele>
        <time>2024-07-11T08:47:08Z</time>
      </trkpt>
      <trkpt lat="43.81417" lon="1.09658">
        <ele>255.2</ele>
        <time>2024-07-11T08:47:09Z</time>
      </trkpt>
      <trkpt lat="43.81419" lon="1.0966">
        <ele>255</ele>
        <time>2024-07-11T08:48:34Z</time>
      </trkpt>
      <trkpt lat="43.8142" lon="1.09662">
        <ele>255.2</ele>
        <time>2024-07-11T08:48:35Z</time>
      </trkpt>
      <trkpt lat="43.81422" lon="1.09664">
        <ele>255.2</ele>
        <time>2024-07-11T08:48:36Z</time>
      </trkpt>
      <trkpt lat="43.81425" lon="1.09667">
        <ele>255</ele>
        <time>2024-07-11T08:48:37Z</time>
      </trkpt>
      <trkpt lat="43.81428" lon="1.09671">
        <ele>255</ele>
        <time>2024-07-11T08:48:38Z</time>
      </trkpt>
      <trkpt lat="43.81431" lon="1.09675">
        <ele>255</ele>
        <time>2024-07-11T08:48:39Z</time>
      </trkpt>
      <trkpt lat="43.81434" lon="1.09678">
        <ele>254.8</ele>
        <time>2024-07-11T08:48:40Z</time>
      </trkpt>
      <trkpt lat="43.81437" lon="1.09681">
        <ele>254.8</ele>
        <time>2024-07-11T08:48:41Z</time>
      </trkpt>
      <trkpt lat="43.8144" lon="1.09685">
        <ele>254.6</ele>
        <time>2024-07-11T08:48:42Z</time>
      </trkpt>
      <trkpt lat="43.81445" lon="1.09689">
        <ele>254.6</ele>
        <time>2024-07-11T08:48:43Z</time>
      </trkpt>
      <trkpt lat="43.8145" lon="1.09693">
        <ele>254.4</ele>
        <time>2024-07-11T08:48:44Z</time>
      </trkpt>
      <trkpt lat="43.81454" lon="1.09696">
        <ele>254.2</ele>
        <time>2024-07-11T08:48:45Z</time>
      </trkpt>
      <trkpt lat="43.81458" lon="1.09698">
        <ele>254.4</ele>
        <time>2024-07-11T08:48:46Z</time>
      </trkpt>
      <trkpt lat="43.81463" lon="1.097">
        <ele>254</ele>
        <time>2024-07-11T08:48:47Z</time>
      </trkpt>
      <trkpt lat="43.8147" lon="1.09701">
        <ele>254</ele>
        <time>2024-07-11T08:48:48Z</time>
      </trkpt>
      <trkpt lat="43.81476" lon="1.09702">
        <ele>254</ele>
        <time>2024-07-11T08:48:49Z</time>
      </trkpt>
      <trkpt lat="43.81481" lon="1.09701">
        <ele>254</ele>
        <time>2024-07-11T08:48:50Z</time>
      </trkpt>
      <trkpt lat="43.81488" lon="1.09698">
        <ele>254</ele>
        <time>2024-07-11T08:48:51Z</time>
      </trkpt>
      <trkpt lat="43.81494" lon="1.09694">
        <ele>253.6</ele>
        <time>2024-07-11T08:48:52Z</time>
      </trkpt>
      <trkpt lat="43.81499" lon="1.09689">
        <ele>253.6</ele>
        <time>2024-07-11T08:48:53Z</time>
      </trkpt>
      <trkpt lat="43.81504" lon="1.09685">
        <ele>253.4</ele>
        <time>2024-07-11T08:48:54Z</time>
      </trkpt>
      <trkpt lat="43.81509" lon="1.09681">
        <ele>253.4</ele>
        <time>2024-07-11T08:48:55Z</time>
      </trkpt>
      <trkpt lat="43.81514" lon="1.09676">
        <ele>253.2</ele>
        <time>2024-07-11T08:48:56Z</time>
      </trkpt>
      <trkpt lat="43.8152" lon="1.09671">
        <ele>253.4</ele>
        <time>2024-07-11T08:48:57Z</time>
      </trkpt>
      <trkpt lat="43.81525" lon="1.09668">
        <ele>253.4</ele>
        <time>2024-07-11T08:48:58Z</time>
      </trkpt>
      <trkpt lat="43.81531" lon="1.09665">
        <ele>253</ele>
        <time>2024-07-11T08:48:59Z</time>
      </trkpt>
      <trkpt lat="43.81535" lon="1.09664">
        <ele>253.2</ele>
        <time>2024-07-11T08:49:00Z</time>
      </trkpt>
      <trkpt lat="43.81541" lon="1.09663">
        <ele>252.8</ele>
        <time>2024-07-11T08:49:01Z</time>
      </trkpt>
      <trkpt lat="43.81548" lon="1.09663">
        <ele>252.8</ele>
        <time>2024-07-11T08:49:02Z</time>
      </trkpt>
      <trkpt lat="43.81554" lon="1.09664">
        <ele>252.8</ele>
        <time>2024-07-11T08:49:03Z</time>
      </trkpt>
      <trkpt lat="43.8156" lon="1.09666">
        <ele>252.6</ele>
        <time>2024-07-11T08:49:04Z</time>
      </trkpt>
      <trkpt lat="43.81564" lon="1.09668">
        <ele>252.6</ele>
        <time>2024-07-11T08:49:05Z</time>
      </trkpt>
      <trkpt lat="43.81569" lon="1.09671">
        <ele>252.6</ele>
        <time>2024-07-11T08:49:06Z</time>
      </trkpt>
      <trkpt lat="43.81575" lon="1.09675">
        <ele>252.8</ele>
        <time>2024-07-11T08:49:07Z</time>
      </trkpt>
      <trkpt lat="43.8158" lon="1.09679">
        <ele>252.8</ele>
        <time>2024-07-11T08:49:08Z</time>
      </trkpt>
      <trkpt lat="43.81585" lon="1.09684">
        <ele>252.8</ele>
        <time>2024-07-11T08:49:09Z</time>
      </trkpt>
      <trkpt lat="43.81588" lon="1.09688">
        <ele>252.8</ele>
        <time>2024-07-11T08:49:10Z</time>
      </trkpt>
      <trkpt lat="43.81594" lon="1.09695">
        <ele>253</ele>
        <time>2024-07-11T08:49:11Z</time>
      </trkpt>
      <trkpt lat="43.81598" lon="1.097">
        <ele>253</ele>
        <time>2024-07-11T08:49:12Z</time>
      </trkpt>
      <trkpt lat="43.81602" lon="1.09705">
        <ele>252.6</ele>
        <time>2024-07-11T08:49:13Z</time>
      </trkpt>
      <trkpt lat="43.81606" lon="1.09708">
        <ele>252.8</ele>
        <time>2024-07-11T08:49:14Z</time>
      </trkpt>
      <trkpt lat="43.8161" lon="1.09713">
        <ele>253</ele>
        <time>2024-07-11T08:49:15Z</time>
      </trkpt>
      <trkpt lat="43.81615" lon="1.0972">
        <ele>253.2</ele>
        <time>2024-07-11T08:49:16Z</time>
      </trkpt>
      <trkpt lat="43.8162" lon="1.09725">
        <ele>253.2</ele>
        <time>2024-07-11T08:49:17Z</time>
      </trkpt>
      <trkpt lat="43.81624" lon="1.0973">
        <ele>253.4</ele>
        <time>2024-07-11T08:49:18Z</time>
      </trkpt>
      <trkpt lat="43.81628" lon="1.09734">
        <ele>253.4</ele>
        <time>2024-07-11T08:49:19Z</time>
      </trkpt>
      <trkpt lat="43.81632" lon="1.0974">
        <ele>253.6</ele>
        <time>2024-07-11T08:49:20Z</time>
      </trkpt>
      <trkpt lat="43.81638" lon="1.09746">
        <ele>253.8</ele>
        <time>2024-07-11T08:49:21Z</time>
      </trkpt>
      <trkpt lat="43.81642" lon="1.09752">
        <ele>253.8</ele>
        <time>2024-07-11T08:49:22Z</time>
      </trkpt>
      <trkpt lat="43.81647" lon="1.09757">
        <ele>253.8</ele>
        <time>2024-07-11T08:49:23Z</time>
      </trkpt>
      <trkpt lat="43.81651" lon="1.09762">
        <ele>253.8</ele>
        <time>2024-07-11T08:49:24Z</time>
      </trkpt>
      <trkpt lat="43.81656" lon="1.09768">
        <ele>253.8</ele>
        <time>2024-07-11T08:49:25Z</time>
      </trkpt>
      <trkpt lat="43.81661" lon="1.09776">
        <ele>253.8</ele>
        <time>2024-07-11T08:49:26Z</time>
      </trkpt>
      <trkpt lat="43.81666" lon="1.09782">
        <ele>253.8</ele>
        <time>2024-07-11T08:49:27Z</time>
      </trkpt>
      <trkpt lat="43.8167" lon="1.09788">
        <ele>253.8</ele>
        <time>2024-07-11T08:49:28Z</time>
      </trkpt>
      <trkpt lat="43.81674" lon="1.09794">
        <ele>253.8</ele>
        <time>2024-07-11T08:49:29Z</time>
      </trkpt>
      <trkpt lat="43.8168" lon="1.09802">
        <ele>253.4</ele>
        <time>2024-07-11T08:49:30Z</time>
      </trkpt>
      <trkpt lat="43.81685" lon="1.09809">
        <ele>253.6</ele>
        <time>2024-07-11T08:49:31Z</time>
      </trkpt>
      <trkpt lat="43.8169" lon="1.09816">
        <ele>253.2</ele>
        <time>2024-07-11T08:49:32Z</time>
      </trkpt>
      <trkpt lat="43.81694" lon="1.09821">
        <ele>253.2</ele>
        <time>2024-07-11T08:49:33Z</time>
      </trkpt>
      <trkpt lat="43.81699" lon="1.09828">
        <ele>253.2</ele>
        <time>2024-07-11T08:49:34Z</time>
      </trkpt>
      <trkpt lat="43.81705" lon="1.09835">
        <ele>253.2</ele>
        <time>2024-07-11T08:49:35Z</time>
      </trkpt>
      <trkpt lat="43.8171" lon="1.09841">
        <ele>253</ele>
        <time>2024-07-11T08:49:36Z</time>
      </trkpt>
      <trkpt lat="43.81716" lon="1.09847">
        <ele>253.2</ele>
        <time>2024-07-11T08:49:37Z</time>
      </trkpt>
      <trkpt lat="43.81721" lon="1.09851">
        <ele>253</ele>
        <time>2024-07-11T08:49:38Z</time>
      </trkpt>
      <trkpt lat="43.81727" lon="1.09856">
        <ele>253</ele>
        <time>2024-07-11T08:49:39Z</time>
      </trkpt>
      <trkpt lat="43.81734" lon="1.09861">
        <ele>253</ele>
        <time>2024-07-11T08:49:40Z</time>
      </trkpt>
      <trkpt lat="43.81741" lon="1.09865">
        <ele>252.8</ele>
        <time>2024-07-11T08:49:41Z</time>
      </trkpt>
      <trkpt lat="43.81746" lon="1.09869">
        <ele>252.8</ele>
        <time>2024-07-11T08:49:42Z</time>
      </trkpt>
      <trkpt lat="43.81753" lon="1.09872">
        <ele>253.2</ele>
        <time>2024-07-11T08:49:43Z</time>
      </trkpt>
      <trkpt lat="43.81759" lon="1.09876">
        <ele>253.2</ele>
        <time>2024-07-11T08:49:44Z</time>
      </trkpt>
      <trkpt lat="43.81768" lon="1.0988">
        <ele>253.2</ele>
        <time>2024-07-11T08:49:45Z</time>
      </trkpt>
      <trkpt lat="43.81774" lon="1.09883">
        <ele>253.2</ele>
        <time>2024-07-11T08:49:46Z</time>
      </trkpt>
      <trkpt lat="43.81781" lon="1.09886">
        <ele>253.2</ele>
        <time>2024-07-11T08:49:47Z</time>
      </trkpt>
      <trkpt lat="43.81787" lon="1.09889">
        <ele>253</ele>
        <time>2024-07-11T08:49:48Z</time>
      </trkpt>
      <trkpt lat="43.81793" lon="1.09892">
        <ele>253.2</ele>
        <time>2024-07-11T08:49:49Z</time>
      </trkpt>
      <trkpt lat="43.81802" lon="1.09896">
        <ele>253</ele>
        <time>2024-07-11T08:49:50Z</time>
      </trkpt>
      <trkpt lat="43.81809" lon="1.09899">
        <ele>252.8</ele>
        <time>2024-07-11T08:49:51Z</time>
      </trkpt>
      <trkpt lat="43.81816" lon="1.09901">
        <ele>253</ele>
        <time>2024-07-11T08:49:52Z</time>
      </trkpt>
      <trkpt lat="43.81821" lon="1.09904">
        <ele>252.6</ele>
        <time>2024-07-11T08:49:53Z</time>
      </trkpt>
      <trkpt lat="43.81828" lon="1.09907">
        <ele>252.6</ele>
        <time>2024-07-11T08:49:54Z</time>
      </trkpt>
      <trkpt lat="43.81836" lon="1.09911">
        <ele>252.6</ele>
        <time>2024-07-11T08:49:55Z</time>
      </trkpt>
      <trkpt lat="43.81843" lon="1.09915">
        <ele>252.8</ele>
        <time>2024-07-11T08:49:56Z</time>
      </trkpt>
      <trkpt lat="43.81849" lon="1.09918">
        <ele>252.8</ele>
        <time>2024-07-11T08:49:57Z</time>
      </trkpt>
      <trkpt lat="43.81855" lon="1.09921">
        <ele>252.8</ele>
        <time>2024-07-11T08:49:58Z</time>
      </trkpt>
      <trkpt lat="43.8186" lon="1.09924">
        <ele>252.6</ele>
        <time>2024-07-11T08:49:59Z</time>
      </trkpt>
      <trkpt lat="43.81867" lon="1.09928">
        <ele>252.6</ele>
        <time>2024-07-11T08:50:00Z</time>
      </trkpt>
      <trkpt lat="43.81873" lon="1.09932">
        <ele>252.6</ele>
        <time>2024-07-11T08:50:01Z</time>
      </trkpt>
      <trkpt lat="43.81877" lon="1.09934">
        <ele>252.6</ele>
        <time>2024-07-11T08:50:02Z</time>
      </trkpt>
      <trkpt lat="43.81883" lon="1.09938">
        <ele>252.6</ele>
        <time>2024-07-11T08:50:03Z</time>
      </trkpt>
      <trkpt lat="43.81889" lon="1.09942">
        <ele>252.4</ele>
        <time>2024-07-11T08:50:04Z</time>
      </trkpt>
      <trkpt lat="43.81895" lon="1.09946">
        <ele>252.4</ele>
        <time>2024-07-11T08:50:05Z</time>
      </trkpt>
      <trkpt lat="43.819" lon="1.0995">
        <ele>252.2</ele>
        <time>2024-07-11T08:50:06Z</time>
      </trkpt>
      <trkpt lat="43.81905" lon="1.09954">
        <ele>252.2</ele>
        <time>2024-07-11T08:50:07Z</time>
      </trkpt>
      <trkpt lat="43.8191" lon="1.09959">
        <ele>252.4</ele>
        <time>2024-07-11T08:50:08Z</time>
      </trkpt>
      <trkpt lat="43.81917" lon="1.09965">
        <ele>252.2</ele>
        <time>2024-07-11T08:50:09Z</time>
      </trkpt>
      <trkpt lat="43.81923" lon="1.0997">
        <ele>252</ele>
        <time>2024-07-11T08:50:10Z</time>
      </trkpt>
      <trkpt lat="43.81928" lon="1.09975">
        <ele>252</ele>
        <time>2024-07-11T08:50:11Z</time>
      </trkpt>
      <trkpt lat="43.81933" lon="1.09978">
        <ele>252.2</ele>
        <time>2024-07-11T08:50:12Z</time>
      </trkpt>
      <trkpt lat="43.81939" lon="1.09983">
        <ele>252</ele>
        <time>2024-07-11T08:50:13Z</time>
      </trkpt>
      <trkpt lat="43.81945" lon="1.09989">
        <ele>251.8</ele>
        <time>2024-07-11T08:50:14Z</time>
      </trkpt>
      <trkpt lat="43.81951" lon="1.09994">
        <ele>252.2</ele>
        <time>2024-07-11T08:50:15Z</time>
      </trkpt>
      <trkpt lat="43.81957" lon="1.09998">
        <ele>252.2</ele>
        <time>2024-07-11T08:50:16Z</time>
      </trkpt>
      <trkpt lat="43.81962" lon="1.10002">
        <ele>252</ele>
        <time>2024-07-11T08:50:17Z</time>
      </trkpt>
      <trkpt lat="43.81968" lon="1.10007">
        <ele>252</ele>
        <time>2024-07-11T08:50:18Z</time>
      </trkpt>
      <trkpt lat="43.81975" lon="1.10013">
        <ele>252</ele>
        <time>2024-07-11T08:50:19Z</time>
      </trkpt>
      <trkpt lat="43.8198" lon="1.10018">
        <ele>251.8</ele>
        <time>2024-07-11T08:50:20Z</time>
      </trkpt>
      <trkpt lat="43.81985" lon="1.10022">
        <ele>251.8</ele>
        <time>2024-07-11T08:50:21Z</time>
      </trkpt>
      <trkpt lat="43.81991" lon="1.10026">
        <ele>251.8</ele>
        <time>2024-07-11T08:50:22Z</time>
      </trkpt>
      <trkpt lat="43.81997" lon="1.10032">
        <ele>251.8</ele>
        <time>2024-07-11T08:50:23Z</time>
      </trkpt>
      <trkpt lat="43.82003" lon="1.10037">
        <ele>251.8</ele>
        <time>2024-07-11T08:50:24Z</time>
      </trkpt>
      <trkpt lat="43.82008" lon="1.10042">
        <ele>251.8</ele>
        <time>2024-07-11T08:50:25Z</time>
      </trkpt>
      <trkpt lat="43.82013" lon="1.10047">
        <ele>251.8</ele>
        <time>2024-07-11T08:50:26Z</time>
      </trkpt>
      <trkpt lat="43.82018" lon="1.10052">
        <ele>251.8</ele>
        <time>2024-07-11T08:50:27Z</time>
      </trkpt>
      <trkpt lat="43.82025" lon="1.10059">
        <ele>251.8</ele>
        <time>2024-07-11T08:50:28Z</time>
      </trkpt>
      <trkpt lat="43.82031" lon="1.10064">
        <ele>251.8</ele>
        <time>2024-07-11T08:50:29Z</time>
      </trkpt>
      <trkpt lat="43.82036" lon="1.10069">
        <ele>251.8</ele>
        <time>2024-07-11T08:50:30Z</time>
      </trkpt>
      <trkpt lat="43.82041" lon="1.10074">
        <ele>251.8</ele>
        <time>2024-07-11T08:50:31Z</time>
      </trkpt>
      <trkpt lat="43.82047" lon="1.1008">
        <ele>251.8</ele>
        <time>2024-07-11T08:50:32Z</time>
      </trkpt>
      <trkpt lat="43.82053" lon="1.10087">
        <ele>251.8</ele>
        <time>2024-07-11T08:50:33Z</time>
      </trkpt>
      <trkpt lat="43.82058" lon="1.10093">
        <ele>251.8</ele>
        <time>2024-07-11T08:50:34Z</time>
      </trkpt>
      <trkpt lat="43.82064" lon="1.101">
        <ele>251.8</ele>
        <time>2024-07-11T08:50:35Z</time>
      </trkpt>
      <trkpt lat="43.82069" lon="1.10107">
        <ele>251.8</ele>
        <time>2024-07-11T08:50:36Z</time>
      </trkpt>
      <trkpt lat="43.82073" lon="1.10112">
        <ele>251.8</ele>
        <time>2024-07-11T08:50:37Z</time>
      </trkpt>
      <trkpt lat="43.82079" lon="1.10121">
        <ele>251.8</ele>
        <time>2024-07-11T08:50:38Z</time>
      </trkpt>
      <trkpt lat="43.82084" lon="1.10128">
        <ele>251.8</ele>
        <time>2024-07-11T08:50:39Z</time>
      </trkpt>
      <trkpt lat="43.82088" lon="1.10134">
        <ele>251.8</ele>
        <time>2024-07-11T08:50:40Z</time>
      </trkpt>
      <trkpt lat="43.82092" lon="1.10141">
        <ele>251.6</ele>
        <time>2024-07-11T08:50:41Z</time>
      </trkpt>
      <trkpt lat="43.82098" lon="1.1015">
        <ele>251.6</ele>
        <time>2024-07-11T08:50:42Z</time>
      </trkpt>
      <trkpt lat="43.82103" lon="1.10157">
        <ele>251.6</ele>
        <time>2024-07-11T08:50:43Z</time>
      </trkpt>
      <trkpt lat="43.82108" lon="1.10164">
        <ele>251.6</ele>
        <time>2024-07-11T08:50:44Z</time>
      </trkpt>
      <trkpt lat="43.82112" lon="1.1017">
        <ele>251.6</ele>
        <time>2024-07-11T08:50:45Z</time>
      </trkpt>
      <trkpt lat="43.82117" lon="1.10177">
        <ele>251.6</ele>
        <time>2024-07-11T08:50:46Z</time>
      </trkpt>
      <trkpt lat="43.82122" lon="1.10186">
        <ele>251.6</ele>
        <time>2024-07-11T08:50:47Z</time>
      </trkpt>
      <trkpt lat="43.82127" lon="1.10193">
        <ele>251.6</ele>
        <time>2024-07-11T08:50:48Z</time>
      </trkpt>
      <trkpt lat="43.82132" lon="1.102">
        <ele>251.6</ele>
        <time>2024-07-11T08:50:49Z</time>
      </trkpt>
      <trkpt lat="43.82136" lon="1.10205">
        <ele>251.6</ele>
        <time>2024-07-11T08:50:50Z</time>
      </trkpt>
      <trkpt lat="43.82141" lon="1.1021">
        <ele>251.4</ele>
        <time>2024-07-11T08:50:51Z</time>
      </trkpt>
      <trkpt lat="43.82149" lon="1.10213">
        <ele>251.4</ele>
        <time>2024-07-11T08:50:52Z</time>
      </trkpt>
      <trkpt lat="43.82156" lon="1.10213">
        <ele>251.6</ele>
        <time>2024-07-11T08:50:53Z</time>
      </trkpt>
      <trkpt lat="43.82161" lon="1.1021">
        <ele>251.4</ele>
        <time>2024-07-11T08:50:54Z</time>
      </trkpt>
      <trkpt lat="43.82168" lon="1.10205">
        <ele>251.4</ele>
        <time>2024-07-11T08:50:55Z</time>
      </trkpt>
      <trkpt lat="43.82173" lon="1.10199">
        <ele>251.4</ele>
        <time>2024-07-11T08:50:56Z</time>
      </trkpt>
      <trkpt lat="43.82181" lon="1.10192">
        <ele>251.6</ele>
        <time>2024-07-11T08:50:57Z</time>
      </trkpt>
      <trkpt lat="43.82187" lon="1.10186">
        <ele>251.6</ele>
        <time>2024-07-11T08:50:58Z</time>
      </trkpt>
      <trkpt lat="43.82192" lon="1.10183">
        <ele>251.6</ele>
        <time>2024-07-11T08:50:59Z</time>
      </trkpt>
      <trkpt lat="43.82199" lon="1.10179">
        <ele>251.6</ele>
        <time>2024-07-11T08:51:00Z</time>
      </trkpt>
      <trkpt lat="43.82208" lon="1.10176">
        <ele>251.6</ele>
        <time>2024-07-11T08:51:01Z</time>
      </trkpt>
      <trkpt lat="43.82215" lon="1.10175">
        <ele>251.6</ele>
        <time>2024-07-11T08:51:02Z</time>
      </trkpt>
      <trkpt lat="43.82223" lon="1.10174">
        <ele>251.6</ele>
        <time>2024-07-11T08:51:03Z</time>
      </trkpt>
      <trkpt lat="43.82229" lon="1.10173">
        <ele>251.6</ele>
        <time>2024-07-11T08:51:04Z</time>
      </trkpt>
      <trkpt lat="43.82237" lon="1.10172">
        <ele>251.6</ele>
        <time>2024-07-11T08:51:05Z</time>
      </trkpt>
      <trkpt lat="43.82247" lon="1.10171">
        <ele>251.6</ele>
        <time>2024-07-11T08:51:06Z</time>
      </trkpt>
      <trkpt lat="43.82254" lon="1.10171">
        <ele>251.6</ele>
        <time>2024-07-11T08:51:07Z</time>
      </trkpt>
      <trkpt lat="43.82264" lon="1.10171">
        <ele>251.4</ele>
        <time>2024-07-11T08:51:08Z</time>
      </trkpt>
      <trkpt lat="43.82271" lon="1.1017">
        <ele>251.4</ele>
        <time>2024-07-11T08:51:09Z</time>
      </trkpt>
      <trkpt lat="43.82279" lon="1.1017">
        <ele>251.2</ele>
        <time>2024-07-11T08:51:10Z</time>
      </trkpt>
      <trkpt lat="43.82289" lon="1.10169">
        <ele>251</ele>
        <time>2024-07-11T08:51:11Z</time>
      </trkpt>
      <trkpt lat="43.82298" lon="1.10168">
        <ele>250.8</ele>
        <time>2024-07-11T08:51:12Z</time>
      </trkpt>
      <trkpt lat="43.82307" lon="1.10167">
        <ele>250.6</ele>
        <time>2024-07-11T08:51:13Z</time>
      </trkpt>
      <trkpt lat="43.82314" lon="1.10167">
        <ele>250.6</ele>
        <time>2024-07-11T08:51:14Z</time>
      </trkpt>
      <trkpt lat="43.82323" lon="1.10166">
        <ele>250.2</ele>
        <time>2024-07-11T08:51:15Z</time>
      </trkpt>
      <trkpt lat="43.82334" lon="1.10166">
        <ele>249.8</ele>
        <time>2024-07-11T08:51:16Z</time>
      </trkpt>
      <trkpt lat="43.82343" lon="1.10165">
        <ele>249.4</ele>
        <time>2024-07-11T08:51:17Z</time>
      </trkpt>
      <trkpt lat="43.82353" lon="1.10165">
        <ele>249</ele>
        <time>2024-07-11T08:51:18Z</time>
      </trkpt>
      <trkpt lat="43.8236" lon="1.10165">
        <ele>249</ele>
        <time>2024-07-11T08:51:19Z</time>
      </trkpt>
      <trkpt lat="43.8237" lon="1.10166">
        <ele>248.4</ele>
        <time>2024-07-11T08:51:20Z</time>
      </trkpt>
      <trkpt lat="43.82381" lon="1.10169">
        <ele>248.2</ele>
        <time>2024-07-11T08:51:21Z</time>
      </trkpt>
      <trkpt lat="43.8239" lon="1.10172">
        <ele>247.4</ele>
        <time>2024-07-11T08:51:22Z</time>
      </trkpt>
      <trkpt lat="43.82399" lon="1.10176">
        <ele>247</ele>
        <time>2024-07-11T08:51:23Z</time>
      </trkpt>
      <trkpt lat="43.82407" lon="1.1018">
        <ele>246.4</ele>
        <time>2024-07-11T08:51:24Z</time>
      </trkpt>
      <trkpt lat="43.82416" lon="1.10186">
        <ele>245.6</ele>
        <time>2024-07-11T08:51:25Z</time>
      </trkpt>
      <trkpt lat="43.82426" lon="1.10193">
        <ele>245.4</ele>
        <time>2024-07-11T08:51:26Z</time>
      </trkpt>
      <trkpt lat="43.82435" lon="1.10199">
        <ele>245</ele>
        <time>2024-07-11T08:51:27Z</time>
      </trkpt>
      <trkpt lat="43.82442" lon="1.10204">
        <ele>244.8</ele>
        <time>2024-07-11T08:51:28Z</time>
      </trkpt>
      <trkpt lat="43.82451" lon="1.1021">
        <ele>244.2</ele>
        <time>2024-07-11T08:51:29Z</time>
      </trkpt>
      <trkpt lat="43.8246" lon="1.10217">
        <ele>244</ele>
        <time>2024-07-11T08:51:30Z</time>
      </trkpt>
      <trkpt lat="43.82471" lon="1.10224">
        <ele>243.6</ele>
        <time>2024-07-11T08:51:31Z</time>
      </trkpt>
      <trkpt lat="43.82481" lon="1.1023">
        <ele>242.6</ele>
        <time>2024-07-11T08:51:32Z</time>
      </trkpt>
      <trkpt lat="43.82489" lon="1.10235">
        <ele>242.4</ele>
        <time>2024-07-11T08:51:33Z</time>
      </trkpt>
      <trkpt lat="43.82498" lon="1.10241">
        <ele>241.8</ele>
        <time>2024-07-11T08:51:34Z</time>
      </trkpt>
      <trkpt lat="43.8251" lon="1.10249">
        <ele>241.6</ele>
        <time>2024-07-11T08:51:35Z</time>
      </trkpt>
      <trkpt lat="43.82519" lon="1.10255">
        <ele>241</ele>
        <time>2024-07-11T08:51:36Z</time>
      </trkpt>
      <trkpt lat="43.82529" lon="1.10262">
        <ele>240.4</ele>
        <time>2024-07-11T08:51:37Z</time>
      </trkpt>
      <trkpt lat="43.82537" lon="1.10267">
        <ele>240</ele>
        <time>2024-07-11T08:51:38Z</time>
      </trkpt>
      <trkpt lat="43.82547" lon="1.10274">
        <ele>239.2</ele>
        <time>2024-07-11T08:51:39Z</time>
      </trkpt>
      <trkpt lat="43.82558" lon="1.10282">
        <ele>238.8</ele>
        <time>2024-07-11T08:51:40Z</time>
      </trkpt>
      <trkpt lat="43.82568" lon="1.10288">
        <ele>238.2</ele>
        <time>2024-07-11T08:51:41Z</time>
      </trkpt>
      <trkpt lat="43.82578" lon="1.10294">
        <ele>237.6</ele>
        <time>2024-07-11T08:51:42Z</time>
      </trkpt>
      <trkpt lat="43.82586" lon="1.10299">
        <ele>237.2</ele>
        <time>2024-07-11T08:51:43Z</time>
      </trkpt>
      <trkpt lat="43.82596" lon="1.10306">
        <ele>236.4</ele>
        <time>2024-07-11T08:51:44Z</time>
      </trkpt>
      <trkpt lat="43.82608" lon="1.10314">
        <ele>236.2</ele>
        <time>2024-07-11T08:51:45Z</time>
      </trkpt>
      <trkpt lat="43.82618" lon="1.10321">
        <ele>235.6</ele>
        <time>2024-07-11T08:51:46Z</time>
      </trkpt>
      <trkpt lat="43.82626" lon="1.10328">
        <ele>235.2</ele>
        <time>2024-07-11T08:51:47Z</time>
      </trkpt>
      <trkpt lat="43.82636" lon="1.10335">
        <ele>234.6</ele>
        <time>2024-07-11T08:51:48Z</time>
      </trkpt>
      <trkpt lat="43.82646" lon="1.10343">
        <ele>233.8</ele>
        <time>2024-07-11T08:51:49Z</time>
      </trkpt>
      <trkpt lat="43.82657" lon="1.10353">
        <ele>233.6</ele>
        <time>2024-07-11T08:51:50Z</time>
      </trkpt>
      <trkpt lat="43.82667" lon="1.10361">
        <ele>233.2</ele>
        <time>2024-07-11T08:51:51Z</time>
      </trkpt>
      <trkpt lat="43.82675" lon="1.10367">
        <ele>233</ele>
        <time>2024-07-11T08:51:52Z</time>
      </trkpt>
      <trkpt lat="43.82685" lon="1.10375">
        <ele>232.6</ele>
        <time>2024-07-11T08:51:53Z</time>
      </trkpt>
      <trkpt lat="43.82696" lon="1.10384">
        <ele>232.4</ele>
        <time>2024-07-11T08:51:54Z</time>
      </trkpt>
      <trkpt lat="43.82706" lon="1.10392">
        <ele>231.6</ele>
        <time>2024-07-11T08:51:55Z</time>
      </trkpt>
      <trkpt lat="43.82716" lon="1.10398">
        <ele>231.2</ele>
        <time>2024-07-11T08:51:56Z</time>
      </trkpt>
      <trkpt lat="43.82725" lon="1.10403">
        <ele>231.2</ele>
        <time>2024-07-11T08:51:57Z</time>
      </trkpt>
      <trkpt lat="43.82735" lon="1.10409">
        <ele>231</ele>
        <time>2024-07-11T08:51:58Z</time>
      </trkpt>
      <trkpt lat="43.82748" lon="1.10416">
        <ele>230.8</ele>
        <time>2024-07-11T08:51:59Z</time>
      </trkpt>
      <trkpt lat="43.82758" lon="1.10421">
        <ele>230.6</ele>
        <time>2024-07-11T08:52:00Z</time>
      </trkpt>
      <trkpt lat="43.82769" lon="1.10426">
        <ele>230.4</ele>
        <time>2024-07-11T08:52:01Z</time>
      </trkpt>
      <trkpt lat="43.8278" lon="1.10431">
        <ele>230.2</ele>
        <time>2024-07-11T08:52:02Z</time>
      </trkpt>
      <trkpt lat="43.82788" lon="1.10435">
        <ele>229.8</ele>
        <time>2024-07-11T08:52:03Z</time>
      </trkpt>
      <trkpt lat="43.82798" lon="1.1044">
        <ele>229.6</ele>
        <time>2024-07-11T08:52:04Z</time>
      </trkpt>
      <trkpt lat="43.82808" lon="1.10446">
        <ele>229.2</ele>
        <time>2024-07-11T08:52:05Z</time>
      </trkpt>
      <trkpt lat="43.82818" lon="1.10452">
        <ele>228.6</ele>
        <time>2024-07-11T08:52:06Z</time>
      </trkpt>
      <trkpt lat="43.82827" lon="1.10459">
        <ele>228.6</ele>
        <time>2024-07-11T08:52:07Z</time>
      </trkpt>
      <trkpt lat="43.82837" lon="1.10466">
        <ele>228.2</ele>
        <time>2024-07-11T08:52:08Z</time>
      </trkpt>
      <trkpt lat="43.82846" lon="1.10473">
        <ele>228</ele>
        <time>2024-07-11T08:52:09Z</time>
      </trkpt>
      <trkpt lat="43.82855" lon="1.10481">
        <ele>227.8</ele>
        <time>2024-07-11T08:52:10Z</time>
      </trkpt>
      <trkpt lat="43.82863" lon="1.10489">
        <ele>227.6</ele>
        <time>2024-07-11T08:52:11Z</time>
      </trkpt>
      <trkpt lat="43.82872" lon="1.10497">
        <ele>227.2</ele>
        <time>2024-07-11T08:52:12Z</time>
      </trkpt>
      <trkpt lat="43.82881" lon="1.10504">
        <ele>227</ele>
        <time>2024-07-11T08:52:13Z</time>
      </trkpt>
      <trkpt lat="43.82891" lon="1.10514">
        <ele>226.8</ele>
        <time>2024-07-11T08:52:14Z</time>
      </trkpt>
      <trkpt lat="43.82899" lon="1.10521">
        <ele>226.6</ele>
        <time>2024-07-11T08:52:15Z</time>
      </trkpt>
      <trkpt lat="43.82906" lon="1.10527">
        <ele>226.6</ele>
        <time>2024-07-11T08:52:16Z</time>
      </trkpt>
      <trkpt lat="43.82915" lon="1.10535">
        <ele>226.4</ele>
        <time>2024-07-11T08:52:17Z</time>
      </trkpt>
      <trkpt lat="43.82921" lon="1.1054">
        <ele>226.4</ele>
        <time>2024-07-11T08:52:18Z</time>
      </trkpt>
      <trkpt lat="43.82929" lon="1.10548">
        <ele>225.8</ele>
        <time>2024-07-11T08:52:19Z</time>
      </trkpt>
      <trkpt lat="43.82939" lon="1.10557">
        <ele>225.6</ele>
        <time>2024-07-11T08:52:20Z</time>
      </trkpt>
      <trkpt lat="43.82946" lon="1.10562">
        <ele>225.4</ele>
        <time>2024-07-11T08:52:21Z</time>
      </trkpt>
      <trkpt lat="43.82957" lon="1.10572">
        <ele>225</ele>
        <time>2024-07-11T08:52:22Z</time>
      </trkpt>
      <trkpt lat="43.82966" lon="1.1058">
        <ele>224.8</ele>
        <time>2024-07-11T08:52:23Z</time>
      </trkpt>
      <trkpt lat="43.82976" lon="1.10587">
        <ele>224.4</ele>
        <time>2024-07-11T08:52:24Z</time>
      </trkpt>
      <trkpt lat="43.82985" lon="1.10595">
        <ele>224</ele>
        <time>2024-07-11T08:52:25Z</time>
      </trkpt>
      <trkpt lat="43.82993" lon="1.106">
        <ele>223.8</ele>
        <time>2024-07-11T08:52:26Z</time>
      </trkpt>
      <trkpt lat="43.83003" lon="1.10606">
        <ele>223.6</ele>
        <time>2024-07-11T08:52:27Z</time>
      </trkpt>
      <trkpt lat="43.83013" lon="1.10611">
        <ele>223.6</ele>
        <time>2024-07-11T08:52:28Z</time>
      </trkpt>
      <trkpt lat="43.83025" lon="1.10616">
        <ele>223.4</ele>
        <time>2024-07-11T08:52:29Z</time>
      </trkpt>
      <trkpt lat="43.83034" lon="1.10619">
        <ele>223.2</ele>
        <time>2024-07-11T08:52:30Z</time>
      </trkpt>
      <trkpt lat="43.83042" lon="1.10622">
        <ele>223.2</ele>
        <time>2024-07-11T08:52:31Z</time>
      </trkpt>
      <trkpt lat="43.83051" lon="1.10625">
        <ele>223</ele>
        <time>2024-07-11T08:52:32Z</time>
      </trkpt>
      <trkpt lat="43.83061" lon="1.10629">
        <ele>223</ele>
        <time>2024-07-11T08:52:33Z</time>
      </trkpt>
      <trkpt lat="43.8307" lon="1.10632">
        <ele>223</ele>
        <time>2024-07-11T08:52:34Z</time>
      </trkpt>
      <trkpt lat="43.83078" lon="1.10635">
        <ele>223</ele>
        <time>2024-07-11T08:52:35Z</time>
      </trkpt>
      <trkpt lat="43.83085" lon="1.10638">
        <ele>223</ele>
        <time>2024-07-11T08:52:36Z</time>
      </trkpt>
      <trkpt lat="43.83091" lon="1.1064">
        <ele>223</ele>
        <time>2024-07-11T08:52:37Z</time>
      </trkpt>
      <trkpt lat="43.83099" lon="1.10643">
        <ele>223</ele>
        <time>2024-07-11T08:52:38Z</time>
      </trkpt>
      <trkpt lat="43.83108" lon="1.10648">
        <ele>223.2</ele>
        <time>2024-07-11T08:52:39Z</time>
      </trkpt>
      <trkpt lat="43.83113" lon="1.10651">
        <ele>223.4</ele>
        <time>2024-07-11T08:52:40Z</time>
      </trkpt>
      <trkpt lat="43.8312" lon="1.10656">
        <ele>223.8</ele>
        <time>2024-07-11T08:52:41Z</time>
      </trkpt>
      <trkpt lat="43.83126" lon="1.10662">
        <ele>224</ele>
        <time>2024-07-11T08:52:42Z</time>
      </trkpt>
      <trkpt lat="43.83133" lon="1.10669">
        <ele>224.4</ele>
        <time>2024-07-11T08:52:43Z</time>
      </trkpt>
      <trkpt lat="43.83138" lon="1.10677">
        <ele>224.6</ele>
        <time>2024-07-11T08:52:44Z</time>
      </trkpt>
      <trkpt lat="43.83142" lon="1.10682">
        <ele>224.8</ele>
        <time>2024-07-11T08:52:45Z</time>
      </trkpt>
      <trkpt lat="43.83146" lon="1.1069">
        <ele>225.2</ele>
        <time>2024-07-11T08:52:46Z</time>
      </trkpt>
      <trkpt lat="43.83151" lon="1.10699">
        <ele>225.2</ele>
        <time>2024-07-11T08:52:47Z</time>
      </trkpt>
      <trkpt lat="43.83155" lon="1.10706">
        <ele>225.6</ele>
        <time>2024-07-11T08:52:48Z</time>
      </trkpt>
      <trkpt lat="43.83159" lon="1.10712">
        <ele>225.8</ele>
        <time>2024-07-11T08:52:49Z</time>
      </trkpt>
      <trkpt lat="43.83162" lon="1.1072">
        <ele>225.8</ele>
        <time>2024-07-11T08:52:50Z</time>
      </trkpt>
      <trkpt lat="43.83166" lon="1.10728">
        <ele>226.2</ele>
        <time>2024-07-11T08:52:51Z</time>
      </trkpt>
      <trkpt lat="43.8317" lon="1.10735">
        <ele>226.4</ele>
        <time>2024-07-11T08:52:52Z</time>
      </trkpt>
      <trkpt lat="43.83175" lon="1.10743">
        <ele>226.6</ele>
        <time>2024-07-11T08:52:53Z</time>
      </trkpt>
      <trkpt lat="43.83178" lon="1.1075">
        <ele>226.8</ele>
        <time>2024-07-11T08:52:54Z</time>
      </trkpt>
      <trkpt lat="43.83181" lon="1.10755">
        <ele>227.4</ele>
        <time>2024-07-11T08:52:55Z</time>
      </trkpt>
      <trkpt lat="43.83185" lon="1.10762">
        <ele>227.8</ele>
        <time>2024-07-11T08:52:56Z</time>
      </trkpt>
      <trkpt lat="43.83189" lon="1.1077">
        <ele>228</ele>
        <time>2024-07-11T08:52:57Z</time>
      </trkpt>
      <trkpt lat="43.83192" lon="1.10776">
        <ele>228.2</ele>
        <time>2024-07-11T08:52:58Z</time>
      </trkpt>
      <trkpt lat="43.83195" lon="1.10781">
        <ele>228.2</ele>
        <time>2024-07-11T08:52:59Z</time>
      </trkpt>
      <trkpt lat="43.83198" lon="1.10787">
        <ele>228.6</ele>
        <time>2024-07-11T08:53:00Z</time>
      </trkpt>
      <trkpt lat="43.83202" lon="1.10794">
        <ele>228.8</ele>
        <time>2024-07-11T08:53:01Z</time>
      </trkpt>
      <trkpt lat="43.83204" lon="1.10798">
        <ele>229</ele>
        <time>2024-07-11T08:53:02Z</time>
      </trkpt>
      <trkpt lat="43.83207" lon="1.10805">
        <ele>229.2</ele>
        <time>2024-07-11T08:53:03Z</time>
      </trkpt>
      <trkpt lat="43.83209" lon="1.1081">
        <ele>229.4</ele>
        <time>2024-07-11T08:53:04Z</time>
      </trkpt>
      <trkpt lat="43.83213" lon="1.10816">
        <ele>229.6</ele>
        <time>2024-07-11T08:53:05Z</time>
      </trkpt>
      <trkpt lat="43.83216" lon="1.10822">
        <ele>229.8</ele>
        <time>2024-07-11T08:53:06Z</time>
      </trkpt>
      <trkpt lat="43.8322" lon="1.10828">
        <ele>230.4</ele>
        <time>2024-07-11T08:53:07Z</time>
      </trkpt>
      <trkpt lat="43.83222" lon="1.10834">
        <ele>230.8</ele>
        <time>2024-07-11T08:53:08Z</time>
      </trkpt>
      <trkpt lat="43.83224" lon="1.10838">
        <ele>231</ele>
        <time>2024-07-11T08:53:09Z</time>
      </trkpt>
      <trkpt lat="43.83227" lon="1.10844">
        <ele>231.2</ele>
        <time>2024-07-11T08:53:10Z</time>
      </trkpt>
      <trkpt lat="43.83231" lon="1.10852">
        <ele>231.4</ele>
        <time>2024-07-11T08:53:11Z</time>
      </trkpt>
      <trkpt lat="43.83233" lon="1.10858">
        <ele>232</ele>
        <time>2024-07-11T08:53:12Z</time>
      </trkpt>
      <trkpt lat="43.83237" lon="1.10863">
        <ele>232.2</ele>
        <time>2024-07-11T08:53:13Z</time>
      </trkpt>
      <trkpt lat="43.83239" lon="1.10868">
        <ele>232.4</ele>
        <time>2024-07-11T08:53:14Z</time>
      </trkpt>
      <trkpt lat="43.83242" lon="1.10873">
        <ele>232.6</ele>
        <time>2024-07-11T08:53:15Z</time>
      </trkpt>
      <trkpt lat="43.83245" lon="1.10879">
        <ele>232.8</ele>
        <time>2024-07-11T08:53:16Z</time>
      </trkpt>
      <trkpt lat="43.83248" lon="1.10884">
        <ele>233.2</ele>
        <time>2024-07-11T08:53:17Z</time>
      </trkpt>
      <trkpt lat="43.83251" lon="1.10889">
        <ele>233.4</ele>
        <time>2024-07-11T08:53:18Z</time>
      </trkpt>
      <trkpt lat="43.83254" lon="1.10895">
        <ele>233.6</ele>
        <time>2024-07-11T08:53:19Z</time>
      </trkpt>
      <trkpt lat="43.83257" lon="1.10901">
        <ele>233.8</ele>
        <time>2024-07-11T08:53:20Z</time>
      </trkpt>
      <trkpt lat="43.83261" lon="1.10908">
        <ele>234</ele>
        <time>2024-07-11T08:53:21Z</time>
      </trkpt>
      <trkpt lat="43.83264" lon="1.10914">
        <ele>234.2</ele>
        <time>2024-07-11T08:53:22Z</time>
      </trkpt>
      <trkpt lat="43.83269" lon="1.1092">
        <ele>234.4</ele>
        <time>2024-07-11T08:53:23Z</time>
      </trkpt>
      <trkpt lat="43.83271" lon="1.10925">
        <ele>234.8</ele>
        <time>2024-07-11T08:53:24Z</time>
      </trkpt>
      <trkpt lat="43.83274" lon="1.10931">
        <ele>235</ele>
        <time>2024-07-11T08:53:25Z</time>
      </trkpt>
      <trkpt lat="43.83278" lon="1.10937">
        <ele>235.4</ele>
        <time>2024-07-11T08:53:26Z</time>
      </trkpt>
      <trkpt lat="43.83281" lon="1.10943">
        <ele>235.6</ele>
        <time>2024-07-11T08:53:27Z</time>
      </trkpt>
      <trkpt lat="43.83283" lon="1.10948">
        <ele>235.8</ele>
        <time>2024-07-11T08:53:28Z</time>
      </trkpt>
      <trkpt lat="43.83286" lon="1.10953">
        <ele>236</ele>
        <time>2024-07-11T08:53:29Z</time>
      </trkpt>
      <trkpt lat="43.83289" lon="1.10959">
        <ele>236.2</ele>
        <time>2024-07-11T08:53:30Z</time>
      </trkpt>
      <trkpt lat="43.83292" lon="1.10966">
        <ele>236.4</ele>
        <time>2024-07-11T08:53:31Z</time>
      </trkpt>
      <trkpt lat="43.83294" lon="1.10971">
        <ele>236.6</ele>
        <time>2024-07-11T08:53:32Z</time>
      </trkpt>
      <trkpt lat="43.83298" lon="1.10978">
        <ele>236.8</ele>
        <time>2024-07-11T08:53:33Z</time>
      </trkpt>
      <trkpt lat="43.83301" lon="1.10984">
        <ele>237</ele>
        <time>2024-07-11T08:53:34Z</time>
      </trkpt>
      <trkpt lat="43.83304" lon="1.10991">
        <ele>237</ele>
        <time>2024-07-11T08:53:35Z</time>
      </trkpt>
      <trkpt lat="43.83308" lon="1.10999">
        <ele>237.2</ele>
        <time>2024-07-11T08:53:36Z</time>
      </trkpt>
      <trkpt lat="43.8331" lon="1.11004">
        <ele>237.2</ele>
        <time>2024-07-11T08:53:37Z</time>
      </trkpt>
      <trkpt lat="43.83313" lon="1.11009">
        <ele>237.6</ele>
        <time>2024-07-11T08:53:38Z</time>
      </trkpt>
      <trkpt lat="43.83316" lon="1.11014">
        <ele>237.6</ele>
        <time>2024-07-11T08:53:39Z</time>
      </trkpt>
      <trkpt lat="43.83319" lon="1.1102">
        <ele>237.8</ele>
        <time>2024-07-11T08:53:40Z</time>
      </trkpt>
      <trkpt lat="43.83322" lon="1.11026">
        <ele>238</ele>
        <time>2024-07-11T08:53:41Z</time>
      </trkpt>
      <trkpt lat="43.83324" lon="1.11031">
        <ele>238.2</ele>
        <time>2024-07-11T08:53:42Z</time>
      </trkpt>
      <trkpt lat="43.83326" lon="1.11037">
        <ele>238.6</ele>
        <time>2024-07-11T08:53:43Z</time>
      </trkpt>
      <trkpt lat="43.83329" lon="1.11042">
        <ele>238.8</ele>
        <time>2024-07-11T08:53:44Z</time>
      </trkpt>
      <trkpt lat="43.83331" lon="1.11048">
        <ele>239</ele>
        <time>2024-07-11T08:53:45Z</time>
      </trkpt>
      <trkpt lat="43.83334" lon="1.11055">
        <ele>239</ele>
        <time>2024-07-11T08:53:46Z</time>
      </trkpt>
      <trkpt lat="43.83336" lon="1.11061">
        <ele>239.2</ele>
        <time>2024-07-11T08:53:47Z</time>
      </trkpt>
      <trkpt lat="43.83338" lon="1.11066">
        <ele>239.2</ele>
        <time>2024-07-11T08:53:48Z</time>
      </trkpt>
      <trkpt lat="43.83341" lon="1.11072">
        <ele>239.4</ele>
        <time>2024-07-11T08:53:49Z</time>
      </trkpt>
      <trkpt lat="43.83344" lon="1.11081">
        <ele>239.4</ele>
        <time>2024-07-11T08:53:50Z</time>
      </trkpt>
      <trkpt lat="43.83347" lon="1.11087">
        <ele>239.6</ele>
        <time>2024-07-11T08:53:51Z</time>
      </trkpt>
      <trkpt lat="43.83348" lon="1.11093">
        <ele>239.6</ele>
        <time>2024-07-11T08:53:52Z</time>
      </trkpt>
      <trkpt lat="43.8335" lon="1.111">
        <ele>239.8</ele>
        <time>2024-07-11T08:53:53Z</time>
      </trkpt>
      <trkpt lat="43.83352" lon="1.11108">
        <ele>239.8</ele>
        <time>2024-07-11T08:53:54Z</time>
      </trkpt>
      <trkpt lat="43.83355" lon="1.11116">
        <ele>239.8</ele>
        <time>2024-07-11T08:53:55Z</time>
      </trkpt>
      <trkpt lat="43.83357" lon="1.11125">
        <ele>239.8</ele>
        <time>2024-07-11T08:53:56Z</time>
      </trkpt>
      <trkpt lat="43.83359" lon="1.11134">
        <ele>239.8</ele>
        <time>2024-07-11T08:53:57Z</time>
      </trkpt>
      <trkpt lat="43.83362" lon="1.11143">
        <ele>239.6</ele>
        <time>2024-07-11T08:53:58Z</time>
      </trkpt>
      <trkpt lat="43.83365" lon="1.11152">
        <ele>239.6</ele>
        <time>2024-07-11T08:53:59Z</time>
      </trkpt>
      <trkpt lat="43.83367" lon="1.11162">
        <ele>239.4</ele>
        <time>2024-07-11T08:54:00Z</time>
      </trkpt>
      <trkpt lat="43.8337" lon="1.11172">
        <ele>239.4</ele>
        <time>2024-07-11T08:54:01Z</time>
      </trkpt>
      <trkpt lat="43.83374" lon="1.11182">
        <ele>239.2</ele>
        <time>2024-07-11T08:54:02Z</time>
      </trkpt>
      <trkpt lat="43.83378" lon="1.11191">
        <ele>238.6</ele>
        <time>2024-07-11T08:54:03Z</time>
      </trkpt>
      <trkpt lat="43.83382" lon="1.112">
        <ele>238.4</ele>
        <time>2024-07-11T08:54:04Z</time>
      </trkpt>
      <trkpt lat="43.83386" lon="1.11209">
        <ele>238</ele>
        <time>2024-07-11T08:54:05Z</time>
      </trkpt>
      <trkpt lat="43.8339" lon="1.11218">
        <ele>237.8</ele>
        <time>2024-07-11T08:54:06Z</time>
      </trkpt>
      <trkpt lat="43.83394" lon="1.11229">
        <ele>237.8</ele>
        <time>2024-07-11T08:54:07Z</time>
      </trkpt>
      <trkpt lat="43.83398" lon="1.11237">
        <ele>237.6</ele>
        <time>2024-07-11T08:54:08Z</time>
      </trkpt>
      <trkpt lat="43.83402" lon="1.11244">
        <ele>237.4</ele>
        <time>2024-07-11T08:54:09Z</time>
      </trkpt>
      <trkpt lat="43.83407" lon="1.11253">
        <ele>237.2</ele>
        <time>2024-07-11T08:54:10Z</time>
      </trkpt>
      <trkpt lat="43.83412" lon="1.11263">
        <ele>237</ele>
        <time>2024-07-11T08:54:11Z</time>
      </trkpt>
      <trkpt lat="43.83417" lon="1.11272">
        <ele>236.8</ele>
        <time>2024-07-11T08:54:12Z</time>
      </trkpt>
      <trkpt lat="43.8342" lon="1.1128">
        <ele>236.8</ele>
        <time>2024-07-11T08:54:13Z</time>
      </trkpt>
      <trkpt lat="43.83425" lon="1.11289">
        <ele>236.6</ele>
        <time>2024-07-11T08:54:14Z</time>
      </trkpt>
      <trkpt lat="43.8343" lon="1.11298">
        <ele>236.6</ele>
        <time>2024-07-11T08:54:15Z</time>
      </trkpt>
      <trkpt lat="43.83436" lon="1.11308">
        <ele>236.6</ele>
        <time>2024-07-11T08:54:16Z</time>
      </trkpt>
      <trkpt lat="43.83442" lon="1.1132">
        <ele>236.4</ele>
        <time>2024-07-11T08:54:17Z</time>
      </trkpt>
      <trkpt lat="43.83446" lon="1.11328">
        <ele>236.4</ele>
        <time>2024-07-11T08:54:18Z</time>
      </trkpt>
      <trkpt lat="43.83451" lon="1.11337">
        <ele>236</ele>
        <time>2024-07-11T08:54:19Z</time>
      </trkpt>
      <trkpt lat="43.83457" lon="1.11347">
        <ele>235.6</ele>
        <time>2024-07-11T08:54:20Z</time>
      </trkpt>
      <trkpt lat="43.83463" lon="1.11357">
        <ele>235.2</ele>
        <time>2024-07-11T08:54:21Z</time>
      </trkpt>
      <trkpt lat="43.8347" lon="1.11369">
        <ele>235</ele>
        <time>2024-07-11T08:54:22Z</time>
      </trkpt>
      <trkpt lat="43.83475" lon="1.11378">
        <ele>235</ele>
        <time>2024-07-11T08:54:23Z</time>
      </trkpt>
      <trkpt lat="43.83482" lon="1.11388">
        <ele>234.6</ele>
        <time>2024-07-11T08:54:24Z</time>
      </trkpt>
      <trkpt lat="43.83488" lon="1.11398">
        <ele>234.2</ele>
        <time>2024-07-11T08:54:25Z</time>
      </trkpt>
      <trkpt lat="43.83497" lon="1.1141">
        <ele>234</ele>
        <time>2024-07-11T08:54:26Z</time>
      </trkpt>
      <trkpt lat="43.83505" lon="1.1142">
        <ele>233.6</ele>
        <time>2024-07-11T08:54:27Z</time>
      </trkpt>
      <trkpt lat="43.83511" lon="1.11427">
        <ele>233.4</ele>
        <time>2024-07-11T08:54:28Z</time>
      </trkpt>
      <trkpt lat="43.83519" lon="1.11436">
        <ele>233</ele>
        <time>2024-07-11T08:54:29Z</time>
      </trkpt>
      <trkpt lat="43.83528" lon="1.11441">
        <ele>232.8</ele>
        <time>2024-07-11T08:54:30Z</time>
      </trkpt>
      <trkpt lat="43.8354" lon="1.11444">
        <ele>232</ele>
        <time>2024-07-11T08:54:31Z</time>
      </trkpt>
      <trkpt lat="43.83551" lon="1.11442">
        <ele>231.6</ele>
        <time>2024-07-11T08:54:32Z</time>
      </trkpt>
      <trkpt lat="43.83561" lon="1.11439">
        <ele>230.8</ele>
        <time>2024-07-11T08:54:33Z</time>
      </trkpt>
      <trkpt lat="43.83569" lon="1.11436">
        <ele>230.2</ele>
        <time>2024-07-11T08:54:34Z</time>
      </trkpt>
      <trkpt lat="43.83579" lon="1.11433">
        <ele>229.8</ele>
        <time>2024-07-11T08:54:35Z</time>
      </trkpt>
      <trkpt lat="43.8359" lon="1.11431">
        <ele>228.8</ele>
        <time>2024-07-11T08:54:36Z</time>
      </trkpt>
      <trkpt lat="43.836" lon="1.11433">
        <ele>228.6</ele>
        <time>2024-07-11T08:54:37Z</time>
      </trkpt>
      <trkpt lat="43.8361" lon="1.11436">
        <ele>227.6</ele>
        <time>2024-07-11T08:54:38Z</time>
      </trkpt>
      <trkpt lat="43.83619" lon="1.1144">
        <ele>227</ele>
        <time>2024-07-11T08:54:39Z</time>
      </trkpt>
      <trkpt lat="43.83629" lon="1.11445">
        <ele>226.6</ele>
        <time>2024-07-11T08:54:40Z</time>
      </trkpt>
      <trkpt lat="43.8364" lon="1.11452">
        <ele>226.2</ele>
        <time>2024-07-11T08:54:41Z</time>
      </trkpt>
      <trkpt lat="43.83647" lon="1.11456">
        <ele>226</ele>
        <time>2024-07-11T08:54:42Z</time>
      </trkpt>
      <trkpt lat="43.83656" lon="1.11461">
        <ele>225.6</ele>
        <time>2024-07-11T08:54:43Z</time>
      </trkpt>
      <trkpt lat="43.83665" lon="1.11466">
        <ele>225.4</ele>
        <time>2024-07-11T08:54:44Z</time>
      </trkpt>
      <trkpt lat="43.83673" lon="1.11471">
        <ele>225.2</ele>
        <time>2024-07-11T08:54:45Z</time>
      </trkpt>
      <trkpt lat="43.83683" lon="1.11476">
        <ele>225.2</ele>
        <time>2024-07-11T08:54:46Z</time>
      </trkpt>
      <trkpt lat="43.83689" lon="1.1148">
        <ele>225.2</ele>
        <time>2024-07-11T08:54:47Z</time>
      </trkpt>
      <trkpt lat="43.83697" lon="1.11485">
        <ele>225.2</ele>
        <time>2024-07-11T08:54:48Z</time>
      </trkpt>
      <trkpt lat="43.83705" lon="1.11491">
        <ele>225.2</ele>
        <time>2024-07-11T08:54:49Z</time>
      </trkpt>
      <trkpt lat="43.83712" lon="1.11496">
        <ele>225.6</ele>
        <time>2024-07-11T08:54:50Z</time>
      </trkpt>
      <trkpt lat="43.83718" lon="1.11501">
        <ele>225.6</ele>
        <time>2024-07-11T08:54:51Z</time>
      </trkpt>
      <trkpt lat="43.83723" lon="1.11506">
        <ele>225.8</ele>
        <time>2024-07-11T08:54:52Z</time>
      </trkpt>
      <trkpt lat="43.83729" lon="1.11511">
        <ele>226</ele>
        <time>2024-07-11T08:54:53Z</time>
      </trkpt>
      <trkpt lat="43.83735" lon="1.11517">
        <ele>226.2</ele>
        <time>2024-07-11T08:54:54Z</time>
      </trkpt>
      <trkpt lat="43.8374" lon="1.11522">
        <ele>226.6</ele>
        <time>2024-07-11T08:54:55Z</time>
      </trkpt>
      <trkpt lat="43.83746" lon="1.11527">
        <ele>226.8</ele>
        <time>2024-07-11T08:54:56Z</time>
      </trkpt>
      <trkpt lat="43.8375" lon="1.11531">
        <ele>227.2</ele>
        <time>2024-07-11T08:54:57Z</time>
      </trkpt>
      <trkpt lat="43.83754" lon="1.11536">
        <ele>227.8</ele>
        <time>2024-07-11T08:54:58Z</time>
      </trkpt>
      <trkpt lat="43.8376" lon="1.1154">
        <ele>228.2</ele>
        <time>2024-07-11T08:54:59Z</time>
      </trkpt>
      <trkpt lat="43.83766" lon="1.11545">
        <ele>228.8</ele>
        <time>2024-07-11T08:55:00Z</time>
      </trkpt>
      <trkpt lat="43.83771" lon="1.11547">
        <ele>229.2</ele>
        <time>2024-07-11T08:55:01Z</time>
      </trkpt>
      <trkpt lat="43.83777" lon="1.11549">
        <ele>229.8</ele>
        <time>2024-07-11T08:55:02Z</time>
      </trkpt>
      <trkpt lat="43.83783" lon="1.11551">
        <ele>230</ele>
        <time>2024-07-11T08:55:03Z</time>
      </trkpt>
      <trkpt lat="43.83789" lon="1.11551">
        <ele>230.4</ele>
        <time>2024-07-11T08:55:04Z</time>
      </trkpt>
      <trkpt lat="43.83797" lon="1.11551">
        <ele>230.6</ele>
        <time>2024-07-11T08:55:05Z</time>
      </trkpt>
      <trkpt lat="43.83802" lon="1.11551">
        <ele>230.8</ele>
        <time>2024-07-11T08:55:06Z</time>
      </trkpt>
      <trkpt lat="43.83809" lon="1.11551">
        <ele>231</ele>
        <time>2024-07-11T08:55:07Z</time>
      </trkpt>
      <trkpt lat="43.83817" lon="1.11551">
        <ele>231</ele>
        <time>2024-07-11T08:55:08Z</time>
      </trkpt>
      <trkpt lat="43.83824" lon="1.11551">
        <ele>231.2</ele>
        <time>2024-07-11T08:55:09Z</time>
      </trkpt>
      <trkpt lat="43.8383" lon="1.11552">
        <ele>231.2</ele>
        <time>2024-07-11T08:55:10Z</time>
      </trkpt>
      <trkpt lat="43.83837" lon="1.11554">
        <ele>231.2</ele>
        <time>2024-07-11T08:55:11Z</time>
      </trkpt>
      <trkpt lat="43.83844" lon="1.11559">
        <ele>231.2</ele>
        <time>2024-07-11T08:55:12Z</time>
      </trkpt>
      <trkpt lat="43.83851" lon="1.11566">
        <ele>231.2</ele>
        <time>2024-07-11T08:55:13Z</time>
      </trkpt>
      <trkpt lat="43.83857" lon="1.11574">
        <ele>231.2</ele>
        <time>2024-07-11T08:55:14Z</time>
      </trkpt>
      <trkpt lat="43.83862" lon="1.11582">
        <ele>231</ele>
        <time>2024-07-11T08:55:15Z</time>
      </trkpt>
      <trkpt lat="43.83868" lon="1.11591">
        <ele>230.6</ele>
        <time>2024-07-11T08:55:16Z</time>
      </trkpt>
      <trkpt lat="43.83874" lon="1.116">
        <ele>230.2</ele>
        <time>2024-07-11T08:55:17Z</time>
      </trkpt>
      <trkpt lat="43.83883" lon="1.1161">
        <ele>230.2</ele>
        <time>2024-07-11T08:55:18Z</time>
      </trkpt>
      <trkpt lat="43.8389" lon="1.11617">
        <ele>229.6</ele>
        <time>2024-07-11T08:55:19Z</time>
      </trkpt>
      <trkpt lat="43.83897" lon="1.11623">
        <ele>229.2</ele>
        <time>2024-07-11T08:55:20Z</time>
      </trkpt>
      <trkpt lat="43.83904" lon="1.11628">
        <ele>228.8</ele>
        <time>2024-07-11T08:55:21Z</time>
      </trkpt>
      <trkpt lat="43.83912" lon="1.11633">
        <ele>228.6</ele>
        <time>2024-07-11T08:55:22Z</time>
      </trkpt>
      <trkpt lat="43.8392" lon="1.11637">
        <ele>228</ele>
        <time>2024-07-11T08:55:23Z</time>
      </trkpt>
      <trkpt lat="43.83928" lon="1.11642">
        <ele>227.6</ele>
        <time>2024-07-11T08:55:24Z</time>
      </trkpt>
      <trkpt lat="43.83937" lon="1.11646">
        <ele>227.6</ele>
        <time>2024-07-11T08:55:25Z</time>
      </trkpt>
      <trkpt lat="43.83945" lon="1.1165">
        <ele>227.2</ele>
        <time>2024-07-11T08:55:26Z</time>
      </trkpt>
      <trkpt lat="43.83954" lon="1.11654">
        <ele>226.8</ele>
        <time>2024-07-11T08:55:27Z</time>
      </trkpt>
      <trkpt lat="43.83962" lon="1.11658">
        <ele>226</ele>
        <time>2024-07-11T08:55:28Z</time>
      </trkpt>
      <trkpt lat="43.83971" lon="1.11663">
        <ele>225.4</ele>
        <time>2024-07-11T08:55:29Z</time>
      </trkpt>
      <trkpt lat="43.8398" lon="1.11667">
        <ele>225.4</ele>
        <time>2024-07-11T08:55:30Z</time>
      </trkpt>
      <trkpt lat="43.83988" lon="1.11671">
        <ele>225</ele>
        <time>2024-07-11T08:55:31Z</time>
      </trkpt>
      <trkpt lat="43.83997" lon="1.11676">
        <ele>225</ele>
        <time>2024-07-11T08:55:32Z</time>
      </trkpt>
      <trkpt lat="43.84006" lon="1.11681">
        <ele>224.2</ele>
        <time>2024-07-11T08:55:33Z</time>
      </trkpt>
      <trkpt lat="43.84015" lon="1.11686">
        <ele>223.4</ele>
        <time>2024-07-11T08:55:34Z</time>
      </trkpt>
      <trkpt lat="43.84023" lon="1.11692">
        <ele>223.2</ele>
        <time>2024-07-11T08:55:35Z</time>
      </trkpt>
      <trkpt lat="43.84032" lon="1.11698">
        <ele>222.8</ele>
        <time>2024-07-11T08:55:36Z</time>
      </trkpt>
      <trkpt lat="43.84041" lon="1.11704">
        <ele>222.4</ele>
        <time>2024-07-11T08:55:37Z</time>
      </trkpt>
      <trkpt lat="43.84049" lon="1.11711">
        <ele>222</ele>
        <time>2024-07-11T08:55:38Z</time>
      </trkpt>
      <trkpt lat="43.84058" lon="1.11718">
        <ele>221.8</ele>
        <time>2024-07-11T08:55:39Z</time>
      </trkpt>
      <trkpt lat="43.84066" lon="1.11725">
        <ele>221.4</ele>
        <time>2024-07-11T08:55:40Z</time>
      </trkpt>
      <trkpt lat="43.84073" lon="1.11733">
        <ele>221</ele>
        <time>2024-07-11T08:55:41Z</time>
      </trkpt>
      <trkpt lat="43.84081" lon="1.11741">
        <ele>220.8</ele>
        <time>2024-07-11T08:55:42Z</time>
      </trkpt>
      <trkpt lat="43.84089" lon="1.11748">
        <ele>220.2</ele>
        <time>2024-07-11T08:55:43Z</time>
      </trkpt>
      <trkpt lat="43.84096" lon="1.11755">
        <ele>219.8</ele>
        <time>2024-07-11T08:55:44Z</time>
      </trkpt>
      <trkpt lat="43.84104" lon="1.11762">
        <ele>219.2</ele>
        <time>2024-07-11T08:55:45Z</time>
      </trkpt>
      <trkpt lat="43.84112" lon="1.1177">
        <ele>219</ele>
        <time>2024-07-11T08:55:46Z</time>
      </trkpt>
      <trkpt lat="43.8412" lon="1.11777">
        <ele>218.8</ele>
        <time>2024-07-11T08:55:47Z</time>
      </trkpt>
      <trkpt lat="43.84128" lon="1.11784">
        <ele>218.4</ele>
        <time>2024-07-11T08:55:48Z</time>
      </trkpt>
      <trkpt lat="43.84136" lon="1.11791">
        <ele>218.4</ele>
        <time>2024-07-11T08:55:49Z</time>
      </trkpt>
      <trkpt lat="43.84136" lon="1.11791">
        <ele>218</ele>
        <time>2024-07-11T08:55:50Z</time>
      </trkpt>
      <trkpt lat="43.84151" lon="1.11805">
        <ele>218</ele>
        <time>2024-07-11T08:55:51Z</time>
      </trkpt>
      <trkpt lat="43.84158" lon="1.11812">
        <ele>217.8</ele>
        <time>2024-07-11T08:55:52Z</time>
      </trkpt>
      <trkpt lat="43.84165" lon="1.11819">
        <ele>217.4</ele>
        <time>2024-07-11T08:55:53Z</time>
      </trkpt>
      <trkpt lat="43.84172" lon="1.11825">
        <ele>217.4</ele>
        <time>2024-07-11T08:55:54Z</time>
      </trkpt>
      <trkpt lat="43.84178" lon="1.1183">
        <ele>217</ele>
        <time>2024-07-11T08:55:55Z</time>
      </trkpt>
      <trkpt lat="43.84183" lon="1.11835">
        <ele>216.8</ele>
        <time>2024-07-11T08:55:56Z</time>
      </trkpt>
      <trkpt lat="43.84187" lon="1.11839">
        <ele>216.4</ele>
        <time>2024-07-11T08:55:57Z</time>
      </trkpt>
      <trkpt lat="43.8419" lon="1.11842">
        <ele>216.2</ele>
        <time>2024-07-11T08:55:58Z</time>
      </trkpt>
      <trkpt lat="43.84193" lon="1.11845">
        <ele>216.2</ele>
        <time>2024-07-11T08:55:59Z</time>
      </trkpt>
      <trkpt lat="43.84196" lon="1.11848">
        <ele>216</ele>
        <time>2024-07-11T08:56:00Z</time>
      </trkpt>
      <trkpt lat="43.84199" lon="1.11851">
        <ele>216</ele>
        <time>2024-07-11T08:56:01Z</time>
      </trkpt>
      <trkpt lat="43.84203" lon="1.11854">
        <ele>216</ele>
        <time>2024-07-11T08:56:02Z</time>
      </trkpt>
      <trkpt lat="43.84206" lon="1.11857">
        <ele>216</ele>
        <time>2024-07-11T08:56:03Z</time>
      </trkpt>
      <trkpt lat="43.8421" lon="1.11861">
        <ele>216</ele>
        <time>2024-07-11T08:56:04Z</time>
      </trkpt>
      <trkpt lat="43.84213" lon="1.11864">
        <ele>216</ele>
        <time>2024-07-11T08:56:05Z</time>
      </trkpt>
      <trkpt lat="43.84216" lon="1.11868">
        <ele>216</ele>
        <time>2024-07-11T08:56:06Z</time>
      </trkpt>
      <trkpt lat="43.84219" lon="1.11871">
        <ele>216.4</ele>
        <time>2024-07-11T08:56:07Z</time>
      </trkpt>
      <trkpt lat="43.84222" lon="1.11875">
        <ele>216.4</ele>
        <time>2024-07-11T08:56:08Z</time>
      </trkpt>
      <trkpt lat="43.84225" lon="1.11879">
        <ele>216.6</ele>
        <time>2024-07-11T08:56:09Z</time>
      </trkpt>
      <trkpt lat="43.84229" lon="1.11882">
        <ele>216.8</ele>
        <time>2024-07-11T08:56:10Z</time>
      </trkpt>
      <trkpt lat="43.84232" lon="1.11885">
        <ele>217</ele>
        <time>2024-07-11T08:56:11Z</time>
      </trkpt>
      <trkpt lat="43.84235" lon="1.11887">
        <ele>217.2</ele>
        <time>2024-07-11T08:56:12Z</time>
      </trkpt>
      <trkpt lat="43.84239" lon="1.1189">
        <ele>217.4</ele>
        <time>2024-07-11T08:56:13Z</time>
      </trkpt>
      <trkpt lat="43.84242" lon="1.11893">
        <ele>217.6</ele>
        <time>2024-07-11T08:56:14Z</time>
      </trkpt>
      <trkpt lat="43.84246" lon="1.11896">
        <ele>217.8</ele>
        <time>2024-07-11T08:56:15Z</time>
      </trkpt>
      <trkpt lat="43.84249" lon="1.119">
        <ele>218.2</ele>
        <time>2024-07-11T08:56:16Z</time>
      </trkpt>
      <trkpt lat="43.84252" lon="1.11903">
        <ele>218.4</ele>
        <time>2024-07-11T08:56:17Z</time>
      </trkpt>
      <trkpt lat="43.84256" lon="1.11906">
        <ele>218.6</ele>
        <time>2024-07-11T08:56:18Z</time>
      </trkpt>
      <trkpt lat="43.84259" lon="1.11909">
        <ele>219.2</ele>
        <time>2024-07-11T08:56:19Z</time>
      </trkpt>
      <trkpt lat="43.84263" lon="1.11912">
        <ele>219.2</ele>
        <time>2024-07-11T08:56:20Z</time>
      </trkpt>
      <trkpt lat="43.84266" lon="1.11915">
        <ele>219.6</ele>
        <time>2024-07-11T08:56:21Z</time>
      </trkpt>
      <trkpt lat="43.84269" lon="1.11918">
        <ele>219.6</ele>
        <time>2024-07-11T08:56:22Z</time>
      </trkpt>
      <trkpt lat="43.84272" lon="1.11922">
        <ele>220</ele>
        <time>2024-07-11T08:56:23Z</time>
      </trkpt>
      <trkpt lat="43.84275" lon="1.11925">
        <ele>220.4</ele>
        <time>2024-07-11T08:56:24Z</time>
      </trkpt>
      <trkpt lat="43.84278" lon="1.11928">
        <ele>220.4</ele>
        <time>2024-07-11T08:56:25Z</time>
      </trkpt>
      <trkpt lat="43.84281" lon="1.11931">
        <ele>221.2</ele>
        <time>2024-07-11T08:56:26Z</time>
      </trkpt>
      <trkpt lat="43.84284" lon="1.11935">
        <ele>221.4</ele>
        <time>2024-07-11T08:56:27Z</time>
      </trkpt>
      <trkpt lat="43.84288" lon="1.11938">
        <ele>221.6</ele>
        <time>2024-07-11T08:56:28Z</time>
      </trkpt>
      <trkpt lat="43.84291" lon="1.11941">
        <ele>221.8</ele>
        <time>2024-07-11T08:56:29Z</time>
      </trkpt>
      <trkpt lat="43.84294" lon="1.11945">
        <ele>222</ele>
        <time>2024-07-11T08:56:30Z</time>
      </trkpt>
      <trkpt lat="43.84297" lon="1.11948">
        <ele>222</ele>
        <time>2024-07-11T08:56:31Z</time>
      </trkpt>
      <trkpt lat="43.843" lon="1.1195">
        <ele>222.2</ele>
        <time>2024-07-11T08:56:32Z</time>
      </trkpt>
      <trkpt lat="43.84304" lon="1.11952">
        <ele>222.2</ele>
        <time>2024-07-11T08:56:33Z</time>
      </trkpt>
      <trkpt lat="43.84308" lon="1.11955">
        <ele>222.2</ele>
        <time>2024-07-11T08:56:34Z</time>
      </trkpt>
      <trkpt lat="43.84312" lon="1.11957">
        <ele>222.2</ele>
        <time>2024-07-11T08:56:35Z</time>
      </trkpt>
      <trkpt lat="43.84317" lon="1.1196">
        <ele>222.2</ele>
        <time>2024-07-11T08:56:36Z</time>
      </trkpt>
      <trkpt lat="43.84322" lon="1.11963">
        <ele>222.2</ele>
        <time>2024-07-11T08:56:37Z</time>
      </trkpt>
      <trkpt lat="43.84327" lon="1.11967">
        <ele>222.2</ele>
        <time>2024-07-11T08:56:38Z</time>
      </trkpt>
      <trkpt lat="43.84332" lon="1.1197">
        <ele>222.2</ele>
        <time>2024-07-11T08:56:39Z</time>
      </trkpt>
      <trkpt lat="43.84338" lon="1.11974">
        <ele>222.2</ele>
        <time>2024-07-11T08:56:40Z</time>
      </trkpt>
      <trkpt lat="43.84344" lon="1.11978">
        <ele>222.2</ele>
        <time>2024-07-11T08:56:41Z</time>
      </trkpt>
      <trkpt lat="43.84351" lon="1.11982">
        <ele>222</ele>
        <time>2024-07-11T08:56:42Z</time>
      </trkpt>
      <trkpt lat="43.84357" lon="1.11986">
        <ele>221.6</ele>
        <time>2024-07-11T08:56:43Z</time>
      </trkpt>
      <trkpt lat="43.84364" lon="1.1199">
        <ele>221.4</ele>
        <time>2024-07-11T08:56:44Z</time>
      </trkpt>
      <trkpt lat="43.84372" lon="1.11995">
        <ele>220.8</ele>
        <time>2024-07-11T08:56:45Z</time>
      </trkpt>
      <trkpt lat="43.84381" lon="1.12">
        <ele>220.6</ele>
        <time>2024-07-11T08:56:46Z</time>
      </trkpt>
      <trkpt lat="43.84389" lon="1.12005">
        <ele>220.4</ele>
        <time>2024-07-11T08:56:47Z</time>
      </trkpt>
      <trkpt lat="43.84398" lon="1.12011">
        <ele>220</ele>
        <time>2024-07-11T08:56:48Z</time>
      </trkpt>
      <trkpt lat="43.84408" lon="1.12016">
        <ele>219.6</ele>
        <time>2024-07-11T08:56:49Z</time>
      </trkpt>
      <trkpt lat="43.84417" lon="1.12022">
        <ele>218.8</ele>
        <time>2024-07-11T08:56:50Z</time>
      </trkpt>
      <trkpt lat="43.84427" lon="1.12028">
        <ele>218.2</ele>
        <time>2024-07-11T08:56:51Z</time>
      </trkpt>
      <trkpt lat="43.84439" lon="1.12037">
        <ele>217.2</ele>
        <time>2024-07-11T08:56:52Z</time>
      </trkpt>
      <trkpt lat="43.84449" lon="1.12045">
        <ele>216.6</ele>
        <time>2024-07-11T08:56:53Z</time>
      </trkpt>
      <trkpt lat="43.84458" lon="1.12053">
        <ele>216</ele>
        <time>2024-07-11T08:56:54Z</time>
      </trkpt>
      <trkpt lat="43.84465" lon="1.12059">
        <ele>215.4</ele>
        <time>2024-07-11T08:56:55Z</time>
      </trkpt>
      <trkpt lat="43.84474" lon="1.12067">
        <ele>214.8</ele>
        <time>2024-07-11T08:56:56Z</time>
      </trkpt>
      <trkpt lat="43.84483" lon="1.12077">
        <ele>213.8</ele>
        <time>2024-07-11T08:56:57Z</time>
      </trkpt>
      <trkpt lat="43.84491" lon="1.12085">
        <ele>213.4</ele>
        <time>2024-07-11T08:56:58Z</time>
      </trkpt>
      <trkpt lat="43.84497" lon="1.12091">
        <ele>212.6</ele>
        <time>2024-07-11T08:56:59Z</time>
      </trkpt>
      <trkpt lat="43.84505" lon="1.12099">
        <ele>212</ele>
        <time>2024-07-11T08:57:00Z</time>
      </trkpt>
      <trkpt lat="43.84514" lon="1.12108">
        <ele>211.8</ele>
        <time>2024-07-11T08:57:01Z</time>
      </trkpt>
      <trkpt lat="43.8452" lon="1.12113">
        <ele>211.6</ele>
        <time>2024-07-11T08:57:02Z</time>
      </trkpt>
      <trkpt lat="43.84528" lon="1.12122">
        <ele>211.6</ele>
        <time>2024-07-11T08:57:03Z</time>
      </trkpt>
      <trkpt lat="43.84533" lon="1.12127">
        <ele>211.4</ele>
        <time>2024-07-11T08:57:04Z</time>
      </trkpt>
      <trkpt lat="43.8454" lon="1.12134">
        <ele>211.4</ele>
        <time>2024-07-11T08:57:05Z</time>
      </trkpt>
      <trkpt lat="43.84548" lon="1.12142">
        <ele>211.4</ele>
        <time>2024-07-11T08:57:06Z</time>
      </trkpt>
      <trkpt lat="43.84554" lon="1.12148">
        <ele>211.4</ele>
        <time>2024-07-11T08:57:07Z</time>
      </trkpt>
      <trkpt lat="43.8456" lon="1.12154">
        <ele>211.6</ele>
        <time>2024-07-11T08:57:08Z</time>
      </trkpt>
      <trkpt lat="43.84566" lon="1.12158">
        <ele>211.6</ele>
        <time>2024-07-11T08:57:09Z</time>
      </trkpt>
      <trkpt lat="43.84572" lon="1.12164">
        <ele>211.8</ele>
        <time>2024-07-11T08:57:10Z</time>
      </trkpt>
      <trkpt lat="43.84579" lon="1.12169">
        <ele>211.8</ele>
        <time>2024-07-11T08:57:11Z</time>
      </trkpt>
      <trkpt lat="43.84587" lon="1.12175">
        <ele>212</ele>
        <time>2024-07-11T08:57:12Z</time>
      </trkpt>
      <trkpt lat="43.84594" lon="1.12179">
        <ele>212.4</ele>
        <time>2024-07-11T08:57:13Z</time>
      </trkpt>
      <trkpt lat="43.84599" lon="1.12183">
        <ele>212.6</ele>
        <time>2024-07-11T08:57:14Z</time>
      </trkpt>
      <trkpt lat="43.84605" lon="1.12188">
        <ele>212.8</ele>
        <time>2024-07-11T08:57:15Z</time>
      </trkpt>
      <trkpt lat="43.84611" lon="1.12193">
        <ele>213</ele>
        <time>2024-07-11T08:57:16Z</time>
      </trkpt>
      <trkpt lat="43.84618" lon="1.122">
        <ele>213.2</ele>
        <time>2024-07-11T08:57:17Z</time>
      </trkpt>
      <trkpt lat="43.84622" lon="1.12205">
        <ele>213.6</ele>
        <time>2024-07-11T08:57:18Z</time>
      </trkpt>
      <trkpt lat="43.84628" lon="1.12212">
        <ele>214</ele>
        <time>2024-07-11T08:57:19Z</time>
      </trkpt>
      <trkpt lat="43.84634" lon="1.12218">
        <ele>214.2</ele>
        <time>2024-07-11T08:57:20Z</time>
      </trkpt>
      <trkpt lat="43.8464" lon="1.12226">
        <ele>214.2</ele>
        <time>2024-07-11T08:57:21Z</time>
      </trkpt>
      <trkpt lat="43.84646" lon="1.12233">
        <ele>214.2</ele>
        <time>2024-07-11T08:57:22Z</time>
      </trkpt>
      <trkpt lat="43.84652" lon="1.1224">
        <ele>214.2</ele>
        <time>2024-07-11T08:57:23Z</time>
      </trkpt>
      <trkpt lat="43.84658" lon="1.12248">
        <ele>214.2</ele>
        <time>2024-07-11T08:57:24Z</time>
      </trkpt>
      <trkpt lat="43.84665" lon="1.12256">
        <ele>214</ele>
        <time>2024-07-11T08:57:25Z</time>
      </trkpt>
      <trkpt lat="43.84672" lon="1.12264">
        <ele>213.8</ele>
        <time>2024-07-11T08:57:26Z</time>
      </trkpt>
      <trkpt lat="43.8468" lon="1.12272">
        <ele>213.6</ele>
        <time>2024-07-11T08:57:27Z</time>
      </trkpt>
      <trkpt lat="43.84688" lon="1.12279">
        <ele>213.4</ele>
        <time>2024-07-11T08:57:28Z</time>
      </trkpt>
      <trkpt lat="43.84695" lon="1.12286">
        <ele>213.2</ele>
        <time>2024-07-11T08:57:29Z</time>
      </trkpt>
      <trkpt lat="43.84703" lon="1.12292">
        <ele>213</ele>
        <time>2024-07-11T08:57:30Z</time>
      </trkpt>
      <trkpt lat="43.84711" lon="1.12299">
        <ele>212.4</ele>
        <time>2024-07-11T08:57:31Z</time>
      </trkpt>
      <trkpt lat="43.84719" lon="1.12305">
        <ele>212.4</ele>
        <time>2024-07-11T08:57:32Z</time>
      </trkpt>
      <trkpt lat="43.84727" lon="1.12311">
        <ele>212</ele>
        <time>2024-07-11T08:57:33Z</time>
      </trkpt>
      <trkpt lat="43.84734" lon="1.12317">
        <ele>211.6</ele>
        <time>2024-07-11T08:57:34Z</time>
      </trkpt>
      <trkpt lat="43.84742" lon="1.12323">
        <ele>211.2</ele>
        <time>2024-07-11T08:57:35Z</time>
      </trkpt>
      <trkpt lat="43.8475" lon="1.12329">
        <ele>211</ele>
        <time>2024-07-11T08:57:36Z</time>
      </trkpt>
      <trkpt lat="43.84757" lon="1.12336">
        <ele>210.8</ele>
        <time>2024-07-11T08:57:37Z</time>
      </trkpt>
      <trkpt lat="43.84765" lon="1.12342">
        <ele>210.6</ele>
        <time>2024-07-11T08:57:38Z</time>
      </trkpt>
      <trkpt lat="43.84772" lon="1.12348">
        <ele>210.4</ele>
        <time>2024-07-11T08:57:39Z</time>
      </trkpt>
      <trkpt lat="43.8478" lon="1.12354">
        <ele>210</ele>
        <time>2024-07-11T08:57:40Z</time>
      </trkpt>
      <trkpt lat="43.84787" lon="1.12361">
        <ele>209.8</ele>
        <time>2024-07-11T08:57:41Z</time>
      </trkpt>
      <trkpt lat="43.84795" lon="1.12367">
        <ele>209.4</ele>
        <time>2024-07-11T08:57:42Z</time>
      </trkpt>
      <trkpt lat="43.84802" lon="1.12373">
        <ele>209.2</ele>
        <time>2024-07-11T08:57:43Z</time>
      </trkpt>
      <trkpt lat="43.8481" lon="1.12379">
        <ele>209.2</ele>
        <time>2024-07-11T08:57:44Z</time>
      </trkpt>
      <trkpt lat="43.84817" lon="1.12385">
        <ele>209</ele>
        <time>2024-07-11T08:57:45Z</time>
      </trkpt>
      <trkpt lat="43.84825" lon="1.12392">
        <ele>208.6</ele>
        <time>2024-07-11T08:57:46Z</time>
      </trkpt>
      <trkpt lat="43.84833" lon="1.12398">
        <ele>208.4</ele>
        <time>2024-07-11T08:57:47Z</time>
      </trkpt>
      <trkpt lat="43.84841" lon="1.12406">
        <ele>208.2</ele>
        <time>2024-07-11T08:57:48Z</time>
      </trkpt>
      <trkpt lat="43.84848" lon="1.12413">
        <ele>208</ele>
        <time>2024-07-11T08:57:49Z</time>
      </trkpt>
      <trkpt lat="43.84856" lon="1.12422">
        <ele>207.6</ele>
        <time>2024-07-11T08:57:50Z</time>
      </trkpt>
      <trkpt lat="43.84863" lon="1.12431">
        <ele>207.4</ele>
        <time>2024-07-11T08:57:51Z</time>
      </trkpt>
      <trkpt lat="43.8487" lon="1.1244">
        <ele>207</ele>
        <time>2024-07-11T08:57:52Z</time>
      </trkpt>
      <trkpt lat="43.84877" lon="1.12449">
        <ele>206.8</ele>
        <time>2024-07-11T08:57:53Z</time>
      </trkpt>
      <trkpt lat="43.84884" lon="1.12459">
        <ele>206.4</ele>
        <time>2024-07-11T08:57:54Z</time>
      </trkpt>
      <trkpt lat="43.84892" lon="1.12468">
        <ele>206</ele>
        <time>2024-07-11T08:57:55Z</time>
      </trkpt>
      <trkpt lat="43.84892" lon="1.12468">
        <ele>205.6</ele>
        <time>2024-07-11T08:57:56Z</time>
      </trkpt>
      <trkpt lat="43.84906" lon="1.12488">
        <ele>205.2</ele>
        <time>2024-07-11T08:57:57Z</time>
      </trkpt>
      <trkpt lat="43.84913" lon="1.12499">
        <ele>205</ele>
        <time>2024-07-11T08:57:58Z</time>
      </trkpt>
      <trkpt lat="43.8492" lon="1.1251">
        <ele>204.8</ele>
        <time>2024-07-11T08:57:59Z</time>
      </trkpt>
      <trkpt lat="43.84927" lon="1.12521">
        <ele>204.6</ele>
        <time>2024-07-11T08:58:00Z</time>
      </trkpt>
      <trkpt lat="43.84934" lon="1.12534">
        <ele>204</ele>
        <time>2024-07-11T08:58:01Z</time>
      </trkpt>
      <trkpt lat="43.8494" lon="1.12546">
        <ele>203.6</ele>
        <time>2024-07-11T08:58:02Z</time>
      </trkpt>
      <trkpt lat="43.84946" lon="1.1256">
        <ele>203.4</ele>
        <time>2024-07-11T08:58:03Z</time>
      </trkpt>
      <trkpt lat="43.84951" lon="1.12574">
        <ele>203</ele>
        <time>2024-07-11T08:58:04Z</time>
      </trkpt>
      <trkpt lat="43.84956" lon="1.12588">
        <ele>202.4</ele>
        <time>2024-07-11T08:58:05Z</time>
      </trkpt>
      <trkpt lat="43.84962" lon="1.12602">
        <ele>201.4</ele>
        <time>2024-07-11T08:58:06Z</time>
      </trkpt>
      <trkpt lat="43.84968" lon="1.12616">
        <ele>201</ele>
        <time>2024-07-11T08:58:07Z</time>
      </trkpt>
      <trkpt lat="43.84973" lon="1.1263">
        <ele>200</ele>
        <time>2024-07-11T08:58:08Z</time>
      </trkpt>
      <trkpt lat="43.84979" lon="1.12644">
        <ele>199.2</ele>
        <time>2024-07-11T08:58:09Z</time>
      </trkpt>
      <trkpt lat="43.84985" lon="1.12657">
        <ele>198.8</ele>
        <time>2024-07-11T08:58:10Z</time>
      </trkpt>
      <trkpt lat="43.84991" lon="1.12672">
        <ele>198.4</ele>
        <time>2024-07-11T08:58:11Z</time>
      </trkpt>
      <trkpt lat="43.84997" lon="1.12686">
        <ele>198</ele>
        <time>2024-07-11T08:58:12Z</time>
      </trkpt>
      <trkpt lat="43.85003" lon="1.127">
        <ele>197.6</ele>
        <time>2024-07-11T08:58:13Z</time>
      </trkpt>
      <trkpt lat="43.85009" lon="1.12714">
        <ele>196.8</ele>
        <time>2024-07-11T08:58:14Z</time>
      </trkpt>
      <trkpt lat="43.85015" lon="1.12728">
        <ele>196.6</ele>
        <time>2024-07-11T08:58:15Z</time>
      </trkpt>
      <trkpt lat="43.85021" lon="1.12742">
        <ele>196</ele>
        <time>2024-07-11T08:58:16Z</time>
      </trkpt>
      <trkpt lat="43.85028" lon="1.12758">
        <ele>195.6</ele>
        <time>2024-07-11T08:58:17Z</time>
      </trkpt>
      <trkpt lat="43.85034" lon="1.12772">
        <ele>194.6</ele>
        <time>2024-07-11T08:58:18Z</time>
      </trkpt>
      <trkpt lat="43.85039" lon="1.12783">
        <ele>194</ele>
        <time>2024-07-11T08:58:19Z</time>
      </trkpt>
      <trkpt lat="43.85045" lon="1.12797">
        <ele>193.4</ele>
        <time>2024-07-11T08:58:20Z</time>
      </trkpt>
      <trkpt lat="43.85052" lon="1.12814">
        <ele>193</ele>
        <time>2024-07-11T08:58:21Z</time>
      </trkpt>
      <trkpt lat="43.85058" lon="1.12827">
        <ele>192.6</ele>
        <time>2024-07-11T08:58:22Z</time>
      </trkpt>
      <trkpt lat="43.85064" lon="1.1284">
        <ele>192.2</ele>
        <time>2024-07-11T08:58:23Z</time>
      </trkpt>
      <trkpt lat="43.85068" lon="1.1285">
        <ele>192</ele>
        <time>2024-07-11T08:58:24Z</time>
      </trkpt>
      <trkpt lat="43.85073" lon="1.12864">
        <ele>191.6</ele>
        <time>2024-07-11T08:58:25Z</time>
      </trkpt>
      <trkpt lat="43.85077" lon="1.12881">
        <ele>191.2</ele>
        <time>2024-07-11T08:58:26Z</time>
      </trkpt>
      <trkpt lat="43.85079" lon="1.12893">
        <ele>191</ele>
        <time>2024-07-11T08:58:27Z</time>
      </trkpt>
      <trkpt lat="43.85081" lon="1.12911">
        <ele>190.8</ele>
        <time>2024-07-11T08:58:28Z</time>
      </trkpt>
      <trkpt lat="43.85082" lon="1.12924">
        <ele>190.6</ele>
        <time>2024-07-11T08:58:29Z</time>
      </trkpt>
      <trkpt lat="43.85083" lon="1.12939">
        <ele>190.2</ele>
        <time>2024-07-11T08:58:30Z</time>
      </trkpt>
      <trkpt lat="43.85084" lon="1.12955">
        <ele>190</ele>
        <time>2024-07-11T08:58:31Z</time>
      </trkpt>
      <trkpt lat="43.85086" lon="1.12973">
        <ele>189.8</ele>
        <time>2024-07-11T08:58:32Z</time>
      </trkpt>
      <trkpt lat="43.85087" lon="1.12985">
        <ele>189.2</ele>
        <time>2024-07-11T08:58:33Z</time>
      </trkpt>
      <trkpt lat="43.85088" lon="1.13">
        <ele>189</ele>
        <time>2024-07-11T08:58:34Z</time>
      </trkpt>
      <trkpt lat="43.8509" lon="1.13015">
        <ele>188.8</ele>
        <time>2024-07-11T08:58:35Z</time>
      </trkpt>
      <trkpt lat="43.85091" lon="1.1303">
        <ele>188.6</ele>
        <time>2024-07-11T08:58:36Z</time>
      </trkpt>
      <trkpt lat="43.85093" lon="1.13048">
        <ele>188.4</ele>
        <time>2024-07-11T08:58:37Z</time>
      </trkpt>
      <trkpt lat="43.85094" lon="1.13059">
        <ele>188.4</ele>
        <time>2024-07-11T08:58:38Z</time>
      </trkpt>
      <trkpt lat="43.85096" lon="1.13074">
        <ele>188.2</ele>
        <time>2024-07-11T08:58:39Z</time>
      </trkpt>
      <trkpt lat="43.85098" lon="1.13091">
        <ele>188.2</ele>
        <time>2024-07-11T08:58:40Z</time>
      </trkpt>
      <trkpt lat="43.85099" lon="1.13103">
        <ele>188</ele>
        <time>2024-07-11T08:58:41Z</time>
      </trkpt>
      <trkpt lat="43.85101" lon="1.1312">
        <ele>188</ele>
        <time>2024-07-11T08:58:42Z</time>
      </trkpt>
      <trkpt lat="43.85102" lon="1.13131">
        <ele>187.8</ele>
        <time>2024-07-11T08:58:43Z</time>
      </trkpt>
      <trkpt lat="43.85103" lon="1.13146">
        <ele>187.8</ele>
        <time>2024-07-11T08:58:44Z</time>
      </trkpt>
      <trkpt lat="43.85105" lon="1.1316">
        <ele>187.6</ele>
        <time>2024-07-11T08:58:45Z</time>
      </trkpt>
      <trkpt lat="43.85107" lon="1.13174">
        <ele>187.6</ele>
        <time>2024-07-11T08:58:46Z</time>
      </trkpt>
      <trkpt lat="43.85109" lon="1.13188">
        <ele>187.6</ele>
        <time>2024-07-11T08:58:47Z</time>
      </trkpt>
      <trkpt lat="43.8511" lon="1.13202">
        <ele>187.6</ele>
        <time>2024-07-11T08:58:48Z</time>
      </trkpt>
      <trkpt lat="43.85112" lon="1.13216">
        <ele>187.4</ele>
        <time>2024-07-11T08:58:49Z</time>
      </trkpt>
      <trkpt lat="43.85114" lon="1.1323">
        <ele>187.2</ele>
        <time>2024-07-11T08:58:50Z</time>
      </trkpt>
      <trkpt lat="43.85116" lon="1.13246">
        <ele>187.2</ele>
        <time>2024-07-11T08:58:51Z</time>
      </trkpt>
      <trkpt lat="43.85118" lon="1.1326">
        <ele>187.2</ele>
        <time>2024-07-11T08:58:52Z</time>
      </trkpt>
      <trkpt lat="43.8512" lon="1.13271">
        <ele>187.2</ele>
        <time>2024-07-11T08:58:53Z</time>
      </trkpt>
      <trkpt lat="43.85122" lon="1.13284">
        <ele>186.8</ele>
        <time>2024-07-11T08:58:54Z</time>
      </trkpt>
      <trkpt lat="43.85123" lon="1.13297">
        <ele>186.8</ele>
        <time>2024-07-11T08:58:55Z</time>
      </trkpt>
      <trkpt lat="43.85125" lon="1.13313">
        <ele>186.6</ele>
        <time>2024-07-11T08:58:56Z</time>
      </trkpt>
      <trkpt lat="43.85127" lon="1.13323">
        <ele>186.6</ele>
        <time>2024-07-11T08:58:57Z</time>
      </trkpt>
      <trkpt lat="43.85128" lon="1.13336">
        <ele>186.6</ele>
        <time>2024-07-11T08:58:58Z</time>
      </trkpt>
      <trkpt lat="43.85131" lon="1.13351">
        <ele>186.4</ele>
        <time>2024-07-11T08:58:59Z</time>
      </trkpt>
      <trkpt lat="43.85132" lon="1.13363">
        <ele>186.4</ele>
        <time>2024-07-11T08:59:00Z</time>
      </trkpt>
      <trkpt lat="43.85134" lon="1.13375">
        <ele>186.4</ele>
        <time>2024-07-11T08:59:01Z</time>
      </trkpt>
      <trkpt lat="43.85136" lon="1.13385">
        <ele>186.4</ele>
        <time>2024-07-11T08:59:02Z</time>
      </trkpt>
      <trkpt lat="43.85137" lon="1.13397">
        <ele>186.2</ele>
        <time>2024-07-11T08:59:03Z</time>
      </trkpt>
      <trkpt lat="43.85139" lon="1.13411">
        <ele>186.2</ele>
        <time>2024-07-11T08:59:04Z</time>
      </trkpt>
      <trkpt lat="43.85141" lon="1.13424">
        <ele>186.2</ele>
        <time>2024-07-11T08:59:05Z</time>
      </trkpt>
      <trkpt lat="43.85142" lon="1.13433">
        <ele>186.2</ele>
        <time>2024-07-11T08:59:06Z</time>
      </trkpt>
      <trkpt lat="43.85144" lon="1.13445">
        <ele>186.2</ele>
        <time>2024-07-11T08:59:07Z</time>
      </trkpt>
      <trkpt lat="43.85145" lon="1.13457">
        <ele>186</ele>
        <time>2024-07-11T08:59:08Z</time>
      </trkpt>
      <trkpt lat="43.85147" lon="1.13471">
        <ele>186</ele>
        <time>2024-07-11T08:59:09Z</time>
      </trkpt>
      <trkpt lat="43.85149" lon="1.13483">
        <ele>186</ele>
        <time>2024-07-11T08:59:10Z</time>
      </trkpt>
      <trkpt lat="43.85151" lon="1.13495">
        <ele>185.8</ele>
        <time>2024-07-11T08:59:11Z</time>
      </trkpt>
      <trkpt lat="43.85153" lon="1.13507">
        <ele>185.6</ele>
        <time>2024-07-11T08:59:12Z</time>
      </trkpt>
      <trkpt lat="43.85154" lon="1.13517">
        <ele>185.6</ele>
        <time>2024-07-11T08:59:13Z</time>
      </trkpt>
      <trkpt lat="43.85157" lon="1.13531">
        <ele>185.4</ele>
        <time>2024-07-11T08:59:14Z</time>
      </trkpt>
      <trkpt lat="43.85159" lon="1.13543">
        <ele>185.2</ele>
        <time>2024-07-11T08:59:15Z</time>
      </trkpt>
      <trkpt lat="43.85162" lon="1.13555">
        <ele>185</ele>
        <time>2024-07-11T08:59:16Z</time>
      </trkpt>
      <trkpt lat="43.85164" lon="1.13565">
        <ele>184.8</ele>
        <time>2024-07-11T08:59:17Z</time>
      </trkpt>
      <trkpt lat="43.85168" lon="1.13579">
        <ele>184.8</ele>
        <time>2024-07-11T08:59:18Z</time>
      </trkpt>
      <trkpt lat="43.8517" lon="1.13591">
        <ele>184.6</ele>
        <time>2024-07-11T08:59:19Z</time>
      </trkpt>
      <trkpt lat="43.85174" lon="1.13603">
        <ele>184.4</ele>
        <time>2024-07-11T08:59:20Z</time>
      </trkpt>
      <trkpt lat="43.85176" lon="1.13612">
        <ele>184</ele>
        <time>2024-07-11T08:59:21Z</time>
      </trkpt>
      <trkpt lat="43.85179" lon="1.13626">
        <ele>183.6</ele>
        <time>2024-07-11T08:59:22Z</time>
      </trkpt>
      <trkpt lat="43.85182" lon="1.13637">
        <ele>183.4</ele>
        <time>2024-07-11T08:59:23Z</time>
      </trkpt>
      <trkpt lat="43.85185" lon="1.13648">
        <ele>183.4</ele>
        <time>2024-07-11T08:59:24Z</time>
      </trkpt>
      <trkpt lat="43.85188" lon="1.1366">
        <ele>183.2</ele>
        <time>2024-07-11T08:59:25Z</time>
      </trkpt>
      <trkpt lat="43.8519" lon="1.13668">
        <ele>183</ele>
        <time>2024-07-11T08:59:26Z</time>
      </trkpt>
      <trkpt lat="43.85193" lon="1.13679">
        <ele>182.8</ele>
        <time>2024-07-11T08:59:27Z</time>
      </trkpt>
      <trkpt lat="43.85196" lon="1.13692">
        <ele>182.6</ele>
        <time>2024-07-11T08:59:28Z</time>
      </trkpt>
      <trkpt lat="43.85199" lon="1.13701">
        <ele>182.4</ele>
        <time>2024-07-11T08:59:29Z</time>
      </trkpt>
      <trkpt lat="43.852" lon="1.13709">
        <ele>182</ele>
        <time>2024-07-11T08:59:30Z</time>
      </trkpt>
      <trkpt lat="43.85202" lon="1.13714">
        <ele>182</ele>
        <time>2024-07-11T08:59:31Z</time>
      </trkpt>
      <trkpt lat="43.85203" lon="1.13719">
        <ele>181.6</ele>
        <time>2024-07-11T08:59:32Z</time>
      </trkpt>
      <trkpt lat="43.85205" lon="1.13723">
        <ele>181</ele>
        <time>2024-07-11T08:59:33Z</time>
      </trkpt>
      <trkpt lat="43.85206" lon="1.13727">
        <ele>180.8</ele>
        <time>2024-07-11T08:59:34Z</time>
      </trkpt>
      <trkpt lat="43.85206" lon="1.13732">
        <ele>180.8</ele>
        <time>2024-07-11T08:59:35Z</time>
      </trkpt>
      <trkpt lat="43.85205" lon="1.13736">
        <ele>180.6</ele>
        <time>2024-07-11T08:59:36Z</time>
      </trkpt>
      <trkpt lat="43.85202" lon="1.13743">
        <ele>180.4</ele>
        <time>2024-07-11T08:59:37Z</time>
      </trkpt>
      <trkpt lat="43.852" lon="1.13749">
        <ele>180.2</ele>
        <time>2024-07-11T08:59:38Z</time>
      </trkpt>
      <trkpt lat="43.85197" lon="1.13755">
        <ele>180.2</ele>
        <time>2024-07-11T08:59:39Z</time>
      </trkpt>
      <trkpt lat="43.85195" lon="1.1376">
        <ele>180</ele>
        <time>2024-07-11T08:59:40Z</time>
      </trkpt>
      <trkpt lat="43.85191" lon="1.13768">
        <ele>180</ele>
        <time>2024-07-11T08:59:41Z</time>
      </trkpt>
      <trkpt lat="43.85187" lon="1.13778">
        <ele>179.8</ele>
        <time>2024-07-11T08:59:42Z</time>
      </trkpt>
      <trkpt lat="43.85183" lon="1.13786">
        <ele>179.8</ele>
        <time>2024-07-11T08:59:43Z</time>
      </trkpt>
      <trkpt lat="43.8518" lon="1.13796">
        <ele>179.4</ele>
        <time>2024-07-11T08:59:44Z</time>
      </trkpt>
      <trkpt lat="43.85176" lon="1.13805">
        <ele>178.8</ele>
        <time>2024-07-11T08:59:45Z</time>
      </trkpt>
      <trkpt lat="43.85173" lon="1.13813">
        <ele>178.6</ele>
        <time>2024-07-11T08:59:46Z</time>
      </trkpt>
      <trkpt lat="43.85168" lon="1.13824">
        <ele>178.4</ele>
        <time>2024-07-11T08:59:47Z</time>
      </trkpt>
      <trkpt lat="43.85164" lon="1.13833">
        <ele>178.2</ele>
        <time>2024-07-11T08:59:48Z</time>
      </trkpt>
      <trkpt lat="43.85161" lon="1.13841">
        <ele>178</ele>
        <time>2024-07-11T08:59:49Z</time>
      </trkpt>
      <trkpt lat="43.85157" lon="1.1385">
        <ele>178</ele>
        <time>2024-07-11T08:59:50Z</time>
      </trkpt>
      <trkpt lat="43.85154" lon="1.13859">
        <ele>177.8</ele>
        <time>2024-07-11T08:59:51Z</time>
      </trkpt>
      <trkpt lat="43.8515" lon="1.1387">
        <ele>177.6</ele>
        <time>2024-07-11T08:59:52Z</time>
      </trkpt>
      <trkpt lat="43.85149" lon="1.13878">
        <ele>177.6</ele>
        <time>2024-07-11T08:59:53Z</time>
      </trkpt>
      <trkpt lat="43.85152" lon="1.13886">
        <ele>177.4</ele>
        <time>2024-07-11T08:59:54Z</time>
      </trkpt>
      <trkpt lat="43.85157" lon="1.1389">
        <ele>177.4</ele>
        <time>2024-07-11T08:59:55Z</time>
      </trkpt>
      <trkpt lat="43.85165" lon="1.13893">
        <ele>177.2</ele>
        <time>2024-07-11T08:59:56Z</time>
      </trkpt>
      <trkpt lat="43.85173" lon="1.13895">
        <ele>176.8</ele>
        <time>2024-07-11T08:59:57Z</time>
      </trkpt>
      <trkpt lat="43.85181" lon="1.13897">
        <ele>176.8</ele>
        <time>2024-07-11T08:59:58Z</time>
      </trkpt>
      <trkpt lat="43.8519" lon="1.13899">
        <ele>176.4</ele>
        <time>2024-07-11T08:59:59Z</time>
      </trkpt>
      <trkpt lat="43.85197" lon="1.13901">
        <ele>176.2</ele>
        <time>2024-07-11T09:00:00Z</time>
      </trkpt>
      <trkpt lat="43.85207" lon="1.13904">
        <ele>176</ele>
        <time>2024-07-11T09:00:01Z</time>
      </trkpt>
      <trkpt lat="43.85216" lon="1.13906">
        <ele>175.6</ele>
        <time>2024-07-11T09:00:02Z</time>
      </trkpt>
      <trkpt lat="43.85225" lon="1.13909">
        <ele>175.2</ele>
        <time>2024-07-11T09:00:03Z</time>
      </trkpt>
      <trkpt lat="43.85233" lon="1.13911">
        <ele>174.4</ele>
        <time>2024-07-11T09:00:04Z</time>
      </trkpt>
      <trkpt lat="43.85243" lon="1.13913">
        <ele>174.2</ele>
        <time>2024-07-11T09:00:05Z</time>
      </trkpt>
      <trkpt lat="43.85255" lon="1.13916">
        <ele>173.4</ele>
        <time>2024-07-11T09:00:06Z</time>
      </trkpt>
      <trkpt lat="43.85266" lon="1.13918">
        <ele>173.4</ele>
        <time>2024-07-11T09:00:07Z</time>
      </trkpt>
      <trkpt lat="43.85274" lon="1.1392">
        <ele>172.8</ele>
        <time>2024-07-11T09:00:08Z</time>
      </trkpt>
      <trkpt lat="43.85284" lon="1.13923">
        <ele>172</ele>
        <time>2024-07-11T09:00:09Z</time>
      </trkpt>
      <trkpt lat="43.85297" lon="1.13926">
        <ele>171.4</ele>
        <time>2024-07-11T09:00:10Z</time>
      </trkpt>
      <trkpt lat="43.85308" lon="1.13929">
        <ele>171</ele>
        <time>2024-07-11T09:00:11Z</time>
      </trkpt>
      <trkpt lat="43.85319" lon="1.13933">
        <ele>170.4</ele>
        <time>2024-07-11T09:00:12Z</time>
      </trkpt>
      <trkpt lat="43.85328" lon="1.13936">
        <ele>168.6</ele>
        <time>2024-07-11T09:00:13Z</time>
      </trkpt>
      <trkpt lat="43.85339" lon="1.13939">
        <ele>168.2</ele>
        <time>2024-07-11T09:00:14Z</time>
      </trkpt>
      <trkpt lat="43.85354" lon="1.13942">
        <ele>167.2</ele>
        <time>2024-07-11T09:00:15Z</time>
      </trkpt>
      <trkpt lat="43.85366" lon="1.13946">
        <ele>166.6</ele>
        <time>2024-07-11T09:00:16Z</time>
      </trkpt>
      <trkpt lat="43.85378" lon="1.13948">
        <ele>166.2</ele>
        <time>2024-07-11T09:00:17Z</time>
      </trkpt>
      <trkpt lat="43.8539" lon="1.13951">
        <ele>165.4</ele>
        <time>2024-07-11T09:00:18Z</time>
      </trkpt>
      <trkpt lat="43.85403" lon="1.13954">
        <ele>164.8</ele>
        <time>2024-07-11T09:00:19Z</time>
      </trkpt>
      <trkpt lat="43.85415" lon="1.13957">
        <ele>163.4</ele>
        <time>2024-07-11T09:00:20Z</time>
      </trkpt>
      <trkpt lat="43.85428" lon="1.13959">
        <ele>162.6</ele>
        <time>2024-07-11T09:00:21Z</time>
      </trkpt>
      <trkpt lat="43.85441" lon="1.13962">
        <ele>162</ele>
        <time>2024-07-11T09:00:22Z</time>
      </trkpt>
      <trkpt lat="43.85451" lon="1.13965">
        <ele>161.2</ele>
        <time>2024-07-11T09:00:23Z</time>
      </trkpt>
      <trkpt lat="43.85463" lon="1.13968">
        <ele>160.8</ele>
        <time>2024-07-11T09:00:24Z</time>
      </trkpt>
      <trkpt lat="43.85478" lon="1.1397">
        <ele>159.6</ele>
        <time>2024-07-11T09:00:25Z</time>
      </trkpt>
      <trkpt lat="43.85491" lon="1.13973">
        <ele>159.2</ele>
        <time>2024-07-11T09:00:26Z</time>
      </trkpt>
      <trkpt lat="43.855" lon="1.13975">
        <ele>157.8</ele>
        <time>2024-07-11T09:00:27Z</time>
      </trkpt>
      <trkpt lat="43.85514" lon="1.13979">
        <ele>156.8</ele>
        <time>2024-07-11T09:00:28Z</time>
      </trkpt>
      <trkpt lat="43.85526" lon="1.13982">
        <ele>156.2</ele>
        <time>2024-07-11T09:00:29Z</time>
      </trkpt>
      <trkpt lat="43.85536" lon="1.13985">
        <ele>155.6</ele>
        <time>2024-07-11T09:00:30Z</time>
      </trkpt>
      <trkpt lat="43.85546" lon="1.13988">
        <ele>155.4</ele>
        <time>2024-07-11T09:00:31Z</time>
      </trkpt>
      <trkpt lat="43.85554" lon="1.1399">
        <ele>154.8</ele>
        <time>2024-07-11T09:00:32Z</time>
      </trkpt>
      <trkpt lat="43.85564" lon="1.13993">
        <ele>154.6</ele>
        <time>2024-07-11T09:00:33Z</time>
      </trkpt>
      <trkpt lat="43.85575" lon="1.13997">
        <ele>154.4</ele>
        <time>2024-07-11T09:00:34Z</time>
      </trkpt>
      <trkpt lat="43.85584" lon="1.14">
        <ele>154.4</ele>
        <time>2024-07-11T09:00:35Z</time>
      </trkpt>
      <trkpt lat="43.85593" lon="1.14002">
        <ele>154.4</ele>
        <time>2024-07-11T09:00:36Z</time>
      </trkpt>
      <trkpt lat="43.856" lon="1.14004">
        <ele>154.4</ele>
        <time>2024-07-11T09:00:37Z</time>
      </trkpt>
      <trkpt lat="43.8561" lon="1.14007">
        <ele>154.4</ele>
        <time>2024-07-11T09:00:38Z</time>
      </trkpt>
      <trkpt lat="43.85618" lon="1.14009">
        <ele>154.4</ele>
        <time>2024-07-11T09:00:39Z</time>
      </trkpt>
      <trkpt lat="43.85626" lon="1.14012">
        <ele>154.4</ele>
        <time>2024-07-11T09:00:40Z</time>
      </trkpt>
      <trkpt lat="43.85632" lon="1.14013">
        <ele>154.6</ele>
        <time>2024-07-11T09:00:41Z</time>
      </trkpt>
      <trkpt lat="43.85639" lon="1.14015">
        <ele>154.8</ele>
        <time>2024-07-11T09:00:42Z</time>
      </trkpt>
      <trkpt lat="43.85647" lon="1.14018">
        <ele>154.8</ele>
        <time>2024-07-11T09:00:43Z</time>
      </trkpt>
      <trkpt lat="43.85654" lon="1.1402">
        <ele>155</ele>
        <time>2024-07-11T09:00:44Z</time>
      </trkpt>
      <trkpt lat="43.85661" lon="1.14022">
        <ele>155.4</ele>
        <time>2024-07-11T09:00:45Z</time>
      </trkpt>
      <trkpt lat="43.85666" lon="1.14023">
        <ele>155.6</ele>
        <time>2024-07-11T09:00:46Z</time>
      </trkpt>
      <trkpt lat="43.85672" lon="1.14025">
        <ele>156.4</ele>
        <time>2024-07-11T09:00:47Z</time>
      </trkpt>
      <trkpt lat="43.8568" lon="1.14027">
        <ele>156.8</ele>
        <time>2024-07-11T09:00:48Z</time>
      </trkpt>
      <trkpt lat="43.85686" lon="1.14029">
        <ele>157.6</ele>
        <time>2024-07-11T09:00:49Z</time>
      </trkpt>
      <trkpt lat="43.85692" lon="1.1403">
        <ele>158</ele>
        <time>2024-07-11T09:00:50Z</time>
      </trkpt>
      <trkpt lat="43.85698" lon="1.14032">
        <ele>158.6</ele>
        <time>2024-07-11T09:00:51Z</time>
      </trkpt>
      <trkpt lat="43.85702" lon="1.14033">
        <ele>159.4</ele>
        <time>2024-07-11T09:00:52Z</time>
      </trkpt>
      <trkpt lat="43.85709" lon="1.14034">
        <ele>159.6</ele>
        <time>2024-07-11T09:00:53Z</time>
      </trkpt>
      <trkpt lat="43.85714" lon="1.14036">
        <ele>160</ele>
        <time>2024-07-11T09:00:54Z</time>
      </trkpt>
      <trkpt lat="43.85719" lon="1.14037">
        <ele>160.2</ele>
        <time>2024-07-11T09:00:55Z</time>
      </trkpt>
      <trkpt lat="43.85724" lon="1.1404">
        <ele>160.6</ele>
        <time>2024-07-11T09:00:56Z</time>
      </trkpt>
      <trkpt lat="43.85727" lon="1.14042">
        <ele>160.8</ele>
        <time>2024-07-11T09:00:57Z</time>
      </trkpt>
      <trkpt lat="43.8573" lon="1.14047">
        <ele>161</ele>
        <time>2024-07-11T09:00:58Z</time>
      </trkpt>
      <trkpt lat="43.85731" lon="1.14053">
        <ele>161.2</ele>
        <time>2024-07-11T09:00:59Z</time>
      </trkpt>
      <trkpt lat="43.8573" lon="1.14057">
        <ele>161.4</ele>
        <time>2024-07-11T09:01:00Z</time>
      </trkpt>
      <trkpt lat="43.85729" lon="1.14062">
        <ele>162</ele>
        <time>2024-07-11T09:01:01Z</time>
      </trkpt>
      <trkpt lat="43.85728" lon="1.14069">
        <ele>162.2</ele>
        <time>2024-07-11T09:01:02Z</time>
      </trkpt>
      <trkpt lat="43.85726" lon="1.14075">
        <ele>162.8</ele>
        <time>2024-07-11T09:01:03Z</time>
      </trkpt>
      <trkpt lat="43.85724" lon="1.14081">
        <ele>163</ele>
        <time>2024-07-11T09:01:04Z</time>
      </trkpt>
      <trkpt lat="43.85722" lon="1.14086">
        <ele>163.2</ele>
        <time>2024-07-11T09:01:05Z</time>
      </trkpt>
      <trkpt lat="43.8572" lon="1.14093">
        <ele>163.4</ele>
        <time>2024-07-11T09:01:06Z</time>
      </trkpt>
      <trkpt lat="43.85718" lon="1.14101">
        <ele>163.4</ele>
        <time>2024-07-11T09:01:07Z</time>
      </trkpt>
      <trkpt lat="43.85716" lon="1.14108">
        <ele>163.4</ele>
        <time>2024-07-11T09:01:08Z</time>
      </trkpt>
      <trkpt lat="43.85713" lon="1.14115">
        <ele>163.4</ele>
        <time>2024-07-11T09:01:09Z</time>
      </trkpt>
      <trkpt lat="43.85711" lon="1.1412">
        <ele>163.4</ele>
        <time>2024-07-11T09:01:10Z</time>
      </trkpt>
      <trkpt lat="43.85709" lon="1.14128">
        <ele>163.4</ele>
        <time>2024-07-11T09:01:11Z</time>
      </trkpt>
      <trkpt lat="43.85706" lon="1.14137">
        <ele>163.4</ele>
        <time>2024-07-11T09:01:12Z</time>
      </trkpt>
      <trkpt lat="43.85703" lon="1.14145">
        <ele>163.4</ele>
        <time>2024-07-11T09:01:13Z</time>
      </trkpt>
      <trkpt lat="43.857" lon="1.14151">
        <ele>163.4</ele>
        <time>2024-07-11T09:01:14Z</time>
      </trkpt>
      <trkpt lat="43.85697" lon="1.1416">
        <ele>163.4</ele>
        <time>2024-07-11T09:01:15Z</time>
      </trkpt>
      <trkpt lat="43.85694" lon="1.1417">
        <ele>163.2</ele>
        <time>2024-07-11T09:01:16Z</time>
      </trkpt>
      <trkpt lat="43.85691" lon="1.14178">
        <ele>163</ele>
        <time>2024-07-11T09:01:17Z</time>
      </trkpt>
      <trkpt lat="43.85687" lon="1.14187">
        <ele>162.8</ele>
        <time>2024-07-11T09:01:18Z</time>
      </trkpt>
      <trkpt lat="43.85685" lon="1.14194">
        <ele>162.6</ele>
        <time>2024-07-11T09:01:19Z</time>
      </trkpt>
      <trkpt lat="43.85682" lon="1.14203">
        <ele>162.4</ele>
        <time>2024-07-11T09:01:20Z</time>
      </trkpt>
      <trkpt lat="43.85678" lon="1.14214">
        <ele>162.4</ele>
        <time>2024-07-11T09:01:21Z</time>
      </trkpt>
      <trkpt lat="43.85674" lon="1.14224">
        <ele>162</ele>
        <time>2024-07-11T09:01:22Z</time>
      </trkpt>
      <trkpt lat="43.85671" lon="1.14233">
        <ele>161.8</ele>
        <time>2024-07-11T09:01:23Z</time>
      </trkpt>
      <trkpt lat="43.85669" lon="1.14241">
        <ele>161.6</ele>
        <time>2024-07-11T09:01:24Z</time>
      </trkpt>
      <trkpt lat="43.85666" lon="1.14251">
        <ele>161.4</ele>
        <time>2024-07-11T09:01:25Z</time>
      </trkpt>
      <trkpt lat="43.85662" lon="1.14264">
        <ele>161.2</ele>
        <time>2024-07-11T09:01:26Z</time>
      </trkpt>
      <trkpt lat="43.85659" lon="1.14275">
        <ele>160.8</ele>
        <time>2024-07-11T09:01:27Z</time>
      </trkpt>
      <trkpt lat="43.85657" lon="1.14284">
        <ele>160.6</ele>
        <time>2024-07-11T09:01:28Z</time>
      </trkpt>
      <trkpt lat="43.85654" lon="1.14295">
        <ele>160.4</ele>
        <time>2024-07-11T09:01:29Z</time>
      </trkpt>
      <trkpt lat="43.8565" lon="1.14308">
        <ele>160.2</ele>
        <time>2024-07-11T09:01:30Z</time>
      </trkpt>
      <trkpt lat="43.85648" lon="1.1432">
        <ele>160.2</ele>
        <time>2024-07-11T09:01:31Z</time>
      </trkpt>
      <trkpt lat="43.85645" lon="1.14331">
        <ele>159.8</ele>
        <time>2024-07-11T09:01:32Z</time>
      </trkpt>
      <trkpt lat="43.85642" lon="1.14342">
        <ele>159.8</ele>
        <time>2024-07-11T09:01:33Z</time>
      </trkpt>
      <trkpt lat="43.8564" lon="1.14352">
        <ele>159.2</ele>
        <time>2024-07-11T09:01:34Z</time>
      </trkpt>
      <trkpt lat="43.85636" lon="1.14366">
        <ele>158.6</ele>
        <time>2024-07-11T09:01:35Z</time>
      </trkpt>
      <trkpt lat="43.85634" lon="1.14378">
        <ele>158.4</ele>
        <time>2024-07-11T09:01:36Z</time>
      </trkpt>
      <trkpt lat="43.85631" lon="1.1439">
        <ele>158.2</ele>
        <time>2024-07-11T09:01:37Z</time>
      </trkpt>
      <trkpt lat="43.85628" lon="1.14399">
        <ele>158</ele>
        <time>2024-07-11T09:01:38Z</time>
      </trkpt>
      <trkpt lat="43.85625" lon="1.14412">
        <ele>157.8</ele>
        <time>2024-07-11T09:01:39Z</time>
      </trkpt>
      <trkpt lat="43.85622" lon="1.14426">
        <ele>157.6</ele>
        <time>2024-07-11T09:01:40Z</time>
      </trkpt>
      <trkpt lat="43.85619" lon="1.14438">
        <ele>157.2</ele>
        <time>2024-07-11T09:01:41Z</time>
      </trkpt>
      <trkpt lat="43.85616" lon="1.1445">
        <ele>157</ele>
        <time>2024-07-11T09:01:42Z</time>
      </trkpt>
      <trkpt lat="43.85613" lon="1.1446">
        <ele>157</ele>
        <time>2024-07-11T09:01:43Z</time>
      </trkpt>
      <trkpt lat="43.8561" lon="1.14472">
        <ele>156.8</ele>
        <time>2024-07-11T09:01:44Z</time>
      </trkpt>
      <trkpt lat="43.85607" lon="1.14487">
        <ele>156.6</ele>
        <time>2024-07-11T09:01:45Z</time>
      </trkpt>
      <trkpt lat="43.85604" lon="1.14499">
        <ele>156.2</ele>
        <time>2024-07-11T09:01:46Z</time>
      </trkpt>
      <trkpt lat="43.856" lon="1.14512">
        <ele>156</ele>
        <time>2024-07-11T09:01:47Z</time>
      </trkpt>
      <trkpt lat="43.85598" lon="1.14521">
        <ele>155.8</ele>
        <time>2024-07-11T09:01:48Z</time>
      </trkpt>
      <trkpt lat="43.85595" lon="1.14533">
        <ele>155.4</ele>
        <time>2024-07-11T09:01:49Z</time>
      </trkpt>
      <trkpt lat="43.85591" lon="1.14548">
        <ele>155.2</ele>
        <time>2024-07-11T09:01:50Z</time>
      </trkpt>
      <trkpt lat="43.85588" lon="1.14561">
        <ele>155</ele>
        <time>2024-07-11T09:01:51Z</time>
      </trkpt>
      <trkpt lat="43.85586" lon="1.1457">
        <ele>154.8</ele>
        <time>2024-07-11T09:01:52Z</time>
      </trkpt>
      <trkpt lat="43.85583" lon="1.14583">
        <ele>154.6</ele>
        <time>2024-07-11T09:01:53Z</time>
      </trkpt>
      <trkpt lat="43.8558" lon="1.14595">
        <ele>154.6</ele>
        <time>2024-07-11T09:01:54Z</time>
      </trkpt>
      <trkpt lat="43.85576" lon="1.1461">
        <ele>154.6</ele>
        <time>2024-07-11T09:01:55Z</time>
      </trkpt>
      <trkpt lat="43.85573" lon="1.14623">
        <ele>154.4</ele>
        <time>2024-07-11T09:01:56Z</time>
      </trkpt>
      <trkpt lat="43.8557" lon="1.14633">
        <ele>154.2</ele>
        <time>2024-07-11T09:01:57Z</time>
      </trkpt>
      <trkpt lat="43.85567" lon="1.14645">
        <ele>154</ele>
        <time>2024-07-11T09:01:58Z</time>
      </trkpt>
      <trkpt lat="43.85564" lon="1.1466">
        <ele>154</ele>
        <time>2024-07-11T09:01:59Z</time>
      </trkpt>
      <trkpt lat="43.85561" lon="1.14672">
        <ele>154</ele>
        <time>2024-07-11T09:02:00Z</time>
      </trkpt>
      <trkpt lat="43.85558" lon="1.14684">
        <ele>153.8</ele>
        <time>2024-07-11T09:02:01Z</time>
      </trkpt>
      <trkpt lat="43.85556" lon="1.14694">
        <ele>153.8</ele>
        <time>2024-07-11T09:02:02Z</time>
      </trkpt>
      <trkpt lat="43.85553" lon="1.14706">
        <ele>153.4</ele>
        <time>2024-07-11T09:02:03Z</time>
      </trkpt>
      <trkpt lat="43.85549" lon="1.1472">
        <ele>153.2</ele>
        <time>2024-07-11T09:02:04Z</time>
      </trkpt>
      <trkpt lat="43.85547" lon="1.1473">
        <ele>153</ele>
        <time>2024-07-11T09:02:05Z</time>
      </trkpt>
      <trkpt lat="43.85543" lon="1.14745">
        <ele>152.6</ele>
        <time>2024-07-11T09:02:06Z</time>
      </trkpt>
      <trkpt lat="43.85541" lon="1.14755">
        <ele>152.6</ele>
        <time>2024-07-11T09:02:07Z</time>
      </trkpt>
      <trkpt lat="43.85538" lon="1.14767">
        <ele>152.4</ele>
        <time>2024-07-11T09:02:08Z</time>
      </trkpt>
      <trkpt lat="43.85535" lon="1.1478">
        <ele>152.4</ele>
        <time>2024-07-11T09:02:09Z</time>
      </trkpt>
      <trkpt lat="43.85531" lon="1.14795">
        <ele>152.4</ele>
        <time>2024-07-11T09:02:10Z</time>
      </trkpt>
      <trkpt lat="43.85528" lon="1.14807">
        <ele>152.2</ele>
        <time>2024-07-11T09:02:11Z</time>
      </trkpt>
      <trkpt lat="43.85526" lon="1.14817">
        <ele>152.2</ele>
        <time>2024-07-11T09:02:12Z</time>
      </trkpt>
      <trkpt lat="43.85522" lon="1.14829">
        <ele>152.2</ele>
        <time>2024-07-11T09:02:13Z</time>
      </trkpt>
      <trkpt lat="43.85519" lon="1.14844">
        <ele>152.2</ele>
        <time>2024-07-11T09:02:14Z</time>
      </trkpt>
      <trkpt lat="43.85515" lon="1.14857">
        <ele>152.2</ele>
        <time>2024-07-11T09:02:15Z</time>
      </trkpt>
      <trkpt lat="43.85513" lon="1.14867">
        <ele>152.2</ele>
        <time>2024-07-11T09:02:16Z</time>
      </trkpt>
      <trkpt lat="43.8551" lon="1.14879">
        <ele>152.2</ele>
        <time>2024-07-11T09:02:17Z</time>
      </trkpt>
      <trkpt lat="43.85506" lon="1.14894">
        <ele>152</ele>
        <time>2024-07-11T09:02:18Z</time>
      </trkpt>
      <trkpt lat="43.85503" lon="1.14906">
        <ele>152</ele>
        <time>2024-07-11T09:02:19Z</time>
      </trkpt>
      <trkpt lat="43.855" lon="1.14918">
        <ele>151.8</ele>
        <time>2024-07-11T09:02:20Z</time>
      </trkpt>
      <trkpt lat="43.85498" lon="1.14927">
        <ele>151.8</ele>
        <time>2024-07-11T09:02:21Z</time>
      </trkpt>
      <trkpt lat="43.85495" lon="1.14939">
        <ele>151.6</ele>
        <time>2024-07-11T09:02:22Z</time>
      </trkpt>
      <trkpt lat="43.85491" lon="1.14951">
        <ele>151.6</ele>
        <time>2024-07-11T09:02:23Z</time>
      </trkpt>
      <trkpt lat="43.85487" lon="1.14965">
        <ele>151.4</ele>
        <time>2024-07-11T09:02:24Z</time>
      </trkpt>
      <trkpt lat="43.85483" lon="1.14977">
        <ele>151.4</ele>
        <time>2024-07-11T09:02:25Z</time>
      </trkpt>
      <trkpt lat="43.85479" lon="1.14988">
        <ele>151.2</ele>
        <time>2024-07-11T09:02:26Z</time>
      </trkpt>
      <trkpt lat="43.85476" lon="1.14997">
        <ele>151.2</ele>
        <time>2024-07-11T09:02:27Z</time>
      </trkpt>
      <trkpt lat="43.85472" lon="1.15007">
        <ele>151</ele>
        <time>2024-07-11T09:02:28Z</time>
      </trkpt>
      <trkpt lat="43.85467" lon="1.1502">
        <ele>151</ele>
        <time>2024-07-11T09:02:29Z</time>
      </trkpt>
      <trkpt lat="43.85463" lon="1.15031">
        <ele>150.8</ele>
        <time>2024-07-11T09:02:30Z</time>
      </trkpt>
      <trkpt lat="43.85458" lon="1.15042">
        <ele>150.8</ele>
        <time>2024-07-11T09:02:31Z</time>
      </trkpt>
      <trkpt lat="43.85455" lon="1.15051">
        <ele>150.8</ele>
        <time>2024-07-11T09:02:32Z</time>
      </trkpt>
      <trkpt lat="43.85451" lon="1.15061">
        <ele>150.8</ele>
        <time>2024-07-11T09:02:33Z</time>
      </trkpt>
      <trkpt lat="43.85445" lon="1.15074">
        <ele>150.8</ele>
        <time>2024-07-11T09:02:34Z</time>
      </trkpt>
      <trkpt lat="43.85441" lon="1.15085">
        <ele>150.8</ele>
        <time>2024-07-11T09:02:35Z</time>
      </trkpt>
      <trkpt lat="43.85438" lon="1.15093">
        <ele>150.8</ele>
        <time>2024-07-11T09:02:36Z</time>
      </trkpt>
      <trkpt lat="43.85434" lon="1.15104">
        <ele>150.8</ele>
        <time>2024-07-11T09:02:37Z</time>
      </trkpt>
      <trkpt lat="43.85429" lon="1.15117">
        <ele>150.8</ele>
        <time>2024-07-11T09:02:38Z</time>
      </trkpt>
      <trkpt lat="43.85425" lon="1.15128">
        <ele>150.8</ele>
        <time>2024-07-11T09:02:39Z</time>
      </trkpt>
      <trkpt lat="43.85421" lon="1.15138">
        <ele>150.8</ele>
        <time>2024-07-11T09:02:40Z</time>
      </trkpt>
      <trkpt lat="43.85417" lon="1.15147">
        <ele>150.8</ele>
        <time>2024-07-11T09:02:41Z</time>
      </trkpt>
      <trkpt lat="43.85413" lon="1.15157">
        <ele>150.6</ele>
        <time>2024-07-11T09:02:42Z</time>
      </trkpt>
      <trkpt lat="43.85408" lon="1.1517">
        <ele>150.6</ele>
        <time>2024-07-11T09:02:43Z</time>
      </trkpt>
      <trkpt lat="43.85404" lon="1.1518">
        <ele>150.6</ele>
        <time>2024-07-11T09:02:44Z</time>
      </trkpt>
      <trkpt lat="43.854" lon="1.1519">
        <ele>150.6</ele>
        <time>2024-07-11T09:02:45Z</time>
      </trkpt>
      <trkpt lat="43.85397" lon="1.15199">
        <ele>150.6</ele>
        <time>2024-07-11T09:02:46Z</time>
      </trkpt>
      <trkpt lat="43.85393" lon="1.1521">
        <ele>150.6</ele>
        <time>2024-07-11T09:02:47Z</time>
      </trkpt>
      <trkpt lat="43.85389" lon="1.15222">
        <ele>150.6</ele>
        <time>2024-07-11T09:02:48Z</time>
      </trkpt>
      <trkpt lat="43.85385" lon="1.15233">
        <ele>150.6</ele>
        <time>2024-07-11T09:02:49Z</time>
      </trkpt>
      <trkpt lat="43.85382" lon="1.15244">
        <ele>150.6</ele>
        <time>2024-07-11T09:02:50Z</time>
      </trkpt>
      <trkpt lat="43.8538" lon="1.15253">
        <ele>150.8</ele>
        <time>2024-07-11T09:02:51Z</time>
      </trkpt>
      <trkpt lat="43.85377" lon="1.15265">
        <ele>150.8</ele>
        <time>2024-07-11T09:02:52Z</time>
      </trkpt>
      <trkpt lat="43.85374" lon="1.15278">
        <ele>150.8</ele>
        <time>2024-07-11T09:02:53Z</time>
      </trkpt>
      <trkpt lat="43.85372" lon="1.15289">
        <ele>150.8</ele>
        <time>2024-07-11T09:02:54Z</time>
      </trkpt>
      <trkpt lat="43.8537" lon="1.15299">
        <ele>150.8</ele>
        <time>2024-07-11T09:02:55Z</time>
      </trkpt>
      <trkpt lat="43.85367" lon="1.1531">
        <ele>150.8</ele>
        <time>2024-07-11T09:02:56Z</time>
      </trkpt>
      <trkpt lat="43.85365" lon="1.15324">
        <ele>151</ele>
        <time>2024-07-11T09:02:57Z</time>
      </trkpt>
      <trkpt lat="43.85362" lon="1.15336">
        <ele>151</ele>
        <time>2024-07-11T09:02:58Z</time>
      </trkpt>
      <trkpt lat="43.85361" lon="1.15345">
        <ele>151</ele>
        <time>2024-07-11T09:02:59Z</time>
      </trkpt>
      <trkpt lat="43.85358" lon="1.15357">
        <ele>151.2</ele>
        <time>2024-07-11T09:03:00Z</time>
      </trkpt>
      <trkpt lat="43.85356" lon="1.15368">
        <ele>151.2</ele>
        <time>2024-07-11T09:03:01Z</time>
      </trkpt>
      <trkpt lat="43.85353" lon="1.15383">
        <ele>151.2</ele>
        <time>2024-07-11T09:03:02Z</time>
      </trkpt>
      <trkpt lat="43.85351" lon="1.15395">
        <ele>151.2</ele>
        <time>2024-07-11T09:03:03Z</time>
      </trkpt>
      <trkpt lat="43.85348" lon="1.15407">
        <ele>151.2</ele>
        <time>2024-07-11T09:03:04Z</time>
      </trkpt>
      <trkpt lat="43.85346" lon="1.15417">
        <ele>151.2</ele>
        <time>2024-07-11T09:03:05Z</time>
      </trkpt>
      <trkpt lat="43.85343" lon="1.15432">
        <ele>151.2</ele>
        <time>2024-07-11T09:03:06Z</time>
      </trkpt>
      <trkpt lat="43.85341" lon="1.15445">
        <ele>151.2</ele>
        <time>2024-07-11T09:03:07Z</time>
      </trkpt>
      <trkpt lat="43.85339" lon="1.15457">
        <ele>151</ele>
        <time>2024-07-11T09:03:08Z</time>
      </trkpt>
      <trkpt lat="43.85336" lon="1.15469">
        <ele>150.8</ele>
        <time>2024-07-11T09:03:09Z</time>
      </trkpt>
      <trkpt lat="43.85335" lon="1.15479">
        <ele>150.8</ele>
        <time>2024-07-11T09:03:10Z</time>
      </trkpt>
      <trkpt lat="43.85333" lon="1.15492">
        <ele>150.8</ele>
        <time>2024-07-11T09:03:11Z</time>
      </trkpt>
      <trkpt lat="43.8533" lon="1.15506">
        <ele>150.6</ele>
        <time>2024-07-11T09:03:12Z</time>
      </trkpt>
      <trkpt lat="43.85328" lon="1.15519">
        <ele>150.6</ele>
        <time>2024-07-11T09:03:13Z</time>
      </trkpt>
      <trkpt lat="43.85327" lon="1.15529">
        <ele>150.8</ele>
        <time>2024-07-11T09:03:14Z</time>
      </trkpt>
      <trkpt lat="43.85325" lon="1.15541">
        <ele>150.6</ele>
        <time>2024-07-11T09:03:15Z</time>
      </trkpt>
      <trkpt lat="43.85325" lon="1.15541">
        <ele>150.4</ele>
        <time>2024-07-11T09:03:16Z</time>
      </trkpt>
      <trkpt lat="43.85321" lon="1.15569">
        <ele>150.4</ele>
        <time>2024-07-11T09:03:17Z</time>
      </trkpt>
      <trkpt lat="43.85319" lon="1.15582">
        <ele>150.2</ele>
        <time>2024-07-11T09:03:18Z</time>
      </trkpt>
      <trkpt lat="43.85317" lon="1.15592">
        <ele>150.4</ele>
        <time>2024-07-11T09:03:19Z</time>
      </trkpt>
      <trkpt lat="43.85315" lon="1.15605">
        <ele>150.4</ele>
        <time>2024-07-11T09:03:20Z</time>
      </trkpt>
      <trkpt lat="43.85313" lon="1.15621">
        <ele>150.2</ele>
        <time>2024-07-11T09:03:21Z</time>
      </trkpt>
      <trkpt lat="43.85312" lon="1.15633">
        <ele>150.2</ele>
        <time>2024-07-11T09:03:22Z</time>
      </trkpt>
      <trkpt lat="43.8531" lon="1.15646">
        <ele>150.2</ele>
        <time>2024-07-11T09:03:23Z</time>
      </trkpt>
      <trkpt lat="43.8531" lon="1.15656">
        <ele>150.2</ele>
        <time>2024-07-11T09:03:24Z</time>
      </trkpt>
      <trkpt lat="43.85309" lon="1.15669">
        <ele>150</ele>
        <time>2024-07-11T09:03:25Z</time>
      </trkpt>
      <trkpt lat="43.85308" lon="1.15684">
        <ele>150</ele>
        <time>2024-07-11T09:03:26Z</time>
      </trkpt>
      <trkpt lat="43.85309" lon="1.15697">
        <ele>150</ele>
        <time>2024-07-11T09:03:27Z</time>
      </trkpt>
      <trkpt lat="43.85309" lon="1.1571">
        <ele>150.2</ele>
        <time>2024-07-11T09:03:28Z</time>
      </trkpt>
      <trkpt lat="43.8531" lon="1.15721">
        <ele>150.2</ele>
        <time>2024-07-11T09:03:29Z</time>
      </trkpt>
      <trkpt lat="43.85311" lon="1.15734">
        <ele>150.2</ele>
        <time>2024-07-11T09:03:30Z</time>
      </trkpt>
      <trkpt lat="43.85311" lon="1.15749">
        <ele>150.4</ele>
        <time>2024-07-11T09:03:31Z</time>
      </trkpt>
      <trkpt lat="43.85312" lon="1.15761">
        <ele>150.4</ele>
        <time>2024-07-11T09:03:32Z</time>
      </trkpt>
      <trkpt lat="43.85313" lon="1.15774">
        <ele>150.4</ele>
        <time>2024-07-11T09:03:33Z</time>
      </trkpt>
      <trkpt lat="43.85313" lon="1.15785">
        <ele>150.4</ele>
        <time>2024-07-11T09:03:34Z</time>
      </trkpt>
      <trkpt lat="43.85314" lon="1.15798">
        <ele>150.6</ele>
        <time>2024-07-11T09:03:35Z</time>
      </trkpt>
      <trkpt lat="43.85315" lon="1.15814">
        <ele>150.6</ele>
        <time>2024-07-11T09:03:36Z</time>
      </trkpt>
      <trkpt lat="43.85316" lon="1.15827">
        <ele>150.6</ele>
        <time>2024-07-11T09:03:37Z</time>
      </trkpt>
      <trkpt lat="43.85317" lon="1.15837">
        <ele>150.4</ele>
        <time>2024-07-11T09:03:38Z</time>
      </trkpt>
      <trkpt lat="43.85317" lon="1.1585">
        <ele>150.4</ele>
        <time>2024-07-11T09:03:39Z</time>
      </trkpt>
      <trkpt lat="43.85318" lon="1.15865">
        <ele>150.4</ele>
        <time>2024-07-11T09:03:40Z</time>
      </trkpt>
      <trkpt lat="43.85318" lon="1.15878">
        <ele>150.4</ele>
        <time>2024-07-11T09:03:41Z</time>
      </trkpt>
      <trkpt lat="43.85319" lon="1.15891">
        <ele>150.2</ele>
        <time>2024-07-11T09:03:42Z</time>
      </trkpt>
      <trkpt lat="43.8532" lon="1.15901">
        <ele>150.2</ele>
        <time>2024-07-11T09:03:43Z</time>
      </trkpt>
      <trkpt lat="43.8532" lon="1.15913">
        <ele>150.2</ele>
        <time>2024-07-11T09:03:44Z</time>
      </trkpt>
      <trkpt lat="43.85321" lon="1.15928">
        <ele>150.2</ele>
        <time>2024-07-11T09:03:45Z</time>
      </trkpt>
      <trkpt lat="43.85321" lon="1.15941">
        <ele>150.2</ele>
        <time>2024-07-11T09:03:46Z</time>
      </trkpt>
      <trkpt lat="43.8532" lon="1.15954">
        <ele>150.2</ele>
        <time>2024-07-11T09:03:47Z</time>
      </trkpt>
      <trkpt lat="43.8532" lon="1.15966">
        <ele>150.2</ele>
        <time>2024-07-11T09:03:48Z</time>
      </trkpt>
      <trkpt lat="43.85319" lon="1.15976">
        <ele>150</ele>
        <time>2024-07-11T09:03:49Z</time>
      </trkpt>
      <trkpt lat="43.85319" lon="1.15992">
        <ele>150</ele>
        <time>2024-07-11T09:03:50Z</time>
      </trkpt>
      <trkpt lat="43.85319" lon="1.16005">
        <ele>150</ele>
        <time>2024-07-11T09:03:51Z</time>
      </trkpt>
      <trkpt lat="43.85319" lon="1.16018">
        <ele>150.2</ele>
        <time>2024-07-11T09:03:52Z</time>
      </trkpt>
      <trkpt lat="43.85318" lon="1.16029">
        <ele>150.2</ele>
        <time>2024-07-11T09:03:53Z</time>
      </trkpt>
      <trkpt lat="43.85318" lon="1.16045">
        <ele>150.2</ele>
        <time>2024-07-11T09:03:54Z</time>
      </trkpt>
      <trkpt lat="43.85318" lon="1.16058">
        <ele>150</ele>
        <time>2024-07-11T09:03:55Z</time>
      </trkpt>
      <trkpt lat="43.85318" lon="1.16072">
        <ele>150</ele>
        <time>2024-07-11T09:03:56Z</time>
      </trkpt>
      <trkpt lat="43.85318" lon="1.16083">
        <ele>150</ele>
        <time>2024-07-11T09:03:57Z</time>
      </trkpt>
      <trkpt lat="43.85318" lon="1.16097">
        <ele>149.6</ele>
        <time>2024-07-11T09:03:58Z</time>
      </trkpt>
      <trkpt lat="43.85318" lon="1.16112">
        <ele>149.6</ele>
        <time>2024-07-11T09:03:59Z</time>
      </trkpt>
      <trkpt lat="43.85318" lon="1.16126">
        <ele>149.4</ele>
        <time>2024-07-11T09:04:00Z</time>
      </trkpt>
      <trkpt lat="43.85317" lon="1.16139">
        <ele>149.2</ele>
        <time>2024-07-11T09:04:01Z</time>
      </trkpt>
      <trkpt lat="43.85317" lon="1.16149">
        <ele>149</ele>
        <time>2024-07-11T09:04:02Z</time>
      </trkpt>
      <trkpt lat="43.85318" lon="1.16163">
        <ele>149</ele>
        <time>2024-07-11T09:04:03Z</time>
      </trkpt>
      <trkpt lat="43.85317" lon="1.16178">
        <ele>148.8</ele>
        <time>2024-07-11T09:04:04Z</time>
      </trkpt>
      <trkpt lat="43.85317" lon="1.16191">
        <ele>148.6</ele>
        <time>2024-07-11T09:04:05Z</time>
      </trkpt>
      <trkpt lat="43.85317" lon="1.16204">
        <ele>148.4</ele>
        <time>2024-07-11T09:04:06Z</time>
      </trkpt>
      <trkpt lat="43.85317" lon="1.16214">
        <ele>148.4</ele>
        <time>2024-07-11T09:04:07Z</time>
      </trkpt>
      <trkpt lat="43.85316" lon="1.16227">
        <ele>148.2</ele>
        <time>2024-07-11T09:04:08Z</time>
      </trkpt>
      <trkpt lat="43.85316" lon="1.16242">
        <ele>148.2</ele>
        <time>2024-07-11T09:04:09Z</time>
      </trkpt>
      <trkpt lat="43.85316" lon="1.16254">
        <ele>148.2</ele>
        <time>2024-07-11T09:04:10Z</time>
      </trkpt>
      <trkpt lat="43.85316" lon="1.16266">
        <ele>148.2</ele>
        <time>2024-07-11T09:04:11Z</time>
      </trkpt>
      <trkpt lat="43.85316" lon="1.16275">
        <ele>148.2</ele>
        <time>2024-07-11T09:04:12Z</time>
      </trkpt>
      <trkpt lat="43.85315" lon="1.16286">
        <ele>148</ele>
        <time>2024-07-11T09:04:13Z</time>
      </trkpt>
      <trkpt lat="43.85315" lon="1.16299">
        <ele>148</ele>
        <time>2024-07-11T09:04:14Z</time>
      </trkpt>
      <trkpt lat="43.85315" lon="1.1631">
        <ele>148</ele>
        <time>2024-07-11T09:04:15Z</time>
      </trkpt>
      <trkpt lat="43.85315" lon="1.1632">
        <ele>148</ele>
        <time>2024-07-11T09:04:16Z</time>
      </trkpt>
      <trkpt lat="43.85315" lon="1.16329">
        <ele>148</ele>
        <time>2024-07-11T09:04:17Z</time>
      </trkpt>
      <trkpt lat="43.85315" lon="1.1634">
        <ele>147.8</ele>
        <time>2024-07-11T09:04:18Z</time>
      </trkpt>
      <trkpt lat="43.85314" lon="1.1635">
        <ele>147.6</ele>
        <time>2024-07-11T09:04:19Z</time>
      </trkpt>
      <trkpt lat="43.85314" lon="1.16359">
        <ele>147.4</ele>
        <time>2024-07-11T09:04:20Z</time>
      </trkpt>
      <trkpt lat="43.85314" lon="1.16366">
        <ele>147.4</ele>
        <time>2024-07-11T09:04:21Z</time>
      </trkpt>
      <trkpt lat="43.85314" lon="1.16375">
        <ele>147.2</ele>
        <time>2024-07-11T09:04:22Z</time>
      </trkpt>
      <trkpt lat="43.85312" lon="1.16385">
        <ele>147.2</ele>
        <time>2024-07-11T09:04:23Z</time>
      </trkpt>
      <trkpt lat="43.85309" lon="1.16391">
        <ele>147.2</ele>
        <time>2024-07-11T09:04:24Z</time>
      </trkpt>
      <trkpt lat="43.85304" lon="1.16395">
        <ele>147</ele>
        <time>2024-07-11T09:04:25Z</time>
      </trkpt>
      <trkpt lat="43.85299" lon="1.16396">
        <ele>147</ele>
        <time>2024-07-11T09:04:26Z</time>
      </trkpt>
      <trkpt lat="43.85292" lon="1.16397">
        <ele>146.8</ele>
        <time>2024-07-11T09:04:27Z</time>
      </trkpt>
      <trkpt lat="43.85283" lon="1.16397">
        <ele>146.8</ele>
        <time>2024-07-11T09:04:28Z</time>
      </trkpt>
      <trkpt lat="43.85275" lon="1.16397">
        <ele>146.8</ele>
        <time>2024-07-11T09:04:29Z</time>
      </trkpt>
      <trkpt lat="43.85266" lon="1.16398">
        <ele>146.6</ele>
        <time>2024-07-11T09:04:30Z</time>
      </trkpt>
      <trkpt lat="43.8526" lon="1.16398">
        <ele>146.6</ele>
        <time>2024-07-11T09:04:31Z</time>
      </trkpt>
      <trkpt lat="43.85251" lon="1.16399">
        <ele>146.2</ele>
        <time>2024-07-11T09:04:32Z</time>
      </trkpt>
      <trkpt lat="43.8524" lon="1.16399">
        <ele>145.8</ele>
        <time>2024-07-11T09:04:33Z</time>
      </trkpt>
      <trkpt lat="43.85231" lon="1.16399">
        <ele>145.2</ele>
        <time>2024-07-11T09:04:34Z</time>
      </trkpt>
      <trkpt lat="43.85224" lon="1.16399">
        <ele>144.8</ele>
        <time>2024-07-11T09:04:35Z</time>
      </trkpt>
      <trkpt lat="43.85212" lon="1.164">
        <ele>144.6</ele>
        <time>2024-07-11T09:04:36Z</time>
      </trkpt>
      <trkpt lat="43.85205" lon="1.164">
        <ele>144.2</ele>
        <time>2024-07-11T09:04:37Z</time>
      </trkpt>
      <trkpt lat="43.85194" lon="1.16401">
        <ele>143.8</ele>
        <time>2024-07-11T09:04:38Z</time>
      </trkpt>
      <trkpt lat="43.85186" lon="1.16401">
        <ele>143.6</ele>
        <time>2024-07-11T09:04:39Z</time>
      </trkpt>
      <trkpt lat="43.85179" lon="1.16401">
        <ele>143.2</ele>
        <time>2024-07-11T09:04:40Z</time>
      </trkpt>
      <trkpt lat="43.8517" lon="1.16402">
        <ele>143</ele>
        <time>2024-07-11T09:04:41Z</time>
      </trkpt>
      <trkpt lat="43.85159" lon="1.16402">
        <ele>142.6</ele>
        <time>2024-07-11T09:04:42Z</time>
      </trkpt>
      <trkpt lat="43.85151" lon="1.16402">
        <ele>142.4</ele>
        <time>2024-07-11T09:04:43Z</time>
      </trkpt>
      <trkpt lat="43.85142" lon="1.16402">
        <ele>142</ele>
        <time>2024-07-11T09:04:44Z</time>
      </trkpt>
      <trkpt lat="43.85135" lon="1.16402">
        <ele>142</ele>
        <time>2024-07-11T09:04:45Z</time>
      </trkpt>
      <trkpt lat="43.85126" lon="1.16402">
        <ele>141.8</ele>
        <time>2024-07-11T09:04:46Z</time>
      </trkpt>
      <trkpt lat="43.85116" lon="1.16401">
        <ele>141.8</ele>
        <time>2024-07-11T09:04:47Z</time>
      </trkpt>
      <trkpt lat="43.85108" lon="1.16402">
        <ele>141.6</ele>
        <time>2024-07-11T09:04:48Z</time>
      </trkpt>
      <trkpt lat="43.85099" lon="1.16402">
        <ele>141.6</ele>
        <time>2024-07-11T09:04:49Z</time>
      </trkpt>
      <trkpt lat="43.85093" lon="1.16403">
        <ele>141.6</ele>
        <time>2024-07-11T09:04:50Z</time>
      </trkpt>
      <trkpt lat="43.85084" lon="1.16404">
        <ele>141.4</ele>
        <time>2024-07-11T09:04:51Z</time>
      </trkpt>
      <trkpt lat="43.85077" lon="1.16404">
        <ele>141.4</ele>
        <time>2024-07-11T09:04:52Z</time>
      </trkpt>
      <trkpt lat="43.8507" lon="1.16404">
        <ele>141.4</ele>
        <time>2024-07-11T09:04:53Z</time>
      </trkpt>
      <trkpt lat="43.85062" lon="1.16403">
        <ele>141.4</ele>
        <time>2024-07-11T09:04:54Z</time>
      </trkpt>
      <trkpt lat="43.85056" lon="1.16403">
        <ele>141.4</ele>
        <time>2024-07-11T09:04:55Z</time>
      </trkpt>
      <trkpt lat="43.85047" lon="1.164">
        <ele>141.8</ele>
        <time>2024-07-11T09:04:56Z</time>
      </trkpt>
      <trkpt lat="43.85038" lon="1.16396">
        <ele>142</ele>
        <time>2024-07-11T09:04:57Z</time>
      </trkpt>
      <trkpt lat="43.85031" lon="1.16392">
        <ele>142.2</ele>
        <time>2024-07-11T09:04:58Z</time>
      </trkpt>
      <trkpt lat="43.85024" lon="1.16388">
        <ele>142.4</ele>
        <time>2024-07-11T09:04:59Z</time>
      </trkpt>
      <trkpt lat="43.85015" lon="1.16382">
        <ele>142.4</ele>
        <time>2024-07-11T09:05:00Z</time>
      </trkpt>
      <trkpt lat="43.85007" lon="1.16377">
        <ele>142.4</ele>
        <time>2024-07-11T09:05:01Z</time>
      </trkpt>
      <trkpt lat="43.84999" lon="1.16372">
        <ele>142.4</ele>
        <time>2024-07-11T09:05:02Z</time>
      </trkpt>
      <trkpt lat="43.84992" lon="1.16367">
        <ele>142.6</ele>
        <time>2024-07-11T09:05:03Z</time>
      </trkpt>
      <trkpt lat="43.84985" lon="1.16362">
        <ele>142.6</ele>
        <time>2024-07-11T09:05:04Z</time>
      </trkpt>
      <trkpt lat="43.84979" lon="1.16358">
        <ele>142.6</ele>
        <time>2024-07-11T09:05:05Z</time>
      </trkpt>
      <trkpt lat="43.84971" lon="1.16353">
        <ele>142.4</ele>
        <time>2024-07-11T09:05:06Z</time>
      </trkpt>
      <trkpt lat="43.84964" lon="1.16348">
        <ele>142.4</ele>
        <time>2024-07-11T09:05:07Z</time>
      </trkpt>
      <trkpt lat="43.84958" lon="1.16345">
        <ele>142.4</ele>
        <time>2024-07-11T09:05:08Z</time>
      </trkpt>
      <trkpt lat="43.84951" lon="1.16341">
        <ele>142.4</ele>
        <time>2024-07-11T09:05:09Z</time>
      </trkpt>
      <trkpt lat="43.84944" lon="1.16338">
        <ele>142.4</ele>
        <time>2024-07-11T09:05:10Z</time>
      </trkpt>
      <trkpt lat="43.84938" lon="1.16339">
        <ele>142.6</ele>
        <time>2024-07-11T09:05:11Z</time>
      </trkpt>
      <trkpt lat="43.84933" lon="1.16344">
        <ele>142.6</ele>
        <time>2024-07-11T09:05:12Z</time>
      </trkpt>
      <trkpt lat="43.84929" lon="1.16352">
        <ele>142.6</ele>
        <time>2024-07-11T09:05:13Z</time>
      </trkpt>
      <trkpt lat="43.84926" lon="1.16359">
        <ele>142.8</ele>
        <time>2024-07-11T09:05:14Z</time>
      </trkpt>
      <trkpt lat="43.84922" lon="1.1637">
        <ele>142.8</ele>
        <time>2024-07-11T09:05:15Z</time>
      </trkpt>
      <trkpt lat="43.84919" lon="1.16379">
        <ele>143</ele>
        <time>2024-07-11T09:05:16Z</time>
      </trkpt>
      <trkpt lat="43.84915" lon="1.16389">
        <ele>143</ele>
        <time>2024-07-11T09:05:17Z</time>
      </trkpt>
      <trkpt lat="43.84912" lon="1.16397">
        <ele>143</ele>
        <time>2024-07-11T09:05:18Z</time>
      </trkpt>
      <trkpt lat="43.84909" lon="1.16407">
        <ele>142.8</ele>
        <time>2024-07-11T09:05:19Z</time>
      </trkpt>
      <trkpt lat="43.84904" lon="1.16419">
        <ele>142.8</ele>
        <time>2024-07-11T09:05:20Z</time>
      </trkpt>
      <trkpt lat="43.849" lon="1.16429">
        <ele>142.4</ele>
        <time>2024-07-11T09:05:21Z</time>
      </trkpt>
      <trkpt lat="43.84896" lon="1.16438">
        <ele>142</ele>
        <time>2024-07-11T09:05:22Z</time>
      </trkpt>
      <trkpt lat="43.84893" lon="1.16448">
        <ele>141.8</ele>
        <time>2024-07-11T09:05:23Z</time>
      </trkpt>
      <trkpt lat="43.8489" lon="1.16456">
        <ele>141.8</ele>
        <time>2024-07-11T09:05:24Z</time>
      </trkpt>
      <trkpt lat="43.84887" lon="1.16467">
        <ele>141.6</ele>
        <time>2024-07-11T09:05:25Z</time>
      </trkpt>
      <trkpt lat="43.84885" lon="1.16477">
        <ele>141.6</ele>
        <time>2024-07-11T09:05:26Z</time>
      </trkpt>
      <trkpt lat="43.84883" lon="1.16485">
        <ele>141.6</ele>
        <time>2024-07-11T09:05:27Z</time>
      </trkpt>
      <trkpt lat="43.84881" lon="1.16495">
        <ele>141.6</ele>
        <time>2024-07-11T09:05:28Z</time>
      </trkpt>
      <trkpt lat="43.84879" lon="1.16506">
        <ele>141.6</ele>
        <time>2024-07-11T09:05:29Z</time>
      </trkpt>
      <trkpt lat="43.84877" lon="1.16515">
        <ele>141.8</ele>
        <time>2024-07-11T09:05:30Z</time>
      </trkpt>
      <trkpt lat="43.84875" lon="1.16525">
        <ele>142</ele>
        <time>2024-07-11T09:05:31Z</time>
      </trkpt>
      <trkpt lat="43.84873" lon="1.16532">
        <ele>142.2</ele>
        <time>2024-07-11T09:05:32Z</time>
      </trkpt>
      <trkpt lat="43.84871" lon="1.16543">
        <ele>142.4</ele>
        <time>2024-07-11T09:05:33Z</time>
      </trkpt>
      <trkpt lat="43.84869" lon="1.16551">
        <ele>142.8</ele>
        <time>2024-07-11T09:05:34Z</time>
      </trkpt>
      <trkpt lat="43.84867" lon="1.1656">
        <ele>143.2</ele>
        <time>2024-07-11T09:05:35Z</time>
      </trkpt>
      <trkpt lat="43.84866" lon="1.16568">
        <ele>143.2</ele>
        <time>2024-07-11T09:05:36Z</time>
      </trkpt>
      <trkpt lat="43.84864" lon="1.16575">
        <ele>143.4</ele>
        <time>2024-07-11T09:05:37Z</time>
      </trkpt>
      <trkpt lat="43.84862" lon="1.16585">
        <ele>143.6</ele>
        <time>2024-07-11T09:05:38Z</time>
      </trkpt>
      <trkpt lat="43.8486" lon="1.16593">
        <ele>143.8</ele>
        <time>2024-07-11T09:05:39Z</time>
      </trkpt>
      <trkpt lat="43.84858" lon="1.16601">
        <ele>143.8</ele>
        <time>2024-07-11T09:05:40Z</time>
      </trkpt>
      <trkpt lat="43.84857" lon="1.16607">
        <ele>144</ele>
        <time>2024-07-11T09:05:41Z</time>
      </trkpt>
      <trkpt lat="43.84855" lon="1.16615">
        <ele>144</ele>
        <time>2024-07-11T09:05:42Z</time>
      </trkpt>
      <trkpt lat="43.84854" lon="1.16624">
        <ele>144.2</ele>
        <time>2024-07-11T09:05:43Z</time>
      </trkpt>
      <trkpt lat="43.84853" lon="1.16632">
        <ele>144.8</ele>
        <time>2024-07-11T09:05:44Z</time>
      </trkpt>
      <trkpt lat="43.84851" lon="1.16639">
        <ele>145</ele>
        <time>2024-07-11T09:05:45Z</time>
      </trkpt>
      <trkpt lat="43.8485" lon="1.16645">
        <ele>145.4</ele>
        <time>2024-07-11T09:05:46Z</time>
      </trkpt>
      <trkpt lat="43.84848" lon="1.1665">
        <ele>146.2</ele>
        <time>2024-07-11T09:05:47Z</time>
      </trkpt>
      <trkpt lat="43.84847" lon="1.16657">
        <ele>146.4</ele>
        <time>2024-07-11T09:05:48Z</time>
      </trkpt>
      <trkpt lat="43.84845" lon="1.16662">
        <ele>147</ele>
        <time>2024-07-11T09:05:49Z</time>
      </trkpt>
      <trkpt lat="43.84844" lon="1.16668">
        <ele>147.2</ele>
        <time>2024-07-11T09:05:50Z</time>
      </trkpt>
      <trkpt lat="43.84842" lon="1.16672">
        <ele>147.8</ele>
        <time>2024-07-11T09:05:51Z</time>
      </trkpt>
      <trkpt lat="43.84841" lon="1.16677">
        <ele>148.2</ele>
        <time>2024-07-11T09:05:52Z</time>
      </trkpt>
      <trkpt lat="43.84839" lon="1.16683">
        <ele>148.4</ele>
        <time>2024-07-11T09:05:53Z</time>
      </trkpt>
      <trkpt lat="43.84837" lon="1.16688">
        <ele>148.6</ele>
        <time>2024-07-11T09:05:54Z</time>
      </trkpt>
      <trkpt lat="43.84835" lon="1.16693">
        <ele>148.8</ele>
        <time>2024-07-11T09:05:55Z</time>
      </trkpt>
      <trkpt lat="43.84833" lon="1.16697">
        <ele>149.2</ele>
        <time>2024-07-11T09:05:56Z</time>
      </trkpt>
      <trkpt lat="43.84831" lon="1.16703">
        <ele>149.4</ele>
        <time>2024-07-11T09:05:57Z</time>
      </trkpt>
      <trkpt lat="43.84828" lon="1.16707">
        <ele>149.8</ele>
        <time>2024-07-11T09:05:58Z</time>
      </trkpt>
      <trkpt lat="43.84826" lon="1.16712">
        <ele>150.2</ele>
        <time>2024-07-11T09:05:59Z</time>
      </trkpt>
      <trkpt lat="43.84824" lon="1.16716">
        <ele>150.4</ele>
        <time>2024-07-11T09:06:00Z</time>
      </trkpt>
      <trkpt lat="43.84821" lon="1.16721">
        <ele>150.8</ele>
        <time>2024-07-11T09:06:01Z</time>
      </trkpt>
      <trkpt lat="43.84819" lon="1.16724">
        <ele>151</ele>
        <time>2024-07-11T09:06:02Z</time>
      </trkpt>
      <trkpt lat="43.84817" lon="1.1673">
        <ele>151.6</ele>
        <time>2024-07-11T09:06:03Z</time>
      </trkpt>
      <trkpt lat="43.84814" lon="1.16734">
        <ele>152.2</ele>
        <time>2024-07-11T09:06:04Z</time>
      </trkpt>
      <trkpt lat="43.84812" lon="1.16737">
        <ele>152.2</ele>
        <time>2024-07-11T09:06:05Z</time>
      </trkpt>
      <trkpt lat="43.84809" lon="1.16741">
        <ele>152.6</ele>
        <time>2024-07-11T09:06:06Z</time>
      </trkpt>
      <trkpt lat="43.84808" lon="1.16745">
        <ele>152.8</ele>
        <time>2024-07-11T09:06:07Z</time>
      </trkpt>
      <trkpt lat="43.84805" lon="1.16749">
        <ele>153.2</ele>
        <time>2024-07-11T09:06:08Z</time>
      </trkpt>
      <trkpt lat="43.84803" lon="1.16753">
        <ele>153.4</ele>
        <time>2024-07-11T09:06:09Z</time>
      </trkpt>
      <trkpt lat="43.84802" lon="1.16756">
        <ele>153.8</ele>
        <time>2024-07-11T09:06:10Z</time>
      </trkpt>
      <trkpt lat="43.848" lon="1.1676">
        <ele>154.2</ele>
        <time>2024-07-11T09:06:11Z</time>
      </trkpt>
      <trkpt lat="43.84797" lon="1.16765">
        <ele>154.4</ele>
        <time>2024-07-11T09:06:12Z</time>
      </trkpt>
      <trkpt lat="43.84795" lon="1.16768">
        <ele>154.8</ele>
        <time>2024-07-11T09:06:13Z</time>
      </trkpt>
      <trkpt lat="43.84793" lon="1.16772">
        <ele>155</ele>
        <time>2024-07-11T09:06:14Z</time>
      </trkpt>
      <trkpt lat="43.84791" lon="1.16775">
        <ele>155.4</ele>
        <time>2024-07-11T09:06:15Z</time>
      </trkpt>
      <trkpt lat="43.84789" lon="1.16779">
        <ele>155.8</ele>
        <time>2024-07-11T09:06:16Z</time>
      </trkpt>
      <trkpt lat="43.84787" lon="1.16784">
        <ele>156</ele>
        <time>2024-07-11T09:06:17Z</time>
      </trkpt>
      <trkpt lat="43.84784" lon="1.16787">
        <ele>156.4</ele>
        <time>2024-07-11T09:06:18Z</time>
      </trkpt>
      <trkpt lat="43.84782" lon="1.16791">
        <ele>156.6</ele>
        <time>2024-07-11T09:06:19Z</time>
      </trkpt>
      <trkpt lat="43.84781" lon="1.16793">
        <ele>156.8</ele>
        <time>2024-07-11T09:06:20Z</time>
      </trkpt>
      <trkpt lat="43.84779" lon="1.16796">
        <ele>157.2</ele>
        <time>2024-07-11T09:06:21Z</time>
      </trkpt>
      <trkpt lat="43.84776" lon="1.168">
        <ele>157.4</ele>
        <time>2024-07-11T09:06:22Z</time>
      </trkpt>
      <trkpt lat="43.84775" lon="1.16804">
        <ele>157.8</ele>
        <time>2024-07-11T09:06:23Z</time>
      </trkpt>
      <trkpt lat="43.84773" lon="1.16807">
        <ele>158.2</ele>
        <time>2024-07-11T09:06:24Z</time>
      </trkpt>
      <trkpt lat="43.84772" lon="1.16812">
        <ele>158.8</ele>
        <time>2024-07-11T09:06:25Z</time>
      </trkpt>
      <trkpt lat="43.84769" lon="1.16818">
        <ele>158.8</ele>
        <time>2024-07-11T09:06:26Z</time>
      </trkpt>
      <trkpt lat="43.84767" lon="1.16823">
        <ele>159.2</ele>
        <time>2024-07-11T09:06:27Z</time>
      </trkpt>
      <trkpt lat="43.84766" lon="1.16828">
        <ele>159.4</ele>
        <time>2024-07-11T09:06:28Z</time>
      </trkpt>
      <trkpt lat="43.84764" lon="1.16832">
        <ele>159.4</ele>
        <time>2024-07-11T09:06:29Z</time>
      </trkpt>
      <trkpt lat="43.84762" lon="1.16837">
        <ele>159.6</ele>
        <time>2024-07-11T09:06:30Z</time>
      </trkpt>
      <trkpt lat="43.8476" lon="1.16843">
        <ele>159.6</ele>
        <time>2024-07-11T09:06:31Z</time>
      </trkpt>
      <trkpt lat="43.84758" lon="1.16848">
        <ele>159.6</ele>
        <time>2024-07-11T09:06:32Z</time>
      </trkpt>
      <trkpt lat="43.84757" lon="1.16854">
        <ele>160</ele>
        <time>2024-07-11T09:06:33Z</time>
      </trkpt>
      <trkpt lat="43.84755" lon="1.16858">
        <ele>160</ele>
        <time>2024-07-11T09:06:34Z</time>
      </trkpt>
      <trkpt lat="43.84753" lon="1.16863">
        <ele>160.2</ele>
        <time>2024-07-11T09:06:35Z</time>
      </trkpt>
      <trkpt lat="43.8475" lon="1.16868">
        <ele>160.4</ele>
        <time>2024-07-11T09:06:36Z</time>
      </trkpt>
      <trkpt lat="43.84748" lon="1.16873">
        <ele>160.6</ele>
        <time>2024-07-11T09:06:37Z</time>
      </trkpt>
      <trkpt lat="43.84746" lon="1.16879">
        <ele>160.6</ele>
        <time>2024-07-11T09:06:38Z</time>
      </trkpt>
      <trkpt lat="43.84744" lon="1.16883">
        <ele>161</ele>
        <time>2024-07-11T09:06:39Z</time>
      </trkpt>
      <trkpt lat="43.84742" lon="1.16889">
        <ele>161.4</ele>
        <time>2024-07-11T09:06:40Z</time>
      </trkpt>
      <trkpt lat="43.8474" lon="1.16896">
        <ele>161.6</ele>
        <time>2024-07-11T09:06:41Z</time>
      </trkpt>
      <trkpt lat="43.84738" lon="1.16901">
        <ele>161.8</ele>
        <time>2024-07-11T09:06:42Z</time>
      </trkpt>
      <trkpt lat="43.84736" lon="1.16906">
        <ele>161.8</ele>
        <time>2024-07-11T09:06:43Z</time>
      </trkpt>
      <trkpt lat="43.84733" lon="1.16912">
        <ele>162</ele>
        <time>2024-07-11T09:06:44Z</time>
      </trkpt>
      <trkpt lat="43.84731" lon="1.16919">
        <ele>162.2</ele>
        <time>2024-07-11T09:06:45Z</time>
      </trkpt>
      <trkpt lat="43.84728" lon="1.16926">
        <ele>162.2</ele>
        <time>2024-07-11T09:06:46Z</time>
      </trkpt>
      <trkpt lat="43.84726" lon="1.16932">
        <ele>162.4</ele>
        <time>2024-07-11T09:06:47Z</time>
      </trkpt>
      <trkpt lat="43.84723" lon="1.16938">
        <ele>162.4</ele>
        <time>2024-07-11T09:06:48Z</time>
      </trkpt>
      <trkpt lat="43.84721" lon="1.16942">
        <ele>162.4</ele>
        <time>2024-07-11T09:06:49Z</time>
      </trkpt>
      <trkpt lat="43.84718" lon="1.1695">
        <ele>162.6</ele>
        <time>2024-07-11T09:06:50Z</time>
      </trkpt>
      <trkpt lat="43.84716" lon="1.16956">
        <ele>162.6</ele>
        <time>2024-07-11T09:06:51Z</time>
      </trkpt>
      <trkpt lat="43.84713" lon="1.16962">
        <ele>162.6</ele>
        <time>2024-07-11T09:06:52Z</time>
      </trkpt>
      <trkpt lat="43.84711" lon="1.16967">
        <ele>162.6</ele>
        <time>2024-07-11T09:06:53Z</time>
      </trkpt>
      <trkpt lat="43.84708" lon="1.16974">
        <ele>162.6</ele>
        <time>2024-07-11T09:06:54Z</time>
      </trkpt>
      <trkpt lat="43.84705" lon="1.16981">
        <ele>162.6</ele>
        <time>2024-07-11T09:06:55Z</time>
      </trkpt>
      <trkpt lat="43.84703" lon="1.16987">
        <ele>162.8</ele>
        <time>2024-07-11T09:06:56Z</time>
      </trkpt>
      <trkpt lat="43.847" lon="1.16993">
        <ele>162.8</ele>
        <time>2024-07-11T09:06:57Z</time>
      </trkpt>
      <trkpt lat="43.84697" lon="1.17">
        <ele>162.8</ele>
        <time>2024-07-11T09:06:58Z</time>
      </trkpt>
      <trkpt lat="43.84695" lon="1.17006">
        <ele>163.2</ele>
        <time>2024-07-11T09:06:59Z</time>
      </trkpt>
      <trkpt lat="43.84692" lon="1.17013">
        <ele>163.4</ele>
        <time>2024-07-11T09:07:00Z</time>
      </trkpt>
      <trkpt lat="43.84689" lon="1.17019">
        <ele>163.4</ele>
        <time>2024-07-11T09:07:01Z</time>
      </trkpt>
      <trkpt lat="43.84686" lon="1.17026">
        <ele>163.6</ele>
        <time>2024-07-11T09:07:02Z</time>
      </trkpt>
      <trkpt lat="43.84683" lon="1.17033">
        <ele>163.8</ele>
        <time>2024-07-11T09:07:03Z</time>
      </trkpt>
      <trkpt lat="43.8468" lon="1.1704">
        <ele>163.8</ele>
        <time>2024-07-11T09:07:04Z</time>
      </trkpt>
      <trkpt lat="43.84677" lon="1.17047">
        <ele>164</ele>
        <time>2024-07-11T09:07:05Z</time>
      </trkpt>
      <trkpt lat="43.84674" lon="1.17054">
        <ele>164</ele>
        <time>2024-07-11T09:07:06Z</time>
      </trkpt>
      <trkpt lat="43.84671" lon="1.17061">
        <ele>164</ele>
        <time>2024-07-11T09:07:07Z</time>
      </trkpt>
      <trkpt lat="43.84669" lon="1.17066">
        <ele>164</ele>
        <time>2024-07-11T09:07:08Z</time>
      </trkpt>
      <trkpt lat="43.84666" lon="1.17074">
        <ele>164</ele>
        <time>2024-07-11T09:07:09Z</time>
      </trkpt>
      <trkpt lat="43.84663" lon="1.17081">
        <ele>164</ele>
        <time>2024-07-11T09:07:10Z</time>
      </trkpt>
      <trkpt lat="43.8466" lon="1.17088">
        <ele>164.2</ele>
        <time>2024-07-11T09:07:11Z</time>
      </trkpt>
      <trkpt lat="43.84657" lon="1.17095">
        <ele>164.2</ele>
        <time>2024-07-11T09:07:12Z</time>
      </trkpt>
      <trkpt lat="43.84654" lon="1.17102">
        <ele>164.2</ele>
        <time>2024-07-11T09:07:13Z</time>
      </trkpt>
      <trkpt lat="43.84651" lon="1.17109">
        <ele>164.2</ele>
        <time>2024-07-11T09:07:14Z</time>
      </trkpt>
      <trkpt lat="43.84648" lon="1.17116">
        <ele>164.4</ele>
        <time>2024-07-11T09:07:15Z</time>
      </trkpt>
      <trkpt lat="43.84645" lon="1.17123">
        <ele>164.4</ele>
        <time>2024-07-11T09:07:16Z</time>
      </trkpt>
      <trkpt lat="43.84642" lon="1.1713">
        <ele>164.4</ele>
        <time>2024-07-11T09:07:17Z</time>
      </trkpt>
      <trkpt lat="43.84639" lon="1.17138">
        <ele>164.6</ele>
        <time>2024-07-11T09:07:18Z</time>
      </trkpt>
      <trkpt lat="43.84635" lon="1.17145">
        <ele>164.6</ele>
        <time>2024-07-11T09:07:19Z</time>
      </trkpt>
      <trkpt lat="43.84632" lon="1.17153">
        <ele>164.6</ele>
        <time>2024-07-11T09:07:20Z</time>
      </trkpt>
      <trkpt lat="43.84628" lon="1.1716">
        <ele>164.6</ele>
        <time>2024-07-11T09:07:21Z</time>
      </trkpt>
      <trkpt lat="43.84625" lon="1.17168">
        <ele>164.8</ele>
        <time>2024-07-11T09:07:22Z</time>
      </trkpt>
      <trkpt lat="43.84621" lon="1.17176">
        <ele>164.8</ele>
        <time>2024-07-11T09:07:23Z</time>
      </trkpt>
      <trkpt lat="43.84618" lon="1.17183">
        <ele>165</ele>
        <time>2024-07-11T09:07:24Z</time>
      </trkpt>
      <trkpt lat="43.84613" lon="1.17192">
        <ele>165</ele>
        <time>2024-07-11T09:07:25Z</time>
      </trkpt>
      <trkpt lat="43.8461" lon="1.17199">
        <ele>165</ele>
        <time>2024-07-11T09:07:26Z</time>
      </trkpt>
      <trkpt lat="43.84606" lon="1.17207">
        <ele>165.2</ele>
        <time>2024-07-11T09:07:27Z</time>
      </trkpt>
      <trkpt lat="43.84602" lon="1.17214">
        <ele>165.2</ele>
        <time>2024-07-11T09:07:28Z</time>
      </trkpt>
      <trkpt lat="43.84598" lon="1.17222">
        <ele>165</ele>
        <time>2024-07-11T09:07:29Z</time>
      </trkpt>
      <trkpt lat="43.84594" lon="1.1723">
        <ele>165</ele>
        <time>2024-07-11T09:07:30Z</time>
      </trkpt>
      <trkpt lat="43.8459" lon="1.17238">
        <ele>165</ele>
        <time>2024-07-11T09:07:31Z</time>
      </trkpt>
      <trkpt lat="43.84587" lon="1.17246">
        <ele>165</ele>
        <time>2024-07-11T09:07:32Z</time>
      </trkpt>
      <trkpt lat="43.84583" lon="1.17253">
        <ele>165</ele>
        <time>2024-07-11T09:07:33Z</time>
      </trkpt>
      <trkpt lat="43.84579" lon="1.17261">
        <ele>165</ele>
        <time>2024-07-11T09:07:34Z</time>
      </trkpt>
      <trkpt lat="43.84575" lon="1.17269">
        <ele>165.4</ele>
        <time>2024-07-11T09:07:35Z</time>
      </trkpt>
      <trkpt lat="43.84571" lon="1.17277">
        <ele>165.4</ele>
        <time>2024-07-11T09:07:36Z</time>
      </trkpt>
      <trkpt lat="43.84567" lon="1.17285">
        <ele>165.2</ele>
        <time>2024-07-11T09:07:37Z</time>
      </trkpt>
      <trkpt lat="43.84562" lon="1.17295">
        <ele>165.4</ele>
        <time>2024-07-11T09:07:38Z</time>
      </trkpt>
      <trkpt lat="43.84558" lon="1.17304">
        <ele>165.6</ele>
        <time>2024-07-11T09:07:39Z</time>
      </trkpt>
      <trkpt lat="43.84554" lon="1.17312">
        <ele>165.6</ele>
        <time>2024-07-11T09:07:40Z</time>
      </trkpt>
      <trkpt lat="43.8455" lon="1.1732">
        <ele>165.6</ele>
        <time>2024-07-11T09:07:41Z</time>
      </trkpt>
      <trkpt lat="43.84546" lon="1.17329">
        <ele>165.6</ele>
        <time>2024-07-11T09:07:42Z</time>
      </trkpt>
      <trkpt lat="43.84542" lon="1.17337">
        <ele>165.6</ele>
        <time>2024-07-11T09:07:43Z</time>
      </trkpt>
      <trkpt lat="43.84538" lon="1.17346">
        <ele>165.4</ele>
        <time>2024-07-11T09:07:44Z</time>
      </trkpt>
      <trkpt lat="43.84533" lon="1.17354">
        <ele>165.4</ele>
        <time>2024-07-11T09:07:45Z</time>
      </trkpt>
      <trkpt lat="43.84529" lon="1.17363">
        <ele>165.4</ele>
        <time>2024-07-11T09:07:46Z</time>
      </trkpt>
      <trkpt lat="43.84525" lon="1.17371">
        <ele>165.4</ele>
        <time>2024-07-11T09:07:47Z</time>
      </trkpt>
      <trkpt lat="43.84521" lon="1.1738">
        <ele>165.4</ele>
        <time>2024-07-11T09:07:48Z</time>
      </trkpt>
      <trkpt lat="43.84517" lon="1.17388">
        <ele>165.4</ele>
        <time>2024-07-11T09:07:49Z</time>
      </trkpt>
      <trkpt lat="43.84512" lon="1.17396">
        <ele>165.4</ele>
        <time>2024-07-11T09:07:50Z</time>
      </trkpt>
      <trkpt lat="43.84508" lon="1.17404">
        <ele>165.4</ele>
        <time>2024-07-11T09:07:51Z</time>
      </trkpt>
      <trkpt lat="43.84503" lon="1.17411">
        <ele>165.6</ele>
        <time>2024-07-11T09:07:52Z</time>
      </trkpt>
      <trkpt lat="43.84498" lon="1.17419">
        <ele>165.6</ele>
        <time>2024-07-11T09:07:53Z</time>
      </trkpt>
      <trkpt lat="43.84493" lon="1.17427">
        <ele>165.6</ele>
        <time>2024-07-11T09:07:54Z</time>
      </trkpt>
      <trkpt lat="43.84489" lon="1.17433">
        <ele>165.8</ele>
        <time>2024-07-11T09:07:55Z</time>
      </trkpt>
      <trkpt lat="43.84484" lon="1.17441">
        <ele>165.8</ele>
        <time>2024-07-11T09:07:56Z</time>
      </trkpt>
      <trkpt lat="43.84479" lon="1.17449">
        <ele>165.8</ele>
        <time>2024-07-11T09:07:57Z</time>
      </trkpt>
      <trkpt lat="43.84473" lon="1.17459">
        <ele>165.8</ele>
        <time>2024-07-11T09:07:58Z</time>
      </trkpt>
      <trkpt lat="43.84469" lon="1.17467">
        <ele>166</ele>
        <time>2024-07-11T09:07:59Z</time>
      </trkpt>
      <trkpt lat="43.84465" lon="1.17474">
        <ele>166</ele>
        <time>2024-07-11T09:08:00Z</time>
      </trkpt>
      <trkpt lat="43.8446" lon="1.17482">
        <ele>166</ele>
        <time>2024-07-11T09:08:01Z</time>
      </trkpt>
      <trkpt lat="43.84455" lon="1.17493">
        <ele>165.8</ele>
        <time>2024-07-11T09:08:02Z</time>
      </trkpt>
      <trkpt lat="43.84451" lon="1.17502">
        <ele>165.8</ele>
        <time>2024-07-11T09:08:03Z</time>
      </trkpt>
      <trkpt lat="43.84446" lon="1.17511">
        <ele>165.8</ele>
        <time>2024-07-11T09:08:04Z</time>
      </trkpt>
      <trkpt lat="43.84442" lon="1.17519">
        <ele>165.8</ele>
        <time>2024-07-11T09:08:05Z</time>
      </trkpt>
      <trkpt lat="43.84437" lon="1.17528">
        <ele>166</ele>
        <time>2024-07-11T09:08:06Z</time>
      </trkpt>
      <trkpt lat="43.84433" lon="1.17537">
        <ele>166</ele>
        <time>2024-07-11T09:08:07Z</time>
      </trkpt>
      <trkpt lat="43.84429" lon="1.17546">
        <ele>165.8</ele>
        <time>2024-07-11T09:08:08Z</time>
      </trkpt>
      <trkpt lat="43.84424" lon="1.17554">
        <ele>165.8</ele>
        <time>2024-07-11T09:08:09Z</time>
      </trkpt>
      <trkpt lat="43.8442" lon="1.17563">
        <ele>165.8</ele>
        <time>2024-07-11T09:08:10Z</time>
      </trkpt>
      <trkpt lat="43.84416" lon="1.17571">
        <ele>165.6</ele>
        <time>2024-07-11T09:08:11Z</time>
      </trkpt>
      <trkpt lat="43.84411" lon="1.1758">
        <ele>165.6</ele>
        <time>2024-07-11T09:08:12Z</time>
      </trkpt>
      <trkpt lat="43.84407" lon="1.17588">
        <ele>165.6</ele>
        <time>2024-07-11T09:08:13Z</time>
      </trkpt>
      <trkpt lat="43.84403" lon="1.17597">
        <ele>165.6</ele>
        <time>2024-07-11T09:08:14Z</time>
      </trkpt>
      <trkpt lat="43.844" lon="1.17604">
        <ele>165.4</ele>
        <time>2024-07-11T09:08:15Z</time>
      </trkpt>
      <trkpt lat="43.84394" lon="1.17615">
        <ele>165.2</ele>
        <time>2024-07-11T09:08:16Z</time>
      </trkpt>
      <trkpt lat="43.8439" lon="1.17623">
        <ele>165.2</ele>
        <time>2024-07-11T09:08:17Z</time>
      </trkpt>
      <trkpt lat="43.84386" lon="1.17632">
        <ele>165.2</ele>
        <time>2024-07-11T09:08:18Z</time>
      </trkpt>
      <trkpt lat="43.84382" lon="1.17641">
        <ele>165.2</ele>
        <time>2024-07-11T09:08:19Z</time>
      </trkpt>
      <trkpt lat="43.84379" lon="1.17648">
        <ele>165.2</ele>
        <time>2024-07-11T09:08:20Z</time>
      </trkpt>
      <trkpt lat="43.84375" lon="1.17659">
        <ele>165.2</ele>
        <time>2024-07-11T09:08:21Z</time>
      </trkpt>
      <trkpt lat="43.84372" lon="1.17669">
        <ele>165.2</ele>
        <time>2024-07-11T09:08:22Z</time>
      </trkpt>
      <trkpt lat="43.84369" lon="1.17678">
        <ele>165.4</ele>
        <time>2024-07-11T09:08:23Z</time>
      </trkpt>
      <trkpt lat="43.84366" lon="1.17688">
        <ele>165.4</ele>
        <time>2024-07-11T09:08:24Z</time>
      </trkpt>
      <trkpt lat="43.84364" lon="1.17698">
        <ele>165.4</ele>
        <time>2024-07-11T09:08:25Z</time>
      </trkpt>
      <trkpt lat="43.84361" lon="1.17708">
        <ele>165.4</ele>
        <time>2024-07-11T09:08:26Z</time>
      </trkpt>
      <trkpt lat="43.84359" lon="1.17718">
        <ele>165.4</ele>
        <time>2024-07-11T09:08:27Z</time>
      </trkpt>
      <trkpt lat="43.84357" lon="1.17728">
        <ele>165.4</ele>
        <time>2024-07-11T09:08:28Z</time>
      </trkpt>
      <trkpt lat="43.84355" lon="1.17737">
        <ele>165.2</ele>
        <time>2024-07-11T09:08:29Z</time>
      </trkpt>
      <trkpt lat="43.84353" lon="1.17749">
        <ele>165.2</ele>
        <time>2024-07-11T09:08:30Z</time>
      </trkpt>
      <trkpt lat="43.84352" lon="1.17759">
        <ele>165</ele>
        <time>2024-07-11T09:08:31Z</time>
      </trkpt>
      <trkpt lat="43.8435" lon="1.17769">
        <ele>165</ele>
        <time>2024-07-11T09:08:32Z</time>
      </trkpt>
      <trkpt lat="43.84349" lon="1.17779">
        <ele>165</ele>
        <time>2024-07-11T09:08:33Z</time>
      </trkpt>
      <trkpt lat="43.84347" lon="1.17787">
        <ele>165</ele>
        <time>2024-07-11T09:08:34Z</time>
      </trkpt>
      <trkpt lat="43.84346" lon="1.17796">
        <ele>165</ele>
        <time>2024-07-11T09:08:35Z</time>
      </trkpt>
      <trkpt lat="43.84345" lon="1.17803">
        <ele>165</ele>
        <time>2024-07-11T09:08:36Z</time>
      </trkpt>
      <trkpt lat="43.84344" lon="1.17811">
        <ele>165</ele>
        <time>2024-07-11T09:08:37Z</time>
      </trkpt>
      <trkpt lat="43.84343" lon="1.17816">
        <ele>165</ele>
        <time>2024-07-11T09:08:38Z</time>
      </trkpt>
      <trkpt lat="43.84342" lon="1.17823">
        <ele>165</ele>
        <time>2024-07-11T09:08:39Z</time>
      </trkpt>
      <trkpt lat="43.8434" lon="1.17832">
        <ele>165</ele>
        <time>2024-07-11T09:08:40Z</time>
      </trkpt>
      <trkpt lat="43.84339" lon="1.17838">
        <ele>165</ele>
        <time>2024-07-11T09:08:41Z</time>
      </trkpt>
      <trkpt lat="43.84338" lon="1.17845">
        <ele>165</ele>
        <time>2024-07-11T09:08:42Z</time>
      </trkpt>
      <trkpt lat="43.84338" lon="1.1785">
        <ele>165</ele>
        <time>2024-07-11T09:08:43Z</time>
      </trkpt>
      <trkpt lat="43.84337" lon="1.17856">
        <ele>165</ele>
        <time>2024-07-11T09:08:44Z</time>
      </trkpt>
      <trkpt lat="43.84336" lon="1.17864">
        <ele>164.8</ele>
        <time>2024-07-11T09:08:45Z</time>
      </trkpt>
      <trkpt lat="43.84335" lon="1.1787">
        <ele>164.8</ele>
        <time>2024-07-11T09:08:46Z</time>
      </trkpt>
      <trkpt lat="43.84334" lon="1.17876">
        <ele>164.8</ele>
        <time>2024-07-11T09:08:47Z</time>
      </trkpt>
      <trkpt lat="43.84333" lon="1.17881">
        <ele>164.8</ele>
        <time>2024-07-11T09:08:48Z</time>
      </trkpt>
      <trkpt lat="43.84332" lon="1.17887">
        <ele>164.8</ele>
        <time>2024-07-11T09:08:49Z</time>
      </trkpt>
      <trkpt lat="43.84332" lon="1.17893">
        <ele>164.6</ele>
        <time>2024-07-11T09:08:50Z</time>
      </trkpt>
      <trkpt lat="43.84331" lon="1.17899">
        <ele>164.6</ele>
        <time>2024-07-11T09:08:51Z</time>
      </trkpt>
      <trkpt lat="43.8433" lon="1.17905">
        <ele>164.6</ele>
        <time>2024-07-11T09:08:52Z</time>
      </trkpt>
      <trkpt lat="43.84329" lon="1.17909">
        <ele>164.6</ele>
        <time>2024-07-11T09:08:53Z</time>
      </trkpt>
      <trkpt lat="43.84327" lon="1.17917">
        <ele>164.6</ele>
        <time>2024-07-11T09:08:54Z</time>
      </trkpt>
      <trkpt lat="43.84326" lon="1.17923">
        <ele>164.6</ele>
        <time>2024-07-11T09:08:55Z</time>
      </trkpt>
      <trkpt lat="43.84324" lon="1.1793">
        <ele>164.6</ele>
        <time>2024-07-11T09:08:56Z</time>
      </trkpt>
      <trkpt lat="43.84323" lon="1.17935">
        <ele>164.6</ele>
        <time>2024-07-11T09:08:57Z</time>
      </trkpt>
      <trkpt lat="43.84322" lon="1.17943">
        <ele>164.6</ele>
        <time>2024-07-11T09:08:58Z</time>
      </trkpt>
      <trkpt lat="43.84321" lon="1.17949">
        <ele>164.6</ele>
        <time>2024-07-11T09:08:59Z</time>
      </trkpt>
      <trkpt lat="43.8432" lon="1.17955">
        <ele>164.6</ele>
        <time>2024-07-11T09:09:00Z</time>
      </trkpt>
      <trkpt lat="43.84319" lon="1.17961">
        <ele>164.6</ele>
        <time>2024-07-11T09:09:01Z</time>
      </trkpt>
      <trkpt lat="43.84318" lon="1.17966">
        <ele>164.6</ele>
        <time>2024-07-11T09:09:02Z</time>
      </trkpt>
      <trkpt lat="43.84317" lon="1.17971">
        <ele>164.6</ele>
        <time>2024-07-11T09:09:03Z</time>
      </trkpt>
      <trkpt lat="43.84316" lon="1.17978">
        <ele>164.6</ele>
        <time>2024-07-11T09:09:04Z</time>
      </trkpt>
      <trkpt lat="43.84314" lon="1.17983">
        <ele>164.8</ele>
        <time>2024-07-11T09:09:05Z</time>
      </trkpt>
      <trkpt lat="43.84313" lon="1.17989">
        <ele>164.6</ele>
        <time>2024-07-11T09:09:06Z</time>
      </trkpt>
      <trkpt lat="43.84312" lon="1.17995">
        <ele>164.6</ele>
        <time>2024-07-11T09:09:07Z</time>
      </trkpt>
      <trkpt lat="43.84311" lon="1.17999">
        <ele>164.6</ele>
        <time>2024-07-11T09:09:08Z</time>
      </trkpt>
      <trkpt lat="43.84309" lon="1.18006">
        <ele>164.6</ele>
        <time>2024-07-11T09:09:09Z</time>
      </trkpt>
      <trkpt lat="43.84307" lon="1.18012">
        <ele>164.6</ele>
        <time>2024-07-11T09:09:10Z</time>
      </trkpt>
      <trkpt lat="43.84306" lon="1.18017">
        <ele>164.6</ele>
        <time>2024-07-11T09:09:11Z</time>
      </trkpt>
      <trkpt lat="43.84304" lon="1.18021">
        <ele>164.6</ele>
        <time>2024-07-11T09:09:12Z</time>
      </trkpt>
      <trkpt lat="43.84302" lon="1.18028">
        <ele>164.6</ele>
        <time>2024-07-11T09:09:13Z</time>
      </trkpt>
      <trkpt lat="43.843" lon="1.18033">
        <ele>164.4</ele>
        <time>2024-07-11T09:09:14Z</time>
      </trkpt>
      <trkpt lat="43.84298" lon="1.18038">
        <ele>164.6</ele>
        <time>2024-07-11T09:09:15Z</time>
      </trkpt>
      <trkpt lat="43.84296" lon="1.18044">
        <ele>164.4</ele>
        <time>2024-07-11T09:09:16Z</time>
      </trkpt>
      <trkpt lat="43.84294" lon="1.18049">
        <ele>164.4</ele>
        <time>2024-07-11T09:09:17Z</time>
      </trkpt>
      <trkpt lat="43.84292" lon="1.18054">
        <ele>164.4</ele>
        <time>2024-07-11T09:09:18Z</time>
      </trkpt>
      <trkpt lat="43.84289" lon="1.1806">
        <ele>164.4</ele>
        <time>2024-07-11T09:09:19Z</time>
      </trkpt>
      <trkpt lat="43.84287" lon="1.18065">
        <ele>164.4</ele>
        <time>2024-07-11T09:09:20Z</time>
      </trkpt>
      <trkpt lat="43.84284" lon="1.1807">
        <ele>164.4</ele>
        <time>2024-07-11T09:09:21Z</time>
      </trkpt>
      <trkpt lat="43.84282" lon="1.18074">
        <ele>164.4</ele>
        <time>2024-07-11T09:09:22Z</time>
      </trkpt>
      <trkpt lat="43.84279" lon="1.1808">
        <ele>164.4</ele>
        <time>2024-07-11T09:09:23Z</time>
      </trkpt>
      <trkpt lat="43.84277" lon="1.18086">
        <ele>164.2</ele>
        <time>2024-07-11T09:09:24Z</time>
      </trkpt>
      <trkpt lat="43.84276" lon="1.18091">
        <ele>164.2</ele>
        <time>2024-07-11T09:09:25Z</time>
      </trkpt>
      <trkpt lat="43.84274" lon="1.18094">
        <ele>164.2</ele>
        <time>2024-07-11T09:09:26Z</time>
      </trkpt>
      <trkpt lat="43.84272" lon="1.18099">
        <ele>164</ele>
        <time>2024-07-11T09:09:27Z</time>
      </trkpt>
      <trkpt lat="43.84271" lon="1.18102">
        <ele>164</ele>
        <time>2024-07-11T09:09:28Z</time>
      </trkpt>
      <trkpt lat="43.84269" lon="1.18105">
        <ele>163.8</ele>
        <time>2024-07-11T09:09:29Z</time>
      </trkpt>
      <trkpt lat="43.84268" lon="1.18108">
        <ele>163.8</ele>
        <time>2024-07-11T09:09:30Z</time>
      </trkpt>
      <trkpt lat="43.84267" lon="1.1811">
        <ele>163.8</ele>
        <time>2024-07-11T09:09:31Z</time>
      </trkpt>
      <trkpt lat="43.84266" lon="1.18112">
        <ele>163.8</ele>
        <time>2024-07-11T09:09:32Z</time>
      </trkpt>
      <trkpt lat="43.84265" lon="1.18114">
        <ele>163.8</ele>
        <time>2024-07-11T09:09:33Z</time>
      </trkpt>
      <trkpt lat="43.84264" lon="1.18115">
        <ele>163.8</ele>
        <time>2024-07-11T09:09:34Z</time>
      </trkpt>
      <trkpt lat="43.84264" lon="1.18117">
        <ele>163.8</ele>
        <time>2024-07-11T09:09:35Z</time>
      </trkpt>
      <trkpt lat="43.84263" lon="1.18118">
        <ele>163.8</ele>
        <time>2024-07-11T09:09:36Z</time>
      </trkpt>
      <trkpt lat="43.84262" lon="1.18119">
        <ele>163.8</ele>
        <time>2024-07-11T09:09:37Z</time>
      </trkpt>
      <trkpt lat="43.84261" lon="1.18121">
        <ele>163.8</ele>
        <time>2024-07-11T09:09:38Z</time>
      </trkpt>
      <trkpt lat="43.8426" lon="1.18124">
        <ele>163.8</ele>
        <time>2024-07-11T09:09:39Z</time>
      </trkpt>
      <trkpt lat="43.84259" lon="1.18127">
        <ele>163.8</ele>
        <time>2024-07-11T09:09:40Z</time>
      </trkpt>
      <trkpt lat="43.84258" lon="1.18131">
        <ele>163.8</ele>
        <time>2024-07-11T09:09:41Z</time>
      </trkpt>
      <trkpt lat="43.84256" lon="1.18135">
        <ele>163.8</ele>
        <time>2024-07-11T09:09:42Z</time>
      </trkpt>
      <trkpt lat="43.84254" lon="1.18141">
        <ele>163.8</ele>
        <time>2024-07-11T09:09:43Z</time>
      </trkpt>
      <trkpt lat="43.84252" lon="1.18146">
        <ele>163.8</ele>
        <time>2024-07-11T09:09:44Z</time>
      </trkpt>
      <trkpt lat="43.8425" lon="1.18152">
        <ele>163.8</ele>
        <time>2024-07-11T09:09:45Z</time>
      </trkpt>
      <trkpt lat="43.84247" lon="1.18158">
        <ele>163.8</ele>
        <time>2024-07-11T09:09:46Z</time>
      </trkpt>
      <trkpt lat="43.84245" lon="1.18165">
        <ele>163.8</ele>
        <time>2024-07-11T09:09:47Z</time>
      </trkpt>
      <trkpt lat="43.84242" lon="1.18172">
        <ele>163.6</ele>
        <time>2024-07-11T09:09:48Z</time>
      </trkpt>
      <trkpt lat="43.8424" lon="1.18179">
        <ele>163.6</ele>
        <time>2024-07-11T09:09:49Z</time>
      </trkpt>
      <trkpt lat="43.84238" lon="1.18185">
        <ele>163.6</ele>
        <time>2024-07-11T09:09:50Z</time>
      </trkpt>
      <trkpt lat="43.84234" lon="1.18193">
        <ele>163.8</ele>
        <time>2024-07-11T09:09:51Z</time>
      </trkpt>
      <trkpt lat="43.84232" lon="1.18201">
        <ele>163.8</ele>
        <time>2024-07-11T09:09:52Z</time>
      </trkpt>
      <trkpt lat="43.84229" lon="1.18209">
        <ele>163.8</ele>
        <time>2024-07-11T09:09:53Z</time>
      </trkpt>
      <trkpt lat="43.84225" lon="1.18216">
        <ele>164</ele>
        <time>2024-07-11T09:09:54Z</time>
      </trkpt>
      <trkpt lat="43.84222" lon="1.18224">
        <ele>164</ele>
        <time>2024-07-11T09:09:55Z</time>
      </trkpt>
      <trkpt lat="43.84219" lon="1.18232">
        <ele>164</ele>
        <time>2024-07-11T09:09:56Z</time>
      </trkpt>
      <trkpt lat="43.84216" lon="1.1824">
        <ele>164</ele>
        <time>2024-07-11T09:09:57Z</time>
      </trkpt>
      <trkpt lat="43.84213" lon="1.18246">
        <ele>163.8</ele>
        <time>2024-07-11T09:09:58Z</time>
      </trkpt>
      <trkpt lat="43.84209" lon="1.18256">
        <ele>164</ele>
        <time>2024-07-11T09:09:59Z</time>
      </trkpt>
      <trkpt lat="43.84206" lon="1.18264">
        <ele>164.2</ele>
        <time>2024-07-11T09:10:00Z</time>
      </trkpt>
      <trkpt lat="43.84202" lon="1.18272">
        <ele>164</ele>
        <time>2024-07-11T09:10:01Z</time>
      </trkpt>
      <trkpt lat="43.84199" lon="1.18281">
        <ele>164.2</ele>
        <time>2024-07-11T09:10:02Z</time>
      </trkpt>
      <trkpt lat="43.84196" lon="1.18287">
        <ele>164.2</ele>
        <time>2024-07-11T09:10:03Z</time>
      </trkpt>
      <trkpt lat="43.84193" lon="1.18296">
        <ele>164.4</ele>
        <time>2024-07-11T09:10:04Z</time>
      </trkpt>
      <trkpt lat="43.84188" lon="1.18306">
        <ele>164.4</ele>
        <time>2024-07-11T09:10:05Z</time>
      </trkpt>
      <trkpt lat="43.84185" lon="1.18314">
        <ele>164.4</ele>
        <time>2024-07-11T09:10:06Z</time>
      </trkpt>
      <trkpt lat="43.84182" lon="1.18323">
        <ele>164.4</ele>
        <time>2024-07-11T09:10:07Z</time>
      </trkpt>
      <trkpt lat="43.84179" lon="1.18329">
        <ele>164.4</ele>
        <time>2024-07-11T09:10:08Z</time>
      </trkpt>
      <trkpt lat="43.84176" lon="1.18338">
        <ele>164.6</ele>
        <time>2024-07-11T09:10:09Z</time>
      </trkpt>
      <trkpt lat="43.84172" lon="1.18348">
        <ele>164.6</ele>
        <time>2024-07-11T09:10:10Z</time>
      </trkpt>
      <trkpt lat="43.84168" lon="1.18357">
        <ele>164.8</ele>
        <time>2024-07-11T09:10:11Z</time>
      </trkpt>
      <trkpt lat="43.84165" lon="1.18365">
        <ele>164.8</ele>
        <time>2024-07-11T09:10:12Z</time>
      </trkpt>
      <trkpt lat="43.84163" lon="1.18372">
        <ele>164.8</ele>
        <time>2024-07-11T09:10:13Z</time>
      </trkpt>
      <trkpt lat="43.8416" lon="1.18381">
        <ele>165</ele>
        <time>2024-07-11T09:10:14Z</time>
      </trkpt>
      <trkpt lat="43.84156" lon="1.18391">
        <ele>165.2</ele>
        <time>2024-07-11T09:10:15Z</time>
      </trkpt>
      <trkpt lat="43.84152" lon="1.184">
        <ele>165.4</ele>
        <time>2024-07-11T09:10:16Z</time>
      </trkpt>
      <trkpt lat="43.84149" lon="1.18409">
        <ele>165.6</ele>
        <time>2024-07-11T09:10:17Z</time>
      </trkpt>
      <trkpt lat="43.84146" lon="1.18418">
        <ele>165.6</ele>
        <time>2024-07-11T09:10:18Z</time>
      </trkpt>
      <trkpt lat="43.84143" lon="1.18425">
        <ele>165.8</ele>
        <time>2024-07-11T09:10:19Z</time>
      </trkpt>
      <trkpt lat="43.8414" lon="1.18436">
        <ele>165.8</ele>
        <time>2024-07-11T09:10:20Z</time>
      </trkpt>
      <trkpt lat="43.84137" lon="1.18445">
        <ele>165.8</ele>
        <time>2024-07-11T09:10:21Z</time>
      </trkpt>
      <trkpt lat="43.84134" lon="1.18452">
        <ele>165.8</ele>
        <time>2024-07-11T09:10:22Z</time>
      </trkpt>
      <trkpt lat="43.84131" lon="1.18461">
        <ele>165.8</ele>
        <time>2024-07-11T09:10:23Z</time>
      </trkpt>
      <trkpt lat="43.84127" lon="1.18472">
        <ele>166</ele>
        <time>2024-07-11T09:10:24Z</time>
      </trkpt>
      <trkpt lat="43.84124" lon="1.18481">
        <ele>166</ele>
        <time>2024-07-11T09:10:25Z</time>
      </trkpt>
      <trkpt lat="43.8412" lon="1.18491">
        <ele>166</ele>
        <time>2024-07-11T09:10:26Z</time>
      </trkpt>
      <trkpt lat="43.84117" lon="1.185">
        <ele>166</ele>
        <time>2024-07-11T09:10:27Z</time>
      </trkpt>
      <trkpt lat="43.84114" lon="1.18508">
        <ele>166</ele>
        <time>2024-07-11T09:10:28Z</time>
      </trkpt>
      <trkpt lat="43.8411" lon="1.18519">
        <ele>166</ele>
        <time>2024-07-11T09:10:29Z</time>
      </trkpt>
      <trkpt lat="43.84106" lon="1.18529">
        <ele>166</ele>
        <time>2024-07-11T09:10:30Z</time>
      </trkpt>
      <trkpt lat="43.84102" lon="1.18538">
        <ele>166</ele>
        <time>2024-07-11T09:10:31Z</time>
      </trkpt>
      <trkpt lat="43.84099" lon="1.18548">
        <ele>166</ele>
        <time>2024-07-11T09:10:32Z</time>
      </trkpt>
      <trkpt lat="43.84095" lon="1.18557">
        <ele>166</ele>
        <time>2024-07-11T09:10:33Z</time>
      </trkpt>
      <trkpt lat="43.84091" lon="1.18566">
        <ele>166</ele>
        <time>2024-07-11T09:10:34Z</time>
      </trkpt>
      <trkpt lat="43.84086" lon="1.18575">
        <ele>165.8</ele>
        <time>2024-07-11T09:10:35Z</time>
      </trkpt>
      <trkpt lat="43.84082" lon="1.18583">
        <ele>165.8</ele>
        <time>2024-07-11T09:10:36Z</time>
      </trkpt>
      <trkpt lat="43.84078" lon="1.18591">
        <ele>165.6</ele>
        <time>2024-07-11T09:10:37Z</time>
      </trkpt>
      <trkpt lat="43.84074" lon="1.186">
        <ele>165.6</ele>
        <time>2024-07-11T09:10:38Z</time>
      </trkpt>
      <trkpt lat="43.8407" lon="1.18608">
        <ele>165.6</ele>
        <time>2024-07-11T09:10:39Z</time>
      </trkpt>
      <trkpt lat="43.84066" lon="1.18616">
        <ele>165.4</ele>
        <time>2024-07-11T09:10:40Z</time>
      </trkpt>
      <trkpt lat="43.84063" lon="1.18622">
        <ele>165.4</ele>
        <time>2024-07-11T09:10:41Z</time>
      </trkpt>
      <trkpt lat="43.84059" lon="1.18629">
        <ele>165.4</ele>
        <time>2024-07-11T09:10:42Z</time>
      </trkpt>
      <trkpt lat="43.84055" lon="1.18637">
        <ele>165.4</ele>
        <time>2024-07-11T09:10:43Z</time>
      </trkpt>
      <trkpt lat="43.84052" lon="1.18641">
        <ele>165.4</ele>
        <time>2024-07-11T09:10:44Z</time>
      </trkpt>
      <trkpt lat="43.84049" lon="1.18644">
        <ele>165.4</ele>
        <time>2024-07-11T09:10:45Z</time>
      </trkpt>
      <trkpt lat="43.84047" lon="1.18645">
        <ele>165.4</ele>
        <time>2024-07-11T09:10:46Z</time>
      </trkpt>
      <trkpt lat="43.84045" lon="1.18647">
        <ele>165.4</ele>
        <time>2024-07-11T09:10:47Z</time>
      </trkpt>
      <trkpt lat="43.84044" lon="1.18649">
        <ele>165.4</ele>
        <time>2024-07-11T09:10:48Z</time>
      </trkpt>
      <trkpt lat="43.84042" lon="1.18653">
        <ele>165.4</ele>
        <time>2024-07-11T09:10:49Z</time>
      </trkpt>
      <trkpt lat="43.84041" lon="1.18658">
        <ele>165.4</ele>
        <time>2024-07-11T09:10:50Z</time>
      </trkpt>
      <trkpt lat="43.84041" lon="1.18664">
        <ele>165.4</ele>
        <time>2024-07-11T09:10:51Z</time>
      </trkpt>
      <trkpt lat="43.8404" lon="1.18669">
        <ele>165.4</ele>
        <time>2024-07-11T09:10:52Z</time>
      </trkpt>
      <trkpt lat="43.84038" lon="1.18675">
        <ele>165.4</ele>
        <time>2024-07-11T09:10:53Z</time>
      </trkpt>
      <trkpt lat="43.84036" lon="1.18681">
        <ele>165.4</ele>
        <time>2024-07-11T09:10:54Z</time>
      </trkpt>
      <trkpt lat="43.84033" lon="1.18688">
        <ele>165.4</ele>
        <time>2024-07-11T09:10:55Z</time>
      </trkpt>
      <trkpt lat="43.84031" lon="1.18694">
        <ele>165.4</ele>
        <time>2024-07-11T09:10:56Z</time>
      </trkpt>
      <trkpt lat="43.84029" lon="1.18701">
        <ele>165.4</ele>
        <time>2024-07-11T09:10:57Z</time>
      </trkpt>
      <trkpt lat="43.84026" lon="1.18708">
        <ele>165.2</ele>
        <time>2024-07-11T09:10:58Z</time>
      </trkpt>
      <trkpt lat="43.84024" lon="1.18715">
        <ele>165.2</ele>
        <time>2024-07-11T09:10:59Z</time>
      </trkpt>
      <trkpt lat="43.84022" lon="1.18721">
        <ele>165</ele>
        <time>2024-07-11T09:11:00Z</time>
      </trkpt>
      <trkpt lat="43.84019" lon="1.1873">
        <ele>165</ele>
        <time>2024-07-11T09:11:01Z</time>
      </trkpt>
      <trkpt lat="43.84016" lon="1.18738">
        <ele>164.8</ele>
        <time>2024-07-11T09:11:02Z</time>
      </trkpt>
      <trkpt lat="43.84013" lon="1.18746">
        <ele>165</ele>
        <time>2024-07-11T09:11:03Z</time>
      </trkpt>
      <trkpt lat="43.8401" lon="1.18754">
        <ele>165</ele>
        <time>2024-07-11T09:11:04Z</time>
      </trkpt>
      <trkpt lat="43.84007" lon="1.18762">
        <ele>164.8</ele>
        <time>2024-07-11T09:11:05Z</time>
      </trkpt>
      <trkpt lat="43.84005" lon="1.18769">
        <ele>164.8</ele>
        <time>2024-07-11T09:11:06Z</time>
      </trkpt>
      <trkpt lat="43.84003" lon="1.18777">
        <ele>164.8</ele>
        <time>2024-07-11T09:11:07Z</time>
      </trkpt>
      <trkpt lat="43.83999" lon="1.18787">
        <ele>164.8</ele>
        <time>2024-07-11T09:11:08Z</time>
      </trkpt>
      <trkpt lat="43.83996" lon="1.18796">
        <ele>164.8</ele>
        <time>2024-07-11T09:11:09Z</time>
      </trkpt>
      <trkpt lat="43.83994" lon="1.18803">
        <ele>165</ele>
        <time>2024-07-11T09:11:10Z</time>
      </trkpt>
      <trkpt lat="43.8399" lon="1.18812">
        <ele>165</ele>
        <time>2024-07-11T09:11:11Z</time>
      </trkpt>
      <trkpt lat="43.83987" lon="1.18821">
        <ele>165</ele>
        <time>2024-07-11T09:11:12Z</time>
      </trkpt>
      <trkpt lat="43.83984" lon="1.18829">
        <ele>165</ele>
        <time>2024-07-11T09:11:13Z</time>
      </trkpt>
      <trkpt lat="43.83981" lon="1.18838">
        <ele>165</ele>
        <time>2024-07-11T09:11:14Z</time>
      </trkpt>
      <trkpt lat="43.83978" lon="1.18847">
        <ele>165</ele>
        <time>2024-07-11T09:11:15Z</time>
      </trkpt>
      <trkpt lat="43.83975" lon="1.18856">
        <ele>165</ele>
        <time>2024-07-11T09:11:16Z</time>
      </trkpt>
      <trkpt lat="43.83972" lon="1.18864">
        <ele>164.8</ele>
        <time>2024-07-11T09:11:17Z</time>
      </trkpt>
      <trkpt lat="43.8397" lon="1.18873">
        <ele>164.8</ele>
        <time>2024-07-11T09:11:18Z</time>
      </trkpt>
      <trkpt lat="43.83967" lon="1.18882">
        <ele>164.6</ele>
        <time>2024-07-11T09:11:19Z</time>
      </trkpt>
      <trkpt lat="43.83964" lon="1.18891">
        <ele>164.6</ele>
        <time>2024-07-11T09:11:20Z</time>
      </trkpt>
      <trkpt lat="43.83961" lon="1.189">
        <ele>164.4</ele>
        <time>2024-07-11T09:11:21Z</time>
      </trkpt>
      <trkpt lat="43.83959" lon="1.18909">
        <ele>164.4</ele>
        <time>2024-07-11T09:11:22Z</time>
      </trkpt>
      <trkpt lat="43.83957" lon="1.18918">
        <ele>164.2</ele>
        <time>2024-07-11T09:11:23Z</time>
      </trkpt>
      <trkpt lat="43.83955" lon="1.18927">
        <ele>164.2</ele>
        <time>2024-07-11T09:11:24Z</time>
      </trkpt>
      <trkpt lat="43.83955" lon="1.18935">
        <ele>164.2</ele>
        <time>2024-07-11T09:11:25Z</time>
      </trkpt>
      <trkpt lat="43.83954" lon="1.18947">
        <ele>163.8</ele>
        <time>2024-07-11T09:11:26Z</time>
      </trkpt>
      <trkpt lat="43.83955" lon="1.18957">
        <ele>163.6</ele>
        <time>2024-07-11T09:11:27Z</time>
      </trkpt>
      <trkpt lat="43.83955" lon="1.18967">
        <ele>163.4</ele>
        <time>2024-07-11T09:11:28Z</time>
      </trkpt>
      <trkpt lat="43.83955" lon="1.18976">
        <ele>163.2</ele>
        <time>2024-07-11T09:11:29Z</time>
      </trkpt>
      <trkpt lat="43.83956" lon="1.18987">
        <ele>163.2</ele>
        <time>2024-07-11T09:11:30Z</time>
      </trkpt>
      <trkpt lat="43.83957" lon="1.19">
        <ele>163</ele>
        <time>2024-07-11T09:11:31Z</time>
      </trkpt>
      <trkpt lat="43.83957" lon="1.19011">
        <ele>163</ele>
        <time>2024-07-11T09:11:32Z</time>
      </trkpt>
      <trkpt lat="43.83958" lon="1.19023">
        <ele>162.6</ele>
        <time>2024-07-11T09:11:33Z</time>
      </trkpt>
      <trkpt lat="43.83959" lon="1.19033">
        <ele>162.2</ele>
        <time>2024-07-11T09:11:34Z</time>
      </trkpt>
      <trkpt lat="43.83959" lon="1.19045">
        <ele>162.2</ele>
        <time>2024-07-11T09:11:35Z</time>
      </trkpt>
      <trkpt lat="43.83959" lon="1.1906">
        <ele>161.8</ele>
        <time>2024-07-11T09:11:36Z</time>
      </trkpt>
      <trkpt lat="43.83959" lon="1.19072">
        <ele>161.6</ele>
        <time>2024-07-11T09:11:37Z</time>
      </trkpt>
      <trkpt lat="43.83957" lon="1.19085">
        <ele>161.4</ele>
        <time>2024-07-11T09:11:38Z</time>
      </trkpt>
      <trkpt lat="43.83954" lon="1.19097">
        <ele>161</ele>
        <time>2024-07-11T09:11:39Z</time>
      </trkpt>
      <trkpt lat="43.83951" lon="1.19109">
        <ele>160.8</ele>
        <time>2024-07-11T09:11:40Z</time>
      </trkpt>
      <trkpt lat="43.83946" lon="1.19122">
        <ele>160</ele>
        <time>2024-07-11T09:11:41Z</time>
      </trkpt>
      <trkpt lat="43.83942" lon="1.19134">
        <ele>159.8</ele>
        <time>2024-07-11T09:11:42Z</time>
      </trkpt>
      <trkpt lat="43.83937" lon="1.19147">
        <ele>159.2</ele>
        <time>2024-07-11T09:11:43Z</time>
      </trkpt>
      <trkpt lat="43.83931" lon="1.19161">
        <ele>159</ele>
        <time>2024-07-11T09:11:44Z</time>
      </trkpt>
      <trkpt lat="43.83926" lon="1.19174">
        <ele>158.4</ele>
        <time>2024-07-11T09:11:45Z</time>
      </trkpt>
      <trkpt lat="43.83921" lon="1.19188">
        <ele>157.8</ele>
        <time>2024-07-11T09:11:46Z</time>
      </trkpt>
      <trkpt lat="43.83916" lon="1.19203">
        <ele>157.6</ele>
        <time>2024-07-11T09:11:47Z</time>
      </trkpt>
      <trkpt lat="43.8391" lon="1.19217">
        <ele>156.8</ele>
        <time>2024-07-11T09:11:48Z</time>
      </trkpt>
      <trkpt lat="43.83905" lon="1.19232">
        <ele>156.4</ele>
        <time>2024-07-11T09:11:49Z</time>
      </trkpt>
      <trkpt lat="43.83901" lon="1.19244">
        <ele>155.4</ele>
        <time>2024-07-11T09:11:50Z</time>
      </trkpt>
      <trkpt lat="43.83894" lon="1.19263">
        <ele>154.6</ele>
        <time>2024-07-11T09:11:51Z</time>
      </trkpt>
      <trkpt lat="43.83888" lon="1.19278">
        <ele>153.8</ele>
        <time>2024-07-11T09:11:52Z</time>
      </trkpt>
      <trkpt lat="43.83882" lon="1.19293">
        <ele>152.8</ele>
        <time>2024-07-11T09:11:53Z</time>
      </trkpt>
      <trkpt lat="43.83876" lon="1.19309">
        <ele>152.4</ele>
        <time>2024-07-11T09:11:54Z</time>
      </trkpt>
      <trkpt lat="43.8387" lon="1.19323">
        <ele>151.4</ele>
        <time>2024-07-11T09:11:55Z</time>
      </trkpt>
      <trkpt lat="43.83865" lon="1.19337">
        <ele>150.8</ele>
        <time>2024-07-11T09:11:56Z</time>
      </trkpt>
      <trkpt lat="43.8386" lon="1.1935">
        <ele>149.6</ele>
        <time>2024-07-11T09:11:57Z</time>
      </trkpt>
      <trkpt lat="43.83856" lon="1.19361">
        <ele>148.6</ele>
        <time>2024-07-11T09:11:58Z</time>
      </trkpt>
      <trkpt lat="43.83852" lon="1.19369">
        <ele>148.2</ele>
        <time>2024-07-11T09:11:59Z</time>
      </trkpt>
      <trkpt lat="43.83848" lon="1.1938">
        <ele>146.6</ele>
        <time>2024-07-11T09:12:00Z</time>
      </trkpt>
      <trkpt lat="43.83846" lon="1.19386">
        <ele>146.4</ele>
        <time>2024-07-11T09:12:01Z</time>
      </trkpt>
      <trkpt lat="43.83843" lon="1.19391">
        <ele>145.6</ele>
        <time>2024-07-11T09:12:02Z</time>
      </trkpt>
      <trkpt lat="43.83841" lon="1.19394">
        <ele>145.2</ele>
        <time>2024-07-11T09:12:03Z</time>
      </trkpt>
      <trkpt lat="43.8384" lon="1.19398">
        <ele>144.8</ele>
        <time>2024-07-11T09:12:04Z</time>
      </trkpt>
      <trkpt lat="43.83838" lon="1.19402">
        <ele>144.4</ele>
        <time>2024-07-11T09:12:05Z</time>
      </trkpt>
      <trkpt lat="43.83836" lon="1.19406">
        <ele>144.2</ele>
        <time>2024-07-11T09:12:06Z</time>
      </trkpt>
      <trkpt lat="43.83834" lon="1.19409">
        <ele>143.8</ele>
        <time>2024-07-11T09:12:07Z</time>
      </trkpt>
      <trkpt lat="43.83831" lon="1.19414">
        <ele>143.4</ele>
        <time>2024-07-11T09:12:08Z</time>
      </trkpt>
      <trkpt lat="43.83828" lon="1.19419">
        <ele>143.4</ele>
        <time>2024-07-11T09:12:09Z</time>
      </trkpt>
      <trkpt lat="43.83826" lon="1.19424">
        <ele>143.2</ele>
        <time>2024-07-11T09:12:10Z</time>
      </trkpt>
      <trkpt lat="43.83823" lon="1.19429">
        <ele>143.2</ele>
        <time>2024-07-11T09:12:11Z</time>
      </trkpt>
      <trkpt lat="43.83821" lon="1.19433">
        <ele>143</ele>
        <time>2024-07-11T09:12:12Z</time>
      </trkpt>
      <trkpt lat="43.83818" lon="1.19439">
        <ele>143</ele>
        <time>2024-07-11T09:12:13Z</time>
      </trkpt>
      <trkpt lat="43.83815" lon="1.19443">
        <ele>143</ele>
        <time>2024-07-11T09:12:14Z</time>
      </trkpt>
      <trkpt lat="43.83811" lon="1.19449">
        <ele>143</ele>
        <time>2024-07-11T09:12:15Z</time>
      </trkpt>
      <trkpt lat="43.83808" lon="1.19453">
        <ele>143</ele>
        <time>2024-07-11T09:12:16Z</time>
      </trkpt>
      <trkpt lat="43.83805" lon="1.19458">
        <ele>143</ele>
        <time>2024-07-11T09:12:17Z</time>
      </trkpt>
      <trkpt lat="43.83802" lon="1.19462">
        <ele>143.2</ele>
        <time>2024-07-11T09:12:18Z</time>
      </trkpt>
      <trkpt lat="43.83799" lon="1.19466">
        <ele>143.2</ele>
        <time>2024-07-11T09:12:19Z</time>
      </trkpt>
      <trkpt lat="43.83796" lon="1.1947">
        <ele>143.4</ele>
        <time>2024-07-11T09:12:20Z</time>
      </trkpt>
      <trkpt lat="43.83792" lon="1.19474">
        <ele>143.4</ele>
        <time>2024-07-11T09:12:21Z</time>
      </trkpt>
      <trkpt lat="43.83789" lon="1.19476">
        <ele>143.8</ele>
        <time>2024-07-11T09:12:22Z</time>
      </trkpt>
      <trkpt lat="43.83785" lon="1.1948">
        <ele>144</ele>
        <time>2024-07-11T09:12:23Z</time>
      </trkpt>
      <trkpt lat="43.83782" lon="1.19482">
        <ele>144.2</ele>
        <time>2024-07-11T09:12:24Z</time>
      </trkpt>
      <trkpt lat="43.83778" lon="1.19485">
        <ele>144.2</ele>
        <time>2024-07-11T09:12:25Z</time>
      </trkpt>
      <trkpt lat="43.83774" lon="1.19487">
        <ele>144.6</ele>
        <time>2024-07-11T09:12:26Z</time>
      </trkpt>
      <trkpt lat="43.83771" lon="1.1949">
        <ele>144.8</ele>
        <time>2024-07-11T09:12:27Z</time>
      </trkpt>
      <trkpt lat="43.83769" lon="1.19492">
        <ele>145</ele>
        <time>2024-07-11T09:12:28Z</time>
      </trkpt>
      <trkpt lat="43.83765" lon="1.19495">
        <ele>145.2</ele>
        <time>2024-07-11T09:12:29Z</time>
      </trkpt>
      <trkpt lat="43.83762" lon="1.19497">
        <ele>145.2</ele>
        <time>2024-07-11T09:12:30Z</time>
      </trkpt>
      <trkpt lat="43.83758" lon="1.19499">
        <ele>145.6</ele>
        <time>2024-07-11T09:12:31Z</time>
      </trkpt>
      <trkpt lat="43.83755" lon="1.19501">
        <ele>146</ele>
        <time>2024-07-11T09:12:32Z</time>
      </trkpt>
      <trkpt lat="43.83752" lon="1.19503">
        <ele>146</ele>
        <time>2024-07-11T09:12:33Z</time>
      </trkpt>
      <trkpt lat="43.83748" lon="1.19505">
        <ele>146.6</ele>
        <time>2024-07-11T09:12:34Z</time>
      </trkpt>
      <trkpt lat="43.83745" lon="1.19506">
        <ele>146.8</ele>
        <time>2024-07-11T09:12:35Z</time>
      </trkpt>
      <trkpt lat="43.83741" lon="1.19507">
        <ele>147.2</ele>
        <time>2024-07-11T09:12:36Z</time>
      </trkpt>
      <trkpt lat="43.83738" lon="1.19509">
        <ele>147.4</ele>
        <time>2024-07-11T09:12:37Z</time>
      </trkpt>
      <trkpt lat="43.83734" lon="1.19511">
        <ele>148</ele>
        <time>2024-07-11T09:12:38Z</time>
      </trkpt>
      <trkpt lat="43.8373" lon="1.19513">
        <ele>148.4</ele>
        <time>2024-07-11T09:12:39Z</time>
      </trkpt>
      <trkpt lat="43.83727" lon="1.19515">
        <ele>148.6</ele>
        <time>2024-07-11T09:12:40Z</time>
      </trkpt>
      <trkpt lat="43.83724" lon="1.19516">
        <ele>148.8</ele>
        <time>2024-07-11T09:12:41Z</time>
      </trkpt>
      <trkpt lat="43.8372" lon="1.19517">
        <ele>149.2</ele>
        <time>2024-07-11T09:12:42Z</time>
      </trkpt>
      <trkpt lat="43.83715" lon="1.19518">
        <ele>149.8</ele>
        <time>2024-07-11T09:12:43Z</time>
      </trkpt>
      <trkpt lat="43.83712" lon="1.19519">
        <ele>150.4</ele>
        <time>2024-07-11T09:12:44Z</time>
      </trkpt>
      <trkpt lat="43.83708" lon="1.1952">
        <ele>150.6</ele>
        <time>2024-07-11T09:12:45Z</time>
      </trkpt>
      <trkpt lat="43.83704" lon="1.19521">
        <ele>150.8</ele>
        <time>2024-07-11T09:12:46Z</time>
      </trkpt>
      <trkpt lat="43.83701" lon="1.19522">
        <ele>151</ele>
        <time>2024-07-11T09:12:47Z</time>
      </trkpt>
      <trkpt lat="43.83698" lon="1.19523">
        <ele>151.4</ele>
        <time>2024-07-11T09:12:48Z</time>
      </trkpt>
      <trkpt lat="43.83694" lon="1.19524">
        <ele>151.8</ele>
        <time>2024-07-11T09:12:49Z</time>
      </trkpt>
      <trkpt lat="43.83692" lon="1.19524">
        <ele>152</ele>
        <time>2024-07-11T09:12:50Z</time>
      </trkpt>
      <trkpt lat="43.83688" lon="1.19524">
        <ele>152.6</ele>
        <time>2024-07-11T09:12:51Z</time>
      </trkpt>
      <trkpt lat="43.83684" lon="1.19524">
        <ele>152.8</ele>
        <time>2024-07-11T09:12:52Z</time>
      </trkpt>
      <trkpt lat="43.83681" lon="1.19524">
        <ele>153</ele>
        <time>2024-07-11T09:12:53Z</time>
      </trkpt>
      <trkpt lat="43.83678" lon="1.19524">
        <ele>153.2</ele>
        <time>2024-07-11T09:12:54Z</time>
      </trkpt>
      <trkpt lat="43.83674" lon="1.19524">
        <ele>153.4</ele>
        <time>2024-07-11T09:12:55Z</time>
      </trkpt>
      <trkpt lat="43.83671" lon="1.19524">
        <ele>153.8</ele>
        <time>2024-07-11T09:12:56Z</time>
      </trkpt>
      <trkpt lat="43.83667" lon="1.19524">
        <ele>154</ele>
        <time>2024-07-11T09:12:57Z</time>
      </trkpt>
      <trkpt lat="43.83663" lon="1.19524">
        <ele>154.4</ele>
        <time>2024-07-11T09:12:58Z</time>
      </trkpt>
      <trkpt lat="43.8366" lon="1.19524">
        <ele>154.4</ele>
        <time>2024-07-11T09:12:59Z</time>
      </trkpt>
      <trkpt lat="43.83656" lon="1.19524">
        <ele>154.8</ele>
        <time>2024-07-11T09:13:00Z</time>
      </trkpt>
      <trkpt lat="43.83652" lon="1.19523">
        <ele>155.2</ele>
        <time>2024-07-11T09:13:01Z</time>
      </trkpt>
      <trkpt lat="43.83649" lon="1.19523">
        <ele>155.4</ele>
        <time>2024-07-11T09:13:02Z</time>
      </trkpt>
      <trkpt lat="43.83645" lon="1.19522">
        <ele>155.6</ele>
        <time>2024-07-11T09:13:03Z</time>
      </trkpt>
      <trkpt lat="43.83642" lon="1.19522">
        <ele>156</ele>
        <time>2024-07-11T09:13:04Z</time>
      </trkpt>
      <trkpt lat="43.83638" lon="1.19522">
        <ele>156.2</ele>
        <time>2024-07-11T09:13:05Z</time>
      </trkpt>
      <trkpt lat="43.83633" lon="1.19521">
        <ele>156.4</ele>
        <time>2024-07-11T09:13:06Z</time>
      </trkpt>
      <trkpt lat="43.83629" lon="1.19521">
        <ele>156.8</ele>
        <time>2024-07-11T09:13:07Z</time>
      </trkpt>
      <trkpt lat="43.83625" lon="1.19521">
        <ele>156.8</ele>
        <time>2024-07-11T09:13:08Z</time>
      </trkpt>
      <trkpt lat="43.83622" lon="1.1952">
        <ele>157</ele>
        <time>2024-07-11T09:13:09Z</time>
      </trkpt>
      <trkpt lat="43.83619" lon="1.1952">
        <ele>157.2</ele>
        <time>2024-07-11T09:13:10Z</time>
      </trkpt>
      <trkpt lat="43.83614" lon="1.19519">
        <ele>157.2</ele>
        <time>2024-07-11T09:13:11Z</time>
      </trkpt>
      <trkpt lat="43.83611" lon="1.1952">
        <ele>157.6</ele>
        <time>2024-07-11T09:13:12Z</time>
      </trkpt>
      <trkpt lat="43.83607" lon="1.1952">
        <ele>158</ele>
        <time>2024-07-11T09:13:13Z</time>
      </trkpt>
      <trkpt lat="43.83604" lon="1.1952">
        <ele>158</ele>
        <time>2024-07-11T09:13:14Z</time>
      </trkpt>
      <trkpt lat="43.83601" lon="1.1952">
        <ele>158.4</ele>
        <time>2024-07-11T09:13:15Z</time>
      </trkpt>
      <trkpt lat="43.83597" lon="1.1952">
        <ele>158.4</ele>
        <time>2024-07-11T09:13:16Z</time>
      </trkpt>
      <trkpt lat="43.83594" lon="1.19521">
        <ele>158.6</ele>
        <time>2024-07-11T09:13:17Z</time>
      </trkpt>
      <trkpt lat="43.83591" lon="1.19521">
        <ele>158.6</ele>
        <time>2024-07-11T09:13:18Z</time>
      </trkpt>
      <trkpt lat="43.83588" lon="1.1952">
        <ele>159.4</ele>
        <time>2024-07-11T09:13:19Z</time>
      </trkpt>
      <trkpt lat="43.83584" lon="1.1952">
        <ele>160</ele>
        <time>2024-07-11T09:13:20Z</time>
      </trkpt>
      <trkpt lat="43.83581" lon="1.19521">
        <ele>160.2</ele>
        <time>2024-07-11T09:13:21Z</time>
      </trkpt>
      <trkpt lat="43.83577" lon="1.19522">
        <ele>160.6</ele>
        <time>2024-07-11T09:13:22Z</time>
      </trkpt>
      <trkpt lat="43.83573" lon="1.19522">
        <ele>160.6</ele>
        <time>2024-07-11T09:13:23Z</time>
      </trkpt>
      <trkpt lat="43.83569" lon="1.19523">
        <ele>160.8</ele>
        <time>2024-07-11T09:13:24Z</time>
      </trkpt>
      <trkpt lat="43.83566" lon="1.19523">
        <ele>161</ele>
        <time>2024-07-11T09:13:25Z</time>
      </trkpt>
      <trkpt lat="43.83562" lon="1.19524">
        <ele>161</ele>
        <time>2024-07-11T09:13:26Z</time>
      </trkpt>
      <trkpt lat="43.83559" lon="1.19525">
        <ele>161.2</ele>
        <time>2024-07-11T09:13:27Z</time>
      </trkpt>
      <trkpt lat="43.83555" lon="1.19525">
        <ele>161.4</ele>
        <time>2024-07-11T09:13:28Z</time>
      </trkpt>
      <trkpt lat="43.83552" lon="1.19526">
        <ele>161.8</ele>
        <time>2024-07-11T09:13:29Z</time>
      </trkpt>
      <trkpt lat="43.83548" lon="1.19527">
        <ele>161.8</ele>
        <time>2024-07-11T09:13:30Z</time>
      </trkpt>
      <trkpt lat="43.83544" lon="1.19528">
        <ele>162</ele>
        <time>2024-07-11T09:13:31Z</time>
      </trkpt>
      <trkpt lat="43.83542" lon="1.19528">
        <ele>162.2</ele>
        <time>2024-07-11T09:13:32Z</time>
      </trkpt>
      <trkpt lat="43.83538" lon="1.19529">
        <ele>162.2</ele>
        <time>2024-07-11T09:13:33Z</time>
      </trkpt>
      <trkpt lat="43.83535" lon="1.1953">
        <ele>162.2</ele>
        <time>2024-07-11T09:13:34Z</time>
      </trkpt>
      <trkpt lat="43.83531" lon="1.1953">
        <ele>162.4</ele>
        <time>2024-07-11T09:13:35Z</time>
      </trkpt>
      <trkpt lat="43.83527" lon="1.19531">
        <ele>162.8</ele>
        <time>2024-07-11T09:13:36Z</time>
      </trkpt>
      <trkpt lat="43.83524" lon="1.19532">
        <ele>163</ele>
        <time>2024-07-11T09:13:37Z</time>
      </trkpt>
      <trkpt lat="43.83521" lon="1.19533">
        <ele>163.2</ele>
        <time>2024-07-11T09:13:38Z</time>
      </trkpt>
      <trkpt lat="43.83518" lon="1.19533">
        <ele>163.4</ele>
        <time>2024-07-11T09:13:39Z</time>
      </trkpt>
      <trkpt lat="43.83514" lon="1.19534">
        <ele>163.6</ele>
        <time>2024-07-11T09:13:40Z</time>
      </trkpt>
      <trkpt lat="43.83511" lon="1.19534">
        <ele>164</ele>
        <time>2024-07-11T09:13:41Z</time>
      </trkpt>
      <trkpt lat="43.83506" lon="1.19534">
        <ele>164.2</ele>
        <time>2024-07-11T09:13:42Z</time>
      </trkpt>
      <trkpt lat="43.83503" lon="1.19535">
        <ele>164.4</ele>
        <time>2024-07-11T09:13:43Z</time>
      </trkpt>
      <trkpt lat="43.83499" lon="1.19535">
        <ele>164.6</ele>
        <time>2024-07-11T09:13:44Z</time>
      </trkpt>
      <trkpt lat="43.83496" lon="1.19536">
        <ele>164.6</ele>
        <time>2024-07-11T09:13:45Z</time>
      </trkpt>
      <trkpt lat="43.83493" lon="1.19536">
        <ele>164.8</ele>
        <time>2024-07-11T09:13:46Z</time>
      </trkpt>
      <trkpt lat="43.83491" lon="1.19536">
        <ele>165</ele>
        <time>2024-07-11T09:13:47Z</time>
      </trkpt>
      <trkpt lat="43.83488" lon="1.19536">
        <ele>165.2</ele>
        <time>2024-07-11T09:13:48Z</time>
      </trkpt>
      <trkpt lat="43.83486" lon="1.19536">
        <ele>165.4</ele>
        <time>2024-07-11T09:13:49Z</time>
      </trkpt>
      <trkpt lat="43.83484" lon="1.19535">
        <ele>165.4</ele>
        <time>2024-07-11T09:13:50Z</time>
      </trkpt>
      <trkpt lat="43.83483" lon="1.19534">
        <ele>165.6</ele>
        <time>2024-07-11T09:13:51Z</time>
      </trkpt>
      <trkpt lat="43.83481" lon="1.19533">
        <ele>165.6</ele>
        <time>2024-07-11T09:13:52Z</time>
      </trkpt>
      <trkpt lat="43.83479" lon="1.19532">
        <ele>165.6</ele>
        <time>2024-07-11T09:13:53Z</time>
      </trkpt>
      <trkpt lat="43.83477" lon="1.19532">
        <ele>165.6</ele>
        <time>2024-07-11T09:13:54Z</time>
      </trkpt>
      <trkpt lat="43.83475" lon="1.19532">
        <ele>165.8</ele>
        <time>2024-07-11T09:13:55Z</time>
      </trkpt>
      <trkpt lat="43.83472" lon="1.19533">
        <ele>165.8</ele>
        <time>2024-07-11T09:13:56Z</time>
      </trkpt>
      <trkpt lat="43.83471" lon="1.19533">
        <ele>165.8</ele>
        <time>2024-07-11T09:13:57Z</time>
      </trkpt>
      <trkpt lat="43.83468" lon="1.19534">
        <ele>165.8</ele>
        <time>2024-07-11T09:13:58Z</time>
      </trkpt>
      <trkpt lat="43.83466" lon="1.19535">
        <ele>165.8</ele>
        <time>2024-07-11T09:13:59Z</time>
      </trkpt>
      <trkpt lat="43.83465" lon="1.19535">
        <ele>165.8</ele>
        <time>2024-07-11T09:14:00Z</time>
      </trkpt>
      <trkpt lat="43.83464" lon="1.19536">
        <ele>165.8</ele>
        <time>2024-07-11T09:14:01Z</time>
      </trkpt>
      <trkpt lat="43.83463" lon="1.19536">
        <ele>165.8</ele>
        <time>2024-07-11T09:14:02Z</time>
      </trkpt>
      <trkpt lat="43.83463" lon="1.19536">
        <ele>165.8</ele>
        <time>2024-07-11T09:14:03Z</time>
      </trkpt>
      <trkpt lat="43.83465" lon="1.19537">
        <ele>165.6</ele>
        <time>2024-07-11T09:14:23Z</time>
      </trkpt>
      <trkpt lat="43.83467" lon="1.19536">
        <ele>165.6</ele>
        <time>2024-07-11T09:14:24Z</time>
      </trkpt>
      <trkpt lat="43.83469" lon="1.19536">
        <ele>165.6</ele>
        <time>2024-07-11T09:14:25Z</time>
      </trkpt>
      <trkpt lat="43.83471" lon="1.19535">
        <ele>165.4</ele>
        <time>2024-07-11T09:14:26Z</time>
      </trkpt>
      <trkpt lat="43.83473" lon="1.19535">
        <ele>165.4</ele>
        <time>2024-07-11T09:14:27Z</time>
      </trkpt>
      <trkpt lat="43.83475" lon="1.19534">
        <ele>165.4</ele>
        <time>2024-07-11T09:14:28Z</time>
      </trkpt>
      <trkpt lat="43.83477" lon="1.19534">
        <ele>165.4</ele>
        <time>2024-07-11T09:14:29Z</time>
      </trkpt>
      <trkpt lat="43.83479" lon="1.19534">
        <ele>165.4</ele>
        <time>2024-07-11T09:14:30Z</time>
      </trkpt>
      <trkpt lat="43.83482" lon="1.19534">
        <ele>165.4</ele>
        <time>2024-07-11T09:14:31Z</time>
      </trkpt>
      <trkpt lat="43.83484" lon="1.19533">
        <ele>165.2</ele>
        <time>2024-07-11T09:14:32Z</time>
      </trkpt>
      <trkpt lat="43.83486" lon="1.19531">
        <ele>165.2</ele>
        <time>2024-07-11T09:14:33Z</time>
      </trkpt>
      <trkpt lat="43.83487" lon="1.19529">
        <ele>165.2</ele>
        <time>2024-07-11T09:14:34Z</time>
      </trkpt>
      <trkpt lat="43.83487" lon="1.19526">
        <ele>165.4</ele>
        <time>2024-07-11T09:14:35Z</time>
      </trkpt>
      <trkpt lat="43.83488" lon="1.19523">
        <ele>165.6</ele>
        <time>2024-07-11T09:14:36Z</time>
      </trkpt>
      <trkpt lat="43.83488" lon="1.19519">
        <ele>165.6</ele>
        <time>2024-07-11T09:14:37Z</time>
      </trkpt>
      <trkpt lat="43.83488" lon="1.19515">
        <ele>165.6</ele>
        <time>2024-07-11T09:14:38Z</time>
      </trkpt>
      <trkpt lat="43.83489" lon="1.19511">
        <ele>165.8</ele>
        <time>2024-07-11T09:14:39Z</time>
      </trkpt>
      <trkpt lat="43.83489" lon="1.19507">
        <ele>165.8</ele>
        <time>2024-07-11T09:14:40Z</time>
      </trkpt>
      <trkpt lat="43.83489" lon="1.19503">
        <ele>166</ele>
        <time>2024-07-11T09:14:41Z</time>
      </trkpt>
      <trkpt lat="43.8349" lon="1.195">
        <ele>166</ele>
        <time>2024-07-11T09:14:42Z</time>
      </trkpt>
      <trkpt lat="43.83491" lon="1.19497">
        <ele>166</ele>
        <time>2024-07-11T09:14:43Z</time>
      </trkpt>
      <trkpt lat="43.83491" lon="1.19495">
        <ele>166</ele>
        <time>2024-07-11T09:14:44Z</time>
      </trkpt>
      <trkpt lat="43.83491" lon="1.19494">
        <ele>166.2</ele>
        <time>2024-07-11T09:14:45Z</time>
      </trkpt>
      <trkpt lat="43.83491" lon="1.19494">
        <ele>166.2</ele>
        <time>2024-07-11T09:14:46Z</time>
      </trkpt>
      <trkpt lat="43.83491" lon="1.19494">
        <ele>166.2</ele>
        <time>2024-07-11T09:14:47Z</time>
      </trkpt>
      <trkpt lat="43.83491" lon="1.19494">
        <ele>166.2</ele>
        <time>2024-07-11T09:14:48Z</time>
      </trkpt>
      <trkpt lat="43.83489" lon="1.19503">
        <ele>166.6</ele>
        <time>2024-07-11T09:17:26Z</time>
      </trkpt>
      <trkpt lat="43.8349" lon="1.19507">
        <ele>166.6</ele>
        <time>2024-07-11T09:17:27Z</time>
      </trkpt>
      <trkpt lat="43.83489" lon="1.1951">
        <ele>166.6</ele>
        <time>2024-07-11T09:17:28Z</time>
      </trkpt>
      <trkpt lat="43.83489" lon="1.19514">
        <ele>166.6</ele>
        <time>2024-07-11T09:17:29Z</time>
      </trkpt>
      <trkpt lat="43.83488" lon="1.19518">
        <ele>166.6</ele>
        <time>2024-07-11T09:17:30Z</time>
      </trkpt>
      <trkpt lat="43.83487" lon="1.19522">
        <ele>166.6</ele>
        <time>2024-07-11T09:17:31Z</time>
      </trkpt>
      <trkpt lat="43.83487" lon="1.19524">
        <ele>166.6</ele>
        <time>2024-07-11T09:17:32Z</time>
      </trkpt>
      <trkpt lat="43.83487" lon="1.19527">
        <ele>166.6</ele>
        <time>2024-07-11T09:17:33Z</time>
      </trkpt>
      <trkpt lat="43.83488" lon="1.19529">
        <ele>166.4</ele>
        <time>2024-07-11T09:17:34Z</time>
      </trkpt>
      <trkpt lat="43.83488" lon="1.1953">
        <ele>166.4</ele>
        <time>2024-07-11T09:17:35Z</time>
      </trkpt>
      <trkpt lat="43.83488" lon="1.1953">
        <ele>166.4</ele>
        <time>2024-07-11T09:17:36Z</time>
      </trkpt>
      <trkpt lat="43.83488" lon="1.1953">
        <ele>166.4</ele>
        <time>2024-07-11T09:17:37Z</time>
      </trkpt>
      <trkpt lat="43.83488" lon="1.1953">
        <ele>166.4</ele>
        <time>2024-07-11T09:17:38Z</time>
      </trkpt>
      <trkpt lat="43.83485" lon="1.19531">
        <ele>166.2</ele>
        <time>2024-07-11T09:17:51Z</time>
      </trkpt>
      <trkpt lat="43.83483" lon="1.19532">
        <ele>166.2</ele>
        <time>2024-07-11T09:17:52Z</time>
      </trkpt>
      <trkpt lat="43.8348" lon="1.19534">
        <ele>166.2</ele>
        <time>2024-07-11T09:17:53Z</time>
      </trkpt>
      <trkpt lat="43.83476" lon="1.19536">
        <ele>166.2</ele>
        <time>2024-07-11T09:17:54Z</time>
      </trkpt>
      <trkpt lat="43.83473" lon="1.19537">
        <ele>166.2</ele>
        <time>2024-07-11T09:17:55Z</time>
      </trkpt>
      <trkpt lat="43.83469" lon="1.19539">
        <ele>166.2</ele>
        <time>2024-07-11T09:17:56Z</time>
      </trkpt>
      <trkpt lat="43.83465" lon="1.1954">
        <ele>166.2</ele>
        <time>2024-07-11T09:17:57Z</time>
      </trkpt>
      <trkpt lat="43.8346" lon="1.19542">
        <ele>166.2</ele>
        <time>2024-07-11T09:17:58Z</time>
      </trkpt>
      <trkpt lat="43.83456" lon="1.19543">
        <ele>166.2</ele>
        <time>2024-07-11T09:17:59Z</time>
      </trkpt>
      <trkpt lat="43.83451" lon="1.19545">
        <ele>166.2</ele>
        <time>2024-07-11T09:18:00Z</time>
      </trkpt>
      <trkpt lat="43.83446" lon="1.19547">
        <ele>166.2</ele>
        <time>2024-07-11T09:18:01Z</time>
      </trkpt>
      <trkpt lat="43.83441" lon="1.1955">
        <ele>166.2</ele>
        <time>2024-07-11T09:18:02Z</time>
      </trkpt>
      <trkpt lat="43.83437" lon="1.19552">
        <ele>166.2</ele>
        <time>2024-07-11T09:18:03Z</time>
      </trkpt>
      <trkpt lat="43.83432" lon="1.19555">
        <ele>166.4</ele>
        <time>2024-07-11T09:18:04Z</time>
      </trkpt>
      <trkpt lat="43.83427" lon="1.19559">
        <ele>166.4</ele>
        <time>2024-07-11T09:18:05Z</time>
      </trkpt>
      <trkpt lat="43.83423" lon="1.19562">
        <ele>166.4</ele>
        <time>2024-07-11T09:18:06Z</time>
      </trkpt>
      <trkpt lat="43.83419" lon="1.19565">
        <ele>166.4</ele>
        <time>2024-07-11T09:18:07Z</time>
      </trkpt>
      <trkpt lat="43.83413" lon="1.1957">
        <ele>166.6</ele>
        <time>2024-07-11T09:18:08Z</time>
      </trkpt>
      <trkpt lat="43.83408" lon="1.19573">
        <ele>166.8</ele>
        <time>2024-07-11T09:18:09Z</time>
      </trkpt>
      <trkpt lat="43.83403" lon="1.19577">
        <ele>167</ele>
        <time>2024-07-11T09:18:10Z</time>
      </trkpt>
      <trkpt lat="43.83399" lon="1.19581">
        <ele>167.2</ele>
        <time>2024-07-11T09:18:11Z</time>
      </trkpt>
      <trkpt lat="43.83394" lon="1.19585">
        <ele>167.2</ele>
        <time>2024-07-11T09:18:12Z</time>
      </trkpt>
      <trkpt lat="43.83389" lon="1.19589">
        <ele>167.4</ele>
        <time>2024-07-11T09:18:13Z</time>
      </trkpt>
      <trkpt lat="43.83385" lon="1.19593">
        <ele>167.4</ele>
        <time>2024-07-11T09:18:14Z</time>
      </trkpt>
      <trkpt lat="43.8338" lon="1.19597">
        <ele>167.4</ele>
        <time>2024-07-11T09:18:15Z</time>
      </trkpt>
      <trkpt lat="43.83375" lon="1.196">
        <ele>167.4</ele>
        <time>2024-07-11T09:18:16Z</time>
      </trkpt>
      <trkpt lat="43.83371" lon="1.19604">
        <ele>167.4</ele>
        <time>2024-07-11T09:18:17Z</time>
      </trkpt>
      <trkpt lat="43.83366" lon="1.19608">
        <ele>167.6</ele>
        <time>2024-07-11T09:18:18Z</time>
      </trkpt>
      <trkpt lat="43.83362" lon="1.19611">
        <ele>167.6</ele>
        <time>2024-07-11T09:18:19Z</time>
      </trkpt>
      <trkpt lat="43.83357" lon="1.19615">
        <ele>167.8</ele>
        <time>2024-07-11T09:18:20Z</time>
      </trkpt>
      <trkpt lat="43.83353" lon="1.19618">
        <ele>168</ele>
        <time>2024-07-11T09:18:21Z</time>
      </trkpt>
      <trkpt lat="43.83348" lon="1.19622">
        <ele>168</ele>
        <time>2024-07-11T09:18:22Z</time>
      </trkpt>
      <trkpt lat="43.83344" lon="1.19626">
        <ele>168</ele>
        <time>2024-07-11T09:18:23Z</time>
      </trkpt>
      <trkpt lat="43.83339" lon="1.1963">
        <ele>168</ele>
        <time>2024-07-11T09:18:24Z</time>
      </trkpt>
      <trkpt lat="43.83335" lon="1.19634">
        <ele>168</ele>
        <time>2024-07-11T09:18:25Z</time>
      </trkpt>
      <trkpt lat="43.8333" lon="1.19638">
        <ele>168</ele>
        <time>2024-07-11T09:18:26Z</time>
      </trkpt>
      <trkpt lat="43.83325" lon="1.19641">
        <ele>168</ele>
        <time>2024-07-11T09:18:27Z</time>
      </trkpt>
      <trkpt lat="43.83321" lon="1.19645">
        <ele>168</ele>
        <time>2024-07-11T09:18:28Z</time>
      </trkpt>
      <trkpt lat="43.83316" lon="1.19649">
        <ele>168</ele>
        <time>2024-07-11T09:18:29Z</time>
      </trkpt>
      <trkpt lat="43.83311" lon="1.19653">
        <ele>168</ele>
        <time>2024-07-11T09:18:30Z</time>
      </trkpt>
      <trkpt lat="43.83306" lon="1.19657">
        <ele>168</ele>
        <time>2024-07-11T09:18:31Z</time>
      </trkpt>
      <trkpt lat="43.83302" lon="1.19662">
        <ele>168</ele>
        <time>2024-07-11T09:18:32Z</time>
      </trkpt>
      <trkpt lat="43.83297" lon="1.19666">
        <ele>168</ele>
        <time>2024-07-11T09:18:33Z</time>
      </trkpt>
      <trkpt lat="43.83292" lon="1.1967">
        <ele>168</ele>
        <time>2024-07-11T09:18:34Z</time>
      </trkpt>
      <trkpt lat="43.83287" lon="1.19674">
        <ele>168.2</ele>
        <time>2024-07-11T09:18:35Z</time>
      </trkpt>
      <trkpt lat="43.83282" lon="1.19678">
        <ele>168.2</ele>
        <time>2024-07-11T09:18:36Z</time>
      </trkpt>
      <trkpt lat="43.83277" lon="1.19683">
        <ele>168.4</ele>
        <time>2024-07-11T09:18:37Z</time>
      </trkpt>
      <trkpt lat="43.83272" lon="1.19687">
        <ele>168.4</ele>
        <time>2024-07-11T09:18:38Z</time>
      </trkpt>
      <trkpt lat="43.83267" lon="1.19691">
        <ele>168.4</ele>
        <time>2024-07-11T09:18:39Z</time>
      </trkpt>
      <trkpt lat="43.83262" lon="1.19696">
        <ele>168.4</ele>
        <time>2024-07-11T09:18:40Z</time>
      </trkpt>
      <trkpt lat="43.83257" lon="1.197">
        <ele>168.6</ele>
        <time>2024-07-11T09:18:41Z</time>
      </trkpt>
      <trkpt lat="43.83252" lon="1.19705">
        <ele>168.6</ele>
        <time>2024-07-11T09:18:42Z</time>
      </trkpt>
      <trkpt lat="43.83246" lon="1.1971">
        <ele>168.6</ele>
        <time>2024-07-11T09:18:43Z</time>
      </trkpt>
      <trkpt lat="43.83241" lon="1.19716">
        <ele>168.6</ele>
        <time>2024-07-11T09:18:44Z</time>
      </trkpt>
      <trkpt lat="43.83237" lon="1.1972">
        <ele>168.6</ele>
        <time>2024-07-11T09:18:45Z</time>
      </trkpt>
      <trkpt lat="43.83232" lon="1.19725">
        <ele>168.6</ele>
        <time>2024-07-11T09:18:46Z</time>
      </trkpt>
      <trkpt lat="43.83226" lon="1.19732">
        <ele>168.6</ele>
        <time>2024-07-11T09:18:47Z</time>
      </trkpt>
      <trkpt lat="43.83222" lon="1.19738">
        <ele>168.4</ele>
        <time>2024-07-11T09:18:48Z</time>
      </trkpt>
      <trkpt lat="43.83217" lon="1.19744">
        <ele>168.4</ele>
        <time>2024-07-11T09:18:49Z</time>
      </trkpt>
      <trkpt lat="43.83213" lon="1.19749">
        <ele>168.4</ele>
        <time>2024-07-11T09:18:50Z</time>
      </trkpt>
      <trkpt lat="43.83209" lon="1.19755">
        <ele>168.4</ele>
        <time>2024-07-11T09:18:51Z</time>
      </trkpt>
      <trkpt lat="43.83204" lon="1.19761">
        <ele>168.4</ele>
        <time>2024-07-11T09:18:52Z</time>
      </trkpt>
      <trkpt lat="43.832" lon="1.19768">
        <ele>168.4</ele>
        <time>2024-07-11T09:18:53Z</time>
      </trkpt>
      <trkpt lat="43.83196" lon="1.19775">
        <ele>168.4</ele>
        <time>2024-07-11T09:18:54Z</time>
      </trkpt>
      <trkpt lat="43.83191" lon="1.19782">
        <ele>168.4</ele>
        <time>2024-07-11T09:18:55Z</time>
      </trkpt>
      <trkpt lat="43.83187" lon="1.19789">
        <ele>168.2</ele>
        <time>2024-07-11T09:18:56Z</time>
      </trkpt>
      <trkpt lat="43.83182" lon="1.19797">
        <ele>168.2</ele>
        <time>2024-07-11T09:18:57Z</time>
      </trkpt>
      <trkpt lat="43.83177" lon="1.19805">
        <ele>168.2</ele>
        <time>2024-07-11T09:18:58Z</time>
      </trkpt>
      <trkpt lat="43.83173" lon="1.19812">
        <ele>168</ele>
        <time>2024-07-11T09:18:59Z</time>
      </trkpt>
      <trkpt lat="43.83169" lon="1.1982">
        <ele>167.8</ele>
        <time>2024-07-11T09:19:00Z</time>
      </trkpt>
      <trkpt lat="43.83164" lon="1.19828">
        <ele>167.8</ele>
        <time>2024-07-11T09:19:01Z</time>
      </trkpt>
      <trkpt lat="43.8316" lon="1.19836">
        <ele>167.6</ele>
        <time>2024-07-11T09:19:02Z</time>
      </trkpt>
      <trkpt lat="43.83155" lon="1.19844">
        <ele>167.4</ele>
        <time>2024-07-11T09:19:03Z</time>
      </trkpt>
      <trkpt lat="43.83151" lon="1.19853">
        <ele>167.4</ele>
        <time>2024-07-11T09:19:04Z</time>
      </trkpt>
      <trkpt lat="43.83146" lon="1.19861">
        <ele>167.2</ele>
        <time>2024-07-11T09:19:05Z</time>
      </trkpt>
      <trkpt lat="43.83142" lon="1.19869">
        <ele>167.2</ele>
        <time>2024-07-11T09:19:06Z</time>
      </trkpt>
      <trkpt lat="43.83137" lon="1.19877">
        <ele>167.2</ele>
        <time>2024-07-11T09:19:07Z</time>
      </trkpt>
      <trkpt lat="43.83132" lon="1.19885">
        <ele>167</ele>
        <time>2024-07-11T09:19:08Z</time>
      </trkpt>
      <trkpt lat="43.83126" lon="1.19893">
        <ele>167</ele>
        <time>2024-07-11T09:19:09Z</time>
      </trkpt>
      <trkpt lat="43.83121" lon="1.19901">
        <ele>166.8</ele>
        <time>2024-07-11T09:19:10Z</time>
      </trkpt>
      <trkpt lat="43.83115" lon="1.19908">
        <ele>166.8</ele>
        <time>2024-07-11T09:19:11Z</time>
      </trkpt>
      <trkpt lat="43.83109" lon="1.19914">
        <ele>166.6</ele>
        <time>2024-07-11T09:19:12Z</time>
      </trkpt>
      <trkpt lat="43.83103" lon="1.19919">
        <ele>166.6</ele>
        <time>2024-07-11T09:19:13Z</time>
      </trkpt>
      <trkpt lat="43.83097" lon="1.19924">
        <ele>166.4</ele>
        <time>2024-07-11T09:19:14Z</time>
      </trkpt>
      <trkpt lat="43.83091" lon="1.1993">
        <ele>166.4</ele>
        <time>2024-07-11T09:19:15Z</time>
      </trkpt>
      <trkpt lat="43.83085" lon="1.19935">
        <ele>166.4</ele>
        <time>2024-07-11T09:19:16Z</time>
      </trkpt>
      <trkpt lat="43.8308" lon="1.19939">
        <ele>166.4</ele>
        <time>2024-07-11T09:19:17Z</time>
      </trkpt>
      <trkpt lat="43.83074" lon="1.19945">
        <ele>166.4</ele>
        <time>2024-07-11T09:19:18Z</time>
      </trkpt>
      <trkpt lat="43.83068" lon="1.1995">
        <ele>166.4</ele>
        <time>2024-07-11T09:19:19Z</time>
      </trkpt>
      <trkpt lat="43.83063" lon="1.19955">
        <ele>166.4</ele>
        <time>2024-07-11T09:19:20Z</time>
      </trkpt>
      <trkpt lat="43.83057" lon="1.1996">
        <ele>166.4</ele>
        <time>2024-07-11T09:19:21Z</time>
      </trkpt>
      <trkpt lat="43.83052" lon="1.19963">
        <ele>166.6</ele>
        <time>2024-07-11T09:19:22Z</time>
      </trkpt>
      <trkpt lat="43.83046" lon="1.19967">
        <ele>166.8</ele>
        <time>2024-07-11T09:19:23Z</time>
      </trkpt>
      <trkpt lat="43.8304" lon="1.1997">
        <ele>166.8</ele>
        <time>2024-07-11T09:19:24Z</time>
      </trkpt>
      <trkpt lat="43.83034" lon="1.19972">
        <ele>167</ele>
        <time>2024-07-11T09:19:25Z</time>
      </trkpt>
      <trkpt lat="43.83028" lon="1.19974">
        <ele>167.2</ele>
        <time>2024-07-11T09:19:26Z</time>
      </trkpt>
      <trkpt lat="43.83022" lon="1.19976">
        <ele>167.2</ele>
        <time>2024-07-11T09:19:27Z</time>
      </trkpt>
      <trkpt lat="43.83015" lon="1.19978">
        <ele>167.4</ele>
        <time>2024-07-11T09:19:28Z</time>
      </trkpt>
      <trkpt lat="43.83009" lon="1.1998">
        <ele>167.6</ele>
        <time>2024-07-11T09:19:29Z</time>
      </trkpt>
      <trkpt lat="43.83003" lon="1.19982">
        <ele>168</ele>
        <time>2024-07-11T09:19:30Z</time>
      </trkpt>
      <trkpt lat="43.82996" lon="1.19984">
        <ele>168.2</ele>
        <time>2024-07-11T09:19:31Z</time>
      </trkpt>
      <trkpt lat="43.8299" lon="1.19985">
        <ele>168.2</ele>
        <time>2024-07-11T09:19:32Z</time>
      </trkpt>
      <trkpt lat="43.82983" lon="1.19986">
        <ele>168.2</ele>
        <time>2024-07-11T09:19:33Z</time>
      </trkpt>
      <trkpt lat="43.82977" lon="1.19988">
        <ele>168.2</ele>
        <time>2024-07-11T09:19:34Z</time>
      </trkpt>
      <trkpt lat="43.82971" lon="1.1999">
        <ele>168.4</ele>
        <time>2024-07-11T09:19:35Z</time>
      </trkpt>
      <trkpt lat="43.82965" lon="1.19992">
        <ele>168.4</ele>
        <time>2024-07-11T09:19:36Z</time>
      </trkpt>
      <trkpt lat="43.82959" lon="1.19994">
        <ele>168.4</ele>
        <time>2024-07-11T09:19:37Z</time>
      </trkpt>
      <trkpt lat="43.82952" lon="1.19996">
        <ele>168.6</ele>
        <time>2024-07-11T09:19:38Z</time>
      </trkpt>
      <trkpt lat="43.82946" lon="1.19998">
        <ele>168.6</ele>
        <time>2024-07-11T09:19:39Z</time>
      </trkpt>
      <trkpt lat="43.82939" lon="1.19999">
        <ele>168.6</ele>
        <time>2024-07-11T09:19:40Z</time>
      </trkpt>
      <trkpt lat="43.82933" lon="1.20001">
        <ele>168.6</ele>
        <time>2024-07-11T09:19:41Z</time>
      </trkpt>
      <trkpt lat="43.82926" lon="1.20003">
        <ele>168.6</ele>
        <time>2024-07-11T09:19:42Z</time>
      </trkpt>
      <trkpt lat="43.8292" lon="1.20005">
        <ele>168.6</ele>
        <time>2024-07-11T09:19:43Z</time>
      </trkpt>
      <trkpt lat="43.82914" lon="1.20008">
        <ele>168.6</ele>
        <time>2024-07-11T09:19:44Z</time>
      </trkpt>
      <trkpt lat="43.82907" lon="1.2001">
        <ele>168.6</ele>
        <time>2024-07-11T09:19:45Z</time>
      </trkpt>
      <trkpt lat="43.82901" lon="1.20011">
        <ele>168.8</ele>
        <time>2024-07-11T09:19:46Z</time>
      </trkpt>
      <trkpt lat="43.82895" lon="1.20013">
        <ele>168.8</ele>
        <time>2024-07-11T09:19:47Z</time>
      </trkpt>
      <trkpt lat="43.82888" lon="1.20015">
        <ele>169.2</ele>
        <time>2024-07-11T09:19:48Z</time>
      </trkpt>
      <trkpt lat="43.82882" lon="1.20017">
        <ele>169.2</ele>
        <time>2024-07-11T09:19:49Z</time>
      </trkpt>
      <trkpt lat="43.82875" lon="1.20018">
        <ele>169.2</ele>
        <time>2024-07-11T09:19:50Z</time>
      </trkpt>
      <trkpt lat="43.82869" lon="1.2002">
        <ele>169.2</ele>
        <time>2024-07-11T09:19:51Z</time>
      </trkpt>
      <trkpt lat="43.82863" lon="1.20022">
        <ele>169.2</ele>
        <time>2024-07-11T09:19:52Z</time>
      </trkpt>
      <trkpt lat="43.82857" lon="1.20024">
        <ele>169.2</ele>
        <time>2024-07-11T09:19:53Z</time>
      </trkpt>
      <trkpt lat="43.82851" lon="1.20027">
        <ele>169.2</ele>
        <time>2024-07-11T09:19:54Z</time>
      </trkpt>
      <trkpt lat="43.82845" lon="1.2003">
        <ele>169.2</ele>
        <time>2024-07-11T09:19:55Z</time>
      </trkpt>
      <trkpt lat="43.82839" lon="1.20034">
        <ele>169.4</ele>
        <time>2024-07-11T09:19:56Z</time>
      </trkpt>
      <trkpt lat="43.82833" lon="1.20037">
        <ele>169.4</ele>
        <time>2024-07-11T09:19:57Z</time>
      </trkpt>
      <trkpt lat="43.82828" lon="1.20041">
        <ele>169.4</ele>
        <time>2024-07-11T09:19:58Z</time>
      </trkpt>
      <trkpt lat="43.82822" lon="1.20046">
        <ele>169.4</ele>
        <time>2024-07-11T09:19:59Z</time>
      </trkpt>
      <trkpt lat="43.82816" lon="1.20051">
        <ele>169.2</ele>
        <time>2024-07-11T09:20:00Z</time>
      </trkpt>
      <trkpt lat="43.82811" lon="1.20056">
        <ele>169.2</ele>
        <time>2024-07-11T09:20:01Z</time>
      </trkpt>
      <trkpt lat="43.82806" lon="1.20061">
        <ele>169.2</ele>
        <time>2024-07-11T09:20:02Z</time>
      </trkpt>
      <trkpt lat="43.82801" lon="1.20067">
        <ele>169.4</ele>
        <time>2024-07-11T09:20:03Z</time>
      </trkpt>
      <trkpt lat="43.82796" lon="1.20073">
        <ele>169.4</ele>
        <time>2024-07-11T09:20:04Z</time>
      </trkpt>
      <trkpt lat="43.8279" lon="1.20079">
        <ele>169.4</ele>
        <time>2024-07-11T09:20:05Z</time>
      </trkpt>
      <trkpt lat="43.82785" lon="1.20085">
        <ele>169.4</ele>
        <time>2024-07-11T09:20:06Z</time>
      </trkpt>
      <trkpt lat="43.82781" lon="1.20091">
        <ele>169.4</ele>
        <time>2024-07-11T09:20:07Z</time>
      </trkpt>
      <trkpt lat="43.82776" lon="1.20097">
        <ele>169.4</ele>
        <time>2024-07-11T09:20:08Z</time>
      </trkpt>
      <trkpt lat="43.8277" lon="1.20103">
        <ele>169.4</ele>
        <time>2024-07-11T09:20:09Z</time>
      </trkpt>
      <trkpt lat="43.82765" lon="1.20109">
        <ele>169.4</ele>
        <time>2024-07-11T09:20:10Z</time>
      </trkpt>
      <trkpt lat="43.8276" lon="1.20115">
        <ele>169.6</ele>
        <time>2024-07-11T09:20:11Z</time>
      </trkpt>
      <trkpt lat="43.82755" lon="1.20121">
        <ele>169.8</ele>
        <time>2024-07-11T09:20:12Z</time>
      </trkpt>
      <trkpt lat="43.82749" lon="1.20127">
        <ele>169.8</ele>
        <time>2024-07-11T09:20:13Z</time>
      </trkpt>
      <trkpt lat="43.82749" lon="1.20127">
        <ele>169.6</ele>
        <time>2024-07-11T09:20:14Z</time>
      </trkpt>
      <trkpt lat="43.82739" lon="1.20139">
        <ele>169.6</ele>
        <time>2024-07-11T09:20:15Z</time>
      </trkpt>
      <trkpt lat="43.82734" lon="1.20146">
        <ele>169.6</ele>
        <time>2024-07-11T09:20:16Z</time>
      </trkpt>
      <trkpt lat="43.82729" lon="1.20152">
        <ele>169.4</ele>
        <time>2024-07-11T09:20:17Z</time>
      </trkpt>
      <trkpt lat="43.82724" lon="1.20159">
        <ele>169.4</ele>
        <time>2024-07-11T09:20:18Z</time>
      </trkpt>
      <trkpt lat="43.82718" lon="1.20166">
        <ele>169.4</ele>
        <time>2024-07-11T09:20:19Z</time>
      </trkpt>
      <trkpt lat="43.82713" lon="1.20172">
        <ele>169.4</ele>
        <time>2024-07-11T09:20:20Z</time>
      </trkpt>
      <trkpt lat="43.82708" lon="1.20178">
        <ele>169.4</ele>
        <time>2024-07-11T09:20:21Z</time>
      </trkpt>
      <trkpt lat="43.82702" lon="1.20184">
        <ele>169.4</ele>
        <time>2024-07-11T09:20:22Z</time>
      </trkpt>
      <trkpt lat="43.82696" lon="1.2019">
        <ele>169.4</ele>
        <time>2024-07-11T09:20:23Z</time>
      </trkpt>
      <trkpt lat="43.82691" lon="1.20196">
        <ele>169.4</ele>
        <time>2024-07-11T09:20:24Z</time>
      </trkpt>
      <trkpt lat="43.82685" lon="1.20202">
        <ele>169.4</ele>
        <time>2024-07-11T09:20:25Z</time>
      </trkpt>
      <trkpt lat="43.82679" lon="1.20208">
        <ele>169.4</ele>
        <time>2024-07-11T09:20:26Z</time>
      </trkpt>
      <trkpt lat="43.82674" lon="1.20213">
        <ele>169.6</ele>
        <time>2024-07-11T09:20:27Z</time>
      </trkpt>
      <trkpt lat="43.82668" lon="1.20219">
        <ele>169.8</ele>
        <time>2024-07-11T09:20:28Z</time>
      </trkpt>
      <trkpt lat="43.82663" lon="1.20225">
        <ele>169.6</ele>
        <time>2024-07-11T09:20:29Z</time>
      </trkpt>
      <trkpt lat="43.82657" lon="1.2023">
        <ele>169.4</ele>
        <time>2024-07-11T09:20:30Z</time>
      </trkpt>
      <trkpt lat="43.82652" lon="1.20236">
        <ele>169.4</ele>
        <time>2024-07-11T09:20:31Z</time>
      </trkpt>
      <trkpt lat="43.82646" lon="1.20242">
        <ele>169.8</ele>
        <time>2024-07-11T09:20:32Z</time>
      </trkpt>
      <trkpt lat="43.82641" lon="1.20247">
        <ele>169.8</ele>
        <time>2024-07-11T09:20:33Z</time>
      </trkpt>
      <trkpt lat="43.82635" lon="1.20253">
        <ele>169.8</ele>
        <time>2024-07-11T09:20:34Z</time>
      </trkpt>
      <trkpt lat="43.82629" lon="1.20258">
        <ele>169.8</ele>
        <time>2024-07-11T09:20:35Z</time>
      </trkpt>
      <trkpt lat="43.82623" lon="1.20264">
        <ele>169.8</ele>
        <time>2024-07-11T09:20:36Z</time>
      </trkpt>
      <trkpt lat="43.82618" lon="1.2027">
        <ele>169.8</ele>
        <time>2024-07-11T09:20:37Z</time>
      </trkpt>
      <trkpt lat="43.82611" lon="1.20276">
        <ele>169.8</ele>
        <time>2024-07-11T09:20:38Z</time>
      </trkpt>
      <trkpt lat="43.82605" lon="1.20281">
        <ele>169.6</ele>
        <time>2024-07-11T09:20:39Z</time>
      </trkpt>
      <trkpt lat="43.82599" lon="1.20287">
        <ele>169.6</ele>
        <time>2024-07-11T09:20:40Z</time>
      </trkpt>
      <trkpt lat="43.82593" lon="1.20293">
        <ele>169.6</ele>
        <time>2024-07-11T09:20:41Z</time>
      </trkpt>
      <trkpt lat="43.82587" lon="1.20299">
        <ele>169.6</ele>
        <time>2024-07-11T09:20:42Z</time>
      </trkpt>
      <trkpt lat="43.82582" lon="1.20305">
        <ele>169.6</ele>
        <time>2024-07-11T09:20:43Z</time>
      </trkpt>
      <trkpt lat="43.82576" lon="1.20311">
        <ele>169.6</ele>
        <time>2024-07-11T09:20:44Z</time>
      </trkpt>
      <trkpt lat="43.82571" lon="1.20318">
        <ele>169.6</ele>
        <time>2024-07-11T09:20:45Z</time>
      </trkpt>
      <trkpt lat="43.82566" lon="1.20325">
        <ele>169.6</ele>
        <time>2024-07-11T09:20:46Z</time>
      </trkpt>
      <trkpt lat="43.82561" lon="1.20333">
        <ele>169.4</ele>
        <time>2024-07-11T09:20:47Z</time>
      </trkpt>
      <trkpt lat="43.82557" lon="1.20341">
        <ele>169.6</ele>
        <time>2024-07-11T09:20:48Z</time>
      </trkpt>
      <trkpt lat="43.82552" lon="1.20349">
        <ele>169.6</ele>
        <time>2024-07-11T09:20:49Z</time>
      </trkpt>
      <trkpt lat="43.82547" lon="1.20357">
        <ele>169.6</ele>
        <time>2024-07-11T09:20:50Z</time>
      </trkpt>
      <trkpt lat="43.82543" lon="1.20366">
        <ele>169.4</ele>
        <time>2024-07-11T09:20:51Z</time>
      </trkpt>
      <trkpt lat="43.82538" lon="1.20374">
        <ele>169.4</ele>
        <time>2024-07-11T09:20:52Z</time>
      </trkpt>
      <trkpt lat="43.82534" lon="1.20383">
        <ele>169.6</ele>
        <time>2024-07-11T09:20:53Z</time>
      </trkpt>
      <trkpt lat="43.82529" lon="1.20391">
        <ele>169.4</ele>
        <time>2024-07-11T09:20:54Z</time>
      </trkpt>
      <trkpt lat="43.82523" lon="1.20398">
        <ele>169.4</ele>
        <time>2024-07-11T09:20:55Z</time>
      </trkpt>
      <trkpt lat="43.82517" lon="1.20405">
        <ele>169.4</ele>
        <time>2024-07-11T09:20:56Z</time>
      </trkpt>
      <trkpt lat="43.82517" lon="1.20405">
        <ele>169.4</ele>
        <time>2024-07-11T09:20:57Z</time>
      </trkpt>
      <trkpt lat="43.82504" lon="1.20417">
        <ele>169.4</ele>
        <time>2024-07-11T09:20:58Z</time>
      </trkpt>
      <trkpt lat="43.82497" lon="1.20422">
        <ele>169.4</ele>
        <time>2024-07-11T09:20:59Z</time>
      </trkpt>
      <trkpt lat="43.82491" lon="1.20427">
        <ele>169.2</ele>
        <time>2024-07-11T09:21:00Z</time>
      </trkpt>
      <trkpt lat="43.82483" lon="1.20431">
        <ele>169.2</ele>
        <time>2024-07-11T09:21:01Z</time>
      </trkpt>
      <trkpt lat="43.82476" lon="1.20435">
        <ele>169.2</ele>
        <time>2024-07-11T09:21:02Z</time>
      </trkpt>
      <trkpt lat="43.82469" lon="1.20439">
        <ele>169.2</ele>
        <time>2024-07-11T09:21:03Z</time>
      </trkpt>
      <trkpt lat="43.82462" lon="1.20443">
        <ele>169.2</ele>
        <time>2024-07-11T09:21:04Z</time>
      </trkpt>
      <trkpt lat="43.82455" lon="1.20448">
        <ele>169</ele>
        <time>2024-07-11T09:21:05Z</time>
      </trkpt>
      <trkpt lat="43.82448" lon="1.20453">
        <ele>168.6</ele>
        <time>2024-07-11T09:21:06Z</time>
      </trkpt>
      <trkpt lat="43.82441" lon="1.20458">
        <ele>168.6</ele>
        <time>2024-07-11T09:21:07Z</time>
      </trkpt>
      <trkpt lat="43.82435" lon="1.20464">
        <ele>168.4</ele>
        <time>2024-07-11T09:21:08Z</time>
      </trkpt>
      <trkpt lat="43.82431" lon="1.20473">
        <ele>168.4</ele>
        <time>2024-07-11T09:21:09Z</time>
      </trkpt>
      <trkpt lat="43.82429" lon="1.20482">
        <ele>168</ele>
        <time>2024-07-11T09:21:10Z</time>
      </trkpt>
      <trkpt lat="43.82429" lon="1.20492">
        <ele>168</ele>
        <time>2024-07-11T09:21:11Z</time>
      </trkpt>
      <trkpt lat="43.82429" lon="1.20502">
        <ele>167.8</ele>
        <time>2024-07-11T09:21:12Z</time>
      </trkpt>
      <trkpt lat="43.8243" lon="1.20512">
        <ele>167.6</ele>
        <time>2024-07-11T09:21:13Z</time>
      </trkpt>
      <trkpt lat="43.82431" lon="1.20522">
        <ele>167.6</ele>
        <time>2024-07-11T09:21:14Z</time>
      </trkpt>
      <trkpt lat="43.82433" lon="1.20534">
        <ele>167.2</ele>
        <time>2024-07-11T09:21:15Z</time>
      </trkpt>
      <trkpt lat="43.82433" lon="1.20544">
        <ele>167.2</ele>
        <time>2024-07-11T09:21:16Z</time>
      </trkpt>
      <trkpt lat="43.82433" lon="1.20555">
        <ele>167</ele>
        <time>2024-07-11T09:21:17Z</time>
      </trkpt>
      <trkpt lat="43.82433" lon="1.20563">
        <ele>166.8</ele>
        <time>2024-07-11T09:21:18Z</time>
      </trkpt>
      <trkpt lat="43.82431" lon="1.20573">
        <ele>166.6</ele>
        <time>2024-07-11T09:21:19Z</time>
      </trkpt>
      <trkpt lat="43.82429" lon="1.20583">
        <ele>166.4</ele>
        <time>2024-07-11T09:21:20Z</time>
      </trkpt>
      <trkpt lat="43.82426" lon="1.20596">
        <ele>166.2</ele>
        <time>2024-07-11T09:21:21Z</time>
      </trkpt>
      <trkpt lat="43.82423" lon="1.20606">
        <ele>166</ele>
        <time>2024-07-11T09:21:22Z</time>
      </trkpt>
      <trkpt lat="43.8242" lon="1.20614">
        <ele>165.8</ele>
        <time>2024-07-11T09:21:23Z</time>
      </trkpt>
      <trkpt lat="43.82417" lon="1.20624">
        <ele>165.8</ele>
        <time>2024-07-11T09:21:24Z</time>
      </trkpt>
      <trkpt lat="43.82413" lon="1.20634">
        <ele>165.4</ele>
        <time>2024-07-11T09:21:25Z</time>
      </trkpt>
      <trkpt lat="43.82407" lon="1.20646">
        <ele>165.4</ele>
        <time>2024-07-11T09:21:26Z</time>
      </trkpt>
      <trkpt lat="43.82401" lon="1.20654">
        <ele>165</ele>
        <time>2024-07-11T09:21:27Z</time>
      </trkpt>
      <trkpt lat="43.82396" lon="1.20661">
        <ele>165</ele>
        <time>2024-07-11T09:21:28Z</time>
      </trkpt>
      <trkpt lat="43.8239" lon="1.20669">
        <ele>164.4</ele>
        <time>2024-07-11T09:21:29Z</time>
      </trkpt>
      <trkpt lat="43.82382" lon="1.2068">
        <ele>164</ele>
        <time>2024-07-11T09:21:30Z</time>
      </trkpt>
      <trkpt lat="43.82375" lon="1.20688">
        <ele>163.8</ele>
        <time>2024-07-11T09:21:31Z</time>
      </trkpt>
      <trkpt lat="43.82368" lon="1.20696">
        <ele>163.4</ele>
        <time>2024-07-11T09:21:32Z</time>
      </trkpt>
      <trkpt lat="43.82363" lon="1.20703">
        <ele>163.4</ele>
        <time>2024-07-11T09:21:33Z</time>
      </trkpt>
      <trkpt lat="43.82356" lon="1.20711">
        <ele>163.2</ele>
        <time>2024-07-11T09:21:34Z</time>
      </trkpt>
      <trkpt lat="43.82348" lon="1.2072">
        <ele>162.4</ele>
        <time>2024-07-11T09:21:35Z</time>
      </trkpt>
      <trkpt lat="43.82341" lon="1.20727">
        <ele>162</ele>
        <time>2024-07-11T09:21:36Z</time>
      </trkpt>
      <trkpt lat="43.82334" lon="1.20734">
        <ele>161.6</ele>
        <time>2024-07-11T09:21:37Z</time>
      </trkpt>
      <trkpt lat="43.82329" lon="1.20739">
        <ele>161.4</ele>
        <time>2024-07-11T09:21:38Z</time>
      </trkpt>
      <trkpt lat="43.82323" lon="1.20745">
        <ele>161</ele>
        <time>2024-07-11T09:21:39Z</time>
      </trkpt>
      <trkpt lat="43.82315" lon="1.20752">
        <ele>160.8</ele>
        <time>2024-07-11T09:21:40Z</time>
      </trkpt>
      <trkpt lat="43.82309" lon="1.20757">
        <ele>160.8</ele>
        <time>2024-07-11T09:21:41Z</time>
      </trkpt>
      <trkpt lat="43.82303" lon="1.20762">
        <ele>160.6</ele>
        <time>2024-07-11T09:21:42Z</time>
      </trkpt>
      <trkpt lat="43.82297" lon="1.20766">
        <ele>160.6</ele>
        <time>2024-07-11T09:21:43Z</time>
      </trkpt>
      <trkpt lat="43.82293" lon="1.20769">
        <ele>160.6</ele>
        <time>2024-07-11T09:21:44Z</time>
      </trkpt>
      <trkpt lat="43.82286" lon="1.20774">
        <ele>160.6</ele>
        <time>2024-07-11T09:21:45Z</time>
      </trkpt>
      <trkpt lat="43.82281" lon="1.20778">
        <ele>160.6</ele>
        <time>2024-07-11T09:21:46Z</time>
      </trkpt>
      <trkpt lat="43.82277" lon="1.20782">
        <ele>160.6</ele>
        <time>2024-07-11T09:21:47Z</time>
      </trkpt>
      <trkpt lat="43.82272" lon="1.20785">
        <ele>160.8</ele>
        <time>2024-07-11T09:21:48Z</time>
      </trkpt>
      <trkpt lat="43.82266" lon="1.2079">
        <ele>161.2</ele>
        <time>2024-07-11T09:21:49Z</time>
      </trkpt>
      <trkpt lat="43.82261" lon="1.20793">
        <ele>161.4</ele>
        <time>2024-07-11T09:21:50Z</time>
      </trkpt>
      <trkpt lat="43.82256" lon="1.20795">
        <ele>161.8</ele>
        <time>2024-07-11T09:21:51Z</time>
      </trkpt>
      <trkpt lat="43.82251" lon="1.20797">
        <ele>162.2</ele>
        <time>2024-07-11T09:21:52Z</time>
      </trkpt>
      <trkpt lat="43.82247" lon="1.20798">
        <ele>162.6</ele>
        <time>2024-07-11T09:21:53Z</time>
      </trkpt>
      <trkpt lat="43.82241" lon="1.20799">
        <ele>163.2</ele>
        <time>2024-07-11T09:21:54Z</time>
      </trkpt>
      <trkpt lat="43.82236" lon="1.208">
        <ele>163.4</ele>
        <time>2024-07-11T09:21:55Z</time>
      </trkpt>
      <trkpt lat="43.82231" lon="1.20799">
        <ele>164</ele>
        <time>2024-07-11T09:21:56Z</time>
      </trkpt>
      <trkpt lat="43.82227" lon="1.20799">
        <ele>164.4</ele>
        <time>2024-07-11T09:21:57Z</time>
      </trkpt>
      <trkpt lat="43.82223" lon="1.20799">
        <ele>164.4</ele>
        <time>2024-07-11T09:21:58Z</time>
      </trkpt>
      <trkpt lat="43.8222" lon="1.20798">
        <ele>164.6</ele>
        <time>2024-07-11T09:21:59Z</time>
      </trkpt>
      <trkpt lat="43.82218" lon="1.20798">
        <ele>164.8</ele>
        <time>2024-07-11T09:22:00Z</time>
      </trkpt>
      <trkpt lat="43.82216" lon="1.20798">
        <ele>165</ele>
        <time>2024-07-11T09:22:01Z</time>
      </trkpt>
      <trkpt lat="43.82215" lon="1.20798">
        <ele>165.4</ele>
        <time>2024-07-11T09:22:02Z</time>
      </trkpt>
      <trkpt lat="43.82215" lon="1.20799">
        <ele>165.4</ele>
        <time>2024-07-11T09:22:03Z</time>
      </trkpt>
      <trkpt lat="43.82215" lon="1.208">
        <ele>165.6</ele>
        <time>2024-07-11T09:22:04Z</time>
      </trkpt>
      <trkpt lat="43.82215" lon="1.20802">
        <ele>165.6</ele>
        <time>2024-07-11T09:22:05Z</time>
      </trkpt>
      <trkpt lat="43.82215" lon="1.20803">
        <ele>165.8</ele>
        <time>2024-07-11T09:22:06Z</time>
      </trkpt>
      <trkpt lat="43.82216" lon="1.20805">
        <ele>165.8</ele>
        <time>2024-07-11T09:22:07Z</time>
      </trkpt>
      <trkpt lat="43.82216" lon="1.20808">
        <ele>165.8</ele>
        <time>2024-07-11T09:22:08Z</time>
      </trkpt>
      <trkpt lat="43.82216" lon="1.20812">
        <ele>165.8</ele>
        <time>2024-07-11T09:22:09Z</time>
      </trkpt>
      <trkpt lat="43.82216" lon="1.20818">
        <ele>165.8</ele>
        <time>2024-07-11T09:22:10Z</time>
      </trkpt>
      <trkpt lat="43.82216" lon="1.20823">
        <ele>165.8</ele>
        <time>2024-07-11T09:22:11Z</time>
      </trkpt>
      <trkpt lat="43.82215" lon="1.2083">
        <ele>165.6</ele>
        <time>2024-07-11T09:22:12Z</time>
      </trkpt>
      <trkpt lat="43.82215" lon="1.2084">
        <ele>165.6</ele>
        <time>2024-07-11T09:22:13Z</time>
      </trkpt>
      <trkpt lat="43.82215" lon="1.20849">
        <ele>165.2</ele>
        <time>2024-07-11T09:22:14Z</time>
      </trkpt>
      <trkpt lat="43.82217" lon="1.20859">
        <ele>165.2</ele>
        <time>2024-07-11T09:22:15Z</time>
      </trkpt>
      <trkpt lat="43.82218" lon="1.20867">
        <ele>164.8</ele>
        <time>2024-07-11T09:22:16Z</time>
      </trkpt>
      <trkpt lat="43.82221" lon="1.20878">
        <ele>164.6</ele>
        <time>2024-07-11T09:22:17Z</time>
      </trkpt>
      <trkpt lat="43.82224" lon="1.20892">
        <ele>164</ele>
        <time>2024-07-11T09:22:18Z</time>
      </trkpt>
      <trkpt lat="43.82228" lon="1.20904">
        <ele>163.6</ele>
        <time>2024-07-11T09:22:19Z</time>
      </trkpt>
      <trkpt lat="43.82231" lon="1.20915">
        <ele>163.2</ele>
        <time>2024-07-11T09:22:20Z</time>
      </trkpt>
      <trkpt lat="43.82235" lon="1.20929">
        <ele>162.4</ele>
        <time>2024-07-11T09:22:21Z</time>
      </trkpt>
      <trkpt lat="43.8224" lon="1.20946">
        <ele>162</ele>
        <time>2024-07-11T09:22:22Z</time>
      </trkpt>
      <trkpt lat="43.82244" lon="1.20962">
        <ele>161</ele>
        <time>2024-07-11T09:22:23Z</time>
      </trkpt>
      <trkpt lat="43.82247" lon="1.20978">
        <ele>160.4</ele>
        <time>2024-07-11T09:22:24Z</time>
      </trkpt>
      <trkpt lat="43.8225" lon="1.20991">
        <ele>159</ele>
        <time>2024-07-11T09:22:25Z</time>
      </trkpt>
      <trkpt lat="43.82254" lon="1.21011">
        <ele>157.6</ele>
        <time>2024-07-11T09:22:26Z</time>
      </trkpt>
      <trkpt lat="43.82258" lon="1.21028">
        <ele>157</ele>
        <time>2024-07-11T09:22:27Z</time>
      </trkpt>
      <trkpt lat="43.82261" lon="1.21046">
        <ele>156</ele>
        <time>2024-07-11T09:22:28Z</time>
      </trkpt>
      <trkpt lat="43.82264" lon="1.21063">
        <ele>155</ele>
        <time>2024-07-11T09:22:29Z</time>
      </trkpt>
      <trkpt lat="43.82267" lon="1.21081">
        <ele>153.6</ele>
        <time>2024-07-11T09:22:30Z</time>
      </trkpt>
      <trkpt lat="43.8227" lon="1.21094">
        <ele>152.4</ele>
        <time>2024-07-11T09:22:31Z</time>
      </trkpt>
      <trkpt lat="43.82274" lon="1.21115">
        <ele>151.6</ele>
        <time>2024-07-11T09:22:32Z</time>
      </trkpt>
      <trkpt lat="43.82277" lon="1.21131">
        <ele>150.2</ele>
        <time>2024-07-11T09:22:33Z</time>
      </trkpt>
      <trkpt lat="43.8228" lon="1.21144">
        <ele>149.4</ele>
        <time>2024-07-11T09:22:34Z</time>
      </trkpt>
      <trkpt lat="43.82284" lon="1.21159">
        <ele>148.2</ele>
        <time>2024-07-11T09:22:35Z</time>
      </trkpt>
      <trkpt lat="43.82289" lon="1.21177">
        <ele>147.2</ele>
        <time>2024-07-11T09:22:36Z</time>
      </trkpt>
      <trkpt lat="43.82294" lon="1.21192">
        <ele>147</ele>
        <time>2024-07-11T09:22:37Z</time>
      </trkpt>
      <trkpt lat="43.82298" lon="1.21206">
        <ele>146.4</ele>
        <time>2024-07-11T09:22:38Z</time>
      </trkpt>
      <trkpt lat="43.82301" lon="1.21217">
        <ele>146.2</ele>
        <time>2024-07-11T09:22:39Z</time>
      </trkpt>
      <trkpt lat="43.82305" lon="1.2123">
        <ele>145.6</ele>
        <time>2024-07-11T09:22:40Z</time>
      </trkpt>
      <trkpt lat="43.8231" lon="1.21245">
        <ele>145.2</ele>
        <time>2024-07-11T09:22:41Z</time>
      </trkpt>
      <trkpt lat="43.82312" lon="1.21256">
        <ele>144.4</ele>
        <time>2024-07-11T09:22:42Z</time>
      </trkpt>
      <trkpt lat="43.82312" lon="1.21267">
        <ele>144</ele>
        <time>2024-07-11T09:22:43Z</time>
      </trkpt>
      <trkpt lat="43.82309" lon="1.21275">
        <ele>144</ele>
        <time>2024-07-11T09:22:44Z</time>
      </trkpt>
      <trkpt lat="43.82304" lon="1.21282">
        <ele>143.8</ele>
        <time>2024-07-11T09:22:45Z</time>
      </trkpt>
      <trkpt lat="43.82297" lon="1.21289">
        <ele>143.6</ele>
        <time>2024-07-11T09:22:46Z</time>
      </trkpt>
      <trkpt lat="43.82291" lon="1.21294">
        <ele>143.4</ele>
        <time>2024-07-11T09:22:47Z</time>
      </trkpt>
      <trkpt lat="43.82285" lon="1.21297">
        <ele>143.4</ele>
        <time>2024-07-11T09:22:48Z</time>
      </trkpt>
      <trkpt lat="43.82279" lon="1.21301">
        <ele>143.4</ele>
        <time>2024-07-11T09:22:49Z</time>
      </trkpt>
      <trkpt lat="43.82271" lon="1.21305">
        <ele>143.2</ele>
        <time>2024-07-11T09:22:50Z</time>
      </trkpt>
      <trkpt lat="43.82264" lon="1.21308">
        <ele>143.2</ele>
        <time>2024-07-11T09:22:51Z</time>
      </trkpt>
      <trkpt lat="43.82257" lon="1.21311">
        <ele>143.2</ele>
        <time>2024-07-11T09:22:52Z</time>
      </trkpt>
      <trkpt lat="43.8225" lon="1.21314">
        <ele>143.2</ele>
        <time>2024-07-11T09:22:53Z</time>
      </trkpt>
      <trkpt lat="43.82244" lon="1.21317">
        <ele>143.2</ele>
        <time>2024-07-11T09:22:54Z</time>
      </trkpt>
      <trkpt lat="43.82237" lon="1.21321">
        <ele>143.2</ele>
        <time>2024-07-11T09:22:55Z</time>
      </trkpt>
      <trkpt lat="43.8223" lon="1.21324">
        <ele>143.2</ele>
        <time>2024-07-11T09:22:56Z</time>
      </trkpt>
      <trkpt lat="43.82223" lon="1.21328">
        <ele>143</ele>
        <time>2024-07-11T09:22:57Z</time>
      </trkpt>
      <trkpt lat="43.82218" lon="1.21331">
        <ele>143</ele>
        <time>2024-07-11T09:22:58Z</time>
      </trkpt>
      <trkpt lat="43.8221" lon="1.21335">
        <ele>143</ele>
        <time>2024-07-11T09:22:59Z</time>
      </trkpt>
      <trkpt lat="43.82202" lon="1.2134">
        <ele>143</ele>
        <time>2024-07-11T09:23:00Z</time>
      </trkpt>
      <trkpt lat="43.82194" lon="1.21344">
        <ele>143</ele>
        <time>2024-07-11T09:23:01Z</time>
      </trkpt>
      <trkpt lat="43.82188" lon="1.21348">
        <ele>142.8</ele>
        <time>2024-07-11T09:23:02Z</time>
      </trkpt>
      <trkpt lat="43.82181" lon="1.21352">
        <ele>142.6</ele>
        <time>2024-07-11T09:23:03Z</time>
      </trkpt>
      <trkpt lat="43.82174" lon="1.21357">
        <ele>142.6</ele>
        <time>2024-07-11T09:23:04Z</time>
      </trkpt>
      <trkpt lat="43.82165" lon="1.21363">
        <ele>142.6</ele>
        <time>2024-07-11T09:23:05Z</time>
      </trkpt>
      <trkpt lat="43.82158" lon="1.21368">
        <ele>142.6</ele>
        <time>2024-07-11T09:23:06Z</time>
      </trkpt>
      <trkpt lat="43.82151" lon="1.21373">
        <ele>142.4</ele>
        <time>2024-07-11T09:23:07Z</time>
      </trkpt>
      <trkpt lat="43.82145" lon="1.21377">
        <ele>142.4</ele>
        <time>2024-07-11T09:23:08Z</time>
      </trkpt>
      <trkpt lat="43.82138" lon="1.21382">
        <ele>142.4</ele>
        <time>2024-07-11T09:23:09Z</time>
      </trkpt>
      <trkpt lat="43.82129" lon="1.21388">
        <ele>142.4</ele>
        <time>2024-07-11T09:23:10Z</time>
      </trkpt>
      <trkpt lat="43.82123" lon="1.21393">
        <ele>142.2</ele>
        <time>2024-07-11T09:23:11Z</time>
      </trkpt>
      <trkpt lat="43.82116" lon="1.21399">
        <ele>142</ele>
        <time>2024-07-11T09:23:12Z</time>
      </trkpt>
      <trkpt lat="43.8211" lon="1.21403">
        <ele>142</ele>
        <time>2024-07-11T09:23:13Z</time>
      </trkpt>
      <trkpt lat="43.82102" lon="1.21409">
        <ele>142</ele>
        <time>2024-07-11T09:23:14Z</time>
      </trkpt>
      <trkpt lat="43.82095" lon="1.21414">
        <ele>142</ele>
        <time>2024-07-11T09:23:15Z</time>
      </trkpt>
      <trkpt lat="43.82088" lon="1.21418">
        <ele>142</ele>
        <time>2024-07-11T09:23:16Z</time>
      </trkpt>
      <trkpt lat="43.82082" lon="1.21422">
        <ele>141.8</ele>
        <time>2024-07-11T09:23:17Z</time>
      </trkpt>
      <trkpt lat="43.82075" lon="1.21426">
        <ele>141.8</ele>
        <time>2024-07-11T09:23:18Z</time>
      </trkpt>
      <trkpt lat="43.82066" lon="1.21432">
        <ele>141.8</ele>
        <time>2024-07-11T09:23:19Z</time>
      </trkpt>
      <trkpt lat="43.82059" lon="1.21437">
        <ele>141.8</ele>
        <time>2024-07-11T09:23:20Z</time>
      </trkpt>
      <trkpt lat="43.82052" lon="1.21442">
        <ele>141.8</ele>
        <time>2024-07-11T09:23:21Z</time>
      </trkpt>
      <trkpt lat="43.82046" lon="1.21446">
        <ele>141.6</ele>
        <time>2024-07-11T09:23:22Z</time>
      </trkpt>
      <trkpt lat="43.82039" lon="1.21451">
        <ele>141.6</ele>
        <time>2024-07-11T09:23:23Z</time>
      </trkpt>
      <trkpt lat="43.82031" lon="1.21458">
        <ele>141.4</ele>
        <time>2024-07-11T09:23:24Z</time>
      </trkpt>
      <trkpt lat="43.82024" lon="1.21464">
        <ele>141.4</ele>
        <time>2024-07-11T09:23:25Z</time>
      </trkpt>
      <trkpt lat="43.82018" lon="1.21471">
        <ele>141.4</ele>
        <time>2024-07-11T09:23:26Z</time>
      </trkpt>
      <trkpt lat="43.82013" lon="1.21476">
        <ele>141.2</ele>
        <time>2024-07-11T09:23:27Z</time>
      </trkpt>
      <trkpt lat="43.82007" lon="1.21484">
        <ele>141.2</ele>
        <time>2024-07-11T09:23:28Z</time>
      </trkpt>
      <trkpt lat="43.82002" lon="1.21491">
        <ele>141</ele>
        <time>2024-07-11T09:23:29Z</time>
      </trkpt>
      <trkpt lat="43.81995" lon="1.21499">
        <ele>141</ele>
        <time>2024-07-11T09:23:30Z</time>
      </trkpt>
      <trkpt lat="43.8199" lon="1.21505">
        <ele>141</ele>
        <time>2024-07-11T09:23:31Z</time>
      </trkpt>
      <trkpt lat="43.81984" lon="1.21513">
        <ele>140.8</ele>
        <time>2024-07-11T09:23:32Z</time>
      </trkpt>
      <trkpt lat="43.81977" lon="1.21521">
        <ele>140.8</ele>
        <time>2024-07-11T09:23:33Z</time>
      </trkpt>
      <trkpt lat="43.81972" lon="1.21529">
        <ele>140.8</ele>
        <time>2024-07-11T09:23:34Z</time>
      </trkpt>
      <trkpt lat="43.81966" lon="1.21536">
        <ele>140.8</ele>
        <time>2024-07-11T09:23:35Z</time>
      </trkpt>
      <trkpt lat="43.81961" lon="1.21542">
        <ele>141</ele>
        <time>2024-07-11T09:23:36Z</time>
      </trkpt>
      <trkpt lat="43.81955" lon="1.21549">
        <ele>140.8</ele>
        <time>2024-07-11T09:23:37Z</time>
      </trkpt>
      <trkpt lat="43.81948" lon="1.21558">
        <ele>140.6</ele>
        <time>2024-07-11T09:23:38Z</time>
      </trkpt>
      <trkpt lat="43.81943" lon="1.21566">
        <ele>140.8</ele>
        <time>2024-07-11T09:23:39Z</time>
      </trkpt>
      <trkpt lat="43.81936" lon="1.21573">
        <ele>140.8</ele>
        <time>2024-07-11T09:23:40Z</time>
      </trkpt>
      <trkpt lat="43.81932" lon="1.2158">
        <ele>140.8</ele>
        <time>2024-07-11T09:23:41Z</time>
      </trkpt>
      <trkpt lat="43.81925" lon="1.21588">
        <ele>141</ele>
        <time>2024-07-11T09:23:42Z</time>
      </trkpt>
      <trkpt lat="43.81919" lon="1.21596">
        <ele>140.8</ele>
        <time>2024-07-11T09:23:43Z</time>
      </trkpt>
      <trkpt lat="43.81912" lon="1.21605">
        <ele>141</ele>
        <time>2024-07-11T09:23:44Z</time>
      </trkpt>
      <trkpt lat="43.81906" lon="1.21613">
        <ele>141</ele>
        <time>2024-07-11T09:23:45Z</time>
      </trkpt>
      <trkpt lat="43.81901" lon="1.2162">
        <ele>141</ele>
        <time>2024-07-11T09:23:46Z</time>
      </trkpt>
      <trkpt lat="43.81894" lon="1.21628">
        <ele>141</ele>
        <time>2024-07-11T09:23:47Z</time>
      </trkpt>
      <trkpt lat="43.81887" lon="1.21637">
        <ele>141</ele>
        <time>2024-07-11T09:23:48Z</time>
      </trkpt>
      <trkpt lat="43.81881" lon="1.21645">
        <ele>141</ele>
        <time>2024-07-11T09:23:49Z</time>
      </trkpt>
      <trkpt lat="43.81876" lon="1.21651">
        <ele>141</ele>
        <time>2024-07-11T09:23:50Z</time>
      </trkpt>
      <trkpt lat="43.81869" lon="1.21658">
        <ele>141</ele>
        <time>2024-07-11T09:23:51Z</time>
      </trkpt>
      <trkpt lat="43.81862" lon="1.21668">
        <ele>141</ele>
        <time>2024-07-11T09:23:52Z</time>
      </trkpt>
      <trkpt lat="43.81856" lon="1.21675">
        <ele>141</ele>
        <time>2024-07-11T09:23:53Z</time>
      </trkpt>
      <trkpt lat="43.81849" lon="1.21683">
        <ele>141.2</ele>
        <time>2024-07-11T09:23:54Z</time>
      </trkpt>
      <trkpt lat="43.81844" lon="1.2169">
        <ele>141.2</ele>
        <time>2024-07-11T09:23:55Z</time>
      </trkpt>
      <trkpt lat="43.81838" lon="1.21697">
        <ele>141.2</ele>
        <time>2024-07-11T09:23:56Z</time>
      </trkpt>
      <trkpt lat="43.81831" lon="1.21707">
        <ele>141.2</ele>
        <time>2024-07-11T09:23:57Z</time>
      </trkpt>
      <trkpt lat="43.81825" lon="1.21715">
        <ele>141</ele>
        <time>2024-07-11T09:23:58Z</time>
      </trkpt>
      <trkpt lat="43.8182" lon="1.21723">
        <ele>141</ele>
        <time>2024-07-11T09:23:59Z</time>
      </trkpt>
      <trkpt lat="43.81816" lon="1.2173">
        <ele>141</ele>
        <time>2024-07-11T09:24:00Z</time>
      </trkpt>
      <trkpt lat="43.81812" lon="1.2174">
        <ele>141</ele>
        <time>2024-07-11T09:24:01Z</time>
      </trkpt>
      <trkpt lat="43.81809" lon="1.21753">
        <ele>141</ele>
        <time>2024-07-11T09:24:02Z</time>
      </trkpt>
      <trkpt lat="43.81808" lon="1.21762">
        <ele>141</ele>
        <time>2024-07-11T09:24:03Z</time>
      </trkpt>
      <trkpt lat="43.81809" lon="1.21776">
        <ele>141</ele>
        <time>2024-07-11T09:24:04Z</time>
      </trkpt>
      <trkpt lat="43.8181" lon="1.21784">
        <ele>141</ele>
        <time>2024-07-11T09:24:05Z</time>
      </trkpt>
      <trkpt lat="43.81813" lon="1.21795">
        <ele>141</ele>
        <time>2024-07-11T09:24:06Z</time>
      </trkpt>
      <trkpt lat="43.81816" lon="1.21808">
        <ele>141</ele>
        <time>2024-07-11T09:24:07Z</time>
      </trkpt>
      <trkpt lat="43.81819" lon="1.21819">
        <ele>141</ele>
        <time>2024-07-11T09:24:08Z</time>
      </trkpt>
      <trkpt lat="43.81822" lon="1.2183">
        <ele>141.2</ele>
        <time>2024-07-11T09:24:09Z</time>
      </trkpt>
      <trkpt lat="43.81824" lon="1.21838">
        <ele>141.2</ele>
        <time>2024-07-11T09:24:10Z</time>
      </trkpt>
      <trkpt lat="43.81826" lon="1.21849">
        <ele>141.2</ele>
        <time>2024-07-11T09:24:11Z</time>
      </trkpt>
      <trkpt lat="43.81828" lon="1.21863">
        <ele>141.2</ele>
        <time>2024-07-11T09:24:12Z</time>
      </trkpt>
      <trkpt lat="43.8183" lon="1.21874">
        <ele>141.2</ele>
        <time>2024-07-11T09:24:13Z</time>
      </trkpt>
      <trkpt lat="43.81831" lon="1.21883">
        <ele>141.2</ele>
        <time>2024-07-11T09:24:14Z</time>
      </trkpt>
      <trkpt lat="43.81832" lon="1.21894">
        <ele>141.2</ele>
        <time>2024-07-11T09:24:15Z</time>
      </trkpt>
      <trkpt lat="43.81833" lon="1.21908">
        <ele>141.2</ele>
        <time>2024-07-11T09:24:16Z</time>
      </trkpt>
      <trkpt lat="43.81834" lon="1.21919">
        <ele>141.2</ele>
        <time>2024-07-11T09:24:17Z</time>
      </trkpt>
      <trkpt lat="43.81834" lon="1.21931">
        <ele>141.2</ele>
        <time>2024-07-11T09:24:18Z</time>
      </trkpt>
      <trkpt lat="43.81834" lon="1.2194">
        <ele>141.2</ele>
        <time>2024-07-11T09:24:19Z</time>
      </trkpt>
      <trkpt lat="43.81834" lon="1.21952">
        <ele>141.2</ele>
        <time>2024-07-11T09:24:20Z</time>
      </trkpt>
      <trkpt lat="43.81833" lon="1.21965">
        <ele>141.2</ele>
        <time>2024-07-11T09:24:21Z</time>
      </trkpt>
      <trkpt lat="43.81832" lon="1.21976">
        <ele>141.2</ele>
        <time>2024-07-11T09:24:22Z</time>
      </trkpt>
      <trkpt lat="43.81832" lon="1.21987">
        <ele>141.2</ele>
        <time>2024-07-11T09:24:23Z</time>
      </trkpt>
      <trkpt lat="43.81832" lon="1.21998">
        <ele>141.2</ele>
        <time>2024-07-11T09:24:24Z</time>
      </trkpt>
      <trkpt lat="43.81832" lon="1.22007">
        <ele>141.2</ele>
        <time>2024-07-11T09:24:25Z</time>
      </trkpt>
      <trkpt lat="43.81831" lon="1.2202">
        <ele>141.2</ele>
        <time>2024-07-11T09:24:26Z</time>
      </trkpt>
      <trkpt lat="43.81831" lon="1.22031">
        <ele>141.2</ele>
        <time>2024-07-11T09:24:27Z</time>
      </trkpt>
      <trkpt lat="43.81831" lon="1.2204">
        <ele>141</ele>
        <time>2024-07-11T09:24:28Z</time>
      </trkpt>
      <trkpt lat="43.8183" lon="1.22051">
        <ele>141</ele>
        <time>2024-07-11T09:24:29Z</time>
      </trkpt>
      <trkpt lat="43.8183" lon="1.22062">
        <ele>140.8</ele>
        <time>2024-07-11T09:24:30Z</time>
      </trkpt>
      <trkpt lat="43.81829" lon="1.22075">
        <ele>140.8</ele>
        <time>2024-07-11T09:24:31Z</time>
      </trkpt>
      <trkpt lat="43.81827" lon="1.22086">
        <ele>140.8</ele>
        <time>2024-07-11T09:24:32Z</time>
      </trkpt>
      <trkpt lat="43.81825" lon="1.22094">
        <ele>140.8</ele>
        <time>2024-07-11T09:24:33Z</time>
      </trkpt>
      <trkpt lat="43.81823" lon="1.22105">
        <ele>140.8</ele>
        <time>2024-07-11T09:24:34Z</time>
      </trkpt>
      <trkpt lat="43.81818" lon="1.22116">
        <ele>140.8</ele>
        <time>2024-07-11T09:24:35Z</time>
      </trkpt>
      <trkpt lat="43.81815" lon="1.22126">
        <ele>140.6</ele>
        <time>2024-07-11T09:24:36Z</time>
      </trkpt>
      <trkpt lat="43.81811" lon="1.22135">
        <ele>140.6</ele>
        <time>2024-07-11T09:24:37Z</time>
      </trkpt>
      <trkpt lat="43.81808" lon="1.22142">
        <ele>140.6</ele>
        <time>2024-07-11T09:24:38Z</time>
      </trkpt>
      <trkpt lat="43.81803" lon="1.22151">
        <ele>140.8</ele>
        <time>2024-07-11T09:24:39Z</time>
      </trkpt>
      <trkpt lat="43.81798" lon="1.22162">
        <ele>140.6</ele>
        <time>2024-07-11T09:24:40Z</time>
      </trkpt>
      <trkpt lat="43.81794" lon="1.22171">
        <ele>140.6</ele>
        <time>2024-07-11T09:24:41Z</time>
      </trkpt>
      <trkpt lat="43.81791" lon="1.22178">
        <ele>140.6</ele>
        <time>2024-07-11T09:24:42Z</time>
      </trkpt>
      <trkpt lat="43.81787" lon="1.22187">
        <ele>140.6</ele>
        <time>2024-07-11T09:24:43Z</time>
      </trkpt>
      <trkpt lat="43.81782" lon="1.22198">
        <ele>140.6</ele>
        <time>2024-07-11T09:24:44Z</time>
      </trkpt>
      <trkpt lat="43.81778" lon="1.22207">
        <ele>140.6</ele>
        <time>2024-07-11T09:24:45Z</time>
      </trkpt>
      <trkpt lat="43.81774" lon="1.22216">
        <ele>140.4</ele>
        <time>2024-07-11T09:24:46Z</time>
      </trkpt>
      <trkpt lat="43.81771" lon="1.22223">
        <ele>140.4</ele>
        <time>2024-07-11T09:24:47Z</time>
      </trkpt>
      <trkpt lat="43.81768" lon="1.22232">
        <ele>140.6</ele>
        <time>2024-07-11T09:24:48Z</time>
      </trkpt>
      <trkpt lat="43.81764" lon="1.22243">
        <ele>140.6</ele>
        <time>2024-07-11T09:24:49Z</time>
      </trkpt>
      <trkpt lat="43.81761" lon="1.22253">
        <ele>140.6</ele>
        <time>2024-07-11T09:24:50Z</time>
      </trkpt>
      <trkpt lat="43.81758" lon="1.22263">
        <ele>140.6</ele>
        <time>2024-07-11T09:24:51Z</time>
      </trkpt>
      <trkpt lat="43.81756" lon="1.2227">
        <ele>140.8</ele>
        <time>2024-07-11T09:24:52Z</time>
      </trkpt>
      <trkpt lat="43.81753" lon="1.2228">
        <ele>140.8</ele>
        <time>2024-07-11T09:24:53Z</time>
      </trkpt>
      <trkpt lat="43.81749" lon="1.22292">
        <ele>141</ele>
        <time>2024-07-11T09:24:54Z</time>
      </trkpt>
      <trkpt lat="43.81746" lon="1.22302">
        <ele>141</ele>
        <time>2024-07-11T09:24:55Z</time>
      </trkpt>
      <trkpt lat="43.81744" lon="1.22311">
        <ele>141.2</ele>
        <time>2024-07-11T09:24:56Z</time>
      </trkpt>
      <trkpt lat="43.81742" lon="1.22319">
        <ele>141.2</ele>
        <time>2024-07-11T09:24:57Z</time>
      </trkpt>
      <trkpt lat="43.81739" lon="1.22328">
        <ele>141.2</ele>
        <time>2024-07-11T09:24:58Z</time>
      </trkpt>
      <trkpt lat="43.81736" lon="1.22339">
        <ele>141.4</ele>
        <time>2024-07-11T09:24:59Z</time>
      </trkpt>
      <trkpt lat="43.81734" lon="1.22348">
        <ele>141.4</ele>
        <time>2024-07-11T09:25:00Z</time>
      </trkpt>
      <trkpt lat="43.81732" lon="1.22354">
        <ele>141.4</ele>
        <time>2024-07-11T09:25:01Z</time>
      </trkpt>
      <trkpt lat="43.8173" lon="1.22361">
        <ele>141.4</ele>
        <time>2024-07-11T09:25:02Z</time>
      </trkpt>
      <trkpt lat="43.81728" lon="1.22367">
        <ele>141.4</ele>
        <time>2024-07-11T09:25:03Z</time>
      </trkpt>
      <trkpt lat="43.81726" lon="1.22372">
        <ele>141.4</ele>
        <time>2024-07-11T09:25:04Z</time>
      </trkpt>
      <trkpt lat="43.81724" lon="1.22376">
        <ele>141.4</ele>
        <time>2024-07-11T09:25:05Z</time>
      </trkpt>
      <trkpt lat="43.81723" lon="1.22379">
        <ele>141.6</ele>
        <time>2024-07-11T09:25:06Z</time>
      </trkpt>
      <trkpt lat="43.8172" lon="1.22384">
        <ele>141.6</ele>
        <time>2024-07-11T09:25:07Z</time>
      </trkpt>
      <trkpt lat="43.81717" lon="1.2239">
        <ele>141.6</ele>
        <time>2024-07-11T09:25:08Z</time>
      </trkpt>
      <trkpt lat="43.81714" lon="1.22395">
        <ele>141.6</ele>
        <time>2024-07-11T09:25:09Z</time>
      </trkpt>
      <trkpt lat="43.8171" lon="1.22401">
        <ele>141.6</ele>
        <time>2024-07-11T09:25:10Z</time>
      </trkpt>
      <trkpt lat="43.81707" lon="1.22406">
        <ele>141.6</ele>
        <time>2024-07-11T09:25:11Z</time>
      </trkpt>
      <trkpt lat="43.81702" lon="1.22413">
        <ele>141.6</ele>
        <time>2024-07-11T09:25:12Z</time>
      </trkpt>
      <trkpt lat="43.81698" lon="1.22418">
        <ele>141.4</ele>
        <time>2024-07-11T09:25:13Z</time>
      </trkpt>
      <trkpt lat="43.81692" lon="1.22425">
        <ele>141.4</ele>
        <time>2024-07-11T09:25:14Z</time>
      </trkpt>
      <trkpt lat="43.81689" lon="1.22431">
        <ele>141.4</ele>
        <time>2024-07-11T09:25:15Z</time>
      </trkpt>
      <trkpt lat="43.81684" lon="1.22438">
        <ele>141.4</ele>
        <time>2024-07-11T09:25:16Z</time>
      </trkpt>
      <trkpt lat="43.81678" lon="1.22446">
        <ele>141.2</ele>
        <time>2024-07-11T09:25:17Z</time>
      </trkpt>
      <trkpt lat="43.81673" lon="1.22453">
        <ele>141.2</ele>
        <time>2024-07-11T09:25:18Z</time>
      </trkpt>
      <trkpt lat="43.81668" lon="1.2246">
        <ele>141</ele>
        <time>2024-07-11T09:25:19Z</time>
      </trkpt>
      <trkpt lat="43.81663" lon="1.22466">
        <ele>141</ele>
        <time>2024-07-11T09:25:20Z</time>
      </trkpt>
      <trkpt lat="43.81658" lon="1.22473">
        <ele>141</ele>
        <time>2024-07-11T09:25:21Z</time>
      </trkpt>
      <trkpt lat="43.81651" lon="1.22482">
        <ele>141</ele>
        <time>2024-07-11T09:25:22Z</time>
      </trkpt>
      <trkpt lat="43.81645" lon="1.22489">
        <ele>141</ele>
        <time>2024-07-11T09:25:23Z</time>
      </trkpt>
      <trkpt lat="43.8164" lon="1.22497">
        <ele>141</ele>
        <time>2024-07-11T09:25:24Z</time>
      </trkpt>
      <trkpt lat="43.81635" lon="1.22503">
        <ele>141</ele>
        <time>2024-07-11T09:25:25Z</time>
      </trkpt>
      <trkpt lat="43.81629" lon="1.22511">
        <ele>141</ele>
        <time>2024-07-11T09:25:26Z</time>
      </trkpt>
      <trkpt lat="43.81622" lon="1.2252">
        <ele>141</ele>
        <time>2024-07-11T09:25:27Z</time>
      </trkpt>
      <trkpt lat="43.81616" lon="1.22528">
        <ele>141</ele>
        <time>2024-07-11T09:25:28Z</time>
      </trkpt>
      <trkpt lat="43.8161" lon="1.22536">
        <ele>141</ele>
        <time>2024-07-11T09:25:29Z</time>
      </trkpt>
      <trkpt lat="43.81606" lon="1.22543">
        <ele>141</ele>
        <time>2024-07-11T09:25:30Z</time>
      </trkpt>
      <trkpt lat="43.816" lon="1.22551">
        <ele>141</ele>
        <time>2024-07-11T09:25:31Z</time>
      </trkpt>
      <trkpt lat="43.81594" lon="1.22562">
        <ele>141</ele>
        <time>2024-07-11T09:25:32Z</time>
      </trkpt>
      <trkpt lat="43.81591" lon="1.22569">
        <ele>141</ele>
        <time>2024-07-11T09:25:33Z</time>
      </trkpt>
      <trkpt lat="43.81585" lon="1.2258">
        <ele>141</ele>
        <time>2024-07-11T09:25:34Z</time>
      </trkpt>
      <trkpt lat="43.81581" lon="1.22588">
        <ele>141</ele>
        <time>2024-07-11T09:25:35Z</time>
      </trkpt>
      <trkpt lat="43.81577" lon="1.22598">
        <ele>141</ele>
        <time>2024-07-11T09:25:36Z</time>
      </trkpt>
      <trkpt lat="43.81572" lon="1.22609">
        <ele>140.8</ele>
        <time>2024-07-11T09:25:37Z</time>
      </trkpt>
      <trkpt lat="43.81568" lon="1.2262">
        <ele>140.8</ele>
        <time>2024-07-11T09:25:38Z</time>
      </trkpt>
      <trkpt lat="43.81564" lon="1.2263">
        <ele>140.6</ele>
        <time>2024-07-11T09:25:39Z</time>
      </trkpt>
      <trkpt lat="43.8156" lon="1.22638">
        <ele>140.4</ele>
        <time>2024-07-11T09:25:40Z</time>
      </trkpt>
      <trkpt lat="43.81556" lon="1.22649">
        <ele>140.4</ele>
        <time>2024-07-11T09:25:41Z</time>
      </trkpt>
      <trkpt lat="43.81552" lon="1.22661">
        <ele>140.4</ele>
        <time>2024-07-11T09:25:42Z</time>
      </trkpt>
      <trkpt lat="43.81548" lon="1.22672">
        <ele>140.4</ele>
        <time>2024-07-11T09:25:43Z</time>
      </trkpt>
      <trkpt lat="43.81544" lon="1.22683">
        <ele>140.6</ele>
        <time>2024-07-11T09:25:44Z</time>
      </trkpt>
      <trkpt lat="43.81541" lon="1.22691">
        <ele>140.6</ele>
        <time>2024-07-11T09:25:45Z</time>
      </trkpt>
      <trkpt lat="43.81537" lon="1.22702">
        <ele>140.6</ele>
        <time>2024-07-11T09:25:46Z</time>
      </trkpt>
      <trkpt lat="43.81533" lon="1.22714">
        <ele>140.6</ele>
        <time>2024-07-11T09:25:47Z</time>
      </trkpt>
      <trkpt lat="43.81529" lon="1.22724">
        <ele>140.6</ele>
        <time>2024-07-11T09:25:48Z</time>
      </trkpt>
      <trkpt lat="43.81525" lon="1.22732">
        <ele>140.6</ele>
        <time>2024-07-11T09:25:49Z</time>
      </trkpt>
      <trkpt lat="43.81521" lon="1.22741">
        <ele>140.6</ele>
        <time>2024-07-11T09:25:50Z</time>
      </trkpt>
      <trkpt lat="43.81517" lon="1.2275">
        <ele>140.6</ele>
        <time>2024-07-11T09:25:51Z</time>
      </trkpt>
      <trkpt lat="43.81512" lon="1.22761">
        <ele>140.8</ele>
        <time>2024-07-11T09:25:52Z</time>
      </trkpt>
      <trkpt lat="43.81507" lon="1.22771">
        <ele>140.8</ele>
        <time>2024-07-11T09:25:53Z</time>
      </trkpt>
      <trkpt lat="43.81504" lon="1.22778">
        <ele>140.8</ele>
        <time>2024-07-11T09:25:54Z</time>
      </trkpt>
      <trkpt lat="43.81499" lon="1.22788">
        <ele>140.8</ele>
        <time>2024-07-11T09:25:55Z</time>
      </trkpt>
      <trkpt lat="43.81493" lon="1.22799">
        <ele>141</ele>
        <time>2024-07-11T09:25:56Z</time>
      </trkpt>
      <trkpt lat="43.81489" lon="1.22809">
        <ele>141</ele>
        <time>2024-07-11T09:25:57Z</time>
      </trkpt>
      <trkpt lat="43.81484" lon="1.2282">
        <ele>141</ele>
        <time>2024-07-11T09:25:58Z</time>
      </trkpt>
      <trkpt lat="43.8148" lon="1.22828">
        <ele>141</ele>
        <time>2024-07-11T09:25:59Z</time>
      </trkpt>
      <trkpt lat="43.81476" lon="1.22838">
        <ele>141</ele>
        <time>2024-07-11T09:26:00Z</time>
      </trkpt>
      <trkpt lat="43.81471" lon="1.22849">
        <ele>141</ele>
        <time>2024-07-11T09:26:01Z</time>
      </trkpt>
      <trkpt lat="43.81466" lon="1.22861">
        <ele>141</ele>
        <time>2024-07-11T09:26:02Z</time>
      </trkpt>
      <trkpt lat="43.81462" lon="1.2287">
        <ele>141</ele>
        <time>2024-07-11T09:26:03Z</time>
      </trkpt>
      <trkpt lat="43.81457" lon="1.2288">
        <ele>140.8</ele>
        <time>2024-07-11T09:26:04Z</time>
      </trkpt>
      <trkpt lat="43.81452" lon="1.22893">
        <ele>140.8</ele>
        <time>2024-07-11T09:26:05Z</time>
      </trkpt>
      <trkpt lat="43.81447" lon="1.22903">
        <ele>140.8</ele>
        <time>2024-07-11T09:26:06Z</time>
      </trkpt>
      <trkpt lat="43.81444" lon="1.22911">
        <ele>140.8</ele>
        <time>2024-07-11T09:26:07Z</time>
      </trkpt>
      <trkpt lat="43.8144" lon="1.22921">
        <ele>140.8</ele>
        <time>2024-07-11T09:26:08Z</time>
      </trkpt>
      <trkpt lat="43.81435" lon="1.22932">
        <ele>140.8</ele>
        <time>2024-07-11T09:26:09Z</time>
      </trkpt>
      <trkpt lat="43.8143" lon="1.22945">
        <ele>140.8</ele>
        <time>2024-07-11T09:26:10Z</time>
      </trkpt>
      <trkpt lat="43.81426" lon="1.22955">
        <ele>140.6</ele>
        <time>2024-07-11T09:26:11Z</time>
      </trkpt>
      <trkpt lat="43.81421" lon="1.22965">
        <ele>140.6</ele>
        <time>2024-07-11T09:26:12Z</time>
      </trkpt>
      <trkpt lat="43.81418" lon="1.22973">
        <ele>140.6</ele>
        <time>2024-07-11T09:26:13Z</time>
      </trkpt>
      <trkpt lat="43.81414" lon="1.22983">
        <ele>140.6</ele>
        <time>2024-07-11T09:26:14Z</time>
      </trkpt>
      <trkpt lat="43.81408" lon="1.22995">
        <ele>140.6</ele>
        <time>2024-07-11T09:26:15Z</time>
      </trkpt>
      <trkpt lat="43.81405" lon="1.23005">
        <ele>140.6</ele>
        <time>2024-07-11T09:26:16Z</time>
      </trkpt>
      <trkpt lat="43.81401" lon="1.23013">
        <ele>140.6</ele>
        <time>2024-07-11T09:26:17Z</time>
      </trkpt>
      <trkpt lat="43.81398" lon="1.23023">
        <ele>140.6</ele>
        <time>2024-07-11T09:26:18Z</time>
      </trkpt>
      <trkpt lat="43.81394" lon="1.23033">
        <ele>140.4</ele>
        <time>2024-07-11T09:26:19Z</time>
      </trkpt>
      <trkpt lat="43.81389" lon="1.23044">
        <ele>140.4</ele>
        <time>2024-07-11T09:26:20Z</time>
      </trkpt>
      <trkpt lat="43.81386" lon="1.23054">
        <ele>140.4</ele>
        <time>2024-07-11T09:26:21Z</time>
      </trkpt>
      <trkpt lat="43.81383" lon="1.23062">
        <ele>140.4</ele>
        <time>2024-07-11T09:26:22Z</time>
      </trkpt>
      <trkpt lat="43.81379" lon="1.23072">
        <ele>140.2</ele>
        <time>2024-07-11T09:26:23Z</time>
      </trkpt>
      <trkpt lat="43.81374" lon="1.23084">
        <ele>140.2</ele>
        <time>2024-07-11T09:26:24Z</time>
      </trkpt>
      <trkpt lat="43.81371" lon="1.23094">
        <ele>140.2</ele>
        <time>2024-07-11T09:26:25Z</time>
      </trkpt>
      <trkpt lat="43.81367" lon="1.23105">
        <ele>140.2</ele>
        <time>2024-07-11T09:26:26Z</time>
      </trkpt>
      <trkpt lat="43.81364" lon="1.23113">
        <ele>140.2</ele>
        <time>2024-07-11T09:26:27Z</time>
      </trkpt>
      <trkpt lat="43.8136" lon="1.23123">
        <ele>140.4</ele>
        <time>2024-07-11T09:26:28Z</time>
      </trkpt>
      <trkpt lat="43.81355" lon="1.23135">
        <ele>140.6</ele>
        <time>2024-07-11T09:26:29Z</time>
      </trkpt>
      <trkpt lat="43.81351" lon="1.23146">
        <ele>140.4</ele>
        <time>2024-07-11T09:26:30Z</time>
      </trkpt>
      <trkpt lat="43.81347" lon="1.23156">
        <ele>140.6</ele>
        <time>2024-07-11T09:26:31Z</time>
      </trkpt>
      <trkpt lat="43.81343" lon="1.23164">
        <ele>140.8</ele>
        <time>2024-07-11T09:26:32Z</time>
      </trkpt>
      <trkpt lat="43.81339" lon="1.23175">
        <ele>141</ele>
        <time>2024-07-11T09:26:33Z</time>
      </trkpt>
      <trkpt lat="43.81334" lon="1.23187">
        <ele>141</ele>
        <time>2024-07-11T09:26:34Z</time>
      </trkpt>
      <trkpt lat="43.8133" lon="1.23197">
        <ele>141.2</ele>
        <time>2024-07-11T09:26:35Z</time>
      </trkpt>
      <trkpt lat="43.81327" lon="1.23206">
        <ele>141.4</ele>
        <time>2024-07-11T09:26:36Z</time>
      </trkpt>
      <trkpt lat="43.81324" lon="1.23216">
        <ele>141.4</ele>
        <time>2024-07-11T09:26:37Z</time>
      </trkpt>
      <trkpt lat="43.81319" lon="1.23228">
        <ele>141.4</ele>
        <time>2024-07-11T09:26:38Z</time>
      </trkpt>
      <trkpt lat="43.81314" lon="1.23238">
        <ele>141.4</ele>
        <time>2024-07-11T09:26:39Z</time>
      </trkpt>
      <trkpt lat="43.81309" lon="1.23248">
        <ele>141.4</ele>
        <time>2024-07-11T09:26:40Z</time>
      </trkpt>
      <trkpt lat="43.81305" lon="1.23256">
        <ele>141.4</ele>
        <time>2024-07-11T09:26:41Z</time>
      </trkpt>
      <trkpt lat="43.813" lon="1.23267">
        <ele>141.4</ele>
        <time>2024-07-11T09:26:42Z</time>
      </trkpt>
      <trkpt lat="43.81294" lon="1.23276">
        <ele>141.4</ele>
        <time>2024-07-11T09:26:43Z</time>
      </trkpt>
      <trkpt lat="43.81289" lon="1.23286">
        <ele>141.4</ele>
        <time>2024-07-11T09:26:44Z</time>
      </trkpt>
      <trkpt lat="43.81283" lon="1.23295">
        <ele>141.6</ele>
        <time>2024-07-11T09:26:45Z</time>
      </trkpt>
      <trkpt lat="43.81279" lon="1.23302">
        <ele>141.6</ele>
        <time>2024-07-11T09:26:46Z</time>
      </trkpt>
      <trkpt lat="43.81273" lon="1.23311">
        <ele>141.8</ele>
        <time>2024-07-11T09:26:47Z</time>
      </trkpt>
      <trkpt lat="43.81266" lon="1.23322">
        <ele>141.8</ele>
        <time>2024-07-11T09:26:48Z</time>
      </trkpt>
      <trkpt lat="43.8126" lon="1.23331">
        <ele>141.8</ele>
        <time>2024-07-11T09:26:49Z</time>
      </trkpt>
      <trkpt lat="43.81256" lon="1.23338">
        <ele>142</ele>
        <time>2024-07-11T09:26:50Z</time>
      </trkpt>
      <trkpt lat="43.8125" lon="1.23348">
        <ele>142</ele>
        <time>2024-07-11T09:26:51Z</time>
      </trkpt>
      <trkpt lat="43.81245" lon="1.23357">
        <ele>142</ele>
        <time>2024-07-11T09:26:52Z</time>
      </trkpt>
      <trkpt lat="43.81239" lon="1.23366">
        <ele>142</ele>
        <time>2024-07-11T09:26:53Z</time>
      </trkpt>
      <trkpt lat="43.81233" lon="1.23376">
        <ele>142.2</ele>
        <time>2024-07-11T09:26:54Z</time>
      </trkpt>
      <trkpt lat="43.81229" lon="1.23383">
        <ele>142.2</ele>
        <time>2024-07-11T09:26:55Z</time>
      </trkpt>
      <trkpt lat="43.81224" lon="1.23392">
        <ele>142.2</ele>
        <time>2024-07-11T09:26:56Z</time>
      </trkpt>
      <trkpt lat="43.81218" lon="1.23401">
        <ele>142.2</ele>
        <time>2024-07-11T09:26:57Z</time>
      </trkpt>
      <trkpt lat="43.81212" lon="1.23412">
        <ele>142.2</ele>
        <time>2024-07-11T09:26:58Z</time>
      </trkpt>
      <trkpt lat="43.81207" lon="1.23422">
        <ele>142</ele>
        <time>2024-07-11T09:26:59Z</time>
      </trkpt>
      <trkpt lat="43.81204" lon="1.23429">
        <ele>142.2</ele>
        <time>2024-07-11T09:27:00Z</time>
      </trkpt>
      <trkpt lat="43.81199" lon="1.23439">
        <ele>142.2</ele>
        <time>2024-07-11T09:27:01Z</time>
      </trkpt>
      <trkpt lat="43.81193" lon="1.2345">
        <ele>142.2</ele>
        <time>2024-07-11T09:27:02Z</time>
      </trkpt>
      <trkpt lat="43.81188" lon="1.2346">
        <ele>142.2</ele>
        <time>2024-07-11T09:27:03Z</time>
      </trkpt>
      <trkpt lat="43.81183" lon="1.2347">
        <ele>142.2</ele>
        <time>2024-07-11T09:27:04Z</time>
      </trkpt>
      <trkpt lat="43.81179" lon="1.23477">
        <ele>142.2</ele>
        <time>2024-07-11T09:27:05Z</time>
      </trkpt>
      <trkpt lat="43.81174" lon="1.23487">
        <ele>142.2</ele>
        <time>2024-07-11T09:27:06Z</time>
      </trkpt>
      <trkpt lat="43.81167" lon="1.23499">
        <ele>142.2</ele>
        <time>2024-07-11T09:27:07Z</time>
      </trkpt>
      <trkpt lat="43.81162" lon="1.23508">
        <ele>142.2</ele>
        <time>2024-07-11T09:27:08Z</time>
      </trkpt>
      <trkpt lat="43.81158" lon="1.23518">
        <ele>142.2</ele>
        <time>2024-07-11T09:27:09Z</time>
      </trkpt>
      <trkpt lat="43.81154" lon="1.23525">
        <ele>142.2</ele>
        <time>2024-07-11T09:27:10Z</time>
      </trkpt>
      <trkpt lat="43.81149" lon="1.23535">
        <ele>142.2</ele>
        <time>2024-07-11T09:27:11Z</time>
      </trkpt>
      <trkpt lat="43.81143" lon="1.23546">
        <ele>142.2</ele>
        <time>2024-07-11T09:27:12Z</time>
      </trkpt>
      <trkpt lat="43.81138" lon="1.23556">
        <ele>142.2</ele>
        <time>2024-07-11T09:27:13Z</time>
      </trkpt>
      <trkpt lat="43.81134" lon="1.23563">
        <ele>142.4</ele>
        <time>2024-07-11T09:27:14Z</time>
      </trkpt>
      <trkpt lat="43.8113" lon="1.23573">
        <ele>142.4</ele>
        <time>2024-07-11T09:27:15Z</time>
      </trkpt>
      <trkpt lat="43.81125" lon="1.23583">
        <ele>142.4</ele>
        <time>2024-07-11T09:27:16Z</time>
      </trkpt>
      <trkpt lat="43.8112" lon="1.23595">
        <ele>142.4</ele>
        <time>2024-07-11T09:27:17Z</time>
      </trkpt>
      <trkpt lat="43.81115" lon="1.23605">
        <ele>142.4</ele>
        <time>2024-07-11T09:27:18Z</time>
      </trkpt>
      <trkpt lat="43.81112" lon="1.23613">
        <ele>142.4</ele>
        <time>2024-07-11T09:27:19Z</time>
      </trkpt>
      <trkpt lat="43.81108" lon="1.23624">
        <ele>142.4</ele>
        <time>2024-07-11T09:27:20Z</time>
      </trkpt>
      <trkpt lat="43.81103" lon="1.23637">
        <ele>142.2</ele>
        <time>2024-07-11T09:27:21Z</time>
      </trkpt>
      <trkpt lat="43.81099" lon="1.23648">
        <ele>142.2</ele>
        <time>2024-07-11T09:27:22Z</time>
      </trkpt>
      <trkpt lat="43.81095" lon="1.23659">
        <ele>142.2</ele>
        <time>2024-07-11T09:27:23Z</time>
      </trkpt>
      <trkpt lat="43.81092" lon="1.23668">
        <ele>142.2</ele>
        <time>2024-07-11T09:27:24Z</time>
      </trkpt>
      <trkpt lat="43.81088" lon="1.23679">
        <ele>142.2</ele>
        <time>2024-07-11T09:27:25Z</time>
      </trkpt>
      <trkpt lat="43.81084" lon="1.23692">
        <ele>142.2</ele>
        <time>2024-07-11T09:27:26Z</time>
      </trkpt>
      <trkpt lat="43.81081" lon="1.23702">
        <ele>142.2</ele>
        <time>2024-07-11T09:27:27Z</time>
      </trkpt>
      <trkpt lat="43.81078" lon="1.2371">
        <ele>142.4</ele>
        <time>2024-07-11T09:27:28Z</time>
      </trkpt>
      <trkpt lat="43.81075" lon="1.23721">
        <ele>142.4</ele>
        <time>2024-07-11T09:27:29Z</time>
      </trkpt>
      <trkpt lat="43.81071" lon="1.23731">
        <ele>142.4</ele>
        <time>2024-07-11T09:27:30Z</time>
      </trkpt>
      <trkpt lat="43.81067" lon="1.23742">
        <ele>142.6</ele>
        <time>2024-07-11T09:27:31Z</time>
      </trkpt>
      <trkpt lat="43.81063" lon="1.23755">
        <ele>142.6</ele>
        <time>2024-07-11T09:27:32Z</time>
      </trkpt>
      <trkpt lat="43.8106" lon="1.23764">
        <ele>142.6</ele>
        <time>2024-07-11T09:27:33Z</time>
      </trkpt>
      <trkpt lat="43.81057" lon="1.23775">
        <ele>142.6</ele>
        <time>2024-07-11T09:27:34Z</time>
      </trkpt>
      <trkpt lat="43.81052" lon="1.23788">
        <ele>142.6</ele>
        <time>2024-07-11T09:27:35Z</time>
      </trkpt>
      <trkpt lat="43.81049" lon="1.23799">
        <ele>142.6</ele>
        <time>2024-07-11T09:27:36Z</time>
      </trkpt>
      <trkpt lat="43.81045" lon="1.2381">
        <ele>142.6</ele>
        <time>2024-07-11T09:27:37Z</time>
      </trkpt>
      <trkpt lat="43.81042" lon="1.23819">
        <ele>142.6</ele>
        <time>2024-07-11T09:27:38Z</time>
      </trkpt>
      <trkpt lat="43.81037" lon="1.2383">
        <ele>142.6</ele>
        <time>2024-07-11T09:27:39Z</time>
      </trkpt>
      <trkpt lat="43.81033" lon="1.2384">
        <ele>142.4</ele>
        <time>2024-07-11T09:27:40Z</time>
      </trkpt>
      <trkpt lat="43.81029" lon="1.23851">
        <ele>142.4</ele>
        <time>2024-07-11T09:27:41Z</time>
      </trkpt>
      <trkpt lat="43.81024" lon="1.23863">
        <ele>142.4</ele>
        <time>2024-07-11T09:27:42Z</time>
      </trkpt>
      <trkpt lat="43.8102" lon="1.23874">
        <ele>142.4</ele>
        <time>2024-07-11T09:27:43Z</time>
      </trkpt>
      <trkpt lat="43.81017" lon="1.23882">
        <ele>142.6</ele>
        <time>2024-07-11T09:27:44Z</time>
      </trkpt>
      <trkpt lat="43.81014" lon="1.23892">
        <ele>142.6</ele>
        <time>2024-07-11T09:27:45Z</time>
      </trkpt>
      <trkpt lat="43.8101" lon="1.23905">
        <ele>142.4</ele>
        <time>2024-07-11T09:27:46Z</time>
      </trkpt>
      <trkpt lat="43.81007" lon="1.23915">
        <ele>142.6</ele>
        <time>2024-07-11T09:27:47Z</time>
      </trkpt>
      <trkpt lat="43.81004" lon="1.23923">
        <ele>142.2</ele>
        <time>2024-07-11T09:27:48Z</time>
      </trkpt>
      <trkpt lat="43.81001" lon="1.23933">
        <ele>142.4</ele>
        <time>2024-07-11T09:27:49Z</time>
      </trkpt>
      <trkpt lat="43.80998" lon="1.23945">
        <ele>142.6</ele>
        <time>2024-07-11T09:27:50Z</time>
      </trkpt>
      <trkpt lat="43.80996" lon="1.23955">
        <ele>142.4</ele>
        <time>2024-07-11T09:27:51Z</time>
      </trkpt>
      <trkpt lat="43.80994" lon="1.23963">
        <ele>142.4</ele>
        <time>2024-07-11T09:27:52Z</time>
      </trkpt>
      <trkpt lat="43.80992" lon="1.23973">
        <ele>142.4</ele>
        <time>2024-07-11T09:27:53Z</time>
      </trkpt>
      <trkpt lat="43.80989" lon="1.23982">
        <ele>142.4</ele>
        <time>2024-07-11T09:27:54Z</time>
      </trkpt>
      <trkpt lat="43.80986" lon="1.23994">
        <ele>142.4</ele>
        <time>2024-07-11T09:27:55Z</time>
      </trkpt>
      <trkpt lat="43.80984" lon="1.24003">
        <ele>142.4</ele>
        <time>2024-07-11T09:27:56Z</time>
      </trkpt>
      <trkpt lat="43.80982" lon="1.2401">
        <ele>142.4</ele>
        <time>2024-07-11T09:27:57Z</time>
      </trkpt>
      <trkpt lat="43.8098" lon="1.24016">
        <ele>142.4</ele>
        <time>2024-07-11T09:27:58Z</time>
      </trkpt>
      <trkpt lat="43.80978" lon="1.24021">
        <ele>142.4</ele>
        <time>2024-07-11T09:27:59Z</time>
      </trkpt>
      <trkpt lat="43.80975" lon="1.24027">
        <ele>142.4</ele>
        <time>2024-07-11T09:28:00Z</time>
      </trkpt>
      <trkpt lat="43.80972" lon="1.24031">
        <ele>142.2</ele>
        <time>2024-07-11T09:28:01Z</time>
      </trkpt>
      <trkpt lat="43.8097" lon="1.24035">
        <ele>142.2</ele>
        <time>2024-07-11T09:28:02Z</time>
      </trkpt>
      <trkpt lat="43.80969" lon="1.2404">
        <ele>142</ele>
        <time>2024-07-11T09:28:03Z</time>
      </trkpt>
      <trkpt lat="43.80968" lon="1.24047">
        <ele>142</ele>
        <time>2024-07-11T09:28:04Z</time>
      </trkpt>
      <trkpt lat="43.80968" lon="1.24054">
        <ele>141.8</ele>
        <time>2024-07-11T09:28:05Z</time>
      </trkpt>
      <trkpt lat="43.80967" lon="1.24061">
        <ele>141.8</ele>
        <time>2024-07-11T09:28:06Z</time>
      </trkpt>
      <trkpt lat="43.80967" lon="1.24067">
        <ele>141.8</ele>
        <time>2024-07-11T09:28:07Z</time>
      </trkpt>
      <trkpt lat="43.80966" lon="1.24076">
        <ele>141.6</ele>
        <time>2024-07-11T09:28:08Z</time>
      </trkpt>
      <trkpt lat="43.80965" lon="1.24084">
        <ele>141.6</ele>
        <time>2024-07-11T09:28:09Z</time>
      </trkpt>
      <trkpt lat="43.80964" lon="1.24092">
        <ele>141.6</ele>
        <time>2024-07-11T09:28:10Z</time>
      </trkpt>
      <trkpt lat="43.80963" lon="1.24101">
        <ele>141.6</ele>
        <time>2024-07-11T09:28:11Z</time>
      </trkpt>
      <trkpt lat="43.80961" lon="1.2411">
        <ele>141.6</ele>
        <time>2024-07-11T09:28:12Z</time>
      </trkpt>
      <trkpt lat="43.8096" lon="1.24117">
        <ele>141.6</ele>
        <time>2024-07-11T09:28:13Z</time>
      </trkpt>
      <trkpt lat="43.80958" lon="1.24129">
        <ele>141.6</ele>
        <time>2024-07-11T09:28:14Z</time>
      </trkpt>
      <trkpt lat="43.80957" lon="1.24139">
        <ele>141.6</ele>
        <time>2024-07-11T09:28:15Z</time>
      </trkpt>
      <trkpt lat="43.80956" lon="1.2415">
        <ele>141.6</ele>
        <time>2024-07-11T09:28:16Z</time>
      </trkpt>
      <trkpt lat="43.80955" lon="1.24158">
        <ele>141.6</ele>
        <time>2024-07-11T09:28:17Z</time>
      </trkpt>
      <trkpt lat="43.80953" lon="1.2417">
        <ele>141.8</ele>
        <time>2024-07-11T09:28:18Z</time>
      </trkpt>
      <trkpt lat="43.80952" lon="1.24183">
        <ele>141.8</ele>
        <time>2024-07-11T09:28:19Z</time>
      </trkpt>
      <trkpt lat="43.8095" lon="1.24195">
        <ele>141.8</ele>
        <time>2024-07-11T09:28:20Z</time>
      </trkpt>
      <trkpt lat="43.80948" lon="1.24207">
        <ele>141.8</ele>
        <time>2024-07-11T09:28:21Z</time>
      </trkpt>
      <trkpt lat="43.80947" lon="1.24217">
        <ele>141.8</ele>
        <time>2024-07-11T09:28:22Z</time>
      </trkpt>
      <trkpt lat="43.80946" lon="1.24228">
        <ele>141.8</ele>
        <time>2024-07-11T09:28:23Z</time>
      </trkpt>
      <trkpt lat="43.80944" lon="1.24242">
        <ele>141.8</ele>
        <time>2024-07-11T09:28:24Z</time>
      </trkpt>
      <trkpt lat="43.80942" lon="1.24253">
        <ele>141.8</ele>
        <time>2024-07-11T09:28:25Z</time>
      </trkpt>
      <trkpt lat="43.80941" lon="1.24264">
        <ele>141.8</ele>
        <time>2024-07-11T09:28:26Z</time>
      </trkpt>
      <trkpt lat="43.80939" lon="1.24275">
        <ele>141.8</ele>
        <time>2024-07-11T09:28:27Z</time>
      </trkpt>
      <trkpt lat="43.80938" lon="1.24286">
        <ele>141.8</ele>
        <time>2024-07-11T09:28:28Z</time>
      </trkpt>
      <trkpt lat="43.80936" lon="1.24297">
        <ele>141.8</ele>
        <time>2024-07-11T09:28:29Z</time>
      </trkpt>
      <trkpt lat="43.80934" lon="1.24308">
        <ele>141.6</ele>
        <time>2024-07-11T09:28:30Z</time>
      </trkpt>
      <trkpt lat="43.80933" lon="1.24316">
        <ele>141.6</ele>
        <time>2024-07-11T09:28:31Z</time>
      </trkpt>
      <trkpt lat="43.80932" lon="1.24328">
        <ele>141.6</ele>
        <time>2024-07-11T09:28:32Z</time>
      </trkpt>
      <trkpt lat="43.80929" lon="1.24341">
        <ele>141.6</ele>
        <time>2024-07-11T09:28:33Z</time>
      </trkpt>
      <trkpt lat="43.80926" lon="1.24353">
        <ele>141.4</ele>
        <time>2024-07-11T09:28:34Z</time>
      </trkpt>
      <trkpt lat="43.80923" lon="1.24364">
        <ele>141.4</ele>
        <time>2024-07-11T09:28:35Z</time>
      </trkpt>
      <trkpt lat="43.80921" lon="1.24373">
        <ele>141.4</ele>
        <time>2024-07-11T09:28:36Z</time>
      </trkpt>
      <trkpt lat="43.80919" lon="1.24384">
        <ele>141.4</ele>
        <time>2024-07-11T09:28:37Z</time>
      </trkpt>
      <trkpt lat="43.80916" lon="1.24398">
        <ele>141.2</ele>
        <time>2024-07-11T09:28:38Z</time>
      </trkpt>
      <trkpt lat="43.80915" lon="1.2441">
        <ele>141.2</ele>
        <time>2024-07-11T09:28:39Z</time>
      </trkpt>
      <trkpt lat="43.80914" lon="1.24422">
        <ele>141.2</ele>
        <time>2024-07-11T09:28:40Z</time>
      </trkpt>
      <trkpt lat="43.80913" lon="1.24434">
        <ele>141.2</ele>
        <time>2024-07-11T09:28:41Z</time>
      </trkpt>
      <trkpt lat="43.80913" lon="1.24446">
        <ele>141.2</ele>
        <time>2024-07-11T09:28:42Z</time>
      </trkpt>
      <trkpt lat="43.80912" lon="1.24458">
        <ele>141.2</ele>
        <time>2024-07-11T09:28:43Z</time>
      </trkpt>
      <trkpt lat="43.80911" lon="1.24471">
        <ele>141.2</ele>
        <time>2024-07-11T09:28:44Z</time>
      </trkpt>
      <trkpt lat="43.8091" lon="1.24483">
        <ele>141.2</ele>
        <time>2024-07-11T09:28:45Z</time>
      </trkpt>
      <trkpt lat="43.80909" lon="1.24495">
        <ele>141.2</ele>
        <time>2024-07-11T09:28:46Z</time>
      </trkpt>
      <trkpt lat="43.80908" lon="1.24508">
        <ele>141.2</ele>
        <time>2024-07-11T09:28:47Z</time>
      </trkpt>
      <trkpt lat="43.80906" lon="1.24521">
        <ele>141</ele>
        <time>2024-07-11T09:28:48Z</time>
      </trkpt>
      <trkpt lat="43.80904" lon="1.24534">
        <ele>141</ele>
        <time>2024-07-11T09:28:49Z</time>
      </trkpt>
      <trkpt lat="43.80902" lon="1.24544">
        <ele>140.8</ele>
        <time>2024-07-11T09:28:50Z</time>
      </trkpt>
      <trkpt lat="43.809" lon="1.24557">
        <ele>140.6</ele>
        <time>2024-07-11T09:28:51Z</time>
      </trkpt>
      <trkpt lat="43.80898" lon="1.24572">
        <ele>140.4</ele>
        <time>2024-07-11T09:28:52Z</time>
      </trkpt>
      <trkpt lat="43.80896" lon="1.24585">
        <ele>140.2</ele>
        <time>2024-07-11T09:28:53Z</time>
      </trkpt>
      <trkpt lat="43.80894" lon="1.24598">
        <ele>140</ele>
        <time>2024-07-11T09:28:54Z</time>
      </trkpt>
      <trkpt lat="43.80892" lon="1.24609">
        <ele>139.8</ele>
        <time>2024-07-11T09:28:55Z</time>
      </trkpt>
      <trkpt lat="43.8089" lon="1.24621">
        <ele>139.6</ele>
        <time>2024-07-11T09:28:56Z</time>
      </trkpt>
      <trkpt lat="43.80888" lon="1.24637">
        <ele>139.6</ele>
        <time>2024-07-11T09:28:57Z</time>
      </trkpt>
      <trkpt lat="43.80887" lon="1.24649">
        <ele>139.2</ele>
        <time>2024-07-11T09:28:58Z</time>
      </trkpt>
      <trkpt lat="43.80885" lon="1.24662">
        <ele>139</ele>
        <time>2024-07-11T09:28:59Z</time>
      </trkpt>
      <trkpt lat="43.80883" lon="1.24673">
        <ele>139</ele>
        <time>2024-07-11T09:29:00Z</time>
      </trkpt>
      <trkpt lat="43.80881" lon="1.24685">
        <ele>138.6</ele>
        <time>2024-07-11T09:29:01Z</time>
      </trkpt>
      <trkpt lat="43.80879" lon="1.24701">
        <ele>138.4</ele>
        <time>2024-07-11T09:29:02Z</time>
      </trkpt>
      <trkpt lat="43.80877" lon="1.24714">
        <ele>138</ele>
        <time>2024-07-11T09:29:03Z</time>
      </trkpt>
      <trkpt lat="43.80875" lon="1.24727">
        <ele>138</ele>
        <time>2024-07-11T09:29:04Z</time>
      </trkpt>
      <trkpt lat="43.80874" lon="1.24738">
        <ele>138</ele>
        <time>2024-07-11T09:29:05Z</time>
      </trkpt>
      <trkpt lat="43.80872" lon="1.2475">
        <ele>137.8</ele>
        <time>2024-07-11T09:29:06Z</time>
      </trkpt>
      <trkpt lat="43.8087" lon="1.24765">
        <ele>137.8</ele>
        <time>2024-07-11T09:29:07Z</time>
      </trkpt>
      <trkpt lat="43.80868" lon="1.24778">
        <ele>137.8</ele>
        <time>2024-07-11T09:29:08Z</time>
      </trkpt>
      <trkpt lat="43.80867" lon="1.2479">
        <ele>137.8</ele>
        <time>2024-07-11T09:29:09Z</time>
      </trkpt>
      <trkpt lat="43.80865" lon="1.248">
        <ele>137.6</ele>
        <time>2024-07-11T09:29:10Z</time>
      </trkpt>
      <trkpt lat="43.80863" lon="1.24815">
        <ele>137.6</ele>
        <time>2024-07-11T09:29:11Z</time>
      </trkpt>
      <trkpt lat="43.80862" lon="1.24827">
        <ele>137.6</ele>
        <time>2024-07-11T09:29:12Z</time>
      </trkpt>
      <trkpt lat="43.8086" lon="1.24839">
        <ele>137.4</ele>
        <time>2024-07-11T09:29:13Z</time>
      </trkpt>
      <trkpt lat="43.80859" lon="1.24851">
        <ele>137.2</ele>
        <time>2024-07-11T09:29:14Z</time>
      </trkpt>
      <trkpt lat="43.80857" lon="1.24864">
        <ele>137.2</ele>
        <time>2024-07-11T09:29:15Z</time>
      </trkpt>
      <trkpt lat="43.80856" lon="1.24874">
        <ele>137.2</ele>
        <time>2024-07-11T09:29:16Z</time>
      </trkpt>
      <trkpt lat="43.80854" lon="1.2489">
        <ele>137</ele>
        <time>2024-07-11T09:29:17Z</time>
      </trkpt>
      <trkpt lat="43.80852" lon="1.24902">
        <ele>137</ele>
        <time>2024-07-11T09:29:18Z</time>
      </trkpt>
      <trkpt lat="43.80851" lon="1.24912">
        <ele>137</ele>
        <time>2024-07-11T09:29:19Z</time>
      </trkpt>
      <trkpt lat="43.80849" lon="1.24927">
        <ele>136.8</ele>
        <time>2024-07-11T09:29:20Z</time>
      </trkpt>
      <trkpt lat="43.80847" lon="1.24939">
        <ele>136.8</ele>
        <time>2024-07-11T09:29:21Z</time>
      </trkpt>
      <trkpt lat="43.80846" lon="1.24952">
        <ele>136.8</ele>
        <time>2024-07-11T09:29:22Z</time>
      </trkpt>
      <trkpt lat="43.80844" lon="1.24965">
        <ele>136.8</ele>
        <time>2024-07-11T09:29:23Z</time>
      </trkpt>
      <trkpt lat="43.80843" lon="1.24977">
        <ele>136.8</ele>
        <time>2024-07-11T09:29:24Z</time>
      </trkpt>
      <trkpt lat="43.80842" lon="1.24988">
        <ele>136.8</ele>
        <time>2024-07-11T09:29:25Z</time>
      </trkpt>
      <trkpt lat="43.80841" lon="1.25003">
        <ele>136.8</ele>
        <time>2024-07-11T09:29:26Z</time>
      </trkpt>
      <trkpt lat="43.8084" lon="1.25016">
        <ele>136.6</ele>
        <time>2024-07-11T09:29:27Z</time>
      </trkpt>
      <trkpt lat="43.8084" lon="1.25029">
        <ele>136.4</ele>
        <time>2024-07-11T09:29:28Z</time>
      </trkpt>
      <trkpt lat="43.8084" lon="1.25039">
        <ele>136.4</ele>
        <time>2024-07-11T09:29:29Z</time>
      </trkpt>
      <trkpt lat="43.80841" lon="1.25055">
        <ele>136.2</ele>
        <time>2024-07-11T09:29:30Z</time>
      </trkpt>
      <trkpt lat="43.80843" lon="1.25068">
        <ele>136.2</ele>
        <time>2024-07-11T09:29:31Z</time>
      </trkpt>
      <trkpt lat="43.80844" lon="1.2508">
        <ele>136.2</ele>
        <time>2024-07-11T09:29:32Z</time>
      </trkpt>
      <trkpt lat="43.80846" lon="1.25093">
        <ele>136.2</ele>
        <time>2024-07-11T09:29:33Z</time>
      </trkpt>
      <trkpt lat="43.80848" lon="1.25102">
        <ele>136.2</ele>
        <time>2024-07-11T09:29:34Z</time>
      </trkpt>
      <trkpt lat="43.80851" lon="1.25117">
        <ele>136.2</ele>
        <time>2024-07-11T09:29:35Z</time>
      </trkpt>
      <trkpt lat="43.80853" lon="1.2513">
        <ele>136.2</ele>
        <time>2024-07-11T09:29:36Z</time>
      </trkpt>
      <trkpt lat="43.80855" lon="1.25142">
        <ele>136.2</ele>
        <time>2024-07-11T09:29:37Z</time>
      </trkpt>
      <trkpt lat="43.80856" lon="1.25151">
        <ele>136.2</ele>
        <time>2024-07-11T09:29:38Z</time>
      </trkpt>
      <trkpt lat="43.80859" lon="1.25163">
        <ele>136.2</ele>
        <time>2024-07-11T09:29:39Z</time>
      </trkpt>
      <trkpt lat="43.80861" lon="1.25178">
        <ele>136.2</ele>
        <time>2024-07-11T09:29:40Z</time>
      </trkpt>
      <trkpt lat="43.80863" lon="1.2519">
        <ele>136.2</ele>
        <time>2024-07-11T09:29:41Z</time>
      </trkpt>
      <trkpt lat="43.80865" lon="1.25201">
        <ele>136.2</ele>
        <time>2024-07-11T09:29:42Z</time>
      </trkpt>
      <trkpt lat="43.80867" lon="1.25211">
        <ele>136</ele>
        <time>2024-07-11T09:29:43Z</time>
      </trkpt>
      <trkpt lat="43.80869" lon="1.25225">
        <ele>136</ele>
        <time>2024-07-11T09:29:44Z</time>
      </trkpt>
      <trkpt lat="43.80872" lon="1.25236">
        <ele>136</ele>
        <time>2024-07-11T09:29:45Z</time>
      </trkpt>
      <trkpt lat="43.80874" lon="1.25248">
        <ele>136</ele>
        <time>2024-07-11T09:29:46Z</time>
      </trkpt>
      <trkpt lat="43.80876" lon="1.25259">
        <ele>135.8</ele>
        <time>2024-07-11T09:29:47Z</time>
      </trkpt>
      <trkpt lat="43.80878" lon="1.25269">
        <ele>135.8</ele>
        <time>2024-07-11T09:29:48Z</time>
      </trkpt>
      <trkpt lat="43.80881" lon="1.25283">
        <ele>135.8</ele>
        <time>2024-07-11T09:29:49Z</time>
      </trkpt>
      <trkpt lat="43.80884" lon="1.25294">
        <ele>135.8</ele>
        <time>2024-07-11T09:29:50Z</time>
      </trkpt>
      <trkpt lat="43.80887" lon="1.25305">
        <ele>135.8</ele>
        <time>2024-07-11T09:29:51Z</time>
      </trkpt>
      <trkpt lat="43.8089" lon="1.25316">
        <ele>135.8</ele>
        <time>2024-07-11T09:29:52Z</time>
      </trkpt>
      <trkpt lat="43.80893" lon="1.25327">
        <ele>135.8</ele>
        <time>2024-07-11T09:29:53Z</time>
      </trkpt>
      <trkpt lat="43.80895" lon="1.25336">
        <ele>135.8</ele>
        <time>2024-07-11T09:29:54Z</time>
      </trkpt>
      <trkpt lat="43.80898" lon="1.25349">
        <ele>135.8</ele>
        <time>2024-07-11T09:29:55Z</time>
      </trkpt>
      <trkpt lat="43.80901" lon="1.2536">
        <ele>135.8</ele>
        <time>2024-07-11T09:29:56Z</time>
      </trkpt>
      <trkpt lat="43.80903" lon="1.2537">
        <ele>135.8</ele>
        <time>2024-07-11T09:29:57Z</time>
      </trkpt>
      <trkpt lat="43.80905" lon="1.25379">
        <ele>135.6</ele>
        <time>2024-07-11T09:29:58Z</time>
      </trkpt>
      <trkpt lat="43.80907" lon="1.2539">
        <ele>135.6</ele>
        <time>2024-07-11T09:29:59Z</time>
      </trkpt>
      <trkpt lat="43.8091" lon="1.25403">
        <ele>135.6</ele>
        <time>2024-07-11T09:30:00Z</time>
      </trkpt>
      <trkpt lat="43.80912" lon="1.25413">
        <ele>135.6</ele>
        <time>2024-07-11T09:30:01Z</time>
      </trkpt>
      <trkpt lat="43.80914" lon="1.25424">
        <ele>135.6</ele>
        <time>2024-07-11T09:30:02Z</time>
      </trkpt>
      <trkpt lat="43.80916" lon="1.25432">
        <ele>135.4</ele>
        <time>2024-07-11T09:30:03Z</time>
      </trkpt>
      <trkpt lat="43.80918" lon="1.25444">
        <ele>135.2</ele>
        <time>2024-07-11T09:30:04Z</time>
      </trkpt>
      <trkpt lat="43.8092" lon="1.25454">
        <ele>135</ele>
        <time>2024-07-11T09:30:05Z</time>
      </trkpt>
      <trkpt lat="43.80921" lon="1.25465">
        <ele>135</ele>
        <time>2024-07-11T09:30:06Z</time>
      </trkpt>
      <trkpt lat="43.80922" lon="1.25474">
        <ele>134.8</ele>
        <time>2024-07-11T09:30:07Z</time>
      </trkpt>
      <trkpt lat="43.80921" lon="1.25488">
        <ele>134.6</ele>
        <time>2024-07-11T09:30:08Z</time>
      </trkpt>
      <trkpt lat="43.80918" lon="1.25499">
        <ele>134.2</ele>
        <time>2024-07-11T09:30:09Z</time>
      </trkpt>
      <trkpt lat="43.80913" lon="1.2551">
        <ele>134</ele>
        <time>2024-07-11T09:30:10Z</time>
      </trkpt>
      <trkpt lat="43.80906" lon="1.2552">
        <ele>133.2</ele>
        <time>2024-07-11T09:30:11Z</time>
      </trkpt>
      <trkpt lat="43.80899" lon="1.2553">
        <ele>132.8</ele>
        <time>2024-07-11T09:30:12Z</time>
      </trkpt>
      <trkpt lat="43.80893" lon="1.25539">
        <ele>132.2</ele>
        <time>2024-07-11T09:30:13Z</time>
      </trkpt>
      <trkpt lat="43.80885" lon="1.25552">
        <ele>131.4</ele>
        <time>2024-07-11T09:30:14Z</time>
      </trkpt>
      <trkpt lat="43.80877" lon="1.25563">
        <ele>131</ele>
        <time>2024-07-11T09:30:15Z</time>
      </trkpt>
      <trkpt lat="43.80869" lon="1.25575">
        <ele>130.6</ele>
        <time>2024-07-11T09:30:16Z</time>
      </trkpt>
      <trkpt lat="43.80861" lon="1.25586">
        <ele>130.2</ele>
        <time>2024-07-11T09:30:17Z</time>
      </trkpt>
      <trkpt lat="43.80853" lon="1.25598">
        <ele>129.6</ele>
        <time>2024-07-11T09:30:18Z</time>
      </trkpt>
      <trkpt lat="43.80845" lon="1.25609">
        <ele>129.4</ele>
        <time>2024-07-11T09:30:19Z</time>
      </trkpt>
      <trkpt lat="43.80836" lon="1.25621">
        <ele>128.6</ele>
        <time>2024-07-11T09:30:20Z</time>
      </trkpt>
      <trkpt lat="43.8083" lon="1.2563">
        <ele>128</ele>
        <time>2024-07-11T09:30:21Z</time>
      </trkpt>
      <trkpt lat="43.80822" lon="1.25641">
        <ele>127.4</ele>
        <time>2024-07-11T09:30:22Z</time>
      </trkpt>
      <trkpt lat="43.80814" lon="1.25653">
        <ele>126.8</ele>
        <time>2024-07-11T09:30:23Z</time>
      </trkpt>
      <trkpt lat="43.80804" lon="1.25667">
        <ele>126.4</ele>
        <time>2024-07-11T09:30:24Z</time>
      </trkpt>
      <trkpt lat="43.80795" lon="1.25678">
        <ele>126</ele>
        <time>2024-07-11T09:30:25Z</time>
      </trkpt>
      <trkpt lat="43.80789" lon="1.25686">
        <ele>125.6</ele>
        <time>2024-07-11T09:30:26Z</time>
      </trkpt>
      <trkpt lat="43.80779" lon="1.257">
        <ele>125.4</ele>
        <time>2024-07-11T09:30:27Z</time>
      </trkpt>
      <trkpt lat="43.80773" lon="1.25709">
        <ele>125</ele>
        <time>2024-07-11T09:30:28Z</time>
      </trkpt>
      <trkpt lat="43.80763" lon="1.25722">
        <ele>125</ele>
        <time>2024-07-11T09:30:29Z</time>
      </trkpt>
      <trkpt lat="43.80755" lon="1.25734">
        <ele>124.8</ele>
        <time>2024-07-11T09:30:30Z</time>
      </trkpt>
      <trkpt lat="43.80747" lon="1.25745">
        <ele>124.6</ele>
        <time>2024-07-11T09:30:31Z</time>
      </trkpt>
      <trkpt lat="43.80741" lon="1.25754">
        <ele>124.6</ele>
        <time>2024-07-11T09:30:32Z</time>
      </trkpt>
      <trkpt lat="43.80732" lon="1.25767">
        <ele>124.6</ele>
        <time>2024-07-11T09:30:33Z</time>
      </trkpt>
      <trkpt lat="43.80724" lon="1.25778">
        <ele>124.6</ele>
        <time>2024-07-11T09:30:34Z</time>
      </trkpt>
      <trkpt lat="43.80716" lon="1.25789">
        <ele>124.6</ele>
        <time>2024-07-11T09:30:35Z</time>
      </trkpt>
      <trkpt lat="43.80709" lon="1.258">
        <ele>124.6</ele>
        <time>2024-07-11T09:30:36Z</time>
      </trkpt>
      <trkpt lat="43.80703" lon="1.25808">
        <ele>124.8</ele>
        <time>2024-07-11T09:30:37Z</time>
      </trkpt>
      <trkpt lat="43.80695" lon="1.2582">
        <ele>124.8</ele>
        <time>2024-07-11T09:30:38Z</time>
      </trkpt>
      <trkpt lat="43.80688" lon="1.2583">
        <ele>124.8</ele>
        <time>2024-07-11T09:30:39Z</time>
      </trkpt>
      <trkpt lat="43.80681" lon="1.2584">
        <ele>124.8</ele>
        <time>2024-07-11T09:30:40Z</time>
      </trkpt>
      <trkpt lat="43.80675" lon="1.25848">
        <ele>124.8</ele>
        <time>2024-07-11T09:30:41Z</time>
      </trkpt>
      <trkpt lat="43.80668" lon="1.25858">
        <ele>124.8</ele>
        <time>2024-07-11T09:30:42Z</time>
      </trkpt>
      <trkpt lat="43.80659" lon="1.2587">
        <ele>125</ele>
        <time>2024-07-11T09:30:43Z</time>
      </trkpt>
      <trkpt lat="43.80652" lon="1.2588">
        <ele>124.8</ele>
        <time>2024-07-11T09:30:44Z</time>
      </trkpt>
      <trkpt lat="43.80645" lon="1.2589">
        <ele>124.8</ele>
        <time>2024-07-11T09:30:45Z</time>
      </trkpt>
      <trkpt lat="43.80639" lon="1.259">
        <ele>124.8</ele>
        <time>2024-07-11T09:30:46Z</time>
      </trkpt>
      <trkpt lat="43.80633" lon="1.25908">
        <ele>125</ele>
        <time>2024-07-11T09:30:47Z</time>
      </trkpt>
      <trkpt lat="43.80625" lon="1.25919">
        <ele>124.8</ele>
        <time>2024-07-11T09:30:48Z</time>
      </trkpt>
      <trkpt lat="43.80617" lon="1.25928">
        <ele>124.8</ele>
        <time>2024-07-11T09:30:49Z</time>
      </trkpt>
      <trkpt lat="43.8061" lon="1.25937">
        <ele>124.8</ele>
        <time>2024-07-11T09:30:50Z</time>
      </trkpt>
      <trkpt lat="43.80602" lon="1.25945">
        <ele>124.8</ele>
        <time>2024-07-11T09:30:51Z</time>
      </trkpt>
      <trkpt lat="43.80594" lon="1.25953">
        <ele>124.8</ele>
        <time>2024-07-11T09:30:52Z</time>
      </trkpt>
      <trkpt lat="43.80585" lon="1.2596">
        <ele>124.8</ele>
        <time>2024-07-11T09:30:53Z</time>
      </trkpt>
      <trkpt lat="43.80577" lon="1.25967">
        <ele>124.8</ele>
        <time>2024-07-11T09:30:54Z</time>
      </trkpt>
      <trkpt lat="43.80569" lon="1.25973">
        <ele>124.8</ele>
        <time>2024-07-11T09:30:55Z</time>
      </trkpt>
      <trkpt lat="43.8056" lon="1.2598">
        <ele>124.8</ele>
        <time>2024-07-11T09:30:56Z</time>
      </trkpt>
      <trkpt lat="43.80552" lon="1.25985">
        <ele>124.8</ele>
        <time>2024-07-11T09:30:57Z</time>
      </trkpt>
      <trkpt lat="43.80544" lon="1.25991">
        <ele>124.8</ele>
        <time>2024-07-11T09:30:58Z</time>
      </trkpt>
      <trkpt lat="43.80535" lon="1.25997">
        <ele>124.8</ele>
        <time>2024-07-11T09:30:59Z</time>
      </trkpt>
      <trkpt lat="43.80527" lon="1.26003">
        <ele>125</ele>
        <time>2024-07-11T09:31:00Z</time>
      </trkpt>
      <trkpt lat="43.80519" lon="1.26009">
        <ele>125</ele>
        <time>2024-07-11T09:31:01Z</time>
      </trkpt>
      <trkpt lat="43.80511" lon="1.26014">
        <ele>125</ele>
        <time>2024-07-11T09:31:02Z</time>
      </trkpt>
      <trkpt lat="43.80504" lon="1.2602">
        <ele>125</ele>
        <time>2024-07-11T09:31:03Z</time>
      </trkpt>
      <trkpt lat="43.80496" lon="1.26025">
        <ele>125.2</ele>
        <time>2024-07-11T09:31:04Z</time>
      </trkpt>
      <trkpt lat="43.80488" lon="1.26031">
        <ele>125.2</ele>
        <time>2024-07-11T09:31:05Z</time>
      </trkpt>
      <trkpt lat="43.8048" lon="1.26036">
        <ele>125.2</ele>
        <time>2024-07-11T09:31:06Z</time>
      </trkpt>
      <trkpt lat="43.80472" lon="1.26042">
        <ele>125.4</ele>
        <time>2024-07-11T09:31:07Z</time>
      </trkpt>
      <trkpt lat="43.80465" lon="1.26047">
        <ele>125.4</ele>
        <time>2024-07-11T09:31:08Z</time>
      </trkpt>
      <trkpt lat="43.80457" lon="1.26052">
        <ele>125.4</ele>
        <time>2024-07-11T09:31:09Z</time>
      </trkpt>
      <trkpt lat="43.8045" lon="1.26056">
        <ele>125.6</ele>
        <time>2024-07-11T09:31:10Z</time>
      </trkpt>
      <trkpt lat="43.80444" lon="1.26061">
        <ele>125.8</ele>
        <time>2024-07-11T09:31:11Z</time>
      </trkpt>
      <trkpt lat="43.80437" lon="1.26066">
        <ele>126.2</ele>
        <time>2024-07-11T09:31:12Z</time>
      </trkpt>
      <trkpt lat="43.8043" lon="1.2607">
        <ele>126.2</ele>
        <time>2024-07-11T09:31:13Z</time>
      </trkpt>
      <trkpt lat="43.80423" lon="1.26075">
        <ele>126.8</ele>
        <time>2024-07-11T09:31:14Z</time>
      </trkpt>
      <trkpt lat="43.80416" lon="1.26079">
        <ele>127</ele>
        <time>2024-07-11T09:31:15Z</time>
      </trkpt>
      <trkpt lat="43.80409" lon="1.26083">
        <ele>127.6</ele>
        <time>2024-07-11T09:31:16Z</time>
      </trkpt>
      <trkpt lat="43.80403" lon="1.26088">
        <ele>128</ele>
        <time>2024-07-11T09:31:17Z</time>
      </trkpt>
      <trkpt lat="43.80396" lon="1.26092">
        <ele>128.2</ele>
        <time>2024-07-11T09:31:18Z</time>
      </trkpt>
      <trkpt lat="43.80389" lon="1.26096">
        <ele>128.8</ele>
        <time>2024-07-11T09:31:19Z</time>
      </trkpt>
      <trkpt lat="43.80383" lon="1.261">
        <ele>129</ele>
        <time>2024-07-11T09:31:20Z</time>
      </trkpt>
      <trkpt lat="43.80376" lon="1.26103">
        <ele>129.8</ele>
        <time>2024-07-11T09:31:21Z</time>
      </trkpt>
      <trkpt lat="43.8037" lon="1.26107">
        <ele>130.2</ele>
        <time>2024-07-11T09:31:22Z</time>
      </trkpt>
      <trkpt lat="43.80363" lon="1.26111">
        <ele>130.6</ele>
        <time>2024-07-11T09:31:23Z</time>
      </trkpt>
      <trkpt lat="43.80357" lon="1.26114">
        <ele>131</ele>
        <time>2024-07-11T09:31:24Z</time>
      </trkpt>
      <trkpt lat="43.8035" lon="1.26117">
        <ele>131.4</ele>
        <time>2024-07-11T09:31:25Z</time>
      </trkpt>
      <trkpt lat="43.80344" lon="1.2612">
        <ele>131.8</ele>
        <time>2024-07-11T09:31:26Z</time>
      </trkpt>
      <trkpt lat="43.80337" lon="1.26123">
        <ele>132.4</ele>
        <time>2024-07-11T09:31:27Z</time>
      </trkpt>
      <trkpt lat="43.80331" lon="1.26126">
        <ele>133</ele>
        <time>2024-07-11T09:31:28Z</time>
      </trkpt>
      <trkpt lat="43.80325" lon="1.26129">
        <ele>133.4</ele>
        <time>2024-07-11T09:31:29Z</time>
      </trkpt>
      <trkpt lat="43.80319" lon="1.26132">
        <ele>133.6</ele>
        <time>2024-07-11T09:31:30Z</time>
      </trkpt>
      <trkpt lat="43.80313" lon="1.26134">
        <ele>134</ele>
        <time>2024-07-11T09:31:31Z</time>
      </trkpt>
      <trkpt lat="43.80307" lon="1.26137">
        <ele>134</ele>
        <time>2024-07-11T09:31:32Z</time>
      </trkpt>
      <trkpt lat="43.803" lon="1.26139">
        <ele>134.6</ele>
        <time>2024-07-11T09:31:33Z</time>
      </trkpt>
      <trkpt lat="43.80294" lon="1.26142">
        <ele>135.2</ele>
        <time>2024-07-11T09:31:34Z</time>
      </trkpt>
      <trkpt lat="43.80288" lon="1.26144">
        <ele>135.4</ele>
        <time>2024-07-11T09:31:35Z</time>
      </trkpt>
      <trkpt lat="43.80282" lon="1.26146">
        <ele>135.6</ele>
        <time>2024-07-11T09:31:36Z</time>
      </trkpt>
      <trkpt lat="43.80276" lon="1.26149">
        <ele>135.8</ele>
        <time>2024-07-11T09:31:37Z</time>
      </trkpt>
      <trkpt lat="43.8027" lon="1.26151">
        <ele>136.2</ele>
        <time>2024-07-11T09:31:38Z</time>
      </trkpt>
      <trkpt lat="43.80264" lon="1.26154">
        <ele>136.4</ele>
        <time>2024-07-11T09:31:39Z</time>
      </trkpt>
      <trkpt lat="43.80257" lon="1.26157">
        <ele>136.6</ele>
        <time>2024-07-11T09:31:40Z</time>
      </trkpt>
      <trkpt lat="43.80251" lon="1.26159">
        <ele>137</ele>
        <time>2024-07-11T09:31:41Z</time>
      </trkpt>
      <trkpt lat="43.80244" lon="1.26161">
        <ele>137</ele>
        <time>2024-07-11T09:31:42Z</time>
      </trkpt>
      <trkpt lat="43.80238" lon="1.26164">
        <ele>137.2</ele>
        <time>2024-07-11T09:31:43Z</time>
      </trkpt>
      <trkpt lat="43.80231" lon="1.26166">
        <ele>137.2</ele>
        <time>2024-07-11T09:31:44Z</time>
      </trkpt>
      <trkpt lat="43.80225" lon="1.26169">
        <ele>137.2</ele>
        <time>2024-07-11T09:31:45Z</time>
      </trkpt>
      <trkpt lat="43.80218" lon="1.26171">
        <ele>137.4</ele>
        <time>2024-07-11T09:31:46Z</time>
      </trkpt>
      <trkpt lat="43.80212" lon="1.26174">
        <ele>137.4</ele>
        <time>2024-07-11T09:31:47Z</time>
      </trkpt>
      <trkpt lat="43.80205" lon="1.26177">
        <ele>137.6</ele>
        <time>2024-07-11T09:31:48Z</time>
      </trkpt>
      <trkpt lat="43.80199" lon="1.26179">
        <ele>137.6</ele>
        <time>2024-07-11T09:31:49Z</time>
      </trkpt>
      <trkpt lat="43.80192" lon="1.26182">
        <ele>137.6</ele>
        <time>2024-07-11T09:31:50Z</time>
      </trkpt>
      <trkpt lat="43.80186" lon="1.26186">
        <ele>137.6</ele>
        <time>2024-07-11T09:31:51Z</time>
      </trkpt>
      <trkpt lat="43.80179" lon="1.26189">
        <ele>137.6</ele>
        <time>2024-07-11T09:31:52Z</time>
      </trkpt>
      <trkpt lat="43.80173" lon="1.26193">
        <ele>137.6</ele>
        <time>2024-07-11T09:31:53Z</time>
      </trkpt>
      <trkpt lat="43.80166" lon="1.26197">
        <ele>137.6</ele>
        <time>2024-07-11T09:31:54Z</time>
      </trkpt>
      <trkpt lat="43.8016" lon="1.26202">
        <ele>137.6</ele>
        <time>2024-07-11T09:31:55Z</time>
      </trkpt>
      <trkpt lat="43.80154" lon="1.26207">
        <ele>137.6</ele>
        <time>2024-07-11T09:31:56Z</time>
      </trkpt>
      <trkpt lat="43.80148" lon="1.26213">
        <ele>137.6</ele>
        <time>2024-07-11T09:31:57Z</time>
      </trkpt>
      <trkpt lat="43.80142" lon="1.26218">
        <ele>137.6</ele>
        <time>2024-07-11T09:31:58Z</time>
      </trkpt>
      <trkpt lat="43.80136" lon="1.26224">
        <ele>137.6</ele>
        <time>2024-07-11T09:31:59Z</time>
      </trkpt>
      <trkpt lat="43.8013" lon="1.2623">
        <ele>137.6</ele>
        <time>2024-07-11T09:32:00Z</time>
      </trkpt>
      <trkpt lat="43.80124" lon="1.26236">
        <ele>137.4</ele>
        <time>2024-07-11T09:32:01Z</time>
      </trkpt>
      <trkpt lat="43.80119" lon="1.26243">
        <ele>137.4</ele>
        <time>2024-07-11T09:32:02Z</time>
      </trkpt>
      <trkpt lat="43.80113" lon="1.26249">
        <ele>137.4</ele>
        <time>2024-07-11T09:32:03Z</time>
      </trkpt>
      <trkpt lat="43.80107" lon="1.26256">
        <ele>137.4</ele>
        <time>2024-07-11T09:32:04Z</time>
      </trkpt>
      <trkpt lat="43.80102" lon="1.26261">
        <ele>137.4</ele>
        <time>2024-07-11T09:32:05Z</time>
      </trkpt>
      <trkpt lat="43.80095" lon="1.2627">
        <ele>137.4</ele>
        <time>2024-07-11T09:32:06Z</time>
      </trkpt>
      <trkpt lat="43.8009" lon="1.26276">
        <ele>137.6</ele>
        <time>2024-07-11T09:32:07Z</time>
      </trkpt>
      <trkpt lat="43.80084" lon="1.26285">
        <ele>137.6</ele>
        <time>2024-07-11T09:32:08Z</time>
      </trkpt>
      <trkpt lat="43.80078" lon="1.26293">
        <ele>137.6</ele>
        <time>2024-07-11T09:32:09Z</time>
      </trkpt>
      <trkpt lat="43.80072" lon="1.26301">
        <ele>137.6</ele>
        <time>2024-07-11T09:32:10Z</time>
      </trkpt>
      <trkpt lat="43.80067" lon="1.26309">
        <ele>137.6</ele>
        <time>2024-07-11T09:32:11Z</time>
      </trkpt>
      <trkpt lat="43.80061" lon="1.26316">
        <ele>137.6</ele>
        <time>2024-07-11T09:32:12Z</time>
      </trkpt>
      <trkpt lat="43.80055" lon="1.26324">
        <ele>137.6</ele>
        <time>2024-07-11T09:32:13Z</time>
      </trkpt>
      <trkpt lat="43.80049" lon="1.26332">
        <ele>137.6</ele>
        <time>2024-07-11T09:32:14Z</time>
      </trkpt>
      <trkpt lat="43.80044" lon="1.2634">
        <ele>137.6</ele>
        <time>2024-07-11T09:32:15Z</time>
      </trkpt>
      <trkpt lat="43.80039" lon="1.26347">
        <ele>137.6</ele>
        <time>2024-07-11T09:32:16Z</time>
      </trkpt>
      <trkpt lat="43.80032" lon="1.26356">
        <ele>137.6</ele>
        <time>2024-07-11T09:32:17Z</time>
      </trkpt>
      <trkpt lat="43.80026" lon="1.26364">
        <ele>137.6</ele>
        <time>2024-07-11T09:32:18Z</time>
      </trkpt>
      <trkpt lat="43.8002" lon="1.26372">
        <ele>137.6</ele>
        <time>2024-07-11T09:32:19Z</time>
      </trkpt>
      <trkpt lat="43.80014" lon="1.2638">
        <ele>137.6</ele>
        <time>2024-07-11T09:32:20Z</time>
      </trkpt>
      <trkpt lat="43.80009" lon="1.26388">
        <ele>137.6</ele>
        <time>2024-07-11T09:32:21Z</time>
      </trkpt>
      <trkpt lat="43.80004" lon="1.26394">
        <ele>137.6</ele>
        <time>2024-07-11T09:32:22Z</time>
      </trkpt>
      <trkpt lat="43.79997" lon="1.26401">
        <ele>137.6</ele>
        <time>2024-07-11T09:32:23Z</time>
      </trkpt>
      <trkpt lat="43.79991" lon="1.26409">
        <ele>137.6</ele>
        <time>2024-07-11T09:32:24Z</time>
      </trkpt>
      <trkpt lat="43.79985" lon="1.26415">
        <ele>137.6</ele>
        <time>2024-07-11T09:32:25Z</time>
      </trkpt>
      <trkpt lat="43.79979" lon="1.26422">
        <ele>137.6</ele>
        <time>2024-07-11T09:32:26Z</time>
      </trkpt>
      <trkpt lat="43.79972" lon="1.26427">
        <ele>137.6</ele>
        <time>2024-07-11T09:32:27Z</time>
      </trkpt>
      <trkpt lat="43.79965" lon="1.26433">
        <ele>137.6</ele>
        <time>2024-07-11T09:32:28Z</time>
      </trkpt>
      <trkpt lat="43.79958" lon="1.26437">
        <ele>137.6</ele>
        <time>2024-07-11T09:32:29Z</time>
      </trkpt>
      <trkpt lat="43.79951" lon="1.26442">
        <ele>137.4</ele>
        <time>2024-07-11T09:32:30Z</time>
      </trkpt>
      <trkpt lat="43.79944" lon="1.26447">
        <ele>137.4</ele>
        <time>2024-07-11T09:32:31Z</time>
      </trkpt>
      <trkpt lat="43.79937" lon="1.26452">
        <ele>137.4</ele>
        <time>2024-07-11T09:32:32Z</time>
      </trkpt>
      <trkpt lat="43.7993" lon="1.26457">
        <ele>137.4</ele>
        <time>2024-07-11T09:32:33Z</time>
      </trkpt>
      <trkpt lat="43.79922" lon="1.26462">
        <ele>137.4</ele>
        <time>2024-07-11T09:32:34Z</time>
      </trkpt>
      <trkpt lat="43.79915" lon="1.26466">
        <ele>137.4</ele>
        <time>2024-07-11T09:32:35Z</time>
      </trkpt>
      <trkpt lat="43.79908" lon="1.26471">
        <ele>137.4</ele>
        <time>2024-07-11T09:32:36Z</time>
      </trkpt>
      <trkpt lat="43.79901" lon="1.26476">
        <ele>137.4</ele>
        <time>2024-07-11T09:32:37Z</time>
      </trkpt>
      <trkpt lat="43.79893" lon="1.26481">
        <ele>137.4</ele>
        <time>2024-07-11T09:32:38Z</time>
      </trkpt>
      <trkpt lat="43.79886" lon="1.26485">
        <ele>137.4</ele>
        <time>2024-07-11T09:32:39Z</time>
      </trkpt>
      <trkpt lat="43.79879" lon="1.2649">
        <ele>137.4</ele>
        <time>2024-07-11T09:32:40Z</time>
      </trkpt>
      <trkpt lat="43.79871" lon="1.26495">
        <ele>137.4</ele>
        <time>2024-07-11T09:32:41Z</time>
      </trkpt>
      <trkpt lat="43.79864" lon="1.265">
        <ele>137.6</ele>
        <time>2024-07-11T09:32:42Z</time>
      </trkpt>
      <trkpt lat="43.79857" lon="1.26504">
        <ele>137.6</ele>
        <time>2024-07-11T09:32:43Z</time>
      </trkpt>
      <trkpt lat="43.79849" lon="1.26509">
        <ele>137.8</ele>
        <time>2024-07-11T09:32:44Z</time>
      </trkpt>
      <trkpt lat="43.79842" lon="1.26514">
        <ele>137.8</ele>
        <time>2024-07-11T09:32:45Z</time>
      </trkpt>
      <trkpt lat="43.79834" lon="1.26518">
        <ele>138</ele>
        <time>2024-07-11T09:32:46Z</time>
      </trkpt>
      <trkpt lat="43.79826" lon="1.26523">
        <ele>138.2</ele>
        <time>2024-07-11T09:32:47Z</time>
      </trkpt>
      <trkpt lat="43.79817" lon="1.26529">
        <ele>138.4</ele>
        <time>2024-07-11T09:32:48Z</time>
      </trkpt>
      <trkpt lat="43.7981" lon="1.26532">
        <ele>138.4</ele>
        <time>2024-07-11T09:32:49Z</time>
      </trkpt>
      <trkpt lat="43.79802" lon="1.26537">
        <ele>138.4</ele>
        <time>2024-07-11T09:32:50Z</time>
      </trkpt>
      <trkpt lat="43.79793" lon="1.26541">
        <ele>138.4</ele>
        <time>2024-07-11T09:32:51Z</time>
      </trkpt>
      <trkpt lat="43.79785" lon="1.26545">
        <ele>138.6</ele>
        <time>2024-07-11T09:32:52Z</time>
      </trkpt>
      <trkpt lat="43.79774" lon="1.26549">
        <ele>138.8</ele>
        <time>2024-07-11T09:32:53Z</time>
      </trkpt>
      <trkpt lat="43.79768" lon="1.26552">
        <ele>138.8</ele>
        <time>2024-07-11T09:32:54Z</time>
      </trkpt>
      <trkpt lat="43.79759" lon="1.26555">
        <ele>138.8</ele>
        <time>2024-07-11T09:32:55Z</time>
      </trkpt>
      <trkpt lat="43.7975" lon="1.26559">
        <ele>138.8</ele>
        <time>2024-07-11T09:32:56Z</time>
      </trkpt>
      <trkpt lat="43.79742" lon="1.26562">
        <ele>138.6</ele>
        <time>2024-07-11T09:32:57Z</time>
      </trkpt>
      <trkpt lat="43.79733" lon="1.26565">
        <ele>138.6</ele>
        <time>2024-07-11T09:32:58Z</time>
      </trkpt>
      <trkpt lat="43.79724" lon="1.26569">
        <ele>138.6</ele>
        <time>2024-07-11T09:32:59Z</time>
      </trkpt>
      <trkpt lat="43.79715" lon="1.26572">
        <ele>138.4</ele>
        <time>2024-07-11T09:33:00Z</time>
      </trkpt>
      <trkpt lat="43.79706" lon="1.26575">
        <ele>138.4</ele>
        <time>2024-07-11T09:33:01Z</time>
      </trkpt>
      <trkpt lat="43.79697" lon="1.26579">
        <ele>138.4</ele>
        <time>2024-07-11T09:33:02Z</time>
      </trkpt>
      <trkpt lat="43.79688" lon="1.26582">
        <ele>138.4</ele>
        <time>2024-07-11T09:33:03Z</time>
      </trkpt>
      <trkpt lat="43.79679" lon="1.26585">
        <ele>138.2</ele>
        <time>2024-07-11T09:33:04Z</time>
      </trkpt>
      <trkpt lat="43.7967" lon="1.26589">
        <ele>138.2</ele>
        <time>2024-07-11T09:33:05Z</time>
      </trkpt>
      <trkpt lat="43.79661" lon="1.26592">
        <ele>138.2</ele>
        <time>2024-07-11T09:33:06Z</time>
      </trkpt>
      <trkpt lat="43.79652" lon="1.26595">
        <ele>138</ele>
        <time>2024-07-11T09:33:07Z</time>
      </trkpt>
      <trkpt lat="43.79643" lon="1.26599">
        <ele>138</ele>
        <time>2024-07-11T09:33:08Z</time>
      </trkpt>
      <trkpt lat="43.79633" lon="1.26602">
        <ele>138</ele>
        <time>2024-07-11T09:33:09Z</time>
      </trkpt>
      <trkpt lat="43.79624" lon="1.26605">
        <ele>138</ele>
        <time>2024-07-11T09:33:10Z</time>
      </trkpt>
      <trkpt lat="43.79614" lon="1.26608">
        <ele>137.8</ele>
        <time>2024-07-11T09:33:11Z</time>
      </trkpt>
      <trkpt lat="43.79604" lon="1.26611">
        <ele>137.8</ele>
        <time>2024-07-11T09:33:12Z</time>
      </trkpt>
      <trkpt lat="43.79594" lon="1.26613">
        <ele>137.6</ele>
        <time>2024-07-11T09:33:13Z</time>
      </trkpt>
      <trkpt lat="43.79584" lon="1.26616">
        <ele>137.4</ele>
        <time>2024-07-11T09:33:14Z</time>
      </trkpt>
      <trkpt lat="43.79574" lon="1.26618">
        <ele>137.2</ele>
        <time>2024-07-11T09:33:15Z</time>
      </trkpt>
      <trkpt lat="43.79565" lon="1.2662">
        <ele>137</ele>
        <time>2024-07-11T09:33:16Z</time>
      </trkpt>
      <trkpt lat="43.79555" lon="1.26622">
        <ele>136.8</ele>
        <time>2024-07-11T09:33:17Z</time>
      </trkpt>
      <trkpt lat="43.79545" lon="1.26625">
        <ele>136.6</ele>
        <time>2024-07-11T09:33:18Z</time>
      </trkpt>
      <trkpt lat="43.79536" lon="1.26628">
        <ele>136.4</ele>
        <time>2024-07-11T09:33:19Z</time>
      </trkpt>
      <trkpt lat="43.79526" lon="1.26632">
        <ele>136.2</ele>
        <time>2024-07-11T09:33:20Z</time>
      </trkpt>
      <trkpt lat="43.79516" lon="1.26636">
        <ele>136.2</ele>
        <time>2024-07-11T09:33:21Z</time>
      </trkpt>
      <trkpt lat="43.79507" lon="1.2664">
        <ele>136</ele>
        <time>2024-07-11T09:33:22Z</time>
      </trkpt>
      <trkpt lat="43.79497" lon="1.26645">
        <ele>135.8</ele>
        <time>2024-07-11T09:33:23Z</time>
      </trkpt>
      <trkpt lat="43.79487" lon="1.26649">
        <ele>135.6</ele>
        <time>2024-07-11T09:33:24Z</time>
      </trkpt>
      <trkpt lat="43.79478" lon="1.26655">
        <ele>135.4</ele>
        <time>2024-07-11T09:33:25Z</time>
      </trkpt>
      <trkpt lat="43.79468" lon="1.2666">
        <ele>135.4</ele>
        <time>2024-07-11T09:33:26Z</time>
      </trkpt>
      <trkpt lat="43.79459" lon="1.26665">
        <ele>135.2</ele>
        <time>2024-07-11T09:33:27Z</time>
      </trkpt>
      <trkpt lat="43.7945" lon="1.2667">
        <ele>135.4</ele>
        <time>2024-07-11T09:33:28Z</time>
      </trkpt>
      <trkpt lat="43.79441" lon="1.26676">
        <ele>135.2</ele>
        <time>2024-07-11T09:33:29Z</time>
      </trkpt>
      <trkpt lat="43.79432" lon="1.26681">
        <ele>135.2</ele>
        <time>2024-07-11T09:33:30Z</time>
      </trkpt>
      <trkpt lat="43.79423" lon="1.26687">
        <ele>135.2</ele>
        <time>2024-07-11T09:33:31Z</time>
      </trkpt>
      <trkpt lat="43.79414" lon="1.26692">
        <ele>135</ele>
        <time>2024-07-11T09:33:32Z</time>
      </trkpt>
      <trkpt lat="43.79405" lon="1.26698">
        <ele>135</ele>
        <time>2024-07-11T09:33:33Z</time>
      </trkpt>
      <trkpt lat="43.79396" lon="1.26703">
        <ele>134.8</ele>
        <time>2024-07-11T09:33:34Z</time>
      </trkpt>
      <trkpt lat="43.79387" lon="1.26708">
        <ele>134.8</ele>
        <time>2024-07-11T09:33:35Z</time>
      </trkpt>
      <trkpt lat="43.79377" lon="1.26714">
        <ele>134.8</ele>
        <time>2024-07-11T09:33:36Z</time>
      </trkpt>
      <trkpt lat="43.79368" lon="1.2672">
        <ele>134.8</ele>
        <time>2024-07-11T09:33:37Z</time>
      </trkpt>
      <trkpt lat="43.79359" lon="1.26726">
        <ele>134.8</ele>
        <time>2024-07-11T09:33:38Z</time>
      </trkpt>
      <trkpt lat="43.79349" lon="1.26731">
        <ele>134.6</ele>
        <time>2024-07-11T09:33:39Z</time>
      </trkpt>
      <trkpt lat="43.79339" lon="1.26738">
        <ele>134.6</ele>
        <time>2024-07-11T09:33:40Z</time>
      </trkpt>
      <trkpt lat="43.7933" lon="1.26744">
        <ele>134.4</ele>
        <time>2024-07-11T09:33:41Z</time>
      </trkpt>
      <trkpt lat="43.7932" lon="1.26749">
        <ele>134.2</ele>
        <time>2024-07-11T09:33:42Z</time>
      </trkpt>
      <trkpt lat="43.79311" lon="1.26755">
        <ele>134</ele>
        <time>2024-07-11T09:33:43Z</time>
      </trkpt>
      <trkpt lat="43.79301" lon="1.26761">
        <ele>134</ele>
        <time>2024-07-11T09:33:44Z</time>
      </trkpt>
      <trkpt lat="43.79292" lon="1.26767">
        <ele>134</ele>
        <time>2024-07-11T09:33:45Z</time>
      </trkpt>
      <trkpt lat="43.79282" lon="1.26774">
        <ele>133.8</ele>
        <time>2024-07-11T09:33:46Z</time>
      </trkpt>
      <trkpt lat="43.79273" lon="1.26781">
        <ele>133.6</ele>
        <time>2024-07-11T09:33:47Z</time>
      </trkpt>
      <trkpt lat="43.79263" lon="1.26788">
        <ele>133.4</ele>
        <time>2024-07-11T09:33:48Z</time>
      </trkpt>
      <trkpt lat="43.79254" lon="1.26795">
        <ele>133.4</ele>
        <time>2024-07-11T09:33:49Z</time>
      </trkpt>
      <trkpt lat="43.79245" lon="1.26802">
        <ele>133.2</ele>
        <time>2024-07-11T09:33:50Z</time>
      </trkpt>
      <trkpt lat="43.79237" lon="1.26809">
        <ele>133.2</ele>
        <time>2024-07-11T09:33:51Z</time>
      </trkpt>
      <trkpt lat="43.79227" lon="1.26817">
        <ele>133</ele>
        <time>2024-07-11T09:33:52Z</time>
      </trkpt>
      <trkpt lat="43.79217" lon="1.26823">
        <ele>132.8</ele>
        <time>2024-07-11T09:33:53Z</time>
      </trkpt>
      <trkpt lat="43.79208" lon="1.2683">
        <ele>132.6</ele>
        <time>2024-07-11T09:33:54Z</time>
      </trkpt>
      <trkpt lat="43.79198" lon="1.26837">
        <ele>132.6</ele>
        <time>2024-07-11T09:33:55Z</time>
      </trkpt>
      <trkpt lat="43.7919" lon="1.26844">
        <ele>132.4</ele>
        <time>2024-07-11T09:33:56Z</time>
      </trkpt>
      <trkpt lat="43.79181" lon="1.26851">
        <ele>132.4</ele>
        <time>2024-07-11T09:33:57Z</time>
      </trkpt>
      <trkpt lat="43.79172" lon="1.26858">
        <ele>132.2</ele>
        <time>2024-07-11T09:33:58Z</time>
      </trkpt>
      <trkpt lat="43.79163" lon="1.26865">
        <ele>132</ele>
        <time>2024-07-11T09:33:59Z</time>
      </trkpt>
      <trkpt lat="43.79154" lon="1.26873">
        <ele>132</ele>
        <time>2024-07-11T09:34:00Z</time>
      </trkpt>
      <trkpt lat="43.79144" lon="1.2688">
        <ele>131.4</ele>
        <time>2024-07-11T09:34:01Z</time>
      </trkpt>
      <trkpt lat="43.79134" lon="1.26887">
        <ele>131.2</ele>
        <time>2024-07-11T09:34:02Z</time>
      </trkpt>
      <trkpt lat="43.79124" lon="1.26894">
        <ele>131</ele>
        <time>2024-07-11T09:34:03Z</time>
      </trkpt>
      <trkpt lat="43.79113" lon="1.26902">
        <ele>130.6</ele>
        <time>2024-07-11T09:34:04Z</time>
      </trkpt>
      <trkpt lat="43.79103" lon="1.26908">
        <ele>130.6</ele>
        <time>2024-07-11T09:34:05Z</time>
      </trkpt>
      <trkpt lat="43.79094" lon="1.26913">
        <ele>130.4</ele>
        <time>2024-07-11T09:34:06Z</time>
      </trkpt>
      <trkpt lat="43.79083" lon="1.26919">
        <ele>130.4</ele>
        <time>2024-07-11T09:34:07Z</time>
      </trkpt>
      <trkpt lat="43.79071" lon="1.26925">
        <ele>130</ele>
        <time>2024-07-11T09:34:08Z</time>
      </trkpt>
      <trkpt lat="43.79061" lon="1.26931">
        <ele>129.8</ele>
        <time>2024-07-11T09:34:09Z</time>
      </trkpt>
      <trkpt lat="43.7905" lon="1.26937">
        <ele>129.4</ele>
        <time>2024-07-11T09:34:10Z</time>
      </trkpt>
      <trkpt lat="43.79039" lon="1.26942">
        <ele>129.2</ele>
        <time>2024-07-11T09:34:11Z</time>
      </trkpt>
      <trkpt lat="43.79028" lon="1.26947">
        <ele>129</ele>
        <time>2024-07-11T09:34:12Z</time>
      </trkpt>
      <trkpt lat="43.79018" lon="1.26953">
        <ele>128.6</ele>
        <time>2024-07-11T09:34:13Z</time>
      </trkpt>
      <trkpt lat="43.79005" lon="1.26959">
        <ele>128.4</ele>
        <time>2024-07-11T09:34:14Z</time>
      </trkpt>
      <trkpt lat="43.78997" lon="1.26964">
        <ele>128.2</ele>
        <time>2024-07-11T09:34:15Z</time>
      </trkpt>
      <trkpt lat="43.78987" lon="1.26969">
        <ele>128</ele>
        <time>2024-07-11T09:34:16Z</time>
      </trkpt>
      <trkpt lat="43.78977" lon="1.26974">
        <ele>128</ele>
        <time>2024-07-11T09:34:17Z</time>
      </trkpt>
      <trkpt lat="43.78967" lon="1.2698">
        <ele>127.8</ele>
        <time>2024-07-11T09:34:18Z</time>
      </trkpt>
      <trkpt lat="43.78957" lon="1.26986">
        <ele>127.8</ele>
        <time>2024-07-11T09:34:19Z</time>
      </trkpt>
      <trkpt lat="43.78946" lon="1.26993">
        <ele>127.6</ele>
        <time>2024-07-11T09:34:20Z</time>
      </trkpt>
      <trkpt lat="43.78936" lon="1.26999">
        <ele>127.6</ele>
        <time>2024-07-11T09:34:21Z</time>
      </trkpt>
      <trkpt lat="43.78926" lon="1.27005">
        <ele>127.4</ele>
        <time>2024-07-11T09:34:22Z</time>
      </trkpt>
      <trkpt lat="43.78916" lon="1.27012">
        <ele>127.4</ele>
        <time>2024-07-11T09:34:23Z</time>
      </trkpt>
      <trkpt lat="43.78906" lon="1.27018">
        <ele>127.4</ele>
        <time>2024-07-11T09:34:24Z</time>
      </trkpt>
      <trkpt lat="43.78896" lon="1.27025">
        <ele>127.4</ele>
        <time>2024-07-11T09:34:25Z</time>
      </trkpt>
      <trkpt lat="43.78888" lon="1.2703">
        <ele>127.4</ele>
        <time>2024-07-11T09:34:26Z</time>
      </trkpt>
      <trkpt lat="43.78878" lon="1.27036">
        <ele>127.4</ele>
        <time>2024-07-11T09:34:27Z</time>
      </trkpt>
      <trkpt lat="43.78868" lon="1.27042">
        <ele>127.4</ele>
        <time>2024-07-11T09:34:28Z</time>
      </trkpt>
      <trkpt lat="43.78858" lon="1.27049">
        <ele>127.4</ele>
        <time>2024-07-11T09:34:29Z</time>
      </trkpt>
      <trkpt lat="43.78846" lon="1.27057">
        <ele>127.4</ele>
        <time>2024-07-11T09:34:30Z</time>
      </trkpt>
      <trkpt lat="43.78838" lon="1.27062">
        <ele>127.4</ele>
        <time>2024-07-11T09:34:31Z</time>
      </trkpt>
      <trkpt lat="43.78828" lon="1.27068">
        <ele>127.4</ele>
        <time>2024-07-11T09:34:32Z</time>
      </trkpt>
      <trkpt lat="43.78817" lon="1.27075">
        <ele>127.4</ele>
        <time>2024-07-11T09:34:33Z</time>
      </trkpt>
      <trkpt lat="43.78807" lon="1.27081">
        <ele>127.4</ele>
        <time>2024-07-11T09:34:34Z</time>
      </trkpt>
      <trkpt lat="43.78797" lon="1.27088">
        <ele>127.4</ele>
        <time>2024-07-11T09:34:35Z</time>
      </trkpt>
      <trkpt lat="43.78785" lon="1.27095">
        <ele>127.4</ele>
        <time>2024-07-11T09:34:36Z</time>
      </trkpt>
      <trkpt lat="43.78775" lon="1.27101">
        <ele>127.4</ele>
        <time>2024-07-11T09:34:37Z</time>
      </trkpt>
      <trkpt lat="43.78765" lon="1.27107">
        <ele>127.4</ele>
        <time>2024-07-11T09:34:38Z</time>
      </trkpt>
      <trkpt lat="43.78755" lon="1.27113">
        <ele>127.4</ele>
        <time>2024-07-11T09:34:39Z</time>
      </trkpt>
      <trkpt lat="43.78745" lon="1.27119">
        <ele>127.4</ele>
        <time>2024-07-11T09:34:40Z</time>
      </trkpt>
      <trkpt lat="43.78735" lon="1.27124">
        <ele>127.4</ele>
        <time>2024-07-11T09:34:41Z</time>
      </trkpt>
      <trkpt lat="43.78725" lon="1.2713">
        <ele>127.6</ele>
        <time>2024-07-11T09:34:42Z</time>
      </trkpt>
      <trkpt lat="43.78715" lon="1.27135">
        <ele>127.6</ele>
        <time>2024-07-11T09:34:43Z</time>
      </trkpt>
      <trkpt lat="43.78705" lon="1.2714">
        <ele>127.6</ele>
        <time>2024-07-11T09:34:44Z</time>
      </trkpt>
      <trkpt lat="43.78695" lon="1.27145">
        <ele>127.6</ele>
        <time>2024-07-11T09:34:45Z</time>
      </trkpt>
      <trkpt lat="43.78686" lon="1.2715">
        <ele>127.6</ele>
        <time>2024-07-11T09:34:46Z</time>
      </trkpt>
      <trkpt lat="43.78676" lon="1.27155">
        <ele>127.6</ele>
        <time>2024-07-11T09:34:47Z</time>
      </trkpt>
      <trkpt lat="43.78666" lon="1.2716">
        <ele>127.6</ele>
        <time>2024-07-11T09:34:48Z</time>
      </trkpt>
      <trkpt lat="43.78656" lon="1.27165">
        <ele>127.6</ele>
        <time>2024-07-11T09:34:49Z</time>
      </trkpt>
      <trkpt lat="43.78647" lon="1.27171">
        <ele>127.6</ele>
        <time>2024-07-11T09:34:50Z</time>
      </trkpt>
      <trkpt lat="43.78637" lon="1.27176">
        <ele>127.6</ele>
        <time>2024-07-11T09:34:51Z</time>
      </trkpt>
      <trkpt lat="43.78627" lon="1.27181">
        <ele>127.6</ele>
        <time>2024-07-11T09:34:52Z</time>
      </trkpt>
      <trkpt lat="43.78617" lon="1.27187">
        <ele>127.6</ele>
        <time>2024-07-11T09:34:53Z</time>
      </trkpt>
      <trkpt lat="43.78608" lon="1.27192">
        <ele>127.6</ele>
        <time>2024-07-11T09:34:54Z</time>
      </trkpt>
      <trkpt lat="43.78598" lon="1.27198">
        <ele>127.6</ele>
        <time>2024-07-11T09:34:55Z</time>
      </trkpt>
      <trkpt lat="43.78588" lon="1.27203">
        <ele>127.6</ele>
        <time>2024-07-11T09:34:56Z</time>
      </trkpt>
      <trkpt lat="43.78579" lon="1.27209">
        <ele>127.6</ele>
        <time>2024-07-11T09:34:57Z</time>
      </trkpt>
      <trkpt lat="43.78569" lon="1.27214">
        <ele>127.6</ele>
        <time>2024-07-11T09:34:58Z</time>
      </trkpt>
      <trkpt lat="43.7856" lon="1.2722">
        <ele>127.6</ele>
        <time>2024-07-11T09:34:59Z</time>
      </trkpt>
      <trkpt lat="43.7855" lon="1.27226">
        <ele>127.6</ele>
        <time>2024-07-11T09:35:00Z</time>
      </trkpt>
      <trkpt lat="43.78541" lon="1.27232">
        <ele>127.6</ele>
        <time>2024-07-11T09:35:01Z</time>
      </trkpt>
      <trkpt lat="43.78533" lon="1.27238">
        <ele>127.8</ele>
        <time>2024-07-11T09:35:02Z</time>
      </trkpt>
      <trkpt lat="43.78524" lon="1.27244">
        <ele>127.8</ele>
        <time>2024-07-11T09:35:03Z</time>
      </trkpt>
      <trkpt lat="43.78515" lon="1.2725">
        <ele>128</ele>
        <time>2024-07-11T09:35:04Z</time>
      </trkpt>
      <trkpt lat="43.78507" lon="1.27256">
        <ele>128</ele>
        <time>2024-07-11T09:35:05Z</time>
      </trkpt>
      <trkpt lat="43.78498" lon="1.27262">
        <ele>128</ele>
        <time>2024-07-11T09:35:06Z</time>
      </trkpt>
      <trkpt lat="43.78489" lon="1.27269">
        <ele>128.2</ele>
        <time>2024-07-11T09:35:07Z</time>
      </trkpt>
      <trkpt lat="43.7848" lon="1.27274">
        <ele>128.2</ele>
        <time>2024-07-11T09:35:08Z</time>
      </trkpt>
      <trkpt lat="43.78472" lon="1.2728">
        <ele>128.4</ele>
        <time>2024-07-11T09:35:09Z</time>
      </trkpt>
      <trkpt lat="43.78464" lon="1.27286">
        <ele>128.4</ele>
        <time>2024-07-11T09:35:10Z</time>
      </trkpt>
      <trkpt lat="43.78456" lon="1.27292">
        <ele>128.6</ele>
        <time>2024-07-11T09:35:11Z</time>
      </trkpt>
      <trkpt lat="43.78447" lon="1.27297">
        <ele>128.6</ele>
        <time>2024-07-11T09:35:12Z</time>
      </trkpt>
      <trkpt lat="43.78439" lon="1.27303">
        <ele>128.8</ele>
        <time>2024-07-11T09:35:13Z</time>
      </trkpt>
      <trkpt lat="43.78432" lon="1.27308">
        <ele>129.2</ele>
        <time>2024-07-11T09:35:14Z</time>
      </trkpt>
      <trkpt lat="43.78424" lon="1.27313">
        <ele>129.2</ele>
        <time>2024-07-11T09:35:15Z</time>
      </trkpt>
      <trkpt lat="43.78418" lon="1.27317">
        <ele>129.4</ele>
        <time>2024-07-11T09:35:16Z</time>
      </trkpt>
      <trkpt lat="43.7841" lon="1.27322">
        <ele>129.6</ele>
        <time>2024-07-11T09:35:17Z</time>
      </trkpt>
      <trkpt lat="43.78402" lon="1.27326">
        <ele>129.8</ele>
        <time>2024-07-11T09:35:18Z</time>
      </trkpt>
      <trkpt lat="43.78395" lon="1.27331">
        <ele>129.8</ele>
        <time>2024-07-11T09:35:19Z</time>
      </trkpt>
      <trkpt lat="43.78388" lon="1.27336">
        <ele>130.2</ele>
        <time>2024-07-11T09:35:20Z</time>
      </trkpt>
      <trkpt lat="43.78381" lon="1.2734">
        <ele>130.4</ele>
        <time>2024-07-11T09:35:21Z</time>
      </trkpt>
      <trkpt lat="43.78374" lon="1.27346">
        <ele>130.4</ele>
        <time>2024-07-11T09:35:22Z</time>
      </trkpt>
      <trkpt lat="43.78368" lon="1.27351">
        <ele>130.6</ele>
        <time>2024-07-11T09:35:23Z</time>
      </trkpt>
      <trkpt lat="43.78361" lon="1.27357">
        <ele>130.8</ele>
        <time>2024-07-11T09:35:24Z</time>
      </trkpt>
      <trkpt lat="43.78356" lon="1.27362">
        <ele>130.8</ele>
        <time>2024-07-11T09:35:25Z</time>
      </trkpt>
      <trkpt lat="43.78351" lon="1.27368">
        <ele>130.8</ele>
        <time>2024-07-11T09:35:26Z</time>
      </trkpt>
      <trkpt lat="43.78346" lon="1.27374">
        <ele>130.8</ele>
        <time>2024-07-11T09:35:27Z</time>
      </trkpt>
      <trkpt lat="43.78342" lon="1.27379">
        <ele>131</ele>
        <time>2024-07-11T09:35:28Z</time>
      </trkpt>
      <trkpt lat="43.78336" lon="1.27383">
        <ele>131</ele>
        <time>2024-07-11T09:35:29Z</time>
      </trkpt>
      <trkpt lat="43.7833" lon="1.27385">
        <ele>131.2</ele>
        <time>2024-07-11T09:35:30Z</time>
      </trkpt>
      <trkpt lat="43.78325" lon="1.27387">
        <ele>131.2</ele>
        <time>2024-07-11T09:35:31Z</time>
      </trkpt>
      <trkpt lat="43.78319" lon="1.27387">
        <ele>131.2</ele>
        <time>2024-07-11T09:35:32Z</time>
      </trkpt>
      <trkpt lat="43.78313" lon="1.27383">
        <ele>131.2</ele>
        <time>2024-07-11T09:35:33Z</time>
      </trkpt>
      <trkpt lat="43.78308" lon="1.27376">
        <ele>131.2</ele>
        <time>2024-07-11T09:35:34Z</time>
      </trkpt>
      <trkpt lat="43.78306" lon="1.27369">
        <ele>131.2</ele>
        <time>2024-07-11T09:35:35Z</time>
      </trkpt>
      <trkpt lat="43.78302" lon="1.27357">
        <ele>131.2</ele>
        <time>2024-07-11T09:35:36Z</time>
      </trkpt>
      <trkpt lat="43.78298" lon="1.27348">
        <ele>131</ele>
        <time>2024-07-11T09:35:37Z</time>
      </trkpt>
      <trkpt lat="43.78295" lon="1.27338">
        <ele>131</ele>
        <time>2024-07-11T09:35:38Z</time>
      </trkpt>
      <trkpt lat="43.78291" lon="1.27328">
        <ele>131</ele>
        <time>2024-07-11T09:35:39Z</time>
      </trkpt>
      <trkpt lat="43.78288" lon="1.27318">
        <ele>130.6</ele>
        <time>2024-07-11T09:35:40Z</time>
      </trkpt>
      <trkpt lat="43.78284" lon="1.27308">
        <ele>130.6</ele>
        <time>2024-07-11T09:35:41Z</time>
      </trkpt>
      <trkpt lat="43.78281" lon="1.27299">
        <ele>130.6</ele>
        <time>2024-07-11T09:35:42Z</time>
      </trkpt>
      <trkpt lat="43.78278" lon="1.27289">
        <ele>130.6</ele>
        <time>2024-07-11T09:35:43Z</time>
      </trkpt>
      <trkpt lat="43.78274" lon="1.27279">
        <ele>130.6</ele>
        <time>2024-07-11T09:35:44Z</time>
      </trkpt>
      <trkpt lat="43.78271" lon="1.27269">
        <ele>130.6</ele>
        <time>2024-07-11T09:35:45Z</time>
      </trkpt>
      <trkpt lat="43.78268" lon="1.27259">
        <ele>130.6</ele>
        <time>2024-07-11T09:35:46Z</time>
      </trkpt>
      <trkpt lat="43.78265" lon="1.27249">
        <ele>130.8</ele>
        <time>2024-07-11T09:35:47Z</time>
      </trkpt>
      <trkpt lat="43.78261" lon="1.27239">
        <ele>130.8</ele>
        <time>2024-07-11T09:35:48Z</time>
      </trkpt>
      <trkpt lat="43.78258" lon="1.27229">
        <ele>131</ele>
        <time>2024-07-11T09:35:49Z</time>
      </trkpt>
      <trkpt lat="43.78254" lon="1.27219">
        <ele>131</ele>
        <time>2024-07-11T09:35:50Z</time>
      </trkpt>
      <trkpt lat="43.78251" lon="1.27208">
        <ele>131</ele>
        <time>2024-07-11T09:35:51Z</time>
      </trkpt>
      <trkpt lat="43.78247" lon="1.27198">
        <ele>131.2</ele>
        <time>2024-07-11T09:35:52Z</time>
      </trkpt>
      <trkpt lat="43.78244" lon="1.27187">
        <ele>131.2</ele>
        <time>2024-07-11T09:35:53Z</time>
      </trkpt>
      <trkpt lat="43.7824" lon="1.27177">
        <ele>131.4</ele>
        <time>2024-07-11T09:35:54Z</time>
      </trkpt>
      <trkpt lat="43.78237" lon="1.27167">
        <ele>131.4</ele>
        <time>2024-07-11T09:35:55Z</time>
      </trkpt>
      <trkpt lat="43.78233" lon="1.27156">
        <ele>131.6</ele>
        <time>2024-07-11T09:35:56Z</time>
      </trkpt>
      <trkpt lat="43.78229" lon="1.27146">
        <ele>131.6</ele>
        <time>2024-07-11T09:35:57Z</time>
      </trkpt>
      <trkpt lat="43.78226" lon="1.27136">
        <ele>131.8</ele>
        <time>2024-07-11T09:35:58Z</time>
      </trkpt>
      <trkpt lat="43.78223" lon="1.27126">
        <ele>131.8</ele>
        <time>2024-07-11T09:35:59Z</time>
      </trkpt>
      <trkpt lat="43.78219" lon="1.27116">
        <ele>132</ele>
        <time>2024-07-11T09:36:00Z</time>
      </trkpt>
      <trkpt lat="43.78215" lon="1.27106">
        <ele>132</ele>
        <time>2024-07-11T09:36:01Z</time>
      </trkpt>
      <trkpt lat="43.78212" lon="1.27096">
        <ele>132</ele>
        <time>2024-07-11T09:36:02Z</time>
      </trkpt>
      <trkpt lat="43.78208" lon="1.27086">
        <ele>132.4</ele>
        <time>2024-07-11T09:36:03Z</time>
      </trkpt>
      <trkpt lat="43.78204" lon="1.27076">
        <ele>132.2</ele>
        <time>2024-07-11T09:36:04Z</time>
      </trkpt>
      <trkpt lat="43.782" lon="1.27067">
        <ele>132.4</ele>
        <time>2024-07-11T09:36:05Z</time>
      </trkpt>
      <trkpt lat="43.78196" lon="1.2706">
        <ele>132.8</ele>
        <time>2024-07-11T09:36:06Z</time>
      </trkpt>
      <trkpt lat="43.78191" lon="1.27049">
        <ele>133</ele>
        <time>2024-07-11T09:36:07Z</time>
      </trkpt>
      <trkpt lat="43.78186" lon="1.27041">
        <ele>133</ele>
        <time>2024-07-11T09:36:08Z</time>
      </trkpt>
      <trkpt lat="43.78181" lon="1.27033">
        <ele>133.2</ele>
        <time>2024-07-11T09:36:09Z</time>
      </trkpt>
      <trkpt lat="43.78175" lon="1.27026">
        <ele>133.2</ele>
        <time>2024-07-11T09:36:10Z</time>
      </trkpt>
      <trkpt lat="43.78169" lon="1.27019">
        <ele>133.4</ele>
        <time>2024-07-11T09:36:11Z</time>
      </trkpt>
      <trkpt lat="43.78162" lon="1.27013">
        <ele>133.6</ele>
        <time>2024-07-11T09:36:12Z</time>
      </trkpt>
      <trkpt lat="43.78157" lon="1.27007">
        <ele>133.6</ele>
        <time>2024-07-11T09:36:13Z</time>
      </trkpt>
      <trkpt lat="43.7815" lon="1.27">
        <ele>134</ele>
        <time>2024-07-11T09:36:14Z</time>
      </trkpt>
      <trkpt lat="43.78144" lon="1.26994">
        <ele>134.2</ele>
        <time>2024-07-11T09:36:15Z</time>
      </trkpt>
      <trkpt lat="43.78138" lon="1.26989">
        <ele>134.4</ele>
        <time>2024-07-11T09:36:16Z</time>
      </trkpt>
      <trkpt lat="43.78133" lon="1.26983">
        <ele>134.6</ele>
        <time>2024-07-11T09:36:17Z</time>
      </trkpt>
      <trkpt lat="43.78127" lon="1.26977">
        <ele>134.8</ele>
        <time>2024-07-11T09:36:18Z</time>
      </trkpt>
      <trkpt lat="43.78122" lon="1.26971">
        <ele>135.2</ele>
        <time>2024-07-11T09:36:19Z</time>
      </trkpt>
      <trkpt lat="43.78116" lon="1.26965">
        <ele>135.4</ele>
        <time>2024-07-11T09:36:20Z</time>
      </trkpt>
      <trkpt lat="43.78111" lon="1.2696">
        <ele>135.8</ele>
        <time>2024-07-11T09:36:21Z</time>
      </trkpt>
      <trkpt lat="43.78106" lon="1.26954">
        <ele>135.8</ele>
        <time>2024-07-11T09:36:22Z</time>
      </trkpt>
      <trkpt lat="43.78101" lon="1.26948">
        <ele>136</ele>
        <time>2024-07-11T09:36:23Z</time>
      </trkpt>
      <trkpt lat="43.78096" lon="1.26943">
        <ele>136.4</ele>
        <time>2024-07-11T09:36:24Z</time>
      </trkpt>
      <trkpt lat="43.78091" lon="1.26937">
        <ele>136.8</ele>
        <time>2024-07-11T09:36:25Z</time>
      </trkpt>
      <trkpt lat="43.78087" lon="1.26932">
        <ele>137.2</ele>
        <time>2024-07-11T09:36:26Z</time>
      </trkpt>
      <trkpt lat="43.78082" lon="1.26928">
        <ele>137.4</ele>
        <time>2024-07-11T09:36:27Z</time>
      </trkpt>
      <trkpt lat="43.78077" lon="1.26922">
        <ele>138</ele>
        <time>2024-07-11T09:36:28Z</time>
      </trkpt>
      <trkpt lat="43.78072" lon="1.26917">
        <ele>138.4</ele>
        <time>2024-07-11T09:36:29Z</time>
      </trkpt>
      <trkpt lat="43.78067" lon="1.26912">
        <ele>138.6</ele>
        <time>2024-07-11T09:36:30Z</time>
      </trkpt>
      <trkpt lat="43.78062" lon="1.26906">
        <ele>138.8</ele>
        <time>2024-07-11T09:36:31Z</time>
      </trkpt>
      <trkpt lat="43.78058" lon="1.26902">
        <ele>139</ele>
        <time>2024-07-11T09:36:32Z</time>
      </trkpt>
      <trkpt lat="43.78052" lon="1.26895">
        <ele>139.2</ele>
        <time>2024-07-11T09:36:33Z</time>
      </trkpt>
      <trkpt lat="43.78047" lon="1.2689">
        <ele>139.4</ele>
        <time>2024-07-11T09:36:34Z</time>
      </trkpt>
      <trkpt lat="43.78043" lon="1.26885">
        <ele>139.4</ele>
        <time>2024-07-11T09:36:35Z</time>
      </trkpt>
      <trkpt lat="43.78038" lon="1.26879">
        <ele>139.4</ele>
        <time>2024-07-11T09:36:36Z</time>
      </trkpt>
      <trkpt lat="43.78033" lon="1.26873">
        <ele>139.6</ele>
        <time>2024-07-11T09:36:37Z</time>
      </trkpt>
      <trkpt lat="43.78027" lon="1.26868">
        <ele>139.8</ele>
        <time>2024-07-11T09:36:38Z</time>
      </trkpt>
      <trkpt lat="43.78022" lon="1.26862">
        <ele>139.8</ele>
        <time>2024-07-11T09:36:39Z</time>
      </trkpt>
      <trkpt lat="43.78017" lon="1.26856">
        <ele>140</ele>
        <time>2024-07-11T09:36:40Z</time>
      </trkpt>
      <trkpt lat="43.78012" lon="1.2685">
        <ele>140.2</ele>
        <time>2024-07-11T09:36:41Z</time>
      </trkpt>
      <trkpt lat="43.78007" lon="1.26845">
        <ele>140.2</ele>
        <time>2024-07-11T09:36:42Z</time>
      </trkpt>
      <trkpt lat="43.78001" lon="1.26838">
        <ele>140.4</ele>
        <time>2024-07-11T09:36:43Z</time>
      </trkpt>
      <trkpt lat="43.77996" lon="1.26832">
        <ele>140.4</ele>
        <time>2024-07-11T09:36:44Z</time>
      </trkpt>
      <trkpt lat="43.77991" lon="1.26826">
        <ele>140.4</ele>
        <time>2024-07-11T09:36:45Z</time>
      </trkpt>
      <trkpt lat="43.77986" lon="1.2682">
        <ele>140.6</ele>
        <time>2024-07-11T09:36:46Z</time>
      </trkpt>
      <trkpt lat="43.77981" lon="1.26814">
        <ele>140.6</ele>
        <time>2024-07-11T09:36:47Z</time>
      </trkpt>
      <trkpt lat="43.77976" lon="1.26809">
        <ele>140.8</ele>
        <time>2024-07-11T09:36:48Z</time>
      </trkpt>
      <trkpt lat="43.77971" lon="1.26803">
        <ele>140.8</ele>
        <time>2024-07-11T09:36:49Z</time>
      </trkpt>
      <trkpt lat="43.77967" lon="1.26798">
        <ele>141</ele>
        <time>2024-07-11T09:36:50Z</time>
      </trkpt>
      <trkpt lat="43.77962" lon="1.26793">
        <ele>141</ele>
        <time>2024-07-11T09:36:51Z</time>
      </trkpt>
      <trkpt lat="43.77957" lon="1.26787">
        <ele>141</ele>
        <time>2024-07-11T09:36:52Z</time>
      </trkpt>
      <trkpt lat="43.77952" lon="1.26782">
        <ele>141</ele>
        <time>2024-07-11T09:36:53Z</time>
      </trkpt>
      <trkpt lat="43.77947" lon="1.26777">
        <ele>141</ele>
        <time>2024-07-11T09:36:54Z</time>
      </trkpt>
      <trkpt lat="43.77942" lon="1.26772">
        <ele>141.2</ele>
        <time>2024-07-11T09:36:55Z</time>
      </trkpt>
      <trkpt lat="43.77937" lon="1.26768">
        <ele>141.2</ele>
        <time>2024-07-11T09:36:56Z</time>
      </trkpt>
      <trkpt lat="43.77932" lon="1.26764">
        <ele>141.2</ele>
        <time>2024-07-11T09:36:57Z</time>
      </trkpt>
      <trkpt lat="43.77927" lon="1.2676">
        <ele>141</ele>
        <time>2024-07-11T09:36:58Z</time>
      </trkpt>
      <trkpt lat="43.77923" lon="1.26757">
        <ele>141</ele>
        <time>2024-07-11T09:36:59Z</time>
      </trkpt>
      <trkpt lat="43.77919" lon="1.26755">
        <ele>141</ele>
        <time>2024-07-11T09:37:00Z</time>
      </trkpt>
      <trkpt lat="43.77916" lon="1.26753">
        <ele>141</ele>
        <time>2024-07-11T09:37:01Z</time>
      </trkpt>
      <trkpt lat="43.77913" lon="1.26752">
        <ele>141.2</ele>
        <time>2024-07-11T09:37:02Z</time>
      </trkpt>
      <trkpt lat="43.7791" lon="1.26752">
        <ele>141</ele>
        <time>2024-07-11T09:37:03Z</time>
      </trkpt>
      <trkpt lat="43.77906" lon="1.26755">
        <ele>141</ele>
        <time>2024-07-11T09:37:04Z</time>
      </trkpt>
      <trkpt lat="43.77902" lon="1.26759">
        <ele>140.8</ele>
        <time>2024-07-11T09:37:05Z</time>
      </trkpt>
      <trkpt lat="43.77899" lon="1.26765">
        <ele>140.8</ele>
        <time>2024-07-11T09:37:06Z</time>
      </trkpt>
      <trkpt lat="43.77896" lon="1.26771">
        <ele>140.6</ele>
        <time>2024-07-11T09:37:07Z</time>
      </trkpt>
      <trkpt lat="43.77893" lon="1.26778">
        <ele>140.4</ele>
        <time>2024-07-11T09:37:08Z</time>
      </trkpt>
      <trkpt lat="43.7789" lon="1.26786">
        <ele>140.2</ele>
        <time>2024-07-11T09:37:09Z</time>
      </trkpt>
      <trkpt lat="43.77886" lon="1.26794">
        <ele>140</ele>
        <time>2024-07-11T09:37:10Z</time>
      </trkpt>
      <trkpt lat="43.77883" lon="1.26802">
        <ele>140</ele>
        <time>2024-07-11T09:37:11Z</time>
      </trkpt>
      <trkpt lat="43.77879" lon="1.26811">
        <ele>139.4</ele>
        <time>2024-07-11T09:37:12Z</time>
      </trkpt>
      <trkpt lat="43.77874" lon="1.26822">
        <ele>139.4</ele>
        <time>2024-07-11T09:37:13Z</time>
      </trkpt>
      <trkpt lat="43.7787" lon="1.2683">
        <ele>139.2</ele>
        <time>2024-07-11T09:37:14Z</time>
      </trkpt>
      <trkpt lat="43.77866" lon="1.2684">
        <ele>138.6</ele>
        <time>2024-07-11T09:37:15Z</time>
      </trkpt>
      <trkpt lat="43.77861" lon="1.26851">
        <ele>138.4</ele>
        <time>2024-07-11T09:37:16Z</time>
      </trkpt>
      <trkpt lat="43.77857" lon="1.26862">
        <ele>138</ele>
        <time>2024-07-11T09:37:17Z</time>
      </trkpt>
      <trkpt lat="43.77852" lon="1.26872">
        <ele>137.8</ele>
        <time>2024-07-11T09:37:18Z</time>
      </trkpt>
      <trkpt lat="43.77847" lon="1.26883">
        <ele>137.4</ele>
        <time>2024-07-11T09:37:19Z</time>
      </trkpt>
      <trkpt lat="43.77842" lon="1.26894">
        <ele>137</ele>
        <time>2024-07-11T09:37:20Z</time>
      </trkpt>
      <trkpt lat="43.77836" lon="1.26906">
        <ele>136.6</ele>
        <time>2024-07-11T09:37:21Z</time>
      </trkpt>
      <trkpt lat="43.7783" lon="1.26918">
        <ele>136</ele>
        <time>2024-07-11T09:37:22Z</time>
      </trkpt>
      <trkpt lat="43.77824" lon="1.26932">
        <ele>135.6</ele>
        <time>2024-07-11T09:37:23Z</time>
      </trkpt>
      <trkpt lat="43.7782" lon="1.26943">
        <ele>135</ele>
        <time>2024-07-11T09:37:24Z</time>
      </trkpt>
      <trkpt lat="43.77814" lon="1.26956">
        <ele>134.8</ele>
        <time>2024-07-11T09:37:25Z</time>
      </trkpt>
      <trkpt lat="43.77808" lon="1.26969">
        <ele>134.2</ele>
        <time>2024-07-11T09:37:26Z</time>
      </trkpt>
      <trkpt lat="43.77802" lon="1.26982">
        <ele>133.2</ele>
        <time>2024-07-11T09:37:27Z</time>
      </trkpt>
      <trkpt lat="43.77796" lon="1.26996">
        <ele>132.8</ele>
        <time>2024-07-11T09:37:28Z</time>
      </trkpt>
      <trkpt lat="43.7779" lon="1.27009">
        <ele>132.2</ele>
        <time>2024-07-11T09:37:29Z</time>
      </trkpt>
      <trkpt lat="43.77784" lon="1.27023">
        <ele>132</ele>
        <time>2024-07-11T09:37:30Z</time>
      </trkpt>
      <trkpt lat="43.77778" lon="1.27036">
        <ele>131.4</ele>
        <time>2024-07-11T09:37:31Z</time>
      </trkpt>
      <trkpt lat="43.77772" lon="1.27049">
        <ele>131</ele>
        <time>2024-07-11T09:37:32Z</time>
      </trkpt>
      <trkpt lat="43.77767" lon="1.27062">
        <ele>130.8</ele>
        <time>2024-07-11T09:37:33Z</time>
      </trkpt>
      <trkpt lat="43.77761" lon="1.27074">
        <ele>130.4</ele>
        <time>2024-07-11T09:37:34Z</time>
      </trkpt>
      <trkpt lat="43.77755" lon="1.27087">
        <ele>130.2</ele>
        <time>2024-07-11T09:37:35Z</time>
      </trkpt>
      <trkpt lat="43.77749" lon="1.271">
        <ele>130</ele>
        <time>2024-07-11T09:37:36Z</time>
      </trkpt>
      <trkpt lat="43.77744" lon="1.27112">
        <ele>129.8</ele>
        <time>2024-07-11T09:37:37Z</time>
      </trkpt>
      <trkpt lat="43.77737" lon="1.27127">
        <ele>129.6</ele>
        <time>2024-07-11T09:37:38Z</time>
      </trkpt>
      <trkpt lat="43.77732" lon="1.27136">
        <ele>129.4</ele>
        <time>2024-07-11T09:37:39Z</time>
      </trkpt>
      <trkpt lat="43.77727" lon="1.27148">
        <ele>129.4</ele>
        <time>2024-07-11T09:37:40Z</time>
      </trkpt>
      <trkpt lat="43.77722" lon="1.2716">
        <ele>129.2</ele>
        <time>2024-07-11T09:37:41Z</time>
      </trkpt>
      <trkpt lat="43.77717" lon="1.27171">
        <ele>129</ele>
        <time>2024-07-11T09:37:42Z</time>
      </trkpt>
      <trkpt lat="43.77711" lon="1.27185">
        <ele>129</ele>
        <time>2024-07-11T09:37:43Z</time>
      </trkpt>
      <trkpt lat="43.77706" lon="1.27194">
        <ele>129</ele>
        <time>2024-07-11T09:37:44Z</time>
      </trkpt>
      <trkpt lat="43.77701" lon="1.27206">
        <ele>129</ele>
        <time>2024-07-11T09:37:45Z</time>
      </trkpt>
      <trkpt lat="43.77697" lon="1.27217">
        <ele>129</ele>
        <time>2024-07-11T09:37:46Z</time>
      </trkpt>
      <trkpt lat="43.77692" lon="1.27227">
        <ele>129</ele>
        <time>2024-07-11T09:37:47Z</time>
      </trkpt>
      <trkpt lat="43.77688" lon="1.27238">
        <ele>129</ele>
        <time>2024-07-11T09:37:48Z</time>
      </trkpt>
      <trkpt lat="43.77683" lon="1.27247">
        <ele>129</ele>
        <time>2024-07-11T09:37:49Z</time>
      </trkpt>
      <trkpt lat="43.77679" lon="1.27257">
        <ele>129.2</ele>
        <time>2024-07-11T09:37:50Z</time>
      </trkpt>
      <trkpt lat="43.77674" lon="1.27266">
        <ele>129.2</ele>
        <time>2024-07-11T09:37:51Z</time>
      </trkpt>
      <trkpt lat="43.7767" lon="1.27275">
        <ele>129.2</ele>
        <time>2024-07-11T09:37:52Z</time>
      </trkpt>
      <trkpt lat="43.77666" lon="1.27284">
        <ele>129.4</ele>
        <time>2024-07-11T09:37:53Z</time>
      </trkpt>
      <trkpt lat="43.77661" lon="1.27294">
        <ele>129.4</ele>
        <time>2024-07-11T09:37:54Z</time>
      </trkpt>
      <trkpt lat="43.77657" lon="1.27303">
        <ele>129.4</ele>
        <time>2024-07-11T09:37:55Z</time>
      </trkpt>
      <trkpt lat="43.77653" lon="1.27312">
        <ele>129.4</ele>
        <time>2024-07-11T09:37:56Z</time>
      </trkpt>
      <trkpt lat="43.77648" lon="1.27321">
        <ele>129.4</ele>
        <time>2024-07-11T09:37:57Z</time>
      </trkpt>
      <trkpt lat="43.77644" lon="1.2733">
        <ele>129.6</ele>
        <time>2024-07-11T09:37:58Z</time>
      </trkpt>
      <trkpt lat="43.7764" lon="1.2734">
        <ele>129.6</ele>
        <time>2024-07-11T09:37:59Z</time>
      </trkpt>
      <trkpt lat="43.77636" lon="1.27349">
        <ele>129.8</ele>
        <time>2024-07-11T09:38:00Z</time>
      </trkpt>
      <trkpt lat="43.77632" lon="1.27359">
        <ele>129.8</ele>
        <time>2024-07-11T09:38:01Z</time>
      </trkpt>
      <trkpt lat="43.77627" lon="1.27368">
        <ele>129.8</ele>
        <time>2024-07-11T09:38:02Z</time>
      </trkpt>
      <trkpt lat="43.77623" lon="1.27377">
        <ele>129.8</ele>
        <time>2024-07-11T09:38:03Z</time>
      </trkpt>
      <trkpt lat="43.77619" lon="1.27387">
        <ele>129.8</ele>
        <time>2024-07-11T09:38:04Z</time>
      </trkpt>
      <trkpt lat="43.77614" lon="1.27396">
        <ele>129.4</ele>
        <time>2024-07-11T09:38:05Z</time>
      </trkpt>
      <trkpt lat="43.7761" lon="1.27406">
        <ele>129.6</ele>
        <time>2024-07-11T09:38:06Z</time>
      </trkpt>
      <trkpt lat="43.77606" lon="1.27415">
        <ele>129.6</ele>
        <time>2024-07-11T09:38:07Z</time>
      </trkpt>
      <trkpt lat="43.77602" lon="1.27424">
        <ele>129.6</ele>
        <time>2024-07-11T09:38:08Z</time>
      </trkpt>
      <trkpt lat="43.77597" lon="1.27434">
        <ele>129.8</ele>
        <time>2024-07-11T09:38:09Z</time>
      </trkpt>
      <trkpt lat="43.77593" lon="1.27443">
        <ele>129.4</ele>
        <time>2024-07-11T09:38:10Z</time>
      </trkpt>
      <trkpt lat="43.77589" lon="1.27452">
        <ele>129.2</ele>
        <time>2024-07-11T09:38:11Z</time>
      </trkpt>
      <trkpt lat="43.77585" lon="1.27462">
        <ele>129.4</ele>
        <time>2024-07-11T09:38:12Z</time>
      </trkpt>
      <trkpt lat="43.77581" lon="1.27471">
        <ele>129.4</ele>
        <time>2024-07-11T09:38:13Z</time>
      </trkpt>
      <trkpt lat="43.77576" lon="1.27481">
        <ele>129.6</ele>
        <time>2024-07-11T09:38:14Z</time>
      </trkpt>
      <trkpt lat="43.77572" lon="1.27491">
        <ele>129.8</ele>
        <time>2024-07-11T09:38:15Z</time>
      </trkpt>
      <trkpt lat="43.77568" lon="1.27501">
        <ele>129.8</ele>
        <time>2024-07-11T09:38:16Z</time>
      </trkpt>
      <trkpt lat="43.77563" lon="1.27511">
        <ele>129.8</ele>
        <time>2024-07-11T09:38:17Z</time>
      </trkpt>
      <trkpt lat="43.77559" lon="1.27521">
        <ele>129.8</ele>
        <time>2024-07-11T09:38:18Z</time>
      </trkpt>
      <trkpt lat="43.77555" lon="1.2753">
        <ele>129.8</ele>
        <time>2024-07-11T09:38:19Z</time>
      </trkpt>
      <trkpt lat="43.7755" lon="1.2754">
        <ele>129.8</ele>
        <time>2024-07-11T09:38:20Z</time>
      </trkpt>
      <trkpt lat="43.77546" lon="1.2755">
        <ele>129.8</ele>
        <time>2024-07-11T09:38:21Z</time>
      </trkpt>
      <trkpt lat="43.77541" lon="1.2756">
        <ele>129.8</ele>
        <time>2024-07-11T09:38:22Z</time>
      </trkpt>
      <trkpt lat="43.77537" lon="1.2757">
        <ele>130</ele>
        <time>2024-07-11T09:38:23Z</time>
      </trkpt>
      <trkpt lat="43.77532" lon="1.2758">
        <ele>130</ele>
        <time>2024-07-11T09:38:24Z</time>
      </trkpt>
      <trkpt lat="43.77528" lon="1.2759">
        <ele>130</ele>
        <time>2024-07-11T09:38:25Z</time>
      </trkpt>
      <trkpt lat="43.77523" lon="1.276">
        <ele>130</ele>
        <time>2024-07-11T09:38:26Z</time>
      </trkpt>
      <trkpt lat="43.77519" lon="1.2761">
        <ele>130</ele>
        <time>2024-07-11T09:38:27Z</time>
      </trkpt>
      <trkpt lat="43.77514" lon="1.2762">
        <ele>130</ele>
        <time>2024-07-11T09:38:28Z</time>
      </trkpt>
      <trkpt lat="43.77509" lon="1.2763">
        <ele>130</ele>
        <time>2024-07-11T09:38:29Z</time>
      </trkpt>
      <trkpt lat="43.77504" lon="1.27641">
        <ele>130</ele>
        <time>2024-07-11T09:38:30Z</time>
      </trkpt>
      <trkpt lat="43.775" lon="1.27651">
        <ele>130</ele>
        <time>2024-07-11T09:38:31Z</time>
      </trkpt>
      <trkpt lat="43.77494" lon="1.27663">
        <ele>130</ele>
        <time>2024-07-11T09:38:32Z</time>
      </trkpt>
      <trkpt lat="43.7749" lon="1.27672">
        <ele>130</ele>
        <time>2024-07-11T09:38:33Z</time>
      </trkpt>
      <trkpt lat="43.77485" lon="1.27683">
        <ele>130</ele>
        <time>2024-07-11T09:38:34Z</time>
      </trkpt>
      <trkpt lat="43.7748" lon="1.27694">
        <ele>130</ele>
        <time>2024-07-11T09:38:35Z</time>
      </trkpt>
      <trkpt lat="43.77475" lon="1.27705">
        <ele>130</ele>
        <time>2024-07-11T09:38:36Z</time>
      </trkpt>
      <trkpt lat="43.77471" lon="1.27716">
        <ele>129.8</ele>
        <time>2024-07-11T09:38:37Z</time>
      </trkpt>
      <trkpt lat="43.77466" lon="1.27727">
        <ele>129.8</ele>
        <time>2024-07-11T09:38:38Z</time>
      </trkpt>
      <trkpt lat="43.77461" lon="1.27738">
        <ele>130</ele>
        <time>2024-07-11T09:38:39Z</time>
      </trkpt>
      <trkpt lat="43.77456" lon="1.27749">
        <ele>130.2</ele>
        <time>2024-07-11T09:38:40Z</time>
      </trkpt>
      <trkpt lat="43.77451" lon="1.2776">
        <ele>130.2</ele>
        <time>2024-07-11T09:38:41Z</time>
      </trkpt>
      <trkpt lat="43.77446" lon="1.27771">
        <ele>130.4</ele>
        <time>2024-07-11T09:38:42Z</time>
      </trkpt>
      <trkpt lat="43.77441" lon="1.27781">
        <ele>130.4</ele>
        <time>2024-07-11T09:38:43Z</time>
      </trkpt>
      <trkpt lat="43.77436" lon="1.27791">
        <ele>130.2</ele>
        <time>2024-07-11T09:38:44Z</time>
      </trkpt>
      <trkpt lat="43.77431" lon="1.27802">
        <ele>130.2</ele>
        <time>2024-07-11T09:38:45Z</time>
      </trkpt>
      <trkpt lat="43.77427" lon="1.27812">
        <ele>130.4</ele>
        <time>2024-07-11T09:38:46Z</time>
      </trkpt>
      <trkpt lat="43.77422" lon="1.27822">
        <ele>130.4</ele>
        <time>2024-07-11T09:38:47Z</time>
      </trkpt>
      <trkpt lat="43.77417" lon="1.27832">
        <ele>130.4</ele>
        <time>2024-07-11T09:38:48Z</time>
      </trkpt>
      <trkpt lat="43.77413" lon="1.27843">
        <ele>130.4</ele>
        <time>2024-07-11T09:38:49Z</time>
      </trkpt>
      <trkpt lat="43.77408" lon="1.27853">
        <ele>130.4</ele>
        <time>2024-07-11T09:38:50Z</time>
      </trkpt>
      <trkpt lat="43.77403" lon="1.27863">
        <ele>130.6</ele>
        <time>2024-07-11T09:38:51Z</time>
      </trkpt>
      <trkpt lat="43.77399" lon="1.27873">
        <ele>130.6</ele>
        <time>2024-07-11T09:38:52Z</time>
      </trkpt>
      <trkpt lat="43.77394" lon="1.27884">
        <ele>130.6</ele>
        <time>2024-07-11T09:38:53Z</time>
      </trkpt>
      <trkpt lat="43.7739" lon="1.27894">
        <ele>130.6</ele>
        <time>2024-07-11T09:38:54Z</time>
      </trkpt>
      <trkpt lat="43.77386" lon="1.27904">
        <ele>130.6</ele>
        <time>2024-07-11T09:38:55Z</time>
      </trkpt>
      <trkpt lat="43.77381" lon="1.27914">
        <ele>130.6</ele>
        <time>2024-07-11T09:38:56Z</time>
      </trkpt>
      <trkpt lat="43.77377" lon="1.27923">
        <ele>130.6</ele>
        <time>2024-07-11T09:38:57Z</time>
      </trkpt>
      <trkpt lat="43.77372" lon="1.27934">
        <ele>130.8</ele>
        <time>2024-07-11T09:38:58Z</time>
      </trkpt>
      <trkpt lat="43.77367" lon="1.27944">
        <ele>130.6</ele>
        <time>2024-07-11T09:38:59Z</time>
      </trkpt>
      <trkpt lat="43.77362" lon="1.27954">
        <ele>130.6</ele>
        <time>2024-07-11T09:39:00Z</time>
      </trkpt>
      <trkpt lat="43.77358" lon="1.27964">
        <ele>130.6</ele>
        <time>2024-07-11T09:39:01Z</time>
      </trkpt>
      <trkpt lat="43.77353" lon="1.27975">
        <ele>130.6</ele>
        <time>2024-07-11T09:39:02Z</time>
      </trkpt>
      <trkpt lat="43.77348" lon="1.27985">
        <ele>130.6</ele>
        <time>2024-07-11T09:39:03Z</time>
      </trkpt>
      <trkpt lat="43.77343" lon="1.27996">
        <ele>130.4</ele>
        <time>2024-07-11T09:39:04Z</time>
      </trkpt>
      <trkpt lat="43.77339" lon="1.28006">
        <ele>130.4</ele>
        <time>2024-07-11T09:39:05Z</time>
      </trkpt>
      <trkpt lat="43.77334" lon="1.28016">
        <ele>130.4</ele>
        <time>2024-07-11T09:39:06Z</time>
      </trkpt>
      <trkpt lat="43.77329" lon="1.28026">
        <ele>130.4</ele>
        <time>2024-07-11T09:39:07Z</time>
      </trkpt>
      <trkpt lat="43.77324" lon="1.28036">
        <ele>130.4</ele>
        <time>2024-07-11T09:39:08Z</time>
      </trkpt>
      <trkpt lat="43.77319" lon="1.28045">
        <ele>130.4</ele>
        <time>2024-07-11T09:39:09Z</time>
      </trkpt>
      <trkpt lat="43.77315" lon="1.28055">
        <ele>130.4</ele>
        <time>2024-07-11T09:39:10Z</time>
      </trkpt>
      <trkpt lat="43.77311" lon="1.28065">
        <ele>130.2</ele>
        <time>2024-07-11T09:39:11Z</time>
      </trkpt>
      <trkpt lat="43.77307" lon="1.28076">
        <ele>130.2</ele>
        <time>2024-07-11T09:39:12Z</time>
      </trkpt>
      <trkpt lat="43.77302" lon="1.28086">
        <ele>130.2</ele>
        <time>2024-07-11T09:39:13Z</time>
      </trkpt>
      <trkpt lat="43.77298" lon="1.28096">
        <ele>130.2</ele>
        <time>2024-07-11T09:39:14Z</time>
      </trkpt>
      <trkpt lat="43.77293" lon="1.28106">
        <ele>130.2</ele>
        <time>2024-07-11T09:39:15Z</time>
      </trkpt>
      <trkpt lat="43.77288" lon="1.28116">
        <ele>130</ele>
        <time>2024-07-11T09:39:16Z</time>
      </trkpt>
      <trkpt lat="43.77284" lon="1.28126">
        <ele>130</ele>
        <time>2024-07-11T09:39:17Z</time>
      </trkpt>
      <trkpt lat="43.77279" lon="1.28136">
        <ele>130</ele>
        <time>2024-07-11T09:39:18Z</time>
      </trkpt>
      <trkpt lat="43.77275" lon="1.28146">
        <ele>130</ele>
        <time>2024-07-11T09:39:19Z</time>
      </trkpt>
      <trkpt lat="43.77271" lon="1.28155">
        <ele>130</ele>
        <time>2024-07-11T09:39:20Z</time>
      </trkpt>
      <trkpt lat="43.77266" lon="1.28165">
        <ele>130.2</ele>
        <time>2024-07-11T09:39:21Z</time>
      </trkpt>
      <trkpt lat="43.77262" lon="1.28175">
        <ele>130.2</ele>
        <time>2024-07-11T09:39:22Z</time>
      </trkpt>
      <trkpt lat="43.77258" lon="1.28184">
        <ele>130.2</ele>
        <time>2024-07-11T09:39:23Z</time>
      </trkpt>
      <trkpt lat="43.77254" lon="1.28194">
        <ele>130.4</ele>
        <time>2024-07-11T09:39:24Z</time>
      </trkpt>
      <trkpt lat="43.77249" lon="1.28204">
        <ele>130.2</ele>
        <time>2024-07-11T09:39:25Z</time>
      </trkpt>
      <trkpt lat="43.77245" lon="1.28213">
        <ele>130.4</ele>
        <time>2024-07-11T09:39:26Z</time>
      </trkpt>
      <trkpt lat="43.77241" lon="1.28223">
        <ele>130.4</ele>
        <time>2024-07-11T09:39:27Z</time>
      </trkpt>
      <trkpt lat="43.77237" lon="1.28232">
        <ele>130.4</ele>
        <time>2024-07-11T09:39:28Z</time>
      </trkpt>
      <trkpt lat="43.77233" lon="1.28241">
        <ele>130.4</ele>
        <time>2024-07-11T09:39:29Z</time>
      </trkpt>
      <trkpt lat="43.77228" lon="1.28251">
        <ele>130.4</ele>
        <time>2024-07-11T09:39:30Z</time>
      </trkpt>
      <trkpt lat="43.77225" lon="1.2826">
        <ele>130.4</ele>
        <time>2024-07-11T09:39:31Z</time>
      </trkpt>
      <trkpt lat="43.7722" lon="1.28269">
        <ele>130.4</ele>
        <time>2024-07-11T09:39:32Z</time>
      </trkpt>
      <trkpt lat="43.77216" lon="1.28278">
        <ele>130.4</ele>
        <time>2024-07-11T09:39:33Z</time>
      </trkpt>
      <trkpt lat="43.77212" lon="1.28287">
        <ele>130.4</ele>
        <time>2024-07-11T09:39:34Z</time>
      </trkpt>
      <trkpt lat="43.77208" lon="1.28296">
        <ele>130.4</ele>
        <time>2024-07-11T09:39:35Z</time>
      </trkpt>
      <trkpt lat="43.77204" lon="1.28306">
        <ele>130.4</ele>
        <time>2024-07-11T09:39:36Z</time>
      </trkpt>
      <trkpt lat="43.772" lon="1.28315">
        <ele>130.4</ele>
        <time>2024-07-11T09:39:37Z</time>
      </trkpt>
      <trkpt lat="43.77195" lon="1.28326">
        <ele>130.4</ele>
        <time>2024-07-11T09:39:38Z</time>
      </trkpt>
      <trkpt lat="43.7719" lon="1.28336">
        <ele>130.4</ele>
        <time>2024-07-11T09:39:39Z</time>
      </trkpt>
      <trkpt lat="43.77186" lon="1.28346">
        <ele>130.4</ele>
        <time>2024-07-11T09:39:40Z</time>
      </trkpt>
      <trkpt lat="43.77182" lon="1.28355">
        <ele>130.4</ele>
        <time>2024-07-11T09:39:41Z</time>
      </trkpt>
      <trkpt lat="43.77178" lon="1.28364">
        <ele>130.6</ele>
        <time>2024-07-11T09:39:42Z</time>
      </trkpt>
      <trkpt lat="43.77174" lon="1.28374">
        <ele>130.8</ele>
        <time>2024-07-11T09:39:43Z</time>
      </trkpt>
      <trkpt lat="43.7717" lon="1.28382">
        <ele>130.8</ele>
        <time>2024-07-11T09:39:44Z</time>
      </trkpt>
      <trkpt lat="43.77165" lon="1.28392">
        <ele>130.6</ele>
        <time>2024-07-11T09:39:45Z</time>
      </trkpt>
      <trkpt lat="43.77162" lon="1.28401">
        <ele>130.6</ele>
        <time>2024-07-11T09:39:46Z</time>
      </trkpt>
      <trkpt lat="43.77158" lon="1.28408">
        <ele>130.6</ele>
        <time>2024-07-11T09:39:47Z</time>
      </trkpt>
      <trkpt lat="43.77153" lon="1.28419">
        <ele>130.6</ele>
        <time>2024-07-11T09:39:48Z</time>
      </trkpt>
      <trkpt lat="43.77149" lon="1.28428">
        <ele>130.6</ele>
        <time>2024-07-11T09:39:49Z</time>
      </trkpt>
      <trkpt lat="43.77144" lon="1.28438">
        <ele>130.8</ele>
        <time>2024-07-11T09:39:50Z</time>
      </trkpt>
      <trkpt lat="43.7714" lon="1.28447">
        <ele>130.8</ele>
        <time>2024-07-11T09:39:51Z</time>
      </trkpt>
      <trkpt lat="43.77136" lon="1.28455">
        <ele>130.6</ele>
        <time>2024-07-11T09:39:52Z</time>
      </trkpt>
      <trkpt lat="43.77132" lon="1.28464">
        <ele>130.6</ele>
        <time>2024-07-11T09:39:53Z</time>
      </trkpt>
      <trkpt lat="43.77127" lon="1.28473">
        <ele>130.4</ele>
        <time>2024-07-11T09:39:54Z</time>
      </trkpt>
      <trkpt lat="43.77123" lon="1.28483">
        <ele>130.4</ele>
        <time>2024-07-11T09:39:55Z</time>
      </trkpt>
      <trkpt lat="43.77119" lon="1.28493">
        <ele>130.4</ele>
        <time>2024-07-11T09:39:56Z</time>
      </trkpt>
      <trkpt lat="43.77115" lon="1.28502">
        <ele>130.4</ele>
        <time>2024-07-11T09:39:57Z</time>
      </trkpt>
      <trkpt lat="43.77111" lon="1.28511">
        <ele>130.4</ele>
        <time>2024-07-11T09:39:58Z</time>
      </trkpt>
      <trkpt lat="43.77106" lon="1.28522">
        <ele>130.4</ele>
        <time>2024-07-11T09:39:59Z</time>
      </trkpt>
      <trkpt lat="43.77103" lon="1.2853">
        <ele>130.4</ele>
        <time>2024-07-11T09:40:00Z</time>
      </trkpt>
      <trkpt lat="43.77098" lon="1.28539">
        <ele>130.4</ele>
        <time>2024-07-11T09:40:01Z</time>
      </trkpt>
      <trkpt lat="43.77094" lon="1.28548">
        <ele>130.4</ele>
        <time>2024-07-11T09:40:02Z</time>
      </trkpt>
      <trkpt lat="43.7709" lon="1.28557">
        <ele>130.4</ele>
        <time>2024-07-11T09:40:03Z</time>
      </trkpt>
      <trkpt lat="43.77086" lon="1.28566">
        <ele>130.4</ele>
        <time>2024-07-11T09:40:04Z</time>
      </trkpt>
      <trkpt lat="43.77082" lon="1.28574">
        <ele>130.4</ele>
        <time>2024-07-11T09:40:05Z</time>
      </trkpt>
      <trkpt lat="43.77077" lon="1.28583">
        <ele>130.6</ele>
        <time>2024-07-11T09:40:06Z</time>
      </trkpt>
      <trkpt lat="43.77074" lon="1.28592">
        <ele>130.6</ele>
        <time>2024-07-11T09:40:07Z</time>
      </trkpt>
      <trkpt lat="43.7707" lon="1.28601">
        <ele>130.6</ele>
        <time>2024-07-11T09:40:08Z</time>
      </trkpt>
      <trkpt lat="43.77066" lon="1.28609">
        <ele>130.6</ele>
        <time>2024-07-11T09:40:09Z</time>
      </trkpt>
      <trkpt lat="43.77062" lon="1.28618">
        <ele>130.6</ele>
        <time>2024-07-11T09:40:10Z</time>
      </trkpt>
      <trkpt lat="43.77059" lon="1.28626">
        <ele>130.8</ele>
        <time>2024-07-11T09:40:11Z</time>
      </trkpt>
      <trkpt lat="43.77055" lon="1.28634">
        <ele>130.8</ele>
        <time>2024-07-11T09:40:12Z</time>
      </trkpt>
      <trkpt lat="43.77052" lon="1.28641">
        <ele>130.8</ele>
        <time>2024-07-11T09:40:13Z</time>
      </trkpt>
      <trkpt lat="43.77049" lon="1.28648">
        <ele>130.8</ele>
        <time>2024-07-11T09:40:14Z</time>
      </trkpt>
      <trkpt lat="43.77045" lon="1.28654">
        <ele>130.8</ele>
        <time>2024-07-11T09:40:15Z</time>
      </trkpt>
      <trkpt lat="43.77042" lon="1.28661">
        <ele>130.8</ele>
        <time>2024-07-11T09:40:16Z</time>
      </trkpt>
      <trkpt lat="43.77038" lon="1.28667">
        <ele>130.8</ele>
        <time>2024-07-11T09:40:17Z</time>
      </trkpt>
      <trkpt lat="43.77033" lon="1.28673">
        <ele>130.8</ele>
        <time>2024-07-11T09:40:18Z</time>
      </trkpt>
      <trkpt lat="43.7703" lon="1.28679">
        <ele>131</ele>
        <time>2024-07-11T09:40:19Z</time>
      </trkpt>
      <trkpt lat="43.77029" lon="1.28686">
        <ele>131</ele>
        <time>2024-07-11T09:40:20Z</time>
      </trkpt>
      <trkpt lat="43.77029" lon="1.28694">
        <ele>131</ele>
        <time>2024-07-11T09:40:21Z</time>
      </trkpt>
      <trkpt lat="43.77032" lon="1.28703">
        <ele>131.2</ele>
        <time>2024-07-11T09:40:22Z</time>
      </trkpt>
      <trkpt lat="43.77035" lon="1.28711">
        <ele>131.2</ele>
        <time>2024-07-11T09:40:23Z</time>
      </trkpt>
      <trkpt lat="43.77038" lon="1.28719">
        <ele>131.2</ele>
        <time>2024-07-11T09:40:24Z</time>
      </trkpt>
      <trkpt lat="43.7704" lon="1.28725">
        <ele>131.2</ele>
        <time>2024-07-11T09:40:25Z</time>
      </trkpt>
      <trkpt lat="43.77041" lon="1.28733">
        <ele>131.2</ele>
        <time>2024-07-11T09:40:26Z</time>
      </trkpt>
      <trkpt lat="43.77043" lon="1.28743">
        <ele>131.2</ele>
        <time>2024-07-11T09:40:27Z</time>
      </trkpt>
      <trkpt lat="43.77045" lon="1.2875">
        <ele>131.4</ele>
        <time>2024-07-11T09:40:28Z</time>
      </trkpt>
      <trkpt lat="43.77048" lon="1.2876">
        <ele>131.6</ele>
        <time>2024-07-11T09:40:29Z</time>
      </trkpt>
      <trkpt lat="43.7705" lon="1.28766">
        <ele>131.6</ele>
        <time>2024-07-11T09:40:30Z</time>
      </trkpt>
      <trkpt lat="43.77052" lon="1.28774">
        <ele>131.8</ele>
        <time>2024-07-11T09:40:31Z</time>
      </trkpt>
      <trkpt lat="43.77055" lon="1.28782">
        <ele>131.8</ele>
        <time>2024-07-11T09:40:32Z</time>
      </trkpt>
      <trkpt lat="43.77057" lon="1.2879">
        <ele>132</ele>
        <time>2024-07-11T09:40:33Z</time>
      </trkpt>
      <trkpt lat="43.7706" lon="1.28798">
        <ele>132</ele>
        <time>2024-07-11T09:40:34Z</time>
      </trkpt>
      <trkpt lat="43.77063" lon="1.28806">
        <ele>132.2</ele>
        <time>2024-07-11T09:40:35Z</time>
      </trkpt>
      <trkpt lat="43.77066" lon="1.28813">
        <ele>132.2</ele>
        <time>2024-07-11T09:40:36Z</time>
      </trkpt>
      <trkpt lat="43.77069" lon="1.28822">
        <ele>132.2</ele>
        <time>2024-07-11T09:40:37Z</time>
      </trkpt>
      <trkpt lat="43.77072" lon="1.2883">
        <ele>132.4</ele>
        <time>2024-07-11T09:40:38Z</time>
      </trkpt>
      <trkpt lat="43.77075" lon="1.2884">
        <ele>132.6</ele>
        <time>2024-07-11T09:40:39Z</time>
      </trkpt>
      <trkpt lat="43.77077" lon="1.28846">
        <ele>132.6</ele>
        <time>2024-07-11T09:40:40Z</time>
      </trkpt>
      <trkpt lat="43.7708" lon="1.28854">
        <ele>133</ele>
        <time>2024-07-11T09:40:41Z</time>
      </trkpt>
      <trkpt lat="43.77083" lon="1.28864">
        <ele>133</ele>
        <time>2024-07-11T09:40:42Z</time>
      </trkpt>
      <trkpt lat="43.77084" lon="1.28872">
        <ele>133.2</ele>
        <time>2024-07-11T09:40:43Z</time>
      </trkpt>
      <trkpt lat="43.77086" lon="1.2888">
        <ele>133.2</ele>
        <time>2024-07-11T09:40:44Z</time>
      </trkpt>
      <trkpt lat="43.77087" lon="1.28888">
        <ele>133.4</ele>
        <time>2024-07-11T09:40:45Z</time>
      </trkpt>
      <trkpt lat="43.77087" lon="1.28898">
        <ele>133.4</ele>
        <time>2024-07-11T09:40:46Z</time>
      </trkpt>
      <trkpt lat="43.77086" lon="1.2891">
        <ele>133.4</ele>
        <time>2024-07-11T09:40:47Z</time>
      </trkpt>
      <trkpt lat="43.77085" lon="1.28921">
        <ele>133.4</ele>
        <time>2024-07-11T09:40:48Z</time>
      </trkpt>
      <trkpt lat="43.77084" lon="1.28931">
        <ele>133.4</ele>
        <time>2024-07-11T09:40:49Z</time>
      </trkpt>
      <trkpt lat="43.77082" lon="1.28939">
        <ele>133.4</ele>
        <time>2024-07-11T09:40:50Z</time>
      </trkpt>
      <trkpt lat="43.7708" lon="1.28948">
        <ele>133.2</ele>
        <time>2024-07-11T09:40:51Z</time>
      </trkpt>
      <trkpt lat="43.77077" lon="1.2896">
        <ele>133</ele>
        <time>2024-07-11T09:40:52Z</time>
      </trkpt>
      <trkpt lat="43.77074" lon="1.28969">
        <ele>133</ele>
        <time>2024-07-11T09:40:53Z</time>
      </trkpt>
      <trkpt lat="43.77071" lon="1.28979">
        <ele>133</ele>
        <time>2024-07-11T09:40:54Z</time>
      </trkpt>
      <trkpt lat="43.77068" lon="1.28985">
        <ele>132.8</ele>
        <time>2024-07-11T09:40:55Z</time>
      </trkpt>
      <trkpt lat="43.77063" lon="1.28993">
        <ele>132.8</ele>
        <time>2024-07-11T09:40:56Z</time>
      </trkpt>
      <trkpt lat="43.77056" lon="1.29002">
        <ele>132.8</ele>
        <time>2024-07-11T09:40:57Z</time>
      </trkpt>
      <trkpt lat="43.77051" lon="1.29009">
        <ele>132.8</ele>
        <time>2024-07-11T09:40:58Z</time>
      </trkpt>
      <trkpt lat="43.77046" lon="1.29017">
        <ele>132.6</ele>
        <time>2024-07-11T09:40:59Z</time>
      </trkpt>
      <trkpt lat="43.77041" lon="1.29023">
        <ele>132.6</ele>
        <time>2024-07-11T09:41:00Z</time>
      </trkpt>
      <trkpt lat="43.77037" lon="1.29031">
        <ele>132.6</ele>
        <time>2024-07-11T09:41:01Z</time>
      </trkpt>
      <trkpt lat="43.77032" lon="1.29042">
        <ele>132.6</ele>
        <time>2024-07-11T09:41:02Z</time>
      </trkpt>
      <trkpt lat="43.77028" lon="1.29051">
        <ele>132.6</ele>
        <time>2024-07-11T09:41:03Z</time>
      </trkpt>
      <trkpt lat="43.77025" lon="1.2906">
        <ele>132.6</ele>
        <time>2024-07-11T09:41:04Z</time>
      </trkpt>
      <trkpt lat="43.77022" lon="1.29067">
        <ele>132.6</ele>
        <time>2024-07-11T09:41:05Z</time>
      </trkpt>
      <trkpt lat="43.77019" lon="1.29076">
        <ele>132.6</ele>
        <time>2024-07-11T09:41:06Z</time>
      </trkpt>
      <trkpt lat="43.77016" lon="1.29085">
        <ele>132.6</ele>
        <time>2024-07-11T09:41:07Z</time>
      </trkpt>
      <trkpt lat="43.77012" lon="1.29096">
        <ele>132.6</ele>
        <time>2024-07-11T09:41:08Z</time>
      </trkpt>
      <trkpt lat="43.7701" lon="1.29103">
        <ele>132.6</ele>
        <time>2024-07-11T09:41:09Z</time>
      </trkpt>
      <trkpt lat="43.77006" lon="1.29111">
        <ele>132.6</ele>
        <time>2024-07-11T09:41:10Z</time>
      </trkpt>
      <trkpt lat="43.77003" lon="1.2912">
        <ele>132.6</ele>
        <time>2024-07-11T09:41:11Z</time>
      </trkpt>
      <trkpt lat="43.76999" lon="1.29129">
        <ele>132.6</ele>
        <time>2024-07-11T09:41:12Z</time>
      </trkpt>
      <trkpt lat="43.76995" lon="1.29137">
        <ele>132.8</ele>
        <time>2024-07-11T09:41:13Z</time>
      </trkpt>
      <trkpt lat="43.76992" lon="1.29142">
        <ele>133</ele>
        <time>2024-07-11T09:41:14Z</time>
      </trkpt>
      <trkpt lat="43.76989" lon="1.29149">
        <ele>133</ele>
        <time>2024-07-11T09:41:15Z</time>
      </trkpt>
      <trkpt lat="43.76985" lon="1.29156">
        <ele>133</ele>
        <time>2024-07-11T09:41:16Z</time>
      </trkpt>
      <trkpt lat="43.7698" lon="1.29164">
        <ele>133</ele>
        <time>2024-07-11T09:41:17Z</time>
      </trkpt>
      <trkpt lat="43.76976" lon="1.29171">
        <ele>133.2</ele>
        <time>2024-07-11T09:41:18Z</time>
      </trkpt>
      <trkpt lat="43.76972" lon="1.29176">
        <ele>133.2</ele>
        <time>2024-07-11T09:41:19Z</time>
      </trkpt>
      <trkpt lat="43.76968" lon="1.29181">
        <ele>133.2</ele>
        <time>2024-07-11T09:41:20Z</time>
      </trkpt>
      <trkpt lat="43.76964" lon="1.29187">
        <ele>133.2</ele>
        <time>2024-07-11T09:41:21Z</time>
      </trkpt>
      <trkpt lat="43.76961" lon="1.29192">
        <ele>133.4</ele>
        <time>2024-07-11T09:41:22Z</time>
      </trkpt>
      <trkpt lat="43.76957" lon="1.29198">
        <ele>133.4</ele>
        <time>2024-07-11T09:41:23Z</time>
      </trkpt>
      <trkpt lat="43.76953" lon="1.29203">
        <ele>133.6</ele>
        <time>2024-07-11T09:41:24Z</time>
      </trkpt>
      <trkpt lat="43.76949" lon="1.29208">
        <ele>133.6</ele>
        <time>2024-07-11T09:41:25Z</time>
      </trkpt>
      <trkpt lat="43.76945" lon="1.29212">
        <ele>133.8</ele>
        <time>2024-07-11T09:41:26Z</time>
      </trkpt>
      <trkpt lat="43.76942" lon="1.29214">
        <ele>133.8</ele>
        <time>2024-07-11T09:41:27Z</time>
      </trkpt>
      <trkpt lat="43.76937" lon="1.29214">
        <ele>133.8</ele>
        <time>2024-07-11T09:41:28Z</time>
      </trkpt>
      <trkpt lat="43.76934" lon="1.29211">
        <ele>134</ele>
        <time>2024-07-11T09:41:29Z</time>
      </trkpt>
      <trkpt lat="43.76931" lon="1.29205">
        <ele>134</ele>
        <time>2024-07-11T09:41:30Z</time>
      </trkpt>
      <trkpt lat="43.7693" lon="1.29198">
        <ele>134.2</ele>
        <time>2024-07-11T09:41:31Z</time>
      </trkpt>
      <trkpt lat="43.76928" lon="1.29191">
        <ele>134.2</ele>
        <time>2024-07-11T09:41:32Z</time>
      </trkpt>
      <trkpt lat="43.76926" lon="1.29184">
        <ele>134.2</ele>
        <time>2024-07-11T09:41:33Z</time>
      </trkpt>
      <trkpt lat="43.76923" lon="1.29177">
        <ele>134.2</ele>
        <time>2024-07-11T09:41:34Z</time>
      </trkpt>
      <trkpt lat="43.7692" lon="1.2917">
        <ele>134.2</ele>
        <time>2024-07-11T09:41:35Z</time>
      </trkpt>
      <trkpt lat="43.76916" lon="1.29164">
        <ele>134.2</ele>
        <time>2024-07-11T09:41:36Z</time>
      </trkpt>
      <trkpt lat="43.76911" lon="1.29159">
        <ele>134.2</ele>
        <time>2024-07-11T09:41:37Z</time>
      </trkpt>
      <trkpt lat="43.76905" lon="1.29156">
        <ele>134.4</ele>
        <time>2024-07-11T09:41:38Z</time>
      </trkpt>
      <trkpt lat="43.76899" lon="1.29153">
        <ele>134.4</ele>
        <time>2024-07-11T09:41:39Z</time>
      </trkpt>
      <trkpt lat="43.76893" lon="1.29151">
        <ele>134.4</ele>
        <time>2024-07-11T09:41:40Z</time>
      </trkpt>
      <trkpt lat="43.76887" lon="1.29148">
        <ele>134.6</ele>
        <time>2024-07-11T09:41:41Z</time>
      </trkpt>
      <trkpt lat="43.76881" lon="1.29146">
        <ele>134.6</ele>
        <time>2024-07-11T09:41:42Z</time>
      </trkpt>
      <trkpt lat="43.76875" lon="1.29143">
        <ele>134.8</ele>
        <time>2024-07-11T09:41:43Z</time>
      </trkpt>
      <trkpt lat="43.76869" lon="1.2914">
        <ele>135</ele>
        <time>2024-07-11T09:41:44Z</time>
      </trkpt>
      <trkpt lat="43.76862" lon="1.29137">
        <ele>135</ele>
        <time>2024-07-11T09:41:45Z</time>
      </trkpt>
      <trkpt lat="43.76855" lon="1.29133">
        <ele>135</ele>
        <time>2024-07-11T09:41:46Z</time>
      </trkpt>
      <trkpt lat="43.76849" lon="1.29129">
        <ele>135</ele>
        <time>2024-07-11T09:41:47Z</time>
      </trkpt>
      <trkpt lat="43.76842" lon="1.29126">
        <ele>135.2</ele>
        <time>2024-07-11T09:41:48Z</time>
      </trkpt>
      <trkpt lat="43.76836" lon="1.29123">
        <ele>135.2</ele>
        <time>2024-07-11T09:41:49Z</time>
      </trkpt>
      <trkpt lat="43.76829" lon="1.29121">
        <ele>135.2</ele>
        <time>2024-07-11T09:41:50Z</time>
      </trkpt>
      <trkpt lat="43.76822" lon="1.29119">
        <ele>135.2</ele>
        <time>2024-07-11T09:41:51Z</time>
      </trkpt>
      <trkpt lat="43.76815" lon="1.29118">
        <ele>135.2</ele>
        <time>2024-07-11T09:41:52Z</time>
      </trkpt>
      <trkpt lat="43.76808" lon="1.29118">
        <ele>135.2</ele>
        <time>2024-07-11T09:41:53Z</time>
      </trkpt>
      <trkpt lat="43.76801" lon="1.29119">
        <ele>135.2</ele>
        <time>2024-07-11T09:41:54Z</time>
      </trkpt>
      <trkpt lat="43.76795" lon="1.29119">
        <ele>135.2</ele>
        <time>2024-07-11T09:41:55Z</time>
      </trkpt>
      <trkpt lat="43.76788" lon="1.29119">
        <ele>135.4</ele>
        <time>2024-07-11T09:41:56Z</time>
      </trkpt>
      <trkpt lat="43.76781" lon="1.2912">
        <ele>135.4</ele>
        <time>2024-07-11T09:41:57Z</time>
      </trkpt>
      <trkpt lat="43.76775" lon="1.2912">
        <ele>135.4</ele>
        <time>2024-07-11T09:41:58Z</time>
      </trkpt>
      <trkpt lat="43.76769" lon="1.2912">
        <ele>135.4</ele>
        <time>2024-07-11T09:41:59Z</time>
      </trkpt>
      <trkpt lat="43.76765" lon="1.2912">
        <ele>135.6</ele>
        <time>2024-07-11T09:42:00Z</time>
      </trkpt>
      <trkpt lat="43.76759" lon="1.2912">
        <ele>136</ele>
        <time>2024-07-11T09:42:01Z</time>
      </trkpt>
      <trkpt lat="43.76754" lon="1.29119">
        <ele>136</ele>
        <time>2024-07-11T09:42:02Z</time>
      </trkpt>
      <trkpt lat="43.76749" lon="1.29118">
        <ele>136.4</ele>
        <time>2024-07-11T09:42:03Z</time>
      </trkpt>
      <trkpt lat="43.76744" lon="1.29117">
        <ele>136.6</ele>
        <time>2024-07-11T09:42:04Z</time>
      </trkpt>
      <trkpt lat="43.7674" lon="1.29116">
        <ele>137.2</ele>
        <time>2024-07-11T09:42:05Z</time>
      </trkpt>
      <trkpt lat="43.76735" lon="1.29115">
        <ele>137.6</ele>
        <time>2024-07-11T09:42:06Z</time>
      </trkpt>
      <trkpt lat="43.76731" lon="1.29114">
        <ele>138.4</ele>
        <time>2024-07-11T09:42:07Z</time>
      </trkpt>
      <trkpt lat="43.76726" lon="1.29112">
        <ele>138.6</ele>
        <time>2024-07-11T09:42:08Z</time>
      </trkpt>
      <trkpt lat="43.76722" lon="1.29111">
        <ele>139</ele>
        <time>2024-07-11T09:42:09Z</time>
      </trkpt>
      <trkpt lat="43.76718" lon="1.29109">
        <ele>139.4</ele>
        <time>2024-07-11T09:42:10Z</time>
      </trkpt>
      <trkpt lat="43.76714" lon="1.29108">
        <ele>139.6</ele>
        <time>2024-07-11T09:42:11Z</time>
      </trkpt>
      <trkpt lat="43.76709" lon="1.29106">
        <ele>139.8</ele>
        <time>2024-07-11T09:42:12Z</time>
      </trkpt>
      <trkpt lat="43.76705" lon="1.29103">
        <ele>140.4</ele>
        <time>2024-07-11T09:42:13Z</time>
      </trkpt>
      <trkpt lat="43.767" lon="1.291">
        <ele>140.6</ele>
        <time>2024-07-11T09:42:14Z</time>
      </trkpt>
      <trkpt lat="43.76696" lon="1.29097">
        <ele>141.2</ele>
        <time>2024-07-11T09:42:15Z</time>
      </trkpt>
      <trkpt lat="43.76692" lon="1.29093">
        <ele>141.2</ele>
        <time>2024-07-11T09:42:16Z</time>
      </trkpt>
      <trkpt lat="43.76687" lon="1.29089">
        <ele>141.6</ele>
        <time>2024-07-11T09:42:17Z</time>
      </trkpt>
      <trkpt lat="43.76683" lon="1.29084">
        <ele>141.8</ele>
        <time>2024-07-11T09:42:18Z</time>
      </trkpt>
      <trkpt lat="43.76678" lon="1.2908">
        <ele>141.8</ele>
        <time>2024-07-11T09:42:19Z</time>
      </trkpt>
      <trkpt lat="43.76674" lon="1.29075">
        <ele>142</ele>
        <time>2024-07-11T09:42:20Z</time>
      </trkpt>
      <trkpt lat="43.76669" lon="1.2907">
        <ele>142.2</ele>
        <time>2024-07-11T09:42:21Z</time>
      </trkpt>
      <trkpt lat="43.76665" lon="1.29064">
        <ele>142.2</ele>
        <time>2024-07-11T09:42:22Z</time>
      </trkpt>
      <trkpt lat="43.76661" lon="1.29059">
        <ele>142.2</ele>
        <time>2024-07-11T09:42:23Z</time>
      </trkpt>
      <trkpt lat="43.76656" lon="1.29053">
        <ele>142.4</ele>
        <time>2024-07-11T09:42:24Z</time>
      </trkpt>
      <trkpt lat="43.76652" lon="1.29047">
        <ele>142.6</ele>
        <time>2024-07-11T09:42:25Z</time>
      </trkpt>
      <trkpt lat="43.76648" lon="1.2904">
        <ele>142.8</ele>
        <time>2024-07-11T09:42:26Z</time>
      </trkpt>
      <trkpt lat="43.76644" lon="1.29033">
        <ele>142.8</ele>
        <time>2024-07-11T09:42:27Z</time>
      </trkpt>
      <trkpt lat="43.7664" lon="1.29027">
        <ele>142.8</ele>
        <time>2024-07-11T09:42:28Z</time>
      </trkpt>
      <trkpt lat="43.76635" lon="1.2902">
        <ele>143</ele>
        <time>2024-07-11T09:42:29Z</time>
      </trkpt>
      <trkpt lat="43.76631" lon="1.29013">
        <ele>143</ele>
        <time>2024-07-11T09:42:30Z</time>
      </trkpt>
      <trkpt lat="43.76627" lon="1.29007">
        <ele>143</ele>
        <time>2024-07-11T09:42:31Z</time>
      </trkpt>
      <trkpt lat="43.76622" lon="1.29001">
        <ele>143</ele>
        <time>2024-07-11T09:42:32Z</time>
      </trkpt>
      <trkpt lat="43.76616" lon="1.28995">
        <ele>143</ele>
        <time>2024-07-11T09:42:33Z</time>
      </trkpt>
      <trkpt lat="43.7661" lon="1.28989">
        <ele>143</ele>
        <time>2024-07-11T09:42:34Z</time>
      </trkpt>
      <trkpt lat="43.76604" lon="1.28984">
        <ele>143</ele>
        <time>2024-07-11T09:42:35Z</time>
      </trkpt>
      <trkpt lat="43.76597" lon="1.2898">
        <ele>143</ele>
        <time>2024-07-11T09:42:36Z</time>
      </trkpt>
      <trkpt lat="43.76591" lon="1.28976">
        <ele>142.8</ele>
        <time>2024-07-11T09:42:37Z</time>
      </trkpt>
      <trkpt lat="43.76583" lon="1.28973">
        <ele>142.8</ele>
        <time>2024-07-11T09:42:38Z</time>
      </trkpt>
      <trkpt lat="43.76576" lon="1.2897">
        <ele>142.6</ele>
        <time>2024-07-11T09:42:39Z</time>
      </trkpt>
      <trkpt lat="43.76569" lon="1.28967">
        <ele>142.6</ele>
        <time>2024-07-11T09:42:40Z</time>
      </trkpt>
      <trkpt lat="43.76562" lon="1.28964">
        <ele>142.6</ele>
        <time>2024-07-11T09:42:41Z</time>
      </trkpt>
      <trkpt lat="43.76554" lon="1.28961">
        <ele>142.6</ele>
        <time>2024-07-11T09:42:42Z</time>
      </trkpt>
      <trkpt lat="43.76547" lon="1.28958">
        <ele>142.6</ele>
        <time>2024-07-11T09:42:43Z</time>
      </trkpt>
      <trkpt lat="43.76539" lon="1.28955">
        <ele>142.6</ele>
        <time>2024-07-11T09:42:44Z</time>
      </trkpt>
      <trkpt lat="43.76532" lon="1.28953">
        <ele>142.6</ele>
        <time>2024-07-11T09:42:45Z</time>
      </trkpt>
      <trkpt lat="43.76524" lon="1.28951">
        <ele>142.6</ele>
        <time>2024-07-11T09:42:46Z</time>
      </trkpt>
      <trkpt lat="43.76516" lon="1.28949">
        <ele>142.6</ele>
        <time>2024-07-11T09:42:47Z</time>
      </trkpt>
      <trkpt lat="43.76509" lon="1.28948">
        <ele>142.6</ele>
        <time>2024-07-11T09:42:48Z</time>
      </trkpt>
      <trkpt lat="43.76501" lon="1.28947">
        <ele>142.6</ele>
        <time>2024-07-11T09:42:49Z</time>
      </trkpt>
      <trkpt lat="43.76494" lon="1.28947">
        <ele>142.6</ele>
        <time>2024-07-11T09:42:50Z</time>
      </trkpt>
      <trkpt lat="43.76486" lon="1.28947">
        <ele>142.6</ele>
        <time>2024-07-11T09:42:51Z</time>
      </trkpt>
      <trkpt lat="43.76478" lon="1.28948">
        <ele>142.6</ele>
        <time>2024-07-11T09:42:52Z</time>
      </trkpt>
      <trkpt lat="43.76471" lon="1.28949">
        <ele>142.6</ele>
        <time>2024-07-11T09:42:53Z</time>
      </trkpt>
      <trkpt lat="43.76463" lon="1.28949">
        <ele>142.6</ele>
        <time>2024-07-11T09:42:54Z</time>
      </trkpt>
      <trkpt lat="43.76456" lon="1.28948">
        <ele>142.6</ele>
        <time>2024-07-11T09:42:55Z</time>
      </trkpt>
      <trkpt lat="43.76448" lon="1.28947">
        <ele>142.6</ele>
        <time>2024-07-11T09:42:56Z</time>
      </trkpt>
      <trkpt lat="43.76441" lon="1.28945">
        <ele>142.6</ele>
        <time>2024-07-11T09:42:57Z</time>
      </trkpt>
      <trkpt lat="43.76433" lon="1.28944">
        <ele>142.6</ele>
        <time>2024-07-11T09:42:58Z</time>
      </trkpt>
      <trkpt lat="43.76426" lon="1.28943">
        <ele>142.6</ele>
        <time>2024-07-11T09:42:59Z</time>
      </trkpt>
      <trkpt lat="43.76418" lon="1.28942">
        <ele>142.6</ele>
        <time>2024-07-11T09:43:00Z</time>
      </trkpt>
      <trkpt lat="43.7641" lon="1.28941">
        <ele>142.6</ele>
        <time>2024-07-11T09:43:01Z</time>
      </trkpt>
      <trkpt lat="43.76403" lon="1.2894">
        <ele>142.8</ele>
        <time>2024-07-11T09:43:02Z</time>
      </trkpt>
      <trkpt lat="43.76395" lon="1.28939">
        <ele>142.8</ele>
        <time>2024-07-11T09:43:03Z</time>
      </trkpt>
      <trkpt lat="43.76388" lon="1.28939">
        <ele>143</ele>
        <time>2024-07-11T09:43:04Z</time>
      </trkpt>
      <trkpt lat="43.7638" lon="1.28938">
        <ele>143</ele>
        <time>2024-07-11T09:43:05Z</time>
      </trkpt>
      <trkpt lat="43.76373" lon="1.28936">
        <ele>143</ele>
        <time>2024-07-11T09:43:06Z</time>
      </trkpt>
      <trkpt lat="43.76366" lon="1.28934">
        <ele>143.2</ele>
        <time>2024-07-11T09:43:07Z</time>
      </trkpt>
      <trkpt lat="43.76359" lon="1.28933">
        <ele>143.2</ele>
        <time>2024-07-11T09:43:08Z</time>
      </trkpt>
      <trkpt lat="43.76352" lon="1.28931">
        <ele>143.2</ele>
        <time>2024-07-11T09:43:09Z</time>
      </trkpt>
      <trkpt lat="43.76345" lon="1.2893">
        <ele>143.2</ele>
        <time>2024-07-11T09:43:10Z</time>
      </trkpt>
      <trkpt lat="43.76338" lon="1.28928">
        <ele>143.2</ele>
        <time>2024-07-11T09:43:11Z</time>
      </trkpt>
      <trkpt lat="43.76331" lon="1.28927">
        <ele>143.4</ele>
        <time>2024-07-11T09:43:12Z</time>
      </trkpt>
      <trkpt lat="43.76323" lon="1.28925">
        <ele>143.4</ele>
        <time>2024-07-11T09:43:13Z</time>
      </trkpt>
      <trkpt lat="43.76315" lon="1.28924">
        <ele>143.4</ele>
        <time>2024-07-11T09:43:14Z</time>
      </trkpt>
      <trkpt lat="43.76308" lon="1.28923">
        <ele>143.8</ele>
        <time>2024-07-11T09:43:15Z</time>
      </trkpt>
      <trkpt lat="43.763" lon="1.28921">
        <ele>144</ele>
        <time>2024-07-11T09:43:16Z</time>
      </trkpt>
      <trkpt lat="43.76292" lon="1.28919">
        <ele>144</ele>
        <time>2024-07-11T09:43:17Z</time>
      </trkpt>
      <trkpt lat="43.76284" lon="1.28918">
        <ele>144.2</ele>
        <time>2024-07-11T09:43:18Z</time>
      </trkpt>
      <trkpt lat="43.76276" lon="1.28917">
        <ele>144.2</ele>
        <time>2024-07-11T09:43:19Z</time>
      </trkpt>
      <trkpt lat="43.76268" lon="1.28915">
        <ele>144.4</ele>
        <time>2024-07-11T09:43:20Z</time>
      </trkpt>
      <trkpt lat="43.7626" lon="1.28913">
        <ele>144.2</ele>
        <time>2024-07-11T09:43:21Z</time>
      </trkpt>
      <trkpt lat="43.76252" lon="1.28912">
        <ele>144.2</ele>
        <time>2024-07-11T09:43:22Z</time>
      </trkpt>
      <trkpt lat="43.76244" lon="1.2891">
        <ele>144.2</ele>
        <time>2024-07-11T09:43:23Z</time>
      </trkpt>
      <trkpt lat="43.76236" lon="1.28909">
        <ele>144.4</ele>
        <time>2024-07-11T09:43:24Z</time>
      </trkpt>
      <trkpt lat="43.76229" lon="1.28908">
        <ele>144.4</ele>
        <time>2024-07-11T09:43:25Z</time>
      </trkpt>
      <trkpt lat="43.76221" lon="1.28906">
        <ele>144.4</ele>
        <time>2024-07-11T09:43:26Z</time>
      </trkpt>
      <trkpt lat="43.76213" lon="1.28904">
        <ele>144.4</ele>
        <time>2024-07-11T09:43:27Z</time>
      </trkpt>
      <trkpt lat="43.76205" lon="1.28903">
        <ele>144.4</ele>
        <time>2024-07-11T09:43:28Z</time>
      </trkpt>
      <trkpt lat="43.76197" lon="1.28901">
        <ele>144.4</ele>
        <time>2024-07-11T09:43:29Z</time>
      </trkpt>
      <trkpt lat="43.76189" lon="1.289">
        <ele>144.4</ele>
        <time>2024-07-11T09:43:30Z</time>
      </trkpt>
      <trkpt lat="43.76181" lon="1.28898">
        <ele>144.4</ele>
        <time>2024-07-11T09:43:31Z</time>
      </trkpt>
      <trkpt lat="43.76173" lon="1.28896">
        <ele>144.2</ele>
        <time>2024-07-11T09:43:32Z</time>
      </trkpt>
      <trkpt lat="43.76165" lon="1.28894">
        <ele>144.2</ele>
        <time>2024-07-11T09:43:33Z</time>
      </trkpt>
      <trkpt lat="43.76157" lon="1.28892">
        <ele>144.2</ele>
        <time>2024-07-11T09:43:34Z</time>
      </trkpt>
      <trkpt lat="43.76149" lon="1.28891">
        <ele>144.2</ele>
        <time>2024-07-11T09:43:35Z</time>
      </trkpt>
      <trkpt lat="43.76141" lon="1.28889">
        <ele>144.2</ele>
        <time>2024-07-11T09:43:36Z</time>
      </trkpt>
      <trkpt lat="43.76133" lon="1.28886">
        <ele>144.2</ele>
        <time>2024-07-11T09:43:37Z</time>
      </trkpt>
      <trkpt lat="43.76126" lon="1.28884">
        <ele>144.2</ele>
        <time>2024-07-11T09:43:38Z</time>
      </trkpt>
      <trkpt lat="43.76118" lon="1.28882">
        <ele>144.2</ele>
        <time>2024-07-11T09:43:39Z</time>
      </trkpt>
      <trkpt lat="43.7611" lon="1.28881">
        <ele>144.2</ele>
        <time>2024-07-11T09:43:40Z</time>
      </trkpt>
      <trkpt lat="43.76103" lon="1.28878">
        <ele>144.2</ele>
        <time>2024-07-11T09:43:41Z</time>
      </trkpt>
      <trkpt lat="43.76095" lon="1.28876">
        <ele>144.2</ele>
        <time>2024-07-11T09:43:42Z</time>
      </trkpt>
      <trkpt lat="43.76088" lon="1.28873">
        <ele>144.2</ele>
        <time>2024-07-11T09:43:43Z</time>
      </trkpt>
      <trkpt lat="43.7608" lon="1.28871">
        <ele>144.4</ele>
        <time>2024-07-11T09:43:44Z</time>
      </trkpt>
      <trkpt lat="43.76073" lon="1.28869">
        <ele>144.4</ele>
        <time>2024-07-11T09:43:45Z</time>
      </trkpt>
      <trkpt lat="43.76065" lon="1.28867">
        <ele>144.4</ele>
        <time>2024-07-11T09:43:46Z</time>
      </trkpt>
      <trkpt lat="43.76058" lon="1.28865">
        <ele>144.2</ele>
        <time>2024-07-11T09:43:47Z</time>
      </trkpt>
      <trkpt lat="43.7605" lon="1.28862">
        <ele>144.4</ele>
        <time>2024-07-11T09:43:48Z</time>
      </trkpt>
      <trkpt lat="43.76043" lon="1.2886">
        <ele>144.4</ele>
        <time>2024-07-11T09:43:49Z</time>
      </trkpt>
      <trkpt lat="43.76035" lon="1.28858">
        <ele>144.4</ele>
        <time>2024-07-11T09:43:50Z</time>
      </trkpt>
      <trkpt lat="43.76028" lon="1.28856">
        <ele>144.4</ele>
        <time>2024-07-11T09:43:51Z</time>
      </trkpt>
      <trkpt lat="43.76021" lon="1.28854">
        <ele>144.4</ele>
        <time>2024-07-11T09:43:52Z</time>
      </trkpt>
      <trkpt lat="43.76013" lon="1.28852">
        <ele>144.4</ele>
        <time>2024-07-11T09:43:53Z</time>
      </trkpt>
      <trkpt lat="43.76006" lon="1.28851">
        <ele>144.4</ele>
        <time>2024-07-11T09:43:54Z</time>
      </trkpt>
      <trkpt lat="43.75999" lon="1.2885">
        <ele>144.6</ele>
        <time>2024-07-11T09:43:55Z</time>
      </trkpt>
      <trkpt lat="43.7599" lon="1.28848">
        <ele>144.8</ele>
        <time>2024-07-11T09:43:56Z</time>
      </trkpt>
      <trkpt lat="43.75985" lon="1.28847">
        <ele>144.8</ele>
        <time>2024-07-11T09:43:57Z</time>
      </trkpt>
      <trkpt lat="43.75978" lon="1.28844">
        <ele>144.8</ele>
        <time>2024-07-11T09:43:58Z</time>
      </trkpt>
      <trkpt lat="43.75971" lon="1.28843">
        <ele>145</ele>
        <time>2024-07-11T09:43:59Z</time>
      </trkpt>
      <trkpt lat="43.75963" lon="1.28841">
        <ele>145</ele>
        <time>2024-07-11T09:44:00Z</time>
      </trkpt>
      <trkpt lat="43.75955" lon="1.28838">
        <ele>145</ele>
        <time>2024-07-11T09:44:01Z</time>
      </trkpt>
      <trkpt lat="43.75949" lon="1.28835">
        <ele>145</ele>
        <time>2024-07-11T09:44:02Z</time>
      </trkpt>
      <trkpt lat="43.75942" lon="1.28832">
        <ele>145</ele>
        <time>2024-07-11T09:44:03Z</time>
      </trkpt>
      <trkpt lat="43.75935" lon="1.28828">
        <ele>145</ele>
        <time>2024-07-11T09:44:04Z</time>
      </trkpt>
      <trkpt lat="43.75928" lon="1.28823">
        <ele>145</ele>
        <time>2024-07-11T09:44:05Z</time>
      </trkpt>
      <trkpt lat="43.75922" lon="1.28817">
        <ele>145</ele>
        <time>2024-07-11T09:44:06Z</time>
      </trkpt>
      <trkpt lat="43.75916" lon="1.2881">
        <ele>145.2</ele>
        <time>2024-07-11T09:44:07Z</time>
      </trkpt>
      <trkpt lat="43.7591" lon="1.28803">
        <ele>145.2</ele>
        <time>2024-07-11T09:44:08Z</time>
      </trkpt>
      <trkpt lat="43.75903" lon="1.28796">
        <ele>145.2</ele>
        <time>2024-07-11T09:44:09Z</time>
      </trkpt>
      <trkpt lat="43.75897" lon="1.2879">
        <ele>145</ele>
        <time>2024-07-11T09:44:10Z</time>
      </trkpt>
      <trkpt lat="43.75891" lon="1.28783">
        <ele>145</ele>
        <time>2024-07-11T09:44:11Z</time>
      </trkpt>
      <trkpt lat="43.75884" lon="1.28776">
        <ele>145</ele>
        <time>2024-07-11T09:44:12Z</time>
      </trkpt>
      <trkpt lat="43.75877" lon="1.28769">
        <ele>145</ele>
        <time>2024-07-11T09:44:13Z</time>
      </trkpt>
      <trkpt lat="43.7587" lon="1.28761">
        <ele>145</ele>
        <time>2024-07-11T09:44:14Z</time>
      </trkpt>
      <trkpt lat="43.75864" lon="1.28755">
        <ele>145</ele>
        <time>2024-07-11T09:44:15Z</time>
      </trkpt>
      <trkpt lat="43.75857" lon="1.28748">
        <ele>144.8</ele>
        <time>2024-07-11T09:44:16Z</time>
      </trkpt>
      <trkpt lat="43.7585" lon="1.28741">
        <ele>144.8</ele>
        <time>2024-07-11T09:44:17Z</time>
      </trkpt>
      <trkpt lat="43.75843" lon="1.28733">
        <ele>144.8</ele>
        <time>2024-07-11T09:44:18Z</time>
      </trkpt>
      <trkpt lat="43.75836" lon="1.28726">
        <ele>144.6</ele>
        <time>2024-07-11T09:44:19Z</time>
      </trkpt>
      <trkpt lat="43.75829" lon="1.28719">
        <ele>144.6</ele>
        <time>2024-07-11T09:44:20Z</time>
      </trkpt>
      <trkpt lat="43.75822" lon="1.28712">
        <ele>144.6</ele>
        <time>2024-07-11T09:44:21Z</time>
      </trkpt>
      <trkpt lat="43.75815" lon="1.28704">
        <ele>144.6</ele>
        <time>2024-07-11T09:44:22Z</time>
      </trkpt>
      <trkpt lat="43.75807" lon="1.28697">
        <ele>144.6</ele>
        <time>2024-07-11T09:44:23Z</time>
      </trkpt>
      <trkpt lat="43.758" lon="1.2869">
        <ele>144.6</ele>
        <time>2024-07-11T09:44:24Z</time>
      </trkpt>
      <trkpt lat="43.75794" lon="1.28683">
        <ele>144.4</ele>
        <time>2024-07-11T09:44:25Z</time>
      </trkpt>
      <trkpt lat="43.75787" lon="1.28676">
        <ele>144.4</ele>
        <time>2024-07-11T09:44:26Z</time>
      </trkpt>
      <trkpt lat="43.75781" lon="1.28669">
        <ele>144.6</ele>
        <time>2024-07-11T09:44:27Z</time>
      </trkpt>
      <trkpt lat="43.75774" lon="1.28662">
        <ele>144.6</ele>
        <time>2024-07-11T09:44:28Z</time>
      </trkpt>
      <trkpt lat="43.75767" lon="1.28655">
        <ele>144.6</ele>
        <time>2024-07-11T09:44:29Z</time>
      </trkpt>
      <trkpt lat="43.75761" lon="1.28648">
        <ele>144.6</ele>
        <time>2024-07-11T09:44:30Z</time>
      </trkpt>
      <trkpt lat="43.75755" lon="1.28641">
        <ele>144.6</ele>
        <time>2024-07-11T09:44:31Z</time>
      </trkpt>
      <trkpt lat="43.75748" lon="1.28635">
        <ele>144.8</ele>
        <time>2024-07-11T09:44:32Z</time>
      </trkpt>
      <trkpt lat="43.75741" lon="1.28628">
        <ele>145</ele>
        <time>2024-07-11T09:44:33Z</time>
      </trkpt>
      <trkpt lat="43.75735" lon="1.28621">
        <ele>145</ele>
        <time>2024-07-11T09:44:34Z</time>
      </trkpt>
      <trkpt lat="43.75729" lon="1.28615">
        <ele>145.2</ele>
        <time>2024-07-11T09:44:35Z</time>
      </trkpt>
      <trkpt lat="43.75722" lon="1.28608">
        <ele>145.4</ele>
        <time>2024-07-11T09:44:36Z</time>
      </trkpt>
      <trkpt lat="43.75716" lon="1.28601">
        <ele>145.6</ele>
        <time>2024-07-11T09:44:37Z</time>
      </trkpt>
      <trkpt lat="43.75709" lon="1.28595">
        <ele>145.8</ele>
        <time>2024-07-11T09:44:38Z</time>
      </trkpt>
      <trkpt lat="43.75702" lon="1.28588">
        <ele>145.8</ele>
        <time>2024-07-11T09:44:39Z</time>
      </trkpt>
      <trkpt lat="43.75696" lon="1.28581">
        <ele>145.8</ele>
        <time>2024-07-11T09:44:40Z</time>
      </trkpt>
      <trkpt lat="43.75689" lon="1.28574">
        <ele>145.8</ele>
        <time>2024-07-11T09:44:41Z</time>
      </trkpt>
      <trkpt lat="43.75683" lon="1.28567">
        <ele>145.8</ele>
        <time>2024-07-11T09:44:42Z</time>
      </trkpt>
      <trkpt lat="43.75676" lon="1.2856">
        <ele>146</ele>
        <time>2024-07-11T09:44:43Z</time>
      </trkpt>
      <trkpt lat="43.75669" lon="1.28553">
        <ele>146</ele>
        <time>2024-07-11T09:44:44Z</time>
      </trkpt>
      <trkpt lat="43.75663" lon="1.28547">
        <ele>146.4</ele>
        <time>2024-07-11T09:44:45Z</time>
      </trkpt>
      <trkpt lat="43.75657" lon="1.2854">
        <ele>146.4</ele>
        <time>2024-07-11T09:44:46Z</time>
      </trkpt>
      <trkpt lat="43.7565" lon="1.28533">
        <ele>146.6</ele>
        <time>2024-07-11T09:44:47Z</time>
      </trkpt>
      <trkpt lat="43.75644" lon="1.28526">
        <ele>146.6</ele>
        <time>2024-07-11T09:44:48Z</time>
      </trkpt>
      <trkpt lat="43.75637" lon="1.2852">
        <ele>146.8</ele>
        <time>2024-07-11T09:44:49Z</time>
      </trkpt>
      <trkpt lat="43.75631" lon="1.28514">
        <ele>146.8</ele>
        <time>2024-07-11T09:44:50Z</time>
      </trkpt>
      <trkpt lat="43.75625" lon="1.28508">
        <ele>147</ele>
        <time>2024-07-11T09:44:51Z</time>
      </trkpt>
      <trkpt lat="43.75618" lon="1.28502">
        <ele>147.2</ele>
        <time>2024-07-11T09:44:52Z</time>
      </trkpt>
      <trkpt lat="43.75613" lon="1.28497">
        <ele>147.4</ele>
        <time>2024-07-11T09:44:53Z</time>
      </trkpt>
      <trkpt lat="43.75606" lon="1.28491">
        <ele>147.6</ele>
        <time>2024-07-11T09:44:54Z</time>
      </trkpt>
      <trkpt lat="43.756" lon="1.28485">
        <ele>147.8</ele>
        <time>2024-07-11T09:44:55Z</time>
      </trkpt>
      <trkpt lat="43.75595" lon="1.28479">
        <ele>148</ele>
        <time>2024-07-11T09:44:56Z</time>
      </trkpt>
      <trkpt lat="43.75589" lon="1.28473">
        <ele>148.2</ele>
        <time>2024-07-11T09:44:57Z</time>
      </trkpt>
      <trkpt lat="43.75583" lon="1.28468">
        <ele>148.2</ele>
        <time>2024-07-11T09:44:58Z</time>
      </trkpt>
      <trkpt lat="43.75577" lon="1.28464">
        <ele>148.4</ele>
        <time>2024-07-11T09:44:59Z</time>
      </trkpt>
      <trkpt lat="43.75571" lon="1.28465">
        <ele>148.4</ele>
        <time>2024-07-11T09:45:00Z</time>
      </trkpt>
      <trkpt lat="43.75565" lon="1.28468">
        <ele>148.4</ele>
        <time>2024-07-11T09:45:01Z</time>
      </trkpt>
      <trkpt lat="43.7556" lon="1.28473">
        <ele>148.6</ele>
        <time>2024-07-11T09:45:02Z</time>
      </trkpt>
      <trkpt lat="43.75555" lon="1.2848">
        <ele>148.8</ele>
        <time>2024-07-11T09:45:03Z</time>
      </trkpt>
      <trkpt lat="43.75551" lon="1.28487">
        <ele>148.8</ele>
        <time>2024-07-11T09:45:04Z</time>
      </trkpt>
      <trkpt lat="43.75545" lon="1.28493">
        <ele>149</ele>
        <time>2024-07-11T09:45:05Z</time>
      </trkpt>
      <trkpt lat="43.7554" lon="1.285">
        <ele>149</ele>
        <time>2024-07-11T09:45:06Z</time>
      </trkpt>
      <trkpt lat="43.75534" lon="1.28506">
        <ele>149</ele>
        <time>2024-07-11T09:45:07Z</time>
      </trkpt>
      <trkpt lat="43.75528" lon="1.28513">
        <ele>149.2</ele>
        <time>2024-07-11T09:45:08Z</time>
      </trkpt>
      <trkpt lat="43.75522" lon="1.28519">
        <ele>149.2</ele>
        <time>2024-07-11T09:45:09Z</time>
      </trkpt>
      <trkpt lat="43.75515" lon="1.28525">
        <ele>149.2</ele>
        <time>2024-07-11T09:45:10Z</time>
      </trkpt>
      <trkpt lat="43.75509" lon="1.2853">
        <ele>149.4</ele>
        <time>2024-07-11T09:45:11Z</time>
      </trkpt>
      <trkpt lat="43.75502" lon="1.28535">
        <ele>149.4</ele>
        <time>2024-07-11T09:45:12Z</time>
      </trkpt>
      <trkpt lat="43.75495" lon="1.28539">
        <ele>149.4</ele>
        <time>2024-07-11T09:45:13Z</time>
      </trkpt>
      <trkpt lat="43.75488" lon="1.28542">
        <ele>149.2</ele>
        <time>2024-07-11T09:45:14Z</time>
      </trkpt>
      <trkpt lat="43.7548" lon="1.28545">
        <ele>149.2</ele>
        <time>2024-07-11T09:45:15Z</time>
      </trkpt>
      <trkpt lat="43.75474" lon="1.28547">
        <ele>149.2</ele>
        <time>2024-07-11T09:45:16Z</time>
      </trkpt>
      <trkpt lat="43.75466" lon="1.28549">
        <ele>149.2</ele>
        <time>2024-07-11T09:45:17Z</time>
      </trkpt>
      <trkpt lat="43.75457" lon="1.2855">
        <ele>149.2</ele>
        <time>2024-07-11T09:45:18Z</time>
      </trkpt>
      <trkpt lat="43.75449" lon="1.28551">
        <ele>149.2</ele>
        <time>2024-07-11T09:45:19Z</time>
      </trkpt>
      <trkpt lat="43.75442" lon="1.28552">
        <ele>149.2</ele>
        <time>2024-07-11T09:45:20Z</time>
      </trkpt>
      <trkpt lat="43.75434" lon="1.28552">
        <ele>149.2</ele>
        <time>2024-07-11T09:45:21Z</time>
      </trkpt>
      <trkpt lat="43.75426" lon="1.28553">
        <ele>149.2</ele>
        <time>2024-07-11T09:45:22Z</time>
      </trkpt>
      <trkpt lat="43.75416" lon="1.28553">
        <ele>149.4</ele>
        <time>2024-07-11T09:45:23Z</time>
      </trkpt>
      <trkpt lat="43.75408" lon="1.28554">
        <ele>149.4</ele>
        <time>2024-07-11T09:45:24Z</time>
      </trkpt>
      <trkpt lat="43.754" lon="1.28555">
        <ele>149.4</ele>
        <time>2024-07-11T09:45:25Z</time>
      </trkpt>
      <trkpt lat="43.75392" lon="1.28555">
        <ele>149.4</ele>
        <time>2024-07-11T09:45:26Z</time>
      </trkpt>
      <trkpt lat="43.75385" lon="1.28556">
        <ele>149.4</ele>
        <time>2024-07-11T09:45:27Z</time>
      </trkpt>
      <trkpt lat="43.75375" lon="1.28557">
        <ele>149.6</ele>
        <time>2024-07-11T09:45:28Z</time>
      </trkpt>
      <trkpt lat="43.75367" lon="1.28557">
        <ele>149.6</ele>
        <time>2024-07-11T09:45:29Z</time>
      </trkpt>
      <trkpt lat="43.75359" lon="1.28558">
        <ele>149.6</ele>
        <time>2024-07-11T09:45:30Z</time>
      </trkpt>
      <trkpt lat="43.75352" lon="1.28558">
        <ele>149.4</ele>
        <time>2024-07-11T09:45:31Z</time>
      </trkpt>
      <trkpt lat="43.75342" lon="1.28559">
        <ele>149.6</ele>
        <time>2024-07-11T09:45:32Z</time>
      </trkpt>
      <trkpt lat="43.75334" lon="1.2856">
        <ele>149.4</ele>
        <time>2024-07-11T09:45:33Z</time>
      </trkpt>
      <trkpt lat="43.75325" lon="1.2856">
        <ele>149.6</ele>
        <time>2024-07-11T09:45:34Z</time>
      </trkpt>
      <trkpt lat="43.75319" lon="1.28561">
        <ele>149.6</ele>
        <time>2024-07-11T09:45:35Z</time>
      </trkpt>
      <trkpt lat="43.7531" lon="1.28562">
        <ele>149.6</ele>
        <time>2024-07-11T09:45:36Z</time>
      </trkpt>
      <trkpt lat="43.753" lon="1.28562">
        <ele>149.6</ele>
        <time>2024-07-11T09:45:37Z</time>
      </trkpt>
      <trkpt lat="43.75292" lon="1.28563">
        <ele>149.6</ele>
        <time>2024-07-11T09:45:38Z</time>
      </trkpt>
      <trkpt lat="43.75284" lon="1.28564">
        <ele>149.6</ele>
        <time>2024-07-11T09:45:39Z</time>
      </trkpt>
      <trkpt lat="43.75277" lon="1.28564">
        <ele>149.6</ele>
        <time>2024-07-11T09:45:40Z</time>
      </trkpt>
      <trkpt lat="43.75268" lon="1.28565">
        <ele>149.6</ele>
        <time>2024-07-11T09:45:41Z</time>
      </trkpt>
      <trkpt lat="43.75258" lon="1.28565">
        <ele>149.6</ele>
        <time>2024-07-11T09:45:42Z</time>
      </trkpt>
      <trkpt lat="43.7525" lon="1.28566">
        <ele>149.6</ele>
        <time>2024-07-11T09:45:43Z</time>
      </trkpt>
      <trkpt lat="43.75243" lon="1.28567">
        <ele>149.6</ele>
        <time>2024-07-11T09:45:44Z</time>
      </trkpt>
      <trkpt lat="43.75234" lon="1.28568">
        <ele>149.6</ele>
        <time>2024-07-11T09:45:45Z</time>
      </trkpt>
      <trkpt lat="43.75226" lon="1.28568">
        <ele>149.6</ele>
        <time>2024-07-11T09:45:46Z</time>
      </trkpt>
      <trkpt lat="43.75218" lon="1.28569">
        <ele>149.6</ele>
        <time>2024-07-11T09:45:47Z</time>
      </trkpt>
      <trkpt lat="43.75207" lon="1.2857">
        <ele>149.6</ele>
        <time>2024-07-11T09:45:48Z</time>
      </trkpt>
      <trkpt lat="43.752" lon="1.2857">
        <ele>149.6</ele>
        <time>2024-07-11T09:45:49Z</time>
      </trkpt>
      <trkpt lat="43.75192" lon="1.2857">
        <ele>149.6</ele>
        <time>2024-07-11T09:45:50Z</time>
      </trkpt>
      <trkpt lat="43.75184" lon="1.2857">
        <ele>149.6</ele>
        <time>2024-07-11T09:45:51Z</time>
      </trkpt>
      <trkpt lat="43.75173" lon="1.28571">
        <ele>149.6</ele>
        <time>2024-07-11T09:45:52Z</time>
      </trkpt>
      <trkpt lat="43.75167" lon="1.28572">
        <ele>149.6</ele>
        <time>2024-07-11T09:45:53Z</time>
      </trkpt>
      <trkpt lat="43.75157" lon="1.28572">
        <ele>149.4</ele>
        <time>2024-07-11T09:45:54Z</time>
      </trkpt>
      <trkpt lat="43.7515" lon="1.28573">
        <ele>149.4</ele>
        <time>2024-07-11T09:45:55Z</time>
      </trkpt>
      <trkpt lat="43.75142" lon="1.28573">
        <ele>149.4</ele>
        <time>2024-07-11T09:45:56Z</time>
      </trkpt>
      <trkpt lat="43.75133" lon="1.28574">
        <ele>149.4</ele>
        <time>2024-07-11T09:45:57Z</time>
      </trkpt>
      <trkpt lat="43.75123" lon="1.28574">
        <ele>149.4</ele>
        <time>2024-07-11T09:45:58Z</time>
      </trkpt>
      <trkpt lat="43.75116" lon="1.28575">
        <ele>149.4</ele>
        <time>2024-07-11T09:45:59Z</time>
      </trkpt>
      <trkpt lat="43.75108" lon="1.28575">
        <ele>149.4</ele>
        <time>2024-07-11T09:46:00Z</time>
      </trkpt>
      <trkpt lat="43.751" lon="1.28576">
        <ele>149.4</ele>
        <time>2024-07-11T09:46:01Z</time>
      </trkpt>
      <trkpt lat="43.75091" lon="1.28577">
        <ele>149.4</ele>
        <time>2024-07-11T09:46:02Z</time>
      </trkpt>
      <trkpt lat="43.75081" lon="1.28577">
        <ele>149.4</ele>
        <time>2024-07-11T09:46:03Z</time>
      </trkpt>
      <trkpt lat="43.75074" lon="1.28578">
        <ele>149.4</ele>
        <time>2024-07-11T09:46:04Z</time>
      </trkpt>
      <trkpt lat="43.75066" lon="1.28578">
        <ele>149.4</ele>
        <time>2024-07-11T09:46:05Z</time>
      </trkpt>
      <trkpt lat="43.75056" lon="1.28579">
        <ele>149.4</ele>
        <time>2024-07-11T09:46:06Z</time>
      </trkpt>
      <trkpt lat="43.75049" lon="1.28579">
        <ele>149.4</ele>
        <time>2024-07-11T09:46:07Z</time>
      </trkpt>
      <trkpt lat="43.75039" lon="1.28579">
        <ele>149.4</ele>
        <time>2024-07-11T09:46:08Z</time>
      </trkpt>
      <trkpt lat="43.75032" lon="1.28579">
        <ele>149.4</ele>
        <time>2024-07-11T09:46:09Z</time>
      </trkpt>
      <trkpt lat="43.75024" lon="1.28578">
        <ele>149.4</ele>
        <time>2024-07-11T09:46:10Z</time>
      </trkpt>
      <trkpt lat="43.75014" lon="1.28577">
        <ele>149.4</ele>
        <time>2024-07-11T09:46:11Z</time>
      </trkpt>
      <trkpt lat="43.75006" lon="1.28576">
        <ele>149.6</ele>
        <time>2024-07-11T09:46:12Z</time>
      </trkpt>
      <trkpt lat="43.75" lon="1.28574">
        <ele>149.6</ele>
        <time>2024-07-11T09:46:13Z</time>
      </trkpt>
      <trkpt lat="43.74991" lon="1.28573">
        <ele>149.6</ele>
        <time>2024-07-11T09:46:14Z</time>
      </trkpt>
      <trkpt lat="43.74983" lon="1.28571">
        <ele>149.6</ele>
        <time>2024-07-11T09:46:15Z</time>
      </trkpt>
      <trkpt lat="43.74975" lon="1.28569">
        <ele>149.6</ele>
        <time>2024-07-11T09:46:16Z</time>
      </trkpt>
      <trkpt lat="43.74966" lon="1.28567">
        <ele>149.6</ele>
        <time>2024-07-11T09:46:17Z</time>
      </trkpt>
      <trkpt lat="43.74959" lon="1.28566">
        <ele>149.6</ele>
        <time>2024-07-11T09:46:18Z</time>
      </trkpt>
      <trkpt lat="43.74951" lon="1.28564">
        <ele>149.6</ele>
        <time>2024-07-11T09:46:19Z</time>
      </trkpt>
      <trkpt lat="43.74943" lon="1.28562">
        <ele>149.6</ele>
        <time>2024-07-11T09:46:20Z</time>
      </trkpt>
      <trkpt lat="43.74935" lon="1.2856">
        <ele>149.8</ele>
        <time>2024-07-11T09:46:21Z</time>
      </trkpt>
      <trkpt lat="43.74927" lon="1.28558">
        <ele>149.8</ele>
        <time>2024-07-11T09:46:22Z</time>
      </trkpt>
      <trkpt lat="43.74919" lon="1.28556">
        <ele>150</ele>
        <time>2024-07-11T09:46:23Z</time>
      </trkpt>
      <trkpt lat="43.74911" lon="1.28554">
        <ele>150</ele>
        <time>2024-07-11T09:46:24Z</time>
      </trkpt>
      <trkpt lat="43.74903" lon="1.28552">
        <ele>150</ele>
        <time>2024-07-11T09:46:25Z</time>
      </trkpt>
      <trkpt lat="43.74895" lon="1.2855">
        <ele>150</ele>
        <time>2024-07-11T09:46:26Z</time>
      </trkpt>
      <trkpt lat="43.74887" lon="1.28548">
        <ele>150</ele>
        <time>2024-07-11T09:46:27Z</time>
      </trkpt>
      <trkpt lat="43.74879" lon="1.28546">
        <ele>150</ele>
        <time>2024-07-11T09:46:28Z</time>
      </trkpt>
      <trkpt lat="43.74871" lon="1.28544">
        <ele>150.2</ele>
        <time>2024-07-11T09:46:29Z</time>
      </trkpt>
      <trkpt lat="43.74863" lon="1.28542">
        <ele>150.2</ele>
        <time>2024-07-11T09:46:30Z</time>
      </trkpt>
      <trkpt lat="43.74855" lon="1.28541">
        <ele>150.4</ele>
        <time>2024-07-11T09:46:31Z</time>
      </trkpt>
      <trkpt lat="43.74845" lon="1.28539">
        <ele>150.4</ele>
        <time>2024-07-11T09:46:32Z</time>
      </trkpt>
      <trkpt lat="43.74838" lon="1.28537">
        <ele>150.4</ele>
        <time>2024-07-11T09:46:33Z</time>
      </trkpt>
      <trkpt lat="43.7483" lon="1.28535">
        <ele>150.4</ele>
        <time>2024-07-11T09:46:34Z</time>
      </trkpt>
      <trkpt lat="43.74822" lon="1.28534">
        <ele>150.4</ele>
        <time>2024-07-11T09:46:35Z</time>
      </trkpt>
      <trkpt lat="43.74814" lon="1.28533">
        <ele>150.4</ele>
        <time>2024-07-11T09:46:36Z</time>
      </trkpt>
      <trkpt lat="43.74807" lon="1.28532">
        <ele>150.2</ele>
        <time>2024-07-11T09:46:37Z</time>
      </trkpt>
      <trkpt lat="43.748" lon="1.28531">
        <ele>150.4</ele>
        <time>2024-07-11T09:46:38Z</time>
      </trkpt>
      <trkpt lat="43.74792" lon="1.28529">
        <ele>150.4</ele>
        <time>2024-07-11T09:46:39Z</time>
      </trkpt>
      <trkpt lat="43.74785" lon="1.28526">
        <ele>150.4</ele>
        <time>2024-07-11T09:46:40Z</time>
      </trkpt>
      <trkpt lat="43.74777" lon="1.28524">
        <ele>150.4</ele>
        <time>2024-07-11T09:46:41Z</time>
      </trkpt>
      <trkpt lat="43.7477" lon="1.28522">
        <ele>150.4</ele>
        <time>2024-07-11T09:46:42Z</time>
      </trkpt>
      <trkpt lat="43.74762" lon="1.2852">
        <ele>150.4</ele>
        <time>2024-07-11T09:46:43Z</time>
      </trkpt>
      <trkpt lat="43.74755" lon="1.28519">
        <ele>150.4</ele>
        <time>2024-07-11T09:46:44Z</time>
      </trkpt>
      <trkpt lat="43.74747" lon="1.28518">
        <ele>150.4</ele>
        <time>2024-07-11T09:46:45Z</time>
      </trkpt>
      <trkpt lat="43.74739" lon="1.28516">
        <ele>150.2</ele>
        <time>2024-07-11T09:46:46Z</time>
      </trkpt>
      <trkpt lat="43.74732" lon="1.28513">
        <ele>150.2</ele>
        <time>2024-07-11T09:46:47Z</time>
      </trkpt>
      <trkpt lat="43.74724" lon="1.28511">
        <ele>150.2</ele>
        <time>2024-07-11T09:46:48Z</time>
      </trkpt>
      <trkpt lat="43.74716" lon="1.28509">
        <ele>150.2</ele>
        <time>2024-07-11T09:46:49Z</time>
      </trkpt>
      <trkpt lat="43.74707" lon="1.28506">
        <ele>150.2</ele>
        <time>2024-07-11T09:46:50Z</time>
      </trkpt>
      <trkpt lat="43.74701" lon="1.28505">
        <ele>150.2</ele>
        <time>2024-07-11T09:46:51Z</time>
      </trkpt>
      <trkpt lat="43.74694" lon="1.28503">
        <ele>150.4</ele>
        <time>2024-07-11T09:46:52Z</time>
      </trkpt>
      <trkpt lat="43.74686" lon="1.28501">
        <ele>150.4</ele>
        <time>2024-07-11T09:46:53Z</time>
      </trkpt>
      <trkpt lat="43.74678" lon="1.28498">
        <ele>150.4</ele>
        <time>2024-07-11T09:46:54Z</time>
      </trkpt>
      <trkpt lat="43.7467" lon="1.28496">
        <ele>150.4</ele>
        <time>2024-07-11T09:46:55Z</time>
      </trkpt>
      <trkpt lat="43.74661" lon="1.28493">
        <ele>150.4</ele>
        <time>2024-07-11T09:46:56Z</time>
      </trkpt>
      <trkpt lat="43.74655" lon="1.28492">
        <ele>150.4</ele>
        <time>2024-07-11T09:46:57Z</time>
      </trkpt>
      <trkpt lat="43.74647" lon="1.28489">
        <ele>150.4</ele>
        <time>2024-07-11T09:46:58Z</time>
      </trkpt>
      <trkpt lat="43.7464" lon="1.28487">
        <ele>150.6</ele>
        <time>2024-07-11T09:46:59Z</time>
      </trkpt>
      <trkpt lat="43.74632" lon="1.28485">
        <ele>150.6</ele>
        <time>2024-07-11T09:47:00Z</time>
      </trkpt>
      <trkpt lat="43.74624" lon="1.28483">
        <ele>150.6</ele>
        <time>2024-07-11T09:47:01Z</time>
      </trkpt>
      <trkpt lat="43.74616" lon="1.2848">
        <ele>150.6</ele>
        <time>2024-07-11T09:47:02Z</time>
      </trkpt>
      <trkpt lat="43.74609" lon="1.28478">
        <ele>150.6</ele>
        <time>2024-07-11T09:47:03Z</time>
      </trkpt>
      <trkpt lat="43.74601" lon="1.28476">
        <ele>150.6</ele>
        <time>2024-07-11T09:47:04Z</time>
      </trkpt>
      <trkpt lat="43.74593" lon="1.28474">
        <ele>150.6</ele>
        <time>2024-07-11T09:47:05Z</time>
      </trkpt>
      <trkpt lat="43.74586" lon="1.28472">
        <ele>150.6</ele>
        <time>2024-07-11T09:47:06Z</time>
      </trkpt>
      <trkpt lat="43.74578" lon="1.2847">
        <ele>150.8</ele>
        <time>2024-07-11T09:47:07Z</time>
      </trkpt>
      <trkpt lat="43.7457" lon="1.28468">
        <ele>150.8</ele>
        <time>2024-07-11T09:47:08Z</time>
      </trkpt>
      <trkpt lat="43.74563" lon="1.28466">
        <ele>151</ele>
        <time>2024-07-11T09:47:09Z</time>
      </trkpt>
      <trkpt lat="43.74555" lon="1.28465">
        <ele>151</ele>
        <time>2024-07-11T09:47:10Z</time>
      </trkpt>
      <trkpt lat="43.74545" lon="1.28465">
        <ele>151</ele>
        <time>2024-07-11T09:47:11Z</time>
      </trkpt>
      <trkpt lat="43.74539" lon="1.28465">
        <ele>151</ele>
        <time>2024-07-11T09:47:12Z</time>
      </trkpt>
      <trkpt lat="43.74531" lon="1.28465">
        <ele>151.2</ele>
        <time>2024-07-11T09:47:13Z</time>
      </trkpt>
      <trkpt lat="43.74523" lon="1.28465">
        <ele>151.2</ele>
        <time>2024-07-11T09:47:14Z</time>
      </trkpt>
      <trkpt lat="43.74516" lon="1.28465">
        <ele>151.2</ele>
        <time>2024-07-11T09:47:15Z</time>
      </trkpt>
      <trkpt lat="43.74507" lon="1.28466">
        <ele>151.4</ele>
        <time>2024-07-11T09:47:16Z</time>
      </trkpt>
      <trkpt lat="43.745" lon="1.28467">
        <ele>151.4</ele>
        <time>2024-07-11T09:47:17Z</time>
      </trkpt>
      <trkpt lat="43.74493" lon="1.28467">
        <ele>151.4</ele>
        <time>2024-07-11T09:47:18Z</time>
      </trkpt>
      <trkpt lat="43.74483" lon="1.28468">
        <ele>151.4</ele>
        <time>2024-07-11T09:47:19Z</time>
      </trkpt>
      <trkpt lat="43.74477" lon="1.28468">
        <ele>151.4</ele>
        <time>2024-07-11T09:47:20Z</time>
      </trkpt>
      <trkpt lat="43.74469" lon="1.28469">
        <ele>151.6</ele>
        <time>2024-07-11T09:47:21Z</time>
      </trkpt>
      <trkpt lat="43.74461" lon="1.2847">
        <ele>151.6</ele>
        <time>2024-07-11T09:47:22Z</time>
      </trkpt>
      <trkpt lat="43.74453" lon="1.2847">
        <ele>151.6</ele>
        <time>2024-07-11T09:47:23Z</time>
      </trkpt>
      <trkpt lat="43.74445" lon="1.28471">
        <ele>151.8</ele>
        <time>2024-07-11T09:47:24Z</time>
      </trkpt>
      <trkpt lat="43.74438" lon="1.28471">
        <ele>151.8</ele>
        <time>2024-07-11T09:47:25Z</time>
      </trkpt>
      <trkpt lat="43.7443" lon="1.28472">
        <ele>151.8</ele>
        <time>2024-07-11T09:47:26Z</time>
      </trkpt>
      <trkpt lat="43.74422" lon="1.28473">
        <ele>152</ele>
        <time>2024-07-11T09:47:27Z</time>
      </trkpt>
      <trkpt lat="43.74414" lon="1.28474">
        <ele>152</ele>
        <time>2024-07-11T09:47:28Z</time>
      </trkpt>
      <trkpt lat="43.74407" lon="1.28475">
        <ele>152</ele>
        <time>2024-07-11T09:47:29Z</time>
      </trkpt>
      <trkpt lat="43.74397" lon="1.28477">
        <ele>151.8</ele>
        <time>2024-07-11T09:47:30Z</time>
      </trkpt>
      <trkpt lat="43.74391" lon="1.2848">
        <ele>151.8</ele>
        <time>2024-07-11T09:47:31Z</time>
      </trkpt>
      <trkpt lat="43.74383" lon="1.28483">
        <ele>151.8</ele>
        <time>2024-07-11T09:47:32Z</time>
      </trkpt>
      <trkpt lat="43.74376" lon="1.28486">
        <ele>151.8</ele>
        <time>2024-07-11T09:47:33Z</time>
      </trkpt>
      <trkpt lat="43.74368" lon="1.2849">
        <ele>151.8</ele>
        <time>2024-07-11T09:47:34Z</time>
      </trkpt>
      <trkpt lat="43.74359" lon="1.28495">
        <ele>151.8</ele>
        <time>2024-07-11T09:47:35Z</time>
      </trkpt>
      <trkpt lat="43.74353" lon="1.28499">
        <ele>151.8</ele>
        <time>2024-07-11T09:47:36Z</time>
      </trkpt>
      <trkpt lat="43.74345" lon="1.28503">
        <ele>151.8</ele>
        <time>2024-07-11T09:47:37Z</time>
      </trkpt>
      <trkpt lat="43.74335" lon="1.28508">
        <ele>151.8</ele>
        <time>2024-07-11T09:47:38Z</time>
      </trkpt>
      <trkpt lat="43.74329" lon="1.28512">
        <ele>151.8</ele>
        <time>2024-07-11T09:47:39Z</time>
      </trkpt>
      <trkpt lat="43.74322" lon="1.28516">
        <ele>151.8</ele>
        <time>2024-07-11T09:47:40Z</time>
      </trkpt>
      <trkpt lat="43.74314" lon="1.28521">
        <ele>151.8</ele>
        <time>2024-07-11T09:47:41Z</time>
      </trkpt>
      <trkpt lat="43.74307" lon="1.28525">
        <ele>151.8</ele>
        <time>2024-07-11T09:47:42Z</time>
      </trkpt>
      <trkpt lat="43.74299" lon="1.2853">
        <ele>151.8</ele>
        <time>2024-07-11T09:47:43Z</time>
      </trkpt>
      <trkpt lat="43.74291" lon="1.28536">
        <ele>152</ele>
        <time>2024-07-11T09:47:44Z</time>
      </trkpt>
      <trkpt lat="43.74285" lon="1.28541">
        <ele>152</ele>
        <time>2024-07-11T09:47:45Z</time>
      </trkpt>
      <trkpt lat="43.74278" lon="1.28547">
        <ele>152</ele>
        <time>2024-07-11T09:47:46Z</time>
      </trkpt>
      <trkpt lat="43.74272" lon="1.28553">
        <ele>152</ele>
        <time>2024-07-11T09:47:47Z</time>
      </trkpt>
      <trkpt lat="43.74265" lon="1.2856">
        <ele>152</ele>
        <time>2024-07-11T09:47:48Z</time>
      </trkpt>
      <trkpt lat="43.74258" lon="1.28567">
        <ele>152</ele>
        <time>2024-07-11T09:47:49Z</time>
      </trkpt>
      <trkpt lat="43.74251" lon="1.28574">
        <ele>152</ele>
        <time>2024-07-11T09:47:50Z</time>
      </trkpt>
      <trkpt lat="43.74245" lon="1.28581">
        <ele>152</ele>
        <time>2024-07-11T09:47:51Z</time>
      </trkpt>
      <trkpt lat="43.74239" lon="1.28588">
        <ele>152</ele>
        <time>2024-07-11T09:47:52Z</time>
      </trkpt>
      <trkpt lat="43.74233" lon="1.28595">
        <ele>152</ele>
        <time>2024-07-11T09:47:53Z</time>
      </trkpt>
      <trkpt lat="43.74225" lon="1.28604">
        <ele>152</ele>
        <time>2024-07-11T09:47:54Z</time>
      </trkpt>
      <trkpt lat="43.7422" lon="1.2861">
        <ele>152.2</ele>
        <time>2024-07-11T09:47:55Z</time>
      </trkpt>
      <trkpt lat="43.74214" lon="1.28617">
        <ele>152.2</ele>
        <time>2024-07-11T09:47:56Z</time>
      </trkpt>
      <trkpt lat="43.74208" lon="1.28624">
        <ele>152.4</ele>
        <time>2024-07-11T09:47:57Z</time>
      </trkpt>
      <trkpt lat="43.74201" lon="1.28632">
        <ele>152.4</ele>
        <time>2024-07-11T09:47:58Z</time>
      </trkpt>
      <trkpt lat="43.74194" lon="1.28641">
        <ele>152.4</ele>
        <time>2024-07-11T09:47:59Z</time>
      </trkpt>
      <trkpt lat="43.74188" lon="1.28646">
        <ele>152.6</ele>
        <time>2024-07-11T09:48:00Z</time>
      </trkpt>
      <trkpt lat="43.74182" lon="1.28654">
        <ele>152.6</ele>
        <time>2024-07-11T09:48:01Z</time>
      </trkpt>
      <trkpt lat="43.74175" lon="1.28661">
        <ele>152.6</ele>
        <time>2024-07-11T09:48:02Z</time>
      </trkpt>
      <trkpt lat="43.74169" lon="1.28669">
        <ele>152.6</ele>
        <time>2024-07-11T09:48:03Z</time>
      </trkpt>
      <trkpt lat="43.74163" lon="1.28676">
        <ele>152.6</ele>
        <time>2024-07-11T09:48:04Z</time>
      </trkpt>
      <trkpt lat="43.74157" lon="1.28684">
        <ele>152.6</ele>
        <time>2024-07-11T09:48:05Z</time>
      </trkpt>
      <trkpt lat="43.7415" lon="1.28692">
        <ele>152.6</ele>
        <time>2024-07-11T09:48:06Z</time>
      </trkpt>
      <trkpt lat="43.74144" lon="1.28699">
        <ele>152.8</ele>
        <time>2024-07-11T09:48:07Z</time>
      </trkpt>
      <trkpt lat="43.74137" lon="1.28706">
        <ele>152.8</ele>
        <time>2024-07-11T09:48:08Z</time>
      </trkpt>
      <trkpt lat="43.74131" lon="1.28713">
        <ele>152.8</ele>
        <time>2024-07-11T09:48:09Z</time>
      </trkpt>
      <trkpt lat="43.74124" lon="1.2872">
        <ele>152.8</ele>
        <time>2024-07-11T09:48:10Z</time>
      </trkpt>
      <trkpt lat="43.74118" lon="1.28726">
        <ele>152.8</ele>
        <time>2024-07-11T09:48:11Z</time>
      </trkpt>
      <trkpt lat="43.74111" lon="1.28732">
        <ele>152.8</ele>
        <time>2024-07-11T09:48:12Z</time>
      </trkpt>
      <trkpt lat="43.74104" lon="1.28739">
        <ele>152.8</ele>
        <time>2024-07-11T09:48:13Z</time>
      </trkpt>
      <trkpt lat="43.74097" lon="1.28745">
        <ele>152.8</ele>
        <time>2024-07-11T09:48:14Z</time>
      </trkpt>
      <trkpt lat="43.7409" lon="1.2875">
        <ele>152.8</ele>
        <time>2024-07-11T09:48:15Z</time>
      </trkpt>
      <trkpt lat="43.74083" lon="1.28756">
        <ele>152.8</ele>
        <time>2024-07-11T09:48:16Z</time>
      </trkpt>
      <trkpt lat="43.74076" lon="1.28761">
        <ele>152.8</ele>
        <time>2024-07-11T09:48:17Z</time>
      </trkpt>
      <trkpt lat="43.74066" lon="1.28768">
        <ele>152.8</ele>
        <time>2024-07-11T09:48:18Z</time>
      </trkpt>
      <trkpt lat="43.7406" lon="1.28772">
        <ele>152.8</ele>
        <time>2024-07-11T09:48:19Z</time>
      </trkpt>
      <trkpt lat="43.74053" lon="1.28777">
        <ele>152.8</ele>
        <time>2024-07-11T09:48:20Z</time>
      </trkpt>
      <trkpt lat="43.74045" lon="1.28783">
        <ele>152.8</ele>
        <time>2024-07-11T09:48:21Z</time>
      </trkpt>
      <trkpt lat="43.74038" lon="1.28789">
        <ele>152.8</ele>
        <time>2024-07-11T09:48:22Z</time>
      </trkpt>
      <trkpt lat="43.74031" lon="1.28794">
        <ele>152.8</ele>
        <time>2024-07-11T09:48:23Z</time>
      </trkpt>
      <trkpt lat="43.74023" lon="1.288">
        <ele>153</ele>
        <time>2024-07-11T09:48:24Z</time>
      </trkpt>
      <trkpt lat="43.74016" lon="1.28806">
        <ele>153</ele>
        <time>2024-07-11T09:48:25Z</time>
      </trkpt>
      <trkpt lat="43.74008" lon="1.28811">
        <ele>153</ele>
        <time>2024-07-11T09:48:26Z</time>
      </trkpt>
      <trkpt lat="43.74001" lon="1.28817">
        <ele>153</ele>
        <time>2024-07-11T09:48:27Z</time>
      </trkpt>
      <trkpt lat="43.73993" lon="1.28822">
        <ele>153</ele>
        <time>2024-07-11T09:48:28Z</time>
      </trkpt>
      <trkpt lat="43.73986" lon="1.28827">
        <ele>153.2</ele>
        <time>2024-07-11T09:48:29Z</time>
      </trkpt>
      <trkpt lat="43.73978" lon="1.28833">
        <ele>153.2</ele>
        <time>2024-07-11T09:48:30Z</time>
      </trkpt>
      <trkpt lat="43.73971" lon="1.28839">
        <ele>153.2</ele>
        <time>2024-07-11T09:48:31Z</time>
      </trkpt>
      <trkpt lat="43.73963" lon="1.28844">
        <ele>153.2</ele>
        <time>2024-07-11T09:48:32Z</time>
      </trkpt>
      <trkpt lat="43.73956" lon="1.28849">
        <ele>153.2</ele>
        <time>2024-07-11T09:48:33Z</time>
      </trkpt>
      <trkpt lat="43.73948" lon="1.28855">
        <ele>153.4</ele>
        <time>2024-07-11T09:48:34Z</time>
      </trkpt>
      <trkpt lat="43.73941" lon="1.2886">
        <ele>153.4</ele>
        <time>2024-07-11T09:48:35Z</time>
      </trkpt>
      <trkpt lat="43.73934" lon="1.28866">
        <ele>153.4</ele>
        <time>2024-07-11T09:48:36Z</time>
      </trkpt>
      <trkpt lat="43.73926" lon="1.28873">
        <ele>153.6</ele>
        <time>2024-07-11T09:48:37Z</time>
      </trkpt>
      <trkpt lat="43.7392" lon="1.28878">
        <ele>153.6</ele>
        <time>2024-07-11T09:48:38Z</time>
      </trkpt>
      <trkpt lat="43.73913" lon="1.28884">
        <ele>153.6</ele>
        <time>2024-07-11T09:48:39Z</time>
      </trkpt>
      <trkpt lat="43.73906" lon="1.2889">
        <ele>153.6</ele>
        <time>2024-07-11T09:48:40Z</time>
      </trkpt>
      <trkpt lat="43.73899" lon="1.28897">
        <ele>153.8</ele>
        <time>2024-07-11T09:48:41Z</time>
      </trkpt>
      <trkpt lat="43.73891" lon="1.28904">
        <ele>153.8</ele>
        <time>2024-07-11T09:48:42Z</time>
      </trkpt>
      <trkpt lat="43.73885" lon="1.2891">
        <ele>154</ele>
        <time>2024-07-11T09:48:43Z</time>
      </trkpt>
      <trkpt lat="43.73878" lon="1.28916">
        <ele>154</ele>
        <time>2024-07-11T09:48:44Z</time>
      </trkpt>
      <trkpt lat="43.73871" lon="1.28922">
        <ele>154.2</ele>
        <time>2024-07-11T09:48:45Z</time>
      </trkpt>
      <trkpt lat="43.73864" lon="1.28928">
        <ele>154.2</ele>
        <time>2024-07-11T09:48:46Z</time>
      </trkpt>
      <trkpt lat="43.73857" lon="1.28935">
        <ele>154.2</ele>
        <time>2024-07-11T09:48:47Z</time>
      </trkpt>
      <trkpt lat="43.7385" lon="1.28941">
        <ele>154.2</ele>
        <time>2024-07-11T09:48:48Z</time>
      </trkpt>
      <trkpt lat="43.73843" lon="1.28947">
        <ele>154.6</ele>
        <time>2024-07-11T09:48:49Z</time>
      </trkpt>
      <trkpt lat="43.73835" lon="1.28953">
        <ele>154.6</ele>
        <time>2024-07-11T09:48:50Z</time>
      </trkpt>
      <trkpt lat="43.73828" lon="1.28958">
        <ele>154.6</ele>
        <time>2024-07-11T09:48:51Z</time>
      </trkpt>
      <trkpt lat="43.73819" lon="1.28964">
        <ele>154.6</ele>
        <time>2024-07-11T09:48:52Z</time>
      </trkpt>
      <trkpt lat="43.73813" lon="1.28968">
        <ele>154.6</ele>
        <time>2024-07-11T09:48:53Z</time>
      </trkpt>
      <trkpt lat="43.73805" lon="1.28973">
        <ele>154.6</ele>
        <time>2024-07-11T09:48:54Z</time>
      </trkpt>
      <trkpt lat="43.73798" lon="1.28978">
        <ele>154.6</ele>
        <time>2024-07-11T09:48:55Z</time>
      </trkpt>
      <trkpt lat="43.73789" lon="1.28984">
        <ele>154.8</ele>
        <time>2024-07-11T09:48:56Z</time>
      </trkpt>
      <trkpt lat="43.73781" lon="1.28988">
        <ele>154.8</ele>
        <time>2024-07-11T09:48:57Z</time>
      </trkpt>
      <trkpt lat="43.73774" lon="1.28992">
        <ele>154.8</ele>
        <time>2024-07-11T09:48:58Z</time>
      </trkpt>
      <trkpt lat="43.73767" lon="1.28995">
        <ele>154.8</ele>
        <time>2024-07-11T09:48:59Z</time>
      </trkpt>
      <trkpt lat="43.7376" lon="1.28999">
        <ele>154.8</ele>
        <time>2024-07-11T09:49:00Z</time>
      </trkpt>
      <trkpt lat="43.73752" lon="1.29001">
        <ele>154.8</ele>
        <time>2024-07-11T09:49:01Z</time>
      </trkpt>
      <trkpt lat="43.73743" lon="1.29004">
        <ele>154.8</ele>
        <time>2024-07-11T09:49:02Z</time>
      </trkpt>
      <trkpt lat="43.73736" lon="1.29005">
        <ele>154.8</ele>
        <time>2024-07-11T09:49:03Z</time>
      </trkpt>
      <trkpt lat="43.73729" lon="1.29007">
        <ele>154.8</ele>
        <time>2024-07-11T09:49:04Z</time>
      </trkpt>
      <trkpt lat="43.73721" lon="1.29007">
        <ele>154.8</ele>
        <time>2024-07-11T09:49:05Z</time>
      </trkpt>
      <trkpt lat="43.73713" lon="1.29008">
        <ele>154.8</ele>
        <time>2024-07-11T09:49:06Z</time>
      </trkpt>
      <trkpt lat="43.73705" lon="1.29009">
        <ele>154.8</ele>
        <time>2024-07-11T09:49:07Z</time>
      </trkpt>
      <trkpt lat="43.73695" lon="1.2901">
        <ele>154.8</ele>
        <time>2024-07-11T09:49:08Z</time>
      </trkpt>
      <trkpt lat="43.73688" lon="1.29009">
        <ele>154.8</ele>
        <time>2024-07-11T09:49:09Z</time>
      </trkpt>
      <trkpt lat="43.7368" lon="1.29009">
        <ele>155</ele>
        <time>2024-07-11T09:49:10Z</time>
      </trkpt>
      <trkpt lat="43.73672" lon="1.29008">
        <ele>155</ele>
        <time>2024-07-11T09:49:11Z</time>
      </trkpt>
      <trkpt lat="43.73662" lon="1.29008">
        <ele>155</ele>
        <time>2024-07-11T09:49:12Z</time>
      </trkpt>
      <trkpt lat="43.73655" lon="1.29007">
        <ele>155.2</ele>
        <time>2024-07-11T09:49:13Z</time>
      </trkpt>
      <trkpt lat="43.73646" lon="1.29006">
        <ele>155.2</ele>
        <time>2024-07-11T09:49:14Z</time>
      </trkpt>
      <trkpt lat="43.73639" lon="1.29006">
        <ele>155.2</ele>
        <time>2024-07-11T09:49:15Z</time>
      </trkpt>
      <trkpt lat="43.73631" lon="1.29005">
        <ele>155.2</ele>
        <time>2024-07-11T09:49:16Z</time>
      </trkpt>
      <trkpt lat="43.73623" lon="1.29004">
        <ele>155.4</ele>
        <time>2024-07-11T09:49:17Z</time>
      </trkpt>
      <trkpt lat="43.73613" lon="1.29003">
        <ele>155.4</ele>
        <time>2024-07-11T09:49:18Z</time>
      </trkpt>
      <trkpt lat="43.73606" lon="1.29003">
        <ele>155.4</ele>
        <time>2024-07-11T09:49:19Z</time>
      </trkpt>
      <trkpt lat="43.73597" lon="1.29002">
        <ele>155.4</ele>
        <time>2024-07-11T09:49:20Z</time>
      </trkpt>
      <trkpt lat="43.7359" lon="1.29002">
        <ele>155.6</ele>
        <time>2024-07-11T09:49:21Z</time>
      </trkpt>
      <trkpt lat="43.73582" lon="1.29001">
        <ele>155.6</ele>
        <time>2024-07-11T09:49:22Z</time>
      </trkpt>
      <trkpt lat="43.73574" lon="1.29">
        <ele>155.6</ele>
        <time>2024-07-11T09:49:23Z</time>
      </trkpt>
      <trkpt lat="43.73564" lon="1.28999">
        <ele>155.6</ele>
        <time>2024-07-11T09:49:24Z</time>
      </trkpt>
      <trkpt lat="43.73557" lon="1.28999">
        <ele>155.6</ele>
        <time>2024-07-11T09:49:25Z</time>
      </trkpt>
      <trkpt lat="43.73549" lon="1.28999">
        <ele>155.6</ele>
        <time>2024-07-11T09:49:26Z</time>
      </trkpt>
      <trkpt lat="43.73541" lon="1.28998">
        <ele>155.6</ele>
        <time>2024-07-11T09:49:27Z</time>
      </trkpt>
      <trkpt lat="43.73532" lon="1.28997">
        <ele>155.6</ele>
        <time>2024-07-11T09:49:28Z</time>
      </trkpt>
      <trkpt lat="43.73522" lon="1.28996">
        <ele>155.6</ele>
        <time>2024-07-11T09:49:29Z</time>
      </trkpt>
      <trkpt lat="43.73515" lon="1.28996">
        <ele>155.6</ele>
        <time>2024-07-11T09:49:30Z</time>
      </trkpt>
      <trkpt lat="43.73507" lon="1.28995">
        <ele>155.8</ele>
        <time>2024-07-11T09:49:31Z</time>
      </trkpt>
      <trkpt lat="43.73499" lon="1.28994">
        <ele>155.8</ele>
        <time>2024-07-11T09:49:32Z</time>
      </trkpt>
      <trkpt lat="43.7349" lon="1.28994">
        <ele>156</ele>
        <time>2024-07-11T09:49:33Z</time>
      </trkpt>
      <trkpt lat="43.73482" lon="1.28993">
        <ele>156</ele>
        <time>2024-07-11T09:49:34Z</time>
      </trkpt>
      <trkpt lat="43.73474" lon="1.28992">
        <ele>156.2</ele>
        <time>2024-07-11T09:49:35Z</time>
      </trkpt>
      <trkpt lat="43.73466" lon="1.28992">
        <ele>156.2</ele>
        <time>2024-07-11T09:49:36Z</time>
      </trkpt>
      <trkpt lat="43.73458" lon="1.28991">
        <ele>156.2</ele>
        <time>2024-07-11T09:49:37Z</time>
      </trkpt>
      <trkpt lat="43.7345" lon="1.28991">
        <ele>156.4</ele>
        <time>2024-07-11T09:49:38Z</time>
      </trkpt>
      <trkpt lat="43.73442" lon="1.2899">
        <ele>156.4</ele>
        <time>2024-07-11T09:49:39Z</time>
      </trkpt>
      <trkpt lat="43.73434" lon="1.2899">
        <ele>156.4</ele>
        <time>2024-07-11T09:49:40Z</time>
      </trkpt>
      <trkpt lat="43.73427" lon="1.2899">
        <ele>156.4</ele>
        <time>2024-07-11T09:49:41Z</time>
      </trkpt>
      <trkpt lat="43.73419" lon="1.28991">
        <ele>156.8</ele>
        <time>2024-07-11T09:49:42Z</time>
      </trkpt>
      <trkpt lat="43.73411" lon="1.28992">
        <ele>157</ele>
        <time>2024-07-11T09:49:43Z</time>
      </trkpt>
      <trkpt lat="43.73404" lon="1.28994">
        <ele>157.2</ele>
        <time>2024-07-11T09:49:44Z</time>
      </trkpt>
      <trkpt lat="43.73397" lon="1.28996">
        <ele>157.4</ele>
        <time>2024-07-11T09:49:45Z</time>
      </trkpt>
      <trkpt lat="43.73388" lon="1.29">
        <ele>157.6</ele>
        <time>2024-07-11T09:49:46Z</time>
      </trkpt>
      <trkpt lat="43.73382" lon="1.29003">
        <ele>157.6</ele>
        <time>2024-07-11T09:49:47Z</time>
      </trkpt>
      <trkpt lat="43.73375" lon="1.29007">
        <ele>157.8</ele>
        <time>2024-07-11T09:49:48Z</time>
      </trkpt>
      <trkpt lat="43.73368" lon="1.29012">
        <ele>158</ele>
        <time>2024-07-11T09:49:49Z</time>
      </trkpt>
      <trkpt lat="43.73359" lon="1.29018">
        <ele>158</ele>
        <time>2024-07-11T09:49:50Z</time>
      </trkpt>
      <trkpt lat="43.73354" lon="1.29021">
        <ele>158.2</ele>
        <time>2024-07-11T09:49:51Z</time>
      </trkpt>
      <trkpt lat="43.73346" lon="1.29026">
        <ele>158.2</ele>
        <time>2024-07-11T09:49:52Z</time>
      </trkpt>
      <trkpt lat="43.73339" lon="1.29031">
        <ele>158.4</ele>
        <time>2024-07-11T09:49:53Z</time>
      </trkpt>
      <trkpt lat="43.73332" lon="1.29036">
        <ele>158.6</ele>
        <time>2024-07-11T09:49:54Z</time>
      </trkpt>
      <trkpt lat="43.73325" lon="1.29041">
        <ele>158.6</ele>
        <time>2024-07-11T09:49:55Z</time>
      </trkpt>
      <trkpt lat="43.73318" lon="1.29046">
        <ele>158.8</ele>
        <time>2024-07-11T09:49:56Z</time>
      </trkpt>
      <trkpt lat="43.73311" lon="1.29051">
        <ele>158.8</ele>
        <time>2024-07-11T09:49:57Z</time>
      </trkpt>
      <trkpt lat="43.73304" lon="1.29056">
        <ele>158.8</ele>
        <time>2024-07-11T09:49:58Z</time>
      </trkpt>
      <trkpt lat="43.73297" lon="1.29061">
        <ele>159</ele>
        <time>2024-07-11T09:49:59Z</time>
      </trkpt>
      <trkpt lat="43.73289" lon="1.29067">
        <ele>159</ele>
        <time>2024-07-11T09:50:00Z</time>
      </trkpt>
      <trkpt lat="43.73284" lon="1.29071">
        <ele>159</ele>
        <time>2024-07-11T09:50:01Z</time>
      </trkpt>
      <trkpt lat="43.73276" lon="1.29076">
        <ele>159.2</ele>
        <time>2024-07-11T09:50:02Z</time>
      </trkpt>
      <trkpt lat="43.7327" lon="1.2908">
        <ele>159.2</ele>
        <time>2024-07-11T09:50:03Z</time>
      </trkpt>
      <trkpt lat="43.73263" lon="1.29085">
        <ele>159.4</ele>
        <time>2024-07-11T09:50:04Z</time>
      </trkpt>
      <trkpt lat="43.73256" lon="1.29089">
        <ele>159.4</ele>
        <time>2024-07-11T09:50:05Z</time>
      </trkpt>
      <trkpt lat="43.73248" lon="1.29094">
        <ele>159.6</ele>
        <time>2024-07-11T09:50:06Z</time>
      </trkpt>
      <trkpt lat="43.73242" lon="1.29097">
        <ele>159.6</ele>
        <time>2024-07-11T09:50:07Z</time>
      </trkpt>
      <trkpt lat="43.73234" lon="1.29101">
        <ele>159.6</ele>
        <time>2024-07-11T09:50:08Z</time>
      </trkpt>
      <trkpt lat="43.73227" lon="1.29105">
        <ele>159.8</ele>
        <time>2024-07-11T09:50:09Z</time>
      </trkpt>
      <trkpt lat="43.7322" lon="1.29108">
        <ele>159.8</ele>
        <time>2024-07-11T09:50:10Z</time>
      </trkpt>
      <trkpt lat="43.73213" lon="1.29112">
        <ele>160.2</ele>
        <time>2024-07-11T09:50:11Z</time>
      </trkpt>
      <trkpt lat="43.73204" lon="1.29117">
        <ele>160.2</ele>
        <time>2024-07-11T09:50:12Z</time>
      </trkpt>
      <trkpt lat="43.73199" lon="1.29119">
        <ele>160.4</ele>
        <time>2024-07-11T09:50:13Z</time>
      </trkpt>
      <trkpt lat="43.73192" lon="1.29123">
        <ele>160.4</ele>
        <time>2024-07-11T09:50:14Z</time>
      </trkpt>
      <trkpt lat="43.73185" lon="1.29127">
        <ele>160.6</ele>
        <time>2024-07-11T09:50:15Z</time>
      </trkpt>
      <trkpt lat="43.73178" lon="1.29131">
        <ele>160.6</ele>
        <time>2024-07-11T09:50:16Z</time>
      </trkpt>
      <trkpt lat="43.73172" lon="1.29135">
        <ele>160.8</ele>
        <time>2024-07-11T09:50:17Z</time>
      </trkpt>
      <trkpt lat="43.73166" lon="1.2914">
        <ele>160.8</ele>
        <time>2024-07-11T09:50:18Z</time>
      </trkpt>
      <trkpt lat="43.73159" lon="1.29145">
        <ele>161</ele>
        <time>2024-07-11T09:50:19Z</time>
      </trkpt>
      <trkpt lat="43.73153" lon="1.2915">
        <ele>161</ele>
        <time>2024-07-11T09:50:20Z</time>
      </trkpt>
      <trkpt lat="43.73147" lon="1.29155">
        <ele>161</ele>
        <time>2024-07-11T09:50:21Z</time>
      </trkpt>
      <trkpt lat="43.7314" lon="1.2916">
        <ele>161</ele>
        <time>2024-07-11T09:50:22Z</time>
      </trkpt>
      <trkpt lat="43.73134" lon="1.29165">
        <ele>161.2</ele>
        <time>2024-07-11T09:50:23Z</time>
      </trkpt>
      <trkpt lat="43.73128" lon="1.29171">
        <ele>161.2</ele>
        <time>2024-07-11T09:50:24Z</time>
      </trkpt>
      <trkpt lat="43.73122" lon="1.29177">
        <ele>161.2</ele>
        <time>2024-07-11T09:50:25Z</time>
      </trkpt>
      <trkpt lat="43.73116" lon="1.29184">
        <ele>161.2</ele>
        <time>2024-07-11T09:50:26Z</time>
      </trkpt>
      <trkpt lat="43.73111" lon="1.2919">
        <ele>161.2</ele>
        <time>2024-07-11T09:50:27Z</time>
      </trkpt>
      <trkpt lat="43.73105" lon="1.29197">
        <ele>161.4</ele>
        <time>2024-07-11T09:50:28Z</time>
      </trkpt>
      <trkpt lat="43.73099" lon="1.29206">
        <ele>161.4</ele>
        <time>2024-07-11T09:50:29Z</time>
      </trkpt>
      <trkpt lat="43.73094" lon="1.29212">
        <ele>161.4</ele>
        <time>2024-07-11T09:50:30Z</time>
      </trkpt>
      <trkpt lat="43.73088" lon="1.2922">
        <ele>161.6</ele>
        <time>2024-07-11T09:50:31Z</time>
      </trkpt>
      <trkpt lat="43.73083" lon="1.29227">
        <ele>161.6</ele>
        <time>2024-07-11T09:50:32Z</time>
      </trkpt>
      <trkpt lat="43.73077" lon="1.29234">
        <ele>161.6</ele>
        <time>2024-07-11T09:50:33Z</time>
      </trkpt>
      <trkpt lat="43.7307" lon="1.29242">
        <ele>161.6</ele>
        <time>2024-07-11T09:50:34Z</time>
      </trkpt>
      <trkpt lat="43.73065" lon="1.29248">
        <ele>161.6</ele>
        <time>2024-07-11T09:50:35Z</time>
      </trkpt>
      <trkpt lat="43.73059" lon="1.29255">
        <ele>161.6</ele>
        <time>2024-07-11T09:50:36Z</time>
      </trkpt>
      <trkpt lat="43.73053" lon="1.29263">
        <ele>161.6</ele>
        <time>2024-07-11T09:50:37Z</time>
      </trkpt>
      <trkpt lat="43.73048" lon="1.2927">
        <ele>161.4</ele>
        <time>2024-07-11T09:50:38Z</time>
      </trkpt>
      <trkpt lat="43.73042" lon="1.29278">
        <ele>161.2</ele>
        <time>2024-07-11T09:50:39Z</time>
      </trkpt>
      <trkpt lat="43.73036" lon="1.29286">
        <ele>161.2</ele>
        <time>2024-07-11T09:50:40Z</time>
      </trkpt>
      <trkpt lat="43.7303" lon="1.29294">
        <ele>161</ele>
        <time>2024-07-11T09:50:41Z</time>
      </trkpt>
      <trkpt lat="43.73024" lon="1.29302">
        <ele>161</ele>
        <time>2024-07-11T09:50:42Z</time>
      </trkpt>
      <trkpt lat="43.73018" lon="1.2931">
        <ele>161</ele>
        <time>2024-07-11T09:50:43Z</time>
      </trkpt>
      <trkpt lat="43.73012" lon="1.29318">
        <ele>161</ele>
        <time>2024-07-11T09:50:44Z</time>
      </trkpt>
      <trkpt lat="43.73005" lon="1.29328">
        <ele>160.8</ele>
        <time>2024-07-11T09:50:45Z</time>
      </trkpt>
      <trkpt lat="43.73" lon="1.29335">
        <ele>160.8</ele>
        <time>2024-07-11T09:50:46Z</time>
      </trkpt>
      <trkpt lat="43.72994" lon="1.29343">
        <ele>160.8</ele>
        <time>2024-07-11T09:50:47Z</time>
      </trkpt>
      <trkpt lat="43.72988" lon="1.29351">
        <ele>160.6</ele>
        <time>2024-07-11T09:50:48Z</time>
      </trkpt>
      <trkpt lat="43.72981" lon="1.29361">
        <ele>160.6</ele>
        <time>2024-07-11T09:50:49Z</time>
      </trkpt>
      <trkpt lat="43.72975" lon="1.29369">
        <ele>160.4</ele>
        <time>2024-07-11T09:50:50Z</time>
      </trkpt>
      <trkpt lat="43.7297" lon="1.29376">
        <ele>160.4</ele>
        <time>2024-07-11T09:50:51Z</time>
      </trkpt>
      <trkpt lat="43.72964" lon="1.29385">
        <ele>160.4</ele>
        <time>2024-07-11T09:50:52Z</time>
      </trkpt>
      <trkpt lat="43.72957" lon="1.29395">
        <ele>160.4</ele>
        <time>2024-07-11T09:50:53Z</time>
      </trkpt>
      <trkpt lat="43.72952" lon="1.29404">
        <ele>160.4</ele>
        <time>2024-07-11T09:50:54Z</time>
      </trkpt>
      <trkpt lat="43.72947" lon="1.2941">
        <ele>160.4</ele>
        <time>2024-07-11T09:50:55Z</time>
      </trkpt>
      <trkpt lat="43.72941" lon="1.29419">
        <ele>160.2</ele>
        <time>2024-07-11T09:50:56Z</time>
      </trkpt>
      <trkpt lat="43.72935" lon="1.29427">
        <ele>160.2</ele>
        <time>2024-07-11T09:50:57Z</time>
      </trkpt>
      <trkpt lat="43.72927" lon="1.29438">
        <ele>160.2</ele>
        <time>2024-07-11T09:50:58Z</time>
      </trkpt>
      <trkpt lat="43.72922" lon="1.29445">
        <ele>160.2</ele>
        <time>2024-07-11T09:50:59Z</time>
      </trkpt>
      <trkpt lat="43.72915" lon="1.29455">
        <ele>160</ele>
        <time>2024-07-11T09:51:00Z</time>
      </trkpt>
      <trkpt lat="43.7291" lon="1.29462">
        <ele>159.8</ele>
        <time>2024-07-11T09:51:01Z</time>
      </trkpt>
      <trkpt lat="43.72903" lon="1.2947">
        <ele>159.8</ele>
        <time>2024-07-11T09:51:02Z</time>
      </trkpt>
      <trkpt lat="43.72896" lon="1.29479">
        <ele>159.8</ele>
        <time>2024-07-11T09:51:03Z</time>
      </trkpt>
      <trkpt lat="43.7289" lon="1.29487">
        <ele>159.8</ele>
        <time>2024-07-11T09:51:04Z</time>
      </trkpt>
      <trkpt lat="43.72884" lon="1.29494">
        <ele>159.8</ele>
        <time>2024-07-11T09:51:05Z</time>
      </trkpt>
      <trkpt lat="43.72879" lon="1.295">
        <ele>159.8</ele>
        <time>2024-07-11T09:51:06Z</time>
      </trkpt>
      <trkpt lat="43.72873" lon="1.29507">
        <ele>159.8</ele>
        <time>2024-07-11T09:51:07Z</time>
      </trkpt>
      <trkpt lat="43.72866" lon="1.29515">
        <ele>159.8</ele>
        <time>2024-07-11T09:51:08Z</time>
      </trkpt>
      <trkpt lat="43.7286" lon="1.29522">
        <ele>159.8</ele>
        <time>2024-07-11T09:51:09Z</time>
      </trkpt>
      <trkpt lat="43.72855" lon="1.29527">
        <ele>159.8</ele>
        <time>2024-07-11T09:51:10Z</time>
      </trkpt>
      <trkpt lat="43.72849" lon="1.29534">
        <ele>159.8</ele>
        <time>2024-07-11T09:51:11Z</time>
      </trkpt>
      <trkpt lat="43.72844" lon="1.2954">
        <ele>160</ele>
        <time>2024-07-11T09:51:12Z</time>
      </trkpt>
      <trkpt lat="43.72838" lon="1.29547">
        <ele>160</ele>
        <time>2024-07-11T09:51:13Z</time>
      </trkpt>
      <trkpt lat="43.72833" lon="1.29554">
        <ele>160</ele>
        <time>2024-07-11T09:51:14Z</time>
      </trkpt>
      <trkpt lat="43.72827" lon="1.2956">
        <ele>160.2</ele>
        <time>2024-07-11T09:51:15Z</time>
      </trkpt>
      <trkpt lat="43.72822" lon="1.29567">
        <ele>160.2</ele>
        <time>2024-07-11T09:51:16Z</time>
      </trkpt>
      <trkpt lat="43.72816" lon="1.29573">
        <ele>160.2</ele>
        <time>2024-07-11T09:51:17Z</time>
      </trkpt>
      <trkpt lat="43.72811" lon="1.29579">
        <ele>160.4</ele>
        <time>2024-07-11T09:51:18Z</time>
      </trkpt>
      <trkpt lat="43.72806" lon="1.29585">
        <ele>160.4</ele>
        <time>2024-07-11T09:51:19Z</time>
      </trkpt>
      <trkpt lat="43.72801" lon="1.29591">
        <ele>160.6</ele>
        <time>2024-07-11T09:51:20Z</time>
      </trkpt>
      <trkpt lat="43.72796" lon="1.29598">
        <ele>160.6</ele>
        <time>2024-07-11T09:51:21Z</time>
      </trkpt>
      <trkpt lat="43.72789" lon="1.29606">
        <ele>160.8</ele>
        <time>2024-07-11T09:51:22Z</time>
      </trkpt>
      <trkpt lat="43.72784" lon="1.29613">
        <ele>160.8</ele>
        <time>2024-07-11T09:51:23Z</time>
      </trkpt>
      <trkpt lat="43.7278" lon="1.29619">
        <ele>161</ele>
        <time>2024-07-11T09:51:24Z</time>
      </trkpt>
      <trkpt lat="43.72775" lon="1.29626">
        <ele>161.2</ele>
        <time>2024-07-11T09:51:25Z</time>
      </trkpt>
      <trkpt lat="43.72771" lon="1.29634">
        <ele>161.4</ele>
        <time>2024-07-11T09:51:26Z</time>
      </trkpt>
      <trkpt lat="43.72765" lon="1.29643">
        <ele>161.6</ele>
        <time>2024-07-11T09:51:27Z</time>
      </trkpt>
      <trkpt lat="43.7276" lon="1.2965">
        <ele>161.6</ele>
        <time>2024-07-11T09:51:28Z</time>
      </trkpt>
      <trkpt lat="43.72756" lon="1.29657">
        <ele>161.8</ele>
        <time>2024-07-11T09:51:29Z</time>
      </trkpt>
      <trkpt lat="43.72752" lon="1.29663">
        <ele>162</ele>
        <time>2024-07-11T09:51:30Z</time>
      </trkpt>
      <trkpt lat="43.72747" lon="1.2967">
        <ele>162.2</ele>
        <time>2024-07-11T09:51:31Z</time>
      </trkpt>
      <trkpt lat="43.72742" lon="1.29679">
        <ele>162.4</ele>
        <time>2024-07-11T09:51:32Z</time>
      </trkpt>
      <trkpt lat="43.72737" lon="1.29687">
        <ele>162.4</ele>
        <time>2024-07-11T09:51:33Z</time>
      </trkpt>
      <trkpt lat="43.72733" lon="1.29694">
        <ele>162.4</ele>
        <time>2024-07-11T09:51:34Z</time>
      </trkpt>
      <trkpt lat="43.72729" lon="1.29699">
        <ele>162.6</ele>
        <time>2024-07-11T09:51:35Z</time>
      </trkpt>
      <trkpt lat="43.72725" lon="1.29706">
        <ele>162.6</ele>
        <time>2024-07-11T09:51:36Z</time>
      </trkpt>
      <trkpt lat="43.7272" lon="1.29714">
        <ele>162.8</ele>
        <time>2024-07-11T09:51:37Z</time>
      </trkpt>
      <trkpt lat="43.72715" lon="1.29722">
        <ele>162.8</ele>
        <time>2024-07-11T09:51:38Z</time>
      </trkpt>
      <trkpt lat="43.72711" lon="1.29729">
        <ele>163</ele>
        <time>2024-07-11T09:51:39Z</time>
      </trkpt>
      <trkpt lat="43.72708" lon="1.29734">
        <ele>163.4</ele>
        <time>2024-07-11T09:51:40Z</time>
      </trkpt>
      <trkpt lat="43.72703" lon="1.29742">
        <ele>163.4</ele>
        <time>2024-07-11T09:51:41Z</time>
      </trkpt>
      <trkpt lat="43.72698" lon="1.29751">
        <ele>163.8</ele>
        <time>2024-07-11T09:51:42Z</time>
      </trkpt>
      <trkpt lat="43.72692" lon="1.29757">
        <ele>163.8</ele>
        <time>2024-07-11T09:51:43Z</time>
      </trkpt>
      <trkpt lat="43.72688" lon="1.29763">
        <ele>164</ele>
        <time>2024-07-11T09:51:44Z</time>
      </trkpt>
      <trkpt lat="43.72683" lon="1.29769">
        <ele>164.2</ele>
        <time>2024-07-11T09:51:45Z</time>
      </trkpt>
      <trkpt lat="43.72678" lon="1.29774">
        <ele>164.2</ele>
        <time>2024-07-11T09:51:46Z</time>
      </trkpt>
      <trkpt lat="43.72671" lon="1.2978">
        <ele>164.4</ele>
        <time>2024-07-11T09:51:47Z</time>
      </trkpt>
      <trkpt lat="43.72666" lon="1.29783">
        <ele>164.4</ele>
        <time>2024-07-11T09:51:48Z</time>
      </trkpt>
      <trkpt lat="43.72661" lon="1.29786">
        <ele>164.6</ele>
        <time>2024-07-11T09:51:49Z</time>
      </trkpt>
      <trkpt lat="43.72656" lon="1.29788">
        <ele>164.6</ele>
        <time>2024-07-11T09:51:50Z</time>
      </trkpt>
      <trkpt lat="43.72651" lon="1.29789">
        <ele>165</ele>
        <time>2024-07-11T09:51:51Z</time>
      </trkpt>
      <trkpt lat="43.72644" lon="1.2979">
        <ele>165.2</ele>
        <time>2024-07-11T09:51:52Z</time>
      </trkpt>
      <trkpt lat="43.72638" lon="1.2979">
        <ele>165.4</ele>
        <time>2024-07-11T09:51:53Z</time>
      </trkpt>
      <trkpt lat="43.72634" lon="1.2979">
        <ele>165.6</ele>
        <time>2024-07-11T09:51:54Z</time>
      </trkpt>
      <trkpt lat="43.72629" lon="1.29789">
        <ele>166</ele>
        <time>2024-07-11T09:51:55Z</time>
      </trkpt>
      <trkpt lat="43.72623" lon="1.29787">
        <ele>166.2</ele>
        <time>2024-07-11T09:51:56Z</time>
      </trkpt>
      <trkpt lat="43.72619" lon="1.29786">
        <ele>166.2</ele>
        <time>2024-07-11T09:51:57Z</time>
      </trkpt>
      <trkpt lat="43.72614" lon="1.29785">
        <ele>166.4</ele>
        <time>2024-07-11T09:51:58Z</time>
      </trkpt>
      <trkpt lat="43.7261" lon="1.29785">
        <ele>166.6</ele>
        <time>2024-07-11T09:51:59Z</time>
      </trkpt>
      <trkpt lat="43.72607" lon="1.29786">
        <ele>166.8</ele>
        <time>2024-07-11T09:52:00Z</time>
      </trkpt>
      <trkpt lat="43.72605" lon="1.2979">
        <ele>167.2</ele>
        <time>2024-07-11T09:52:01Z</time>
      </trkpt>
      <trkpt lat="43.72606" lon="1.29795">
        <ele>167.4</ele>
        <time>2024-07-11T09:52:02Z</time>
      </trkpt>
      <trkpt lat="43.7261" lon="1.29802">
        <ele>167.2</ele>
        <time>2024-07-11T09:52:03Z</time>
      </trkpt>
      <trkpt lat="43.72614" lon="1.29806">
        <ele>167.4</ele>
        <time>2024-07-11T09:52:04Z</time>
      </trkpt>
      <trkpt lat="43.72619" lon="1.29812">
        <ele>167.4</ele>
        <time>2024-07-11T09:52:05Z</time>
      </trkpt>
      <trkpt lat="43.72624" lon="1.29818">
        <ele>167.4</ele>
        <time>2024-07-11T09:52:06Z</time>
      </trkpt>
      <trkpt lat="43.72629" lon="1.29824">
        <ele>167.2</ele>
        <time>2024-07-11T09:52:07Z</time>
      </trkpt>
      <trkpt lat="43.72634" lon="1.2983">
        <ele>167.2</ele>
        <time>2024-07-11T09:52:08Z</time>
      </trkpt>
      <trkpt lat="43.72639" lon="1.29837">
        <ele>166.8</ele>
        <time>2024-07-11T09:52:09Z</time>
      </trkpt>
      <trkpt lat="43.7264" lon="1.29846">
        <ele>166.6</ele>
        <time>2024-07-11T09:52:10Z</time>
      </trkpt>
      <trkpt lat="43.7264" lon="1.29855">
        <ele>166</ele>
        <time>2024-07-11T09:52:11Z</time>
      </trkpt>
      <trkpt lat="43.72637" lon="1.29863">
        <ele>165.6</ele>
        <time>2024-07-11T09:52:12Z</time>
      </trkpt>
      <trkpt lat="43.72633" lon="1.29869">
        <ele>165.2</ele>
        <time>2024-07-11T09:52:13Z</time>
      </trkpt>
      <trkpt lat="43.72627" lon="1.29873">
        <ele>165</ele>
        <time>2024-07-11T09:52:14Z</time>
      </trkpt>
      <trkpt lat="43.72622" lon="1.29877">
        <ele>165</ele>
        <time>2024-07-11T09:52:15Z</time>
      </trkpt>
      <trkpt lat="43.72616" lon="1.29882">
        <ele>164.8</ele>
        <time>2024-07-11T09:52:16Z</time>
      </trkpt>
      <trkpt lat="43.7261" lon="1.29888">
        <ele>164.6</ele>
        <time>2024-07-11T09:52:17Z</time>
      </trkpt>
      <trkpt lat="43.72604" lon="1.29893">
        <ele>164.4</ele>
        <time>2024-07-11T09:52:18Z</time>
      </trkpt>
      <trkpt lat="43.72598" lon="1.29898">
        <ele>164.4</ele>
        <time>2024-07-11T09:52:19Z</time>
      </trkpt>
      <trkpt lat="43.72591" lon="1.29904">
        <ele>164.2</ele>
        <time>2024-07-11T09:52:20Z</time>
      </trkpt>
      <trkpt lat="43.72584" lon="1.2991">
        <ele>164.2</ele>
        <time>2024-07-11T09:52:21Z</time>
      </trkpt>
      <trkpt lat="43.72578" lon="1.29916">
        <ele>164.2</ele>
        <time>2024-07-11T09:52:22Z</time>
      </trkpt>
      <trkpt lat="43.72573" lon="1.29922">
        <ele>164.2</ele>
        <time>2024-07-11T09:52:23Z</time>
      </trkpt>
      <trkpt lat="43.72568" lon="1.29927">
        <ele>164.2</ele>
        <time>2024-07-11T09:52:24Z</time>
      </trkpt>
      <trkpt lat="43.72562" lon="1.29933">
        <ele>164.2</ele>
        <time>2024-07-11T09:52:25Z</time>
      </trkpt>
      <trkpt lat="43.72556" lon="1.2994">
        <ele>164.2</ele>
        <time>2024-07-11T09:52:26Z</time>
      </trkpt>
      <trkpt lat="43.7255" lon="1.29946">
        <ele>164.2</ele>
        <time>2024-07-11T09:52:27Z</time>
      </trkpt>
      <trkpt lat="43.72545" lon="1.29952">
        <ele>164.2</ele>
        <time>2024-07-11T09:52:28Z</time>
      </trkpt>
      <trkpt lat="43.7254" lon="1.29957">
        <ele>164.4</ele>
        <time>2024-07-11T09:52:29Z</time>
      </trkpt>
      <trkpt lat="43.72535" lon="1.29964">
        <ele>164.2</ele>
        <time>2024-07-11T09:52:30Z</time>
      </trkpt>
      <trkpt lat="43.72528" lon="1.29972">
        <ele>164.4</ele>
        <time>2024-07-11T09:52:31Z</time>
      </trkpt>
      <trkpt lat="43.72523" lon="1.29979">
        <ele>164.4</ele>
        <time>2024-07-11T09:52:32Z</time>
      </trkpt>
      <trkpt lat="43.72518" lon="1.29987">
        <ele>164.2</ele>
        <time>2024-07-11T09:52:33Z</time>
      </trkpt>
      <trkpt lat="43.72514" lon="1.29994">
        <ele>164.2</ele>
        <time>2024-07-11T09:52:34Z</time>
      </trkpt>
      <trkpt lat="43.7251" lon="1.30003">
        <ele>164.2</ele>
        <time>2024-07-11T09:52:35Z</time>
      </trkpt>
      <trkpt lat="43.72505" lon="1.30015">
        <ele>164.2</ele>
        <time>2024-07-11T09:52:36Z</time>
      </trkpt>
      <trkpt lat="43.72503" lon="1.30023">
        <ele>164.2</ele>
        <time>2024-07-11T09:52:37Z</time>
      </trkpt>
      <trkpt lat="43.72498" lon="1.30034">
        <ele>164</ele>
        <time>2024-07-11T09:52:38Z</time>
      </trkpt>
      <trkpt lat="43.72495" lon="1.30042">
        <ele>163.8</ele>
        <time>2024-07-11T09:52:39Z</time>
      </trkpt>
      <trkpt lat="43.72492" lon="1.30051">
        <ele>163.8</ele>
        <time>2024-07-11T09:52:40Z</time>
      </trkpt>
      <trkpt lat="43.72488" lon="1.30061">
        <ele>163.6</ele>
        <time>2024-07-11T09:52:41Z</time>
      </trkpt>
      <trkpt lat="43.72484" lon="1.30074">
        <ele>163.6</ele>
        <time>2024-07-11T09:52:42Z</time>
      </trkpt>
      <trkpt lat="43.7248" lon="1.30085">
        <ele>163.4</ele>
        <time>2024-07-11T09:52:43Z</time>
      </trkpt>
      <trkpt lat="43.72477" lon="1.30094">
        <ele>163.2</ele>
        <time>2024-07-11T09:52:44Z</time>
      </trkpt>
      <trkpt lat="43.72473" lon="1.30106">
        <ele>162.8</ele>
        <time>2024-07-11T09:52:45Z</time>
      </trkpt>
      <trkpt lat="43.72468" lon="1.30119">
        <ele>162.8</ele>
        <time>2024-07-11T09:52:46Z</time>
      </trkpt>
      <trkpt lat="43.72465" lon="1.30127">
        <ele>162.6</ele>
        <time>2024-07-11T09:52:47Z</time>
      </trkpt>
      <trkpt lat="43.72462" lon="1.30138">
        <ele>162.6</ele>
        <time>2024-07-11T09:52:48Z</time>
      </trkpt>
      <trkpt lat="43.72458" lon="1.30149">
        <ele>162.4</ele>
        <time>2024-07-11T09:52:49Z</time>
      </trkpt>
      <trkpt lat="43.72454" lon="1.30159">
        <ele>162</ele>
        <time>2024-07-11T09:52:50Z</time>
      </trkpt>
      <trkpt lat="43.7245" lon="1.3017">
        <ele>161.8</ele>
        <time>2024-07-11T09:52:51Z</time>
      </trkpt>
      <trkpt lat="43.72445" lon="1.30183">
        <ele>161.6</ele>
        <time>2024-07-11T09:52:52Z</time>
      </trkpt>
      <trkpt lat="43.72441" lon="1.30194">
        <ele>161.2</ele>
        <time>2024-07-11T09:52:53Z</time>
      </trkpt>
      <trkpt lat="43.72438" lon="1.30202">
        <ele>161</ele>
        <time>2024-07-11T09:52:54Z</time>
      </trkpt>
      <trkpt lat="43.72433" lon="1.30212">
        <ele>160.8</ele>
        <time>2024-07-11T09:52:55Z</time>
      </trkpt>
      <trkpt lat="43.72429" lon="1.30225">
        <ele>160.6</ele>
        <time>2024-07-11T09:52:56Z</time>
      </trkpt>
      <trkpt lat="43.72424" lon="1.30236">
        <ele>160.2</ele>
        <time>2024-07-11T09:52:57Z</time>
      </trkpt>
      <trkpt lat="43.7242" lon="1.30247">
        <ele>159.6</ele>
        <time>2024-07-11T09:52:58Z</time>
      </trkpt>
      <trkpt lat="43.72417" lon="1.30256">
        <ele>159.4</ele>
        <time>2024-07-11T09:52:59Z</time>
      </trkpt>
      <trkpt lat="43.72413" lon="1.30266">
        <ele>159.2</ele>
        <time>2024-07-11T09:53:00Z</time>
      </trkpt>
      <trkpt lat="43.72408" lon="1.30279">
        <ele>159</ele>
        <time>2024-07-11T09:53:01Z</time>
      </trkpt>
      <trkpt lat="43.72404" lon="1.30289">
        <ele>158.8</ele>
        <time>2024-07-11T09:53:02Z</time>
      </trkpt>
      <trkpt lat="43.724" lon="1.303">
        <ele>158.6</ele>
        <time>2024-07-11T09:53:03Z</time>
      </trkpt>
      <trkpt lat="43.72397" lon="1.30309">
        <ele>158.4</ele>
        <time>2024-07-11T09:53:04Z</time>
      </trkpt>
      <trkpt lat="43.72393" lon="1.3032">
        <ele>158.4</ele>
        <time>2024-07-11T09:53:05Z</time>
      </trkpt>
      <trkpt lat="43.72388" lon="1.30333">
        <ele>158.4</ele>
        <time>2024-07-11T09:53:06Z</time>
      </trkpt>
      <trkpt lat="43.72384" lon="1.30343">
        <ele>158.4</ele>
        <time>2024-07-11T09:53:07Z</time>
      </trkpt>
      <trkpt lat="43.7238" lon="1.30354">
        <ele>158.4</ele>
        <time>2024-07-11T09:53:08Z</time>
      </trkpt>
      <trkpt lat="43.72377" lon="1.30362">
        <ele>158.4</ele>
        <time>2024-07-11T09:53:09Z</time>
      </trkpt>
      <trkpt lat="43.72374" lon="1.30372">
        <ele>158.4</ele>
        <time>2024-07-11T09:53:10Z</time>
      </trkpt>
      <trkpt lat="43.72369" lon="1.30385">
        <ele>158.4</ele>
        <time>2024-07-11T09:53:11Z</time>
      </trkpt>
      <trkpt lat="43.72365" lon="1.30395">
        <ele>158.4</ele>
        <time>2024-07-11T09:53:12Z</time>
      </trkpt>
      <trkpt lat="43.72362" lon="1.30403">
        <ele>158.4</ele>
        <time>2024-07-11T09:53:13Z</time>
      </trkpt>
      <trkpt lat="43.72359" lon="1.30412">
        <ele>158.4</ele>
        <time>2024-07-11T09:53:14Z</time>
      </trkpt>
      <trkpt lat="43.72355" lon="1.30422">
        <ele>158.4</ele>
        <time>2024-07-11T09:53:15Z</time>
      </trkpt>
      <trkpt lat="43.72351" lon="1.30431">
        <ele>158.4</ele>
        <time>2024-07-11T09:53:16Z</time>
      </trkpt>
      <trkpt lat="43.72346" lon="1.3044">
        <ele>158.4</ele>
        <time>2024-07-11T09:53:17Z</time>
      </trkpt>
      <trkpt lat="43.7234" lon="1.30447">
        <ele>158.4</ele>
        <time>2024-07-11T09:53:18Z</time>
      </trkpt>
      <trkpt lat="43.72333" lon="1.30453">
        <ele>158.4</ele>
        <time>2024-07-11T09:53:19Z</time>
      </trkpt>
      <trkpt lat="43.72326" lon="1.30457">
        <ele>158.2</ele>
        <time>2024-07-11T09:53:20Z</time>
      </trkpt>
      <trkpt lat="43.72317" lon="1.30461">
        <ele>158.2</ele>
        <time>2024-07-11T09:53:21Z</time>
      </trkpt>
      <trkpt lat="43.72309" lon="1.30463">
        <ele>158.2</ele>
        <time>2024-07-11T09:53:22Z</time>
      </trkpt>
      <trkpt lat="43.72301" lon="1.30465">
        <ele>158.2</ele>
        <time>2024-07-11T09:53:23Z</time>
      </trkpt>
      <trkpt lat="43.72293" lon="1.30467">
        <ele>158.2</ele>
        <time>2024-07-11T09:53:24Z</time>
      </trkpt>
      <trkpt lat="43.72284" lon="1.30469">
        <ele>158.2</ele>
        <time>2024-07-11T09:53:25Z</time>
      </trkpt>
      <trkpt lat="43.72276" lon="1.30471">
        <ele>158.2</ele>
        <time>2024-07-11T09:53:26Z</time>
      </trkpt>
      <trkpt lat="43.72267" lon="1.30473">
        <ele>158.2</ele>
        <time>2024-07-11T09:53:27Z</time>
      </trkpt>
      <trkpt lat="43.72259" lon="1.30475">
        <ele>158.2</ele>
        <time>2024-07-11T09:53:28Z</time>
      </trkpt>
      <trkpt lat="43.72251" lon="1.30477">
        <ele>158.2</ele>
        <time>2024-07-11T09:53:29Z</time>
      </trkpt>
      <trkpt lat="43.72243" lon="1.30479">
        <ele>158.2</ele>
        <time>2024-07-11T09:53:30Z</time>
      </trkpt>
      <trkpt lat="43.72234" lon="1.30481">
        <ele>158.2</ele>
        <time>2024-07-11T09:53:31Z</time>
      </trkpt>
      <trkpt lat="43.72226" lon="1.30483">
        <ele>158.2</ele>
        <time>2024-07-11T09:53:32Z</time>
      </trkpt>
      <trkpt lat="43.72218" lon="1.30486">
        <ele>158.2</ele>
        <time>2024-07-11T09:53:33Z</time>
      </trkpt>
      <trkpt lat="43.72209" lon="1.30488">
        <ele>158.4</ele>
        <time>2024-07-11T09:53:34Z</time>
      </trkpt>
      <trkpt lat="43.72201" lon="1.30489">
        <ele>158.4</ele>
        <time>2024-07-11T09:53:35Z</time>
      </trkpt>
      <trkpt lat="43.72193" lon="1.30492">
        <ele>158.4</ele>
        <time>2024-07-11T09:53:36Z</time>
      </trkpt>
      <trkpt lat="43.72185" lon="1.30493">
        <ele>158.4</ele>
        <time>2024-07-11T09:53:37Z</time>
      </trkpt>
      <trkpt lat="43.72177" lon="1.30495">
        <ele>158.6</ele>
        <time>2024-07-11T09:53:38Z</time>
      </trkpt>
      <trkpt lat="43.72168" lon="1.30497">
        <ele>158.6</ele>
        <time>2024-07-11T09:53:39Z</time>
      </trkpt>
      <trkpt lat="43.7216" lon="1.30499">
        <ele>158.6</ele>
        <time>2024-07-11T09:53:40Z</time>
      </trkpt>
      <trkpt lat="43.72152" lon="1.305">
        <ele>158.6</ele>
        <time>2024-07-11T09:53:41Z</time>
      </trkpt>
      <trkpt lat="43.72144" lon="1.30502">
        <ele>158.6</ele>
        <time>2024-07-11T09:53:42Z</time>
      </trkpt>
      <trkpt lat="43.72135" lon="1.30503">
        <ele>158.8</ele>
        <time>2024-07-11T09:53:43Z</time>
      </trkpt>
      <trkpt lat="43.72127" lon="1.30505">
        <ele>158.8</ele>
        <time>2024-07-11T09:53:44Z</time>
      </trkpt>
      <trkpt lat="43.72119" lon="1.30506">
        <ele>159</ele>
        <time>2024-07-11T09:53:45Z</time>
      </trkpt>
      <trkpt lat="43.72111" lon="1.30508">
        <ele>159</ele>
        <time>2024-07-11T09:53:46Z</time>
      </trkpt>
      <trkpt lat="43.72103" lon="1.3051">
        <ele>159</ele>
        <time>2024-07-11T09:53:47Z</time>
      </trkpt>
      <trkpt lat="43.72094" lon="1.30512">
        <ele>159</ele>
        <time>2024-07-11T09:53:48Z</time>
      </trkpt>
      <trkpt lat="43.72086" lon="1.30514">
        <ele>159.2</ele>
        <time>2024-07-11T09:53:49Z</time>
      </trkpt>
      <trkpt lat="43.72078" lon="1.30516">
        <ele>159.2</ele>
        <time>2024-07-11T09:53:50Z</time>
      </trkpt>
      <trkpt lat="43.7207" lon="1.30518">
        <ele>159.4</ele>
        <time>2024-07-11T09:53:51Z</time>
      </trkpt>
      <trkpt lat="43.72063" lon="1.3052">
        <ele>159.4</ele>
        <time>2024-07-11T09:53:52Z</time>
      </trkpt>
      <trkpt lat="43.72055" lon="1.30522">
        <ele>159.6</ele>
        <time>2024-07-11T09:53:53Z</time>
      </trkpt>
      <trkpt lat="43.72047" lon="1.30525">
        <ele>159.8</ele>
        <time>2024-07-11T09:53:54Z</time>
      </trkpt>
      <trkpt lat="43.72039" lon="1.30528">
        <ele>159.8</ele>
        <time>2024-07-11T09:53:55Z</time>
      </trkpt>
      <trkpt lat="43.72031" lon="1.3053">
        <ele>159.8</ele>
        <time>2024-07-11T09:53:56Z</time>
      </trkpt>
      <trkpt lat="43.72023" lon="1.30532">
        <ele>160</ele>
        <time>2024-07-11T09:53:57Z</time>
      </trkpt>
      <trkpt lat="43.72015" lon="1.30534">
        <ele>160</ele>
        <time>2024-07-11T09:53:58Z</time>
      </trkpt>
      <trkpt lat="43.72007" lon="1.30535">
        <ele>160</ele>
        <time>2024-07-11T09:53:59Z</time>
      </trkpt>
      <trkpt lat="43.72" lon="1.30536">
        <ele>160.2</ele>
        <time>2024-07-11T09:54:00Z</time>
      </trkpt>
      <trkpt lat="43.71992" lon="1.30538">
        <ele>160.2</ele>
        <time>2024-07-11T09:54:01Z</time>
      </trkpt>
      <trkpt lat="43.71984" lon="1.30539">
        <ele>160.2</ele>
        <time>2024-07-11T09:54:02Z</time>
      </trkpt>
      <trkpt lat="43.71976" lon="1.30539">
        <ele>160.4</ele>
        <time>2024-07-11T09:54:03Z</time>
      </trkpt>
      <trkpt lat="43.71969" lon="1.30538">
        <ele>160.4</ele>
        <time>2024-07-11T09:54:04Z</time>
      </trkpt>
      <trkpt lat="43.71962" lon="1.30538">
        <ele>160.4</ele>
        <time>2024-07-11T09:54:05Z</time>
      </trkpt>
      <trkpt lat="43.71955" lon="1.30538">
        <ele>160.6</ele>
        <time>2024-07-11T09:54:06Z</time>
      </trkpt>
      <trkpt lat="43.71947" lon="1.30538">
        <ele>160.6</ele>
        <time>2024-07-11T09:54:07Z</time>
      </trkpt>
      <trkpt lat="43.7194" lon="1.30538">
        <ele>160.6</ele>
        <time>2024-07-11T09:54:08Z</time>
      </trkpt>
      <trkpt lat="43.71933" lon="1.30538">
        <ele>160.6</ele>
        <time>2024-07-11T09:54:09Z</time>
      </trkpt>
      <trkpt lat="43.71925" lon="1.30539">
        <ele>160.8</ele>
        <time>2024-07-11T09:54:10Z</time>
      </trkpt>
      <trkpt lat="43.71918" lon="1.30539">
        <ele>160.8</ele>
        <time>2024-07-11T09:54:11Z</time>
      </trkpt>
      <trkpt lat="43.7191" lon="1.30539">
        <ele>161</ele>
        <time>2024-07-11T09:54:12Z</time>
      </trkpt>
      <trkpt lat="43.71902" lon="1.30539">
        <ele>161</ele>
        <time>2024-07-11T09:54:13Z</time>
      </trkpt>
      <trkpt lat="43.71894" lon="1.30539">
        <ele>161.2</ele>
        <time>2024-07-11T09:54:14Z</time>
      </trkpt>
      <trkpt lat="43.71886" lon="1.30539">
        <ele>161.2</ele>
        <time>2024-07-11T09:54:15Z</time>
      </trkpt>
      <trkpt lat="43.71879" lon="1.30539">
        <ele>161.4</ele>
        <time>2024-07-11T09:54:16Z</time>
      </trkpt>
      <trkpt lat="43.71872" lon="1.30539">
        <ele>161.4</ele>
        <time>2024-07-11T09:54:17Z</time>
      </trkpt>
      <trkpt lat="43.71864" lon="1.3054">
        <ele>161.4</ele>
        <time>2024-07-11T09:54:18Z</time>
      </trkpt>
      <trkpt lat="43.71857" lon="1.30541">
        <ele>161.6</ele>
        <time>2024-07-11T09:54:19Z</time>
      </trkpt>
      <trkpt lat="43.7185" lon="1.30543">
        <ele>161.6</ele>
        <time>2024-07-11T09:54:20Z</time>
      </trkpt>
      <trkpt lat="43.71844" lon="1.30546">
        <ele>161.6</ele>
        <time>2024-07-11T09:54:21Z</time>
      </trkpt>
      <trkpt lat="43.71837" lon="1.30549">
        <ele>161.6</ele>
        <time>2024-07-11T09:54:22Z</time>
      </trkpt>
      <trkpt lat="43.71831" lon="1.30552">
        <ele>161.6</ele>
        <time>2024-07-11T09:54:23Z</time>
      </trkpt>
      <trkpt lat="43.71824" lon="1.30554">
        <ele>161.6</ele>
        <time>2024-07-11T09:54:24Z</time>
      </trkpt>
      <trkpt lat="43.71818" lon="1.30555">
        <ele>161.8</ele>
        <time>2024-07-11T09:54:25Z</time>
      </trkpt>
      <trkpt lat="43.71812" lon="1.30556">
        <ele>161.8</ele>
        <time>2024-07-11T09:54:26Z</time>
      </trkpt>
      <trkpt lat="43.71805" lon="1.30557">
        <ele>161.8</ele>
        <time>2024-07-11T09:54:27Z</time>
      </trkpt>
      <trkpt lat="43.71798" lon="1.30559">
        <ele>161.8</ele>
        <time>2024-07-11T09:54:28Z</time>
      </trkpt>
      <trkpt lat="43.71791" lon="1.30559">
        <ele>161.8</ele>
        <time>2024-07-11T09:54:29Z</time>
      </trkpt>
      <trkpt lat="43.71784" lon="1.30557">
        <ele>161.8</ele>
        <time>2024-07-11T09:54:30Z</time>
      </trkpt>
      <trkpt lat="43.71777" lon="1.30555">
        <ele>161.6</ele>
        <time>2024-07-11T09:54:31Z</time>
      </trkpt>
      <trkpt lat="43.7177" lon="1.30553">
        <ele>161.6</ele>
        <time>2024-07-11T09:54:32Z</time>
      </trkpt>
      <trkpt lat="43.71762" lon="1.30552">
        <ele>161.6</ele>
        <time>2024-07-11T09:54:33Z</time>
      </trkpt>
      <trkpt lat="43.71755" lon="1.30551">
        <ele>161.6</ele>
        <time>2024-07-11T09:54:34Z</time>
      </trkpt>
      <trkpt lat="43.71747" lon="1.3055">
        <ele>161.6</ele>
        <time>2024-07-11T09:54:35Z</time>
      </trkpt>
      <trkpt lat="43.7174" lon="1.30549">
        <ele>161.6</ele>
        <time>2024-07-11T09:54:36Z</time>
      </trkpt>
      <trkpt lat="43.71732" lon="1.30549">
        <ele>161.6</ele>
        <time>2024-07-11T09:54:37Z</time>
      </trkpt>
      <trkpt lat="43.71724" lon="1.30548">
        <ele>161.8</ele>
        <time>2024-07-11T09:54:38Z</time>
      </trkpt>
      <trkpt lat="43.71717" lon="1.30547">
        <ele>161.8</ele>
        <time>2024-07-11T09:54:39Z</time>
      </trkpt>
      <trkpt lat="43.71709" lon="1.30547">
        <ele>161.6</ele>
        <time>2024-07-11T09:54:40Z</time>
      </trkpt>
      <trkpt lat="43.71701" lon="1.30546">
        <ele>161.6</ele>
        <time>2024-07-11T09:54:41Z</time>
      </trkpt>
      <trkpt lat="43.71693" lon="1.30545">
        <ele>161.6</ele>
        <time>2024-07-11T09:54:42Z</time>
      </trkpt>
      <trkpt lat="43.71685" lon="1.30544">
        <ele>161.8</ele>
        <time>2024-07-11T09:54:43Z</time>
      </trkpt>
      <trkpt lat="43.71677" lon="1.30544">
        <ele>161.8</ele>
        <time>2024-07-11T09:54:44Z</time>
      </trkpt>
      <trkpt lat="43.71669" lon="1.30543">
        <ele>161.8</ele>
        <time>2024-07-11T09:54:45Z</time>
      </trkpt>
      <trkpt lat="43.71662" lon="1.30543">
        <ele>161.8</ele>
        <time>2024-07-11T09:54:46Z</time>
      </trkpt>
      <trkpt lat="43.71654" lon="1.30543">
        <ele>161.8</ele>
        <time>2024-07-11T09:54:47Z</time>
      </trkpt>
      <trkpt lat="43.71645" lon="1.30544">
        <ele>161.8</ele>
        <time>2024-07-11T09:54:48Z</time>
      </trkpt>
      <trkpt lat="43.71637" lon="1.30545">
        <ele>161.8</ele>
        <time>2024-07-11T09:54:49Z</time>
      </trkpt>
      <trkpt lat="43.71629" lon="1.30548">
        <ele>161.8</ele>
        <time>2024-07-11T09:54:50Z</time>
      </trkpt>
      <trkpt lat="43.71621" lon="1.30552">
        <ele>161.8</ele>
        <time>2024-07-11T09:54:51Z</time>
      </trkpt>
      <trkpt lat="43.71613" lon="1.30557">
        <ele>161.8</ele>
        <time>2024-07-11T09:54:52Z</time>
      </trkpt>
      <trkpt lat="43.71606" lon="1.30562">
        <ele>161.8</ele>
        <time>2024-07-11T09:54:53Z</time>
      </trkpt>
      <trkpt lat="43.71598" lon="1.30568">
        <ele>161.8</ele>
        <time>2024-07-11T09:54:54Z</time>
      </trkpt>
      <trkpt lat="43.71591" lon="1.30574">
        <ele>161.8</ele>
        <time>2024-07-11T09:54:55Z</time>
      </trkpt>
      <trkpt lat="43.71584" lon="1.3058">
        <ele>161.8</ele>
        <time>2024-07-11T09:54:56Z</time>
      </trkpt>
      <trkpt lat="43.71576" lon="1.30587">
        <ele>161.8</ele>
        <time>2024-07-11T09:54:57Z</time>
      </trkpt>
      <trkpt lat="43.7157" lon="1.30593">
        <ele>161.8</ele>
        <time>2024-07-11T09:54:58Z</time>
      </trkpt>
      <trkpt lat="43.71563" lon="1.30599">
        <ele>161.8</ele>
        <time>2024-07-11T09:54:59Z</time>
      </trkpt>
      <trkpt lat="43.71556" lon="1.30605">
        <ele>161.8</ele>
        <time>2024-07-11T09:55:00Z</time>
      </trkpt>
      <trkpt lat="43.71549" lon="1.30611">
        <ele>161.8</ele>
        <time>2024-07-11T09:55:01Z</time>
      </trkpt>
      <trkpt lat="43.71542" lon="1.30617">
        <ele>161.8</ele>
        <time>2024-07-11T09:55:02Z</time>
      </trkpt>
      <trkpt lat="43.71535" lon="1.30623">
        <ele>161.6</ele>
        <time>2024-07-11T09:55:03Z</time>
      </trkpt>
      <trkpt lat="43.71521" lon="1.30636">
        <ele>161.6</ele>
        <time>2024-07-11T09:55:04Z</time>
      </trkpt>
      <trkpt lat="43.71521" lon="1.30636">
        <ele>161.6</ele>
        <time>2024-07-11T09:55:05Z</time>
      </trkpt>
      <trkpt lat="43.71513" lon="1.30643">
        <ele>161.6</ele>
        <time>2024-07-11T09:55:06Z</time>
      </trkpt>
      <trkpt lat="43.71499" lon="1.30656">
        <ele>161.6</ele>
        <time>2024-07-11T09:55:07Z</time>
      </trkpt>
      <trkpt lat="43.71493" lon="1.30661">
        <ele>161.6</ele>
        <time>2024-07-11T09:55:08Z</time>
      </trkpt>
      <trkpt lat="43.71486" lon="1.30667">
        <ele>161.6</ele>
        <time>2024-07-11T09:55:09Z</time>
      </trkpt>
      <trkpt lat="43.71479" lon="1.30674">
        <ele>161.6</ele>
        <time>2024-07-11T09:55:10Z</time>
      </trkpt>
      <trkpt lat="43.71472" lon="1.30681">
        <ele>161.4</ele>
        <time>2024-07-11T09:55:11Z</time>
      </trkpt>
      <trkpt lat="43.71465" lon="1.30688">
        <ele>161.4</ele>
        <time>2024-07-11T09:55:12Z</time>
      </trkpt>
      <trkpt lat="43.71465" lon="1.30688">
        <ele>161.4</ele>
        <time>2024-07-11T09:55:13Z</time>
      </trkpt>
      <trkpt lat="43.71458" lon="1.30695">
        <ele>161.4</ele>
        <time>2024-07-11T09:55:14Z</time>
      </trkpt>
      <trkpt lat="43.71445" lon="1.30709">
        <ele>161.4</ele>
        <time>2024-07-11T09:55:15Z</time>
      </trkpt>
      <trkpt lat="43.71438" lon="1.30717">
        <ele>161.2</ele>
        <time>2024-07-11T09:55:16Z</time>
      </trkpt>
      <trkpt lat="43.71432" lon="1.30724">
        <ele>161.2</ele>
        <time>2024-07-11T09:55:17Z</time>
      </trkpt>
      <trkpt lat="43.71426" lon="1.30732">
        <ele>161.2</ele>
        <time>2024-07-11T09:55:18Z</time>
      </trkpt>
      <trkpt lat="43.7142" lon="1.30739">
        <ele>161.2</ele>
        <time>2024-07-11T09:55:19Z</time>
      </trkpt>
      <trkpt lat="43.71414" lon="1.30747">
        <ele>161.2</ele>
        <time>2024-07-11T09:55:20Z</time>
      </trkpt>
      <trkpt lat="43.71408" lon="1.30754">
        <ele>161.2</ele>
        <time>2024-07-11T09:55:21Z</time>
      </trkpt>
      <trkpt lat="43.71402" lon="1.30761">
        <ele>161.2</ele>
        <time>2024-07-11T09:55:22Z</time>
      </trkpt>
      <trkpt lat="43.71396" lon="1.30769">
        <ele>161.2</ele>
        <time>2024-07-11T09:55:23Z</time>
      </trkpt>
      <trkpt lat="43.7139" lon="1.30776">
        <ele>161.2</ele>
        <time>2024-07-11T09:55:24Z</time>
      </trkpt>
      <trkpt lat="43.7139" lon="1.30776">
        <ele>161.2</ele>
        <time>2024-07-11T09:55:25Z</time>
      </trkpt>
      <trkpt lat="43.71378" lon="1.30789">
        <ele>161.2</ele>
        <time>2024-07-11T09:55:26Z</time>
      </trkpt>
      <trkpt lat="43.71371" lon="1.30796">
        <ele>161.2</ele>
        <time>2024-07-11T09:55:27Z</time>
      </trkpt>
      <trkpt lat="43.71364" lon="1.30801">
        <ele>161.2</ele>
        <time>2024-07-11T09:55:28Z</time>
      </trkpt>
      <trkpt lat="43.71357" lon="1.30806">
        <ele>161.2</ele>
        <time>2024-07-11T09:55:29Z</time>
      </trkpt>
      <trkpt lat="43.71357" lon="1.30806">
        <ele>161.4</ele>
        <time>2024-07-11T09:55:30Z</time>
      </trkpt>
      <trkpt lat="43.71343" lon="1.30815">
        <ele>161.4</ele>
        <time>2024-07-11T09:55:31Z</time>
      </trkpt>
      <trkpt lat="43.71334" lon="1.30819">
        <ele>161.4</ele>
        <time>2024-07-11T09:55:32Z</time>
      </trkpt>
      <trkpt lat="43.71328" lon="1.30822">
        <ele>161.4</ele>
        <time>2024-07-11T09:55:33Z</time>
      </trkpt>
      <trkpt lat="43.7132" lon="1.30826">
        <ele>161.4</ele>
        <time>2024-07-11T09:55:34Z</time>
      </trkpt>
      <trkpt lat="43.71313" lon="1.3083">
        <ele>161.4</ele>
        <time>2024-07-11T09:55:35Z</time>
      </trkpt>
      <trkpt lat="43.71313" lon="1.3083">
        <ele>161.4</ele>
        <time>2024-07-11T09:55:36Z</time>
      </trkpt>
      <trkpt lat="43.71305" lon="1.30834">
        <ele>161.6</ele>
        <time>2024-07-11T09:55:37Z</time>
      </trkpt>
      <trkpt lat="43.7129" lon="1.30842">
        <ele>161.8</ele>
        <time>2024-07-11T09:55:38Z</time>
      </trkpt>
      <trkpt lat="43.71282" lon="1.30846">
        <ele>161.8</ele>
        <time>2024-07-11T09:55:39Z</time>
      </trkpt>
      <trkpt lat="43.71282" lon="1.30846">
        <ele>161.8</ele>
        <time>2024-07-11T09:55:40Z</time>
      </trkpt>
      <trkpt lat="43.71274" lon="1.30851">
        <ele>162</ele>
        <time>2024-07-11T09:55:41Z</time>
      </trkpt>
      <trkpt lat="43.71259" lon="1.30862">
        <ele>162</ele>
        <time>2024-07-11T09:55:42Z</time>
      </trkpt>
      <trkpt lat="43.71253" lon="1.30867">
        <ele>162.4</ele>
        <time>2024-07-11T09:55:43Z</time>
      </trkpt>
      <trkpt lat="43.71246" lon="1.30873">
        <ele>162.4</ele>
        <time>2024-07-11T09:55:44Z</time>
      </trkpt>
      <trkpt lat="43.7124" lon="1.3088">
        <ele>162.6</ele>
        <time>2024-07-11T09:55:45Z</time>
      </trkpt>
      <trkpt lat="43.7124" lon="1.3088">
        <ele>162.8</ele>
        <time>2024-07-11T09:55:46Z</time>
      </trkpt>
      <trkpt lat="43.71233" lon="1.30887">
        <ele>162.8</ele>
        <time>2024-07-11T09:55:47Z</time>
      </trkpt>
      <trkpt lat="43.7122" lon="1.30902">
        <ele>162.8</ele>
        <time>2024-07-11T09:55:48Z</time>
      </trkpt>
      <trkpt lat="43.7122" lon="1.30902">
        <ele>162.8</ele>
        <time>2024-07-11T09:55:49Z</time>
      </trkpt>
      <trkpt lat="43.71214" lon="1.3091">
        <ele>163</ele>
        <time>2024-07-11T09:55:50Z</time>
      </trkpt>
      <trkpt lat="43.712" lon="1.30927">
        <ele>163</ele>
        <time>2024-07-11T09:55:51Z</time>
      </trkpt>
      <trkpt lat="43.71194" lon="1.30935">
        <ele>163</ele>
        <time>2024-07-11T09:55:52Z</time>
      </trkpt>
      <trkpt lat="43.71188" lon="1.30943">
        <ele>163</ele>
        <time>2024-07-11T09:55:53Z</time>
      </trkpt>
      <trkpt lat="43.71188" lon="1.30943">
        <ele>163</ele>
        <time>2024-07-11T09:55:54Z</time>
      </trkpt>
      <trkpt lat="43.71183" lon="1.30949">
        <ele>163</ele>
        <time>2024-07-11T09:55:55Z</time>
      </trkpt>
      <trkpt lat="43.7117" lon="1.30966">
        <ele>163</ele>
        <time>2024-07-11T09:55:56Z</time>
      </trkpt>
      <trkpt lat="43.71164" lon="1.30974">
        <ele>163</ele>
        <time>2024-07-11T09:55:57Z</time>
      </trkpt>
      <trkpt lat="43.71157" lon="1.30981">
        <ele>162.8</ele>
        <time>2024-07-11T09:55:58Z</time>
      </trkpt>
      <trkpt lat="43.71151" lon="1.30989">
        <ele>162.8</ele>
        <time>2024-07-11T09:55:59Z</time>
      </trkpt>
      <trkpt lat="43.71151" lon="1.30989">
        <ele>162.8</ele>
        <time>2024-07-11T09:56:00Z</time>
      </trkpt>
      <trkpt lat="43.71139" lon="1.31004">
        <ele>162.8</ele>
        <time>2024-07-11T09:56:01Z</time>
      </trkpt>
      <trkpt lat="43.71132" lon="1.31011">
        <ele>162.6</ele>
        <time>2024-07-11T09:56:02Z</time>
      </trkpt>
      <trkpt lat="43.71132" lon="1.31011">
        <ele>162.6</ele>
        <time>2024-07-11T09:56:03Z</time>
      </trkpt>
      <trkpt lat="43.7112" lon="1.31023">
        <ele>162.6</ele>
        <time>2024-07-11T09:56:04Z</time>
      </trkpt>
      <trkpt lat="43.71112" lon="1.3103">
        <ele>162.6</ele>
        <time>2024-07-11T09:56:05Z</time>
      </trkpt>
      <trkpt lat="43.71105" lon="1.31036">
        <ele>162.6</ele>
        <time>2024-07-11T09:56:06Z</time>
      </trkpt>
      <trkpt lat="43.71098" lon="1.31042">
        <ele>162.6</ele>
        <time>2024-07-11T09:56:07Z</time>
      </trkpt>
      <trkpt lat="43.71091" lon="1.31047">
        <ele>162.8</ele>
        <time>2024-07-11T09:56:08Z</time>
      </trkpt>
      <trkpt lat="43.71084" lon="1.31052">
        <ele>162.8</ele>
        <time>2024-07-11T09:56:09Z</time>
      </trkpt>
      <trkpt lat="43.71076" lon="1.31058">
        <ele>162.8</ele>
        <time>2024-07-11T09:56:10Z</time>
      </trkpt>
      <trkpt lat="43.71069" lon="1.31063">
        <ele>162.8</ele>
        <time>2024-07-11T09:56:11Z</time>
      </trkpt>
      <trkpt lat="43.71062" lon="1.31068">
        <ele>162.8</ele>
        <time>2024-07-11T09:56:12Z</time>
      </trkpt>
      <trkpt lat="43.71055" lon="1.31073">
        <ele>163</ele>
        <time>2024-07-11T09:56:13Z</time>
      </trkpt>
      <trkpt lat="43.71048" lon="1.31078">
        <ele>163</ele>
        <time>2024-07-11T09:56:14Z</time>
      </trkpt>
      <trkpt lat="43.7104" lon="1.31083">
        <ele>163.2</ele>
        <time>2024-07-11T09:56:15Z</time>
      </trkpt>
      <trkpt lat="43.71033" lon="1.31088">
        <ele>163.2</ele>
        <time>2024-07-11T09:56:16Z</time>
      </trkpt>
      <trkpt lat="43.71026" lon="1.31093">
        <ele>163.2</ele>
        <time>2024-07-11T09:56:17Z</time>
      </trkpt>
      <trkpt lat="43.71019" lon="1.31098">
        <ele>163.2</ele>
        <time>2024-07-11T09:56:18Z</time>
      </trkpt>
      <trkpt lat="43.71019" lon="1.31098">
        <ele>163.2</ele>
        <time>2024-07-11T09:56:19Z</time>
      </trkpt>
      <trkpt lat="43.71006" lon="1.31108">
        <ele>163</ele>
        <time>2024-07-11T09:56:20Z</time>
      </trkpt>
      <trkpt lat="43.70998" lon="1.31113">
        <ele>163</ele>
        <time>2024-07-11T09:56:21Z</time>
      </trkpt>
      <trkpt lat="43.70992" lon="1.31118">
        <ele>163.2</ele>
        <time>2024-07-11T09:56:22Z</time>
      </trkpt>
      <trkpt lat="43.70985" lon="1.31123">
        <ele>163.2</ele>
        <time>2024-07-11T09:56:23Z</time>
      </trkpt>
      <trkpt lat="43.70978" lon="1.31128">
        <ele>163.2</ele>
        <time>2024-07-11T09:56:24Z</time>
      </trkpt>
      <trkpt lat="43.70971" lon="1.31134">
        <ele>163.4</ele>
        <time>2024-07-11T09:56:25Z</time>
      </trkpt>
      <trkpt lat="43.70964" lon="1.31139">
        <ele>163.4</ele>
        <time>2024-07-11T09:56:26Z</time>
      </trkpt>
      <trkpt lat="43.70959" lon="1.31143">
        <ele>163.4</ele>
        <time>2024-07-11T09:56:27Z</time>
      </trkpt>
      <trkpt lat="43.70953" lon="1.31148">
        <ele>163.4</ele>
        <time>2024-07-11T09:56:28Z</time>
      </trkpt>
      <trkpt lat="43.70953" lon="1.31148">
        <ele>163.4</ele>
        <time>2024-07-11T09:56:29Z</time>
      </trkpt>
      <trkpt lat="43.7094" lon="1.31159">
        <ele>163.6</ele>
        <time>2024-07-11T09:56:30Z</time>
      </trkpt>
      <trkpt lat="43.70932" lon="1.31166">
        <ele>163.6</ele>
        <time>2024-07-11T09:56:31Z</time>
      </trkpt>
      <trkpt lat="43.70932" lon="1.31166">
        <ele>163.6</ele>
        <time>2024-07-11T09:56:32Z</time>
      </trkpt>
      <trkpt lat="43.7092" lon="1.31176">
        <ele>163.6</ele>
        <time>2024-07-11T09:56:33Z</time>
      </trkpt>
      <trkpt lat="43.7092" lon="1.31176">
        <ele>163.6</ele>
        <time>2024-07-11T09:56:34Z</time>
      </trkpt>
      <trkpt lat="43.70905" lon="1.31188">
        <ele>163.8</ele>
        <time>2024-07-11T09:56:35Z</time>
      </trkpt>
      <trkpt lat="43.70899" lon="1.31193">
        <ele>164</ele>
        <time>2024-07-11T09:56:36Z</time>
      </trkpt>
      <trkpt lat="43.70893" lon="1.31197">
        <ele>164.6</ele>
        <time>2024-07-11T09:56:37Z</time>
      </trkpt>
      <trkpt lat="43.70886" lon="1.31202">
        <ele>164.6</ele>
        <time>2024-07-11T09:56:38Z</time>
      </trkpt>
      <trkpt lat="43.70878" lon="1.31208">
        <ele>164.8</ele>
        <time>2024-07-11T09:56:39Z</time>
      </trkpt>
      <trkpt lat="43.70871" lon="1.31214">
        <ele>164.8</ele>
        <time>2024-07-11T09:56:40Z</time>
      </trkpt>
      <trkpt lat="43.70864" lon="1.31219">
        <ele>164.8</ele>
        <time>2024-07-11T09:56:41Z</time>
      </trkpt>
      <trkpt lat="43.70858" lon="1.31224">
        <ele>164.8</ele>
        <time>2024-07-11T09:56:42Z</time>
      </trkpt>
      <trkpt lat="43.70858" lon="1.31224">
        <ele>164.8</ele>
        <time>2024-07-11T09:56:43Z</time>
      </trkpt>
      <trkpt lat="43.70843" lon="1.31235">
        <ele>164.8</ele>
        <time>2024-07-11T09:56:44Z</time>
      </trkpt>
      <trkpt lat="43.70834" lon="1.31242">
        <ele>164.6</ele>
        <time>2024-07-11T09:56:45Z</time>
      </trkpt>
      <trkpt lat="43.70827" lon="1.31248">
        <ele>164.4</ele>
        <time>2024-07-11T09:56:46Z</time>
      </trkpt>
      <trkpt lat="43.70822" lon="1.31252">
        <ele>164.6</ele>
        <time>2024-07-11T09:56:47Z</time>
      </trkpt>
      <trkpt lat="43.70816" lon="1.31258">
        <ele>164.6</ele>
        <time>2024-07-11T09:56:48Z</time>
      </trkpt>
      <trkpt lat="43.70808" lon="1.31266">
        <ele>164.6</ele>
        <time>2024-07-11T09:56:49Z</time>
      </trkpt>
      <trkpt lat="43.70802" lon="1.31273">
        <ele>164.6</ele>
        <time>2024-07-11T09:56:50Z</time>
      </trkpt>
      <trkpt lat="43.70796" lon="1.3128">
        <ele>164.6</ele>
        <time>2024-07-11T09:56:51Z</time>
      </trkpt>
      <trkpt lat="43.70791" lon="1.31285">
        <ele>164.6</ele>
        <time>2024-07-11T09:56:52Z</time>
      </trkpt>
      <trkpt lat="43.70791" lon="1.31285">
        <ele>164.4</ele>
        <time>2024-07-11T09:56:53Z</time>
      </trkpt>
      <trkpt lat="43.70778" lon="1.31301">
        <ele>164.6</ele>
        <time>2024-07-11T09:56:54Z</time>
      </trkpt>
      <trkpt lat="43.70772" lon="1.31309">
        <ele>164.6</ele>
        <time>2024-07-11T09:56:55Z</time>
      </trkpt>
      <trkpt lat="43.70766" lon="1.31316">
        <ele>164.8</ele>
        <time>2024-07-11T09:56:56Z</time>
      </trkpt>
      <trkpt lat="43.70761" lon="1.31322">
        <ele>164.8</ele>
        <time>2024-07-11T09:56:57Z</time>
      </trkpt>
      <trkpt lat="43.70761" lon="1.31322">
        <ele>164.8</ele>
        <time>2024-07-11T09:56:58Z</time>
      </trkpt>
      <trkpt lat="43.70747" lon="1.31339">
        <ele>164.8</ele>
        <time>2024-07-11T09:56:59Z</time>
      </trkpt>
      <trkpt lat="43.70741" lon="1.31346">
        <ele>164.8</ele>
        <time>2024-07-11T09:57:00Z</time>
      </trkpt>
      <trkpt lat="43.70736" lon="1.31351">
        <ele>165</ele>
        <time>2024-07-11T09:57:01Z</time>
      </trkpt>
      <trkpt lat="43.7073" lon="1.31358">
        <ele>164.8</ele>
        <time>2024-07-11T09:57:02Z</time>
      </trkpt>
      <trkpt lat="43.70722" lon="1.31366">
        <ele>164.8</ele>
        <time>2024-07-11T09:57:03Z</time>
      </trkpt>
      <trkpt lat="43.70716" lon="1.31373">
        <ele>164.8</ele>
        <time>2024-07-11T09:57:04Z</time>
      </trkpt>
      <trkpt lat="43.70709" lon="1.3138">
        <ele>164.8</ele>
        <time>2024-07-11T09:57:05Z</time>
      </trkpt>
      <trkpt lat="43.70703" lon="1.31385">
        <ele>164.8</ele>
        <time>2024-07-11T09:57:06Z</time>
      </trkpt>
      <trkpt lat="43.70696" lon="1.31392">
        <ele>164.8</ele>
        <time>2024-07-11T09:57:07Z</time>
      </trkpt>
      <trkpt lat="43.70688" lon="1.314">
        <ele>164.6</ele>
        <time>2024-07-11T09:57:08Z</time>
      </trkpt>
      <trkpt lat="43.70681" lon="1.31406">
        <ele>164.6</ele>
        <time>2024-07-11T09:57:09Z</time>
      </trkpt>
      <trkpt lat="43.70674" lon="1.31413">
        <ele>164.6</ele>
        <time>2024-07-11T09:57:10Z</time>
      </trkpt>
      <trkpt lat="43.70674" lon="1.31413">
        <ele>164.4</ele>
        <time>2024-07-11T09:57:11Z</time>
      </trkpt>
      <trkpt lat="43.70662" lon="1.31424">
        <ele>164.4</ele>
        <time>2024-07-11T09:57:12Z</time>
      </trkpt>
      <trkpt lat="43.70662" lon="1.31424">
        <ele>164.4</ele>
        <time>2024-07-11T09:57:13Z</time>
      </trkpt>
      <trkpt lat="43.70648" lon="1.31437">
        <ele>164.2</ele>
        <time>2024-07-11T09:57:14Z</time>
      </trkpt>
      <trkpt lat="43.70641" lon="1.31443">
        <ele>164</ele>
        <time>2024-07-11T09:57:15Z</time>
      </trkpt>
      <trkpt lat="43.70635" lon="1.31448">
        <ele>163.8</ele>
        <time>2024-07-11T09:57:16Z</time>
      </trkpt>
      <trkpt lat="43.70635" lon="1.31448">
        <ele>164</ele>
        <time>2024-07-11T09:57:17Z</time>
      </trkpt>
      <trkpt lat="43.70622" lon="1.31461">
        <ele>164</ele>
        <time>2024-07-11T09:57:18Z</time>
      </trkpt>
      <trkpt lat="43.70616" lon="1.31467">
        <ele>164</ele>
        <time>2024-07-11T09:57:19Z</time>
      </trkpt>
      <trkpt lat="43.7061" lon="1.31472">
        <ele>164.2</ele>
        <time>2024-07-11T09:57:20Z</time>
      </trkpt>
      <trkpt lat="43.70604" lon="1.31478">
        <ele>164.2</ele>
        <time>2024-07-11T09:57:21Z</time>
      </trkpt>
      <trkpt lat="43.70596" lon="1.31485">
        <ele>164.2</ele>
        <time>2024-07-11T09:57:22Z</time>
      </trkpt>
      <trkpt lat="43.70589" lon="1.31491">
        <ele>164.2</ele>
        <time>2024-07-11T09:57:23Z</time>
      </trkpt>
      <trkpt lat="43.70582" lon="1.31496">
        <ele>164.2</ele>
        <time>2024-07-11T09:57:24Z</time>
      </trkpt>
      <trkpt lat="43.70575" lon="1.31501">
        <ele>164.2</ele>
        <time>2024-07-11T09:57:25Z</time>
      </trkpt>
      <trkpt lat="43.70569" lon="1.31506">
        <ele>164.2</ele>
        <time>2024-07-11T09:57:26Z</time>
      </trkpt>
      <trkpt lat="43.7056" lon="1.31511">
        <ele>164.2</ele>
        <time>2024-07-11T09:57:27Z</time>
      </trkpt>
      <trkpt lat="43.70553" lon="1.31516">
        <ele>164.2</ele>
        <time>2024-07-11T09:57:28Z</time>
      </trkpt>
      <trkpt lat="43.70545" lon="1.31519">
        <ele>164.2</ele>
        <time>2024-07-11T09:57:29Z</time>
      </trkpt>
      <trkpt lat="43.70539" lon="1.31522">
        <ele>164.2</ele>
        <time>2024-07-11T09:57:30Z</time>
      </trkpt>
      <trkpt lat="43.70532" lon="1.31526">
        <ele>164.2</ele>
        <time>2024-07-11T09:57:31Z</time>
      </trkpt>
      <trkpt lat="43.70523" lon="1.3153">
        <ele>164.2</ele>
        <time>2024-07-11T09:57:32Z</time>
      </trkpt>
      <trkpt lat="43.70517" lon="1.31532">
        <ele>164.4</ele>
        <time>2024-07-11T09:57:33Z</time>
      </trkpt>
      <trkpt lat="43.70508" lon="1.31536">
        <ele>164.4</ele>
        <time>2024-07-11T09:57:34Z</time>
      </trkpt>
      <trkpt lat="43.70502" lon="1.31539">
        <ele>164.4</ele>
        <time>2024-07-11T09:57:35Z</time>
      </trkpt>
      <trkpt lat="43.70494" lon="1.31542">
        <ele>164.6</ele>
        <time>2024-07-11T09:57:36Z</time>
      </trkpt>
      <trkpt lat="43.70494" lon="1.31542">
        <ele>164.6</ele>
        <time>2024-07-11T09:57:37Z</time>
      </trkpt>
      <trkpt lat="43.7048" lon="1.31549">
        <ele>164.8</ele>
        <time>2024-07-11T09:57:38Z</time>
      </trkpt>
      <trkpt lat="43.70471" lon="1.31554">
        <ele>164.8</ele>
        <time>2024-07-11T09:57:39Z</time>
      </trkpt>
      <trkpt lat="43.70465" lon="1.31556">
        <ele>165</ele>
        <time>2024-07-11T09:57:40Z</time>
      </trkpt>
      <trkpt lat="43.70458" lon="1.3156">
        <ele>165</ele>
        <time>2024-07-11T09:57:41Z</time>
      </trkpt>
      <trkpt lat="43.70458" lon="1.3156">
        <ele>165</ele>
        <time>2024-07-11T09:57:42Z</time>
      </trkpt>
      <trkpt lat="43.70442" lon="1.31567">
        <ele>165.2</ele>
        <time>2024-07-11T09:57:43Z</time>
      </trkpt>
      <trkpt lat="43.70435" lon="1.3157">
        <ele>165.2</ele>
        <time>2024-07-11T09:57:44Z</time>
      </trkpt>
      <trkpt lat="43.70429" lon="1.31573">
        <ele>165.2</ele>
        <time>2024-07-11T09:57:45Z</time>
      </trkpt>
      <trkpt lat="43.70422" lon="1.31576">
        <ele>165.2</ele>
        <time>2024-07-11T09:57:46Z</time>
      </trkpt>
      <trkpt lat="43.70414" lon="1.3158">
        <ele>165.2</ele>
        <time>2024-07-11T09:57:47Z</time>
      </trkpt>
      <trkpt lat="43.70408" lon="1.31583">
        <ele>165.2</ele>
        <time>2024-07-11T09:57:48Z</time>
      </trkpt>
      <trkpt lat="43.70402" lon="1.31586">
        <ele>165.2</ele>
        <time>2024-07-11T09:57:49Z</time>
      </trkpt>
      <trkpt lat="43.70395" lon="1.31589">
        <ele>165.2</ele>
        <time>2024-07-11T09:57:50Z</time>
      </trkpt>
      <trkpt lat="43.70388" lon="1.31592">
        <ele>165.2</ele>
        <time>2024-07-11T09:57:51Z</time>
      </trkpt>
      <trkpt lat="43.70381" lon="1.31596">
        <ele>165.4</ele>
        <time>2024-07-11T09:57:52Z</time>
      </trkpt>
      <trkpt lat="43.70374" lon="1.31599">
        <ele>165.4</ele>
        <time>2024-07-11T09:57:53Z</time>
      </trkpt>
      <trkpt lat="43.70368" lon="1.31601">
        <ele>165.4</ele>
        <time>2024-07-11T09:57:54Z</time>
      </trkpt>
      <trkpt lat="43.70368" lon="1.31601">
        <ele>165.2</ele>
        <time>2024-07-11T09:57:55Z</time>
      </trkpt>
      <trkpt lat="43.70357" lon="1.31607">
        <ele>165.2</ele>
        <time>2024-07-11T09:57:56Z</time>
      </trkpt>
      <trkpt lat="43.70349" lon="1.31612">
        <ele>165.4</ele>
        <time>2024-07-11T09:57:57Z</time>
      </trkpt>
      <trkpt lat="43.70343" lon="1.31616">
        <ele>165.4</ele>
        <time>2024-07-11T09:57:58Z</time>
      </trkpt>
      <trkpt lat="43.70337" lon="1.3162">
        <ele>165.8</ele>
        <time>2024-07-11T09:57:59Z</time>
      </trkpt>
      <trkpt lat="43.70331" lon="1.31624">
        <ele>166</ele>
        <time>2024-07-11T09:58:00Z</time>
      </trkpt>
      <trkpt lat="43.70325" lon="1.31628">
        <ele>166.2</ele>
        <time>2024-07-11T09:58:01Z</time>
      </trkpt>
      <trkpt lat="43.70318" lon="1.31633">
        <ele>166.4</ele>
        <time>2024-07-11T09:58:02Z</time>
      </trkpt>
      <trkpt lat="43.70312" lon="1.31639">
        <ele>166.4</ele>
        <time>2024-07-11T09:58:03Z</time>
      </trkpt>
      <trkpt lat="43.70306" lon="1.31644">
        <ele>166.6</ele>
        <time>2024-07-11T09:58:04Z</time>
      </trkpt>
      <trkpt lat="43.70301" lon="1.31648">
        <ele>166.6</ele>
        <time>2024-07-11T09:58:05Z</time>
      </trkpt>
      <trkpt lat="43.70301" lon="1.31648">
        <ele>166.6</ele>
        <time>2024-07-11T09:58:06Z</time>
      </trkpt>
      <trkpt lat="43.70286" lon="1.31659">
        <ele>166.8</ele>
        <time>2024-07-11T09:58:07Z</time>
      </trkpt>
      <trkpt lat="43.7028" lon="1.31665">
        <ele>167</ele>
        <time>2024-07-11T09:58:08Z</time>
      </trkpt>
      <trkpt lat="43.70273" lon="1.3167">
        <ele>167</ele>
        <time>2024-07-11T09:58:09Z</time>
      </trkpt>
      <trkpt lat="43.70268" lon="1.31675">
        <ele>167</ele>
        <time>2024-07-11T09:58:10Z</time>
      </trkpt>
      <trkpt lat="43.70268" lon="1.31675">
        <ele>166.8</ele>
        <time>2024-07-11T09:58:11Z</time>
      </trkpt>
      <trkpt lat="43.70253" lon="1.31687">
        <ele>166.8</ele>
        <time>2024-07-11T09:58:12Z</time>
      </trkpt>
      <trkpt lat="43.70246" lon="1.31693">
        <ele>166.6</ele>
        <time>2024-07-11T09:58:13Z</time>
      </trkpt>
      <trkpt lat="43.70239" lon="1.31699">
        <ele>166.6</ele>
        <time>2024-07-11T09:58:14Z</time>
      </trkpt>
      <trkpt lat="43.70232" lon="1.31705">
        <ele>166.4</ele>
        <time>2024-07-11T09:58:15Z</time>
      </trkpt>
      <trkpt lat="43.70232" lon="1.31705">
        <ele>166.4</ele>
        <time>2024-07-11T09:58:16Z</time>
      </trkpt>
      <trkpt lat="43.70218" lon="1.31717">
        <ele>166.2</ele>
        <time>2024-07-11T09:58:17Z</time>
      </trkpt>
      <trkpt lat="43.70211" lon="1.31723">
        <ele>166.4</ele>
        <time>2024-07-11T09:58:18Z</time>
      </trkpt>
      <trkpt lat="43.70206" lon="1.31728">
        <ele>166.2</ele>
        <time>2024-07-11T09:58:19Z</time>
      </trkpt>
      <trkpt lat="43.70199" lon="1.31734">
        <ele>166</ele>
        <time>2024-07-11T09:58:20Z</time>
      </trkpt>
      <trkpt lat="43.70191" lon="1.31742">
        <ele>166</ele>
        <time>2024-07-11T09:58:21Z</time>
      </trkpt>
      <trkpt lat="43.70185" lon="1.31748">
        <ele>166</ele>
        <time>2024-07-11T09:58:22Z</time>
      </trkpt>
      <trkpt lat="43.70177" lon="1.31756">
        <ele>166</ele>
        <time>2024-07-11T09:58:23Z</time>
      </trkpt>
      <trkpt lat="43.70172" lon="1.31762">
        <ele>166</ele>
        <time>2024-07-11T09:58:24Z</time>
      </trkpt>
      <trkpt lat="43.70166" lon="1.31769">
        <ele>166</ele>
        <time>2024-07-11T09:58:25Z</time>
      </trkpt>
      <trkpt lat="43.70159" lon="1.31777">
        <ele>165.8</ele>
        <time>2024-07-11T09:58:26Z</time>
      </trkpt>
      <trkpt lat="43.70153" lon="1.31785">
        <ele>165.8</ele>
        <time>2024-07-11T09:58:27Z</time>
      </trkpt>
      <trkpt lat="43.70146" lon="1.31792">
        <ele>165.8</ele>
        <time>2024-07-11T09:58:28Z</time>
      </trkpt>
      <trkpt lat="43.7014" lon="1.318">
        <ele>165.8</ele>
        <time>2024-07-11T09:58:29Z</time>
      </trkpt>
      <trkpt lat="43.70133" lon="1.31807">
        <ele>165.8</ele>
        <time>2024-07-11T09:58:30Z</time>
      </trkpt>
      <trkpt lat="43.70127" lon="1.31815">
        <ele>165.8</ele>
        <time>2024-07-11T09:58:31Z</time>
      </trkpt>
      <trkpt lat="43.7012" lon="1.31823">
        <ele>165.8</ele>
        <time>2024-07-11T09:58:32Z</time>
      </trkpt>
      <trkpt lat="43.70113" lon="1.3183">
        <ele>165.8</ele>
        <time>2024-07-11T09:58:33Z</time>
      </trkpt>
      <trkpt lat="43.70107" lon="1.31838">
        <ele>165.8</ele>
        <time>2024-07-11T09:58:34Z</time>
      </trkpt>
      <trkpt lat="43.701" lon="1.31846">
        <ele>165.8</ele>
        <time>2024-07-11T09:58:35Z</time>
      </trkpt>
      <trkpt lat="43.70093" lon="1.31856">
        <ele>165.8</ele>
        <time>2024-07-11T09:58:36Z</time>
      </trkpt>
      <trkpt lat="43.70086" lon="1.31863">
        <ele>165.6</ele>
        <time>2024-07-11T09:58:37Z</time>
      </trkpt>
      <trkpt lat="43.70079" lon="1.31871">
        <ele>165.6</ele>
        <time>2024-07-11T09:58:38Z</time>
      </trkpt>
      <trkpt lat="43.70074" lon="1.31877">
        <ele>165.4</ele>
        <time>2024-07-11T09:58:39Z</time>
      </trkpt>
      <trkpt lat="43.70068" lon="1.31884">
        <ele>165.4</ele>
        <time>2024-07-11T09:58:40Z</time>
      </trkpt>
      <trkpt lat="43.7006" lon="1.31894">
        <ele>165.4</ele>
        <time>2024-07-11T09:58:41Z</time>
      </trkpt>
      <trkpt lat="43.70054" lon="1.31901">
        <ele>165.4</ele>
        <time>2024-07-11T09:58:42Z</time>
      </trkpt>
      <trkpt lat="43.70047" lon="1.31908">
        <ele>165.4</ele>
        <time>2024-07-11T09:58:43Z</time>
      </trkpt>
      <trkpt lat="43.70042" lon="1.31914">
        <ele>165.4</ele>
        <time>2024-07-11T09:58:44Z</time>
      </trkpt>
      <trkpt lat="43.70042" lon="1.31914">
        <ele>165.4</ele>
        <time>2024-07-11T09:58:45Z</time>
      </trkpt>
      <trkpt lat="43.70028" lon="1.31931">
        <ele>165.4</ele>
        <time>2024-07-11T09:58:46Z</time>
      </trkpt>
      <trkpt lat="43.70022" lon="1.31938">
        <ele>165.4</ele>
        <time>2024-07-11T09:58:47Z</time>
      </trkpt>
      <trkpt lat="43.70016" lon="1.31943">
        <ele>165.2</ele>
        <time>2024-07-11T09:58:48Z</time>
      </trkpt>
      <trkpt lat="43.70009" lon="1.31949">
        <ele>165.4</ele>
        <time>2024-07-11T09:58:49Z</time>
      </trkpt>
      <trkpt lat="43.70009" lon="1.31949">
        <ele>165.4</ele>
        <time>2024-07-11T09:58:50Z</time>
      </trkpt>
      <trkpt lat="43.69992" lon="1.31961">
        <ele>165.4</ele>
        <time>2024-07-11T09:58:51Z</time>
      </trkpt>
      <trkpt lat="43.69985" lon="1.31966">
        <ele>165.4</ele>
        <time>2024-07-11T09:58:52Z</time>
      </trkpt>
      <trkpt lat="43.69979" lon="1.3197">
        <ele>165.2</ele>
        <time>2024-07-11T09:58:53Z</time>
      </trkpt>
      <trkpt lat="43.69971" lon="1.31974">
        <ele>165</ele>
        <time>2024-07-11T09:58:54Z</time>
      </trkpt>
      <trkpt lat="43.69971" lon="1.31974">
        <ele>165</ele>
        <time>2024-07-11T09:58:55Z</time>
      </trkpt>
      <trkpt lat="43.69954" lon="1.31983">
        <ele>164.8</ele>
        <time>2024-07-11T09:58:56Z</time>
      </trkpt>
      <trkpt lat="43.69947" lon="1.31986">
        <ele>164.8</ele>
        <time>2024-07-11T09:58:57Z</time>
      </trkpt>
      <trkpt lat="43.69941" lon="1.31989">
        <ele>164.6</ele>
        <time>2024-07-11T09:58:58Z</time>
      </trkpt>
      <trkpt lat="43.69933" lon="1.31992">
        <ele>164.6</ele>
        <time>2024-07-11T09:58:59Z</time>
      </trkpt>
      <trkpt lat="43.69926" lon="1.31996">
        <ele>164.6</ele>
        <time>2024-07-11T09:59:00Z</time>
      </trkpt>
      <trkpt lat="43.69919" lon="1.32">
        <ele>164.6</ele>
        <time>2024-07-11T09:59:01Z</time>
      </trkpt>
      <trkpt lat="43.69912" lon="1.32003">
        <ele>164.6</ele>
        <time>2024-07-11T09:59:02Z</time>
      </trkpt>
      <trkpt lat="43.69905" lon="1.32007">
        <ele>164.6</ele>
        <time>2024-07-11T09:59:03Z</time>
      </trkpt>
      <trkpt lat="43.69898" lon="1.32011">
        <ele>164.6</ele>
        <time>2024-07-11T09:59:04Z</time>
      </trkpt>
      <trkpt lat="43.69891" lon="1.32014">
        <ele>164.6</ele>
        <time>2024-07-11T09:59:05Z</time>
      </trkpt>
      <trkpt lat="43.69891" lon="1.32014">
        <ele>164.6</ele>
        <time>2024-07-11T09:59:06Z</time>
      </trkpt>
      <trkpt lat="43.69877" lon="1.32021">
        <ele>164.6</ele>
        <time>2024-07-11T09:59:07Z</time>
      </trkpt>
      <trkpt lat="43.6987" lon="1.32025">
        <ele>164.6</ele>
        <time>2024-07-11T09:59:08Z</time>
      </trkpt>
      <trkpt lat="43.69863" lon="1.32029">
        <ele>164.6</ele>
        <time>2024-07-11T09:59:09Z</time>
      </trkpt>
      <trkpt lat="43.69856" lon="1.32032">
        <ele>164.6</ele>
        <time>2024-07-11T09:59:10Z</time>
      </trkpt>
      <trkpt lat="43.69856" lon="1.32032">
        <ele>164.6</ele>
        <time>2024-07-11T09:59:11Z</time>
      </trkpt>
      <trkpt lat="43.69842" lon="1.32039">
        <ele>164.6</ele>
        <time>2024-07-11T09:59:12Z</time>
      </trkpt>
      <trkpt lat="43.69835" lon="1.32043">
        <ele>164.6</ele>
        <time>2024-07-11T09:59:13Z</time>
      </trkpt>
      <trkpt lat="43.69828" lon="1.32046">
        <ele>164.6</ele>
        <time>2024-07-11T09:59:14Z</time>
      </trkpt>
      <trkpt lat="43.69821" lon="1.32049">
        <ele>164.6</ele>
        <time>2024-07-11T09:59:15Z</time>
      </trkpt>
      <trkpt lat="43.69821" lon="1.32049">
        <ele>164.6</ele>
        <time>2024-07-11T09:59:16Z</time>
      </trkpt>
      <trkpt lat="43.69807" lon="1.32052">
        <ele>164.6</ele>
        <time>2024-07-11T09:59:17Z</time>
      </trkpt>
      <trkpt lat="43.69799" lon="1.32053">
        <ele>164.6</ele>
        <time>2024-07-11T09:59:18Z</time>
      </trkpt>
      <trkpt lat="43.69792" lon="1.32052">
        <ele>164.6</ele>
        <time>2024-07-11T09:59:19Z</time>
      </trkpt>
      <trkpt lat="43.69784" lon="1.32051">
        <ele>164.6</ele>
        <time>2024-07-11T09:59:20Z</time>
      </trkpt>
      <trkpt lat="43.69784" lon="1.32051">
        <ele>164.6</ele>
        <time>2024-07-11T09:59:21Z</time>
      </trkpt>
      <trkpt lat="43.69768" lon="1.32047">
        <ele>164.6</ele>
        <time>2024-07-11T09:59:22Z</time>
      </trkpt>
      <trkpt lat="43.69761" lon="1.32045">
        <ele>164.8</ele>
        <time>2024-07-11T09:59:23Z</time>
      </trkpt>
      <trkpt lat="43.69755" lon="1.32042">
        <ele>164.8</ele>
        <time>2024-07-11T09:59:24Z</time>
      </trkpt>
      <trkpt lat="43.69747" lon="1.32039">
        <ele>164.8</ele>
        <time>2024-07-11T09:59:25Z</time>
      </trkpt>
      <trkpt lat="43.69738" lon="1.32035">
        <ele>164.8</ele>
        <time>2024-07-11T09:59:26Z</time>
      </trkpt>
      <trkpt lat="43.69731" lon="1.32031">
        <ele>164.8</ele>
        <time>2024-07-11T09:59:27Z</time>
      </trkpt>
      <trkpt lat="43.69724" lon="1.32027">
        <ele>164.8</ele>
        <time>2024-07-11T09:59:28Z</time>
      </trkpt>
      <trkpt lat="43.69718" lon="1.32024">
        <ele>164.8</ele>
        <time>2024-07-11T09:59:29Z</time>
      </trkpt>
      <trkpt lat="43.69711" lon="1.3202">
        <ele>164.8</ele>
        <time>2024-07-11T09:59:30Z</time>
      </trkpt>
      <trkpt lat="43.69702" lon="1.32015">
        <ele>164.8</ele>
        <time>2024-07-11T09:59:31Z</time>
      </trkpt>
      <trkpt lat="43.69695" lon="1.32011">
        <ele>165</ele>
        <time>2024-07-11T09:59:32Z</time>
      </trkpt>
      <trkpt lat="43.69695" lon="1.32011">
        <ele>165.2</ele>
        <time>2024-07-11T09:59:33Z</time>
      </trkpt>
      <trkpt lat="43.69681" lon="1.32005">
        <ele>165.4</ele>
        <time>2024-07-11T09:59:34Z</time>
      </trkpt>
      <trkpt lat="43.69674" lon="1.32002">
        <ele>165.4</ele>
        <time>2024-07-11T09:59:35Z</time>
      </trkpt>
      <trkpt lat="43.69666" lon="1.31999">
        <ele>165.6</ele>
        <time>2024-07-11T09:59:36Z</time>
      </trkpt>
      <trkpt lat="43.69656" lon="1.31996">
        <ele>165.6</ele>
        <time>2024-07-11T09:59:37Z</time>
      </trkpt>
      <trkpt lat="43.69656" lon="1.31996">
        <ele>165.8</ele>
        <time>2024-07-11T09:59:38Z</time>
      </trkpt>
      <trkpt lat="43.69642" lon="1.31993">
        <ele>165.8</ele>
        <time>2024-07-11T09:59:39Z</time>
      </trkpt>
      <trkpt lat="43.69634" lon="1.31991">
        <ele>165.8</ele>
        <time>2024-07-11T09:59:40Z</time>
      </trkpt>
      <trkpt lat="43.69634" lon="1.31991">
        <ele>165.8</ele>
        <time>2024-07-11T09:59:41Z</time>
      </trkpt>
      <trkpt lat="43.69618" lon="1.31989">
        <ele>165.8</ele>
        <time>2024-07-11T09:59:42Z</time>
      </trkpt>
      <trkpt lat="43.69608" lon="1.31988">
        <ele>165.8</ele>
        <time>2024-07-11T09:59:43Z</time>
      </trkpt>
      <trkpt lat="43.69602" lon="1.31987">
        <ele>165.8</ele>
        <time>2024-07-11T09:59:44Z</time>
      </trkpt>
      <trkpt lat="43.69594" lon="1.31987">
        <ele>165.8</ele>
        <time>2024-07-11T09:59:45Z</time>
      </trkpt>
      <trkpt lat="43.69594" lon="1.31987">
        <ele>165.8</ele>
        <time>2024-07-11T09:59:46Z</time>
      </trkpt>
      <trkpt lat="43.69577" lon="1.31986">
        <ele>165.8</ele>
        <time>2024-07-11T09:59:47Z</time>
      </trkpt>
      <trkpt lat="43.6957" lon="1.31986">
        <ele>165.8</ele>
        <time>2024-07-11T09:59:48Z</time>
      </trkpt>
      <trkpt lat="43.69562" lon="1.31986">
        <ele>165.8</ele>
        <time>2024-07-11T09:59:49Z</time>
      </trkpt>
      <trkpt lat="43.69554" lon="1.31986">
        <ele>166</ele>
        <time>2024-07-11T09:59:50Z</time>
      </trkpt>
      <trkpt lat="43.69554" lon="1.31986">
        <ele>166</ele>
        <time>2024-07-11T09:59:51Z</time>
      </trkpt>
      <trkpt lat="43.69538" lon="1.31986">
        <ele>166</ele>
        <time>2024-07-11T09:59:52Z</time>
      </trkpt>
      <trkpt lat="43.69531" lon="1.31987">
        <ele>166</ele>
        <time>2024-07-11T09:59:53Z</time>
      </trkpt>
      <trkpt lat="43.69523" lon="1.31987">
        <ele>166.2</ele>
        <time>2024-07-11T09:59:54Z</time>
      </trkpt>
      <trkpt lat="43.69515" lon="1.31987">
        <ele>166.2</ele>
        <time>2024-07-11T09:59:55Z</time>
      </trkpt>
      <trkpt lat="43.69508" lon="1.31987">
        <ele>166.2</ele>
        <time>2024-07-11T09:59:56Z</time>
      </trkpt>
      <trkpt lat="43.695" lon="1.31987">
        <ele>166.2</ele>
        <time>2024-07-11T09:59:57Z</time>
      </trkpt>
      <trkpt lat="43.69493" lon="1.31987">
        <ele>166.2</ele>
        <time>2024-07-11T09:59:58Z</time>
      </trkpt>
      <trkpt lat="43.69485" lon="1.31987">
        <ele>166.2</ele>
        <time>2024-07-11T09:59:59Z</time>
      </trkpt>
      <trkpt lat="43.69485" lon="1.31987">
        <ele>166.2</ele>
        <time>2024-07-11T10:00:00Z</time>
      </trkpt>
      <trkpt lat="43.69477" lon="1.31988">
        <ele>166.2</ele>
        <time>2024-07-11T10:00:01Z</time>
      </trkpt>
      <trkpt lat="43.69462" lon="1.31988">
        <ele>166.4</ele>
        <time>2024-07-11T10:00:02Z</time>
      </trkpt>
      <trkpt lat="43.69454" lon="1.31989">
        <ele>166.4</ele>
        <time>2024-07-11T10:00:03Z</time>
      </trkpt>
      <trkpt lat="43.69447" lon="1.31989">
        <ele>166.6</ele>
        <time>2024-07-11T10:00:04Z</time>
      </trkpt>
      <trkpt lat="43.69439" lon="1.31989">
        <ele>166.6</ele>
        <time>2024-07-11T10:00:05Z</time>
      </trkpt>
      <trkpt lat="43.69431" lon="1.31989">
        <ele>166.6</ele>
        <time>2024-07-11T10:00:06Z</time>
      </trkpt>
      <trkpt lat="43.69423" lon="1.3199">
        <ele>166.6</ele>
        <time>2024-07-11T10:00:07Z</time>
      </trkpt>
      <trkpt lat="43.69415" lon="1.3199">
        <ele>166.6</ele>
        <time>2024-07-11T10:00:08Z</time>
      </trkpt>
      <trkpt lat="43.69415" lon="1.3199">
        <ele>166.6</ele>
        <time>2024-07-11T10:00:09Z</time>
      </trkpt>
      <trkpt lat="43.694" lon="1.31991">
        <ele>166.6</ele>
        <time>2024-07-11T10:00:10Z</time>
      </trkpt>
      <trkpt lat="43.694" lon="1.31991">
        <ele>166.8</ele>
        <time>2024-07-11T10:00:11Z</time>
      </trkpt>
      <trkpt lat="43.69384" lon="1.31992">
        <ele>166.8</ele>
        <time>2024-07-11T10:00:12Z</time>
      </trkpt>
      <trkpt lat="43.69376" lon="1.31992">
        <ele>166.8</ele>
        <time>2024-07-11T10:00:13Z</time>
      </trkpt>
      <trkpt lat="43.69368" lon="1.31993">
        <ele>167</ele>
        <time>2024-07-11T10:00:14Z</time>
      </trkpt>
      <trkpt lat="43.6936" lon="1.31993">
        <ele>167</ele>
        <time>2024-07-11T10:00:15Z</time>
      </trkpt>
      <trkpt lat="43.69353" lon="1.31993">
        <ele>166.8</ele>
        <time>2024-07-11T10:00:16Z</time>
      </trkpt>
      <trkpt lat="43.69345" lon="1.31993">
        <ele>166.8</ele>
        <time>2024-07-11T10:00:17Z</time>
      </trkpt>
      <trkpt lat="43.69337" lon="1.31994">
        <ele>166.8</ele>
        <time>2024-07-11T10:00:18Z</time>
      </trkpt>
      <trkpt lat="43.6933" lon="1.31995">
        <ele>166.8</ele>
        <time>2024-07-11T10:00:19Z</time>
      </trkpt>
      <trkpt lat="43.69322" lon="1.31995">
        <ele>166.8</ele>
        <time>2024-07-11T10:00:20Z</time>
      </trkpt>
      <trkpt lat="43.69322" lon="1.31995">
        <ele>166.8</ele>
        <time>2024-07-11T10:00:21Z</time>
      </trkpt>
      <trkpt lat="43.69307" lon="1.31996">
        <ele>166.8</ele>
        <time>2024-07-11T10:00:22Z</time>
      </trkpt>
      <trkpt lat="43.69299" lon="1.31996">
        <ele>166.8</ele>
        <time>2024-07-11T10:00:23Z</time>
      </trkpt>
      <trkpt lat="43.69292" lon="1.31997">
        <ele>167</ele>
        <time>2024-07-11T10:00:24Z</time>
      </trkpt>
      <trkpt lat="43.69284" lon="1.31998">
        <ele>167</ele>
        <time>2024-07-11T10:00:25Z</time>
      </trkpt>
      <trkpt lat="43.69276" lon="1.31998">
        <ele>167</ele>
        <time>2024-07-11T10:00:26Z</time>
      </trkpt>
      <trkpt lat="43.69269" lon="1.31999">
        <ele>167.2</ele>
        <time>2024-07-11T10:00:27Z</time>
      </trkpt>
      <trkpt lat="43.69261" lon="1.31999">
        <ele>167.2</ele>
        <time>2024-07-11T10:00:28Z</time>
      </trkpt>
      <trkpt lat="43.69261" lon="1.31999">
        <ele>167.2</ele>
        <time>2024-07-11T10:00:29Z</time>
      </trkpt>
      <trkpt lat="43.69253" lon="1.31999">
        <ele>167.4</ele>
        <time>2024-07-11T10:00:30Z</time>
      </trkpt>
      <trkpt lat="43.69238" lon="1.32001">
        <ele>167.4</ele>
        <time>2024-07-11T10:00:31Z</time>
      </trkpt>
      <trkpt lat="43.6923" lon="1.32001">
        <ele>167.4</ele>
        <time>2024-07-11T10:00:32Z</time>
      </trkpt>
      <trkpt lat="43.69222" lon="1.32002">
        <ele>167.4</ele>
        <time>2024-07-11T10:00:33Z</time>
      </trkpt>
      <trkpt lat="43.69215" lon="1.32002">
        <ele>167.4</ele>
        <time>2024-07-11T10:00:34Z</time>
      </trkpt>
      <trkpt lat="43.69207" lon="1.32002">
        <ele>167.4</ele>
        <time>2024-07-11T10:00:35Z</time>
      </trkpt>
      <trkpt lat="43.69198" lon="1.32003">
        <ele>167.4</ele>
        <time>2024-07-11T10:00:36Z</time>
      </trkpt>
      <trkpt lat="43.6919" lon="1.32003">
        <ele>167.4</ele>
        <time>2024-07-11T10:00:37Z</time>
      </trkpt>
      <trkpt lat="43.69182" lon="1.32003">
        <ele>167.6</ele>
        <time>2024-07-11T10:00:38Z</time>
      </trkpt>
      <trkpt lat="43.69175" lon="1.32002">
        <ele>167.6</ele>
        <time>2024-07-11T10:00:39Z</time>
      </trkpt>
      <trkpt lat="43.69169" lon="1.32002">
        <ele>167.6</ele>
        <time>2024-07-11T10:00:40Z</time>
      </trkpt>
      <trkpt lat="43.69161" lon="1.32">
        <ele>167.8</ele>
        <time>2024-07-11T10:00:41Z</time>
      </trkpt>
      <trkpt lat="43.69161" lon="1.32">
        <ele>167.8</ele>
        <time>2024-07-11T10:00:42Z</time>
      </trkpt>
      <trkpt lat="43.69144" lon="1.31997">
        <ele>167.8</ele>
        <time>2024-07-11T10:00:43Z</time>
      </trkpt>
      <trkpt lat="43.69137" lon="1.31996">
        <ele>167.8</ele>
        <time>2024-07-11T10:00:44Z</time>
      </trkpt>
      <trkpt lat="43.69131" lon="1.31995">
        <ele>167.8</ele>
        <time>2024-07-11T10:00:45Z</time>
      </trkpt>
      <trkpt lat="43.69123" lon="1.31993">
        <ele>167.8</ele>
        <time>2024-07-11T10:00:46Z</time>
      </trkpt>
      <trkpt lat="43.69123" lon="1.31993">
        <ele>167.8</ele>
        <time>2024-07-11T10:00:47Z</time>
      </trkpt>
      <trkpt lat="43.69107" lon="1.31989">
        <ele>167.8</ele>
        <time>2024-07-11T10:00:48Z</time>
      </trkpt>
      <trkpt lat="43.69099" lon="1.31987">
        <ele>167.8</ele>
        <time>2024-07-11T10:00:49Z</time>
      </trkpt>
      <trkpt lat="43.69092" lon="1.31986">
        <ele>167.8</ele>
        <time>2024-07-11T10:00:50Z</time>
      </trkpt>
      <trkpt lat="43.69086" lon="1.31984">
        <ele>168</ele>
        <time>2024-07-11T10:00:51Z</time>
      </trkpt>
      <trkpt lat="43.69078" lon="1.31982">
        <ele>168</ele>
        <time>2024-07-11T10:00:52Z</time>
      </trkpt>
      <trkpt lat="43.69069" lon="1.3198">
        <ele>168</ele>
        <time>2024-07-11T10:00:53Z</time>
      </trkpt>
      <trkpt lat="43.69061" lon="1.31979">
        <ele>168</ele>
        <time>2024-07-11T10:00:54Z</time>
      </trkpt>
      <trkpt lat="43.69054" lon="1.31977">
        <ele>168</ele>
        <time>2024-07-11T10:00:55Z</time>
      </trkpt>
      <trkpt lat="43.69048" lon="1.31976">
        <ele>168</ele>
        <time>2024-07-11T10:00:56Z</time>
      </trkpt>
      <trkpt lat="43.6904" lon="1.31975">
        <ele>168</ele>
        <time>2024-07-11T10:00:57Z</time>
      </trkpt>
      <trkpt lat="43.6904" lon="1.31975">
        <ele>168</ele>
        <time>2024-07-11T10:00:58Z</time>
      </trkpt>
      <trkpt lat="43.69023" lon="1.31974">
        <ele>168</ele>
        <time>2024-07-11T10:00:59Z</time>
      </trkpt>
      <trkpt lat="43.69016" lon="1.31974">
        <ele>168</ele>
        <time>2024-07-11T10:01:00Z</time>
      </trkpt>
      <trkpt lat="43.6901" lon="1.31975">
        <ele>168</ele>
        <time>2024-07-11T10:01:01Z</time>
      </trkpt>
      <trkpt lat="43.6901" lon="1.31975">
        <ele>168</ele>
        <time>2024-07-11T10:01:02Z</time>
      </trkpt>
      <trkpt lat="43.68995" lon="1.31977">
        <ele>168.2</ele>
        <time>2024-07-11T10:01:03Z</time>
      </trkpt>
      <trkpt lat="43.68986" lon="1.31979">
        <ele>168.2</ele>
        <time>2024-07-11T10:01:04Z</time>
      </trkpt>
      <trkpt lat="43.68979" lon="1.31982">
        <ele>168.2</ele>
        <time>2024-07-11T10:01:05Z</time>
      </trkpt>
      <trkpt lat="43.68972" lon="1.31984">
        <ele>168.2</ele>
        <time>2024-07-11T10:01:06Z</time>
      </trkpt>
      <trkpt lat="43.68966" lon="1.31986">
        <ele>168.2</ele>
        <time>2024-07-11T10:01:07Z</time>
      </trkpt>
      <trkpt lat="43.68959" lon="1.31989">
        <ele>168.4</ele>
        <time>2024-07-11T10:01:08Z</time>
      </trkpt>
      <trkpt lat="43.6895" lon="1.31992">
        <ele>168.4</ele>
        <time>2024-07-11T10:01:09Z</time>
      </trkpt>
      <trkpt lat="43.68943" lon="1.31995">
        <ele>168.4</ele>
        <time>2024-07-11T10:01:10Z</time>
      </trkpt>
      <trkpt lat="43.68935" lon="1.31998">
        <ele>168.4</ele>
        <time>2024-07-11T10:01:11Z</time>
      </trkpt>
      <trkpt lat="43.6893" lon="1.32001">
        <ele>168.4</ele>
        <time>2024-07-11T10:01:12Z</time>
      </trkpt>
      <trkpt lat="43.68923" lon="1.32004">
        <ele>168.4</ele>
        <time>2024-07-11T10:01:13Z</time>
      </trkpt>
      <trkpt lat="43.68923" lon="1.32004">
        <ele>168.4</ele>
        <time>2024-07-11T10:01:14Z</time>
      </trkpt>
      <trkpt lat="43.68906" lon="1.3201">
        <ele>168.4</ele>
        <time>2024-07-11T10:01:15Z</time>
      </trkpt>
      <trkpt lat="43.68899" lon="1.32013">
        <ele>168.4</ele>
        <time>2024-07-11T10:01:16Z</time>
      </trkpt>
      <trkpt lat="43.68899" lon="1.32013">
        <ele>168.4</ele>
        <time>2024-07-11T10:01:17Z</time>
      </trkpt>
      <trkpt lat="43.68886" lon="1.32018">
        <ele>168.4</ele>
        <time>2024-07-11T10:01:18Z</time>
      </trkpt>
      <trkpt lat="43.68886" lon="1.32018">
        <ele>168.4</ele>
        <time>2024-07-11T10:01:19Z</time>
      </trkpt>
      <trkpt lat="43.68871" lon="1.32025">
        <ele>168.4</ele>
        <time>2024-07-11T10:01:20Z</time>
      </trkpt>
      <trkpt lat="43.68863" lon="1.32027">
        <ele>168.4</ele>
        <time>2024-07-11T10:01:21Z</time>
      </trkpt>
      <trkpt lat="43.68858" lon="1.32029">
        <ele>168.4</ele>
        <time>2024-07-11T10:01:22Z</time>
      </trkpt>
      <trkpt lat="43.68851" lon="1.32032">
        <ele>168.4</ele>
        <time>2024-07-11T10:01:23Z</time>
      </trkpt>
      <trkpt lat="43.68851" lon="1.32032">
        <ele>168.4</ele>
        <time>2024-07-11T10:01:24Z</time>
      </trkpt>
      <trkpt lat="43.68835" lon="1.32035">
        <ele>168.4</ele>
        <time>2024-07-11T10:01:25Z</time>
      </trkpt>
      <trkpt lat="43.68829" lon="1.32035">
        <ele>168.4</ele>
        <time>2024-07-11T10:01:26Z</time>
      </trkpt>
      <trkpt lat="43.68823" lon="1.32034">
        <ele>168.4</ele>
        <time>2024-07-11T10:01:27Z</time>
      </trkpt>
      <trkpt lat="43.68818" lon="1.32032">
        <ele>168.4</ele>
        <time>2024-07-11T10:01:28Z</time>
      </trkpt>
      <trkpt lat="43.68812" lon="1.32029">
        <ele>168.6</ele>
        <time>2024-07-11T10:01:29Z</time>
      </trkpt>
      <trkpt lat="43.68807" lon="1.32029">
        <ele>168.6</ele>
        <time>2024-07-11T10:01:30Z</time>
      </trkpt>
      <trkpt lat="43.68801" lon="1.32033">
        <ele>168.6</ele>
        <time>2024-07-11T10:01:31Z</time>
      </trkpt>
      <trkpt lat="43.68798" lon="1.32036">
        <ele>168.6</ele>
        <time>2024-07-11T10:01:32Z</time>
      </trkpt>
      <trkpt lat="43.68795" lon="1.32041">
        <ele>168.6</ele>
        <time>2024-07-11T10:01:33Z</time>
      </trkpt>
      <trkpt lat="43.68791" lon="1.32046">
        <ele>168.8</ele>
        <time>2024-07-11T10:01:34Z</time>
      </trkpt>
      <trkpt lat="43.68791" lon="1.32046">
        <ele>168.8</ele>
        <time>2024-07-11T10:01:35Z</time>
      </trkpt>
      <trkpt lat="43.68783" lon="1.32054">
        <ele>168.8</ele>
        <time>2024-07-11T10:01:36Z</time>
      </trkpt>
      <trkpt lat="43.68779" lon="1.32057">
        <ele>168.8</ele>
        <time>2024-07-11T10:01:37Z</time>
      </trkpt>
      <trkpt lat="43.68774" lon="1.3206">
        <ele>168.8</ele>
        <time>2024-07-11T10:01:38Z</time>
      </trkpt>
      <trkpt lat="43.68768" lon="1.32063">
        <ele>168.8</ele>
        <time>2024-07-11T10:01:39Z</time>
      </trkpt>
      <trkpt lat="43.68762" lon="1.32065">
        <ele>168.8</ele>
        <time>2024-07-11T10:01:40Z</time>
      </trkpt>
      <trkpt lat="43.68756" lon="1.32068">
        <ele>168.8</ele>
        <time>2024-07-11T10:01:41Z</time>
      </trkpt>
      <trkpt lat="43.6875" lon="1.3207">
        <ele>168.8</ele>
        <time>2024-07-11T10:01:42Z</time>
      </trkpt>
      <trkpt lat="43.68744" lon="1.32073">
        <ele>168.6</ele>
        <time>2024-07-11T10:01:43Z</time>
      </trkpt>
      <trkpt lat="43.68738" lon="1.32075">
        <ele>168.6</ele>
        <time>2024-07-11T10:01:44Z</time>
      </trkpt>
      <trkpt lat="43.68732" lon="1.32077">
        <ele>168.6</ele>
        <time>2024-07-11T10:01:45Z</time>
      </trkpt>
      <trkpt lat="43.68727" lon="1.32079">
        <ele>168.6</ele>
        <time>2024-07-11T10:01:46Z</time>
      </trkpt>
      <trkpt lat="43.68721" lon="1.32082">
        <ele>168.6</ele>
        <time>2024-07-11T10:01:47Z</time>
      </trkpt>
      <trkpt lat="43.68715" lon="1.32084">
        <ele>168.6</ele>
        <time>2024-07-11T10:01:48Z</time>
      </trkpt>
      <trkpt lat="43.68709" lon="1.32086">
        <ele>168.6</ele>
        <time>2024-07-11T10:01:49Z</time>
      </trkpt>
      <trkpt lat="43.68703" lon="1.32088">
        <ele>168.6</ele>
        <time>2024-07-11T10:01:50Z</time>
      </trkpt>
      <trkpt lat="43.68703" lon="1.32088">
        <ele>168.6</ele>
        <time>2024-07-11T10:01:51Z</time>
      </trkpt>
      <trkpt lat="43.6869" lon="1.32092">
        <ele>168.6</ele>
        <time>2024-07-11T10:01:52Z</time>
      </trkpt>
      <trkpt lat="43.68684" lon="1.32095">
        <ele>168.6</ele>
        <time>2024-07-11T10:01:53Z</time>
      </trkpt>
      <trkpt lat="43.68677" lon="1.32097">
        <ele>168.6</ele>
        <time>2024-07-11T10:01:54Z</time>
      </trkpt>
      <trkpt lat="43.68671" lon="1.32099">
        <ele>168.8</ele>
        <time>2024-07-11T10:01:55Z</time>
      </trkpt>
      <trkpt lat="43.68664" lon="1.32101">
        <ele>168.8</ele>
        <time>2024-07-11T10:01:56Z</time>
      </trkpt>
      <trkpt lat="43.68657" lon="1.32104">
        <ele>168.8</ele>
        <time>2024-07-11T10:01:57Z</time>
      </trkpt>
      <trkpt lat="43.6865" lon="1.32106">
        <ele>168.8</ele>
        <time>2024-07-11T10:01:58Z</time>
      </trkpt>
      <trkpt lat="43.68643" lon="1.32109">
        <ele>168.8</ele>
        <time>2024-07-11T10:01:59Z</time>
      </trkpt>
      <trkpt lat="43.68636" lon="1.32111">
        <ele>168.8</ele>
        <time>2024-07-11T10:02:00Z</time>
      </trkpt>
      <trkpt lat="43.68629" lon="1.32114">
        <ele>168.8</ele>
        <time>2024-07-11T10:02:01Z</time>
      </trkpt>
      <trkpt lat="43.68629" lon="1.32114">
        <ele>168.8</ele>
        <time>2024-07-11T10:02:02Z</time>
      </trkpt>
      <trkpt lat="43.68615" lon="1.32119">
        <ele>168.8</ele>
        <time>2024-07-11T10:02:03Z</time>
      </trkpt>
      <trkpt lat="43.68608" lon="1.32121">
        <ele>168.8</ele>
        <time>2024-07-11T10:02:04Z</time>
      </trkpt>
      <trkpt lat="43.68601" lon="1.32124">
        <ele>168.8</ele>
        <time>2024-07-11T10:02:05Z</time>
      </trkpt>
      <trkpt lat="43.68593" lon="1.32128">
        <ele>168.8</ele>
        <time>2024-07-11T10:02:06Z</time>
      </trkpt>
      <trkpt lat="43.68593" lon="1.32128">
        <ele>168.8</ele>
        <time>2024-07-11T10:02:07Z</time>
      </trkpt>
      <trkpt lat="43.68579" lon="1.32133">
        <ele>168.8</ele>
        <time>2024-07-11T10:02:08Z</time>
      </trkpt>
      <trkpt lat="43.68579" lon="1.32133">
        <ele>168.8</ele>
        <time>2024-07-11T10:02:09Z</time>
      </trkpt>
      <trkpt lat="43.68566" lon="1.32131">
        <ele>168.8</ele>
        <time>2024-07-11T10:02:10Z</time>
      </trkpt>
      <trkpt lat="43.6856" lon="1.32131">
        <ele>168.8</ele>
        <time>2024-07-11T10:02:11Z</time>
      </trkpt>
      <trkpt lat="43.68554" lon="1.32134">
        <ele>169</ele>
        <time>2024-07-11T10:02:12Z</time>
      </trkpt>
      <trkpt lat="43.68549" lon="1.32139">
        <ele>169</ele>
        <time>2024-07-11T10:02:13Z</time>
      </trkpt>
      <trkpt lat="43.68544" lon="1.32145">
        <ele>168.8</ele>
        <time>2024-07-11T10:02:14Z</time>
      </trkpt>
      <trkpt lat="43.68539" lon="1.32152">
        <ele>169</ele>
        <time>2024-07-11T10:02:15Z</time>
      </trkpt>
      <trkpt lat="43.68533" lon="1.32155">
        <ele>168.8</ele>
        <time>2024-07-11T10:02:16Z</time>
      </trkpt>
      <trkpt lat="43.68526" lon="1.32157">
        <ele>169</ele>
        <time>2024-07-11T10:02:17Z</time>
      </trkpt>
      <trkpt lat="43.68526" lon="1.32157">
        <ele>168.8</ele>
        <time>2024-07-11T10:02:18Z</time>
      </trkpt>
      <trkpt lat="43.68512" lon="1.32156">
        <ele>168.8</ele>
        <time>2024-07-11T10:02:19Z</time>
      </trkpt>
      <trkpt lat="43.68505" lon="1.32153">
        <ele>169</ele>
        <time>2024-07-11T10:02:20Z</time>
      </trkpt>
      <trkpt lat="43.68498" lon="1.3215">
        <ele>168.8</ele>
        <time>2024-07-11T10:02:21Z</time>
      </trkpt>
      <trkpt lat="43.6849" lon="1.32147">
        <ele>168.8</ele>
        <time>2024-07-11T10:02:22Z</time>
      </trkpt>
      <trkpt lat="43.68483" lon="1.32143">
        <ele>168.8</ele>
        <time>2024-07-11T10:02:23Z</time>
      </trkpt>
      <trkpt lat="43.68476" lon="1.32137">
        <ele>168.8</ele>
        <time>2024-07-11T10:02:24Z</time>
      </trkpt>
      <trkpt lat="43.68471" lon="1.32132">
        <ele>168.6</ele>
        <time>2024-07-11T10:02:25Z</time>
      </trkpt>
      <trkpt lat="43.68464" lon="1.32126">
        <ele>168.6</ele>
        <time>2024-07-11T10:02:26Z</time>
      </trkpt>
      <trkpt lat="43.68458" lon="1.3212">
        <ele>168.6</ele>
        <time>2024-07-11T10:02:27Z</time>
      </trkpt>
      <trkpt lat="43.68451" lon="1.32112">
        <ele>168.6</ele>
        <time>2024-07-11T10:02:28Z</time>
      </trkpt>
      <trkpt lat="43.68444" lon="1.32106">
        <ele>168.6</ele>
        <time>2024-07-11T10:02:29Z</time>
      </trkpt>
      <trkpt lat="43.68438" lon="1.321">
        <ele>168.6</ele>
        <time>2024-07-11T10:02:30Z</time>
      </trkpt>
      <trkpt lat="43.68431" lon="1.32093">
        <ele>168.6</ele>
        <time>2024-07-11T10:02:31Z</time>
      </trkpt>
      <trkpt lat="43.68426" lon="1.32089">
        <ele>168.6</ele>
        <time>2024-07-11T10:02:32Z</time>
      </trkpt>
      <trkpt lat="43.68418" lon="1.32082">
        <ele>168.4</ele>
        <time>2024-07-11T10:02:33Z</time>
      </trkpt>
      <trkpt lat="43.68418" lon="1.32082">
        <ele>168.2</ele>
        <time>2024-07-11T10:02:34Z</time>
      </trkpt>
      <trkpt lat="43.68403" lon="1.32073">
        <ele>168.2</ele>
        <time>2024-07-11T10:02:35Z</time>
      </trkpt>
      <trkpt lat="43.68397" lon="1.32068">
        <ele>168.2</ele>
        <time>2024-07-11T10:02:36Z</time>
      </trkpt>
      <trkpt lat="43.6839" lon="1.32064">
        <ele>168.2</ele>
        <time>2024-07-11T10:02:37Z</time>
      </trkpt>
      <trkpt lat="43.68384" lon="1.32058">
        <ele>168.2</ele>
        <time>2024-07-11T10:02:38Z</time>
      </trkpt>
      <trkpt lat="43.6838" lon="1.32052">
        <ele>168.2</ele>
        <time>2024-07-11T10:02:39Z</time>
      </trkpt>
      <trkpt lat="43.68374" lon="1.32044">
        <ele>168.2</ele>
        <time>2024-07-11T10:02:40Z</time>
      </trkpt>
      <trkpt lat="43.68369" lon="1.32037">
        <ele>168.2</ele>
        <time>2024-07-11T10:02:41Z</time>
      </trkpt>
      <trkpt lat="43.68363" lon="1.32031">
        <ele>168.2</ele>
        <time>2024-07-11T10:02:42Z</time>
      </trkpt>
      <trkpt lat="43.68358" lon="1.32026">
        <ele>168.2</ele>
        <time>2024-07-11T10:02:43Z</time>
      </trkpt>
      <trkpt lat="43.68352" lon="1.3202">
        <ele>168.2</ele>
        <time>2024-07-11T10:02:44Z</time>
      </trkpt>
      <trkpt lat="43.68345" lon="1.32013">
        <ele>168.2</ele>
        <time>2024-07-11T10:02:45Z</time>
      </trkpt>
      <trkpt lat="43.68341" lon="1.32006">
        <ele>168.2</ele>
        <time>2024-07-11T10:02:46Z</time>
      </trkpt>
      <trkpt lat="43.68336" lon="1.32001">
        <ele>168.2</ele>
        <time>2024-07-11T10:02:47Z</time>
      </trkpt>
      <trkpt lat="43.68332" lon="1.31999">
        <ele>168.2</ele>
        <time>2024-07-11T10:02:48Z</time>
      </trkpt>
      <trkpt lat="43.68327" lon="1.31999">
        <ele>168.2</ele>
        <time>2024-07-11T10:02:49Z</time>
      </trkpt>
      <trkpt lat="43.68324" lon="1.32003">
        <ele>168.4</ele>
        <time>2024-07-11T10:02:50Z</time>
      </trkpt>
      <trkpt lat="43.68322" lon="1.32007">
        <ele>168.4</ele>
        <time>2024-07-11T10:02:51Z</time>
      </trkpt>
      <trkpt lat="43.68321" lon="1.3201">
        <ele>168.4</ele>
        <time>2024-07-11T10:02:52Z</time>
      </trkpt>
      <trkpt lat="43.6832" lon="1.32013">
        <ele>168.6</ele>
        <time>2024-07-11T10:02:53Z</time>
      </trkpt>
      <trkpt lat="43.68318" lon="1.32015">
        <ele>168.8</ele>
        <time>2024-07-11T10:02:54Z</time>
      </trkpt>
      <trkpt lat="43.68315" lon="1.32017">
        <ele>169</ele>
        <time>2024-07-11T10:02:55Z</time>
      </trkpt>
      <trkpt lat="43.68312" lon="1.32018">
        <ele>169.2</ele>
        <time>2024-07-11T10:02:56Z</time>
      </trkpt>
      <trkpt lat="43.68309" lon="1.32019">
        <ele>169.2</ele>
        <time>2024-07-11T10:02:57Z</time>
      </trkpt>
      <trkpt lat="43.68305" lon="1.3202">
        <ele>169.2</ele>
        <time>2024-07-11T10:02:58Z</time>
      </trkpt>
      <trkpt lat="43.68301" lon="1.32021">
        <ele>169.4</ele>
        <time>2024-07-11T10:02:59Z</time>
      </trkpt>
      <trkpt lat="43.68297" lon="1.32022">
        <ele>169.4</ele>
        <time>2024-07-11T10:03:00Z</time>
      </trkpt>
      <trkpt lat="43.68292" lon="1.32023">
        <ele>169.4</ele>
        <time>2024-07-11T10:03:01Z</time>
      </trkpt>
      <trkpt lat="43.68288" lon="1.32023">
        <ele>169.4</ele>
        <time>2024-07-11T10:03:02Z</time>
      </trkpt>
      <trkpt lat="43.68283" lon="1.32024">
        <ele>169.4</ele>
        <time>2024-07-11T10:03:03Z</time>
      </trkpt>
      <trkpt lat="43.68278" lon="1.32025">
        <ele>169.6</ele>
        <time>2024-07-11T10:03:04Z</time>
      </trkpt>
      <trkpt lat="43.68273" lon="1.32026">
        <ele>169.6</ele>
        <time>2024-07-11T10:03:05Z</time>
      </trkpt>
      <trkpt lat="43.68269" lon="1.32029">
        <ele>169.6</ele>
        <time>2024-07-11T10:03:06Z</time>
      </trkpt>
      <trkpt lat="43.68264" lon="1.32033">
        <ele>169.6</ele>
        <time>2024-07-11T10:03:07Z</time>
      </trkpt>
      <trkpt lat="43.68259" lon="1.32036">
        <ele>169.8</ele>
        <time>2024-07-11T10:03:08Z</time>
      </trkpt>
      <trkpt lat="43.68253" lon="1.3204">
        <ele>169.8</ele>
        <time>2024-07-11T10:03:09Z</time>
      </trkpt>
      <trkpt lat="43.68248" lon="1.32045">
        <ele>169.8</ele>
        <time>2024-07-11T10:03:10Z</time>
      </trkpt>
      <trkpt lat="43.68242" lon="1.32049">
        <ele>170</ele>
        <time>2024-07-11T10:03:11Z</time>
      </trkpt>
      <trkpt lat="43.68236" lon="1.32054">
        <ele>170</ele>
        <time>2024-07-11T10:03:12Z</time>
      </trkpt>
      <trkpt lat="43.68229" lon="1.32058">
        <ele>170</ele>
        <time>2024-07-11T10:03:13Z</time>
      </trkpt>
      <trkpt lat="43.68224" lon="1.32062">
        <ele>170</ele>
        <time>2024-07-11T10:03:14Z</time>
      </trkpt>
      <trkpt lat="43.68224" lon="1.32062">
        <ele>170</ele>
        <time>2024-07-11T10:03:15Z</time>
      </trkpt>
      <trkpt lat="43.68208" lon="1.32073">
        <ele>169.8</ele>
        <time>2024-07-11T10:03:16Z</time>
      </trkpt>
      <trkpt lat="43.68201" lon="1.32079">
        <ele>169.8</ele>
        <time>2024-07-11T10:03:17Z</time>
      </trkpt>
      <trkpt lat="43.68195" lon="1.32084">
        <ele>169.6</ele>
        <time>2024-07-11T10:03:18Z</time>
      </trkpt>
      <trkpt lat="43.68195" lon="1.32084">
        <ele>169.4</ele>
        <time>2024-07-11T10:03:19Z</time>
      </trkpt>
      <trkpt lat="43.68188" lon="1.3209">
        <ele>169.2</ele>
        <time>2024-07-11T10:03:20Z</time>
      </trkpt>
      <trkpt lat="43.68171" lon="1.32107">
        <ele>169.2</ele>
        <time>2024-07-11T10:03:21Z</time>
      </trkpt>
      <trkpt lat="43.68163" lon="1.32117">
        <ele>168.4</ele>
        <time>2024-07-11T10:03:22Z</time>
      </trkpt>
      <trkpt lat="43.68156" lon="1.32127">
        <ele>168</ele>
        <time>2024-07-11T10:03:23Z</time>
      </trkpt>
      <trkpt lat="43.6815" lon="1.32139">
        <ele>167.8</ele>
        <time>2024-07-11T10:03:24Z</time>
      </trkpt>
      <trkpt lat="43.68143" lon="1.32151">
        <ele>167.2</ele>
        <time>2024-07-11T10:03:25Z</time>
      </trkpt>
      <trkpt lat="43.68135" lon="1.32163">
        <ele>166.6</ele>
        <time>2024-07-11T10:03:26Z</time>
      </trkpt>
      <trkpt lat="43.68128" lon="1.32175">
        <ele>166.2</ele>
        <time>2024-07-11T10:03:27Z</time>
      </trkpt>
      <trkpt lat="43.6812" lon="1.32188">
        <ele>164.8</ele>
        <time>2024-07-11T10:03:28Z</time>
      </trkpt>
      <trkpt lat="43.68114" lon="1.32197">
        <ele>164</ele>
        <time>2024-07-11T10:03:29Z</time>
      </trkpt>
      <trkpt lat="43.68106" lon="1.3221">
        <ele>163</ele>
        <time>2024-07-11T10:03:30Z</time>
      </trkpt>
      <trkpt lat="43.68106" lon="1.3221">
        <ele>162.8</ele>
        <time>2024-07-11T10:03:31Z</time>
      </trkpt>
      <trkpt lat="43.68094" lon="1.32232">
        <ele>161.4</ele>
        <time>2024-07-11T10:03:32Z</time>
      </trkpt>
      <trkpt lat="43.68087" lon="1.32243">
        <ele>160.6</ele>
        <time>2024-07-11T10:03:33Z</time>
      </trkpt>
      <trkpt lat="43.68081" lon="1.32253">
        <ele>160.4</ele>
        <time>2024-07-11T10:03:34Z</time>
      </trkpt>
      <trkpt lat="43.68075" lon="1.32263">
        <ele>160</ele>
        <time>2024-07-11T10:03:35Z</time>
      </trkpt>
      <trkpt lat="43.68068" lon="1.32271">
        <ele>159.8</ele>
        <time>2024-07-11T10:03:36Z</time>
      </trkpt>
      <trkpt lat="43.68061" lon="1.32279">
        <ele>159.6</ele>
        <time>2024-07-11T10:03:37Z</time>
      </trkpt>
      <trkpt lat="43.68054" lon="1.32285">
        <ele>159.6</ele>
        <time>2024-07-11T10:03:38Z</time>
      </trkpt>
      <trkpt lat="43.68054" lon="1.32285">
        <ele>159.4</ele>
        <time>2024-07-11T10:03:39Z</time>
      </trkpt>
      <trkpt lat="43.6804" lon="1.32297">
        <ele>159.4</ele>
        <time>2024-07-11T10:03:40Z</time>
      </trkpt>
      <trkpt lat="43.68033" lon="1.32303">
        <ele>159.4</ele>
        <time>2024-07-11T10:03:41Z</time>
      </trkpt>
      <trkpt lat="43.68027" lon="1.32307">
        <ele>159.4</ele>
        <time>2024-07-11T10:03:42Z</time>
      </trkpt>
      <trkpt lat="43.6802" lon="1.32312">
        <ele>159.4</ele>
        <time>2024-07-11T10:03:43Z</time>
      </trkpt>
      <trkpt lat="43.68012" lon="1.32317">
        <ele>159.4</ele>
        <time>2024-07-11T10:03:44Z</time>
      </trkpt>
      <trkpt lat="43.68006" lon="1.32321">
        <ele>159.4</ele>
        <time>2024-07-11T10:03:45Z</time>
      </trkpt>
      <trkpt lat="43.68" lon="1.32325">
        <ele>159.4</ele>
        <time>2024-07-11T10:03:46Z</time>
      </trkpt>
      <trkpt lat="43.67993" lon="1.32329">
        <ele>159.6</ele>
        <time>2024-07-11T10:03:47Z</time>
      </trkpt>
      <trkpt lat="43.67987" lon="1.32331">
        <ele>159.6</ele>
        <time>2024-07-11T10:03:48Z</time>
      </trkpt>
      <trkpt lat="43.67981" lon="1.32333">
        <ele>159.8</ele>
        <time>2024-07-11T10:03:49Z</time>
      </trkpt>
      <trkpt lat="43.67976" lon="1.32334">
        <ele>160</ele>
        <time>2024-07-11T10:03:50Z</time>
      </trkpt>
      <trkpt lat="43.6797" lon="1.32335">
        <ele>160.2</ele>
        <time>2024-07-11T10:03:51Z</time>
      </trkpt>
      <trkpt lat="43.67966" lon="1.32336">
        <ele>160.6</ele>
        <time>2024-07-11T10:03:52Z</time>
      </trkpt>
      <trkpt lat="43.6796" lon="1.32336">
        <ele>161</ele>
        <time>2024-07-11T10:03:53Z</time>
      </trkpt>
      <trkpt lat="43.67954" lon="1.32335">
        <ele>161.6</ele>
        <time>2024-07-11T10:03:54Z</time>
      </trkpt>
      <trkpt lat="43.67949" lon="1.32334">
        <ele>162.2</ele>
        <time>2024-07-11T10:03:55Z</time>
      </trkpt>
      <trkpt lat="43.67944" lon="1.32332">
        <ele>162.6</ele>
        <time>2024-07-11T10:03:56Z</time>
      </trkpt>
      <trkpt lat="43.67938" lon="1.32331">
        <ele>163</ele>
        <time>2024-07-11T10:03:57Z</time>
      </trkpt>
      <trkpt lat="43.67933" lon="1.32329">
        <ele>163.2</ele>
        <time>2024-07-11T10:03:58Z</time>
      </trkpt>
      <trkpt lat="43.67927" lon="1.32327">
        <ele>163.6</ele>
        <time>2024-07-11T10:03:59Z</time>
      </trkpt>
      <trkpt lat="43.67922" lon="1.32324">
        <ele>163.8</ele>
        <time>2024-07-11T10:04:00Z</time>
      </trkpt>
      <trkpt lat="43.67916" lon="1.32321">
        <ele>164.2</ele>
        <time>2024-07-11T10:04:01Z</time>
      </trkpt>
      <trkpt lat="43.67911" lon="1.32318">
        <ele>164.4</ele>
        <time>2024-07-11T10:04:02Z</time>
      </trkpt>
      <trkpt lat="43.67906" lon="1.32315">
        <ele>164.4</ele>
        <time>2024-07-11T10:04:03Z</time>
      </trkpt>
      <trkpt lat="43.67899" lon="1.32311">
        <ele>164.6</ele>
        <time>2024-07-11T10:04:04Z</time>
      </trkpt>
      <trkpt lat="43.67893" lon="1.32308">
        <ele>164.8</ele>
        <time>2024-07-11T10:04:05Z</time>
      </trkpt>
      <trkpt lat="43.67887" lon="1.32305">
        <ele>164.8</ele>
        <time>2024-07-11T10:04:06Z</time>
      </trkpt>
      <trkpt lat="43.67882" lon="1.32303">
        <ele>165</ele>
        <time>2024-07-11T10:04:07Z</time>
      </trkpt>
      <trkpt lat="43.67875" lon="1.323">
        <ele>165.2</ele>
        <time>2024-07-11T10:04:08Z</time>
      </trkpt>
      <trkpt lat="43.67869" lon="1.32298">
        <ele>165.2</ele>
        <time>2024-07-11T10:04:09Z</time>
      </trkpt>
      <trkpt lat="43.67862" lon="1.32296">
        <ele>165.2</ele>
        <time>2024-07-11T10:04:10Z</time>
      </trkpt>
      <trkpt lat="43.67855" lon="1.32295">
        <ele>165.2</ele>
        <time>2024-07-11T10:04:11Z</time>
      </trkpt>
      <trkpt lat="43.6785" lon="1.32294">
        <ele>165.2</ele>
        <time>2024-07-11T10:04:12Z</time>
      </trkpt>
      <trkpt lat="43.67842" lon="1.32291">
        <ele>165.2</ele>
        <time>2024-07-11T10:04:13Z</time>
      </trkpt>
      <trkpt lat="43.67836" lon="1.32289">
        <ele>165.2</ele>
        <time>2024-07-11T10:04:14Z</time>
      </trkpt>
      <trkpt lat="43.6783" lon="1.32286">
        <ele>165.2</ele>
        <time>2024-07-11T10:04:15Z</time>
      </trkpt>
      <trkpt lat="43.67823" lon="1.32283">
        <ele>165.2</ele>
        <time>2024-07-11T10:04:16Z</time>
      </trkpt>
      <trkpt lat="43.67817" lon="1.32279">
        <ele>165.2</ele>
        <time>2024-07-11T10:04:17Z</time>
      </trkpt>
      <trkpt lat="43.67811" lon="1.32276">
        <ele>165.2</ele>
        <time>2024-07-11T10:04:18Z</time>
      </trkpt>
      <trkpt lat="43.67811" lon="1.32276">
        <ele>165.2</ele>
        <time>2024-07-11T10:04:19Z</time>
      </trkpt>
      <trkpt lat="43.67798" lon="1.32268">
        <ele>165.2</ele>
        <time>2024-07-11T10:04:20Z</time>
      </trkpt>
      <trkpt lat="43.67793" lon="1.32264">
        <ele>165.2</ele>
        <time>2024-07-11T10:04:21Z</time>
      </trkpt>
      <trkpt lat="43.67786" lon="1.32259">
        <ele>165.2</ele>
        <time>2024-07-11T10:04:22Z</time>
      </trkpt>
      <trkpt lat="43.6778" lon="1.32254">
        <ele>165.2</ele>
        <time>2024-07-11T10:04:23Z</time>
      </trkpt>
      <trkpt lat="43.67775" lon="1.3225">
        <ele>165.2</ele>
        <time>2024-07-11T10:04:24Z</time>
      </trkpt>
      <trkpt lat="43.6777" lon="1.32246">
        <ele>165.4</ele>
        <time>2024-07-11T10:04:25Z</time>
      </trkpt>
      <trkpt lat="43.67764" lon="1.32241">
        <ele>165.4</ele>
        <time>2024-07-11T10:04:26Z</time>
      </trkpt>
      <trkpt lat="43.67758" lon="1.32236">
        <ele>165.6</ele>
        <time>2024-07-11T10:04:27Z</time>
      </trkpt>
      <trkpt lat="43.67751" lon="1.32231">
        <ele>165.8</ele>
        <time>2024-07-11T10:04:28Z</time>
      </trkpt>
      <trkpt lat="43.67744" lon="1.32227">
        <ele>165.8</ele>
        <time>2024-07-11T10:04:29Z</time>
      </trkpt>
      <trkpt lat="43.67744" lon="1.32227">
        <ele>165.8</ele>
        <time>2024-07-11T10:04:30Z</time>
      </trkpt>
      <trkpt lat="43.67733" lon="1.3222">
        <ele>165.8</ele>
        <time>2024-07-11T10:04:31Z</time>
      </trkpt>
      <trkpt lat="43.67727" lon="1.32216">
        <ele>165.8</ele>
        <time>2024-07-11T10:04:32Z</time>
      </trkpt>
      <trkpt lat="43.67719" lon="1.32212">
        <ele>166</ele>
        <time>2024-07-11T10:04:33Z</time>
      </trkpt>
      <trkpt lat="43.67714" lon="1.3221">
        <ele>166</ele>
        <time>2024-07-11T10:04:34Z</time>
      </trkpt>
      <trkpt lat="43.67707" lon="1.32208">
        <ele>166</ele>
        <time>2024-07-11T10:04:35Z</time>
      </trkpt>
      <trkpt lat="43.677" lon="1.32207">
        <ele>166</ele>
        <time>2024-07-11T10:04:36Z</time>
      </trkpt>
      <trkpt lat="43.67692" lon="1.32208">
        <ele>166.2</ele>
        <time>2024-07-11T10:04:37Z</time>
      </trkpt>
      <trkpt lat="43.67685" lon="1.32209">
        <ele>166.2</ele>
        <time>2024-07-11T10:04:38Z</time>
      </trkpt>
      <trkpt lat="43.67678" lon="1.32211">
        <ele>166.2</ele>
        <time>2024-07-11T10:04:39Z</time>
      </trkpt>
      <trkpt lat="43.67671" lon="1.32214">
        <ele>166.2</ele>
        <time>2024-07-11T10:04:40Z</time>
      </trkpt>
      <trkpt lat="43.67664" lon="1.32217">
        <ele>166.2</ele>
        <time>2024-07-11T10:04:41Z</time>
      </trkpt>
      <trkpt lat="43.67657" lon="1.3222">
        <ele>166.2</ele>
        <time>2024-07-11T10:04:42Z</time>
      </trkpt>
      <trkpt lat="43.67649" lon="1.32223">
        <ele>166.2</ele>
        <time>2024-07-11T10:04:43Z</time>
      </trkpt>
      <trkpt lat="43.67642" lon="1.32226">
        <ele>166.2</ele>
        <time>2024-07-11T10:04:44Z</time>
      </trkpt>
      <trkpt lat="43.67634" lon="1.32229">
        <ele>166.2</ele>
        <time>2024-07-11T10:04:45Z</time>
      </trkpt>
      <trkpt lat="43.67626" lon="1.32232">
        <ele>166</ele>
        <time>2024-07-11T10:04:46Z</time>
      </trkpt>
      <trkpt lat="43.67619" lon="1.32235">
        <ele>166</ele>
        <time>2024-07-11T10:04:47Z</time>
      </trkpt>
      <trkpt lat="43.67611" lon="1.32238">
        <ele>165.8</ele>
        <time>2024-07-11T10:04:48Z</time>
      </trkpt>
      <trkpt lat="43.67603" lon="1.3224">
        <ele>165.8</ele>
        <time>2024-07-11T10:04:49Z</time>
      </trkpt>
      <trkpt lat="43.67595" lon="1.32243">
        <ele>165.6</ele>
        <time>2024-07-11T10:04:50Z</time>
      </trkpt>
      <trkpt lat="43.67587" lon="1.32245">
        <ele>165.4</ele>
        <time>2024-07-11T10:04:51Z</time>
      </trkpt>
      <trkpt lat="43.67578" lon="1.32246">
        <ele>165.4</ele>
        <time>2024-07-11T10:04:52Z</time>
      </trkpt>
      <trkpt lat="43.6757" lon="1.32247">
        <ele>165.2</ele>
        <time>2024-07-11T10:04:53Z</time>
      </trkpt>
      <trkpt lat="43.67562" lon="1.32248">
        <ele>165.2</ele>
        <time>2024-07-11T10:04:54Z</time>
      </trkpt>
      <trkpt lat="43.67554" lon="1.32249">
        <ele>165</ele>
        <time>2024-07-11T10:04:55Z</time>
      </trkpt>
      <trkpt lat="43.67546" lon="1.3225">
        <ele>164.8</ele>
        <time>2024-07-11T10:04:56Z</time>
      </trkpt>
      <trkpt lat="43.67538" lon="1.3225">
        <ele>164.6</ele>
        <time>2024-07-11T10:04:57Z</time>
      </trkpt>
      <trkpt lat="43.67531" lon="1.3225">
        <ele>164.4</ele>
        <time>2024-07-11T10:04:58Z</time>
      </trkpt>
      <trkpt lat="43.67523" lon="1.32251">
        <ele>164.2</ele>
        <time>2024-07-11T10:04:59Z</time>
      </trkpt>
      <trkpt lat="43.67515" lon="1.32251">
        <ele>164.2</ele>
        <time>2024-07-11T10:05:00Z</time>
      </trkpt>
      <trkpt lat="43.67507" lon="1.32251">
        <ele>164</ele>
        <time>2024-07-11T10:05:01Z</time>
      </trkpt>
      <trkpt lat="43.67499" lon="1.32251">
        <ele>164</ele>
        <time>2024-07-11T10:05:02Z</time>
      </trkpt>
      <trkpt lat="43.67491" lon="1.32252">
        <ele>164</ele>
        <time>2024-07-11T10:05:03Z</time>
      </trkpt>
      <trkpt lat="43.67483" lon="1.32252">
        <ele>164</ele>
        <time>2024-07-11T10:05:04Z</time>
      </trkpt>
      <trkpt lat="43.67475" lon="1.32252">
        <ele>164</ele>
        <time>2024-07-11T10:05:05Z</time>
      </trkpt>
      <trkpt lat="43.67468" lon="1.32253">
        <ele>164</ele>
        <time>2024-07-11T10:05:06Z</time>
      </trkpt>
      <trkpt lat="43.6746" lon="1.32253">
        <ele>164</ele>
        <time>2024-07-11T10:05:07Z</time>
      </trkpt>
      <trkpt lat="43.67452" lon="1.32253">
        <ele>164.2</ele>
        <time>2024-07-11T10:05:08Z</time>
      </trkpt>
      <trkpt lat="43.67444" lon="1.32253">
        <ele>164.2</ele>
        <time>2024-07-11T10:05:09Z</time>
      </trkpt>
      <trkpt lat="43.67437" lon="1.32253">
        <ele>164.2</ele>
        <time>2024-07-11T10:05:10Z</time>
      </trkpt>
      <trkpt lat="43.67429" lon="1.32253">
        <ele>164.2</ele>
        <time>2024-07-11T10:05:11Z</time>
      </trkpt>
      <trkpt lat="43.67422" lon="1.32252">
        <ele>164.2</ele>
        <time>2024-07-11T10:05:12Z</time>
      </trkpt>
      <trkpt lat="43.67412" lon="1.32251">
        <ele>164.2</ele>
        <time>2024-07-11T10:05:13Z</time>
      </trkpt>
      <trkpt lat="43.67406" lon="1.32251">
        <ele>164.2</ele>
        <time>2024-07-11T10:05:14Z</time>
      </trkpt>
      <trkpt lat="43.67399" lon="1.32251">
        <ele>164.4</ele>
        <time>2024-07-11T10:05:15Z</time>
      </trkpt>
      <trkpt lat="43.67399" lon="1.32251">
        <ele>164.4</ele>
        <time>2024-07-11T10:05:16Z</time>
      </trkpt>
      <trkpt lat="43.67384" lon="1.3225">
        <ele>164.4</ele>
        <time>2024-07-11T10:05:17Z</time>
      </trkpt>
      <trkpt lat="43.67376" lon="1.32249">
        <ele>164.4</ele>
        <time>2024-07-11T10:05:18Z</time>
      </trkpt>
      <trkpt lat="43.67368" lon="1.32249">
        <ele>164.4</ele>
        <time>2024-07-11T10:05:19Z</time>
      </trkpt>
      <trkpt lat="43.6736" lon="1.32248">
        <ele>164.4</ele>
        <time>2024-07-11T10:05:20Z</time>
      </trkpt>
      <trkpt lat="43.6736" lon="1.32248">
        <ele>164.4</ele>
        <time>2024-07-11T10:05:21Z</time>
      </trkpt>
      <trkpt lat="43.67345" lon="1.32247">
        <ele>164.2</ele>
        <time>2024-07-11T10:05:22Z</time>
      </trkpt>
      <trkpt lat="43.67337" lon="1.32247">
        <ele>164.2</ele>
        <time>2024-07-11T10:05:23Z</time>
      </trkpt>
      <trkpt lat="43.67329" lon="1.32248">
        <ele>164.2</ele>
        <time>2024-07-11T10:05:24Z</time>
      </trkpt>
      <trkpt lat="43.67321" lon="1.32248">
        <ele>164.2</ele>
        <time>2024-07-11T10:05:25Z</time>
      </trkpt>
      <trkpt lat="43.67313" lon="1.32249">
        <ele>164</ele>
        <time>2024-07-11T10:05:26Z</time>
      </trkpt>
      <trkpt lat="43.67304" lon="1.32249">
        <ele>164</ele>
        <time>2024-07-11T10:05:27Z</time>
      </trkpt>
      <trkpt lat="43.67296" lon="1.3225">
        <ele>164</ele>
        <time>2024-07-11T10:05:28Z</time>
      </trkpt>
      <trkpt lat="43.67288" lon="1.32251">
        <ele>164</ele>
        <time>2024-07-11T10:05:29Z</time>
      </trkpt>
      <trkpt lat="43.6728" lon="1.32252">
        <ele>164</ele>
        <time>2024-07-11T10:05:30Z</time>
      </trkpt>
      <trkpt lat="43.6727" lon="1.32253">
        <ele>164</ele>
        <time>2024-07-11T10:05:31Z</time>
      </trkpt>
      <trkpt lat="43.67262" lon="1.32255">
        <ele>164</ele>
        <time>2024-07-11T10:05:32Z</time>
      </trkpt>
      <trkpt lat="43.67254" lon="1.32256">
        <ele>164</ele>
        <time>2024-07-11T10:05:33Z</time>
      </trkpt>
      <trkpt lat="43.67246" lon="1.32257">
        <ele>164.2</ele>
        <time>2024-07-11T10:05:34Z</time>
      </trkpt>
      <trkpt lat="43.67238" lon="1.32258">
        <ele>164</ele>
        <time>2024-07-11T10:05:35Z</time>
      </trkpt>
      <trkpt lat="43.67232" lon="1.32259">
        <ele>164</ele>
        <time>2024-07-11T10:05:36Z</time>
      </trkpt>
      <trkpt lat="43.67224" lon="1.3226">
        <ele>164.4</ele>
        <time>2024-07-11T10:05:37Z</time>
      </trkpt>
      <trkpt lat="43.67214" lon="1.32261">
        <ele>164.4</ele>
        <time>2024-07-11T10:05:38Z</time>
      </trkpt>
      <trkpt lat="43.67208" lon="1.32262">
        <ele>164.4</ele>
        <time>2024-07-11T10:05:39Z</time>
      </trkpt>
      <trkpt lat="43.672" lon="1.32263">
        <ele>164.4</ele>
        <time>2024-07-11T10:05:40Z</time>
      </trkpt>
      <trkpt lat="43.67192" lon="1.32265">
        <ele>164.4</ele>
        <time>2024-07-11T10:05:41Z</time>
      </trkpt>
      <trkpt lat="43.67184" lon="1.32266">
        <ele>164.6</ele>
        <time>2024-07-11T10:05:42Z</time>
      </trkpt>
      <trkpt lat="43.67175" lon="1.32267">
        <ele>164.6</ele>
        <time>2024-07-11T10:05:43Z</time>
      </trkpt>
      <trkpt lat="43.67167" lon="1.32268">
        <ele>164.6</ele>
        <time>2024-07-11T10:05:44Z</time>
      </trkpt>
      <trkpt lat="43.67159" lon="1.32269">
        <ele>164.6</ele>
        <time>2024-07-11T10:05:45Z</time>
      </trkpt>
      <trkpt lat="43.67153" lon="1.3227">
        <ele>164.6</ele>
        <time>2024-07-11T10:05:46Z</time>
      </trkpt>
      <trkpt lat="43.67146" lon="1.32271">
        <ele>164.6</ele>
        <time>2024-07-11T10:05:47Z</time>
      </trkpt>
      <trkpt lat="43.67139" lon="1.32272">
        <ele>164.6</ele>
        <time>2024-07-11T10:05:48Z</time>
      </trkpt>
      <trkpt lat="43.67132" lon="1.32273">
        <ele>164.8</ele>
        <time>2024-07-11T10:05:49Z</time>
      </trkpt>
      <trkpt lat="43.67124" lon="1.32274">
        <ele>165</ele>
        <time>2024-07-11T10:05:50Z</time>
      </trkpt>
      <trkpt lat="43.67117" lon="1.32274">
        <ele>165</ele>
        <time>2024-07-11T10:05:51Z</time>
      </trkpt>
      <trkpt lat="43.6711" lon="1.32275">
        <ele>165.2</ele>
        <time>2024-07-11T10:05:52Z</time>
      </trkpt>
      <trkpt lat="43.67103" lon="1.32276">
        <ele>165.4</ele>
        <time>2024-07-11T10:05:53Z</time>
      </trkpt>
      <trkpt lat="43.67096" lon="1.32277">
        <ele>165.6</ele>
        <time>2024-07-11T10:05:54Z</time>
      </trkpt>
      <trkpt lat="43.67089" lon="1.32278">
        <ele>165.6</ele>
        <time>2024-07-11T10:05:55Z</time>
      </trkpt>
      <trkpt lat="43.67082" lon="1.32278">
        <ele>165.8</ele>
        <time>2024-07-11T10:05:56Z</time>
      </trkpt>
      <trkpt lat="43.67075" lon="1.3228">
        <ele>166</ele>
        <time>2024-07-11T10:05:57Z</time>
      </trkpt>
      <trkpt lat="43.67069" lon="1.32281">
        <ele>166</ele>
        <time>2024-07-11T10:05:58Z</time>
      </trkpt>
      <trkpt lat="43.67062" lon="1.32282">
        <ele>166.4</ele>
        <time>2024-07-11T10:05:59Z</time>
      </trkpt>
      <trkpt lat="43.67055" lon="1.32283">
        <ele>166.6</ele>
        <time>2024-07-11T10:06:00Z</time>
      </trkpt>
      <trkpt lat="43.67048" lon="1.32284">
        <ele>166.8</ele>
        <time>2024-07-11T10:06:01Z</time>
      </trkpt>
      <trkpt lat="43.67041" lon="1.32285">
        <ele>166.8</ele>
        <time>2024-07-11T10:06:02Z</time>
      </trkpt>
      <trkpt lat="43.67033" lon="1.32286">
        <ele>166.8</ele>
        <time>2024-07-11T10:06:03Z</time>
      </trkpt>
      <trkpt lat="43.67026" lon="1.32287">
        <ele>167</ele>
        <time>2024-07-11T10:06:04Z</time>
      </trkpt>
      <trkpt lat="43.67019" lon="1.32288">
        <ele>167</ele>
        <time>2024-07-11T10:06:05Z</time>
      </trkpt>
      <trkpt lat="43.67012" lon="1.32289">
        <ele>167.2</ele>
        <time>2024-07-11T10:06:06Z</time>
      </trkpt>
      <trkpt lat="43.67005" lon="1.3229">
        <ele>167.2</ele>
        <time>2024-07-11T10:06:07Z</time>
      </trkpt>
      <trkpt lat="43.66998" lon="1.32291">
        <ele>167.4</ele>
        <time>2024-07-11T10:06:08Z</time>
      </trkpt>
      <trkpt lat="43.6699" lon="1.32292">
        <ele>167.4</ele>
        <time>2024-07-11T10:06:09Z</time>
      </trkpt>
      <trkpt lat="43.66983" lon="1.32293">
        <ele>167.4</ele>
        <time>2024-07-11T10:06:10Z</time>
      </trkpt>
      <trkpt lat="43.66976" lon="1.32294">
        <ele>167.6</ele>
        <time>2024-07-11T10:06:11Z</time>
      </trkpt>
      <trkpt lat="43.66968" lon="1.32295">
        <ele>167.8</ele>
        <time>2024-07-11T10:06:12Z</time>
      </trkpt>
      <trkpt lat="43.66961" lon="1.32296">
        <ele>167.8</ele>
        <time>2024-07-11T10:06:13Z</time>
      </trkpt>
      <trkpt lat="43.66953" lon="1.32297">
        <ele>168</ele>
        <time>2024-07-11T10:06:14Z</time>
      </trkpt>
      <trkpt lat="43.66945" lon="1.32298">
        <ele>168</ele>
        <time>2024-07-11T10:06:15Z</time>
      </trkpt>
      <trkpt lat="43.66937" lon="1.32299">
        <ele>168</ele>
        <time>2024-07-11T10:06:16Z</time>
      </trkpt>
      <trkpt lat="43.66929" lon="1.323">
        <ele>168</ele>
        <time>2024-07-11T10:06:17Z</time>
      </trkpt>
      <trkpt lat="43.66921" lon="1.32301">
        <ele>168</ele>
        <time>2024-07-11T10:06:18Z</time>
      </trkpt>
      <trkpt lat="43.66921" lon="1.32301">
        <ele>168</ele>
        <time>2024-07-11T10:06:19Z</time>
      </trkpt>
      <trkpt lat="43.66905" lon="1.32303">
        <ele>168</ele>
        <time>2024-07-11T10:06:20Z</time>
      </trkpt>
      <trkpt lat="43.66897" lon="1.32305">
        <ele>167.8</ele>
        <time>2024-07-11T10:06:21Z</time>
      </trkpt>
      <trkpt lat="43.66889" lon="1.32307">
        <ele>167.8</ele>
        <time>2024-07-11T10:06:22Z</time>
      </trkpt>
      <trkpt lat="43.66882" lon="1.32309">
        <ele>167.8</ele>
        <time>2024-07-11T10:06:23Z</time>
      </trkpt>
      <trkpt lat="43.66874" lon="1.32312">
        <ele>167.6</ele>
        <time>2024-07-11T10:06:24Z</time>
      </trkpt>
      <trkpt lat="43.66866" lon="1.32315">
        <ele>167.6</ele>
        <time>2024-07-11T10:06:25Z</time>
      </trkpt>
      <trkpt lat="43.66859" lon="1.32318">
        <ele>167.6</ele>
        <time>2024-07-11T10:06:26Z</time>
      </trkpt>
      <trkpt lat="43.66851" lon="1.32321">
        <ele>167.4</ele>
        <time>2024-07-11T10:06:27Z</time>
      </trkpt>
      <trkpt lat="43.66843" lon="1.32324">
        <ele>167.4</ele>
        <time>2024-07-11T10:06:28Z</time>
      </trkpt>
      <trkpt lat="43.66836" lon="1.32327">
        <ele>167.4</ele>
        <time>2024-07-11T10:06:29Z</time>
      </trkpt>
      <trkpt lat="43.66829" lon="1.3233">
        <ele>167.4</ele>
        <time>2024-07-11T10:06:30Z</time>
      </trkpt>
      <trkpt lat="43.66822" lon="1.32333">
        <ele>167.4</ele>
        <time>2024-07-11T10:06:31Z</time>
      </trkpt>
      <trkpt lat="43.66814" lon="1.32335">
        <ele>167.6</ele>
        <time>2024-07-11T10:06:32Z</time>
      </trkpt>
      <trkpt lat="43.66807" lon="1.32338">
        <ele>167.6</ele>
        <time>2024-07-11T10:06:33Z</time>
      </trkpt>
      <trkpt lat="43.668" lon="1.32341">
        <ele>168</ele>
        <time>2024-07-11T10:06:34Z</time>
      </trkpt>
      <trkpt lat="43.66793" lon="1.32344">
        <ele>168.2</ele>
        <time>2024-07-11T10:06:35Z</time>
      </trkpt>
      <trkpt lat="43.66785" lon="1.32347">
        <ele>168.4</ele>
        <time>2024-07-11T10:06:36Z</time>
      </trkpt>
      <trkpt lat="43.66778" lon="1.3235">
        <ele>168.4</ele>
        <time>2024-07-11T10:06:37Z</time>
      </trkpt>
      <trkpt lat="43.66771" lon="1.32353">
        <ele>168.6</ele>
        <time>2024-07-11T10:06:38Z</time>
      </trkpt>
      <trkpt lat="43.66765" lon="1.32355">
        <ele>168.8</ele>
        <time>2024-07-11T10:06:39Z</time>
      </trkpt>
      <trkpt lat="43.66756" lon="1.32359">
        <ele>168.8</ele>
        <time>2024-07-11T10:06:40Z</time>
      </trkpt>
      <trkpt lat="43.66749" lon="1.32362">
        <ele>168.8</ele>
        <time>2024-07-11T10:06:41Z</time>
      </trkpt>
      <trkpt lat="43.66742" lon="1.32365">
        <ele>168.8</ele>
        <time>2024-07-11T10:06:42Z</time>
      </trkpt>
      <trkpt lat="43.66734" lon="1.32367">
        <ele>168.6</ele>
        <time>2024-07-11T10:06:43Z</time>
      </trkpt>
      <trkpt lat="43.66728" lon="1.32369">
        <ele>168.6</ele>
        <time>2024-07-11T10:06:44Z</time>
      </trkpt>
      <trkpt lat="43.66719" lon="1.32373">
        <ele>168.6</ele>
        <time>2024-07-11T10:06:45Z</time>
      </trkpt>
      <trkpt lat="43.66711" lon="1.32376">
        <ele>168.6</ele>
        <time>2024-07-11T10:06:46Z</time>
      </trkpt>
      <trkpt lat="43.66704" lon="1.32379">
        <ele>168.4</ele>
        <time>2024-07-11T10:06:47Z</time>
      </trkpt>
      <trkpt lat="43.66696" lon="1.32382">
        <ele>168.4</ele>
        <time>2024-07-11T10:06:48Z</time>
      </trkpt>
      <trkpt lat="43.66688" lon="1.32385">
        <ele>168.4</ele>
        <time>2024-07-11T10:06:49Z</time>
      </trkpt>
      <trkpt lat="43.6668" lon="1.32388">
        <ele>168.2</ele>
        <time>2024-07-11T10:06:50Z</time>
      </trkpt>
      <trkpt lat="43.66672" lon="1.32391">
        <ele>168.2</ele>
        <time>2024-07-11T10:06:51Z</time>
      </trkpt>
      <trkpt lat="43.66664" lon="1.32394">
        <ele>168</ele>
        <time>2024-07-11T10:06:52Z</time>
      </trkpt>
      <trkpt lat="43.66656" lon="1.32397">
        <ele>168</ele>
        <time>2024-07-11T10:06:53Z</time>
      </trkpt>
      <trkpt lat="43.66648" lon="1.324">
        <ele>167.8</ele>
        <time>2024-07-11T10:06:54Z</time>
      </trkpt>
      <trkpt lat="43.6664" lon="1.32403">
        <ele>167.8</ele>
        <time>2024-07-11T10:06:55Z</time>
      </trkpt>
      <trkpt lat="43.66632" lon="1.32406">
        <ele>167.8</ele>
        <time>2024-07-11T10:06:56Z</time>
      </trkpt>
      <trkpt lat="43.66625" lon="1.32409">
        <ele>167.8</ele>
        <time>2024-07-11T10:06:57Z</time>
      </trkpt>
      <trkpt lat="43.66617" lon="1.32412">
        <ele>167.6</ele>
        <time>2024-07-11T10:06:58Z</time>
      </trkpt>
      <trkpt lat="43.66617" lon="1.32412">
        <ele>167.6</ele>
        <time>2024-07-11T10:06:59Z</time>
      </trkpt>
      <trkpt lat="43.66602" lon="1.32418">
        <ele>167.6</ele>
        <time>2024-07-11T10:07:00Z</time>
      </trkpt>
      <trkpt lat="43.66594" lon="1.32421">
        <ele>167.6</ele>
        <time>2024-07-11T10:07:01Z</time>
      </trkpt>
      <trkpt lat="43.66588" lon="1.32424">
        <ele>167.6</ele>
        <time>2024-07-11T10:07:02Z</time>
      </trkpt>
      <trkpt lat="43.66581" lon="1.32427">
        <ele>167.6</ele>
        <time>2024-07-11T10:07:03Z</time>
      </trkpt>
      <trkpt lat="43.66573" lon="1.32431">
        <ele>167.6</ele>
        <time>2024-07-11T10:07:04Z</time>
      </trkpt>
      <trkpt lat="43.66566" lon="1.32434">
        <ele>167.6</ele>
        <time>2024-07-11T10:07:05Z</time>
      </trkpt>
      <trkpt lat="43.66558" lon="1.32438">
        <ele>167.6</ele>
        <time>2024-07-11T10:07:06Z</time>
      </trkpt>
      <trkpt lat="43.66551" lon="1.32441">
        <ele>167.6</ele>
        <time>2024-07-11T10:07:07Z</time>
      </trkpt>
      <trkpt lat="43.66543" lon="1.32445">
        <ele>167.6</ele>
        <time>2024-07-11T10:07:08Z</time>
      </trkpt>
      <trkpt lat="43.66536" lon="1.32448">
        <ele>167.4</ele>
        <time>2024-07-11T10:07:09Z</time>
      </trkpt>
      <trkpt lat="43.66529" lon="1.32452">
        <ele>167.4</ele>
        <time>2024-07-11T10:07:10Z</time>
      </trkpt>
      <trkpt lat="43.66521" lon="1.32455">
        <ele>167.4</ele>
        <time>2024-07-11T10:07:11Z</time>
      </trkpt>
      <trkpt lat="43.66514" lon="1.32459">
        <ele>167.4</ele>
        <time>2024-07-11T10:07:12Z</time>
      </trkpt>
      <trkpt lat="43.66506" lon="1.32462">
        <ele>167.4</ele>
        <time>2024-07-11T10:07:13Z</time>
      </trkpt>
      <trkpt lat="43.66506" lon="1.32462">
        <ele>167.4</ele>
        <time>2024-07-11T10:07:14Z</time>
      </trkpt>
      <trkpt lat="43.66491" lon="1.32468">
        <ele>167.4</ele>
        <time>2024-07-11T10:07:15Z</time>
      </trkpt>
      <trkpt lat="43.66484" lon="1.32472">
        <ele>167.2</ele>
        <time>2024-07-11T10:07:16Z</time>
      </trkpt>
      <trkpt lat="43.66476" lon="1.32475">
        <ele>167.2</ele>
        <time>2024-07-11T10:07:17Z</time>
      </trkpt>
      <trkpt lat="43.66469" lon="1.32479">
        <ele>167.4</ele>
        <time>2024-07-11T10:07:18Z</time>
      </trkpt>
      <trkpt lat="43.66469" lon="1.32479">
        <ele>167.4</ele>
        <time>2024-07-11T10:07:19Z</time>
      </trkpt>
      <trkpt lat="43.66455" lon="1.32485">
        <ele>167.4</ele>
        <time>2024-07-11T10:07:20Z</time>
      </trkpt>
      <trkpt lat="43.66448" lon="1.32489">
        <ele>167.6</ele>
        <time>2024-07-11T10:07:21Z</time>
      </trkpt>
      <trkpt lat="43.6644" lon="1.32493">
        <ele>167.6</ele>
        <time>2024-07-11T10:07:22Z</time>
      </trkpt>
      <trkpt lat="43.66433" lon="1.32496">
        <ele>167.6</ele>
        <time>2024-07-11T10:07:23Z</time>
      </trkpt>
      <trkpt lat="43.66426" lon="1.325">
        <ele>167.6</ele>
        <time>2024-07-11T10:07:24Z</time>
      </trkpt>
      <trkpt lat="43.66418" lon="1.32503">
        <ele>167.6</ele>
        <time>2024-07-11T10:07:25Z</time>
      </trkpt>
      <trkpt lat="43.66411" lon="1.32507">
        <ele>167.6</ele>
        <time>2024-07-11T10:07:26Z</time>
      </trkpt>
      <trkpt lat="43.66403" lon="1.3251">
        <ele>167.8</ele>
        <time>2024-07-11T10:07:27Z</time>
      </trkpt>
      <trkpt lat="43.66396" lon="1.32514">
        <ele>167.8</ele>
        <time>2024-07-11T10:07:28Z</time>
      </trkpt>
      <trkpt lat="43.66388" lon="1.32517">
        <ele>167.8</ele>
        <time>2024-07-11T10:07:29Z</time>
      </trkpt>
      <trkpt lat="43.6638" lon="1.32521">
        <ele>167.8</ele>
        <time>2024-07-11T10:07:30Z</time>
      </trkpt>
      <trkpt lat="43.66373" lon="1.32525">
        <ele>168</ele>
        <time>2024-07-11T10:07:31Z</time>
      </trkpt>
      <trkpt lat="43.66365" lon="1.32528">
        <ele>168</ele>
        <time>2024-07-11T10:07:32Z</time>
      </trkpt>
      <trkpt lat="43.66357" lon="1.32532">
        <ele>168</ele>
        <time>2024-07-11T10:07:33Z</time>
      </trkpt>
      <trkpt lat="43.6635" lon="1.32535">
        <ele>168</ele>
        <time>2024-07-11T10:07:34Z</time>
      </trkpt>
      <trkpt lat="43.66342" lon="1.32537">
        <ele>168</ele>
        <time>2024-07-11T10:07:35Z</time>
      </trkpt>
      <trkpt lat="43.66335" lon="1.3254">
        <ele>168</ele>
        <time>2024-07-11T10:07:36Z</time>
      </trkpt>
      <trkpt lat="43.66327" lon="1.32541">
        <ele>168</ele>
        <time>2024-07-11T10:07:37Z</time>
      </trkpt>
      <trkpt lat="43.6632" lon="1.32542">
        <ele>168</ele>
        <time>2024-07-11T10:07:38Z</time>
      </trkpt>
      <trkpt lat="43.66312" lon="1.32543">
        <ele>168</ele>
        <time>2024-07-11T10:07:39Z</time>
      </trkpt>
      <trkpt lat="43.66304" lon="1.32543">
        <ele>168</ele>
        <time>2024-07-11T10:07:40Z</time>
      </trkpt>
      <trkpt lat="43.66297" lon="1.32543">
        <ele>168</ele>
        <time>2024-07-11T10:07:41Z</time>
      </trkpt>
      <trkpt lat="43.66289" lon="1.32543">
        <ele>168.2</ele>
        <time>2024-07-11T10:07:42Z</time>
      </trkpt>
      <trkpt lat="43.66281" lon="1.32542">
        <ele>168.2</ele>
        <time>2024-07-11T10:07:43Z</time>
      </trkpt>
      <trkpt lat="43.66274" lon="1.32542">
        <ele>168.4</ele>
        <time>2024-07-11T10:07:44Z</time>
      </trkpt>
      <trkpt lat="43.66266" lon="1.32542">
        <ele>168.4</ele>
        <time>2024-07-11T10:07:45Z</time>
      </trkpt>
      <trkpt lat="43.66259" lon="1.32541">
        <ele>168.4</ele>
        <time>2024-07-11T10:07:46Z</time>
      </trkpt>
      <trkpt lat="43.66259" lon="1.32541">
        <ele>168.6</ele>
        <time>2024-07-11T10:07:47Z</time>
      </trkpt>
      <trkpt lat="43.66244" lon="1.32541">
        <ele>168.6</ele>
        <time>2024-07-11T10:07:48Z</time>
      </trkpt>
      <trkpt lat="43.66237" lon="1.32541">
        <ele>168.8</ele>
        <time>2024-07-11T10:07:49Z</time>
      </trkpt>
      <trkpt lat="43.6623" lon="1.32541">
        <ele>169</ele>
        <time>2024-07-11T10:07:50Z</time>
      </trkpt>
      <trkpt lat="43.66223" lon="1.32541">
        <ele>169</ele>
        <time>2024-07-11T10:07:51Z</time>
      </trkpt>
      <trkpt lat="43.66216" lon="1.3254">
        <ele>169</ele>
        <time>2024-07-11T10:07:52Z</time>
      </trkpt>
      <trkpt lat="43.66209" lon="1.3254">
        <ele>169.2</ele>
        <time>2024-07-11T10:07:53Z</time>
      </trkpt>
      <trkpt lat="43.66202" lon="1.32539">
        <ele>169.4</ele>
        <time>2024-07-11T10:07:54Z</time>
      </trkpt>
      <trkpt lat="43.66195" lon="1.32538">
        <ele>169.6</ele>
        <time>2024-07-11T10:07:55Z</time>
      </trkpt>
      <trkpt lat="43.66189" lon="1.32535">
        <ele>169.6</ele>
        <time>2024-07-11T10:07:56Z</time>
      </trkpt>
      <trkpt lat="43.66182" lon="1.32532">
        <ele>169.6</ele>
        <time>2024-07-11T10:07:57Z</time>
      </trkpt>
      <trkpt lat="43.66177" lon="1.32528">
        <ele>170</ele>
        <time>2024-07-11T10:07:58Z</time>
      </trkpt>
      <trkpt lat="43.66172" lon="1.32523">
        <ele>170</ele>
        <time>2024-07-11T10:07:59Z</time>
      </trkpt>
      <trkpt lat="43.66166" lon="1.32518">
        <ele>170</ele>
        <time>2024-07-11T10:08:00Z</time>
      </trkpt>
      <trkpt lat="43.66162" lon="1.32514">
        <ele>170</ele>
        <time>2024-07-11T10:08:01Z</time>
      </trkpt>
      <trkpt lat="43.66158" lon="1.32508">
        <ele>170.2</ele>
        <time>2024-07-11T10:08:02Z</time>
      </trkpt>
      <trkpt lat="43.66155" lon="1.32503">
        <ele>170.2</ele>
        <time>2024-07-11T10:08:03Z</time>
      </trkpt>
      <trkpt lat="43.66151" lon="1.32497">
        <ele>170.4</ele>
        <time>2024-07-11T10:08:04Z</time>
      </trkpt>
      <trkpt lat="43.66147" lon="1.32492">
        <ele>170.4</ele>
        <time>2024-07-11T10:08:05Z</time>
      </trkpt>
      <trkpt lat="43.66147" lon="1.32492">
        <ele>170.4</ele>
        <time>2024-07-11T10:08:06Z</time>
      </trkpt>
      <trkpt lat="43.66137" lon="1.32486">
        <ele>170.6</ele>
        <time>2024-07-11T10:08:07Z</time>
      </trkpt>
      <trkpt lat="43.6613" lon="1.32485">
        <ele>170.6</ele>
        <time>2024-07-11T10:08:08Z</time>
      </trkpt>
      <trkpt lat="43.66124" lon="1.32484">
        <ele>170.6</ele>
        <time>2024-07-11T10:08:09Z</time>
      </trkpt>
      <trkpt lat="43.66117" lon="1.32483">
        <ele>170.6</ele>
        <time>2024-07-11T10:08:10Z</time>
      </trkpt>
      <trkpt lat="43.66111" lon="1.32481">
        <ele>170.6</ele>
        <time>2024-07-11T10:08:11Z</time>
      </trkpt>
      <trkpt lat="43.66104" lon="1.32479">
        <ele>170.8</ele>
        <time>2024-07-11T10:08:12Z</time>
      </trkpt>
      <trkpt lat="43.66096" lon="1.32479">
        <ele>170.8</ele>
        <time>2024-07-11T10:08:13Z</time>
      </trkpt>
      <trkpt lat="43.66089" lon="1.3248">
        <ele>170.8</ele>
        <time>2024-07-11T10:08:14Z</time>
      </trkpt>
      <trkpt lat="43.66082" lon="1.32482">
        <ele>170.8</ele>
        <time>2024-07-11T10:08:15Z</time>
      </trkpt>
      <trkpt lat="43.66076" lon="1.32486">
        <ele>170.6</ele>
        <time>2024-07-11T10:08:16Z</time>
      </trkpt>
      <trkpt lat="43.66069" lon="1.32489">
        <ele>170.6</ele>
        <time>2024-07-11T10:08:17Z</time>
      </trkpt>
      <trkpt lat="43.66062" lon="1.32492">
        <ele>170.8</ele>
        <time>2024-07-11T10:08:18Z</time>
      </trkpt>
      <trkpt lat="43.66055" lon="1.32493">
        <ele>170.8</ele>
        <time>2024-07-11T10:08:19Z</time>
      </trkpt>
      <trkpt lat="43.66048" lon="1.32491">
        <ele>170.8</ele>
        <time>2024-07-11T10:08:20Z</time>
      </trkpt>
      <trkpt lat="43.66041" lon="1.32488">
        <ele>170.8</ele>
        <time>2024-07-11T10:08:21Z</time>
      </trkpt>
      <trkpt lat="43.66035" lon="1.32483">
        <ele>170.6</ele>
        <time>2024-07-11T10:08:22Z</time>
      </trkpt>
      <trkpt lat="43.66028" lon="1.32478">
        <ele>170.6</ele>
        <time>2024-07-11T10:08:23Z</time>
      </trkpt>
      <trkpt lat="43.66021" lon="1.32474">
        <ele>170.6</ele>
        <time>2024-07-11T10:08:24Z</time>
      </trkpt>
      <trkpt lat="43.66015" lon="1.32469">
        <ele>170.6</ele>
        <time>2024-07-11T10:08:25Z</time>
      </trkpt>
      <trkpt lat="43.66007" lon="1.32463">
        <ele>170.4</ele>
        <time>2024-07-11T10:08:26Z</time>
      </trkpt>
      <trkpt lat="43.66001" lon="1.3246">
        <ele>170.4</ele>
        <time>2024-07-11T10:08:27Z</time>
      </trkpt>
      <trkpt lat="43.65994" lon="1.32456">
        <ele>170.4</ele>
        <time>2024-07-11T10:08:28Z</time>
      </trkpt>
      <trkpt lat="43.65987" lon="1.32452">
        <ele>170.4</ele>
        <time>2024-07-11T10:08:29Z</time>
      </trkpt>
      <trkpt lat="43.65987" lon="1.32452">
        <ele>170.2</ele>
        <time>2024-07-11T10:08:30Z</time>
      </trkpt>
      <trkpt lat="43.6597" lon="1.32445">
        <ele>170.2</ele>
        <time>2024-07-11T10:08:31Z</time>
      </trkpt>
      <trkpt lat="43.65963" lon="1.32444">
        <ele>170.2</ele>
        <time>2024-07-11T10:08:32Z</time>
      </trkpt>
      <trkpt lat="43.65955" lon="1.32443">
        <ele>170.2</ele>
        <time>2024-07-11T10:08:33Z</time>
      </trkpt>
      <trkpt lat="43.65947" lon="1.32442">
        <ele>170.2</ele>
        <time>2024-07-11T10:08:34Z</time>
      </trkpt>
      <trkpt lat="43.6594" lon="1.32442">
        <ele>170.2</ele>
        <time>2024-07-11T10:08:35Z</time>
      </trkpt>
      <trkpt lat="43.65932" lon="1.32441">
        <ele>170.2</ele>
        <time>2024-07-11T10:08:36Z</time>
      </trkpt>
      <trkpt lat="43.65924" lon="1.32441">
        <ele>170.2</ele>
        <time>2024-07-11T10:08:37Z</time>
      </trkpt>
      <trkpt lat="43.65917" lon="1.32442">
        <ele>170.2</ele>
        <time>2024-07-11T10:08:38Z</time>
      </trkpt>
      <trkpt lat="43.65909" lon="1.32442">
        <ele>170.2</ele>
        <time>2024-07-11T10:08:39Z</time>
      </trkpt>
      <trkpt lat="43.65902" lon="1.32442">
        <ele>170</ele>
        <time>2024-07-11T10:08:40Z</time>
      </trkpt>
      <trkpt lat="43.65894" lon="1.32442">
        <ele>170</ele>
        <time>2024-07-11T10:08:41Z</time>
      </trkpt>
      <trkpt lat="43.65886" lon="1.32443">
        <ele>170</ele>
        <time>2024-07-11T10:08:42Z</time>
      </trkpt>
      <trkpt lat="43.65879" lon="1.32444">
        <ele>169.8</ele>
        <time>2024-07-11T10:08:43Z</time>
      </trkpt>
      <trkpt lat="43.65871" lon="1.32445">
        <ele>169.8</ele>
        <time>2024-07-11T10:08:44Z</time>
      </trkpt>
      <trkpt lat="43.65863" lon="1.32445">
        <ele>169.6</ele>
        <time>2024-07-11T10:08:45Z</time>
      </trkpt>
      <trkpt lat="43.65855" lon="1.32446">
        <ele>169.6</ele>
        <time>2024-07-11T10:08:46Z</time>
      </trkpt>
      <trkpt lat="43.65847" lon="1.32447">
        <ele>169.6</ele>
        <time>2024-07-11T10:08:47Z</time>
      </trkpt>
      <trkpt lat="43.65839" lon="1.32448">
        <ele>169.4</ele>
        <time>2024-07-11T10:08:48Z</time>
      </trkpt>
      <trkpt lat="43.65831" lon="1.32449">
        <ele>169.4</ele>
        <time>2024-07-11T10:08:49Z</time>
      </trkpt>
      <trkpt lat="43.65823" lon="1.3245">
        <ele>169.4</ele>
        <time>2024-07-11T10:08:50Z</time>
      </trkpt>
      <trkpt lat="43.65816" lon="1.32451">
        <ele>169.2</ele>
        <time>2024-07-11T10:08:51Z</time>
      </trkpt>
      <trkpt lat="43.65809" lon="1.32452">
        <ele>169.2</ele>
        <time>2024-07-11T10:08:52Z</time>
      </trkpt>
      <trkpt lat="43.65802" lon="1.32453">
        <ele>169.4</ele>
        <time>2024-07-11T10:08:53Z</time>
      </trkpt>
      <trkpt lat="43.65795" lon="1.32454">
        <ele>169.6</ele>
        <time>2024-07-11T10:08:54Z</time>
      </trkpt>
      <trkpt lat="43.65788" lon="1.32455">
        <ele>169.6</ele>
        <time>2024-07-11T10:08:55Z</time>
      </trkpt>
      <trkpt lat="43.65781" lon="1.32455">
        <ele>169.6</ele>
        <time>2024-07-11T10:08:56Z</time>
      </trkpt>
      <trkpt lat="43.65774" lon="1.32456">
        <ele>169.6</ele>
        <time>2024-07-11T10:08:57Z</time>
      </trkpt>
      <trkpt lat="43.65767" lon="1.32456">
        <ele>169.6</ele>
        <time>2024-07-11T10:08:58Z</time>
      </trkpt>
      <trkpt lat="43.6576" lon="1.32456">
        <ele>169.8</ele>
        <time>2024-07-11T10:08:59Z</time>
      </trkpt>
      <trkpt lat="43.65753" lon="1.32456">
        <ele>169.8</ele>
        <time>2024-07-11T10:09:00Z</time>
      </trkpt>
      <trkpt lat="43.65746" lon="1.32456">
        <ele>170</ele>
        <time>2024-07-11T10:09:01Z</time>
      </trkpt>
      <trkpt lat="43.65739" lon="1.32455">
        <ele>170</ele>
        <time>2024-07-11T10:09:02Z</time>
      </trkpt>
      <trkpt lat="43.65733" lon="1.32454">
        <ele>170.2</ele>
        <time>2024-07-11T10:09:03Z</time>
      </trkpt>
      <trkpt lat="43.65733" lon="1.32454">
        <ele>170.2</ele>
        <time>2024-07-11T10:09:04Z</time>
      </trkpt>
      <trkpt lat="43.65719" lon="1.32451">
        <ele>170.4</ele>
        <time>2024-07-11T10:09:05Z</time>
      </trkpt>
      <trkpt lat="43.65711" lon="1.32449">
        <ele>170.4</ele>
        <time>2024-07-11T10:09:06Z</time>
      </trkpt>
      <trkpt lat="43.65704" lon="1.32447">
        <ele>170.4</ele>
        <time>2024-07-11T10:09:07Z</time>
      </trkpt>
      <trkpt lat="43.65697" lon="1.32446">
        <ele>170.4</ele>
        <time>2024-07-11T10:09:08Z</time>
      </trkpt>
      <trkpt lat="43.65697" lon="1.32446">
        <ele>170.4</ele>
        <time>2024-07-11T10:09:09Z</time>
      </trkpt>
      <trkpt lat="43.65683" lon="1.32443">
        <ele>170.4</ele>
        <time>2024-07-11T10:09:10Z</time>
      </trkpt>
      <trkpt lat="43.65677" lon="1.32442">
        <ele>170.4</ele>
        <time>2024-07-11T10:09:11Z</time>
      </trkpt>
      <trkpt lat="43.65669" lon="1.32441">
        <ele>170.6</ele>
        <time>2024-07-11T10:09:12Z</time>
      </trkpt>
      <trkpt lat="43.65662" lon="1.32439">
        <ele>170.6</ele>
        <time>2024-07-11T10:09:13Z</time>
      </trkpt>
      <trkpt lat="43.65655" lon="1.32438">
        <ele>170.6</ele>
        <time>2024-07-11T10:09:14Z</time>
      </trkpt>
      <trkpt lat="43.65649" lon="1.32436">
        <ele>170.8</ele>
        <time>2024-07-11T10:09:15Z</time>
      </trkpt>
      <trkpt lat="43.65642" lon="1.32434">
        <ele>170.8</ele>
        <time>2024-07-11T10:09:16Z</time>
      </trkpt>
      <trkpt lat="43.65635" lon="1.32432">
        <ele>170.8</ele>
        <time>2024-07-11T10:09:17Z</time>
      </trkpt>
      <trkpt lat="43.65628" lon="1.3243">
        <ele>171</ele>
        <time>2024-07-11T10:09:18Z</time>
      </trkpt>
      <trkpt lat="43.65622" lon="1.32428">
        <ele>171</ele>
        <time>2024-07-11T10:09:19Z</time>
      </trkpt>
      <trkpt lat="43.65615" lon="1.32426">
        <ele>171</ele>
        <time>2024-07-11T10:09:20Z</time>
      </trkpt>
      <trkpt lat="43.65606" lon="1.32423">
        <ele>171</ele>
        <time>2024-07-11T10:09:21Z</time>
      </trkpt>
      <trkpt lat="43.656" lon="1.32421">
        <ele>171.2</ele>
        <time>2024-07-11T10:09:22Z</time>
      </trkpt>
      <trkpt lat="43.65593" lon="1.32419">
        <ele>171.2</ele>
        <time>2024-07-11T10:09:23Z</time>
      </trkpt>
      <trkpt lat="43.65586" lon="1.32416">
        <ele>171.2</ele>
        <time>2024-07-11T10:09:24Z</time>
      </trkpt>
      <trkpt lat="43.65579" lon="1.32414">
        <ele>171.2</ele>
        <time>2024-07-11T10:09:25Z</time>
      </trkpt>
      <trkpt lat="43.65572" lon="1.32411">
        <ele>171.2</ele>
        <time>2024-07-11T10:09:26Z</time>
      </trkpt>
      <trkpt lat="43.65565" lon="1.32409">
        <ele>171.4</ele>
        <time>2024-07-11T10:09:27Z</time>
      </trkpt>
      <trkpt lat="43.65559" lon="1.32406">
        <ele>171.4</ele>
        <time>2024-07-11T10:09:28Z</time>
      </trkpt>
      <trkpt lat="43.65552" lon="1.32404">
        <ele>171.4</ele>
        <time>2024-07-11T10:09:29Z</time>
      </trkpt>
      <trkpt lat="43.65545" lon="1.32401">
        <ele>171.6</ele>
        <time>2024-07-11T10:09:30Z</time>
      </trkpt>
      <trkpt lat="43.65539" lon="1.32399">
        <ele>171.6</ele>
        <time>2024-07-11T10:09:31Z</time>
      </trkpt>
      <trkpt lat="43.65532" lon="1.32397">
        <ele>171.8</ele>
        <time>2024-07-11T10:09:32Z</time>
      </trkpt>
      <trkpt lat="43.65525" lon="1.32394">
        <ele>171.8</ele>
        <time>2024-07-11T10:09:33Z</time>
      </trkpt>
      <trkpt lat="43.65519" lon="1.32392">
        <ele>172</ele>
        <time>2024-07-11T10:09:34Z</time>
      </trkpt>
      <trkpt lat="43.65512" lon="1.32389">
        <ele>172.2</ele>
        <time>2024-07-11T10:09:35Z</time>
      </trkpt>
      <trkpt lat="43.65506" lon="1.32386">
        <ele>172.2</ele>
        <time>2024-07-11T10:09:36Z</time>
      </trkpt>
      <trkpt lat="43.655" lon="1.32383">
        <ele>172.4</ele>
        <time>2024-07-11T10:09:37Z</time>
      </trkpt>
      <trkpt lat="43.65494" lon="1.32379">
        <ele>172.4</ele>
        <time>2024-07-11T10:09:38Z</time>
      </trkpt>
      <trkpt lat="43.65488" lon="1.32374">
        <ele>172.4</ele>
        <time>2024-07-11T10:09:39Z</time>
      </trkpt>
      <trkpt lat="43.65483" lon="1.3237">
        <ele>172.4</ele>
        <time>2024-07-11T10:09:40Z</time>
      </trkpt>
      <trkpt lat="43.65478" lon="1.32365">
        <ele>172.4</ele>
        <time>2024-07-11T10:09:41Z</time>
      </trkpt>
      <trkpt lat="43.65473" lon="1.32359">
        <ele>172.4</ele>
        <time>2024-07-11T10:09:42Z</time>
      </trkpt>
      <trkpt lat="43.65468" lon="1.32352">
        <ele>172.4</ele>
        <time>2024-07-11T10:09:43Z</time>
      </trkpt>
      <trkpt lat="43.65466" lon="1.32346">
        <ele>172.4</ele>
        <time>2024-07-11T10:09:44Z</time>
      </trkpt>
      <trkpt lat="43.65462" lon="1.3234">
        <ele>172.4</ele>
        <time>2024-07-11T10:09:45Z</time>
      </trkpt>
      <trkpt lat="43.65457" lon="1.32335">
        <ele>172.4</ele>
        <time>2024-07-11T10:09:46Z</time>
      </trkpt>
      <trkpt lat="43.65451" lon="1.32333">
        <ele>172.4</ele>
        <time>2024-07-11T10:09:47Z</time>
      </trkpt>
      <trkpt lat="43.65445" lon="1.32334">
        <ele>172.4</ele>
        <time>2024-07-11T10:09:48Z</time>
      </trkpt>
      <trkpt lat="43.65441" lon="1.32338">
        <ele>172.4</ele>
        <time>2024-07-11T10:09:49Z</time>
      </trkpt>
      <trkpt lat="43.65438" lon="1.32345">
        <ele>172.4</ele>
        <time>2024-07-11T10:09:50Z</time>
      </trkpt>
      <trkpt lat="43.65437" lon="1.32354">
        <ele>172.4</ele>
        <time>2024-07-11T10:09:51Z</time>
      </trkpt>
      <trkpt lat="43.65437" lon="1.32364">
        <ele>172.4</ele>
        <time>2024-07-11T10:09:52Z</time>
      </trkpt>
      <trkpt lat="43.65435" lon="1.32373">
        <ele>172.2</ele>
        <time>2024-07-11T10:09:53Z</time>
      </trkpt>
      <trkpt lat="43.65433" lon="1.32381">
        <ele>172.2</ele>
        <time>2024-07-11T10:09:54Z</time>
      </trkpt>
      <trkpt lat="43.65429" lon="1.3239">
        <ele>172.2</ele>
        <time>2024-07-11T10:09:55Z</time>
      </trkpt>
      <trkpt lat="43.65426" lon="1.32399">
        <ele>172</ele>
        <time>2024-07-11T10:09:56Z</time>
      </trkpt>
      <trkpt lat="43.65423" lon="1.32408">
        <ele>171.8</ele>
        <time>2024-07-11T10:09:57Z</time>
      </trkpt>
      <trkpt lat="43.65419" lon="1.32417">
        <ele>171.8</ele>
        <time>2024-07-11T10:09:58Z</time>
      </trkpt>
      <trkpt lat="43.65416" lon="1.32427">
        <ele>171.8</ele>
        <time>2024-07-11T10:09:59Z</time>
      </trkpt>
      <trkpt lat="43.65413" lon="1.32436">
        <ele>171.8</ele>
        <time>2024-07-11T10:10:00Z</time>
      </trkpt>
      <trkpt lat="43.65409" lon="1.32444">
        <ele>171.6</ele>
        <time>2024-07-11T10:10:01Z</time>
      </trkpt>
      <trkpt lat="43.65406" lon="1.32454">
        <ele>171.6</ele>
        <time>2024-07-11T10:10:02Z</time>
      </trkpt>
      <trkpt lat="43.65403" lon="1.32463">
        <ele>171.6</ele>
        <time>2024-07-11T10:10:03Z</time>
      </trkpt>
      <trkpt lat="43.65399" lon="1.32472">
        <ele>171.4</ele>
        <time>2024-07-11T10:10:04Z</time>
      </trkpt>
      <trkpt lat="43.65396" lon="1.32482">
        <ele>171.2</ele>
        <time>2024-07-11T10:10:05Z</time>
      </trkpt>
      <trkpt lat="43.65392" lon="1.32491">
        <ele>171.2</ele>
        <time>2024-07-11T10:10:06Z</time>
      </trkpt>
      <trkpt lat="43.65388" lon="1.32501">
        <ele>171</ele>
        <time>2024-07-11T10:10:07Z</time>
      </trkpt>
      <trkpt lat="43.65383" lon="1.3251">
        <ele>171</ele>
        <time>2024-07-11T10:10:08Z</time>
      </trkpt>
      <trkpt lat="43.65379" lon="1.3252">
        <ele>170.8</ele>
        <time>2024-07-11T10:10:09Z</time>
      </trkpt>
      <trkpt lat="43.65375" lon="1.3253">
        <ele>170.6</ele>
        <time>2024-07-11T10:10:10Z</time>
      </trkpt>
      <trkpt lat="43.65372" lon="1.3254">
        <ele>170.6</ele>
        <time>2024-07-11T10:10:11Z</time>
      </trkpt>
      <trkpt lat="43.6537" lon="1.3255">
        <ele>170.4</ele>
        <time>2024-07-11T10:10:12Z</time>
      </trkpt>
      <trkpt lat="43.65367" lon="1.32559">
        <ele>170.4</ele>
        <time>2024-07-11T10:10:13Z</time>
      </trkpt>
      <trkpt lat="43.65364" lon="1.32569">
        <ele>170</ele>
        <time>2024-07-11T10:10:14Z</time>
      </trkpt>
      <trkpt lat="43.65361" lon="1.32578">
        <ele>170</ele>
        <time>2024-07-11T10:10:15Z</time>
      </trkpt>
      <trkpt lat="43.65358" lon="1.32588">
        <ele>169.8</ele>
        <time>2024-07-11T10:10:16Z</time>
      </trkpt>
      <trkpt lat="43.65355" lon="1.32596">
        <ele>169.6</ele>
        <time>2024-07-11T10:10:17Z</time>
      </trkpt>
      <trkpt lat="43.65351" lon="1.32605">
        <ele>169.6</ele>
        <time>2024-07-11T10:10:18Z</time>
      </trkpt>
      <trkpt lat="43.65346" lon="1.32614">
        <ele>169.4</ele>
        <time>2024-07-11T10:10:19Z</time>
      </trkpt>
      <trkpt lat="43.65341" lon="1.32625">
        <ele>169.4</ele>
        <time>2024-07-11T10:10:20Z</time>
      </trkpt>
      <trkpt lat="43.65338" lon="1.32637">
        <ele>169.2</ele>
        <time>2024-07-11T10:10:21Z</time>
      </trkpt>
      <trkpt lat="43.65335" lon="1.32647">
        <ele>169</ele>
        <time>2024-07-11T10:10:22Z</time>
      </trkpt>
      <trkpt lat="43.65332" lon="1.32654">
        <ele>169</ele>
        <time>2024-07-11T10:10:23Z</time>
      </trkpt>
      <trkpt lat="43.65327" lon="1.32664">
        <ele>168.8</ele>
        <time>2024-07-11T10:10:24Z</time>
      </trkpt>
      <trkpt lat="43.65325" lon="1.32673">
        <ele>168.8</ele>
        <time>2024-07-11T10:10:25Z</time>
      </trkpt>
      <trkpt lat="43.65323" lon="1.32681">
        <ele>168.8</ele>
        <time>2024-07-11T10:10:26Z</time>
      </trkpt>
      <trkpt lat="43.65319" lon="1.32689">
        <ele>168.8</ele>
        <time>2024-07-11T10:10:27Z</time>
      </trkpt>
      <trkpt lat="43.65314" lon="1.327">
        <ele>168.6</ele>
        <time>2024-07-11T10:10:28Z</time>
      </trkpt>
      <trkpt lat="43.65314" lon="1.327">
        <ele>168.6</ele>
        <time>2024-07-11T10:10:29Z</time>
      </trkpt>
      <trkpt lat="43.65304" lon="1.32719">
        <ele>168.4</ele>
        <time>2024-07-11T10:10:30Z</time>
      </trkpt>
      <trkpt lat="43.65304" lon="1.32719">
        <ele>168.4</ele>
        <time>2024-07-11T10:10:31Z</time>
      </trkpt>
      <trkpt lat="43.65297" lon="1.32736">
        <ele>168.4</ele>
        <time>2024-07-11T10:10:32Z</time>
      </trkpt>
      <trkpt lat="43.65294" lon="1.32745">
        <ele>168.2</ele>
        <time>2024-07-11T10:10:33Z</time>
      </trkpt>
      <trkpt lat="43.6529" lon="1.32753">
        <ele>168</ele>
        <time>2024-07-11T10:10:34Z</time>
      </trkpt>
      <trkpt lat="43.65287" lon="1.32762">
        <ele>168</ele>
        <time>2024-07-11T10:10:35Z</time>
      </trkpt>
      <trkpt lat="43.65283" lon="1.3277">
        <ele>168</ele>
        <time>2024-07-11T10:10:36Z</time>
      </trkpt>
      <trkpt lat="43.6528" lon="1.32779">
        <ele>168</ele>
        <time>2024-07-11T10:10:37Z</time>
      </trkpt>
      <trkpt lat="43.65277" lon="1.32787">
        <ele>168</ele>
        <time>2024-07-11T10:10:38Z</time>
      </trkpt>
      <trkpt lat="43.65274" lon="1.32795">
        <ele>168</ele>
        <time>2024-07-11T10:10:39Z</time>
      </trkpt>
      <trkpt lat="43.65271" lon="1.32803">
        <ele>168</ele>
        <time>2024-07-11T10:10:40Z</time>
      </trkpt>
      <trkpt lat="43.65268" lon="1.32811">
        <ele>168</ele>
        <time>2024-07-11T10:10:41Z</time>
      </trkpt>
      <trkpt lat="43.65266" lon="1.32819">
        <ele>168</ele>
        <time>2024-07-11T10:10:42Z</time>
      </trkpt>
      <trkpt lat="43.65263" lon="1.32827">
        <ele>168</ele>
        <time>2024-07-11T10:10:43Z</time>
      </trkpt>
      <trkpt lat="43.6526" lon="1.32834">
        <ele>168</ele>
        <time>2024-07-11T10:10:44Z</time>
      </trkpt>
      <trkpt lat="43.65257" lon="1.32842">
        <ele>168</ele>
        <time>2024-07-11T10:10:45Z</time>
      </trkpt>
      <trkpt lat="43.65254" lon="1.32848">
        <ele>168</ele>
        <time>2024-07-11T10:10:46Z</time>
      </trkpt>
      <trkpt lat="43.65251" lon="1.32854">
        <ele>168</ele>
        <time>2024-07-11T10:10:47Z</time>
      </trkpt>
      <trkpt lat="43.65247" lon="1.3286">
        <ele>168.2</ele>
        <time>2024-07-11T10:10:48Z</time>
      </trkpt>
      <trkpt lat="43.65243" lon="1.32865">
        <ele>168.2</ele>
        <time>2024-07-11T10:10:49Z</time>
      </trkpt>
      <trkpt lat="43.65239" lon="1.32869">
        <ele>168.2</ele>
        <time>2024-07-11T10:10:50Z</time>
      </trkpt>
      <trkpt lat="43.65236" lon="1.32875">
        <ele>168.2</ele>
        <time>2024-07-11T10:10:51Z</time>
      </trkpt>
      <trkpt lat="43.65233" lon="1.32881">
        <ele>168.2</ele>
        <time>2024-07-11T10:10:52Z</time>
      </trkpt>
      <trkpt lat="43.65232" lon="1.32888">
        <ele>168.2</ele>
        <time>2024-07-11T10:10:53Z</time>
      </trkpt>
      <trkpt lat="43.65231" lon="1.32896">
        <ele>168.2</ele>
        <time>2024-07-11T10:10:54Z</time>
      </trkpt>
      <trkpt lat="43.65231" lon="1.32903">
        <ele>168.2</ele>
        <time>2024-07-11T10:10:55Z</time>
      </trkpt>
      <trkpt lat="43.65229" lon="1.32911">
        <ele>168.4</ele>
        <time>2024-07-11T10:10:56Z</time>
      </trkpt>
      <trkpt lat="43.65226" lon="1.32918">
        <ele>168.4</ele>
        <time>2024-07-11T10:10:57Z</time>
      </trkpt>
      <trkpt lat="43.65224" lon="1.32924">
        <ele>168.6</ele>
        <time>2024-07-11T10:10:58Z</time>
      </trkpt>
      <trkpt lat="43.65221" lon="1.32931">
        <ele>168.6</ele>
        <time>2024-07-11T10:10:59Z</time>
      </trkpt>
      <trkpt lat="43.65218" lon="1.32937">
        <ele>168.8</ele>
        <time>2024-07-11T10:11:00Z</time>
      </trkpt>
      <trkpt lat="43.65216" lon="1.32943">
        <ele>169</ele>
        <time>2024-07-11T10:11:01Z</time>
      </trkpt>
      <trkpt lat="43.65213" lon="1.32949">
        <ele>169.2</ele>
        <time>2024-07-11T10:11:02Z</time>
      </trkpt>
      <trkpt lat="43.65211" lon="1.32955">
        <ele>169.4</ele>
        <time>2024-07-11T10:11:03Z</time>
      </trkpt>
      <trkpt lat="43.65208" lon="1.32961">
        <ele>169.4</ele>
        <time>2024-07-11T10:11:04Z</time>
      </trkpt>
      <trkpt lat="43.65206" lon="1.32967">
        <ele>169.6</ele>
        <time>2024-07-11T10:11:05Z</time>
      </trkpt>
      <trkpt lat="43.65203" lon="1.32974">
        <ele>169.8</ele>
        <time>2024-07-11T10:11:06Z</time>
      </trkpt>
      <trkpt lat="43.65201" lon="1.32979">
        <ele>169.8</ele>
        <time>2024-07-11T10:11:07Z</time>
      </trkpt>
      <trkpt lat="43.65199" lon="1.32985">
        <ele>169.8</ele>
        <time>2024-07-11T10:11:08Z</time>
      </trkpt>
      <trkpt lat="43.65197" lon="1.32991">
        <ele>170</ele>
        <time>2024-07-11T10:11:09Z</time>
      </trkpt>
      <trkpt lat="43.65195" lon="1.32997">
        <ele>170.2</ele>
        <time>2024-07-11T10:11:10Z</time>
      </trkpt>
      <trkpt lat="43.65193" lon="1.33003">
        <ele>170.4</ele>
        <time>2024-07-11T10:11:11Z</time>
      </trkpt>
      <trkpt lat="43.6519" lon="1.33008">
        <ele>170.4</ele>
        <time>2024-07-11T10:11:12Z</time>
      </trkpt>
      <trkpt lat="43.65188" lon="1.33014">
        <ele>170.6</ele>
        <time>2024-07-11T10:11:13Z</time>
      </trkpt>
      <trkpt lat="43.65185" lon="1.3302">
        <ele>171</ele>
        <time>2024-07-11T10:11:14Z</time>
      </trkpt>
      <trkpt lat="43.65183" lon="1.33026">
        <ele>171.4</ele>
        <time>2024-07-11T10:11:15Z</time>
      </trkpt>
      <trkpt lat="43.65181" lon="1.33031">
        <ele>171.6</ele>
        <time>2024-07-11T10:11:16Z</time>
      </trkpt>
      <trkpt lat="43.65179" lon="1.33037">
        <ele>171.8</ele>
        <time>2024-07-11T10:11:17Z</time>
      </trkpt>
      <trkpt lat="43.65177" lon="1.33043">
        <ele>172.2</ele>
        <time>2024-07-11T10:11:18Z</time>
      </trkpt>
      <trkpt lat="43.65174" lon="1.33049">
        <ele>172.4</ele>
        <time>2024-07-11T10:11:19Z</time>
      </trkpt>
      <trkpt lat="43.65172" lon="1.33055">
        <ele>172.8</ele>
        <time>2024-07-11T10:11:20Z</time>
      </trkpt>
      <trkpt lat="43.6517" lon="1.3306">
        <ele>172.8</ele>
        <time>2024-07-11T10:11:21Z</time>
      </trkpt>
      <trkpt lat="43.65168" lon="1.33065">
        <ele>173.2</ele>
        <time>2024-07-11T10:11:22Z</time>
      </trkpt>
      <trkpt lat="43.65165" lon="1.33071">
        <ele>173.4</ele>
        <time>2024-07-11T10:11:23Z</time>
      </trkpt>
      <trkpt lat="43.65162" lon="1.33076">
        <ele>173.4</ele>
        <time>2024-07-11T10:11:24Z</time>
      </trkpt>
      <trkpt lat="43.6516" lon="1.33081">
        <ele>173.6</ele>
        <time>2024-07-11T10:11:25Z</time>
      </trkpt>
      <trkpt lat="43.65158" lon="1.33087">
        <ele>173.6</ele>
        <time>2024-07-11T10:11:26Z</time>
      </trkpt>
      <trkpt lat="43.65155" lon="1.33092">
        <ele>173.8</ele>
        <time>2024-07-11T10:11:27Z</time>
      </trkpt>
      <trkpt lat="43.65153" lon="1.33098">
        <ele>174</ele>
        <time>2024-07-11T10:11:28Z</time>
      </trkpt>
      <trkpt lat="43.65151" lon="1.33104">
        <ele>174</ele>
        <time>2024-07-11T10:11:29Z</time>
      </trkpt>
      <trkpt lat="43.65149" lon="1.33109">
        <ele>174.2</ele>
        <time>2024-07-11T10:11:30Z</time>
      </trkpt>
      <trkpt lat="43.65147" lon="1.33115">
        <ele>174.2</ele>
        <time>2024-07-11T10:11:31Z</time>
      </trkpt>
      <trkpt lat="43.65145" lon="1.3312">
        <ele>174.4</ele>
        <time>2024-07-11T10:11:32Z</time>
      </trkpt>
      <trkpt lat="43.65143" lon="1.33126">
        <ele>174.6</ele>
        <time>2024-07-11T10:11:33Z</time>
      </trkpt>
      <trkpt lat="43.65141" lon="1.33131">
        <ele>174.6</ele>
        <time>2024-07-11T10:11:34Z</time>
      </trkpt>
      <trkpt lat="43.65138" lon="1.33138">
        <ele>174.8</ele>
        <time>2024-07-11T10:11:35Z</time>
      </trkpt>
      <trkpt lat="43.65136" lon="1.33144">
        <ele>174.8</ele>
        <time>2024-07-11T10:11:36Z</time>
      </trkpt>
      <trkpt lat="43.65134" lon="1.33151">
        <ele>175</ele>
        <time>2024-07-11T10:11:37Z</time>
      </trkpt>
      <trkpt lat="43.65132" lon="1.33157">
        <ele>175</ele>
        <time>2024-07-11T10:11:38Z</time>
      </trkpt>
      <trkpt lat="43.6513" lon="1.33163">
        <ele>175</ele>
        <time>2024-07-11T10:11:39Z</time>
      </trkpt>
      <trkpt lat="43.6513" lon="1.33163">
        <ele>175.2</ele>
        <time>2024-07-11T10:11:40Z</time>
      </trkpt>
      <trkpt lat="43.65125" lon="1.33176">
        <ele>175.2</ele>
        <time>2024-07-11T10:11:41Z</time>
      </trkpt>
      <trkpt lat="43.65123" lon="1.33182">
        <ele>175.4</ele>
        <time>2024-07-11T10:11:42Z</time>
      </trkpt>
      <trkpt lat="43.65121" lon="1.33188">
        <ele>175.6</ele>
        <time>2024-07-11T10:11:43Z</time>
      </trkpt>
      <trkpt lat="43.65118" lon="1.33195">
        <ele>175.8</ele>
        <time>2024-07-11T10:11:44Z</time>
      </trkpt>
      <trkpt lat="43.65115" lon="1.33201">
        <ele>176</ele>
        <time>2024-07-11T10:11:45Z</time>
      </trkpt>
      <trkpt lat="43.65112" lon="1.33209">
        <ele>176</ele>
        <time>2024-07-11T10:11:46Z</time>
      </trkpt>
      <trkpt lat="43.6511" lon="1.33214">
        <ele>176.2</ele>
        <time>2024-07-11T10:11:47Z</time>
      </trkpt>
      <trkpt lat="43.65107" lon="1.33221">
        <ele>176.4</ele>
        <time>2024-07-11T10:11:48Z</time>
      </trkpt>
      <trkpt lat="43.65105" lon="1.33227">
        <ele>176.4</ele>
        <time>2024-07-11T10:11:49Z</time>
      </trkpt>
      <trkpt lat="43.65105" lon="1.33227">
        <ele>176.4</ele>
        <time>2024-07-11T10:11:50Z</time>
      </trkpt>
      <trkpt lat="43.651" lon="1.33239">
        <ele>176.4</ele>
        <time>2024-07-11T10:11:51Z</time>
      </trkpt>
      <trkpt lat="43.65098" lon="1.33245">
        <ele>176.4</ele>
        <time>2024-07-11T10:11:52Z</time>
      </trkpt>
      <trkpt lat="43.65096" lon="1.33251">
        <ele>176.4</ele>
        <time>2024-07-11T10:11:53Z</time>
      </trkpt>
      <trkpt lat="43.65093" lon="1.33257">
        <ele>176.4</ele>
        <time>2024-07-11T10:11:54Z</time>
      </trkpt>
      <trkpt lat="43.65093" lon="1.33257">
        <ele>176.4</ele>
        <time>2024-07-11T10:11:55Z</time>
      </trkpt>
      <trkpt lat="43.65088" lon="1.33267">
        <ele>176.4</ele>
        <time>2024-07-11T10:11:56Z</time>
      </trkpt>
      <trkpt lat="43.65086" lon="1.33272">
        <ele>176.4</ele>
        <time>2024-07-11T10:11:57Z</time>
      </trkpt>
      <trkpt lat="43.65084" lon="1.33277">
        <ele>176.4</ele>
        <time>2024-07-11T10:11:58Z</time>
      </trkpt>
      <trkpt lat="43.65083" lon="1.33282">
        <ele>176.4</ele>
        <time>2024-07-11T10:11:59Z</time>
      </trkpt>
      <trkpt lat="43.65082" lon="1.33288">
        <ele>176.4</ele>
        <time>2024-07-11T10:12:00Z</time>
      </trkpt>
      <trkpt lat="43.6508" lon="1.33294">
        <ele>176.4</ele>
        <time>2024-07-11T10:12:01Z</time>
      </trkpt>
      <trkpt lat="43.65077" lon="1.333">
        <ele>176.4</ele>
        <time>2024-07-11T10:12:02Z</time>
      </trkpt>
      <trkpt lat="43.65073" lon="1.33306">
        <ele>176.4</ele>
        <time>2024-07-11T10:12:03Z</time>
      </trkpt>
      <trkpt lat="43.65069" lon="1.33313">
        <ele>176.4</ele>
        <time>2024-07-11T10:12:04Z</time>
      </trkpt>
      <trkpt lat="43.65066" lon="1.3332">
        <ele>176.2</ele>
        <time>2024-07-11T10:12:05Z</time>
      </trkpt>
      <trkpt lat="43.65063" lon="1.33327">
        <ele>176.2</ele>
        <time>2024-07-11T10:12:06Z</time>
      </trkpt>
      <trkpt lat="43.65063" lon="1.33327">
        <ele>176.2</ele>
        <time>2024-07-11T10:12:07Z</time>
      </trkpt>
      <trkpt lat="43.65057" lon="1.33342">
        <ele>176.2</ele>
        <time>2024-07-11T10:12:08Z</time>
      </trkpt>
      <trkpt lat="43.65053" lon="1.3335">
        <ele>176</ele>
        <time>2024-07-11T10:12:09Z</time>
      </trkpt>
      <trkpt lat="43.65053" lon="1.3335">
        <ele>176</ele>
        <time>2024-07-11T10:12:10Z</time>
      </trkpt>
      <trkpt lat="43.65048" lon="1.33365">
        <ele>176</ele>
        <time>2024-07-11T10:12:11Z</time>
      </trkpt>
      <trkpt lat="43.65044" lon="1.33371">
        <ele>176</ele>
        <time>2024-07-11T10:12:12Z</time>
      </trkpt>
      <trkpt lat="43.6504" lon="1.33378">
        <ele>176</ele>
        <time>2024-07-11T10:12:13Z</time>
      </trkpt>
      <trkpt lat="43.65036" lon="1.33384">
        <ele>176</ele>
        <time>2024-07-11T10:12:14Z</time>
      </trkpt>
      <trkpt lat="43.65036" lon="1.33384">
        <ele>176</ele>
        <time>2024-07-11T10:12:15Z</time>
      </trkpt>
      <trkpt lat="43.65025" lon="1.33396">
        <ele>176</ele>
        <time>2024-07-11T10:12:16Z</time>
      </trkpt>
      <trkpt lat="43.65019" lon="1.334">
        <ele>176</ele>
        <time>2024-07-11T10:12:17Z</time>
      </trkpt>
      <trkpt lat="43.65014" lon="1.33405">
        <ele>176</ele>
        <time>2024-07-11T10:12:18Z</time>
      </trkpt>
      <trkpt lat="43.65008" lon="1.33411">
        <ele>176</ele>
        <time>2024-07-11T10:12:19Z</time>
      </trkpt>
      <trkpt lat="43.65003" lon="1.33416">
        <ele>176</ele>
        <time>2024-07-11T10:12:20Z</time>
      </trkpt>
      <trkpt lat="43.64997" lon="1.33422">
        <ele>175.8</ele>
        <time>2024-07-11T10:12:21Z</time>
      </trkpt>
      <trkpt lat="43.64991" lon="1.33427">
        <ele>175.8</ele>
        <time>2024-07-11T10:12:22Z</time>
      </trkpt>
      <trkpt lat="43.64985" lon="1.33431">
        <ele>175.8</ele>
        <time>2024-07-11T10:12:23Z</time>
      </trkpt>
      <trkpt lat="43.64979" lon="1.33435">
        <ele>175.6</ele>
        <time>2024-07-11T10:12:24Z</time>
      </trkpt>
      <trkpt lat="43.64973" lon="1.33439">
        <ele>175.6</ele>
        <time>2024-07-11T10:12:25Z</time>
      </trkpt>
      <trkpt lat="43.64966" lon="1.33442">
        <ele>175.6</ele>
        <time>2024-07-11T10:12:26Z</time>
      </trkpt>
      <trkpt lat="43.64966" lon="1.33442">
        <ele>175.8</ele>
        <time>2024-07-11T10:12:27Z</time>
      </trkpt>
      <trkpt lat="43.64954" lon="1.33449">
        <ele>175.8</ele>
        <time>2024-07-11T10:12:28Z</time>
      </trkpt>
      <trkpt lat="43.64948" lon="1.33452">
        <ele>175.8</ele>
        <time>2024-07-11T10:12:29Z</time>
      </trkpt>
      <trkpt lat="43.64941" lon="1.33456">
        <ele>175.8</ele>
        <time>2024-07-11T10:12:30Z</time>
      </trkpt>
      <trkpt lat="43.64936" lon="1.33459">
        <ele>176</ele>
        <time>2024-07-11T10:12:31Z</time>
      </trkpt>
      <trkpt lat="43.6493" lon="1.33463">
        <ele>176</ele>
        <time>2024-07-11T10:12:32Z</time>
      </trkpt>
      <trkpt lat="43.64924" lon="1.33466">
        <ele>176.2</ele>
        <time>2024-07-11T10:12:33Z</time>
      </trkpt>
      <trkpt lat="43.64918" lon="1.33469">
        <ele>176.2</ele>
        <time>2024-07-11T10:12:34Z</time>
      </trkpt>
      <trkpt lat="43.64912" lon="1.33473">
        <ele>176.4</ele>
        <time>2024-07-11T10:12:35Z</time>
      </trkpt>
      <trkpt lat="43.64907" lon="1.33476">
        <ele>176.4</ele>
        <time>2024-07-11T10:12:36Z</time>
      </trkpt>
      <trkpt lat="43.64902" lon="1.3348">
        <ele>176.4</ele>
        <time>2024-07-11T10:12:37Z</time>
      </trkpt>
      <trkpt lat="43.64897" lon="1.33484">
        <ele>176.4</ele>
        <time>2024-07-11T10:12:38Z</time>
      </trkpt>
      <trkpt lat="43.64892" lon="1.33488">
        <ele>176.6</ele>
        <time>2024-07-11T10:12:39Z</time>
      </trkpt>
      <trkpt lat="43.64887" lon="1.33491">
        <ele>176.6</ele>
        <time>2024-07-11T10:12:40Z</time>
      </trkpt>
      <trkpt lat="43.64881" lon="1.33493">
        <ele>176.6</ele>
        <time>2024-07-11T10:12:41Z</time>
      </trkpt>
      <trkpt lat="43.64876" lon="1.33497">
        <ele>176.8</ele>
        <time>2024-07-11T10:12:42Z</time>
      </trkpt>
      <trkpt lat="43.64871" lon="1.33501">
        <ele>176.8</ele>
        <time>2024-07-11T10:12:43Z</time>
      </trkpt>
      <trkpt lat="43.64865" lon="1.33504">
        <ele>177</ele>
        <time>2024-07-11T10:12:44Z</time>
      </trkpt>
      <trkpt lat="43.6486" lon="1.33506">
        <ele>177</ele>
        <time>2024-07-11T10:12:45Z</time>
      </trkpt>
      <trkpt lat="43.64854" lon="1.33509">
        <ele>177.4</ele>
        <time>2024-07-11T10:12:46Z</time>
      </trkpt>
      <trkpt lat="43.64849" lon="1.33512">
        <ele>177.4</ele>
        <time>2024-07-11T10:12:47Z</time>
      </trkpt>
      <trkpt lat="43.64843" lon="1.33516">
        <ele>177.6</ele>
        <time>2024-07-11T10:12:48Z</time>
      </trkpt>
      <trkpt lat="43.64838" lon="1.33519">
        <ele>177.8</ele>
        <time>2024-07-11T10:12:49Z</time>
      </trkpt>
      <trkpt lat="43.64833" lon="1.33522">
        <ele>177.8</ele>
        <time>2024-07-11T10:12:50Z</time>
      </trkpt>
      <trkpt lat="43.64827" lon="1.33526">
        <ele>177.8</ele>
        <time>2024-07-11T10:12:51Z</time>
      </trkpt>
      <trkpt lat="43.64822" lon="1.33529">
        <ele>177.8</ele>
        <time>2024-07-11T10:12:52Z</time>
      </trkpt>
      <trkpt lat="43.64816" lon="1.33532">
        <ele>178</ele>
        <time>2024-07-11T10:12:53Z</time>
      </trkpt>
      <trkpt lat="43.64811" lon="1.33535">
        <ele>178</ele>
        <time>2024-07-11T10:12:54Z</time>
      </trkpt>
      <trkpt lat="43.64805" lon="1.33539">
        <ele>178</ele>
        <time>2024-07-11T10:12:55Z</time>
      </trkpt>
      <trkpt lat="43.648" lon="1.33542">
        <ele>178</ele>
        <time>2024-07-11T10:12:56Z</time>
      </trkpt>
      <trkpt lat="43.64795" lon="1.33545">
        <ele>178</ele>
        <time>2024-07-11T10:12:57Z</time>
      </trkpt>
      <trkpt lat="43.64789" lon="1.33548">
        <ele>178</ele>
        <time>2024-07-11T10:12:58Z</time>
      </trkpt>
      <trkpt lat="43.64783" lon="1.33552">
        <ele>178</ele>
        <time>2024-07-11T10:12:59Z</time>
      </trkpt>
      <trkpt lat="43.64777" lon="1.33556">
        <ele>178</ele>
        <time>2024-07-11T10:13:00Z</time>
      </trkpt>
      <trkpt lat="43.64771" lon="1.3356">
        <ele>178</ele>
        <time>2024-07-11T10:13:01Z</time>
      </trkpt>
      <trkpt lat="43.64766" lon="1.33564">
        <ele>178</ele>
        <time>2024-07-11T10:13:02Z</time>
      </trkpt>
      <trkpt lat="43.64759" lon="1.33567">
        <ele>178</ele>
        <time>2024-07-11T10:13:03Z</time>
      </trkpt>
      <trkpt lat="43.64754" lon="1.33571">
        <ele>178</ele>
        <time>2024-07-11T10:13:04Z</time>
      </trkpt>
      <trkpt lat="43.64747" lon="1.33575">
        <ele>177.8</ele>
        <time>2024-07-11T10:13:05Z</time>
      </trkpt>
      <trkpt lat="43.64742" lon="1.33579">
        <ele>177.8</ele>
        <time>2024-07-11T10:13:06Z</time>
      </trkpt>
      <trkpt lat="43.64736" lon="1.33581">
        <ele>177.8</ele>
        <time>2024-07-11T10:13:07Z</time>
      </trkpt>
      <trkpt lat="43.64731" lon="1.33583">
        <ele>177.8</ele>
        <time>2024-07-11T10:13:08Z</time>
      </trkpt>
      <trkpt lat="43.64725" lon="1.33586">
        <ele>177.8</ele>
        <time>2024-07-11T10:13:09Z</time>
      </trkpt>
      <trkpt lat="43.6472" lon="1.33588">
        <ele>177.8</ele>
        <time>2024-07-11T10:13:10Z</time>
      </trkpt>
      <trkpt lat="43.64714" lon="1.33591">
        <ele>177.8</ele>
        <time>2024-07-11T10:13:11Z</time>
      </trkpt>
      <trkpt lat="43.64709" lon="1.33593">
        <ele>177.8</ele>
        <time>2024-07-11T10:13:12Z</time>
      </trkpt>
      <trkpt lat="43.64703" lon="1.33595">
        <ele>177.8</ele>
        <time>2024-07-11T10:13:13Z</time>
      </trkpt>
      <trkpt lat="43.64698" lon="1.33595">
        <ele>177.8</ele>
        <time>2024-07-11T10:13:14Z</time>
      </trkpt>
      <trkpt lat="43.64693" lon="1.33593">
        <ele>177.8</ele>
        <time>2024-07-11T10:13:15Z</time>
      </trkpt>
      <trkpt lat="43.64687" lon="1.33591">
        <ele>178</ele>
        <time>2024-07-11T10:13:16Z</time>
      </trkpt>
      <trkpt lat="43.64682" lon="1.3359">
        <ele>178</ele>
        <time>2024-07-11T10:13:17Z</time>
      </trkpt>
      <trkpt lat="43.64677" lon="1.33591">
        <ele>178</ele>
        <time>2024-07-11T10:13:18Z</time>
      </trkpt>
      <trkpt lat="43.64671" lon="1.33592">
        <ele>178.2</ele>
        <time>2024-07-11T10:13:19Z</time>
      </trkpt>
      <trkpt lat="43.64666" lon="1.33592">
        <ele>178.2</ele>
        <time>2024-07-11T10:13:20Z</time>
      </trkpt>
      <trkpt lat="43.64661" lon="1.33592">
        <ele>178.2</ele>
        <time>2024-07-11T10:13:21Z</time>
      </trkpt>
      <trkpt lat="43.64656" lon="1.3359">
        <ele>178.2</ele>
        <time>2024-07-11T10:13:22Z</time>
      </trkpt>
      <trkpt lat="43.64652" lon="1.33587">
        <ele>178.4</ele>
        <time>2024-07-11T10:13:23Z</time>
      </trkpt>
      <trkpt lat="43.64648" lon="1.33584">
        <ele>178.4</ele>
        <time>2024-07-11T10:13:24Z</time>
      </trkpt>
      <trkpt lat="43.64644" lon="1.33581">
        <ele>178.4</ele>
        <time>2024-07-11T10:13:25Z</time>
      </trkpt>
      <trkpt lat="43.6464" lon="1.33577">
        <ele>178.6</ele>
        <time>2024-07-11T10:13:26Z</time>
      </trkpt>
      <trkpt lat="43.64636" lon="1.33574">
        <ele>178.8</ele>
        <time>2024-07-11T10:13:27Z</time>
      </trkpt>
      <trkpt lat="43.64632" lon="1.33571">
        <ele>179</ele>
        <time>2024-07-11T10:13:28Z</time>
      </trkpt>
      <trkpt lat="43.64628" lon="1.33567">
        <ele>179.2</ele>
        <time>2024-07-11T10:13:29Z</time>
      </trkpt>
      <trkpt lat="43.64628" lon="1.33567">
        <ele>179.4</ele>
        <time>2024-07-11T10:13:30Z</time>
      </trkpt>
      <trkpt lat="43.64621" lon="1.3356">
        <ele>179.4</ele>
        <time>2024-07-11T10:13:31Z</time>
      </trkpt>
      <trkpt lat="43.64617" lon="1.33556">
        <ele>179.8</ele>
        <time>2024-07-11T10:13:32Z</time>
      </trkpt>
      <trkpt lat="43.64613" lon="1.33552">
        <ele>180</ele>
        <time>2024-07-11T10:13:33Z</time>
      </trkpt>
      <trkpt lat="43.64609" lon="1.33549">
        <ele>180.2</ele>
        <time>2024-07-11T10:13:34Z</time>
      </trkpt>
      <trkpt lat="43.64606" lon="1.33545">
        <ele>180.4</ele>
        <time>2024-07-11T10:13:35Z</time>
      </trkpt>
      <trkpt lat="43.64602" lon="1.33542">
        <ele>180.6</ele>
        <time>2024-07-11T10:13:36Z</time>
      </trkpt>
      <trkpt lat="43.64599" lon="1.33539">
        <ele>181.2</ele>
        <time>2024-07-11T10:13:37Z</time>
      </trkpt>
      <trkpt lat="43.64595" lon="1.33535">
        <ele>181.2</ele>
        <time>2024-07-11T10:13:38Z</time>
      </trkpt>
      <trkpt lat="43.64592" lon="1.33532">
        <ele>181.6</ele>
        <time>2024-07-11T10:13:39Z</time>
      </trkpt>
      <trkpt lat="43.64588" lon="1.33529">
        <ele>181.8</ele>
        <time>2024-07-11T10:13:40Z</time>
      </trkpt>
      <trkpt lat="43.64585" lon="1.33526">
        <ele>182</ele>
        <time>2024-07-11T10:13:41Z</time>
      </trkpt>
      <trkpt lat="43.64581" lon="1.33523">
        <ele>182</ele>
        <time>2024-07-11T10:13:42Z</time>
      </trkpt>
      <trkpt lat="43.64578" lon="1.3352">
        <ele>182.2</ele>
        <time>2024-07-11T10:13:43Z</time>
      </trkpt>
      <trkpt lat="43.64575" lon="1.33516">
        <ele>182.4</ele>
        <time>2024-07-11T10:13:44Z</time>
      </trkpt>
      <trkpt lat="43.64571" lon="1.33513">
        <ele>182.6</ele>
        <time>2024-07-11T10:13:45Z</time>
      </trkpt>
      <trkpt lat="43.64568" lon="1.3351">
        <ele>182.6</ele>
        <time>2024-07-11T10:13:46Z</time>
      </trkpt>
      <trkpt lat="43.64564" lon="1.33507">
        <ele>182.8</ele>
        <time>2024-07-11T10:13:47Z</time>
      </trkpt>
      <trkpt lat="43.64561" lon="1.33504">
        <ele>183</ele>
        <time>2024-07-11T10:13:48Z</time>
      </trkpt>
      <trkpt lat="43.64558" lon="1.33502">
        <ele>183.4</ele>
        <time>2024-07-11T10:13:49Z</time>
      </trkpt>
      <trkpt lat="43.64554" lon="1.33499">
        <ele>183.8</ele>
        <time>2024-07-11T10:13:50Z</time>
      </trkpt>
      <trkpt lat="43.64551" lon="1.33496">
        <ele>183.8</ele>
        <time>2024-07-11T10:13:51Z</time>
      </trkpt>
      <trkpt lat="43.64547" lon="1.33494">
        <ele>184</ele>
        <time>2024-07-11T10:13:52Z</time>
      </trkpt>
      <trkpt lat="43.64544" lon="1.33491">
        <ele>184</ele>
        <time>2024-07-11T10:13:53Z</time>
      </trkpt>
      <trkpt lat="43.64541" lon="1.33488">
        <ele>184.2</ele>
        <time>2024-07-11T10:13:54Z</time>
      </trkpt>
      <trkpt lat="43.64537" lon="1.33486">
        <ele>184.4</ele>
        <time>2024-07-11T10:13:55Z</time>
      </trkpt>
      <trkpt lat="43.64533" lon="1.33483">
        <ele>184.6</ele>
        <time>2024-07-11T10:13:56Z</time>
      </trkpt>
      <trkpt lat="43.64533" lon="1.33483">
        <ele>185</ele>
        <time>2024-07-11T10:13:57Z</time>
      </trkpt>
      <trkpt lat="43.64526" lon="1.33478">
        <ele>185.2</ele>
        <time>2024-07-11T10:13:58Z</time>
      </trkpt>
      <trkpt lat="43.64523" lon="1.33476">
        <ele>185.4</ele>
        <time>2024-07-11T10:13:59Z</time>
      </trkpt>
      <trkpt lat="43.64519" lon="1.33474">
        <ele>185.4</ele>
        <time>2024-07-11T10:14:00Z</time>
      </trkpt>
      <trkpt lat="43.64516" lon="1.33471">
        <ele>185.8</ele>
        <time>2024-07-11T10:14:01Z</time>
      </trkpt>
      <trkpt lat="43.64512" lon="1.33469">
        <ele>185.8</ele>
        <time>2024-07-11T10:14:02Z</time>
      </trkpt>
      <trkpt lat="43.64509" lon="1.33467">
        <ele>185.8</ele>
        <time>2024-07-11T10:14:03Z</time>
      </trkpt>
      <trkpt lat="43.64505" lon="1.33465">
        <ele>186</ele>
        <time>2024-07-11T10:14:04Z</time>
      </trkpt>
      <trkpt lat="43.64502" lon="1.33463">
        <ele>186.2</ele>
        <time>2024-07-11T10:14:05Z</time>
      </trkpt>
      <trkpt lat="43.64498" lon="1.33461">
        <ele>186.4</ele>
        <time>2024-07-11T10:14:06Z</time>
      </trkpt>
      <trkpt lat="43.64495" lon="1.33459">
        <ele>186.6</ele>
        <time>2024-07-11T10:14:07Z</time>
      </trkpt>
      <trkpt lat="43.64491" lon="1.33457">
        <ele>186.8</ele>
        <time>2024-07-11T10:14:08Z</time>
      </trkpt>
      <trkpt lat="43.64488" lon="1.33456">
        <ele>187</ele>
        <time>2024-07-11T10:14:09Z</time>
      </trkpt>
      <trkpt lat="43.64484" lon="1.33454">
        <ele>187.2</ele>
        <time>2024-07-11T10:14:10Z</time>
      </trkpt>
      <trkpt lat="43.64481" lon="1.33452">
        <ele>187.6</ele>
        <time>2024-07-11T10:14:11Z</time>
      </trkpt>
      <trkpt lat="43.64477" lon="1.33451">
        <ele>187.8</ele>
        <time>2024-07-11T10:14:12Z</time>
      </trkpt>
      <trkpt lat="43.64473" lon="1.33449">
        <ele>188</ele>
        <time>2024-07-11T10:14:13Z</time>
      </trkpt>
      <trkpt lat="43.64469" lon="1.33447">
        <ele>188.2</ele>
        <time>2024-07-11T10:14:14Z</time>
      </trkpt>
      <trkpt lat="43.64466" lon="1.33446">
        <ele>188.2</ele>
        <time>2024-07-11T10:14:15Z</time>
      </trkpt>
      <trkpt lat="43.64462" lon="1.33444">
        <ele>188.4</ele>
        <time>2024-07-11T10:14:16Z</time>
      </trkpt>
      <trkpt lat="43.64458" lon="1.33443">
        <ele>188.4</ele>
        <time>2024-07-11T10:14:17Z</time>
      </trkpt>
      <trkpt lat="43.64454" lon="1.33441">
        <ele>188.4</ele>
        <time>2024-07-11T10:14:18Z</time>
      </trkpt>
      <trkpt lat="43.64454" lon="1.33441">
        <ele>188.6</ele>
        <time>2024-07-11T10:14:19Z</time>
      </trkpt>
      <trkpt lat="43.64447" lon="1.33437">
        <ele>188.8</ele>
        <time>2024-07-11T10:14:20Z</time>
      </trkpt>
      <trkpt lat="43.64443" lon="1.33436">
        <ele>189</ele>
        <time>2024-07-11T10:14:21Z</time>
      </trkpt>
      <trkpt lat="43.6444" lon="1.33434">
        <ele>189</ele>
        <time>2024-07-11T10:14:22Z</time>
      </trkpt>
      <trkpt lat="43.64436" lon="1.33433">
        <ele>189</ele>
        <time>2024-07-11T10:14:23Z</time>
      </trkpt>
      <trkpt lat="43.64432" lon="1.33432">
        <ele>189.2</ele>
        <time>2024-07-11T10:14:24Z</time>
      </trkpt>
      <trkpt lat="43.64429" lon="1.3343">
        <ele>189.2</ele>
        <time>2024-07-11T10:14:25Z</time>
      </trkpt>
      <trkpt lat="43.64425" lon="1.33429">
        <ele>189.6</ele>
        <time>2024-07-11T10:14:26Z</time>
      </trkpt>
      <trkpt lat="43.64421" lon="1.33428">
        <ele>189.8</ele>
        <time>2024-07-11T10:14:27Z</time>
      </trkpt>
      <trkpt lat="43.64417" lon="1.33426">
        <ele>190</ele>
        <time>2024-07-11T10:14:28Z</time>
      </trkpt>
      <trkpt lat="43.64413" lon="1.33425">
        <ele>190.4</ele>
        <time>2024-07-11T10:14:29Z</time>
      </trkpt>
      <trkpt lat="43.64409" lon="1.33424">
        <ele>190.4</ele>
        <time>2024-07-11T10:14:30Z</time>
      </trkpt>
      <trkpt lat="43.64405" lon="1.33422">
        <ele>190.8</ele>
        <time>2024-07-11T10:14:31Z</time>
      </trkpt>
      <trkpt lat="43.64401" lon="1.33421">
        <ele>190.8</ele>
        <time>2024-07-11T10:14:32Z</time>
      </trkpt>
      <trkpt lat="43.64398" lon="1.3342">
        <ele>191</ele>
        <time>2024-07-11T10:14:33Z</time>
      </trkpt>
      <trkpt lat="43.64398" lon="1.3342">
        <ele>191.4</ele>
        <time>2024-07-11T10:14:34Z</time>
      </trkpt>
      <trkpt lat="43.6439" lon="1.33417">
        <ele>191.6</ele>
        <time>2024-07-11T10:14:35Z</time>
      </trkpt>
      <trkpt lat="43.64386" lon="1.33416">
        <ele>192</ele>
        <time>2024-07-11T10:14:36Z</time>
      </trkpt>
      <trkpt lat="43.64382" lon="1.33415">
        <ele>192</ele>
        <time>2024-07-11T10:14:37Z</time>
      </trkpt>
      <trkpt lat="43.64379" lon="1.33413">
        <ele>192.2</ele>
        <time>2024-07-11T10:14:38Z</time>
      </trkpt>
      <trkpt lat="43.64379" lon="1.33413">
        <ele>192.4</ele>
        <time>2024-07-11T10:14:39Z</time>
      </trkpt>
      <trkpt lat="43.64371" lon="1.33411">
        <ele>192.6</ele>
        <time>2024-07-11T10:14:40Z</time>
      </trkpt>
      <trkpt lat="43.64367" lon="1.3341">
        <ele>192.8</ele>
        <time>2024-07-11T10:14:41Z</time>
      </trkpt>
      <trkpt lat="43.64364" lon="1.33408">
        <ele>193</ele>
        <time>2024-07-11T10:14:42Z</time>
      </trkpt>
      <trkpt lat="43.6436" lon="1.33407">
        <ele>193.2</ele>
        <time>2024-07-11T10:14:43Z</time>
      </trkpt>
      <trkpt lat="43.64356" lon="1.33406">
        <ele>193.6</ele>
        <time>2024-07-11T10:14:44Z</time>
      </trkpt>
      <trkpt lat="43.64352" lon="1.33405">
        <ele>193.8</ele>
        <time>2024-07-11T10:14:45Z</time>
      </trkpt>
      <trkpt lat="43.64348" lon="1.33403">
        <ele>194</ele>
        <time>2024-07-11T10:14:46Z</time>
      </trkpt>
      <trkpt lat="43.64344" lon="1.33401">
        <ele>194.2</ele>
        <time>2024-07-11T10:14:47Z</time>
      </trkpt>
      <trkpt lat="43.6434" lon="1.334">
        <ele>194.4</ele>
        <time>2024-07-11T10:14:48Z</time>
      </trkpt>
      <trkpt lat="43.64336" lon="1.33399">
        <ele>194.6</ele>
        <time>2024-07-11T10:14:49Z</time>
      </trkpt>
      <trkpt lat="43.64332" lon="1.33398">
        <ele>194.8</ele>
        <time>2024-07-11T10:14:50Z</time>
      </trkpt>
      <trkpt lat="43.64328" lon="1.33396">
        <ele>195</ele>
        <time>2024-07-11T10:14:51Z</time>
      </trkpt>
      <trkpt lat="43.64324" lon="1.33395">
        <ele>195.2</ele>
        <time>2024-07-11T10:14:52Z</time>
      </trkpt>
      <trkpt lat="43.6432" lon="1.33393">
        <ele>195.2</ele>
        <time>2024-07-11T10:14:53Z</time>
      </trkpt>
      <trkpt lat="43.64316" lon="1.33392">
        <ele>195.2</ele>
        <time>2024-07-11T10:14:54Z</time>
      </trkpt>
      <trkpt lat="43.64312" lon="1.3339">
        <ele>195.4</ele>
        <time>2024-07-11T10:14:55Z</time>
      </trkpt>
      <trkpt lat="43.64312" lon="1.3339">
        <ele>195.6</ele>
        <time>2024-07-11T10:14:56Z</time>
      </trkpt>
      <trkpt lat="43.64303" lon="1.33387">
        <ele>195.8</ele>
        <time>2024-07-11T10:14:57Z</time>
      </trkpt>
      <trkpt lat="43.64299" lon="1.33386">
        <ele>196</ele>
        <time>2024-07-11T10:14:58Z</time>
      </trkpt>
      <trkpt lat="43.64294" lon="1.33384">
        <ele>196</ele>
        <time>2024-07-11T10:14:59Z</time>
      </trkpt>
      <trkpt lat="43.6429" lon="1.33382">
        <ele>196.2</ele>
        <time>2024-07-11T10:15:00Z</time>
      </trkpt>
      <trkpt lat="43.6429" lon="1.33382">
        <ele>196.4</ele>
        <time>2024-07-11T10:15:01Z</time>
      </trkpt>
      <trkpt lat="43.64281" lon="1.33379">
        <ele>196.6</ele>
        <time>2024-07-11T10:15:02Z</time>
      </trkpt>
      <trkpt lat="43.64276" lon="1.33378">
        <ele>196.6</ele>
        <time>2024-07-11T10:15:03Z</time>
      </trkpt>
      <trkpt lat="43.64271" lon="1.33376">
        <ele>196.6</ele>
        <time>2024-07-11T10:15:04Z</time>
      </trkpt>
      <trkpt lat="43.64267" lon="1.33374">
        <ele>197</ele>
        <time>2024-07-11T10:15:05Z</time>
      </trkpt>
      <trkpt lat="43.64262" lon="1.33373">
        <ele>197</ele>
        <time>2024-07-11T10:15:06Z</time>
      </trkpt>
      <trkpt lat="43.64257" lon="1.33371">
        <ele>197</ele>
        <time>2024-07-11T10:15:07Z</time>
      </trkpt>
      <trkpt lat="43.64252" lon="1.33369">
        <ele>197.2</ele>
        <time>2024-07-11T10:15:08Z</time>
      </trkpt>
      <trkpt lat="43.64247" lon="1.33368">
        <ele>197</ele>
        <time>2024-07-11T10:15:09Z</time>
      </trkpt>
      <trkpt lat="43.64242" lon="1.33366">
        <ele>197</ele>
        <time>2024-07-11T10:15:10Z</time>
      </trkpt>
      <trkpt lat="43.64237" lon="1.33364">
        <ele>197</ele>
        <time>2024-07-11T10:15:11Z</time>
      </trkpt>
      <trkpt lat="43.64232" lon="1.33362">
        <ele>197.2</ele>
        <time>2024-07-11T10:15:12Z</time>
      </trkpt>
      <trkpt lat="43.64227" lon="1.33361">
        <ele>197.2</ele>
        <time>2024-07-11T10:15:13Z</time>
      </trkpt>
      <trkpt lat="43.64222" lon="1.33359">
        <ele>197.4</ele>
        <time>2024-07-11T10:15:14Z</time>
      </trkpt>
      <trkpt lat="43.64217" lon="1.33357">
        <ele>197.6</ele>
        <time>2024-07-11T10:15:15Z</time>
      </trkpt>
      <trkpt lat="43.64217" lon="1.33357">
        <ele>197.6</ele>
        <time>2024-07-11T10:15:16Z</time>
      </trkpt>
      <trkpt lat="43.64206" lon="1.33353">
        <ele>197.6</ele>
        <time>2024-07-11T10:15:17Z</time>
      </trkpt>
      <trkpt lat="43.64201" lon="1.33352">
        <ele>197.8</ele>
        <time>2024-07-11T10:15:18Z</time>
      </trkpt>
      <trkpt lat="43.64195" lon="1.3335">
        <ele>197.8</ele>
        <time>2024-07-11T10:15:19Z</time>
      </trkpt>
      <trkpt lat="43.6419" lon="1.33348">
        <ele>197.8</ele>
        <time>2024-07-11T10:15:20Z</time>
      </trkpt>
      <trkpt lat="43.64185" lon="1.33346">
        <ele>197.6</ele>
        <time>2024-07-11T10:15:21Z</time>
      </trkpt>
      <trkpt lat="43.64179" lon="1.33344">
        <ele>197.8</ele>
        <time>2024-07-11T10:15:22Z</time>
      </trkpt>
      <trkpt lat="43.64174" lon="1.33342">
        <ele>197.8</ele>
        <time>2024-07-11T10:15:23Z</time>
      </trkpt>
      <trkpt lat="43.64168" lon="1.3334">
        <ele>197.8</ele>
        <time>2024-07-11T10:15:24Z</time>
      </trkpt>
      <trkpt lat="43.64162" lon="1.33339">
        <ele>198</ele>
        <time>2024-07-11T10:15:25Z</time>
      </trkpt>
      <trkpt lat="43.64157" lon="1.33337">
        <ele>198</ele>
        <time>2024-07-11T10:15:26Z</time>
      </trkpt>
      <trkpt lat="43.64151" lon="1.33335">
        <ele>198</ele>
        <time>2024-07-11T10:15:27Z</time>
      </trkpt>
      <trkpt lat="43.64145" lon="1.33334">
        <ele>198</ele>
        <time>2024-07-11T10:15:28Z</time>
      </trkpt>
      <trkpt lat="43.64139" lon="1.33332">
        <ele>198</ele>
        <time>2024-07-11T10:15:29Z</time>
      </trkpt>
      <trkpt lat="43.64133" lon="1.33331">
        <ele>198</ele>
        <time>2024-07-11T10:15:30Z</time>
      </trkpt>
      <trkpt lat="43.64127" lon="1.33329">
        <ele>198</ele>
        <time>2024-07-11T10:15:31Z</time>
      </trkpt>
      <trkpt lat="43.64121" lon="1.33328">
        <ele>198.2</ele>
        <time>2024-07-11T10:15:32Z</time>
      </trkpt>
      <trkpt lat="43.64114" lon="1.33326">
        <ele>198.2</ele>
        <time>2024-07-11T10:15:33Z</time>
      </trkpt>
      <trkpt lat="43.64108" lon="1.33325">
        <ele>198.2</ele>
        <time>2024-07-11T10:15:34Z</time>
      </trkpt>
      <trkpt lat="43.64102" lon="1.33323">
        <ele>198.2</ele>
        <time>2024-07-11T10:15:35Z</time>
      </trkpt>
      <trkpt lat="43.64095" lon="1.33322">
        <ele>198.2</ele>
        <time>2024-07-11T10:15:36Z</time>
      </trkpt>
      <trkpt lat="43.64089" lon="1.3332">
        <ele>198.2</ele>
        <time>2024-07-11T10:15:37Z</time>
      </trkpt>
      <trkpt lat="43.64082" lon="1.33319">
        <ele>198.2</ele>
        <time>2024-07-11T10:15:38Z</time>
      </trkpt>
      <trkpt lat="43.64076" lon="1.33317">
        <ele>198.2</ele>
        <time>2024-07-11T10:15:39Z</time>
      </trkpt>
      <trkpt lat="43.64069" lon="1.33315">
        <ele>198.2</ele>
        <time>2024-07-11T10:15:40Z</time>
      </trkpt>
      <trkpt lat="43.64069" lon="1.33315">
        <ele>198.2</ele>
        <time>2024-07-11T10:15:41Z</time>
      </trkpt>
      <trkpt lat="43.64056" lon="1.33312">
        <ele>198.2</ele>
        <time>2024-07-11T10:15:42Z</time>
      </trkpt>
      <trkpt lat="43.6405" lon="1.33311">
        <ele>198.2</ele>
        <time>2024-07-11T10:15:43Z</time>
      </trkpt>
      <trkpt lat="43.64043" lon="1.33309">
        <ele>198.2</ele>
        <time>2024-07-11T10:15:44Z</time>
      </trkpt>
      <trkpt lat="43.64037" lon="1.33307">
        <ele>198.2</ele>
        <time>2024-07-11T10:15:45Z</time>
      </trkpt>
      <trkpt lat="43.64031" lon="1.33306">
        <ele>198.2</ele>
        <time>2024-07-11T10:15:46Z</time>
      </trkpt>
      <trkpt lat="43.64025" lon="1.33304">
        <ele>198.2</ele>
        <time>2024-07-11T10:15:47Z</time>
      </trkpt>
      <trkpt lat="43.64018" lon="1.33303">
        <ele>198.2</ele>
        <time>2024-07-11T10:15:48Z</time>
      </trkpt>
      <trkpt lat="43.64012" lon="1.33301">
        <ele>198.2</ele>
        <time>2024-07-11T10:15:49Z</time>
      </trkpt>
      <trkpt lat="43.64006" lon="1.333">
        <ele>198.2</ele>
        <time>2024-07-11T10:15:50Z</time>
      </trkpt>
      <trkpt lat="43.64" lon="1.33299">
        <ele>198.2</ele>
        <time>2024-07-11T10:15:51Z</time>
      </trkpt>
      <trkpt lat="43.63993" lon="1.33297">
        <ele>198.2</ele>
        <time>2024-07-11T10:15:52Z</time>
      </trkpt>
      <trkpt lat="43.63987" lon="1.33296">
        <ele>198.2</ele>
        <time>2024-07-11T10:15:53Z</time>
      </trkpt>
      <trkpt lat="43.6398" lon="1.33294">
        <ele>198.2</ele>
        <time>2024-07-11T10:15:54Z</time>
      </trkpt>
      <trkpt lat="43.63973" lon="1.33292">
        <ele>198.2</ele>
        <time>2024-07-11T10:15:55Z</time>
      </trkpt>
      <trkpt lat="43.63973" lon="1.33292">
        <ele>198.2</ele>
        <time>2024-07-11T10:15:56Z</time>
      </trkpt>
      <trkpt lat="43.6396" lon="1.33289">
        <ele>198.2</ele>
        <time>2024-07-11T10:15:57Z</time>
      </trkpt>
      <trkpt lat="43.63953" lon="1.33288">
        <ele>198.2</ele>
        <time>2024-07-11T10:15:58Z</time>
      </trkpt>
      <trkpt lat="43.63947" lon="1.33286">
        <ele>198.2</ele>
        <time>2024-07-11T10:15:59Z</time>
      </trkpt>
      <trkpt lat="43.6394" lon="1.33285">
        <ele>198.2</ele>
        <time>2024-07-11T10:16:00Z</time>
      </trkpt>
      <trkpt lat="43.6394" lon="1.33285">
        <ele>198.2</ele>
        <time>2024-07-11T10:16:01Z</time>
      </trkpt>
      <trkpt lat="43.63927" lon="1.33281">
        <ele>198.2</ele>
        <time>2024-07-11T10:16:02Z</time>
      </trkpt>
      <trkpt lat="43.6392" lon="1.33279">
        <ele>198.2</ele>
        <time>2024-07-11T10:16:03Z</time>
      </trkpt>
      <trkpt lat="43.63913" lon="1.33277">
        <ele>198.2</ele>
        <time>2024-07-11T10:16:04Z</time>
      </trkpt>
      <trkpt lat="43.63913" lon="1.33277">
        <ele>198.2</ele>
        <time>2024-07-11T10:16:05Z</time>
      </trkpt>
      <trkpt lat="43.63906" lon="1.33276">
        <ele>198.2</ele>
        <time>2024-07-11T10:16:06Z</time>
      </trkpt>
      <trkpt lat="43.63893" lon="1.33272">
        <ele>198.2</ele>
        <time>2024-07-11T10:16:07Z</time>
      </trkpt>
      <trkpt lat="43.63886" lon="1.33271">
        <ele>198.2</ele>
        <time>2024-07-11T10:16:08Z</time>
      </trkpt>
      <trkpt lat="43.63879" lon="1.33269">
        <ele>198.2</ele>
        <time>2024-07-11T10:16:09Z</time>
      </trkpt>
      <trkpt lat="43.63872" lon="1.33267">
        <ele>198.2</ele>
        <time>2024-07-11T10:16:10Z</time>
      </trkpt>
      <trkpt lat="43.63866" lon="1.33266">
        <ele>198.2</ele>
        <time>2024-07-11T10:16:11Z</time>
      </trkpt>
      <trkpt lat="43.63859" lon="1.33264">
        <ele>198.4</ele>
        <time>2024-07-11T10:16:12Z</time>
      </trkpt>
      <trkpt lat="43.63852" lon="1.33262">
        <ele>198.4</ele>
        <time>2024-07-11T10:16:13Z</time>
      </trkpt>
      <trkpt lat="43.63845" lon="1.33261">
        <ele>198.4</ele>
        <time>2024-07-11T10:16:14Z</time>
      </trkpt>
      <trkpt lat="43.63838" lon="1.33259">
        <ele>198.4</ele>
        <time>2024-07-11T10:16:15Z</time>
      </trkpt>
      <trkpt lat="43.63832" lon="1.33257">
        <ele>198.4</ele>
        <time>2024-07-11T10:16:16Z</time>
      </trkpt>
      <trkpt lat="43.63825" lon="1.33256">
        <ele>198.4</ele>
        <time>2024-07-11T10:16:17Z</time>
      </trkpt>
      <trkpt lat="43.63818" lon="1.33254">
        <ele>198.4</ele>
        <time>2024-07-11T10:16:18Z</time>
      </trkpt>
      <trkpt lat="43.63812" lon="1.33252">
        <ele>198.4</ele>
        <time>2024-07-11T10:16:19Z</time>
      </trkpt>
      <trkpt lat="43.63805" lon="1.3325">
        <ele>198.4</ele>
        <time>2024-07-11T10:16:20Z</time>
      </trkpt>
      <trkpt lat="43.63805" lon="1.3325">
        <ele>198.6</ele>
        <time>2024-07-11T10:16:21Z</time>
      </trkpt>
      <trkpt lat="43.63792" lon="1.33247">
        <ele>198.6</ele>
        <time>2024-07-11T10:16:22Z</time>
      </trkpt>
      <trkpt lat="43.63785" lon="1.33246">
        <ele>198.6</ele>
        <time>2024-07-11T10:16:23Z</time>
      </trkpt>
      <trkpt lat="43.63779" lon="1.33244">
        <ele>198.6</ele>
        <time>2024-07-11T10:16:24Z</time>
      </trkpt>
      <trkpt lat="43.63772" lon="1.33242">
        <ele>198.6</ele>
        <time>2024-07-11T10:16:25Z</time>
      </trkpt>
      <trkpt lat="43.63765" lon="1.33241">
        <ele>198.6</ele>
        <time>2024-07-11T10:16:26Z</time>
      </trkpt>
      <trkpt lat="43.63758" lon="1.33239">
        <ele>198.8</ele>
        <time>2024-07-11T10:16:27Z</time>
      </trkpt>
      <trkpt lat="43.63752" lon="1.33237">
        <ele>198.8</ele>
        <time>2024-07-11T10:16:28Z</time>
      </trkpt>
      <trkpt lat="43.63745" lon="1.33235">
        <ele>198.8</ele>
        <time>2024-07-11T10:16:29Z</time>
      </trkpt>
      <trkpt lat="43.63739" lon="1.33233">
        <ele>198.8</ele>
        <time>2024-07-11T10:16:30Z</time>
      </trkpt>
      <trkpt lat="43.63732" lon="1.33231">
        <ele>198.8</ele>
        <time>2024-07-11T10:16:31Z</time>
      </trkpt>
      <trkpt lat="43.63726" lon="1.3323">
        <ele>198.8</ele>
        <time>2024-07-11T10:16:32Z</time>
      </trkpt>
      <trkpt lat="43.63719" lon="1.33228">
        <ele>198.8</ele>
        <time>2024-07-11T10:16:33Z</time>
      </trkpt>
      <trkpt lat="43.63713" lon="1.33227">
        <ele>199</ele>
        <time>2024-07-11T10:16:34Z</time>
      </trkpt>
      <trkpt lat="43.63707" lon="1.33225">
        <ele>199</ele>
        <time>2024-07-11T10:16:35Z</time>
      </trkpt>
      <trkpt lat="43.63702" lon="1.33224">
        <ele>199.2</ele>
        <time>2024-07-11T10:16:36Z</time>
      </trkpt>
      <trkpt lat="43.63698" lon="1.33223">
        <ele>199.2</ele>
        <time>2024-07-11T10:16:37Z</time>
      </trkpt>
      <trkpt lat="43.63694" lon="1.33221">
        <ele>199.2</ele>
        <time>2024-07-11T10:16:38Z</time>
      </trkpt>
      <trkpt lat="43.63691" lon="1.33221">
        <ele>199.2</ele>
        <time>2024-07-11T10:16:39Z</time>
      </trkpt>
      <trkpt lat="43.63689" lon="1.3322">
        <ele>199.2</ele>
        <time>2024-07-11T10:16:40Z</time>
      </trkpt>
      <trkpt lat="43.63689" lon="1.3322">
        <ele>199.4</ele>
        <time>2024-07-11T10:16:41Z</time>
      </trkpt>
      <trkpt lat="43.63687" lon="1.33221">
        <ele>199.4</ele>
        <time>2024-07-11T10:16:42Z</time>
      </trkpt>
      <trkpt lat="43.63687" lon="1.33221">
        <ele>199.4</ele>
        <time>2024-07-11T10:16:43Z</time>
      </trkpt>
      <trkpt lat="43.63687" lon="1.33221">
        <ele>199.4</ele>
        <time>2024-07-11T10:16:44Z</time>
      </trkpt>
      <trkpt lat="43.63687" lon="1.33221">
        <ele>199.4</ele>
        <time>2024-07-11T10:16:45Z</time>
      </trkpt>
      <trkpt lat="43.63682" lon="1.33221">
        <ele>199.4</ele>
        <time>2024-07-11T10:16:51Z</time>
      </trkpt>
      <trkpt lat="43.63679" lon="1.33221">
        <ele>199.4</ele>
        <time>2024-07-11T10:16:52Z</time>
      </trkpt>
      <trkpt lat="43.63676" lon="1.33221">
        <ele>199.4</ele>
        <time>2024-07-11T10:16:53Z</time>
      </trkpt>
      <trkpt lat="43.63673" lon="1.3322">
        <ele>199.4</ele>
        <time>2024-07-11T10:16:54Z</time>
      </trkpt>
      <trkpt lat="43.6367" lon="1.3322">
        <ele>199.4</ele>
        <time>2024-07-11T10:16:55Z</time>
      </trkpt>
      <trkpt lat="43.63666" lon="1.33219">
        <ele>199.2</ele>
        <time>2024-07-11T10:16:56Z</time>
      </trkpt>
      <trkpt lat="43.63662" lon="1.33219">
        <ele>199.2</ele>
        <time>2024-07-11T10:16:57Z</time>
      </trkpt>
      <trkpt lat="43.63657" lon="1.33219">
        <ele>199.2</ele>
        <time>2024-07-11T10:16:58Z</time>
      </trkpt>
      <trkpt lat="43.63653" lon="1.33218">
        <ele>199.2</ele>
        <time>2024-07-11T10:16:59Z</time>
      </trkpt>
      <trkpt lat="43.63648" lon="1.33218">
        <ele>199.2</ele>
        <time>2024-07-11T10:17:00Z</time>
      </trkpt>
      <trkpt lat="43.63643" lon="1.33218">
        <ele>199.2</ele>
        <time>2024-07-11T10:17:01Z</time>
      </trkpt>
      <trkpt lat="43.63639" lon="1.33217">
        <ele>199.2</ele>
        <time>2024-07-11T10:17:02Z</time>
      </trkpt>
      <trkpt lat="43.63634" lon="1.33217">
        <ele>199.2</ele>
        <time>2024-07-11T10:17:03Z</time>
      </trkpt>
      <trkpt lat="43.63629" lon="1.33217">
        <ele>199.2</ele>
        <time>2024-07-11T10:17:04Z</time>
      </trkpt>
      <trkpt lat="43.63624" lon="1.33217">
        <ele>199.2</ele>
        <time>2024-07-11T10:17:05Z</time>
      </trkpt>
      <trkpt lat="43.63619" lon="1.33216">
        <ele>199.2</ele>
        <time>2024-07-11T10:17:06Z</time>
      </trkpt>
      <trkpt lat="43.63613" lon="1.33216">
        <ele>199.4</ele>
        <time>2024-07-11T10:17:07Z</time>
      </trkpt>
      <trkpt lat="43.63608" lon="1.33215">
        <ele>199.6</ele>
        <time>2024-07-11T10:17:08Z</time>
      </trkpt>
      <trkpt lat="43.63603" lon="1.33215">
        <ele>199.6</ele>
        <time>2024-07-11T10:17:09Z</time>
      </trkpt>
      <trkpt lat="43.63597" lon="1.33215">
        <ele>199.8</ele>
        <time>2024-07-11T10:17:10Z</time>
      </trkpt>
      <trkpt lat="43.63591" lon="1.33215">
        <ele>199.8</ele>
        <time>2024-07-11T10:17:11Z</time>
      </trkpt>
      <trkpt lat="43.63585" lon="1.33214">
        <ele>199.8</ele>
        <time>2024-07-11T10:17:12Z</time>
      </trkpt>
      <trkpt lat="43.63579" lon="1.33214">
        <ele>199.8</ele>
        <time>2024-07-11T10:17:13Z</time>
      </trkpt>
      <trkpt lat="43.63573" lon="1.33214">
        <ele>199.8</ele>
        <time>2024-07-11T10:17:14Z</time>
      </trkpt>
      <trkpt lat="43.63567" lon="1.33213">
        <ele>200</ele>
        <time>2024-07-11T10:17:15Z</time>
      </trkpt>
      <trkpt lat="43.63561" lon="1.33212">
        <ele>200</ele>
        <time>2024-07-11T10:17:16Z</time>
      </trkpt>
      <trkpt lat="43.63555" lon="1.33212">
        <ele>200</ele>
        <time>2024-07-11T10:17:17Z</time>
      </trkpt>
      <trkpt lat="43.63548" lon="1.33212">
        <ele>200</ele>
        <time>2024-07-11T10:17:18Z</time>
      </trkpt>
      <trkpt lat="43.63542" lon="1.33211">
        <ele>200</ele>
        <time>2024-07-11T10:17:19Z</time>
      </trkpt>
      <trkpt lat="43.63536" lon="1.33211">
        <ele>200</ele>
        <time>2024-07-11T10:17:20Z</time>
      </trkpt>
      <trkpt lat="43.6353" lon="1.3321">
        <ele>200</ele>
        <time>2024-07-11T10:17:21Z</time>
      </trkpt>
      <trkpt lat="43.63523" lon="1.3321">
        <ele>200</ele>
        <time>2024-07-11T10:17:22Z</time>
      </trkpt>
      <trkpt lat="43.63517" lon="1.3321">
        <ele>200</ele>
        <time>2024-07-11T10:17:23Z</time>
      </trkpt>
      <trkpt lat="43.63511" lon="1.33209">
        <ele>200</ele>
        <time>2024-07-11T10:17:24Z</time>
      </trkpt>
      <trkpt lat="43.63505" lon="1.33208">
        <ele>200</ele>
        <time>2024-07-11T10:17:25Z</time>
      </trkpt>
      <trkpt lat="43.63498" lon="1.33208">
        <ele>200</ele>
        <time>2024-07-11T10:17:26Z</time>
      </trkpt>
      <trkpt lat="43.63492" lon="1.33207">
        <ele>200</ele>
        <time>2024-07-11T10:17:27Z</time>
      </trkpt>
      <trkpt lat="43.63486" lon="1.33207">
        <ele>200</ele>
        <time>2024-07-11T10:17:28Z</time>
      </trkpt>
      <trkpt lat="43.63478" lon="1.33206">
        <ele>200</ele>
        <time>2024-07-11T10:17:29Z</time>
      </trkpt>
      <trkpt lat="43.63473" lon="1.33206">
        <ele>200</ele>
        <time>2024-07-11T10:17:30Z</time>
      </trkpt>
      <trkpt lat="43.63467" lon="1.33206">
        <ele>200.2</ele>
        <time>2024-07-11T10:17:31Z</time>
      </trkpt>
      <trkpt lat="43.6346" lon="1.33205">
        <ele>200.2</ele>
        <time>2024-07-11T10:17:32Z</time>
      </trkpt>
      <trkpt lat="43.63454" lon="1.33205">
        <ele>200.2</ele>
        <time>2024-07-11T10:17:33Z</time>
      </trkpt>
      <trkpt lat="43.63446" lon="1.33204">
        <ele>200.2</ele>
        <time>2024-07-11T10:17:34Z</time>
      </trkpt>
      <trkpt lat="43.6344" lon="1.33204">
        <ele>200.2</ele>
        <time>2024-07-11T10:17:35Z</time>
      </trkpt>
      <trkpt lat="43.63434" lon="1.33203">
        <ele>200.2</ele>
        <time>2024-07-11T10:17:36Z</time>
      </trkpt>
      <trkpt lat="43.63427" lon="1.33203">
        <ele>200.2</ele>
        <time>2024-07-11T10:17:37Z</time>
      </trkpt>
      <trkpt lat="43.6342" lon="1.33202">
        <ele>200.2</ele>
        <time>2024-07-11T10:17:38Z</time>
      </trkpt>
      <trkpt lat="43.63413" lon="1.33202">
        <ele>200.2</ele>
        <time>2024-07-11T10:17:39Z</time>
      </trkpt>
      <trkpt lat="43.63407" lon="1.33201">
        <ele>200.2</ele>
        <time>2024-07-11T10:17:40Z</time>
      </trkpt>
      <trkpt lat="43.634" lon="1.332">
        <ele>200.2</ele>
        <time>2024-07-11T10:17:41Z</time>
      </trkpt>
      <trkpt lat="43.63393" lon="1.332">
        <ele>200.2</ele>
        <time>2024-07-11T10:17:42Z</time>
      </trkpt>
      <trkpt lat="43.63386" lon="1.33199">
        <ele>200.2</ele>
        <time>2024-07-11T10:17:43Z</time>
      </trkpt>
      <trkpt lat="43.63379" lon="1.33199">
        <ele>200.2</ele>
        <time>2024-07-11T10:17:44Z</time>
      </trkpt>
      <trkpt lat="43.63372" lon="1.33198">
        <ele>200.2</ele>
        <time>2024-07-11T10:17:45Z</time>
      </trkpt>
      <trkpt lat="43.63365" lon="1.33198">
        <ele>200.2</ele>
        <time>2024-07-11T10:17:46Z</time>
      </trkpt>
      <trkpt lat="43.63358" lon="1.33197">
        <ele>200.2</ele>
        <time>2024-07-11T10:17:47Z</time>
      </trkpt>
      <trkpt lat="43.63352" lon="1.33197">
        <ele>200.2</ele>
        <time>2024-07-11T10:17:48Z</time>
      </trkpt>
      <trkpt lat="43.63345" lon="1.33196">
        <ele>200.2</ele>
        <time>2024-07-11T10:17:49Z</time>
      </trkpt>
      <trkpt lat="43.63338" lon="1.33195">
        <ele>200.2</ele>
        <time>2024-07-11T10:17:50Z</time>
      </trkpt>
      <trkpt lat="43.6333" lon="1.33195">
        <ele>200.2</ele>
        <time>2024-07-11T10:17:51Z</time>
      </trkpt>
      <trkpt lat="43.63323" lon="1.33194">
        <ele>200.2</ele>
        <time>2024-07-11T10:17:52Z</time>
      </trkpt>
      <trkpt lat="43.63316" lon="1.33194">
        <ele>200.2</ele>
        <time>2024-07-11T10:17:53Z</time>
      </trkpt>
      <trkpt lat="43.63309" lon="1.33194">
        <ele>200.2</ele>
        <time>2024-07-11T10:17:54Z</time>
      </trkpt>
      <trkpt lat="43.63302" lon="1.33193">
        <ele>200.2</ele>
        <time>2024-07-11T10:17:55Z</time>
      </trkpt>
      <trkpt lat="43.63295" lon="1.33193">
        <ele>200.2</ele>
        <time>2024-07-11T10:17:56Z</time>
      </trkpt>
      <trkpt lat="43.63288" lon="1.33192">
        <ele>200.2</ele>
        <time>2024-07-11T10:17:57Z</time>
      </trkpt>
      <trkpt lat="43.63281" lon="1.33192">
        <ele>200.2</ele>
        <time>2024-07-11T10:17:58Z</time>
      </trkpt>
      <trkpt lat="43.63274" lon="1.33191">
        <ele>200</ele>
        <time>2024-07-11T10:17:59Z</time>
      </trkpt>
      <trkpt lat="43.63267" lon="1.33191">
        <ele>200</ele>
        <time>2024-07-11T10:18:00Z</time>
      </trkpt>
      <trkpt lat="43.6326" lon="1.3319">
        <ele>200</ele>
        <time>2024-07-11T10:18:01Z</time>
      </trkpt>
      <trkpt lat="43.63253" lon="1.3319">
        <ele>200</ele>
        <time>2024-07-11T10:18:02Z</time>
      </trkpt>
      <trkpt lat="43.63246" lon="1.33189">
        <ele>200</ele>
        <time>2024-07-11T10:18:03Z</time>
      </trkpt>
      <trkpt lat="43.6324" lon="1.33189">
        <ele>200</ele>
        <time>2024-07-11T10:18:04Z</time>
      </trkpt>
      <trkpt lat="43.63233" lon="1.33188">
        <ele>200.2</ele>
        <time>2024-07-11T10:18:05Z</time>
      </trkpt>
      <trkpt lat="43.63227" lon="1.33188">
        <ele>200.2</ele>
        <time>2024-07-11T10:18:06Z</time>
      </trkpt>
      <trkpt lat="43.6322" lon="1.33187">
        <ele>200.2</ele>
        <time>2024-07-11T10:18:07Z</time>
      </trkpt>
      <trkpt lat="43.63214" lon="1.33187">
        <ele>200.2</ele>
        <time>2024-07-11T10:18:08Z</time>
      </trkpt>
      <trkpt lat="43.63207" lon="1.33187">
        <ele>200.2</ele>
        <time>2024-07-11T10:18:09Z</time>
      </trkpt>
      <trkpt lat="43.63201" lon="1.33186">
        <ele>200.4</ele>
        <time>2024-07-11T10:18:10Z</time>
      </trkpt>
      <trkpt lat="43.63194" lon="1.33186">
        <ele>200.4</ele>
        <time>2024-07-11T10:18:11Z</time>
      </trkpt>
      <trkpt lat="43.63188" lon="1.33186">
        <ele>200.4</ele>
        <time>2024-07-11T10:18:12Z</time>
      </trkpt>
      <trkpt lat="43.63181" lon="1.33186">
        <ele>200.4</ele>
        <time>2024-07-11T10:18:13Z</time>
      </trkpt>
      <trkpt lat="43.63174" lon="1.33186">
        <ele>200.4</ele>
        <time>2024-07-11T10:18:14Z</time>
      </trkpt>
      <trkpt lat="43.63168" lon="1.33185">
        <ele>200.4</ele>
        <time>2024-07-11T10:18:15Z</time>
      </trkpt>
      <trkpt lat="43.63161" lon="1.33185">
        <ele>200.6</ele>
        <time>2024-07-11T10:18:16Z</time>
      </trkpt>
      <trkpt lat="43.63154" lon="1.33185">
        <ele>200.6</ele>
        <time>2024-07-11T10:18:17Z</time>
      </trkpt>
      <trkpt lat="43.63148" lon="1.33185">
        <ele>200.6</ele>
        <time>2024-07-11T10:18:18Z</time>
      </trkpt>
      <trkpt lat="43.63141" lon="1.33185">
        <ele>200.6</ele>
        <time>2024-07-11T10:18:19Z</time>
      </trkpt>
      <trkpt lat="43.63135" lon="1.33185">
        <ele>200.6</ele>
        <time>2024-07-11T10:18:20Z</time>
      </trkpt>
      <trkpt lat="43.63128" lon="1.33185">
        <ele>200.8</ele>
        <time>2024-07-11T10:18:21Z</time>
      </trkpt>
      <trkpt lat="43.63121" lon="1.33185">
        <ele>200.8</ele>
        <time>2024-07-11T10:18:22Z</time>
      </trkpt>
      <trkpt lat="43.63115" lon="1.33185">
        <ele>201</ele>
        <time>2024-07-11T10:18:23Z</time>
      </trkpt>
      <trkpt lat="43.63108" lon="1.33185">
        <ele>201.2</ele>
        <time>2024-07-11T10:18:24Z</time>
      </trkpt>
      <trkpt lat="43.63108" lon="1.33185">
        <ele>201.2</ele>
        <time>2024-07-11T10:18:25Z</time>
      </trkpt>
      <trkpt lat="43.63095" lon="1.33185">
        <ele>201.2</ele>
        <time>2024-07-11T10:18:26Z</time>
      </trkpt>
      <trkpt lat="43.63088" lon="1.33185">
        <ele>201</ele>
        <time>2024-07-11T10:18:27Z</time>
      </trkpt>
      <trkpt lat="43.63082" lon="1.33184">
        <ele>201</ele>
        <time>2024-07-11T10:18:28Z</time>
      </trkpt>
      <trkpt lat="43.63075" lon="1.33184">
        <ele>201</ele>
        <time>2024-07-11T10:18:29Z</time>
      </trkpt>
      <trkpt lat="43.63069" lon="1.33184">
        <ele>201</ele>
        <time>2024-07-11T10:18:30Z</time>
      </trkpt>
      <trkpt lat="43.63062" lon="1.33184">
        <ele>201</ele>
        <time>2024-07-11T10:18:31Z</time>
      </trkpt>
      <trkpt lat="43.63056" lon="1.33183">
        <ele>201</ele>
        <time>2024-07-11T10:18:32Z</time>
      </trkpt>
      <trkpt lat="43.63049" lon="1.33183">
        <ele>201</ele>
        <time>2024-07-11T10:18:33Z</time>
      </trkpt>
      <trkpt lat="43.63042" lon="1.33183">
        <ele>201.2</ele>
        <time>2024-07-11T10:18:34Z</time>
      </trkpt>
      <trkpt lat="43.63036" lon="1.33183">
        <ele>201.4</ele>
        <time>2024-07-11T10:18:35Z</time>
      </trkpt>
      <trkpt lat="43.63029" lon="1.33183">
        <ele>201.4</ele>
        <time>2024-07-11T10:18:36Z</time>
      </trkpt>
      <trkpt lat="43.63023" lon="1.33182">
        <ele>201.4</ele>
        <time>2024-07-11T10:18:37Z</time>
      </trkpt>
      <trkpt lat="43.63016" lon="1.33181">
        <ele>201.6</ele>
        <time>2024-07-11T10:18:38Z</time>
      </trkpt>
      <trkpt lat="43.6301" lon="1.3318">
        <ele>201.6</ele>
        <time>2024-07-11T10:18:39Z</time>
      </trkpt>
      <trkpt lat="43.63003" lon="1.33179">
        <ele>201.6</ele>
        <time>2024-07-11T10:18:40Z</time>
      </trkpt>
      <trkpt lat="43.62997" lon="1.33177">
        <ele>201.8</ele>
        <time>2024-07-11T10:18:41Z</time>
      </trkpt>
      <trkpt lat="43.6299" lon="1.33176">
        <ele>201.8</ele>
        <time>2024-07-11T10:18:42Z</time>
      </trkpt>
      <trkpt lat="43.62984" lon="1.33174">
        <ele>202</ele>
        <time>2024-07-11T10:18:43Z</time>
      </trkpt>
      <trkpt lat="43.62978" lon="1.33172">
        <ele>202</ele>
        <time>2024-07-11T10:18:44Z</time>
      </trkpt>
      <trkpt lat="43.62978" lon="1.33172">
        <ele>202</ele>
        <time>2024-07-11T10:18:45Z</time>
      </trkpt>
      <trkpt lat="43.62965" lon="1.33168">
        <ele>202</ele>
        <time>2024-07-11T10:18:46Z</time>
      </trkpt>
      <trkpt lat="43.6296" lon="1.33164">
        <ele>202</ele>
        <time>2024-07-11T10:18:47Z</time>
      </trkpt>
      <trkpt lat="43.62955" lon="1.33159">
        <ele>201.8</ele>
        <time>2024-07-11T10:18:48Z</time>
      </trkpt>
      <trkpt lat="43.6295" lon="1.33154">
        <ele>201.8</ele>
        <time>2024-07-11T10:18:49Z</time>
      </trkpt>
      <trkpt lat="43.62946" lon="1.33149">
        <ele>202</ele>
        <time>2024-07-11T10:18:50Z</time>
      </trkpt>
      <trkpt lat="43.6294" lon="1.33146">
        <ele>202</ele>
        <time>2024-07-11T10:18:51Z</time>
      </trkpt>
      <trkpt lat="43.62935" lon="1.33145">
        <ele>202</ele>
        <time>2024-07-11T10:18:52Z</time>
      </trkpt>
      <trkpt lat="43.62929" lon="1.33146">
        <ele>202</ele>
        <time>2024-07-11T10:18:53Z</time>
      </trkpt>
      <trkpt lat="43.62923" lon="1.33148">
        <ele>202</ele>
        <time>2024-07-11T10:18:54Z</time>
      </trkpt>
      <trkpt lat="43.62918" lon="1.33151">
        <ele>202.2</ele>
        <time>2024-07-11T10:18:55Z</time>
      </trkpt>
      <trkpt lat="43.62912" lon="1.33153">
        <ele>202.2</ele>
        <time>2024-07-11T10:18:56Z</time>
      </trkpt>
      <trkpt lat="43.62905" lon="1.33154">
        <ele>202.2</ele>
        <time>2024-07-11T10:18:57Z</time>
      </trkpt>
      <trkpt lat="43.62899" lon="1.33154">
        <ele>202.2</ele>
        <time>2024-07-11T10:18:58Z</time>
      </trkpt>
      <trkpt lat="43.62892" lon="1.33152">
        <ele>202.4</ele>
        <time>2024-07-11T10:18:59Z</time>
      </trkpt>
      <trkpt lat="43.62886" lon="1.33151">
        <ele>202.4</ele>
        <time>2024-07-11T10:19:00Z</time>
      </trkpt>
      <trkpt lat="43.62879" lon="1.3315">
        <ele>202.4</ele>
        <time>2024-07-11T10:19:01Z</time>
      </trkpt>
      <trkpt lat="43.62879" lon="1.3315">
        <ele>202.4</ele>
        <time>2024-07-11T10:19:02Z</time>
      </trkpt>
      <trkpt lat="43.62867" lon="1.33147">
        <ele>202.2</ele>
        <time>2024-07-11T10:19:03Z</time>
      </trkpt>
      <trkpt lat="43.6286" lon="1.33145">
        <ele>202.2</ele>
        <time>2024-07-11T10:19:04Z</time>
      </trkpt>
      <trkpt lat="43.62854" lon="1.33143">
        <ele>202.2</ele>
        <time>2024-07-11T10:19:05Z</time>
      </trkpt>
      <trkpt lat="43.62848" lon="1.33141">
        <ele>202.2</ele>
        <time>2024-07-11T10:19:06Z</time>
      </trkpt>
      <trkpt lat="43.62848" lon="1.33141">
        <ele>202.2</ele>
        <time>2024-07-11T10:19:07Z</time>
      </trkpt>
      <trkpt lat="43.62835" lon="1.33138">
        <ele>202.2</ele>
        <time>2024-07-11T10:19:08Z</time>
      </trkpt>
      <trkpt lat="43.62829" lon="1.33136">
        <ele>202.2</ele>
        <time>2024-07-11T10:19:09Z</time>
      </trkpt>
      <trkpt lat="43.62823" lon="1.33135">
        <ele>202.2</ele>
        <time>2024-07-11T10:19:10Z</time>
      </trkpt>
      <trkpt lat="43.62816" lon="1.33134">
        <ele>202.2</ele>
        <time>2024-07-11T10:19:11Z</time>
      </trkpt>
      <trkpt lat="43.62816" lon="1.33134">
        <ele>202.2</ele>
        <time>2024-07-11T10:19:12Z</time>
      </trkpt>
      <trkpt lat="43.62803" lon="1.33132">
        <ele>202.2</ele>
        <time>2024-07-11T10:19:13Z</time>
      </trkpt>
      <trkpt lat="43.62797" lon="1.33132">
        <ele>202.4</ele>
        <time>2024-07-11T10:19:14Z</time>
      </trkpt>
      <trkpt lat="43.62791" lon="1.33131">
        <ele>202.6</ele>
        <time>2024-07-11T10:19:15Z</time>
      </trkpt>
      <trkpt lat="43.62784" lon="1.33131">
        <ele>202.6</ele>
        <time>2024-07-11T10:19:16Z</time>
      </trkpt>
      <trkpt lat="43.62778" lon="1.33132">
        <ele>202.6</ele>
        <time>2024-07-11T10:19:17Z</time>
      </trkpt>
      <trkpt lat="43.62772" lon="1.33133">
        <ele>202.8</ele>
        <time>2024-07-11T10:19:18Z</time>
      </trkpt>
      <trkpt lat="43.62766" lon="1.33134">
        <ele>203</ele>
        <time>2024-07-11T10:19:19Z</time>
      </trkpt>
      <trkpt lat="43.6276" lon="1.33135">
        <ele>203</ele>
        <time>2024-07-11T10:19:20Z</time>
      </trkpt>
      <trkpt lat="43.62754" lon="1.33136">
        <ele>203.2</ele>
        <time>2024-07-11T10:19:21Z</time>
      </trkpt>
      <trkpt lat="43.62754" lon="1.33136">
        <ele>203.2</ele>
        <time>2024-07-11T10:19:22Z</time>
      </trkpt>
      <trkpt lat="43.62742" lon="1.3314">
        <ele>203.2</ele>
        <time>2024-07-11T10:19:23Z</time>
      </trkpt>
      <trkpt lat="43.62736" lon="1.33142">
        <ele>203.2</ele>
        <time>2024-07-11T10:19:24Z</time>
      </trkpt>
      <trkpt lat="43.6273" lon="1.33144">
        <ele>203.2</ele>
        <time>2024-07-11T10:19:25Z</time>
      </trkpt>
      <trkpt lat="43.62724" lon="1.33146">
        <ele>203.2</ele>
        <time>2024-07-11T10:19:26Z</time>
      </trkpt>
      <trkpt lat="43.62724" lon="1.33146">
        <ele>203.4</ele>
        <time>2024-07-11T10:19:27Z</time>
      </trkpt>
      <trkpt lat="43.62712" lon="1.33151">
        <ele>203.4</ele>
        <time>2024-07-11T10:19:28Z</time>
      </trkpt>
      <trkpt lat="43.62706" lon="1.33153">
        <ele>203.4</ele>
        <time>2024-07-11T10:19:29Z</time>
      </trkpt>
      <trkpt lat="43.627" lon="1.33156">
        <ele>203.4</ele>
        <time>2024-07-11T10:19:30Z</time>
      </trkpt>
      <trkpt lat="43.62694" lon="1.33159">
        <ele>203.2</ele>
        <time>2024-07-11T10:19:31Z</time>
      </trkpt>
      <trkpt lat="43.62688" lon="1.33162">
        <ele>203.2</ele>
        <time>2024-07-11T10:19:32Z</time>
      </trkpt>
      <trkpt lat="43.62682" lon="1.33164">
        <ele>203</ele>
        <time>2024-07-11T10:19:33Z</time>
      </trkpt>
      <trkpt lat="43.62677" lon="1.33167">
        <ele>203</ele>
        <time>2024-07-11T10:19:34Z</time>
      </trkpt>
      <trkpt lat="43.62671" lon="1.3317">
        <ele>203</ele>
        <time>2024-07-11T10:19:35Z</time>
      </trkpt>
      <trkpt lat="43.62665" lon="1.33173">
        <ele>203</ele>
        <time>2024-07-11T10:19:36Z</time>
      </trkpt>
      <trkpt lat="43.62659" lon="1.33176">
        <ele>203</ele>
        <time>2024-07-11T10:19:37Z</time>
      </trkpt>
      <trkpt lat="43.62654" lon="1.33179">
        <ele>203</ele>
        <time>2024-07-11T10:19:38Z</time>
      </trkpt>
      <trkpt lat="43.62648" lon="1.33183">
        <ele>203</ele>
        <time>2024-07-11T10:19:39Z</time>
      </trkpt>
      <trkpt lat="43.62642" lon="1.33186">
        <ele>203</ele>
        <time>2024-07-11T10:19:40Z</time>
      </trkpt>
      <trkpt lat="43.62636" lon="1.33189">
        <ele>203</ele>
        <time>2024-07-11T10:19:41Z</time>
      </trkpt>
      <trkpt lat="43.62631" lon="1.33192">
        <ele>203</ele>
        <time>2024-07-11T10:19:42Z</time>
      </trkpt>
      <trkpt lat="43.62625" lon="1.33195">
        <ele>203</ele>
        <time>2024-07-11T10:19:43Z</time>
      </trkpt>
      <trkpt lat="43.6262" lon="1.33199">
        <ele>203</ele>
        <time>2024-07-11T10:19:44Z</time>
      </trkpt>
      <trkpt lat="43.62614" lon="1.33203">
        <ele>203</ele>
        <time>2024-07-11T10:19:45Z</time>
      </trkpt>
      <trkpt lat="43.62608" lon="1.33206">
        <ele>203.2</ele>
        <time>2024-07-11T10:19:46Z</time>
      </trkpt>
      <trkpt lat="43.62603" lon="1.3321">
        <ele>203.2</ele>
        <time>2024-07-11T10:19:47Z</time>
      </trkpt>
      <trkpt lat="43.62597" lon="1.33213">
        <ele>203.2</ele>
        <time>2024-07-11T10:19:48Z</time>
      </trkpt>
      <trkpt lat="43.62591" lon="1.33217">
        <ele>203.2</ele>
        <time>2024-07-11T10:19:49Z</time>
      </trkpt>
      <trkpt lat="43.62585" lon="1.33221">
        <ele>203.2</ele>
        <time>2024-07-11T10:19:50Z</time>
      </trkpt>
      <trkpt lat="43.62579" lon="1.33224">
        <ele>203.2</ele>
        <time>2024-07-11T10:19:51Z</time>
      </trkpt>
      <trkpt lat="43.62573" lon="1.33228">
        <ele>203.2</ele>
        <time>2024-07-11T10:19:52Z</time>
      </trkpt>
      <trkpt lat="43.62567" lon="1.33232">
        <ele>203.2</ele>
        <time>2024-07-11T10:19:53Z</time>
      </trkpt>
      <trkpt lat="43.62561" lon="1.33236">
        <ele>203.2</ele>
        <time>2024-07-11T10:19:54Z</time>
      </trkpt>
      <trkpt lat="43.62555" lon="1.3324">
        <ele>203.4</ele>
        <time>2024-07-11T10:19:55Z</time>
      </trkpt>
      <trkpt lat="43.62549" lon="1.33244">
        <ele>203.4</ele>
        <time>2024-07-11T10:19:56Z</time>
      </trkpt>
      <trkpt lat="43.62543" lon="1.33248">
        <ele>203.2</ele>
        <time>2024-07-11T10:19:57Z</time>
      </trkpt>
      <trkpt lat="43.62537" lon="1.33252">
        <ele>203.4</ele>
        <time>2024-07-11T10:19:58Z</time>
      </trkpt>
      <trkpt lat="43.62531" lon="1.33256">
        <ele>203.2</ele>
        <time>2024-07-11T10:19:59Z</time>
      </trkpt>
      <trkpt lat="43.62525" lon="1.33259">
        <ele>203.2</ele>
        <time>2024-07-11T10:20:00Z</time>
      </trkpt>
      <trkpt lat="43.62519" lon="1.33263">
        <ele>203.2</ele>
        <time>2024-07-11T10:20:01Z</time>
      </trkpt>
      <trkpt lat="43.62513" lon="1.33266">
        <ele>203.2</ele>
        <time>2024-07-11T10:20:02Z</time>
      </trkpt>
      <trkpt lat="43.62507" lon="1.3327">
        <ele>203.2</ele>
        <time>2024-07-11T10:20:03Z</time>
      </trkpt>
      <trkpt lat="43.62502" lon="1.33273">
        <ele>203.2</ele>
        <time>2024-07-11T10:20:04Z</time>
      </trkpt>
      <trkpt lat="43.62496" lon="1.33274">
        <ele>203.2</ele>
        <time>2024-07-11T10:20:05Z</time>
      </trkpt>
      <trkpt lat="43.62493" lon="1.33272">
        <ele>203.2</ele>
        <time>2024-07-11T10:20:06Z</time>
      </trkpt>
      <trkpt lat="43.62491" lon="1.33269">
        <ele>203.2</ele>
        <time>2024-07-11T10:20:07Z</time>
      </trkpt>
      <trkpt lat="43.62491" lon="1.33264">
        <ele>203.2</ele>
        <time>2024-07-11T10:20:08Z</time>
      </trkpt>
      <trkpt lat="43.62492" lon="1.3326">
        <ele>203.2</ele>
        <time>2024-07-11T10:20:09Z</time>
      </trkpt>
      <trkpt lat="43.62493" lon="1.33256">
        <ele>203.2</ele>
        <time>2024-07-11T10:20:10Z</time>
      </trkpt>
      <trkpt lat="43.62493" lon="1.33251">
        <ele>203.2</ele>
        <time>2024-07-11T10:20:11Z</time>
      </trkpt>
      <trkpt lat="43.62492" lon="1.33247">
        <ele>203.2</ele>
        <time>2024-07-11T10:20:12Z</time>
      </trkpt>
      <trkpt lat="43.6249" lon="1.33243">
        <ele>203.2</ele>
        <time>2024-07-11T10:20:13Z</time>
      </trkpt>
      <trkpt lat="43.62487" lon="1.33239">
        <ele>203.2</ele>
        <time>2024-07-11T10:20:14Z</time>
      </trkpt>
      <trkpt lat="43.62485" lon="1.33235">
        <ele>203.2</ele>
        <time>2024-07-11T10:20:15Z</time>
      </trkpt>
      <trkpt lat="43.62481" lon="1.33232">
        <ele>203.2</ele>
        <time>2024-07-11T10:20:16Z</time>
      </trkpt>
      <trkpt lat="43.62477" lon="1.3323">
        <ele>203</ele>
        <time>2024-07-11T10:20:17Z</time>
      </trkpt>
      <trkpt lat="43.62473" lon="1.33229">
        <ele>203</ele>
        <time>2024-07-11T10:20:18Z</time>
      </trkpt>
      <trkpt lat="43.62468" lon="1.33227">
        <ele>202.8</ele>
        <time>2024-07-11T10:20:19Z</time>
      </trkpt>
      <trkpt lat="43.62463" lon="1.33225">
        <ele>202.8</ele>
        <time>2024-07-11T10:20:20Z</time>
      </trkpt>
      <trkpt lat="43.62458" lon="1.33222">
        <ele>202.8</ele>
        <time>2024-07-11T10:20:21Z</time>
      </trkpt>
      <trkpt lat="43.62452" lon="1.33221">
        <ele>202.8</ele>
        <time>2024-07-11T10:20:22Z</time>
      </trkpt>
      <trkpt lat="43.62447" lon="1.33222">
        <ele>202.8</ele>
        <time>2024-07-11T10:20:23Z</time>
      </trkpt>
      <trkpt lat="43.62441" lon="1.33224">
        <ele>202.8</ele>
        <time>2024-07-11T10:20:24Z</time>
      </trkpt>
      <trkpt lat="43.62437" lon="1.33229">
        <ele>202.8</ele>
        <time>2024-07-11T10:20:25Z</time>
      </trkpt>
      <trkpt lat="43.62433" lon="1.33235">
        <ele>202.6</ele>
        <time>2024-07-11T10:20:26Z</time>
      </trkpt>
      <trkpt lat="43.62433" lon="1.33235">
        <ele>202.6</ele>
        <time>2024-07-11T10:20:27Z</time>
      </trkpt>
      <trkpt lat="43.62427" lon="1.33249">
        <ele>202.6</ele>
        <time>2024-07-11T10:20:28Z</time>
      </trkpt>
      <trkpt lat="43.62426" lon="1.33258">
        <ele>202.8</ele>
        <time>2024-07-11T10:20:29Z</time>
      </trkpt>
      <trkpt lat="43.62425" lon="1.33266">
        <ele>202.8</ele>
        <time>2024-07-11T10:20:30Z</time>
      </trkpt>
      <trkpt lat="43.62423" lon="1.33274">
        <ele>202.8</ele>
        <time>2024-07-11T10:20:31Z</time>
      </trkpt>
      <trkpt lat="43.6242" lon="1.33282">
        <ele>202.8</ele>
        <time>2024-07-11T10:20:32Z</time>
      </trkpt>
      <trkpt lat="43.62416" lon="1.33288">
        <ele>202.6</ele>
        <time>2024-07-11T10:20:33Z</time>
      </trkpt>
      <trkpt lat="43.6241" lon="1.33293">
        <ele>202.8</ele>
        <time>2024-07-11T10:20:34Z</time>
      </trkpt>
      <trkpt lat="43.62404" lon="1.33297">
        <ele>202.8</ele>
        <time>2024-07-11T10:20:35Z</time>
      </trkpt>
      <trkpt lat="43.62398" lon="1.333">
        <ele>202.8</ele>
        <time>2024-07-11T10:20:36Z</time>
      </trkpt>
      <trkpt lat="43.62398" lon="1.333">
        <ele>202.8</ele>
        <time>2024-07-11T10:20:37Z</time>
      </trkpt>
      <trkpt lat="43.62387" lon="1.33306">
        <ele>202.8</ele>
        <time>2024-07-11T10:20:38Z</time>
      </trkpt>
      <trkpt lat="43.62383" lon="1.3331">
        <ele>202.8</ele>
        <time>2024-07-11T10:20:39Z</time>
      </trkpt>
      <trkpt lat="43.62381" lon="1.33315">
        <ele>202.8</ele>
        <time>2024-07-11T10:20:40Z</time>
      </trkpt>
      <trkpt lat="43.62379" lon="1.33319">
        <ele>202.8</ele>
        <time>2024-07-11T10:20:41Z</time>
      </trkpt>
      <trkpt lat="43.62375" lon="1.33322">
        <ele>202.8</ele>
        <time>2024-07-11T10:20:42Z</time>
      </trkpt>
      <trkpt lat="43.6237" lon="1.33323">
        <ele>202.8</ele>
        <time>2024-07-11T10:20:43Z</time>
      </trkpt>
      <trkpt lat="43.62366" lon="1.33323">
        <ele>202.8</ele>
        <time>2024-07-11T10:20:44Z</time>
      </trkpt>
      <trkpt lat="43.62361" lon="1.33323">
        <ele>202.8</ele>
        <time>2024-07-11T10:20:45Z</time>
      </trkpt>
      <trkpt lat="43.62356" lon="1.33323">
        <ele>202.8</ele>
        <time>2024-07-11T10:20:46Z</time>
      </trkpt>
      <trkpt lat="43.62351" lon="1.33325">
        <ele>202.8</ele>
        <time>2024-07-11T10:20:47Z</time>
      </trkpt>
      <trkpt lat="43.62346" lon="1.33326">
        <ele>202.8</ele>
        <time>2024-07-11T10:20:48Z</time>
      </trkpt>
      <trkpt lat="43.6234" lon="1.33328">
        <ele>202.8</ele>
        <time>2024-07-11T10:20:49Z</time>
      </trkpt>
      <trkpt lat="43.62334" lon="1.33329">
        <ele>202.8</ele>
        <time>2024-07-11T10:20:50Z</time>
      </trkpt>
      <trkpt lat="43.62329" lon="1.3333">
        <ele>203</ele>
        <time>2024-07-11T10:20:51Z</time>
      </trkpt>
      <trkpt lat="43.62329" lon="1.3333">
        <ele>203</ele>
        <time>2024-07-11T10:20:52Z</time>
      </trkpt>
      <trkpt lat="43.62318" lon="1.33334">
        <ele>203</ele>
        <time>2024-07-11T10:20:53Z</time>
      </trkpt>
      <trkpt lat="43.62313" lon="1.33337">
        <ele>203</ele>
        <time>2024-07-11T10:20:54Z</time>
      </trkpt>
      <trkpt lat="43.62307" lon="1.3334">
        <ele>203</ele>
        <time>2024-07-11T10:20:55Z</time>
      </trkpt>
      <trkpt lat="43.62302" lon="1.33343">
        <ele>203.2</ele>
        <time>2024-07-11T10:20:56Z</time>
      </trkpt>
      <trkpt lat="43.62297" lon="1.33346">
        <ele>203.2</ele>
        <time>2024-07-11T10:20:57Z</time>
      </trkpt>
      <trkpt lat="43.62292" lon="1.33349">
        <ele>203.6</ele>
        <time>2024-07-11T10:20:58Z</time>
      </trkpt>
      <trkpt lat="43.62286" lon="1.3335">
        <ele>203.6</ele>
        <time>2024-07-11T10:20:59Z</time>
      </trkpt>
      <trkpt lat="43.62281" lon="1.33353">
        <ele>203.8</ele>
        <time>2024-07-11T10:21:00Z</time>
      </trkpt>
      <trkpt lat="43.62276" lon="1.33356">
        <ele>203.8</ele>
        <time>2024-07-11T10:21:01Z</time>
      </trkpt>
      <trkpt lat="43.62271" lon="1.33359">
        <ele>203.6</ele>
        <time>2024-07-11T10:21:02Z</time>
      </trkpt>
      <trkpt lat="43.62266" lon="1.33363">
        <ele>203.8</ele>
        <time>2024-07-11T10:21:03Z</time>
      </trkpt>
      <trkpt lat="43.62261" lon="1.33368">
        <ele>203.8</ele>
        <time>2024-07-11T10:21:04Z</time>
      </trkpt>
      <trkpt lat="43.62255" lon="1.33372">
        <ele>204</ele>
        <time>2024-07-11T10:21:05Z</time>
      </trkpt>
      <trkpt lat="43.6225" lon="1.33377">
        <ele>204</ele>
        <time>2024-07-11T10:21:06Z</time>
      </trkpt>
      <trkpt lat="43.62245" lon="1.33382">
        <ele>204</ele>
        <time>2024-07-11T10:21:07Z</time>
      </trkpt>
      <trkpt lat="43.6224" lon="1.33387">
        <ele>204</ele>
        <time>2024-07-11T10:21:08Z</time>
      </trkpt>
      <trkpt lat="43.6224" lon="1.33387">
        <ele>204</ele>
        <time>2024-07-11T10:21:09Z</time>
      </trkpt>
      <trkpt lat="43.6223" lon="1.33398">
        <ele>204</ele>
        <time>2024-07-11T10:21:10Z</time>
      </trkpt>
      <trkpt lat="43.62226" lon="1.33404">
        <ele>204</ele>
        <time>2024-07-11T10:21:11Z</time>
      </trkpt>
      <trkpt lat="43.62226" lon="1.33404">
        <ele>204</ele>
        <time>2024-07-11T10:21:12Z</time>
      </trkpt>
      <trkpt lat="43.62216" lon="1.33414">
        <ele>204</ele>
        <time>2024-07-11T10:21:13Z</time>
      </trkpt>
      <trkpt lat="43.62212" lon="1.33419">
        <ele>204</ele>
        <time>2024-07-11T10:21:14Z</time>
      </trkpt>
      <trkpt lat="43.62207" lon="1.33424">
        <ele>204</ele>
        <time>2024-07-11T10:21:15Z</time>
      </trkpt>
      <trkpt lat="43.62201" lon="1.3343">
        <ele>204</ele>
        <time>2024-07-11T10:21:16Z</time>
      </trkpt>
      <trkpt lat="43.62196" lon="1.33435">
        <ele>204</ele>
        <time>2024-07-11T10:21:17Z</time>
      </trkpt>
      <trkpt lat="43.62191" lon="1.3344">
        <ele>204</ele>
        <time>2024-07-11T10:21:18Z</time>
      </trkpt>
      <trkpt lat="43.62186" lon="1.33446">
        <ele>204</ele>
        <time>2024-07-11T10:21:19Z</time>
      </trkpt>
      <trkpt lat="43.62181" lon="1.33451">
        <ele>204</ele>
        <time>2024-07-11T10:21:20Z</time>
      </trkpt>
      <trkpt lat="43.62176" lon="1.33457">
        <ele>204</ele>
        <time>2024-07-11T10:21:21Z</time>
      </trkpt>
      <trkpt lat="43.62171" lon="1.33462">
        <ele>204</ele>
        <time>2024-07-11T10:21:22Z</time>
      </trkpt>
      <trkpt lat="43.62166" lon="1.33468">
        <ele>203.8</ele>
        <time>2024-07-11T10:21:23Z</time>
      </trkpt>
      <trkpt lat="43.62161" lon="1.33473">
        <ele>203.8</ele>
        <time>2024-07-11T10:21:24Z</time>
      </trkpt>
      <trkpt lat="43.62156" lon="1.33479">
        <ele>203.6</ele>
        <time>2024-07-11T10:21:25Z</time>
      </trkpt>
      <trkpt lat="43.62152" lon="1.33486">
        <ele>203.6</ele>
        <time>2024-07-11T10:21:26Z</time>
      </trkpt>
      <trkpt lat="43.62148" lon="1.33492">
        <ele>203.6</ele>
        <time>2024-07-11T10:21:27Z</time>
      </trkpt>
      <trkpt lat="43.62143" lon="1.33498">
        <ele>203.6</ele>
        <time>2024-07-11T10:21:28Z</time>
      </trkpt>
      <trkpt lat="43.62138" lon="1.33504">
        <ele>203.6</ele>
        <time>2024-07-11T10:21:29Z</time>
      </trkpt>
      <trkpt lat="43.62134" lon="1.33511">
        <ele>203.6</ele>
        <time>2024-07-11T10:21:30Z</time>
      </trkpt>
      <trkpt lat="43.62129" lon="1.33517">
        <ele>203.6</ele>
        <time>2024-07-11T10:21:31Z</time>
      </trkpt>
      <trkpt lat="43.62125" lon="1.33523">
        <ele>203.6</ele>
        <time>2024-07-11T10:21:32Z</time>
      </trkpt>
      <trkpt lat="43.62121" lon="1.33529">
        <ele>203.4</ele>
        <time>2024-07-11T10:21:33Z</time>
      </trkpt>
      <trkpt lat="43.62116" lon="1.33535">
        <ele>203.4</ele>
        <time>2024-07-11T10:21:34Z</time>
      </trkpt>
      <trkpt lat="43.62112" lon="1.33542">
        <ele>203.4</ele>
        <time>2024-07-11T10:21:35Z</time>
      </trkpt>
      <trkpt lat="43.62108" lon="1.33548">
        <ele>203.4</ele>
        <time>2024-07-11T10:21:36Z</time>
      </trkpt>
      <trkpt lat="43.62104" lon="1.33555">
        <ele>203.2</ele>
        <time>2024-07-11T10:21:37Z</time>
      </trkpt>
      <trkpt lat="43.621" lon="1.33561">
        <ele>203.2</ele>
        <time>2024-07-11T10:21:38Z</time>
      </trkpt>
      <trkpt lat="43.62096" lon="1.33567">
        <ele>203.2</ele>
        <time>2024-07-11T10:21:39Z</time>
      </trkpt>
      <trkpt lat="43.62092" lon="1.33573">
        <ele>203</ele>
        <time>2024-07-11T10:21:40Z</time>
      </trkpt>
      <trkpt lat="43.62088" lon="1.33579">
        <ele>203</ele>
        <time>2024-07-11T10:21:41Z</time>
      </trkpt>
      <trkpt lat="43.62084" lon="1.33585">
        <ele>203</ele>
        <time>2024-07-11T10:21:42Z</time>
      </trkpt>
      <trkpt lat="43.62079" lon="1.33591">
        <ele>203</ele>
        <time>2024-07-11T10:21:43Z</time>
      </trkpt>
      <trkpt lat="43.62076" lon="1.33597">
        <ele>203</ele>
        <time>2024-07-11T10:21:44Z</time>
      </trkpt>
      <trkpt lat="43.62072" lon="1.33604">
        <ele>203</ele>
        <time>2024-07-11T10:21:45Z</time>
      </trkpt>
      <trkpt lat="43.62068" lon="1.33609">
        <ele>203</ele>
        <time>2024-07-11T10:21:46Z</time>
      </trkpt>
      <trkpt lat="43.62063" lon="1.33614">
        <ele>202.8</ele>
        <time>2024-07-11T10:21:47Z</time>
      </trkpt>
      <trkpt lat="43.62059" lon="1.33619">
        <ele>202.8</ele>
        <time>2024-07-11T10:21:48Z</time>
      </trkpt>
      <trkpt lat="43.62055" lon="1.33625">
        <ele>202.8</ele>
        <time>2024-07-11T10:21:49Z</time>
      </trkpt>
      <trkpt lat="43.6205" lon="1.3363">
        <ele>202.8</ele>
        <time>2024-07-11T10:21:50Z</time>
      </trkpt>
      <trkpt lat="43.62046" lon="1.33636">
        <ele>202.8</ele>
        <time>2024-07-11T10:21:51Z</time>
      </trkpt>
      <trkpt lat="43.62041" lon="1.33641">
        <ele>202.8</ele>
        <time>2024-07-11T10:21:52Z</time>
      </trkpt>
      <trkpt lat="43.62036" lon="1.33647">
        <ele>202.8</ele>
        <time>2024-07-11T10:21:53Z</time>
      </trkpt>
      <trkpt lat="43.62032" lon="1.33652">
        <ele>202.8</ele>
        <time>2024-07-11T10:21:54Z</time>
      </trkpt>
      <trkpt lat="43.62027" lon="1.33658">
        <ele>202.8</ele>
        <time>2024-07-11T10:21:55Z</time>
      </trkpt>
      <trkpt lat="43.62023" lon="1.33663">
        <ele>202.8</ele>
        <time>2024-07-11T10:21:56Z</time>
      </trkpt>
      <trkpt lat="43.62019" lon="1.33668">
        <ele>202.8</ele>
        <time>2024-07-11T10:21:57Z</time>
      </trkpt>
      <trkpt lat="43.62015" lon="1.33674">
        <ele>202.8</ele>
        <time>2024-07-11T10:21:58Z</time>
      </trkpt>
      <trkpt lat="43.62012" lon="1.3368">
        <ele>202.8</ele>
        <time>2024-07-11T10:21:59Z</time>
      </trkpt>
      <trkpt lat="43.62007" lon="1.33684">
        <ele>202.8</ele>
        <time>2024-07-11T10:22:00Z</time>
      </trkpt>
      <trkpt lat="43.62003" lon="1.33687">
        <ele>203</ele>
        <time>2024-07-11T10:22:01Z</time>
      </trkpt>
      <trkpt lat="43.61998" lon="1.33687">
        <ele>203</ele>
        <time>2024-07-11T10:22:02Z</time>
      </trkpt>
      <trkpt lat="43.61993" lon="1.33686">
        <ele>203.2</ele>
        <time>2024-07-11T10:22:03Z</time>
      </trkpt>
      <trkpt lat="43.61989" lon="1.33685">
        <ele>203.2</ele>
        <time>2024-07-11T10:22:04Z</time>
      </trkpt>
      <trkpt lat="43.61984" lon="1.33685">
        <ele>203.4</ele>
        <time>2024-07-11T10:22:05Z</time>
      </trkpt>
      <trkpt lat="43.6198" lon="1.33685">
        <ele>203.4</ele>
        <time>2024-07-11T10:22:06Z</time>
      </trkpt>
      <trkpt lat="43.61977" lon="1.33685">
        <ele>203.6</ele>
        <time>2024-07-11T10:22:07Z</time>
      </trkpt>
      <trkpt lat="43.61975" lon="1.33685">
        <ele>203.6</ele>
        <time>2024-07-11T10:22:08Z</time>
      </trkpt>
      <trkpt lat="43.61974" lon="1.33684">
        <ele>203.6</ele>
        <time>2024-07-11T10:22:09Z</time>
      </trkpt>
      <trkpt lat="43.61974" lon="1.33684">
        <ele>203.8</ele>
        <time>2024-07-11T10:22:10Z</time>
      </trkpt>
      <trkpt lat="43.61973" lon="1.33681">
        <ele>203.8</ele>
        <time>2024-07-11T10:22:11Z</time>
      </trkpt>
      <trkpt lat="43.61973" lon="1.33679">
        <ele>203.8</ele>
        <time>2024-07-11T10:22:12Z</time>
      </trkpt>
      <trkpt lat="43.61972" lon="1.33676">
        <ele>203.8</ele>
        <time>2024-07-11T10:22:13Z</time>
      </trkpt>
      <trkpt lat="43.61972" lon="1.33672">
        <ele>203.8</ele>
        <time>2024-07-11T10:22:14Z</time>
      </trkpt>
      <trkpt lat="43.61972" lon="1.33667">
        <ele>203.8</ele>
        <time>2024-07-11T10:22:15Z</time>
      </trkpt>
      <trkpt lat="43.61972" lon="1.33662">
        <ele>203.8</ele>
        <time>2024-07-11T10:22:16Z</time>
      </trkpt>
      <trkpt lat="43.61973" lon="1.33656">
        <ele>204</ele>
        <time>2024-07-11T10:22:17Z</time>
      </trkpt>
      <trkpt lat="43.61973" lon="1.3365">
        <ele>204</ele>
        <time>2024-07-11T10:22:18Z</time>
      </trkpt>
      <trkpt lat="43.61972" lon="1.33644">
        <ele>204</ele>
        <time>2024-07-11T10:22:19Z</time>
      </trkpt>
      <trkpt lat="43.6197" lon="1.33638">
        <ele>204</ele>
        <time>2024-07-11T10:22:20Z</time>
      </trkpt>
      <trkpt lat="43.61967" lon="1.33633">
        <ele>204</ele>
        <time>2024-07-11T10:22:21Z</time>
      </trkpt>
      <trkpt lat="43.61963" lon="1.33628">
        <ele>204</ele>
        <time>2024-07-11T10:22:22Z</time>
      </trkpt>
      <trkpt lat="43.6196" lon="1.33622">
        <ele>204</ele>
        <time>2024-07-11T10:22:23Z</time>
      </trkpt>
      <trkpt lat="43.61957" lon="1.33616">
        <ele>204</ele>
        <time>2024-07-11T10:22:24Z</time>
      </trkpt>
      <trkpt lat="43.61953" lon="1.33611">
        <ele>204</ele>
        <time>2024-07-11T10:22:25Z</time>
      </trkpt>
      <trkpt lat="43.61949" lon="1.33606">
        <ele>203.8</ele>
        <time>2024-07-11T10:22:26Z</time>
      </trkpt>
      <trkpt lat="43.61945" lon="1.33601">
        <ele>203.8</ele>
        <time>2024-07-11T10:22:27Z</time>
      </trkpt>
      <trkpt lat="43.6194" lon="1.33597">
        <ele>203.8</ele>
        <time>2024-07-11T10:22:28Z</time>
      </trkpt>
      <trkpt lat="43.61935" lon="1.33593">
        <ele>203.6</ele>
        <time>2024-07-11T10:22:29Z</time>
      </trkpt>
      <trkpt lat="43.61931" lon="1.33589">
        <ele>203.6</ele>
        <time>2024-07-11T10:22:30Z</time>
      </trkpt>
      <trkpt lat="43.61926" lon="1.33585">
        <ele>203.6</ele>
        <time>2024-07-11T10:22:31Z</time>
      </trkpt>
      <trkpt lat="43.61922" lon="1.3358">
        <ele>203.6</ele>
        <time>2024-07-11T10:22:32Z</time>
      </trkpt>
      <trkpt lat="43.61919" lon="1.33575">
        <ele>203.6</ele>
        <time>2024-07-11T10:22:33Z</time>
      </trkpt>
      <trkpt lat="43.61916" lon="1.33568">
        <ele>203.4</ele>
        <time>2024-07-11T10:22:34Z</time>
      </trkpt>
      <trkpt lat="43.61916" lon="1.33561">
        <ele>203.4</ele>
        <time>2024-07-11T10:22:35Z</time>
      </trkpt>
      <trkpt lat="43.61916" lon="1.33554">
        <ele>203.6</ele>
        <time>2024-07-11T10:22:36Z</time>
      </trkpt>
      <trkpt lat="43.61917" lon="1.33548">
        <ele>203.6</ele>
        <time>2024-07-11T10:22:37Z</time>
      </trkpt>
      <trkpt lat="43.61916" lon="1.33542">
        <ele>203.8</ele>
        <time>2024-07-11T10:22:38Z</time>
      </trkpt>
      <trkpt lat="43.61913" lon="1.33537">
        <ele>203.8</ele>
        <time>2024-07-11T10:22:39Z</time>
      </trkpt>
      <trkpt lat="43.61908" lon="1.33533">
        <ele>203.8</ele>
        <time>2024-07-11T10:22:40Z</time>
      </trkpt>
      <trkpt lat="43.61904" lon="1.33529">
        <ele>203.8</ele>
        <time>2024-07-11T10:22:41Z</time>
      </trkpt>
      <trkpt lat="43.61899" lon="1.33525">
        <ele>203.8</ele>
        <time>2024-07-11T10:22:42Z</time>
      </trkpt>
      <trkpt lat="43.61895" lon="1.3352">
        <ele>204</ele>
        <time>2024-07-11T10:22:43Z</time>
      </trkpt>
      <trkpt lat="43.61891" lon="1.33515">
        <ele>204</ele>
        <time>2024-07-11T10:22:44Z</time>
      </trkpt>
      <trkpt lat="43.61888" lon="1.33509">
        <ele>204</ele>
        <time>2024-07-11T10:22:45Z</time>
      </trkpt>
      <trkpt lat="43.61884" lon="1.33503">
        <ele>204</ele>
        <time>2024-07-11T10:22:46Z</time>
      </trkpt>
      <trkpt lat="43.6188" lon="1.33497">
        <ele>204</ele>
        <time>2024-07-11T10:22:47Z</time>
      </trkpt>
      <trkpt lat="43.61876" lon="1.33491">
        <ele>204.2</ele>
        <time>2024-07-11T10:22:48Z</time>
      </trkpt>
      <trkpt lat="43.61873" lon="1.33485">
        <ele>204.4</ele>
        <time>2024-07-11T10:22:49Z</time>
      </trkpt>
      <trkpt lat="43.61869" lon="1.33478">
        <ele>204.4</ele>
        <time>2024-07-11T10:22:50Z</time>
      </trkpt>
      <trkpt lat="43.61865" lon="1.33471">
        <ele>204.4</ele>
        <time>2024-07-11T10:22:51Z</time>
      </trkpt>
      <trkpt lat="43.61861" lon="1.33465">
        <ele>204.4</ele>
        <time>2024-07-11T10:22:52Z</time>
      </trkpt>
      <trkpt lat="43.61858" lon="1.33459">
        <ele>204.4</ele>
        <time>2024-07-11T10:22:53Z</time>
      </trkpt>
      <trkpt lat="43.61854" lon="1.33452">
        <ele>204.4</ele>
        <time>2024-07-11T10:22:54Z</time>
      </trkpt>
      <trkpt lat="43.6185" lon="1.33446">
        <ele>204.4</ele>
        <time>2024-07-11T10:22:55Z</time>
      </trkpt>
      <trkpt lat="43.61846" lon="1.33441">
        <ele>204.4</ele>
        <time>2024-07-11T10:22:56Z</time>
      </trkpt>
      <trkpt lat="43.61843" lon="1.33434">
        <ele>204.4</ele>
        <time>2024-07-11T10:22:57Z</time>
      </trkpt>
      <trkpt lat="43.6184" lon="1.33427">
        <ele>204.6</ele>
        <time>2024-07-11T10:22:58Z</time>
      </trkpt>
      <trkpt lat="43.61837" lon="1.33421">
        <ele>204.6</ele>
        <time>2024-07-11T10:22:59Z</time>
      </trkpt>
      <trkpt lat="43.61835" lon="1.33414">
        <ele>204.6</ele>
        <time>2024-07-11T10:23:00Z</time>
      </trkpt>
      <trkpt lat="43.61832" lon="1.33408">
        <ele>204.6</ele>
        <time>2024-07-11T10:23:01Z</time>
      </trkpt>
      <trkpt lat="43.61828" lon="1.33402">
        <ele>204.6</ele>
        <time>2024-07-11T10:23:02Z</time>
      </trkpt>
      <trkpt lat="43.61825" lon="1.33396">
        <ele>204.8</ele>
        <time>2024-07-11T10:23:03Z</time>
      </trkpt>
      <trkpt lat="43.61822" lon="1.33391">
        <ele>204.8</ele>
        <time>2024-07-11T10:23:04Z</time>
      </trkpt>
      <trkpt lat="43.61818" lon="1.33387">
        <ele>205</ele>
        <time>2024-07-11T10:23:05Z</time>
      </trkpt>
      <trkpt lat="43.61813" lon="1.33384">
        <ele>205.2</ele>
        <time>2024-07-11T10:23:06Z</time>
      </trkpt>
      <trkpt lat="43.61809" lon="1.33381">
        <ele>205.2</ele>
        <time>2024-07-11T10:23:07Z</time>
      </trkpt>
      <trkpt lat="43.61804" lon="1.33378">
        <ele>205.4</ele>
        <time>2024-07-11T10:23:08Z</time>
      </trkpt>
      <trkpt lat="43.618" lon="1.33375">
        <ele>205.4</ele>
        <time>2024-07-11T10:23:09Z</time>
      </trkpt>
      <trkpt lat="43.61795" lon="1.33372">
        <ele>205.6</ele>
        <time>2024-07-11T10:23:10Z</time>
      </trkpt>
      <trkpt lat="43.6179" lon="1.3337">
        <ele>205.6</ele>
        <time>2024-07-11T10:23:11Z</time>
      </trkpt>
      <trkpt lat="43.61785" lon="1.33367">
        <ele>205.8</ele>
        <time>2024-07-11T10:23:12Z</time>
      </trkpt>
      <trkpt lat="43.6178" lon="1.33364">
        <ele>205.8</ele>
        <time>2024-07-11T10:23:13Z</time>
      </trkpt>
      <trkpt lat="43.61775" lon="1.33361">
        <ele>205.8</ele>
        <time>2024-07-11T10:23:14Z</time>
      </trkpt>
      <trkpt lat="43.6177" lon="1.33358">
        <ele>205.8</ele>
        <time>2024-07-11T10:23:15Z</time>
      </trkpt>
      <trkpt lat="43.61765" lon="1.33355">
        <ele>205.8</ele>
        <time>2024-07-11T10:23:16Z</time>
      </trkpt>
      <trkpt lat="43.61759" lon="1.33352">
        <ele>205.8</ele>
        <time>2024-07-11T10:23:17Z</time>
      </trkpt>
      <trkpt lat="43.61754" lon="1.33349">
        <ele>205.8</ele>
        <time>2024-07-11T10:23:18Z</time>
      </trkpt>
      <trkpt lat="43.61748" lon="1.33346">
        <ele>205.8</ele>
        <time>2024-07-11T10:23:19Z</time>
      </trkpt>
      <trkpt lat="43.61742" lon="1.33343">
        <ele>206</ele>
        <time>2024-07-11T10:23:20Z</time>
      </trkpt>
      <trkpt lat="43.61736" lon="1.33341">
        <ele>206</ele>
        <time>2024-07-11T10:23:21Z</time>
      </trkpt>
      <trkpt lat="43.6173" lon="1.33338">
        <ele>206</ele>
        <time>2024-07-11T10:23:22Z</time>
      </trkpt>
      <trkpt lat="43.61725" lon="1.33334">
        <ele>206</ele>
        <time>2024-07-11T10:23:23Z</time>
      </trkpt>
      <trkpt lat="43.61719" lon="1.33331">
        <ele>206</ele>
        <time>2024-07-11T10:23:24Z</time>
      </trkpt>
      <trkpt lat="43.61714" lon="1.33328">
        <ele>206</ele>
        <time>2024-07-11T10:23:25Z</time>
      </trkpt>
      <trkpt lat="43.61709" lon="1.33326">
        <ele>206</ele>
        <time>2024-07-11T10:23:26Z</time>
      </trkpt>
      <trkpt lat="43.61703" lon="1.33323">
        <ele>206</ele>
        <time>2024-07-11T10:23:27Z</time>
      </trkpt>
      <trkpt lat="43.61697" lon="1.3332">
        <ele>206</ele>
        <time>2024-07-11T10:23:28Z</time>
      </trkpt>
      <trkpt lat="43.61692" lon="1.33318">
        <ele>206</ele>
        <time>2024-07-11T10:23:29Z</time>
      </trkpt>
      <trkpt lat="43.61686" lon="1.33315">
        <ele>206.2</ele>
        <time>2024-07-11T10:23:30Z</time>
      </trkpt>
      <trkpt lat="43.6168" lon="1.33313">
        <ele>206.2</ele>
        <time>2024-07-11T10:23:31Z</time>
      </trkpt>
      <trkpt lat="43.61674" lon="1.33311">
        <ele>206.2</ele>
        <time>2024-07-11T10:23:32Z</time>
      </trkpt>
      <trkpt lat="43.61669" lon="1.3331">
        <ele>206.2</ele>
        <time>2024-07-11T10:23:33Z</time>
      </trkpt>
      <trkpt lat="43.61663" lon="1.33311">
        <ele>206.2</ele>
        <time>2024-07-11T10:23:34Z</time>
      </trkpt>
      <trkpt lat="43.61658" lon="1.33312">
        <ele>206.2</ele>
        <time>2024-07-11T10:23:35Z</time>
      </trkpt>
      <trkpt lat="43.61652" lon="1.33314">
        <ele>206.2</ele>
        <time>2024-07-11T10:23:36Z</time>
      </trkpt>
      <trkpt lat="43.61647" lon="1.33316">
        <ele>206.2</ele>
        <time>2024-07-11T10:23:37Z</time>
      </trkpt>
      <trkpt lat="43.61642" lon="1.33318">
        <ele>206.2</ele>
        <time>2024-07-11T10:23:38Z</time>
      </trkpt>
      <trkpt lat="43.61636" lon="1.3332">
        <ele>206.2</ele>
        <time>2024-07-11T10:23:39Z</time>
      </trkpt>
      <trkpt lat="43.61631" lon="1.33321">
        <ele>206.2</ele>
        <time>2024-07-11T10:23:40Z</time>
      </trkpt>
      <trkpt lat="43.61626" lon="1.33323">
        <ele>206.2</ele>
        <time>2024-07-11T10:23:41Z</time>
      </trkpt>
      <trkpt lat="43.6162" lon="1.33324">
        <ele>206.2</ele>
        <time>2024-07-11T10:23:42Z</time>
      </trkpt>
      <trkpt lat="43.61615" lon="1.33323">
        <ele>206.2</ele>
        <time>2024-07-11T10:23:43Z</time>
      </trkpt>
      <trkpt lat="43.6161" lon="1.33322">
        <ele>206.2</ele>
        <time>2024-07-11T10:23:44Z</time>
      </trkpt>
      <trkpt lat="43.61605" lon="1.3332">
        <ele>206.2</ele>
        <time>2024-07-11T10:23:45Z</time>
      </trkpt>
      <trkpt lat="43.61601" lon="1.33318">
        <ele>206.2</ele>
        <time>2024-07-11T10:23:46Z</time>
      </trkpt>
      <trkpt lat="43.61597" lon="1.33316">
        <ele>206.2</ele>
        <time>2024-07-11T10:23:47Z</time>
      </trkpt>
      <trkpt lat="43.61593" lon="1.33315">
        <ele>206.2</ele>
        <time>2024-07-11T10:23:48Z</time>
      </trkpt>
      <trkpt lat="43.6159" lon="1.33315">
        <ele>206.2</ele>
        <time>2024-07-11T10:23:49Z</time>
      </trkpt>
      <trkpt lat="43.61587" lon="1.33314">
        <ele>206</ele>
        <time>2024-07-11T10:23:50Z</time>
      </trkpt>
      <trkpt lat="43.61585" lon="1.33312">
        <ele>206</ele>
        <time>2024-07-11T10:23:51Z</time>
      </trkpt>
      <trkpt lat="43.61584" lon="1.33307">
        <ele>206</ele>
        <time>2024-07-11T10:23:52Z</time>
      </trkpt>
      <trkpt lat="43.61585" lon="1.33302">
        <ele>206</ele>
        <time>2024-07-11T10:23:53Z</time>
      </trkpt>
      <trkpt lat="43.61585" lon="1.33296">
        <ele>206</ele>
        <time>2024-07-11T10:23:54Z</time>
      </trkpt>
      <trkpt lat="43.61586" lon="1.33291">
        <ele>206</ele>
        <time>2024-07-11T10:23:55Z</time>
      </trkpt>
      <trkpt lat="43.61587" lon="1.33285">
        <ele>206</ele>
        <time>2024-07-11T10:23:56Z</time>
      </trkpt>
      <trkpt lat="43.61586" lon="1.3328">
        <ele>206</ele>
        <time>2024-07-11T10:23:57Z</time>
      </trkpt>
      <trkpt lat="43.61584" lon="1.33277">
        <ele>206</ele>
        <time>2024-07-11T10:23:58Z</time>
      </trkpt>
      <trkpt lat="43.61581" lon="1.33273">
        <ele>206</ele>
        <time>2024-07-11T10:23:59Z</time>
      </trkpt>
      <trkpt lat="43.61578" lon="1.33268">
        <ele>206</ele>
        <time>2024-07-11T10:24:00Z</time>
      </trkpt>
      <trkpt lat="43.61576" lon="1.33263">
        <ele>206</ele>
        <time>2024-07-11T10:24:01Z</time>
      </trkpt>
      <trkpt lat="43.61573" lon="1.33259">
        <ele>205.8</ele>
        <time>2024-07-11T10:24:02Z</time>
      </trkpt>
      <trkpt lat="43.61569" lon="1.33255">
        <ele>205.8</ele>
        <time>2024-07-11T10:24:03Z</time>
      </trkpt>
      <trkpt lat="43.61565" lon="1.33253">
        <ele>205.8</ele>
        <time>2024-07-11T10:24:04Z</time>
      </trkpt>
      <trkpt lat="43.61561" lon="1.3325">
        <ele>205.8</ele>
        <time>2024-07-11T10:24:05Z</time>
      </trkpt>
      <trkpt lat="43.61556" lon="1.33249">
        <ele>205.8</ele>
        <time>2024-07-11T10:24:06Z</time>
      </trkpt>
      <trkpt lat="43.61552" lon="1.33248">
        <ele>205.8</ele>
        <time>2024-07-11T10:24:07Z</time>
      </trkpt>
      <trkpt lat="43.61548" lon="1.33247">
        <ele>205.6</ele>
        <time>2024-07-11T10:24:08Z</time>
      </trkpt>
      <trkpt lat="43.61544" lon="1.33245">
        <ele>205.6</ele>
        <time>2024-07-11T10:24:09Z</time>
      </trkpt>
      <trkpt lat="43.6154" lon="1.33243">
        <ele>205.6</ele>
        <time>2024-07-11T10:24:10Z</time>
      </trkpt>
      <trkpt lat="43.61536" lon="1.3324">
        <ele>205.6</ele>
        <time>2024-07-11T10:24:11Z</time>
      </trkpt>
      <trkpt lat="43.61532" lon="1.33238">
        <ele>205.6</ele>
        <time>2024-07-11T10:24:12Z</time>
      </trkpt>
      <trkpt lat="43.61532" lon="1.33238">
        <ele>205.6</ele>
        <time>2024-07-11T10:24:13Z</time>
      </trkpt>
      <trkpt lat="43.61524" lon="1.33233">
        <ele>205.6</ele>
        <time>2024-07-11T10:24:14Z</time>
      </trkpt>
      <trkpt lat="43.6152" lon="1.3323">
        <ele>205.8</ele>
        <time>2024-07-11T10:24:15Z</time>
      </trkpt>
      <trkpt lat="43.61515" lon="1.33226">
        <ele>205.8</ele>
        <time>2024-07-11T10:24:16Z</time>
      </trkpt>
      <trkpt lat="43.61511" lon="1.33223">
        <ele>205.8</ele>
        <time>2024-07-11T10:24:17Z</time>
      </trkpt>
      <trkpt lat="43.61506" lon="1.33219">
        <ele>205.8</ele>
        <time>2024-07-11T10:24:18Z</time>
      </trkpt>
      <trkpt lat="43.61502" lon="1.33216">
        <ele>205.8</ele>
        <time>2024-07-11T10:24:19Z</time>
      </trkpt>
      <trkpt lat="43.61498" lon="1.33213">
        <ele>206</ele>
        <time>2024-07-11T10:24:20Z</time>
      </trkpt>
      <trkpt lat="43.61494" lon="1.33209">
        <ele>206.2</ele>
        <time>2024-07-11T10:24:21Z</time>
      </trkpt>
      <trkpt lat="43.6149" lon="1.33206">
        <ele>206.4</ele>
        <time>2024-07-11T10:24:22Z</time>
      </trkpt>
      <trkpt lat="43.61486" lon="1.33203">
        <ele>206.4</ele>
        <time>2024-07-11T10:24:23Z</time>
      </trkpt>
      <trkpt lat="43.61482" lon="1.33199">
        <ele>206.4</ele>
        <time>2024-07-11T10:24:24Z</time>
      </trkpt>
      <trkpt lat="43.61477" lon="1.33196">
        <ele>206.4</ele>
        <time>2024-07-11T10:24:25Z</time>
      </trkpt>
      <trkpt lat="43.61473" lon="1.33193">
        <ele>206.4</ele>
        <time>2024-07-11T10:24:26Z</time>
      </trkpt>
      <trkpt lat="43.61469" lon="1.33188">
        <ele>206.4</ele>
        <time>2024-07-11T10:24:27Z</time>
      </trkpt>
      <trkpt lat="43.61465" lon="1.33184">
        <ele>206.4</ele>
        <time>2024-07-11T10:24:28Z</time>
      </trkpt>
      <trkpt lat="43.61461" lon="1.33179">
        <ele>206.4</ele>
        <time>2024-07-11T10:24:29Z</time>
      </trkpt>
      <trkpt lat="43.61456" lon="1.33176">
        <ele>206.4</ele>
        <time>2024-07-11T10:24:30Z</time>
      </trkpt>
      <trkpt lat="43.61452" lon="1.33175">
        <ele>206.4</ele>
        <time>2024-07-11T10:24:31Z</time>
      </trkpt>
      <trkpt lat="43.6145" lon="1.33173">
        <ele>206.4</ele>
        <time>2024-07-11T10:24:32Z</time>
      </trkpt>
      <trkpt lat="43.61449" lon="1.33169">
        <ele>206.4</ele>
        <time>2024-07-11T10:24:33Z</time>
      </trkpt>
      <trkpt lat="43.61449" lon="1.33167">
        <ele>206.4</ele>
        <time>2024-07-11T10:24:34Z</time>
      </trkpt>
      <trkpt lat="43.61451" lon="1.33166">
        <ele>206.4</ele>
        <time>2024-07-11T10:24:35Z</time>
      </trkpt>
      <trkpt lat="43.61452" lon="1.33166">
        <ele>206.4</ele>
        <time>2024-07-11T10:24:36Z</time>
      </trkpt>
      <trkpt lat="43.61453" lon="1.33165">
        <ele>206.4</ele>
        <time>2024-07-11T10:24:37Z</time>
      </trkpt>
      <trkpt lat="43.61454" lon="1.33162">
        <ele>206.4</ele>
        <time>2024-07-11T10:24:38Z</time>
      </trkpt>
      <trkpt lat="43.61454" lon="1.33159">
        <ele>206.4</ele>
        <time>2024-07-11T10:24:39Z</time>
      </trkpt>
      <trkpt lat="43.61452" lon="1.33155">
        <ele>206.4</ele>
        <time>2024-07-11T10:24:40Z</time>
      </trkpt>
      <trkpt lat="43.61449" lon="1.33153">
        <ele>206.4</ele>
        <time>2024-07-11T10:24:41Z</time>
      </trkpt>
      <trkpt lat="43.61445" lon="1.3315">
        <ele>206.4</ele>
        <time>2024-07-11T10:24:42Z</time>
      </trkpt>
      <trkpt lat="43.61441" lon="1.33147">
        <ele>206.4</ele>
        <time>2024-07-11T10:24:43Z</time>
      </trkpt>
      <trkpt lat="43.61436" lon="1.33144">
        <ele>206.4</ele>
        <time>2024-07-11T10:24:44Z</time>
      </trkpt>
      <trkpt lat="43.61431" lon="1.33141">
        <ele>206.4</ele>
        <time>2024-07-11T10:24:45Z</time>
      </trkpt>
      <trkpt lat="43.61426" lon="1.33138">
        <ele>206.2</ele>
        <time>2024-07-11T10:24:46Z</time>
      </trkpt>
      <trkpt lat="43.61422" lon="1.33136">
        <ele>206.2</ele>
        <time>2024-07-11T10:24:47Z</time>
      </trkpt>
      <trkpt lat="43.61417" lon="1.33133">
        <ele>206</ele>
        <time>2024-07-11T10:24:48Z</time>
      </trkpt>
      <trkpt lat="43.61412" lon="1.33131">
        <ele>206</ele>
        <time>2024-07-11T10:24:49Z</time>
      </trkpt>
      <trkpt lat="43.61406" lon="1.33129">
        <ele>206</ele>
        <time>2024-07-11T10:24:50Z</time>
      </trkpt>
      <trkpt lat="43.61401" lon="1.33128">
        <ele>206</ele>
        <time>2024-07-11T10:24:51Z</time>
      </trkpt>
      <trkpt lat="43.61395" lon="1.33126">
        <ele>206</ele>
        <time>2024-07-11T10:24:52Z</time>
      </trkpt>
      <trkpt lat="43.61389" lon="1.33125">
        <ele>206</ele>
        <time>2024-07-11T10:24:53Z</time>
      </trkpt>
      <trkpt lat="43.61383" lon="1.33123">
        <ele>206</ele>
        <time>2024-07-11T10:24:54Z</time>
      </trkpt>
      <trkpt lat="43.61377" lon="1.33121">
        <ele>206</ele>
        <time>2024-07-11T10:24:55Z</time>
      </trkpt>
      <trkpt lat="43.61371" lon="1.3312">
        <ele>206</ele>
        <time>2024-07-11T10:24:56Z</time>
      </trkpt>
      <trkpt lat="43.61365" lon="1.3312">
        <ele>206</ele>
        <time>2024-07-11T10:24:57Z</time>
      </trkpt>
      <trkpt lat="43.61359" lon="1.33119">
        <ele>206</ele>
        <time>2024-07-11T10:24:58Z</time>
      </trkpt>
      <trkpt lat="43.61353" lon="1.33118">
        <ele>206</ele>
        <time>2024-07-11T10:24:59Z</time>
      </trkpt>
      <trkpt lat="43.61347" lon="1.33116">
        <ele>206</ele>
        <time>2024-07-11T10:25:00Z</time>
      </trkpt>
      <trkpt lat="43.61342" lon="1.33112">
        <ele>206</ele>
        <time>2024-07-11T10:25:01Z</time>
      </trkpt>
      <trkpt lat="43.61338" lon="1.33106">
        <ele>206</ele>
        <time>2024-07-11T10:25:02Z</time>
      </trkpt>
      <trkpt lat="43.61334" lon="1.331">
        <ele>206</ele>
        <time>2024-07-11T10:25:03Z</time>
      </trkpt>
      <trkpt lat="43.6133" lon="1.33093">
        <ele>206</ele>
        <time>2024-07-11T10:25:04Z</time>
      </trkpt>
      <trkpt lat="43.61326" lon="1.33086">
        <ele>206</ele>
        <time>2024-07-11T10:25:05Z</time>
      </trkpt>
      <trkpt lat="43.61322" lon="1.3308">
        <ele>205.8</ele>
        <time>2024-07-11T10:25:06Z</time>
      </trkpt>
      <trkpt lat="43.61316" lon="1.33075">
        <ele>205.8</ele>
        <time>2024-07-11T10:25:07Z</time>
      </trkpt>
      <trkpt lat="43.61311" lon="1.3307">
        <ele>205.8</ele>
        <time>2024-07-11T10:25:08Z</time>
      </trkpt>
      <trkpt lat="43.61304" lon="1.33068">
        <ele>205.8</ele>
        <time>2024-07-11T10:25:09Z</time>
      </trkpt>
      <trkpt lat="43.61298" lon="1.33067">
        <ele>205.6</ele>
        <time>2024-07-11T10:25:10Z</time>
      </trkpt>
      <trkpt lat="43.61292" lon="1.33067">
        <ele>205.6</ele>
        <time>2024-07-11T10:25:11Z</time>
      </trkpt>
      <trkpt lat="43.61285" lon="1.33069">
        <ele>205.6</ele>
        <time>2024-07-11T10:25:12Z</time>
      </trkpt>
      <trkpt lat="43.61279" lon="1.33072">
        <ele>205.6</ele>
        <time>2024-07-11T10:25:13Z</time>
      </trkpt>
      <trkpt lat="43.61274" lon="1.33075">
        <ele>205.6</ele>
        <time>2024-07-11T10:25:14Z</time>
      </trkpt>
      <trkpt lat="43.61268" lon="1.33079">
        <ele>205.4</ele>
        <time>2024-07-11T10:25:15Z</time>
      </trkpt>
      <trkpt lat="43.61262" lon="1.33082">
        <ele>205.4</ele>
        <time>2024-07-11T10:25:16Z</time>
      </trkpt>
      <trkpt lat="43.61256" lon="1.33084">
        <ele>205.4</ele>
        <time>2024-07-11T10:25:17Z</time>
      </trkpt>
      <trkpt lat="43.6125" lon="1.33084">
        <ele>205.4</ele>
        <time>2024-07-11T10:25:18Z</time>
      </trkpt>
      <trkpt lat="43.61244" lon="1.33082">
        <ele>205.4</ele>
        <time>2024-07-11T10:25:19Z</time>
      </trkpt>
      <trkpt lat="43.61238" lon="1.3308">
        <ele>205.4</ele>
        <time>2024-07-11T10:25:20Z</time>
      </trkpt>
      <trkpt lat="43.61232" lon="1.33077">
        <ele>205.4</ele>
        <time>2024-07-11T10:25:21Z</time>
      </trkpt>
      <trkpt lat="43.61226" lon="1.33074">
        <ele>205.6</ele>
        <time>2024-07-11T10:25:22Z</time>
      </trkpt>
      <trkpt lat="43.6122" lon="1.3307">
        <ele>205.6</ele>
        <time>2024-07-11T10:25:23Z</time>
      </trkpt>
      <trkpt lat="43.61214" lon="1.33065">
        <ele>205.6</ele>
        <time>2024-07-11T10:25:24Z</time>
      </trkpt>
      <trkpt lat="43.61208" lon="1.3306">
        <ele>205.6</ele>
        <time>2024-07-11T10:25:25Z</time>
      </trkpt>
      <trkpt lat="43.61202" lon="1.33055">
        <ele>205.6</ele>
        <time>2024-07-11T10:25:26Z</time>
      </trkpt>
      <trkpt lat="43.61196" lon="1.33049">
        <ele>205.6</ele>
        <time>2024-07-11T10:25:27Z</time>
      </trkpt>
      <trkpt lat="43.6119" lon="1.33043">
        <ele>205.6</ele>
        <time>2024-07-11T10:25:28Z</time>
      </trkpt>
      <trkpt lat="43.61185" lon="1.33036">
        <ele>205.6</ele>
        <time>2024-07-11T10:25:29Z</time>
      </trkpt>
      <trkpt lat="43.61179" lon="1.3303">
        <ele>205.4</ele>
        <time>2024-07-11T10:25:30Z</time>
      </trkpt>
      <trkpt lat="43.61174" lon="1.33023">
        <ele>205.4</ele>
        <time>2024-07-11T10:25:31Z</time>
      </trkpt>
      <trkpt lat="43.61169" lon="1.33017">
        <ele>205.4</ele>
        <time>2024-07-11T10:25:32Z</time>
      </trkpt>
      <trkpt lat="43.61164" lon="1.33011">
        <ele>205.2</ele>
        <time>2024-07-11T10:25:33Z</time>
      </trkpt>
      <trkpt lat="43.61159" lon="1.33004">
        <ele>205.2</ele>
        <time>2024-07-11T10:25:34Z</time>
      </trkpt>
      <trkpt lat="43.61154" lon="1.32998">
        <ele>205</ele>
        <time>2024-07-11T10:25:35Z</time>
      </trkpt>
      <trkpt lat="43.61149" lon="1.32992">
        <ele>205</ele>
        <time>2024-07-11T10:25:36Z</time>
      </trkpt>
      <trkpt lat="43.61144" lon="1.32986">
        <ele>204.8</ele>
        <time>2024-07-11T10:25:37Z</time>
      </trkpt>
      <trkpt lat="43.61139" lon="1.3298">
        <ele>204.8</ele>
        <time>2024-07-11T10:25:38Z</time>
      </trkpt>
      <trkpt lat="43.61134" lon="1.32973">
        <ele>204.8</ele>
        <time>2024-07-11T10:25:39Z</time>
      </trkpt>
      <trkpt lat="43.6113" lon="1.32967">
        <ele>204.8</ele>
        <time>2024-07-11T10:25:40Z</time>
      </trkpt>
      <trkpt lat="43.61125" lon="1.32961">
        <ele>204.8</ele>
        <time>2024-07-11T10:25:41Z</time>
      </trkpt>
      <trkpt lat="43.61119" lon="1.32954">
        <ele>204.8</ele>
        <time>2024-07-11T10:25:42Z</time>
      </trkpt>
      <trkpt lat="43.61115" lon="1.3295">
        <ele>204.8</ele>
        <time>2024-07-11T10:25:43Z</time>
      </trkpt>
      <trkpt lat="43.61111" lon="1.32944">
        <ele>204.8</ele>
        <time>2024-07-11T10:25:44Z</time>
      </trkpt>
      <trkpt lat="43.61107" lon="1.32938">
        <ele>204.8</ele>
        <time>2024-07-11T10:25:45Z</time>
      </trkpt>
      <trkpt lat="43.61103" lon="1.32931">
        <ele>204.8</ele>
        <time>2024-07-11T10:25:46Z</time>
      </trkpt>
      <trkpt lat="43.611" lon="1.32925">
        <ele>205.2</ele>
        <time>2024-07-11T10:25:47Z</time>
      </trkpt>
      <trkpt lat="43.61098" lon="1.32919">
        <ele>205.4</ele>
        <time>2024-07-11T10:25:48Z</time>
      </trkpt>
      <trkpt lat="43.61094" lon="1.32911">
        <ele>205.6</ele>
        <time>2024-07-11T10:25:49Z</time>
      </trkpt>
      <trkpt lat="43.6109" lon="1.32907">
        <ele>205.6</ele>
        <time>2024-07-11T10:25:50Z</time>
      </trkpt>
      <trkpt lat="43.61085" lon="1.32903">
        <ele>205.8</ele>
        <time>2024-07-11T10:25:51Z</time>
      </trkpt>
      <trkpt lat="43.6108" lon="1.329">
        <ele>206</ele>
        <time>2024-07-11T10:25:52Z</time>
      </trkpt>
      <trkpt lat="43.61075" lon="1.32896">
        <ele>206</ele>
        <time>2024-07-11T10:25:53Z</time>
      </trkpt>
      <trkpt lat="43.61071" lon="1.32893">
        <ele>206.4</ele>
        <time>2024-07-11T10:25:54Z</time>
      </trkpt>
      <trkpt lat="43.61066" lon="1.32888">
        <ele>206.8</ele>
        <time>2024-07-11T10:25:55Z</time>
      </trkpt>
      <trkpt lat="43.61061" lon="1.32883">
        <ele>206.8</ele>
        <time>2024-07-11T10:25:56Z</time>
      </trkpt>
      <trkpt lat="43.61056" lon="1.32878">
        <ele>207</ele>
        <time>2024-07-11T10:25:57Z</time>
      </trkpt>
      <trkpt lat="43.61052" lon="1.32873">
        <ele>207</ele>
        <time>2024-07-11T10:25:58Z</time>
      </trkpt>
      <trkpt lat="43.61047" lon="1.32866">
        <ele>207.2</ele>
        <time>2024-07-11T10:25:59Z</time>
      </trkpt>
      <trkpt lat="43.61043" lon="1.32862">
        <ele>207.2</ele>
        <time>2024-07-11T10:26:00Z</time>
      </trkpt>
      <trkpt lat="43.61038" lon="1.32856">
        <ele>207.2</ele>
        <time>2024-07-11T10:26:01Z</time>
      </trkpt>
      <trkpt lat="43.61034" lon="1.32849">
        <ele>207.4</ele>
        <time>2024-07-11T10:26:02Z</time>
      </trkpt>
      <trkpt lat="43.61029" lon="1.32843">
        <ele>207.4</ele>
        <time>2024-07-11T10:26:03Z</time>
      </trkpt>
      <trkpt lat="43.61024" lon="1.32837">
        <ele>207.4</ele>
        <time>2024-07-11T10:26:04Z</time>
      </trkpt>
      <trkpt lat="43.61019" lon="1.32831">
        <ele>207.4</ele>
        <time>2024-07-11T10:26:05Z</time>
      </trkpt>
      <trkpt lat="43.61014" lon="1.32825">
        <ele>207.4</ele>
        <time>2024-07-11T10:26:06Z</time>
      </trkpt>
      <trkpt lat="43.61009" lon="1.32819">
        <ele>207.4</ele>
        <time>2024-07-11T10:26:07Z</time>
      </trkpt>
      <trkpt lat="43.61004" lon="1.32813">
        <ele>207.4</ele>
        <time>2024-07-11T10:26:08Z</time>
      </trkpt>
      <trkpt lat="43.60999" lon="1.32807">
        <ele>207.4</ele>
        <time>2024-07-11T10:26:09Z</time>
      </trkpt>
      <trkpt lat="43.60994" lon="1.32801">
        <ele>207.4</ele>
        <time>2024-07-11T10:26:10Z</time>
      </trkpt>
      <trkpt lat="43.60989" lon="1.32795">
        <ele>207.2</ele>
        <time>2024-07-11T10:26:11Z</time>
      </trkpt>
      <trkpt lat="43.60984" lon="1.32788">
        <ele>207</ele>
        <time>2024-07-11T10:26:12Z</time>
      </trkpt>
      <trkpt lat="43.60978" lon="1.32781">
        <ele>207</ele>
        <time>2024-07-11T10:26:13Z</time>
      </trkpt>
      <trkpt lat="43.60974" lon="1.32776">
        <ele>207</ele>
        <time>2024-07-11T10:26:14Z</time>
      </trkpt>
      <trkpt lat="43.60969" lon="1.3277">
        <ele>207</ele>
        <time>2024-07-11T10:26:15Z</time>
      </trkpt>
      <trkpt lat="43.60964" lon="1.32764">
        <ele>206.8</ele>
        <time>2024-07-11T10:26:16Z</time>
      </trkpt>
      <trkpt lat="43.60958" lon="1.32757">
        <ele>206.8</ele>
        <time>2024-07-11T10:26:17Z</time>
      </trkpt>
      <trkpt lat="43.60955" lon="1.32753">
        <ele>206.8</ele>
        <time>2024-07-11T10:26:18Z</time>
      </trkpt>
      <trkpt lat="43.6095" lon="1.32747">
        <ele>206.8</ele>
        <time>2024-07-11T10:26:19Z</time>
      </trkpt>
      <trkpt lat="43.60945" lon="1.32742">
        <ele>206.8</ele>
        <time>2024-07-11T10:26:20Z</time>
      </trkpt>
      <trkpt lat="43.60941" lon="1.32736">
        <ele>206.8</ele>
        <time>2024-07-11T10:26:21Z</time>
      </trkpt>
      <trkpt lat="43.60941" lon="1.32736">
        <ele>206.8</ele>
        <time>2024-07-11T10:26:22Z</time>
      </trkpt>
      <trkpt lat="43.60936" lon="1.32721">
        <ele>206.8</ele>
        <time>2024-07-11T10:26:23Z</time>
      </trkpt>
      <trkpt lat="43.60936" lon="1.32713">
        <ele>206.8</ele>
        <time>2024-07-11T10:26:24Z</time>
      </trkpt>
      <trkpt lat="43.60935" lon="1.32705">
        <ele>206.8</ele>
        <time>2024-07-11T10:26:25Z</time>
      </trkpt>
      <trkpt lat="43.60936" lon="1.32697">
        <ele>206.8</ele>
        <time>2024-07-11T10:26:26Z</time>
      </trkpt>
      <trkpt lat="43.60937" lon="1.32688">
        <ele>206.8</ele>
        <time>2024-07-11T10:26:27Z</time>
      </trkpt>
      <trkpt lat="43.60938" lon="1.32679">
        <ele>207</ele>
        <time>2024-07-11T10:26:28Z</time>
      </trkpt>
      <trkpt lat="43.60938" lon="1.3267">
        <ele>207</ele>
        <time>2024-07-11T10:26:29Z</time>
      </trkpt>
      <trkpt lat="43.60938" lon="1.3267">
        <ele>207</ele>
        <time>2024-07-11T10:26:30Z</time>
      </trkpt>
      <trkpt lat="43.60936" lon="1.32652">
        <ele>206.8</ele>
        <time>2024-07-11T10:26:31Z</time>
      </trkpt>
      <trkpt lat="43.60937" lon="1.32643">
        <ele>206.8</ele>
        <time>2024-07-11T10:26:32Z</time>
      </trkpt>
      <trkpt lat="43.60938" lon="1.32634">
        <ele>206.8</ele>
        <time>2024-07-11T10:26:33Z</time>
      </trkpt>
      <trkpt lat="43.60941" lon="1.32626">
        <ele>206.8</ele>
        <time>2024-07-11T10:26:34Z</time>
      </trkpt>
      <trkpt lat="43.60944" lon="1.32618">
        <ele>206.8</ele>
        <time>2024-07-11T10:26:35Z</time>
      </trkpt>
      <trkpt lat="43.60948" lon="1.3261">
        <ele>206.8</ele>
        <time>2024-07-11T10:26:36Z</time>
      </trkpt>
      <trkpt lat="43.60952" lon="1.32604">
        <ele>206.8</ele>
        <time>2024-07-11T10:26:37Z</time>
      </trkpt>
      <trkpt lat="43.60955" lon="1.32598">
        <ele>206.8</ele>
        <time>2024-07-11T10:26:38Z</time>
      </trkpt>
      <trkpt lat="43.60958" lon="1.32593">
        <ele>206.8</ele>
        <time>2024-07-11T10:26:39Z</time>
      </trkpt>
      <trkpt lat="43.60961" lon="1.32588">
        <ele>206.8</ele>
        <time>2024-07-11T10:26:40Z</time>
      </trkpt>
      <trkpt lat="43.60962" lon="1.32585">
        <ele>207</ele>
        <time>2024-07-11T10:26:41Z</time>
      </trkpt>
      <trkpt lat="43.60961" lon="1.32581">
        <ele>207</ele>
        <time>2024-07-11T10:26:42Z</time>
      </trkpt>
      <trkpt lat="43.60959" lon="1.32576">
        <ele>207</ele>
        <time>2024-07-11T10:26:43Z</time>
      </trkpt>
      <trkpt lat="43.60956" lon="1.32574">
        <ele>207</ele>
        <time>2024-07-11T10:26:44Z</time>
      </trkpt>
      <trkpt lat="43.60953" lon="1.32572">
        <ele>207</ele>
        <time>2024-07-11T10:26:45Z</time>
      </trkpt>
      <trkpt lat="43.6095" lon="1.3257">
        <ele>207</ele>
        <time>2024-07-11T10:26:46Z</time>
      </trkpt>
      <trkpt lat="43.60948" lon="1.32568">
        <ele>207</ele>
        <time>2024-07-11T10:26:47Z</time>
      </trkpt>
      <trkpt lat="43.60947" lon="1.32565">
        <ele>207</ele>
        <time>2024-07-11T10:26:48Z</time>
      </trkpt>
      <trkpt lat="43.60946" lon="1.32563">
        <ele>206.8</ele>
        <time>2024-07-11T10:26:49Z</time>
      </trkpt>
      <trkpt lat="43.60944" lon="1.32562">
        <ele>206.8</ele>
        <time>2024-07-11T10:26:50Z</time>
      </trkpt>
      <trkpt lat="43.60942" lon="1.3256">
        <ele>206.8</ele>
        <time>2024-07-11T10:26:51Z</time>
      </trkpt>
      <trkpt lat="43.60938" lon="1.32559">
        <ele>206.8</ele>
        <time>2024-07-11T10:26:52Z</time>
      </trkpt>
      <trkpt lat="43.60935" lon="1.32556">
        <ele>206.6</ele>
        <time>2024-07-11T10:26:53Z</time>
      </trkpt>
      <trkpt lat="43.60932" lon="1.32553">
        <ele>206.6</ele>
        <time>2024-07-11T10:26:54Z</time>
      </trkpt>
      <trkpt lat="43.60929" lon="1.3255">
        <ele>206.6</ele>
        <time>2024-07-11T10:26:55Z</time>
      </trkpt>
      <trkpt lat="43.60925" lon="1.32547">
        <ele>206.6</ele>
        <time>2024-07-11T10:26:56Z</time>
      </trkpt>
      <trkpt lat="43.60921" lon="1.32544">
        <ele>206.6</ele>
        <time>2024-07-11T10:26:57Z</time>
      </trkpt>
      <trkpt lat="43.60917" lon="1.3254">
        <ele>206.6</ele>
        <time>2024-07-11T10:26:58Z</time>
      </trkpt>
      <trkpt lat="43.60914" lon="1.32536">
        <ele>206.6</ele>
        <time>2024-07-11T10:26:59Z</time>
      </trkpt>
      <trkpt lat="43.60913" lon="1.3253">
        <ele>206.6</ele>
        <time>2024-07-11T10:27:00Z</time>
      </trkpt>
      <trkpt lat="43.60913" lon="1.32524">
        <ele>206.8</ele>
        <time>2024-07-11T10:27:01Z</time>
      </trkpt>
      <trkpt lat="43.60915" lon="1.32518">
        <ele>206.8</ele>
        <time>2024-07-11T10:27:02Z</time>
      </trkpt>
      <trkpt lat="43.60918" lon="1.32513">
        <ele>206.8</ele>
        <time>2024-07-11T10:27:03Z</time>
      </trkpt>
      <trkpt lat="43.6092" lon="1.32507">
        <ele>207</ele>
        <time>2024-07-11T10:27:04Z</time>
      </trkpt>
      <trkpt lat="43.60921" lon="1.32501">
        <ele>207</ele>
        <time>2024-07-11T10:27:05Z</time>
      </trkpt>
      <trkpt lat="43.6092" lon="1.32494">
        <ele>207</ele>
        <time>2024-07-11T10:27:06Z</time>
      </trkpt>
      <trkpt lat="43.60918" lon="1.32488">
        <ele>207</ele>
        <time>2024-07-11T10:27:07Z</time>
      </trkpt>
      <trkpt lat="43.60915" lon="1.32483">
        <ele>207</ele>
        <time>2024-07-11T10:27:08Z</time>
      </trkpt>
      <trkpt lat="43.60911" lon="1.32478">
        <ele>207</ele>
        <time>2024-07-11T10:27:09Z</time>
      </trkpt>
      <trkpt lat="43.60908" lon="1.32473">
        <ele>207</ele>
        <time>2024-07-11T10:27:10Z</time>
      </trkpt>
      <trkpt lat="43.60903" lon="1.32468">
        <ele>207</ele>
        <time>2024-07-11T10:27:11Z</time>
      </trkpt>
      <trkpt lat="43.609" lon="1.32463">
        <ele>207</ele>
        <time>2024-07-11T10:27:12Z</time>
      </trkpt>
      <trkpt lat="43.60896" lon="1.32458">
        <ele>207</ele>
        <time>2024-07-11T10:27:13Z</time>
      </trkpt>
      <trkpt lat="43.60894" lon="1.32451">
        <ele>207</ele>
        <time>2024-07-11T10:27:14Z</time>
      </trkpt>
      <trkpt lat="43.60893" lon="1.32444">
        <ele>207</ele>
        <time>2024-07-11T10:27:15Z</time>
      </trkpt>
      <trkpt lat="43.60893" lon="1.32437">
        <ele>207</ele>
        <time>2024-07-11T10:27:16Z</time>
      </trkpt>
      <trkpt lat="43.60892" lon="1.3243">
        <ele>207</ele>
        <time>2024-07-11T10:27:17Z</time>
      </trkpt>
      <trkpt lat="43.6089" lon="1.32424">
        <ele>207</ele>
        <time>2024-07-11T10:27:18Z</time>
      </trkpt>
      <trkpt lat="43.60888" lon="1.32419">
        <ele>207</ele>
        <time>2024-07-11T10:27:19Z</time>
      </trkpt>
      <trkpt lat="43.60885" lon="1.32413">
        <ele>207</ele>
        <time>2024-07-11T10:27:20Z</time>
      </trkpt>
      <trkpt lat="43.60882" lon="1.32408">
        <ele>207</ele>
        <time>2024-07-11T10:27:21Z</time>
      </trkpt>
      <trkpt lat="43.6088" lon="1.32402">
        <ele>207</ele>
        <time>2024-07-11T10:27:22Z</time>
      </trkpt>
      <trkpt lat="43.60878" lon="1.32395">
        <ele>207</ele>
        <time>2024-07-11T10:27:23Z</time>
      </trkpt>
      <trkpt lat="43.60877" lon="1.32388">
        <ele>207</ele>
        <time>2024-07-11T10:27:24Z</time>
      </trkpt>
      <trkpt lat="43.60876" lon="1.32381">
        <ele>207</ele>
        <time>2024-07-11T10:27:25Z</time>
      </trkpt>
      <trkpt lat="43.60875" lon="1.32374">
        <ele>207</ele>
        <time>2024-07-11T10:27:26Z</time>
      </trkpt>
      <trkpt lat="43.60874" lon="1.32366">
        <ele>207</ele>
        <time>2024-07-11T10:27:27Z</time>
      </trkpt>
      <trkpt lat="43.60877" lon="1.3236">
        <ele>207</ele>
        <time>2024-07-11T10:27:28Z</time>
      </trkpt>
      <trkpt lat="43.6088" lon="1.32356">
        <ele>207</ele>
        <time>2024-07-11T10:27:29Z</time>
      </trkpt>
      <trkpt lat="43.60885" lon="1.32353">
        <ele>206.8</ele>
        <time>2024-07-11T10:27:30Z</time>
      </trkpt>
      <trkpt lat="43.6089" lon="1.32351">
        <ele>206.8</ele>
        <time>2024-07-11T10:27:31Z</time>
      </trkpt>
      <trkpt lat="43.60895" lon="1.32348">
        <ele>206.8</ele>
        <time>2024-07-11T10:27:32Z</time>
      </trkpt>
      <trkpt lat="43.609" lon="1.32345">
        <ele>207</ele>
        <time>2024-07-11T10:27:33Z</time>
      </trkpt>
      <trkpt lat="43.60906" lon="1.32342">
        <ele>207</ele>
        <time>2024-07-11T10:27:34Z</time>
      </trkpt>
      <trkpt lat="43.60911" lon="1.3234">
        <ele>207</ele>
        <time>2024-07-11T10:27:35Z</time>
      </trkpt>
      <trkpt lat="43.60916" lon="1.32337">
        <ele>207.2</ele>
        <time>2024-07-11T10:27:36Z</time>
      </trkpt>
      <trkpt lat="43.60921" lon="1.32335">
        <ele>207.2</ele>
        <time>2024-07-11T10:27:37Z</time>
      </trkpt>
      <trkpt lat="43.60926" lon="1.32333">
        <ele>207.2</ele>
        <time>2024-07-11T10:27:38Z</time>
      </trkpt>
      <trkpt lat="43.6093" lon="1.32331">
        <ele>207.2</ele>
        <time>2024-07-11T10:27:39Z</time>
      </trkpt>
      <trkpt lat="43.60933" lon="1.3233">
        <ele>207.4</ele>
        <time>2024-07-11T10:27:40Z</time>
      </trkpt>
      <trkpt lat="43.60937" lon="1.32328">
        <ele>207.4</ele>
        <time>2024-07-11T10:27:41Z</time>
      </trkpt>
      <trkpt lat="43.6094" lon="1.32326">
        <ele>208.2</ele>
        <time>2024-07-11T10:27:42Z</time>
      </trkpt>
      <trkpt lat="43.60943" lon="1.32325">
        <ele>208.6</ele>
        <time>2024-07-11T10:27:43Z</time>
      </trkpt>
      <trkpt lat="43.60945" lon="1.32323">
        <ele>208.4</ele>
        <time>2024-07-11T10:27:44Z</time>
      </trkpt>
      <trkpt lat="43.60946" lon="1.3232">
        <ele>209</ele>
        <time>2024-07-11T10:27:45Z</time>
      </trkpt>
      <trkpt lat="43.60946" lon="1.32317">
        <ele>209.6</ele>
        <time>2024-07-11T10:27:46Z</time>
      </trkpt>
      <trkpt lat="43.60945" lon="1.32313">
        <ele>210.8</ele>
        <time>2024-07-11T10:27:47Z</time>
      </trkpt>
      <trkpt lat="43.60944" lon="1.32309">
        <ele>211.2</ele>
        <time>2024-07-11T10:27:48Z</time>
      </trkpt>
      <trkpt lat="43.60943" lon="1.32305">
        <ele>211.6</ele>
        <time>2024-07-11T10:27:49Z</time>
      </trkpt>
      <trkpt lat="43.60942" lon="1.32301">
        <ele>212</ele>
        <time>2024-07-11T10:27:50Z</time>
      </trkpt>
      <trkpt lat="43.6094" lon="1.32299">
        <ele>212</ele>
        <time>2024-07-11T10:27:51Z</time>
      </trkpt>
      <trkpt lat="43.6094" lon="1.32299">
        <ele>212.2</ele>
        <time>2024-07-11T10:27:52Z</time>
      </trkpt>
      <trkpt lat="43.60934" lon="1.32301">
        <ele>212.4</ele>
        <time>2024-07-11T10:27:53Z</time>
      </trkpt>
      <trkpt lat="43.60929" lon="1.32303">
        <ele>212.4</ele>
        <time>2024-07-11T10:27:54Z</time>
      </trkpt>
      <trkpt lat="43.60924" lon="1.32306">
        <ele>212.4</ele>
        <time>2024-07-11T10:27:55Z</time>
      </trkpt>
      <trkpt lat="43.60918" lon="1.32309">
        <ele>212.4</ele>
        <time>2024-07-11T10:27:56Z</time>
      </trkpt>
      <trkpt lat="43.60911" lon="1.32313">
        <ele>212.4</ele>
        <time>2024-07-11T10:27:57Z</time>
      </trkpt>
      <trkpt lat="43.60903" lon="1.32316">
        <ele>212.4</ele>
        <time>2024-07-11T10:27:58Z</time>
      </trkpt>
      <trkpt lat="43.60895" lon="1.32319">
        <ele>212.4</ele>
        <time>2024-07-11T10:27:59Z</time>
      </trkpt>
      <trkpt lat="43.60886" lon="1.3232">
        <ele>212.2</ele>
        <time>2024-07-11T10:28:00Z</time>
      </trkpt>
      <trkpt lat="43.60878" lon="1.32319">
        <ele>212</ele>
        <time>2024-07-11T10:28:01Z</time>
      </trkpt>
      <trkpt lat="43.60871" lon="1.32318">
        <ele>210.8</ele>
        <time>2024-07-11T10:28:02Z</time>
      </trkpt>
      <trkpt lat="43.60864" lon="1.32319">
        <ele>210.4</ele>
        <time>2024-07-11T10:28:03Z</time>
      </trkpt>
      <trkpt lat="43.60858" lon="1.32322">
        <ele>210</ele>
        <time>2024-07-11T10:28:04Z</time>
      </trkpt>
      <trkpt lat="43.60852" lon="1.32326">
        <ele>209.4</ele>
        <time>2024-07-11T10:28:05Z</time>
      </trkpt>
      <trkpt lat="43.60846" lon="1.3233">
        <ele>209.2</ele>
        <time>2024-07-11T10:28:06Z</time>
      </trkpt>
      <trkpt lat="43.6084" lon="1.32333">
        <ele>209</ele>
        <time>2024-07-11T10:28:07Z</time>
      </trkpt>
      <trkpt lat="43.60835" lon="1.32337">
        <ele>209</ele>
        <time>2024-07-11T10:28:08Z</time>
      </trkpt>
      <trkpt lat="43.60829" lon="1.3234">
        <ele>208.8</ele>
        <time>2024-07-11T10:28:09Z</time>
      </trkpt>
      <trkpt lat="43.60824" lon="1.32342">
        <ele>208.8</ele>
        <time>2024-07-11T10:28:10Z</time>
      </trkpt>
      <trkpt lat="43.60818" lon="1.32345">
        <ele>208.8</ele>
        <time>2024-07-11T10:28:11Z</time>
      </trkpt>
      <trkpt lat="43.60818" lon="1.32345">
        <ele>209</ele>
        <time>2024-07-11T10:28:12Z</time>
      </trkpt>
      <trkpt lat="43.60806" lon="1.32347">
        <ele>209</ele>
        <time>2024-07-11T10:28:13Z</time>
      </trkpt>
      <trkpt lat="43.608" lon="1.32347">
        <ele>209</ele>
        <time>2024-07-11T10:28:14Z</time>
      </trkpt>
      <trkpt lat="43.60795" lon="1.32346">
        <ele>209</ele>
        <time>2024-07-11T10:28:15Z</time>
      </trkpt>
      <trkpt lat="43.60789" lon="1.32345">
        <ele>209</ele>
        <time>2024-07-11T10:28:16Z</time>
      </trkpt>
      <trkpt lat="43.60784" lon="1.32344">
        <ele>209</ele>
        <time>2024-07-11T10:28:17Z</time>
      </trkpt>
      <trkpt lat="43.60779" lon="1.32343">
        <ele>209</ele>
        <time>2024-07-11T10:28:18Z</time>
      </trkpt>
      <trkpt lat="43.60774" lon="1.32343">
        <ele>209</ele>
        <time>2024-07-11T10:28:19Z</time>
      </trkpt>
      <trkpt lat="43.6077" lon="1.32347">
        <ele>209</ele>
        <time>2024-07-11T10:28:20Z</time>
      </trkpt>
      <trkpt lat="43.60767" lon="1.32352">
        <ele>209</ele>
        <time>2024-07-11T10:28:21Z</time>
      </trkpt>
      <trkpt lat="43.60767" lon="1.32352">
        <ele>208.8</ele>
        <time>2024-07-11T10:28:22Z</time>
      </trkpt>
      <trkpt lat="43.60759" lon="1.32362">
        <ele>208.6</ele>
        <time>2024-07-11T10:28:23Z</time>
      </trkpt>
      <trkpt lat="43.60754" lon="1.32367">
        <ele>208.4</ele>
        <time>2024-07-11T10:28:24Z</time>
      </trkpt>
      <trkpt lat="43.60751" lon="1.32372">
        <ele>208.4</ele>
        <time>2024-07-11T10:28:25Z</time>
      </trkpt>
      <trkpt lat="43.60747" lon="1.32379">
        <ele>208.2</ele>
        <time>2024-07-11T10:28:26Z</time>
      </trkpt>
      <trkpt lat="43.60744" lon="1.32386">
        <ele>208</ele>
        <time>2024-07-11T10:28:27Z</time>
      </trkpt>
      <trkpt lat="43.60741" lon="1.32393">
        <ele>208</ele>
        <time>2024-07-11T10:28:28Z</time>
      </trkpt>
      <trkpt lat="43.60738" lon="1.32399">
        <ele>208</ele>
        <time>2024-07-11T10:28:29Z</time>
      </trkpt>
      <trkpt lat="43.60733" lon="1.32403">
        <ele>208</ele>
        <time>2024-07-11T10:28:30Z</time>
      </trkpt>
      <trkpt lat="43.60728" lon="1.32406">
        <ele>207.8</ele>
        <time>2024-07-11T10:28:31Z</time>
      </trkpt>
      <trkpt lat="43.60723" lon="1.3241">
        <ele>207.8</ele>
        <time>2024-07-11T10:28:32Z</time>
      </trkpt>
      <trkpt lat="43.60718" lon="1.32414">
        <ele>207.8</ele>
        <time>2024-07-11T10:28:33Z</time>
      </trkpt>
      <trkpt lat="43.60714" lon="1.32418">
        <ele>207.8</ele>
        <time>2024-07-11T10:28:34Z</time>
      </trkpt>
      <trkpt lat="43.6071" lon="1.32421">
        <ele>207.8</ele>
        <time>2024-07-11T10:28:35Z</time>
      </trkpt>
      <trkpt lat="43.60706" lon="1.32424">
        <ele>207.6</ele>
        <time>2024-07-11T10:28:36Z</time>
      </trkpt>
      <trkpt lat="43.60704" lon="1.32425">
        <ele>207.8</ele>
        <time>2024-07-11T10:28:37Z</time>
      </trkpt>
      <trkpt lat="43.60703" lon="1.32426">
        <ele>207.8</ele>
        <time>2024-07-11T10:28:38Z</time>
      </trkpt>
      <trkpt lat="43.60701" lon="1.32427">
        <ele>207.8</ele>
        <time>2024-07-11T10:28:39Z</time>
      </trkpt>
      <trkpt lat="43.60699" lon="1.3243">
        <ele>207.8</ele>
        <time>2024-07-11T10:28:40Z</time>
      </trkpt>
      <trkpt lat="43.60695" lon="1.32432">
        <ele>208</ele>
        <time>2024-07-11T10:28:41Z</time>
      </trkpt>
      <trkpt lat="43.60695" lon="1.32432">
        <ele>208</ele>
        <time>2024-07-11T10:28:42Z</time>
      </trkpt>
      <trkpt lat="43.60665" lon="1.32427">
        <ele>208.2</ele>
        <time>2024-07-11T10:28:43Z</time>
      </trkpt>
      <trkpt lat="43.60658" lon="1.32425">
        <ele>208.2</ele>
        <time>2024-07-11T10:28:44Z</time>
      </trkpt>
      <trkpt lat="43.60654" lon="1.32421">
        <ele>208.2</ele>
        <time>2024-07-11T10:28:45Z</time>
      </trkpt>
      <trkpt lat="43.60649" lon="1.32417">
        <ele>208.2</ele>
        <time>2024-07-11T10:28:46Z</time>
      </trkpt>
      <trkpt lat="43.60645" lon="1.32413">
        <ele>208</ele>
        <time>2024-07-11T10:28:47Z</time>
      </trkpt>
      <trkpt lat="43.60639" lon="1.32408">
        <ele>208</ele>
        <time>2024-07-11T10:28:48Z</time>
      </trkpt>
      <trkpt lat="43.60634" lon="1.32404">
        <ele>208</ele>
        <time>2024-07-11T10:28:49Z</time>
      </trkpt>
      <trkpt lat="43.60629" lon="1.32399">
        <ele>208</ele>
        <time>2024-07-11T10:28:50Z</time>
      </trkpt>
      <trkpt lat="43.60625" lon="1.32394">
        <ele>208</ele>
        <time>2024-07-11T10:28:51Z</time>
      </trkpt>
      <trkpt lat="43.6062" lon="1.32389">
        <ele>207.8</ele>
        <time>2024-07-11T10:28:52Z</time>
      </trkpt>
      <trkpt lat="43.60616" lon="1.32383">
        <ele>207.8</ele>
        <time>2024-07-11T10:28:53Z</time>
      </trkpt>
      <trkpt lat="43.60611" lon="1.32378">
        <ele>207.8</ele>
        <time>2024-07-11T10:28:54Z</time>
      </trkpt>
      <trkpt lat="43.60608" lon="1.32371">
        <ele>207.8</ele>
        <time>2024-07-11T10:28:55Z</time>
      </trkpt>
      <trkpt lat="43.60604" lon="1.32366">
        <ele>207.8</ele>
        <time>2024-07-11T10:28:56Z</time>
      </trkpt>
      <trkpt lat="43.606" lon="1.32361">
        <ele>207.8</ele>
        <time>2024-07-11T10:28:57Z</time>
      </trkpt>
      <trkpt lat="43.60594" lon="1.32359">
        <ele>207.8</ele>
        <time>2024-07-11T10:28:58Z</time>
      </trkpt>
      <trkpt lat="43.60589" lon="1.32358">
        <ele>207.8</ele>
        <time>2024-07-11T10:28:59Z</time>
      </trkpt>
      <trkpt lat="43.60583" lon="1.32359">
        <ele>207.8</ele>
        <time>2024-07-11T10:29:00Z</time>
      </trkpt>
      <trkpt lat="43.60577" lon="1.3236">
        <ele>207.8</ele>
        <time>2024-07-11T10:29:01Z</time>
      </trkpt>
      <trkpt lat="43.60572" lon="1.3236">
        <ele>207.8</ele>
        <time>2024-07-11T10:29:02Z</time>
      </trkpt>
      <trkpt lat="43.60566" lon="1.32361">
        <ele>207.8</ele>
        <time>2024-07-11T10:29:03Z</time>
      </trkpt>
      <trkpt lat="43.6056" lon="1.32362">
        <ele>207.8</ele>
        <time>2024-07-11T10:29:04Z</time>
      </trkpt>
      <trkpt lat="43.60555" lon="1.32364">
        <ele>207.8</ele>
        <time>2024-07-11T10:29:05Z</time>
      </trkpt>
      <trkpt lat="43.6055" lon="1.32365">
        <ele>208</ele>
        <time>2024-07-11T10:29:06Z</time>
      </trkpt>
      <trkpt lat="43.60544" lon="1.32363">
        <ele>208</ele>
        <time>2024-07-11T10:29:07Z</time>
      </trkpt>
      <trkpt lat="43.60538" lon="1.32362">
        <ele>208</ele>
        <time>2024-07-11T10:29:08Z</time>
      </trkpt>
      <trkpt lat="43.60533" lon="1.32361">
        <ele>208</ele>
        <time>2024-07-11T10:29:09Z</time>
      </trkpt>
      <trkpt lat="43.60528" lon="1.32363">
        <ele>208</ele>
        <time>2024-07-11T10:29:10Z</time>
      </trkpt>
      <trkpt lat="43.60523" lon="1.32365">
        <ele>208.2</ele>
        <time>2024-07-11T10:29:11Z</time>
      </trkpt>
      <trkpt lat="43.60517" lon="1.32368">
        <ele>208.2</ele>
        <time>2024-07-11T10:29:12Z</time>
      </trkpt>
      <trkpt lat="43.60512" lon="1.3237">
        <ele>208.2</ele>
        <time>2024-07-11T10:29:13Z</time>
      </trkpt>
      <trkpt lat="43.60506" lon="1.32373">
        <ele>208.2</ele>
        <time>2024-07-11T10:29:14Z</time>
      </trkpt>
      <trkpt lat="43.60501" lon="1.32376">
        <ele>208.4</ele>
        <time>2024-07-11T10:29:15Z</time>
      </trkpt>
      <trkpt lat="43.60495" lon="1.32378">
        <ele>208.6</ele>
        <time>2024-07-11T10:29:16Z</time>
      </trkpt>
      <trkpt lat="43.60489" lon="1.3238">
        <ele>208.8</ele>
        <time>2024-07-11T10:29:17Z</time>
      </trkpt>
      <trkpt lat="43.60484" lon="1.32383">
        <ele>208.8</ele>
        <time>2024-07-11T10:29:18Z</time>
      </trkpt>
      <trkpt lat="43.60478" lon="1.32387">
        <ele>208.8</ele>
        <time>2024-07-11T10:29:19Z</time>
      </trkpt>
      <trkpt lat="43.60473" lon="1.32392">
        <ele>209</ele>
        <time>2024-07-11T10:29:20Z</time>
      </trkpt>
      <trkpt lat="43.60468" lon="1.32397">
        <ele>209</ele>
        <time>2024-07-11T10:29:21Z</time>
      </trkpt>
      <trkpt lat="43.60464" lon="1.32403">
        <ele>208.8</ele>
        <time>2024-07-11T10:29:22Z</time>
      </trkpt>
      <trkpt lat="43.6046" lon="1.32409">
        <ele>208.8</ele>
        <time>2024-07-11T10:29:23Z</time>
      </trkpt>
      <trkpt lat="43.60457" lon="1.32415">
        <ele>208.8</ele>
        <time>2024-07-11T10:29:24Z</time>
      </trkpt>
      <trkpt lat="43.60453" lon="1.32422">
        <ele>208.8</ele>
        <time>2024-07-11T10:29:25Z</time>
      </trkpt>
      <trkpt lat="43.60453" lon="1.32422">
        <ele>208.8</ele>
        <time>2024-07-11T10:29:26Z</time>
      </trkpt>
      <trkpt lat="43.60446" lon="1.32435">
        <ele>208.8</ele>
        <time>2024-07-11T10:29:27Z</time>
      </trkpt>
      <trkpt lat="43.60443" lon="1.32442">
        <ele>208.8</ele>
        <time>2024-07-11T10:29:28Z</time>
      </trkpt>
      <trkpt lat="43.6044" lon="1.32448">
        <ele>208.6</ele>
        <time>2024-07-11T10:29:29Z</time>
      </trkpt>
      <trkpt lat="43.60436" lon="1.32454">
        <ele>208.6</ele>
        <time>2024-07-11T10:29:30Z</time>
      </trkpt>
      <trkpt lat="43.60433" lon="1.32461">
        <ele>208.6</ele>
        <time>2024-07-11T10:29:31Z</time>
      </trkpt>
      <trkpt lat="43.60429" lon="1.32467">
        <ele>208.6</ele>
        <time>2024-07-11T10:29:32Z</time>
      </trkpt>
      <trkpt lat="43.60426" lon="1.32474">
        <ele>208.6</ele>
        <time>2024-07-11T10:29:33Z</time>
      </trkpt>
      <trkpt lat="43.60422" lon="1.3248">
        <ele>208.6</ele>
        <time>2024-07-11T10:29:34Z</time>
      </trkpt>
      <trkpt lat="43.60419" lon="1.32487">
        <ele>208.6</ele>
        <time>2024-07-11T10:29:35Z</time>
      </trkpt>
      <trkpt lat="43.60415" lon="1.32494">
        <ele>208.6</ele>
        <time>2024-07-11T10:29:36Z</time>
      </trkpt>
      <trkpt lat="43.60411" lon="1.32501">
        <ele>208.8</ele>
        <time>2024-07-11T10:29:37Z</time>
      </trkpt>
      <trkpt lat="43.60407" lon="1.32509">
        <ele>208.8</ele>
        <time>2024-07-11T10:29:38Z</time>
      </trkpt>
      <trkpt lat="43.60403" lon="1.32516">
        <ele>208.8</ele>
        <time>2024-07-11T10:29:39Z</time>
      </trkpt>
      <trkpt lat="43.604" lon="1.32523">
        <ele>208.8</ele>
        <time>2024-07-11T10:29:40Z</time>
      </trkpt>
      <trkpt lat="43.60396" lon="1.3253">
        <ele>208.8</ele>
        <time>2024-07-11T10:29:41Z</time>
      </trkpt>
      <trkpt lat="43.60393" lon="1.32537">
        <ele>208.8</ele>
        <time>2024-07-11T10:29:42Z</time>
      </trkpt>
      <trkpt lat="43.60389" lon="1.32544">
        <ele>208.8</ele>
        <time>2024-07-11T10:29:43Z</time>
      </trkpt>
      <trkpt lat="43.60386" lon="1.3255">
        <ele>208.8</ele>
        <time>2024-07-11T10:29:44Z</time>
      </trkpt>
      <trkpt lat="43.60383" lon="1.32557">
        <ele>208.8</ele>
        <time>2024-07-11T10:29:45Z</time>
      </trkpt>
      <trkpt lat="43.60379" lon="1.32563">
        <ele>209</ele>
        <time>2024-07-11T10:29:46Z</time>
      </trkpt>
      <trkpt lat="43.60375" lon="1.3257">
        <ele>209</ele>
        <time>2024-07-11T10:29:47Z</time>
      </trkpt>
      <trkpt lat="43.60372" lon="1.32577">
        <ele>209</ele>
        <time>2024-07-11T10:29:48Z</time>
      </trkpt>
      <trkpt lat="43.60368" lon="1.32584">
        <ele>209</ele>
        <time>2024-07-11T10:29:49Z</time>
      </trkpt>
      <trkpt lat="43.60365" lon="1.3259">
        <ele>209</ele>
        <time>2024-07-11T10:29:50Z</time>
      </trkpt>
      <trkpt lat="43.60362" lon="1.32597">
        <ele>209</ele>
        <time>2024-07-11T10:29:51Z</time>
      </trkpt>
      <trkpt lat="43.60358" lon="1.32603">
        <ele>209</ele>
        <time>2024-07-11T10:29:52Z</time>
      </trkpt>
      <trkpt lat="43.60353" lon="1.32607">
        <ele>209</ele>
        <time>2024-07-11T10:29:53Z</time>
      </trkpt>
      <trkpt lat="43.60348" lon="1.32609">
        <ele>209</ele>
        <time>2024-07-11T10:29:54Z</time>
      </trkpt>
      <trkpt lat="43.60343" lon="1.32611">
        <ele>209</ele>
        <time>2024-07-11T10:29:55Z</time>
      </trkpt>
      <trkpt lat="43.60337" lon="1.32612">
        <ele>209</ele>
        <time>2024-07-11T10:29:56Z</time>
      </trkpt>
      <trkpt lat="43.60331" lon="1.32613">
        <ele>208.8</ele>
        <time>2024-07-11T10:29:57Z</time>
      </trkpt>
      <trkpt lat="43.60326" lon="1.32615">
        <ele>208.8</ele>
        <time>2024-07-11T10:29:58Z</time>
      </trkpt>
      <trkpt lat="43.6032" lon="1.32616">
        <ele>208.8</ele>
        <time>2024-07-11T10:29:59Z</time>
      </trkpt>
      <trkpt lat="43.60314" lon="1.32617">
        <ele>208.6</ele>
        <time>2024-07-11T10:30:00Z</time>
      </trkpt>
      <trkpt lat="43.60309" lon="1.32618">
        <ele>208.6</ele>
        <time>2024-07-11T10:30:01Z</time>
      </trkpt>
      <trkpt lat="43.60303" lon="1.32618">
        <ele>209</ele>
        <time>2024-07-11T10:30:02Z</time>
      </trkpt>
      <trkpt lat="43.60297" lon="1.32617">
        <ele>209</ele>
        <time>2024-07-11T10:30:03Z</time>
      </trkpt>
      <trkpt lat="43.60291" lon="1.32614">
        <ele>209</ele>
        <time>2024-07-11T10:30:04Z</time>
      </trkpt>
      <trkpt lat="43.60286" lon="1.32609">
        <ele>208.8</ele>
        <time>2024-07-11T10:30:05Z</time>
      </trkpt>
      <trkpt lat="43.60282" lon="1.32603">
        <ele>208.8</ele>
        <time>2024-07-11T10:30:06Z</time>
      </trkpt>
      <trkpt lat="43.60277" lon="1.32598">
        <ele>208.8</ele>
        <time>2024-07-11T10:30:07Z</time>
      </trkpt>
      <trkpt lat="43.60272" lon="1.32592">
        <ele>209</ele>
        <time>2024-07-11T10:30:08Z</time>
      </trkpt>
      <trkpt lat="43.60268" lon="1.32586">
        <ele>209</ele>
        <time>2024-07-11T10:30:09Z</time>
      </trkpt>
      <trkpt lat="43.60263" lon="1.3258">
        <ele>209</ele>
        <time>2024-07-11T10:30:10Z</time>
      </trkpt>
      <trkpt lat="43.60258" lon="1.32574">
        <ele>209</ele>
        <time>2024-07-11T10:30:11Z</time>
      </trkpt>
      <trkpt lat="43.60254" lon="1.32569">
        <ele>208.8</ele>
        <time>2024-07-11T10:30:12Z</time>
      </trkpt>
      <trkpt lat="43.60249" lon="1.32563">
        <ele>208.8</ele>
        <time>2024-07-11T10:30:13Z</time>
      </trkpt>
      <trkpt lat="43.60244" lon="1.32558">
        <ele>208.8</ele>
        <time>2024-07-11T10:30:14Z</time>
      </trkpt>
      <trkpt lat="43.60239" lon="1.32552">
        <ele>208.8</ele>
        <time>2024-07-11T10:30:15Z</time>
      </trkpt>
      <trkpt lat="43.60234" lon="1.32546">
        <ele>208.8</ele>
        <time>2024-07-11T10:30:16Z</time>
      </trkpt>
      <trkpt lat="43.6023" lon="1.3254">
        <ele>208.8</ele>
        <time>2024-07-11T10:30:17Z</time>
      </trkpt>
      <trkpt lat="43.60225" lon="1.32534">
        <ele>208.8</ele>
        <time>2024-07-11T10:30:18Z</time>
      </trkpt>
      <trkpt lat="43.6022" lon="1.32529">
        <ele>209</ele>
        <time>2024-07-11T10:30:19Z</time>
      </trkpt>
      <trkpt lat="43.60216" lon="1.32523">
        <ele>208.8</ele>
        <time>2024-07-11T10:30:20Z</time>
      </trkpt>
      <trkpt lat="43.60211" lon="1.32518">
        <ele>208.8</ele>
        <time>2024-07-11T10:30:21Z</time>
      </trkpt>
      <trkpt lat="43.60206" lon="1.32512">
        <ele>208.8</ele>
        <time>2024-07-11T10:30:22Z</time>
      </trkpt>
      <trkpt lat="43.60201" lon="1.32506">
        <ele>208.8</ele>
        <time>2024-07-11T10:30:23Z</time>
      </trkpt>
      <trkpt lat="43.60196" lon="1.32501">
        <ele>208.8</ele>
        <time>2024-07-11T10:30:24Z</time>
      </trkpt>
      <trkpt lat="43.60191" lon="1.32495">
        <ele>208.8</ele>
        <time>2024-07-11T10:30:25Z</time>
      </trkpt>
      <trkpt lat="43.60187" lon="1.3249">
        <ele>208.8</ele>
        <time>2024-07-11T10:30:26Z</time>
      </trkpt>
      <trkpt lat="43.60182" lon="1.32484">
        <ele>208.6</ele>
        <time>2024-07-11T10:30:27Z</time>
      </trkpt>
      <trkpt lat="43.60177" lon="1.32478">
        <ele>208.6</ele>
        <time>2024-07-11T10:30:28Z</time>
      </trkpt>
      <trkpt lat="43.60172" lon="1.32473">
        <ele>208.4</ele>
        <time>2024-07-11T10:30:29Z</time>
      </trkpt>
      <trkpt lat="43.60167" lon="1.32467">
        <ele>208.4</ele>
        <time>2024-07-11T10:30:30Z</time>
      </trkpt>
      <trkpt lat="43.60162" lon="1.32461">
        <ele>208.4</ele>
        <time>2024-07-11T10:30:31Z</time>
      </trkpt>
      <trkpt lat="43.60157" lon="1.32455">
        <ele>208.4</ele>
        <time>2024-07-11T10:30:32Z</time>
      </trkpt>
      <trkpt lat="43.60152" lon="1.32449">
        <ele>208.2</ele>
        <time>2024-07-11T10:30:33Z</time>
      </trkpt>
      <trkpt lat="43.60147" lon="1.32443">
        <ele>208.2</ele>
        <time>2024-07-11T10:30:34Z</time>
      </trkpt>
      <trkpt lat="43.60142" lon="1.32438">
        <ele>208.2</ele>
        <time>2024-07-11T10:30:35Z</time>
      </trkpt>
      <trkpt lat="43.60138" lon="1.32433">
        <ele>208.2</ele>
        <time>2024-07-11T10:30:36Z</time>
      </trkpt>
      <trkpt lat="43.60132" lon="1.32427">
        <ele>208.4</ele>
        <time>2024-07-11T10:30:37Z</time>
      </trkpt>
      <trkpt lat="43.60128" lon="1.32423">
        <ele>208.4</ele>
        <time>2024-07-11T10:30:38Z</time>
      </trkpt>
      <trkpt lat="43.60123" lon="1.32417">
        <ele>208.2</ele>
        <time>2024-07-11T10:30:39Z</time>
      </trkpt>
      <trkpt lat="43.60117" lon="1.32411">
        <ele>208.2</ele>
        <time>2024-07-11T10:30:40Z</time>
      </trkpt>
      <trkpt lat="43.60112" lon="1.32405">
        <ele>208.2</ele>
        <time>2024-07-11T10:30:41Z</time>
      </trkpt>
      <trkpt lat="43.60108" lon="1.324">
        <ele>208.2</ele>
        <time>2024-07-11T10:30:42Z</time>
      </trkpt>
      <trkpt lat="43.60103" lon="1.32394">
        <ele>208.2</ele>
        <time>2024-07-11T10:30:43Z</time>
      </trkpt>
      <trkpt lat="43.60099" lon="1.32388">
        <ele>208.2</ele>
        <time>2024-07-11T10:30:44Z</time>
      </trkpt>
      <trkpt lat="43.60094" lon="1.32381">
        <ele>208.2</ele>
        <time>2024-07-11T10:30:45Z</time>
      </trkpt>
      <trkpt lat="43.60089" lon="1.32376">
        <ele>208.4</ele>
        <time>2024-07-11T10:30:46Z</time>
      </trkpt>
      <trkpt lat="43.60085" lon="1.32372">
        <ele>208.4</ele>
        <time>2024-07-11T10:30:47Z</time>
      </trkpt>
      <trkpt lat="43.60081" lon="1.32366">
        <ele>208.4</ele>
        <time>2024-07-11T10:30:48Z</time>
      </trkpt>
      <trkpt lat="43.60076" lon="1.3236">
        <ele>208.6</ele>
        <time>2024-07-11T10:30:49Z</time>
      </trkpt>
      <trkpt lat="43.60071" lon="1.32354">
        <ele>208.6</ele>
        <time>2024-07-11T10:30:50Z</time>
      </trkpt>
      <trkpt lat="43.60067" lon="1.32348">
        <ele>208.8</ele>
        <time>2024-07-11T10:30:51Z</time>
      </trkpt>
      <trkpt lat="43.60064" lon="1.32344">
        <ele>208.8</ele>
        <time>2024-07-11T10:30:52Z</time>
      </trkpt>
      <trkpt lat="43.6006" lon="1.32339">
        <ele>208.8</ele>
        <time>2024-07-11T10:30:53Z</time>
      </trkpt>
      <trkpt lat="43.60056" lon="1.32333">
        <ele>209</ele>
        <time>2024-07-11T10:30:54Z</time>
      </trkpt>
      <trkpt lat="43.60053" lon="1.32328">
        <ele>209</ele>
        <time>2024-07-11T10:30:55Z</time>
      </trkpt>
      <trkpt lat="43.60051" lon="1.32321">
        <ele>209.2</ele>
        <time>2024-07-11T10:30:56Z</time>
      </trkpt>
      <trkpt lat="43.6005" lon="1.32315">
        <ele>209.2</ele>
        <time>2024-07-11T10:30:57Z</time>
      </trkpt>
      <trkpt lat="43.60049" lon="1.32308">
        <ele>209.2</ele>
        <time>2024-07-11T10:30:58Z</time>
      </trkpt>
      <trkpt lat="43.60048" lon="1.32299">
        <ele>209</ele>
        <time>2024-07-11T10:30:59Z</time>
      </trkpt>
      <trkpt lat="43.60048" lon="1.32292">
        <ele>209</ele>
        <time>2024-07-11T10:31:00Z</time>
      </trkpt>
      <trkpt lat="43.60048" lon="1.32286">
        <ele>209</ele>
        <time>2024-07-11T10:31:01Z</time>
      </trkpt>
      <trkpt lat="43.60048" lon="1.32278">
        <ele>209</ele>
        <time>2024-07-11T10:31:02Z</time>
      </trkpt>
      <trkpt lat="43.60049" lon="1.32272">
        <ele>209</ele>
        <time>2024-07-11T10:31:03Z</time>
      </trkpt>
      <trkpt lat="43.60048" lon="1.32266">
        <ele>209</ele>
        <time>2024-07-11T10:31:04Z</time>
      </trkpt>
      <trkpt lat="43.60046" lon="1.32261">
        <ele>209</ele>
        <time>2024-07-11T10:31:05Z</time>
      </trkpt>
      <trkpt lat="43.60044" lon="1.32259">
        <ele>209</ele>
        <time>2024-07-11T10:31:06Z</time>
      </trkpt>
      <trkpt lat="43.6004" lon="1.32259">
        <ele>209</ele>
        <time>2024-07-11T10:31:07Z</time>
      </trkpt>
      <trkpt lat="43.60037" lon="1.32261">
        <ele>208.8</ele>
        <time>2024-07-11T10:31:08Z</time>
      </trkpt>
      <trkpt lat="43.60032" lon="1.32263">
        <ele>208.8</ele>
        <time>2024-07-11T10:31:09Z</time>
      </trkpt>
      <trkpt lat="43.60027" lon="1.32264">
        <ele>208.8</ele>
        <time>2024-07-11T10:31:10Z</time>
      </trkpt>
      <trkpt lat="43.60023" lon="1.32265">
        <ele>209</ele>
        <time>2024-07-11T10:31:11Z</time>
      </trkpt>
      <trkpt lat="43.60017" lon="1.32265">
        <ele>209</ele>
        <time>2024-07-11T10:31:12Z</time>
      </trkpt>
      <trkpt lat="43.60011" lon="1.32266">
        <ele>209.2</ele>
        <time>2024-07-11T10:31:13Z</time>
      </trkpt>
      <trkpt lat="43.60006" lon="1.32267">
        <ele>209.2</ele>
        <time>2024-07-11T10:31:14Z</time>
      </trkpt>
      <trkpt lat="43.6" lon="1.32267">
        <ele>209.2</ele>
        <time>2024-07-11T10:31:15Z</time>
      </trkpt>
      <trkpt lat="43.59997" lon="1.32266">
        <ele>209.2</ele>
        <time>2024-07-11T10:31:16Z</time>
      </trkpt>
      <trkpt lat="43.59994" lon="1.32263">
        <ele>209.2</ele>
        <time>2024-07-11T10:31:17Z</time>
      </trkpt>
      <trkpt lat="43.5999" lon="1.32259">
        <ele>209.2</ele>
        <time>2024-07-11T10:31:18Z</time>
      </trkpt>
      <trkpt lat="43.59986" lon="1.32255">
        <ele>209.2</ele>
        <time>2024-07-11T10:31:19Z</time>
      </trkpt>
      <trkpt lat="43.59983" lon="1.32251">
        <ele>209.2</ele>
        <time>2024-07-11T10:31:20Z</time>
      </trkpt>
      <trkpt lat="43.59979" lon="1.32246">
        <ele>209.4</ele>
        <time>2024-07-11T10:31:21Z</time>
      </trkpt>
      <trkpt lat="43.59974" lon="1.32242">
        <ele>209.4</ele>
        <time>2024-07-11T10:31:22Z</time>
      </trkpt>
      <trkpt lat="43.59968" lon="1.32236">
        <ele>209.4</ele>
        <time>2024-07-11T10:31:23Z</time>
      </trkpt>
      <trkpt lat="43.59963" lon="1.32233">
        <ele>209.4</ele>
        <time>2024-07-11T10:31:24Z</time>
      </trkpt>
      <trkpt lat="43.59958" lon="1.3223">
        <ele>209.4</ele>
        <time>2024-07-11T10:31:25Z</time>
      </trkpt>
      <trkpt lat="43.59952" lon="1.32227">
        <ele>209.4</ele>
        <time>2024-07-11T10:31:26Z</time>
      </trkpt>
      <trkpt lat="43.59945" lon="1.32225">
        <ele>209.4</ele>
        <time>2024-07-11T10:31:27Z</time>
      </trkpt>
      <trkpt lat="43.59938" lon="1.32224">
        <ele>209.4</ele>
        <time>2024-07-11T10:31:28Z</time>
      </trkpt>
      <trkpt lat="43.59931" lon="1.32223">
        <ele>209.4</ele>
        <time>2024-07-11T10:31:29Z</time>
      </trkpt>
      <trkpt lat="43.59926" lon="1.32222">
        <ele>209.2</ele>
        <time>2024-07-11T10:31:30Z</time>
      </trkpt>
      <trkpt lat="43.59919" lon="1.32221">
        <ele>209.2</ele>
        <time>2024-07-11T10:31:31Z</time>
      </trkpt>
      <trkpt lat="43.59912" lon="1.3222">
        <ele>209.2</ele>
        <time>2024-07-11T10:31:32Z</time>
      </trkpt>
      <trkpt lat="43.59905" lon="1.32219">
        <ele>209.2</ele>
        <time>2024-07-11T10:31:33Z</time>
      </trkpt>
      <trkpt lat="43.59899" lon="1.32218">
        <ele>209.2</ele>
        <time>2024-07-11T10:31:34Z</time>
      </trkpt>
      <trkpt lat="43.59894" lon="1.32217">
        <ele>209.2</ele>
        <time>2024-07-11T10:31:35Z</time>
      </trkpt>
      <trkpt lat="43.59887" lon="1.32216">
        <ele>209.2</ele>
        <time>2024-07-11T10:31:36Z</time>
      </trkpt>
      <trkpt lat="43.5988" lon="1.32215">
        <ele>209</ele>
        <time>2024-07-11T10:31:37Z</time>
      </trkpt>
      <trkpt lat="43.59873" lon="1.32214">
        <ele>209</ele>
        <time>2024-07-11T10:31:38Z</time>
      </trkpt>
      <trkpt lat="43.59868" lon="1.32214">
        <ele>209</ele>
        <time>2024-07-11T10:31:39Z</time>
      </trkpt>
      <trkpt lat="43.59861" lon="1.32213">
        <ele>209</ele>
        <time>2024-07-11T10:31:40Z</time>
      </trkpt>
      <trkpt lat="43.59855" lon="1.32213">
        <ele>209</ele>
        <time>2024-07-11T10:31:41Z</time>
      </trkpt>
      <trkpt lat="43.59848" lon="1.32212">
        <ele>209</ele>
        <time>2024-07-11T10:31:42Z</time>
      </trkpt>
      <trkpt lat="43.59842" lon="1.3221">
        <ele>209</ele>
        <time>2024-07-11T10:31:43Z</time>
      </trkpt>
      <trkpt lat="43.59837" lon="1.32209">
        <ele>209</ele>
        <time>2024-07-11T10:31:44Z</time>
      </trkpt>
      <trkpt lat="43.59832" lon="1.32207">
        <ele>209</ele>
        <time>2024-07-11T10:31:45Z</time>
      </trkpt>
      <trkpt lat="43.59826" lon="1.32202">
        <ele>209</ele>
        <time>2024-07-11T10:31:46Z</time>
      </trkpt>
      <trkpt lat="43.59821" lon="1.32197">
        <ele>209</ele>
        <time>2024-07-11T10:31:47Z</time>
      </trkpt>
      <trkpt lat="43.59816" lon="1.32192">
        <ele>209</ele>
        <time>2024-07-11T10:31:48Z</time>
      </trkpt>
      <trkpt lat="43.59812" lon="1.32187">
        <ele>209</ele>
        <time>2024-07-11T10:31:49Z</time>
      </trkpt>
      <trkpt lat="43.59808" lon="1.32182">
        <ele>209</ele>
        <time>2024-07-11T10:31:50Z</time>
      </trkpt>
      <trkpt lat="43.59802" lon="1.32177">
        <ele>209</ele>
        <time>2024-07-11T10:31:51Z</time>
      </trkpt>
      <trkpt lat="43.59796" lon="1.32172">
        <ele>209</ele>
        <time>2024-07-11T10:31:52Z</time>
      </trkpt>
      <trkpt lat="43.59791" lon="1.32167">
        <ele>209</ele>
        <time>2024-07-11T10:31:53Z</time>
      </trkpt>
      <trkpt lat="43.59788" lon="1.32162">
        <ele>209</ele>
        <time>2024-07-11T10:31:54Z</time>
      </trkpt>
      <trkpt lat="43.59786" lon="1.32156">
        <ele>209.2</ele>
        <time>2024-07-11T10:31:55Z</time>
      </trkpt>
      <trkpt lat="43.59784" lon="1.32149">
        <ele>209.2</ele>
        <time>2024-07-11T10:31:56Z</time>
      </trkpt>
      <trkpt lat="43.59779" lon="1.32144">
        <ele>209.2</ele>
        <time>2024-07-11T10:31:57Z</time>
      </trkpt>
      <trkpt lat="43.59776" lon="1.32143">
        <ele>209.2</ele>
        <time>2024-07-11T10:31:58Z</time>
      </trkpt>
      <trkpt lat="43.59771" lon="1.32144">
        <ele>209.4</ele>
        <time>2024-07-11T10:31:59Z</time>
      </trkpt>
      <trkpt lat="43.59766" lon="1.32144">
        <ele>209.4</ele>
        <time>2024-07-11T10:32:00Z</time>
      </trkpt>
      <trkpt lat="43.5976" lon="1.32142">
        <ele>209.4</ele>
        <time>2024-07-11T10:32:01Z</time>
      </trkpt>
      <trkpt lat="43.59755" lon="1.32138">
        <ele>209.4</ele>
        <time>2024-07-11T10:32:02Z</time>
      </trkpt>
      <trkpt lat="43.59751" lon="1.32135">
        <ele>209.2</ele>
        <time>2024-07-11T10:32:03Z</time>
      </trkpt>
      <trkpt lat="43.59746" lon="1.32131">
        <ele>209.2</ele>
        <time>2024-07-11T10:32:04Z</time>
      </trkpt>
      <trkpt lat="43.5974" lon="1.32127">
        <ele>209.4</ele>
        <time>2024-07-11T10:32:05Z</time>
      </trkpt>
      <trkpt lat="43.59734" lon="1.32123">
        <ele>209.4</ele>
        <time>2024-07-11T10:32:06Z</time>
      </trkpt>
      <trkpt lat="43.5973" lon="1.3212">
        <ele>209.4</ele>
        <time>2024-07-11T10:32:07Z</time>
      </trkpt>
      <trkpt lat="43.59724" lon="1.32116">
        <ele>209.4</ele>
        <time>2024-07-11T10:32:08Z</time>
      </trkpt>
      <trkpt lat="43.59719" lon="1.32112">
        <ele>209.4</ele>
        <time>2024-07-11T10:32:09Z</time>
      </trkpt>
      <trkpt lat="43.59713" lon="1.32108">
        <ele>209.2</ele>
        <time>2024-07-11T10:32:10Z</time>
      </trkpt>
      <trkpt lat="43.59707" lon="1.32104">
        <ele>209.2</ele>
        <time>2024-07-11T10:32:11Z</time>
      </trkpt>
      <trkpt lat="43.59703" lon="1.32101">
        <ele>209.2</ele>
        <time>2024-07-11T10:32:12Z</time>
      </trkpt>
      <trkpt lat="43.59697" lon="1.32097">
        <ele>209.2</ele>
        <time>2024-07-11T10:32:13Z</time>
      </trkpt>
      <trkpt lat="43.59692" lon="1.32093">
        <ele>209.2</ele>
        <time>2024-07-11T10:32:14Z</time>
      </trkpt>
      <trkpt lat="43.59685" lon="1.32088">
        <ele>209.4</ele>
        <time>2024-07-11T10:32:15Z</time>
      </trkpt>
      <trkpt lat="43.5968" lon="1.32084">
        <ele>209.2</ele>
        <time>2024-07-11T10:32:16Z</time>
      </trkpt>
      <trkpt lat="43.59676" lon="1.32081">
        <ele>209.2</ele>
        <time>2024-07-11T10:32:17Z</time>
      </trkpt>
      <trkpt lat="43.5967" lon="1.32077">
        <ele>209.2</ele>
        <time>2024-07-11T10:32:18Z</time>
      </trkpt>
      <trkpt lat="43.59665" lon="1.32073">
        <ele>209.2</ele>
        <time>2024-07-11T10:32:19Z</time>
      </trkpt>
      <trkpt lat="43.59659" lon="1.32069">
        <ele>209.2</ele>
        <time>2024-07-11T10:32:20Z</time>
      </trkpt>
      <trkpt lat="43.59654" lon="1.32065">
        <ele>209.2</ele>
        <time>2024-07-11T10:32:21Z</time>
      </trkpt>
      <trkpt lat="43.59649" lon="1.32061">
        <ele>209.4</ele>
        <time>2024-07-11T10:32:22Z</time>
      </trkpt>
      <trkpt lat="43.59644" lon="1.32058">
        <ele>209.4</ele>
        <time>2024-07-11T10:32:23Z</time>
      </trkpt>
      <trkpt lat="43.59638" lon="1.32053">
        <ele>209.6</ele>
        <time>2024-07-11T10:32:24Z</time>
      </trkpt>
      <trkpt lat="43.59633" lon="1.32049">
        <ele>209.6</ele>
        <time>2024-07-11T10:32:25Z</time>
      </trkpt>
      <trkpt lat="43.59628" lon="1.32046">
        <ele>209.8</ele>
        <time>2024-07-11T10:32:26Z</time>
      </trkpt>
      <trkpt lat="43.59625" lon="1.32043">
        <ele>209.8</ele>
        <time>2024-07-11T10:32:27Z</time>
      </trkpt>
      <trkpt lat="43.5962" lon="1.3204">
        <ele>209.8</ele>
        <time>2024-07-11T10:32:28Z</time>
      </trkpt>
      <trkpt lat="43.59614" lon="1.32036">
        <ele>209.8</ele>
        <time>2024-07-11T10:32:29Z</time>
      </trkpt>
      <trkpt lat="43.59611" lon="1.32033">
        <ele>209.8</ele>
        <time>2024-07-11T10:32:30Z</time>
      </trkpt>
      <trkpt lat="43.59605" lon="1.32029">
        <ele>209.8</ele>
        <time>2024-07-11T10:32:31Z</time>
      </trkpt>
      <trkpt lat="43.59601" lon="1.32027">
        <ele>209.8</ele>
        <time>2024-07-11T10:32:32Z</time>
      </trkpt>
      <trkpt lat="43.59596" lon="1.32023">
        <ele>209.8</ele>
        <time>2024-07-11T10:32:33Z</time>
      </trkpt>
      <trkpt lat="43.59592" lon="1.32018">
        <ele>209.8</ele>
        <time>2024-07-11T10:32:34Z</time>
      </trkpt>
      <trkpt lat="43.59589" lon="1.32011">
        <ele>209.8</ele>
        <time>2024-07-11T10:32:35Z</time>
      </trkpt>
      <trkpt lat="43.59587" lon="1.32005">
        <ele>210</ele>
        <time>2024-07-11T10:32:36Z</time>
      </trkpt>
      <trkpt lat="43.59585" lon="1.31999">
        <ele>210</ele>
        <time>2024-07-11T10:32:37Z</time>
      </trkpt>
      <trkpt lat="43.5958" lon="1.31993">
        <ele>210</ele>
        <time>2024-07-11T10:32:38Z</time>
      </trkpt>
      <trkpt lat="43.59576" lon="1.31991">
        <ele>210</ele>
        <time>2024-07-11T10:32:39Z</time>
      </trkpt>
      <trkpt lat="43.5957" lon="1.3199">
        <ele>210</ele>
        <time>2024-07-11T10:32:40Z</time>
      </trkpt>
      <trkpt lat="43.59566" lon="1.31991">
        <ele>210</ele>
        <time>2024-07-11T10:32:41Z</time>
      </trkpt>
      <trkpt lat="43.5956" lon="1.31992">
        <ele>210</ele>
        <time>2024-07-11T10:32:42Z</time>
      </trkpt>
      <trkpt lat="43.59554" lon="1.31992">
        <ele>210</ele>
        <time>2024-07-11T10:32:43Z</time>
      </trkpt>
      <trkpt lat="43.5955" lon="1.3199">
        <ele>210</ele>
        <time>2024-07-11T10:32:44Z</time>
      </trkpt>
      <trkpt lat="43.59545" lon="1.31987">
        <ele>210</ele>
        <time>2024-07-11T10:32:45Z</time>
      </trkpt>
      <trkpt lat="43.59542" lon="1.31984">
        <ele>210</ele>
        <time>2024-07-11T10:32:46Z</time>
      </trkpt>
      <trkpt lat="43.59538" lon="1.31981">
        <ele>210</ele>
        <time>2024-07-11T10:32:47Z</time>
      </trkpt>
      <trkpt lat="43.59534" lon="1.31978">
        <ele>210</ele>
        <time>2024-07-11T10:32:48Z</time>
      </trkpt>
      <trkpt lat="43.5953" lon="1.31975">
        <ele>210</ele>
        <time>2024-07-11T10:32:49Z</time>
      </trkpt>
      <trkpt lat="43.59525" lon="1.31971">
        <ele>210</ele>
        <time>2024-07-11T10:32:50Z</time>
      </trkpt>
      <trkpt lat="43.5952" lon="1.31967">
        <ele>210</ele>
        <time>2024-07-11T10:32:51Z</time>
      </trkpt>
      <trkpt lat="43.59517" lon="1.31962">
        <ele>210</ele>
        <time>2024-07-11T10:32:52Z</time>
      </trkpt>
      <trkpt lat="43.59514" lon="1.31955">
        <ele>210</ele>
        <time>2024-07-11T10:32:53Z</time>
      </trkpt>
      <trkpt lat="43.59511" lon="1.31949">
        <ele>210.2</ele>
        <time>2024-07-11T10:32:54Z</time>
      </trkpt>
      <trkpt lat="43.59509" lon="1.31945">
        <ele>210.2</ele>
        <time>2024-07-11T10:32:55Z</time>
      </trkpt>
      <trkpt lat="43.59505" lon="1.31939">
        <ele>210.2</ele>
        <time>2024-07-11T10:32:56Z</time>
      </trkpt>
      <trkpt lat="43.59502" lon="1.31933">
        <ele>210.2</ele>
        <time>2024-07-11T10:32:57Z</time>
      </trkpt>
      <trkpt lat="43.59499" lon="1.31927">
        <ele>210.2</ele>
        <time>2024-07-11T10:32:58Z</time>
      </trkpt>
      <trkpt lat="43.59497" lon="1.31921">
        <ele>210.2</ele>
        <time>2024-07-11T10:32:59Z</time>
      </trkpt>
      <trkpt lat="43.59495" lon="1.31916">
        <ele>210</ele>
        <time>2024-07-11T10:33:00Z</time>
      </trkpt>
      <trkpt lat="43.59493" lon="1.31909">
        <ele>210</ele>
        <time>2024-07-11T10:33:01Z</time>
      </trkpt>
      <trkpt lat="43.59491" lon="1.31903">
        <ele>210</ele>
        <time>2024-07-11T10:33:02Z</time>
      </trkpt>
      <trkpt lat="43.59489" lon="1.31894">
        <ele>210</ele>
        <time>2024-07-11T10:33:03Z</time>
      </trkpt>
      <trkpt lat="43.59488" lon="1.31887">
        <ele>210</ele>
        <time>2024-07-11T10:33:04Z</time>
      </trkpt>
      <trkpt lat="43.59487" lon="1.31881">
        <ele>210</ele>
        <time>2024-07-11T10:33:05Z</time>
      </trkpt>
      <trkpt lat="43.59487" lon="1.31874">
        <ele>210</ele>
        <time>2024-07-11T10:33:06Z</time>
      </trkpt>
      <trkpt lat="43.59487" lon="1.31866">
        <ele>210</ele>
        <time>2024-07-11T10:33:07Z</time>
      </trkpt>
      <trkpt lat="43.59487" lon="1.31857">
        <ele>210</ele>
        <time>2024-07-11T10:33:08Z</time>
      </trkpt>
      <trkpt lat="43.59487" lon="1.31851">
        <ele>210</ele>
        <time>2024-07-11T10:33:09Z</time>
      </trkpt>
      <trkpt lat="43.59488" lon="1.31843">
        <ele>210</ele>
        <time>2024-07-11T10:33:10Z</time>
      </trkpt>
      <trkpt lat="43.59488" lon="1.31835">
        <ele>210</ele>
        <time>2024-07-11T10:33:11Z</time>
      </trkpt>
      <trkpt lat="43.59488" lon="1.31827">
        <ele>210</ele>
        <time>2024-07-11T10:33:12Z</time>
      </trkpt>
      <trkpt lat="43.59489" lon="1.31817">
        <ele>210</ele>
        <time>2024-07-11T10:33:13Z</time>
      </trkpt>
      <trkpt lat="43.59489" lon="1.31811">
        <ele>210</ele>
        <time>2024-07-11T10:33:14Z</time>
      </trkpt>
      <trkpt lat="43.59489" lon="1.31803">
        <ele>210.2</ele>
        <time>2024-07-11T10:33:15Z</time>
      </trkpt>
      <trkpt lat="43.5949" lon="1.31795">
        <ele>210</ele>
        <time>2024-07-11T10:33:16Z</time>
      </trkpt>
      <trkpt lat="43.5949" lon="1.31788">
        <ele>210</ele>
        <time>2024-07-11T10:33:17Z</time>
      </trkpt>
      <trkpt lat="43.5949" lon="1.3178">
        <ele>210</ele>
        <time>2024-07-11T10:33:18Z</time>
      </trkpt>
      <trkpt lat="43.5949" lon="1.31772">
        <ele>210</ele>
        <time>2024-07-11T10:33:19Z</time>
      </trkpt>
      <trkpt lat="43.5949" lon="1.31765">
        <ele>210</ele>
        <time>2024-07-11T10:33:20Z</time>
      </trkpt>
      <trkpt lat="43.5949" lon="1.31756">
        <ele>210</ele>
        <time>2024-07-11T10:33:21Z</time>
      </trkpt>
      <trkpt lat="43.5949" lon="1.31748">
        <ele>210</ele>
        <time>2024-07-11T10:33:22Z</time>
      </trkpt>
      <trkpt lat="43.5949" lon="1.31743">
        <ele>210</ele>
        <time>2024-07-11T10:33:23Z</time>
      </trkpt>
      <trkpt lat="43.59488" lon="1.31736">
        <ele>210</ele>
        <time>2024-07-11T10:33:24Z</time>
      </trkpt>
      <trkpt lat="43.59484" lon="1.31732">
        <ele>210.2</ele>
        <time>2024-07-11T10:33:25Z</time>
      </trkpt>
      <trkpt lat="43.59478" lon="1.31731">
        <ele>210.2</ele>
        <time>2024-07-11T10:33:26Z</time>
      </trkpt>
      <trkpt lat="43.59474" lon="1.31732">
        <ele>210.2</ele>
        <time>2024-07-11T10:33:27Z</time>
      </trkpt>
      <trkpt lat="43.59469" lon="1.31732">
        <ele>210</ele>
        <time>2024-07-11T10:33:28Z</time>
      </trkpt>
      <trkpt lat="43.59465" lon="1.31732">
        <ele>210</ele>
        <time>2024-07-11T10:33:29Z</time>
      </trkpt>
      <trkpt lat="43.59461" lon="1.31731">
        <ele>210</ele>
        <time>2024-07-11T10:33:30Z</time>
      </trkpt>
      <trkpt lat="43.59456" lon="1.31731">
        <ele>210</ele>
        <time>2024-07-11T10:33:31Z</time>
      </trkpt>
      <trkpt lat="43.5945" lon="1.3173">
        <ele>210</ele>
        <time>2024-07-11T10:33:32Z</time>
      </trkpt>
      <trkpt lat="43.59446" lon="1.31729">
        <ele>210</ele>
        <time>2024-07-11T10:33:33Z</time>
      </trkpt>
      <trkpt lat="43.59441" lon="1.31729">
        <ele>210</ele>
        <time>2024-07-11T10:33:34Z</time>
      </trkpt>
      <trkpt lat="43.59437" lon="1.31729">
        <ele>210.2</ele>
        <time>2024-07-11T10:33:35Z</time>
      </trkpt>
      <trkpt lat="43.59431" lon="1.31728">
        <ele>210.2</ele>
        <time>2024-07-11T10:33:36Z</time>
      </trkpt>
      <trkpt lat="43.59426" lon="1.31729">
        <ele>210.4</ele>
        <time>2024-07-11T10:33:37Z</time>
      </trkpt>
      <trkpt lat="43.59422" lon="1.31731">
        <ele>210.4</ele>
        <time>2024-07-11T10:33:38Z</time>
      </trkpt>
      <trkpt lat="43.59417" lon="1.31733">
        <ele>210.4</ele>
        <time>2024-07-11T10:33:39Z</time>
      </trkpt>
      <trkpt lat="43.59411" lon="1.31734">
        <ele>210.4</ele>
        <time>2024-07-11T10:33:40Z</time>
      </trkpt>
      <trkpt lat="43.59406" lon="1.31734">
        <ele>210.4</ele>
        <time>2024-07-11T10:33:41Z</time>
      </trkpt>
      <trkpt lat="43.59401" lon="1.31734">
        <ele>210.4</ele>
        <time>2024-07-11T10:33:42Z</time>
      </trkpt>
      <trkpt lat="43.59396" lon="1.31735">
        <ele>210.4</ele>
        <time>2024-07-11T10:33:43Z</time>
      </trkpt>
      <trkpt lat="43.59391" lon="1.31736">
        <ele>210.4</ele>
        <time>2024-07-11T10:33:44Z</time>
      </trkpt>
      <trkpt lat="43.59386" lon="1.31739">
        <ele>210.6</ele>
        <time>2024-07-11T10:33:45Z</time>
      </trkpt>
      <trkpt lat="43.59381" lon="1.31744">
        <ele>210.6</ele>
        <time>2024-07-11T10:33:46Z</time>
      </trkpt>
      <trkpt lat="43.59377" lon="1.31747">
        <ele>210.4</ele>
        <time>2024-07-11T10:33:47Z</time>
      </trkpt>
      <trkpt lat="43.59373" lon="1.31751">
        <ele>210.6</ele>
        <time>2024-07-11T10:33:48Z</time>
      </trkpt>
      <trkpt lat="43.59368" lon="1.31755">
        <ele>210.6</ele>
        <time>2024-07-11T10:33:49Z</time>
      </trkpt>
      <trkpt lat="43.59363" lon="1.31759">
        <ele>210.8</ele>
        <time>2024-07-11T10:33:50Z</time>
      </trkpt>
      <trkpt lat="43.59357" lon="1.31763">
        <ele>210.8</ele>
        <time>2024-07-11T10:33:51Z</time>
      </trkpt>
      <trkpt lat="43.59354" lon="1.31767">
        <ele>210.8</ele>
        <time>2024-07-11T10:33:52Z</time>
      </trkpt>
      <trkpt lat="43.59351" lon="1.3177">
        <ele>210.8</ele>
        <time>2024-07-11T10:33:53Z</time>
      </trkpt>
      <trkpt lat="43.59347" lon="1.31773">
        <ele>210.8</ele>
        <time>2024-07-11T10:33:54Z</time>
      </trkpt>
      <trkpt lat="43.59345" lon="1.31776">
        <ele>210.8</ele>
        <time>2024-07-11T10:33:55Z</time>
      </trkpt>
      <trkpt lat="43.59343" lon="1.31779">
        <ele>210.8</ele>
        <time>2024-07-11T10:33:56Z</time>
      </trkpt>
      <trkpt lat="43.59341" lon="1.31781">
        <ele>210.8</ele>
        <time>2024-07-11T10:33:57Z</time>
      </trkpt>
      <trkpt lat="43.59339" lon="1.31784">
        <ele>210.8</ele>
        <time>2024-07-11T10:33:58Z</time>
      </trkpt>
      <trkpt lat="43.59336" lon="1.31786">
        <ele>210.8</ele>
        <time>2024-07-11T10:33:59Z</time>
      </trkpt>
      <trkpt lat="43.59333" lon="1.31787">
        <ele>210.6</ele>
        <time>2024-07-11T10:34:00Z</time>
      </trkpt>
      <trkpt lat="43.5933" lon="1.31788">
        <ele>210.6</ele>
        <time>2024-07-11T10:34:01Z</time>
      </trkpt>
      <trkpt lat="43.59327" lon="1.31788">
        <ele>210.4</ele>
        <time>2024-07-11T10:34:02Z</time>
      </trkpt>
      <trkpt lat="43.59323" lon="1.31787">
        <ele>210.4</ele>
        <time>2024-07-11T10:34:03Z</time>
      </trkpt>
      <trkpt lat="43.59318" lon="1.31786">
        <ele>210.4</ele>
        <time>2024-07-11T10:34:04Z</time>
      </trkpt>
      <trkpt lat="43.59313" lon="1.31785">
        <ele>210.4</ele>
        <time>2024-07-11T10:34:05Z</time>
      </trkpt>
      <trkpt lat="43.59309" lon="1.31785">
        <ele>210.4</ele>
        <time>2024-07-11T10:34:06Z</time>
      </trkpt>
      <trkpt lat="43.59305" lon="1.31783">
        <ele>210.6</ele>
        <time>2024-07-11T10:34:07Z</time>
      </trkpt>
      <trkpt lat="43.593" lon="1.3178">
        <ele>210.6</ele>
        <time>2024-07-11T10:34:08Z</time>
      </trkpt>
      <trkpt lat="43.59295" lon="1.31779">
        <ele>210.6</ele>
        <time>2024-07-11T10:34:09Z</time>
      </trkpt>
      <trkpt lat="43.59291" lon="1.31776">
        <ele>210.6</ele>
        <time>2024-07-11T10:34:10Z</time>
      </trkpt>
      <trkpt lat="43.59287" lon="1.31776">
        <ele>210.6</ele>
        <time>2024-07-11T10:34:11Z</time>
      </trkpt>
      <trkpt lat="43.59281" lon="1.31774">
        <ele>210.6</ele>
        <time>2024-07-11T10:34:12Z</time>
      </trkpt>
      <trkpt lat="43.59275" lon="1.31773">
        <ele>210.6</ele>
        <time>2024-07-11T10:34:13Z</time>
      </trkpt>
      <trkpt lat="43.59269" lon="1.31771">
        <ele>210.6</ele>
        <time>2024-07-11T10:34:14Z</time>
      </trkpt>
      <trkpt lat="43.59264" lon="1.3177">
        <ele>210.6</ele>
        <time>2024-07-11T10:34:15Z</time>
      </trkpt>
      <trkpt lat="43.5926" lon="1.31768">
        <ele>210.6</ele>
        <time>2024-07-11T10:34:16Z</time>
      </trkpt>
      <trkpt lat="43.59254" lon="1.31766">
        <ele>210.6</ele>
        <time>2024-07-11T10:34:17Z</time>
      </trkpt>
      <trkpt lat="43.59249" lon="1.31762">
        <ele>210.6</ele>
        <time>2024-07-11T10:34:18Z</time>
      </trkpt>
      <trkpt lat="43.59245" lon="1.31761">
        <ele>210.6</ele>
        <time>2024-07-11T10:34:19Z</time>
      </trkpt>
      <trkpt lat="43.59239" lon="1.31762">
        <ele>210.6</ele>
        <time>2024-07-11T10:34:20Z</time>
      </trkpt>
      <trkpt lat="43.59234" lon="1.31764">
        <ele>210.8</ele>
        <time>2024-07-11T10:34:21Z</time>
      </trkpt>
      <trkpt lat="43.59228" lon="1.31766">
        <ele>210.8</ele>
        <time>2024-07-11T10:34:22Z</time>
      </trkpt>
      <trkpt lat="43.59221" lon="1.31768">
        <ele>210.8</ele>
        <time>2024-07-11T10:34:23Z</time>
      </trkpt>
      <trkpt lat="43.59216" lon="1.3177">
        <ele>211</ele>
        <time>2024-07-11T10:34:24Z</time>
      </trkpt>
      <trkpt lat="43.5921" lon="1.31771">
        <ele>211</ele>
        <time>2024-07-11T10:34:25Z</time>
      </trkpt>
      <trkpt lat="43.59206" lon="1.31772">
        <ele>211</ele>
        <time>2024-07-11T10:34:26Z</time>
      </trkpt>
      <trkpt lat="43.592" lon="1.31774">
        <ele>210.8</ele>
        <time>2024-07-11T10:34:27Z</time>
      </trkpt>
      <trkpt lat="43.59195" lon="1.31775">
        <ele>210.8</ele>
        <time>2024-07-11T10:34:28Z</time>
      </trkpt>
      <trkpt lat="43.59188" lon="1.31777">
        <ele>210.8</ele>
        <time>2024-07-11T10:34:29Z</time>
      </trkpt>
      <trkpt lat="43.59184" lon="1.31778">
        <ele>210.8</ele>
        <time>2024-07-11T10:34:30Z</time>
      </trkpt>
      <trkpt lat="43.59178" lon="1.3178">
        <ele>210.8</ele>
        <time>2024-07-11T10:34:31Z</time>
      </trkpt>
      <trkpt lat="43.59173" lon="1.31782">
        <ele>210.6</ele>
        <time>2024-07-11T10:34:32Z</time>
      </trkpt>
      <trkpt lat="43.59167" lon="1.31785">
        <ele>210.6</ele>
        <time>2024-07-11T10:34:33Z</time>
      </trkpt>
      <trkpt lat="43.59163" lon="1.31787">
        <ele>210.6</ele>
        <time>2024-07-11T10:34:34Z</time>
      </trkpt>
      <trkpt lat="43.5916" lon="1.31788">
        <ele>210.6</ele>
        <time>2024-07-11T10:34:35Z</time>
      </trkpt>
      <trkpt lat="43.59157" lon="1.31789">
        <ele>210.6</ele>
        <time>2024-07-11T10:34:36Z</time>
      </trkpt>
      <trkpt lat="43.59154" lon="1.3179">
        <ele>210.6</ele>
        <time>2024-07-11T10:34:37Z</time>
      </trkpt>
      <trkpt lat="43.59152" lon="1.3179">
        <ele>210.6</ele>
        <time>2024-07-11T10:34:38Z</time>
      </trkpt>
      <trkpt lat="43.59149" lon="1.31792">
        <ele>210.6</ele>
        <time>2024-07-11T10:34:39Z</time>
      </trkpt>
      <trkpt lat="43.59147" lon="1.31794">
        <ele>210.6</ele>
        <time>2024-07-11T10:34:40Z</time>
      </trkpt>
      <trkpt lat="43.59143" lon="1.31796">
        <ele>210.8</ele>
        <time>2024-07-11T10:34:41Z</time>
      </trkpt>
      <trkpt lat="43.5914" lon="1.318">
        <ele>210.8</ele>
        <time>2024-07-11T10:34:42Z</time>
      </trkpt>
      <trkpt lat="43.59135" lon="1.31804">
        <ele>210.8</ele>
        <time>2024-07-11T10:34:43Z</time>
      </trkpt>
      <trkpt lat="43.59132" lon="1.31808">
        <ele>210.8</ele>
        <time>2024-07-11T10:34:44Z</time>
      </trkpt>
      <trkpt lat="43.59129" lon="1.31811">
        <ele>210.8</ele>
        <time>2024-07-11T10:34:45Z</time>
      </trkpt>
      <trkpt lat="43.59124" lon="1.31815">
        <ele>210.8</ele>
        <time>2024-07-11T10:34:46Z</time>
      </trkpt>
      <trkpt lat="43.59119" lon="1.3182">
        <ele>210.8</ele>
        <time>2024-07-11T10:34:47Z</time>
      </trkpt>
      <trkpt lat="43.59115" lon="1.31824">
        <ele>211</ele>
        <time>2024-07-11T10:34:48Z</time>
      </trkpt>
      <trkpt lat="43.59111" lon="1.31828">
        <ele>211</ele>
        <time>2024-07-11T10:34:49Z</time>
      </trkpt>
      <trkpt lat="43.59107" lon="1.31832">
        <ele>211</ele>
        <time>2024-07-11T10:34:50Z</time>
      </trkpt>
      <trkpt lat="43.59102" lon="1.31837">
        <ele>211</ele>
        <time>2024-07-11T10:34:51Z</time>
      </trkpt>
      <trkpt lat="43.59098" lon="1.31842">
        <ele>211</ele>
        <time>2024-07-11T10:34:52Z</time>
      </trkpt>
      <trkpt lat="43.59094" lon="1.31846">
        <ele>211</ele>
        <time>2024-07-11T10:34:53Z</time>
      </trkpt>
      <trkpt lat="43.5909" lon="1.3185">
        <ele>211</ele>
        <time>2024-07-11T10:34:54Z</time>
      </trkpt>
      <trkpt lat="43.59086" lon="1.31855">
        <ele>211</ele>
        <time>2024-07-11T10:34:55Z</time>
      </trkpt>
      <trkpt lat="43.5908" lon="1.3186">
        <ele>211</ele>
        <time>2024-07-11T10:34:56Z</time>
      </trkpt>
      <trkpt lat="43.59075" lon="1.31865">
        <ele>211</ele>
        <time>2024-07-11T10:34:57Z</time>
      </trkpt>
      <trkpt lat="43.59071" lon="1.31868">
        <ele>211</ele>
        <time>2024-07-11T10:34:58Z</time>
      </trkpt>
      <trkpt lat="43.59066" lon="1.31873">
        <ele>211</ele>
        <time>2024-07-11T10:34:59Z</time>
      </trkpt>
      <trkpt lat="43.59062" lon="1.31878">
        <ele>211</ele>
        <time>2024-07-11T10:35:00Z</time>
      </trkpt>
      <trkpt lat="43.59056" lon="1.31883">
        <ele>211</ele>
        <time>2024-07-11T10:35:01Z</time>
      </trkpt>
      <trkpt lat="43.59052" lon="1.31887">
        <ele>211</ele>
        <time>2024-07-11T10:35:02Z</time>
      </trkpt>
      <trkpt lat="43.59046" lon="1.31894">
        <ele>211</ele>
        <time>2024-07-11T10:35:03Z</time>
      </trkpt>
      <trkpt lat="43.59043" lon="1.31899">
        <ele>211</ele>
        <time>2024-07-11T10:35:04Z</time>
      </trkpt>
      <trkpt lat="43.59039" lon="1.31905">
        <ele>211</ele>
        <time>2024-07-11T10:35:05Z</time>
      </trkpt>
      <trkpt lat="43.59035" lon="1.31912">
        <ele>211</ele>
        <time>2024-07-11T10:35:06Z</time>
      </trkpt>
      <trkpt lat="43.59031" lon="1.31919">
        <ele>211</ele>
        <time>2024-07-11T10:35:07Z</time>
      </trkpt>
      <trkpt lat="43.59026" lon="1.31927">
        <ele>211</ele>
        <time>2024-07-11T10:35:08Z</time>
      </trkpt>
      <trkpt lat="43.59023" lon="1.31932">
        <ele>211</ele>
        <time>2024-07-11T10:35:09Z</time>
      </trkpt>
      <trkpt lat="43.59018" lon="1.31938">
        <ele>211</ele>
        <time>2024-07-11T10:35:10Z</time>
      </trkpt>
      <trkpt lat="43.59012" lon="1.31944">
        <ele>211</ele>
        <time>2024-07-11T10:35:11Z</time>
      </trkpt>
      <trkpt lat="43.59007" lon="1.3195">
        <ele>211</ele>
        <time>2024-07-11T10:35:12Z</time>
      </trkpt>
      <trkpt lat="43.59002" lon="1.31955">
        <ele>211</ele>
        <time>2024-07-11T10:35:13Z</time>
      </trkpt>
      <trkpt lat="43.58998" lon="1.31959">
        <ele>210.8</ele>
        <time>2024-07-11T10:35:14Z</time>
      </trkpt>
      <trkpt lat="43.58993" lon="1.31964">
        <ele>210.8</ele>
        <time>2024-07-11T10:35:15Z</time>
      </trkpt>
      <trkpt lat="43.58988" lon="1.31969">
        <ele>210.8</ele>
        <time>2024-07-11T10:35:16Z</time>
      </trkpt>
      <trkpt lat="43.58982" lon="1.31976">
        <ele>210.8</ele>
        <time>2024-07-11T10:35:17Z</time>
      </trkpt>
      <trkpt lat="43.58977" lon="1.31981">
        <ele>210.8</ele>
        <time>2024-07-11T10:35:18Z</time>
      </trkpt>
      <trkpt lat="43.58974" lon="1.31985">
        <ele>210.8</ele>
        <time>2024-07-11T10:35:19Z</time>
      </trkpt>
      <trkpt lat="43.58969" lon="1.3199">
        <ele>210.8</ele>
        <time>2024-07-11T10:35:20Z</time>
      </trkpt>
      <trkpt lat="43.58963" lon="1.31994">
        <ele>210.8</ele>
        <time>2024-07-11T10:35:21Z</time>
      </trkpt>
      <trkpt lat="43.58957" lon="1.31997">
        <ele>210.8</ele>
        <time>2024-07-11T10:35:22Z</time>
      </trkpt>
      <trkpt lat="43.58953" lon="1.31999">
        <ele>210.8</ele>
        <time>2024-07-11T10:35:23Z</time>
      </trkpt>
      <trkpt lat="43.58949" lon="1.32002">
        <ele>210.8</ele>
        <time>2024-07-11T10:35:24Z</time>
      </trkpt>
      <trkpt lat="43.58943" lon="1.32007">
        <ele>210.8</ele>
        <time>2024-07-11T10:35:25Z</time>
      </trkpt>
      <trkpt lat="43.58938" lon="1.32009">
        <ele>210.8</ele>
        <time>2024-07-11T10:35:26Z</time>
      </trkpt>
      <trkpt lat="43.58933" lon="1.3201">
        <ele>210.8</ele>
        <time>2024-07-11T10:35:27Z</time>
      </trkpt>
      <trkpt lat="43.58929" lon="1.3201">
        <ele>210.8</ele>
        <time>2024-07-11T10:35:28Z</time>
      </trkpt>
      <trkpt lat="43.58925" lon="1.32013">
        <ele>210.8</ele>
        <time>2024-07-11T10:35:29Z</time>
      </trkpt>
      <trkpt lat="43.5892" lon="1.32018">
        <ele>211</ele>
        <time>2024-07-11T10:35:30Z</time>
      </trkpt>
      <trkpt lat="43.58916" lon="1.32023">
        <ele>210.8</ele>
        <time>2024-07-11T10:35:31Z</time>
      </trkpt>
      <trkpt lat="43.58913" lon="1.32026">
        <ele>210.8</ele>
        <time>2024-07-11T10:35:32Z</time>
      </trkpt>
      <trkpt lat="43.58908" lon="1.32031">
        <ele>210.8</ele>
        <time>2024-07-11T10:35:33Z</time>
      </trkpt>
      <trkpt lat="43.58904" lon="1.32035">
        <ele>210.8</ele>
        <time>2024-07-11T10:35:34Z</time>
      </trkpt>
      <trkpt lat="43.58898" lon="1.3204">
        <ele>210.8</ele>
        <time>2024-07-11T10:35:35Z</time>
      </trkpt>
      <trkpt lat="43.58894" lon="1.32045">
        <ele>210.8</ele>
        <time>2024-07-11T10:35:36Z</time>
      </trkpt>
      <trkpt lat="43.5889" lon="1.32048">
        <ele>211</ele>
        <time>2024-07-11T10:35:37Z</time>
      </trkpt>
      <trkpt lat="43.58886" lon="1.32053">
        <ele>211</ele>
        <time>2024-07-11T10:35:38Z</time>
      </trkpt>
      <trkpt lat="43.5888" lon="1.32059">
        <ele>211</ele>
        <time>2024-07-11T10:35:39Z</time>
      </trkpt>
      <trkpt lat="43.58876" lon="1.32062">
        <ele>211</ele>
        <time>2024-07-11T10:35:40Z</time>
      </trkpt>
      <trkpt lat="43.5887" lon="1.32067">
        <ele>211</ele>
        <time>2024-07-11T10:35:41Z</time>
      </trkpt>
      <trkpt lat="43.58866" lon="1.32071">
        <ele>211</ele>
        <time>2024-07-11T10:35:42Z</time>
      </trkpt>
      <trkpt lat="43.58862" lon="1.32075">
        <ele>211</ele>
        <time>2024-07-11T10:35:43Z</time>
      </trkpt>
      <trkpt lat="43.58857" lon="1.3208">
        <ele>211</ele>
        <time>2024-07-11T10:35:44Z</time>
      </trkpt>
      <trkpt lat="43.58852" lon="1.32084">
        <ele>210.8</ele>
        <time>2024-07-11T10:35:45Z</time>
      </trkpt>
      <trkpt lat="43.58847" lon="1.3209">
        <ele>210.8</ele>
        <time>2024-07-11T10:35:46Z</time>
      </trkpt>
      <trkpt lat="43.58843" lon="1.32094">
        <ele>211</ele>
        <time>2024-07-11T10:35:47Z</time>
      </trkpt>
      <trkpt lat="43.58838" lon="1.32099">
        <ele>211.2</ele>
        <time>2024-07-11T10:35:48Z</time>
      </trkpt>
      <trkpt lat="43.58833" lon="1.32105">
        <ele>211.2</ele>
        <time>2024-07-11T10:35:49Z</time>
      </trkpt>
      <trkpt lat="43.58828" lon="1.3211">
        <ele>211</ele>
        <time>2024-07-11T10:35:50Z</time>
      </trkpt>
      <trkpt lat="43.58823" lon="1.32114">
        <ele>211.2</ele>
        <time>2024-07-11T10:35:51Z</time>
      </trkpt>
      <trkpt lat="43.5882" lon="1.32118">
        <ele>211.4</ele>
        <time>2024-07-11T10:35:52Z</time>
      </trkpt>
      <trkpt lat="43.58816" lon="1.32123">
        <ele>211.4</ele>
        <time>2024-07-11T10:35:53Z</time>
      </trkpt>
      <trkpt lat="43.58814" lon="1.3213">
        <ele>211.4</ele>
        <time>2024-07-11T10:35:54Z</time>
      </trkpt>
      <trkpt lat="43.58813" lon="1.32136">
        <ele>211.4</ele>
        <time>2024-07-11T10:35:55Z</time>
      </trkpt>
      <trkpt lat="43.58811" lon="1.3214">
        <ele>211.4</ele>
        <time>2024-07-11T10:35:56Z</time>
      </trkpt>
      <trkpt lat="43.58809" lon="1.32144">
        <ele>211.4</ele>
        <time>2024-07-11T10:35:57Z</time>
      </trkpt>
      <trkpt lat="43.58808" lon="1.32149">
        <ele>211.4</ele>
        <time>2024-07-11T10:35:58Z</time>
      </trkpt>
      <trkpt lat="43.58807" lon="1.32155">
        <ele>211</ele>
        <time>2024-07-11T10:35:59Z</time>
      </trkpt>
      <trkpt lat="43.58804" lon="1.32159">
        <ele>211.2</ele>
        <time>2024-07-11T10:36:00Z</time>
      </trkpt>
      <trkpt lat="43.588" lon="1.32163">
        <ele>211</ele>
        <time>2024-07-11T10:36:01Z</time>
      </trkpt>
      <trkpt lat="43.58796" lon="1.32167">
        <ele>211</ele>
        <time>2024-07-11T10:36:02Z</time>
      </trkpt>
      <trkpt lat="43.58791" lon="1.32172">
        <ele>211</ele>
        <time>2024-07-11T10:36:03Z</time>
      </trkpt>
      <trkpt lat="43.58787" lon="1.32176">
        <ele>210.8</ele>
        <time>2024-07-11T10:36:04Z</time>
      </trkpt>
      <trkpt lat="43.58782" lon="1.32181">
        <ele>210.8</ele>
        <time>2024-07-11T10:36:05Z</time>
      </trkpt>
      <trkpt lat="43.58779" lon="1.32184">
        <ele>210.8</ele>
        <time>2024-07-11T10:36:06Z</time>
      </trkpt>
      <trkpt lat="43.58775" lon="1.32189">
        <ele>210.4</ele>
        <time>2024-07-11T10:36:07Z</time>
      </trkpt>
      <trkpt lat="43.5877" lon="1.32196">
        <ele>210.6</ele>
        <time>2024-07-11T10:36:08Z</time>
      </trkpt>
      <trkpt lat="43.58765" lon="1.322">
        <ele>210.4</ele>
        <time>2024-07-11T10:36:09Z</time>
      </trkpt>
      <trkpt lat="43.58762" lon="1.32204">
        <ele>210.4</ele>
        <time>2024-07-11T10:36:10Z</time>
      </trkpt>
      <trkpt lat="43.58757" lon="1.32209">
        <ele>210.4</ele>
        <time>2024-07-11T10:36:11Z</time>
      </trkpt>
      <trkpt lat="43.58753" lon="1.32215">
        <ele>210.2</ele>
        <time>2024-07-11T10:36:12Z</time>
      </trkpt>
      <trkpt lat="43.58748" lon="1.32219">
        <ele>210.2</ele>
        <time>2024-07-11T10:36:13Z</time>
      </trkpt>
      <trkpt lat="43.58743" lon="1.32225">
        <ele>210.2</ele>
        <time>2024-07-11T10:36:14Z</time>
      </trkpt>
      <trkpt lat="43.58739" lon="1.32229">
        <ele>210.2</ele>
        <time>2024-07-11T10:36:15Z</time>
      </trkpt>
      <trkpt lat="43.58735" lon="1.32233">
        <ele>210.2</ele>
        <time>2024-07-11T10:36:16Z</time>
      </trkpt>
      <trkpt lat="43.58729" lon="1.32239">
        <ele>210.2</ele>
        <time>2024-07-11T10:36:17Z</time>
      </trkpt>
      <trkpt lat="43.58725" lon="1.32244">
        <ele>210.2</ele>
        <time>2024-07-11T10:36:18Z</time>
      </trkpt>
      <trkpt lat="43.58721" lon="1.32247">
        <ele>210.2</ele>
        <time>2024-07-11T10:36:19Z</time>
      </trkpt>
      <trkpt lat="43.58716" lon="1.32252">
        <ele>210.2</ele>
        <time>2024-07-11T10:36:20Z</time>
      </trkpt>
      <trkpt lat="43.58711" lon="1.32256">
        <ele>210.2</ele>
        <time>2024-07-11T10:36:21Z</time>
      </trkpt>
      <trkpt lat="43.58706" lon="1.32262">
        <ele>210</ele>
        <time>2024-07-11T10:36:22Z</time>
      </trkpt>
      <trkpt lat="43.58701" lon="1.32268">
        <ele>210</ele>
        <time>2024-07-11T10:36:23Z</time>
      </trkpt>
      <trkpt lat="43.58697" lon="1.32272">
        <ele>209.8</ele>
        <time>2024-07-11T10:36:24Z</time>
      </trkpt>
      <trkpt lat="43.58692" lon="1.32277">
        <ele>209.8</ele>
        <time>2024-07-11T10:36:25Z</time>
      </trkpt>
      <trkpt lat="43.58688" lon="1.32281">
        <ele>209.6</ele>
        <time>2024-07-11T10:36:26Z</time>
      </trkpt>
      <trkpt lat="43.58683" lon="1.32285">
        <ele>209.4</ele>
        <time>2024-07-11T10:36:27Z</time>
      </trkpt>
      <trkpt lat="43.5868" lon="1.32287">
        <ele>209.4</ele>
        <time>2024-07-11T10:36:28Z</time>
      </trkpt>
      <trkpt lat="43.58677" lon="1.32285">
        <ele>209.2</ele>
        <time>2024-07-11T10:36:29Z</time>
      </trkpt>
      <trkpt lat="43.58677" lon="1.32282">
        <ele>209</ele>
        <time>2024-07-11T10:36:30Z</time>
      </trkpt>
      <trkpt lat="43.58677" lon="1.32277">
        <ele>209</ele>
        <time>2024-07-11T10:36:31Z</time>
      </trkpt>
      <trkpt lat="43.58678" lon="1.32272">
        <ele>208.8</ele>
        <time>2024-07-11T10:36:32Z</time>
      </trkpt>
      <trkpt lat="43.58678" lon="1.32266">
        <ele>208.6</ele>
        <time>2024-07-11T10:36:33Z</time>
      </trkpt>
      <trkpt lat="43.58679" lon="1.32261">
        <ele>208.6</ele>
        <time>2024-07-11T10:36:34Z</time>
      </trkpt>
      <trkpt lat="43.58679" lon="1.32256">
        <ele>208.4</ele>
        <time>2024-07-11T10:36:35Z</time>
      </trkpt>
      <trkpt lat="43.58679" lon="1.32251">
        <ele>208.2</ele>
        <time>2024-07-11T10:36:36Z</time>
      </trkpt>
      <trkpt lat="43.58679" lon="1.32246">
        <ele>208.2</ele>
        <time>2024-07-11T10:36:37Z</time>
      </trkpt>
      <trkpt lat="43.58679" lon="1.32242">
        <ele>208.2</ele>
        <time>2024-07-11T10:36:38Z</time>
      </trkpt>
      <trkpt lat="43.5868" lon="1.32237">
        <ele>208</ele>
        <time>2024-07-11T10:36:39Z</time>
      </trkpt>
      <trkpt lat="43.5868" lon="1.32233">
        <ele>208</ele>
        <time>2024-07-11T10:36:40Z</time>
      </trkpt>
      <trkpt lat="43.5868" lon="1.32232">
        <ele>208</ele>
        <time>2024-07-11T10:36:41Z</time>
      </trkpt>
      <trkpt lat="43.5868" lon="1.32231">
        <ele>208</ele>
        <time>2024-07-11T10:36:42Z</time>
      </trkpt>
      <trkpt lat="43.5868" lon="1.32231">
        <ele>208.2</ele>
        <time>2024-07-11T10:36:43Z</time>
      </trkpt>
    </trkseg>
  </trk>
</gpx>